<?xml version="1.0" encoding="UTF-8" standalone="no" ?>
<gpx xmlns="http://www.topografix.com/GPX/1/1" xmlns:xsi="http://www.w3.org/2001/XMLSchema-instance" xsi:schemaLocation="http://www.topografix.com/GPX/1/1 http://www.topografix.com/GPX/1/1/gpx.xsd" version="1.1" creator="VisuGPX - https://www.visugpx.com">
  <metadata>
    <name>Sortie Monts du Lyonnais</name>
  </metadata>
  <trk>
    <name><![CDATA[⛅ Sortie Club dans les Monts du Lyonnais | Ride | Strava]]></name>
    <trkseg>
      <trkpt lat="45.7651" lon="4.66035">
        <ele>424.8</ele>
        <time>2020-06-14T06:29:00.000Z</time>
      </trkpt>
      <trkpt lat="45.76511" lon="4.6604">
        <ele>424.6</ele>
        <time>2020-06-14T06:29:01.000Z</time>
      </trkpt>
      <trkpt lat="45.7651" lon="4.66044">
        <ele>424.4</ele>
        <time>2020-06-14T06:29:02.000Z</time>
      </trkpt>
      <trkpt lat="45.7651" lon="4.66048">
        <ele>424.2</ele>
        <time>2020-06-14T06:29:03.000Z</time>
      </trkpt>
      <trkpt lat="45.76509" lon="4.66052">
        <ele>424.2</ele>
        <time>2020-06-14T06:29:04.000Z</time>
      </trkpt>
      <trkpt lat="45.76508" lon="4.66056">
        <ele>424</ele>
        <time>2020-06-14T06:29:05.000Z</time>
      </trkpt>
      <trkpt lat="45.76508" lon="4.6606">
        <ele>423.8</ele>
        <time>2020-06-14T06:29:06.000Z</time>
      </trkpt>
      <trkpt lat="45.76507" lon="4.66064">
        <ele>423.6</ele>
        <time>2020-06-14T06:29:07.000Z</time>
      </trkpt>
      <trkpt lat="45.76506" lon="4.66072">
        <ele>423.6</ele>
        <time>2020-06-14T06:29:09.000Z</time>
      </trkpt>
      <trkpt lat="45.76505" lon="4.66075">
        <ele>423.6</ele>
        <time>2020-06-14T06:29:10.000Z</time>
      </trkpt>
      <trkpt lat="45.76505" lon="4.66079">
        <ele>423.4</ele>
        <time>2020-06-14T06:29:11.000Z</time>
      </trkpt>
      <trkpt lat="45.76505" lon="4.66082">
        <ele>422.8</ele>
        <time>2020-06-14T06:29:12.000Z</time>
      </trkpt>
      <trkpt lat="45.76506" lon="4.66089">
        <ele>421.8</ele>
        <time>2020-06-14T06:29:14.000Z</time>
      </trkpt>
      <trkpt lat="45.76507" lon="4.66093">
        <ele>421.4</ele>
        <time>2020-06-14T06:29:15.000Z</time>
      </trkpt>
      <trkpt lat="45.76511" lon="4.66106">
        <ele>421</ele>
        <time>2020-06-14T06:29:18.000Z</time>
      </trkpt>
      <trkpt lat="45.76512" lon="4.6611">
        <ele>420.6</ele>
        <time>2020-06-14T06:29:19.000Z</time>
      </trkpt>
      <trkpt lat="45.76514" lon="4.66112">
        <ele>420.4</ele>
        <time>2020-06-14T06:29:20.000Z</time>
      </trkpt>
      <trkpt lat="45.76517" lon="4.66113">
        <ele>420.4</ele>
        <time>2020-06-14T06:29:21.000Z</time>
      </trkpt>
      <trkpt lat="45.7652" lon="4.66114">
        <ele>420.4</ele>
        <time>2020-06-14T06:29:22.000Z</time>
      </trkpt>
      <trkpt lat="45.76524" lon="4.66115">
        <ele>420.2</ele>
        <time>2020-06-14T06:29:23.000Z</time>
      </trkpt>
      <trkpt lat="45.76529" lon="4.66116">
        <ele>420</ele>
        <time>2020-06-14T06:29:24.000Z</time>
      </trkpt>
      <trkpt lat="45.76536" lon="4.66116">
        <ele>419.6</ele>
        <time>2020-06-14T06:29:25.000Z</time>
      </trkpt>
      <trkpt lat="45.76547" lon="4.66115">
        <ele>419</ele>
        <time>2020-06-14T06:29:27.000Z</time>
      </trkpt>
      <trkpt lat="45.76552" lon="4.66114">
        <ele>418.6</ele>
        <time>2020-06-14T06:29:28.000Z</time>
      </trkpt>
      <trkpt lat="45.76574" lon="4.66108">
        <ele>418</ele>
        <time>2020-06-14T06:29:31.000Z</time>
      </trkpt>
      <trkpt lat="45.76588" lon="4.66103">
        <ele>417.2</ele>
        <time>2020-06-14T06:29:33.000Z</time>
      </trkpt>
      <trkpt lat="45.76595" lon="4.66101">
        <ele>416.6</ele>
        <time>2020-06-14T06:29:34.000Z</time>
      </trkpt>
      <trkpt lat="45.76602" lon="4.661">
        <ele>415.8</ele>
        <time>2020-06-14T06:29:35.000Z</time>
      </trkpt>
      <trkpt lat="45.76609" lon="4.66099">
        <ele>415.4</ele>
        <time>2020-06-14T06:29:36.000Z</time>
      </trkpt>
      <trkpt lat="45.76616" lon="4.66099">
        <ele>414.8</ele>
        <time>2020-06-14T06:29:37.000Z</time>
      </trkpt>
      <trkpt lat="45.76623" lon="4.661">
        <ele>414.2</ele>
        <time>2020-06-14T06:29:38.000Z</time>
      </trkpt>
      <trkpt lat="45.76629" lon="4.66101">
        <ele>413.8</ele>
        <time>2020-06-14T06:29:39.000Z</time>
      </trkpt>
      <trkpt lat="45.76635" lon="4.66102">
        <ele>413.6</ele>
        <time>2020-06-14T06:29:40.000Z</time>
      </trkpt>
      <trkpt lat="45.7664" lon="4.66104">
        <ele>413.4</ele>
        <time>2020-06-14T06:29:41.000Z</time>
      </trkpt>
      <trkpt lat="45.76646" lon="4.66105">
        <ele>413.4</ele>
        <time>2020-06-14T06:29:42.000Z</time>
      </trkpt>
      <trkpt lat="45.76651" lon="4.66107">
        <ele>413.4</ele>
        <time>2020-06-14T06:29:43.000Z</time>
      </trkpt>
      <trkpt lat="45.76656" lon="4.66109">
        <ele>413.4</ele>
        <time>2020-06-14T06:29:44.000Z</time>
      </trkpt>
      <trkpt lat="45.76661" lon="4.66111">
        <ele>413.4</ele>
        <time>2020-06-14T06:29:45.000Z</time>
      </trkpt>
      <trkpt lat="45.76666" lon="4.66113">
        <ele>413.4</ele>
        <time>2020-06-14T06:29:46.000Z</time>
      </trkpt>
      <trkpt lat="45.76671" lon="4.66116">
        <ele>413.4</ele>
        <time>2020-06-14T06:29:47.000Z</time>
      </trkpt>
      <trkpt lat="45.76675" lon="4.6612">
        <ele>413.4</ele>
        <time>2020-06-14T06:29:48.000Z</time>
      </trkpt>
      <trkpt lat="45.7668" lon="4.66124">
        <ele>413.4</ele>
        <time>2020-06-14T06:29:49.000Z</time>
      </trkpt>
      <trkpt lat="45.76684" lon="4.66128">
        <ele>413.4</ele>
        <time>2020-06-14T06:29:50.000Z</time>
      </trkpt>
      <trkpt lat="45.76687" lon="4.66133">
        <ele>413.2</ele>
        <time>2020-06-14T06:29:51.000Z</time>
      </trkpt>
      <trkpt lat="45.7669" lon="4.66139">
        <ele>413.6</ele>
        <time>2020-06-14T06:29:52.000Z</time>
      </trkpt>
      <trkpt lat="45.76693" lon="4.66144">
        <ele>413.6</ele>
        <time>2020-06-14T06:29:53.000Z</time>
      </trkpt>
      <trkpt lat="45.76696" lon="4.6615">
        <ele>413.8</ele>
        <time>2020-06-14T06:29:54.000Z</time>
      </trkpt>
      <trkpt lat="45.76699" lon="4.66155">
        <ele>413.8</ele>
        <time>2020-06-14T06:29:55.000Z</time>
      </trkpt>
      <trkpt lat="45.76702" lon="4.66161">
        <ele>413.8</ele>
        <time>2020-06-14T06:29:56.000Z</time>
      </trkpt>
      <trkpt lat="45.76705" lon="4.66166">
        <ele>414</ele>
        <time>2020-06-14T06:29:57.000Z</time>
      </trkpt>
      <trkpt lat="45.76708" lon="4.66172">
        <ele>414</ele>
        <time>2020-06-14T06:29:58.000Z</time>
      </trkpt>
      <trkpt lat="45.7671" lon="4.66177">
        <ele>414</ele>
        <time>2020-06-14T06:29:59.000Z</time>
      </trkpt>
      <trkpt lat="45.76713" lon="4.66182">
        <ele>414</ele>
        <time>2020-06-14T06:30:00.000Z</time>
      </trkpt>
      <trkpt lat="45.76716" lon="4.66187">
        <ele>414.2</ele>
        <time>2020-06-14T06:30:01.000Z</time>
      </trkpt>
      <trkpt lat="45.76719" lon="4.66192">
        <ele>414.2</ele>
        <time>2020-06-14T06:30:02.000Z</time>
      </trkpt>
      <trkpt lat="45.76722" lon="4.66197">
        <ele>414.4</ele>
        <time>2020-06-14T06:30:03.000Z</time>
      </trkpt>
      <trkpt lat="45.76725" lon="4.66202">
        <ele>414.4</ele>
        <time>2020-06-14T06:30:04.000Z</time>
      </trkpt>
      <trkpt lat="45.76728" lon="4.66207">
        <ele>414.6</ele>
        <time>2020-06-14T06:30:05.000Z</time>
      </trkpt>
      <trkpt lat="45.76732" lon="4.66211">
        <ele>414.8</ele>
        <time>2020-06-14T06:30:06.000Z</time>
      </trkpt>
      <trkpt lat="45.76736" lon="4.66214">
        <ele>415</ele>
        <time>2020-06-14T06:30:07.000Z</time>
      </trkpt>
      <trkpt lat="45.7674" lon="4.66217">
        <ele>415</ele>
        <time>2020-06-14T06:30:08.000Z</time>
      </trkpt>
      <trkpt lat="45.76744" lon="4.6622">
        <ele>415</ele>
        <time>2020-06-14T06:30:09.000Z</time>
      </trkpt>
      <trkpt lat="45.76748" lon="4.66221">
        <ele>415.2</ele>
        <time>2020-06-14T06:30:10.000Z</time>
      </trkpt>
      <trkpt lat="45.76752" lon="4.66222">
        <ele>415.4</ele>
        <time>2020-06-14T06:30:11.000Z</time>
      </trkpt>
      <trkpt lat="45.76756" lon="4.66223">
        <ele>415.6</ele>
        <time>2020-06-14T06:30:12.000Z</time>
      </trkpt>
      <trkpt lat="45.7676" lon="4.66223">
        <ele>415.6</ele>
        <time>2020-06-14T06:30:13.000Z</time>
      </trkpt>
      <trkpt lat="45.76764" lon="4.66223">
        <ele>415.8</ele>
        <time>2020-06-14T06:30:14.000Z</time>
      </trkpt>
      <trkpt lat="45.76768" lon="4.66222">
        <ele>415.8</ele>
        <time>2020-06-14T06:30:15.000Z</time>
      </trkpt>
      <trkpt lat="45.76772" lon="4.66222">
        <ele>416</ele>
        <time>2020-06-14T06:30:16.000Z</time>
      </trkpt>
      <trkpt lat="45.76776" lon="4.66221">
        <ele>416.2</ele>
        <time>2020-06-14T06:30:17.000Z</time>
      </trkpt>
      <trkpt lat="45.7678" lon="4.66219">
        <ele>416.4</ele>
        <time>2020-06-14T06:30:18.000Z</time>
      </trkpt>
      <trkpt lat="45.76785" lon="4.66218">
        <ele>416.6</ele>
        <time>2020-06-14T06:30:19.000Z</time>
      </trkpt>
      <trkpt lat="45.76788" lon="4.66216">
        <ele>416.8</ele>
        <time>2020-06-14T06:30:20.000Z</time>
      </trkpt>
      <trkpt lat="45.76792" lon="4.66215">
        <ele>416.8</ele>
        <time>2020-06-14T06:30:21.000Z</time>
      </trkpt>
      <trkpt lat="45.76796" lon="4.66214">
        <ele>416.8</ele>
        <time>2020-06-14T06:30:22.000Z</time>
      </trkpt>
      <trkpt lat="45.768" lon="4.66213">
        <ele>417</ele>
        <time>2020-06-14T06:30:23.000Z</time>
      </trkpt>
      <trkpt lat="45.76808" lon="4.6621">
        <ele>417.4</ele>
        <time>2020-06-14T06:30:25.000Z</time>
      </trkpt>
      <trkpt lat="45.76812" lon="4.66208">
        <ele>417.4</ele>
        <time>2020-06-14T06:30:26.000Z</time>
      </trkpt>
      <trkpt lat="45.76816" lon="4.66207">
        <ele>417.4</ele>
        <time>2020-06-14T06:30:27.000Z</time>
      </trkpt>
      <trkpt lat="45.76819" lon="4.66204">
        <ele>417.6</ele>
        <time>2020-06-14T06:30:28.000Z</time>
      </trkpt>
      <trkpt lat="45.76823" lon="4.66202">
        <ele>417.6</ele>
        <time>2020-06-14T06:30:29.000Z</time>
      </trkpt>
      <trkpt lat="45.76826" lon="4.662">
        <ele>417.8</ele>
        <time>2020-06-14T06:30:30.000Z</time>
      </trkpt>
      <trkpt lat="45.7683" lon="4.66198">
        <ele>418</ele>
        <time>2020-06-14T06:30:31.000Z</time>
      </trkpt>
      <trkpt lat="45.76832" lon="4.66196">
        <ele>418</ele>
        <time>2020-06-14T06:30:32.000Z</time>
      </trkpt>
      <trkpt lat="45.76835" lon="4.66194">
        <ele>418.2</ele>
        <time>2020-06-14T06:30:33.000Z</time>
      </trkpt>
      <trkpt lat="45.76838" lon="4.66191">
        <ele>418</ele>
        <time>2020-06-14T06:30:34.000Z</time>
      </trkpt>
      <trkpt lat="45.76841" lon="4.66189">
        <ele>418.2</ele>
        <time>2020-06-14T06:30:35.000Z</time>
      </trkpt>
      <trkpt lat="45.76844" lon="4.66186">
        <ele>418.4</ele>
        <time>2020-06-14T06:30:36.000Z</time>
      </trkpt>
      <trkpt lat="45.76848" lon="4.66184">
        <ele>418.4</ele>
        <time>2020-06-14T06:30:37.000Z</time>
      </trkpt>
      <trkpt lat="45.76851" lon="4.66181">
        <ele>418.4</ele>
        <time>2020-06-14T06:30:38.000Z</time>
      </trkpt>
      <trkpt lat="45.76857" lon="4.66177">
        <ele>418.6</ele>
        <time>2020-06-14T06:30:40.000Z</time>
      </trkpt>
      <trkpt lat="45.76869" lon="4.6617">
        <ele>418.8</ele>
        <time>2020-06-14T06:30:43.000Z</time>
      </trkpt>
      <trkpt lat="45.76879" lon="4.66167">
        <ele>418.6</ele>
        <time>2020-06-14T06:30:45.000Z</time>
      </trkpt>
      <trkpt lat="45.76885" lon="4.66167">
        <ele>418.6</ele>
        <time>2020-06-14T06:30:46.000Z</time>
      </trkpt>
      <trkpt lat="45.76891" lon="4.66167">
        <ele>418.8</ele>
        <time>2020-06-14T06:30:47.000Z</time>
      </trkpt>
      <trkpt lat="45.76898" lon="4.66169">
        <ele>418.8</ele>
        <time>2020-06-14T06:30:48.000Z</time>
      </trkpt>
      <trkpt lat="45.76905" lon="4.66172">
        <ele>418.6</ele>
        <time>2020-06-14T06:30:49.000Z</time>
      </trkpt>
      <trkpt lat="45.76911" lon="4.66176">
        <ele>418.8</ele>
        <time>2020-06-14T06:30:50.000Z</time>
      </trkpt>
      <trkpt lat="45.76919" lon="4.66184">
        <ele>418.6</ele>
        <time>2020-06-14T06:30:51.000Z</time>
      </trkpt>
      <trkpt lat="45.76933" lon="4.66198">
        <ele>418.2</ele>
        <time>2020-06-14T06:30:53.000Z</time>
      </trkpt>
      <trkpt lat="45.7694" lon="4.66204">
        <ele>417.6</ele>
        <time>2020-06-14T06:30:54.000Z</time>
      </trkpt>
      <trkpt lat="45.76947" lon="4.66211">
        <ele>417</ele>
        <time>2020-06-14T06:30:55.000Z</time>
      </trkpt>
      <trkpt lat="45.76953" lon="4.66216">
        <ele>416.4</ele>
        <time>2020-06-14T06:30:56.000Z</time>
      </trkpt>
      <trkpt lat="45.76959" lon="4.6622">
        <ele>415.6</ele>
        <time>2020-06-14T06:30:57.000Z</time>
      </trkpt>
      <trkpt lat="45.76966" lon="4.66224">
        <ele>414.8</ele>
        <time>2020-06-14T06:30:58.000Z</time>
      </trkpt>
      <trkpt lat="45.76972" lon="4.66227">
        <ele>414</ele>
        <time>2020-06-14T06:30:59.000Z</time>
      </trkpt>
      <trkpt lat="45.76979" lon="4.6623">
        <ele>413.2</ele>
        <time>2020-06-14T06:31:00.000Z</time>
      </trkpt>
      <trkpt lat="45.76985" lon="4.66231">
        <ele>413</ele>
        <time>2020-06-14T06:31:01.000Z</time>
      </trkpt>
      <trkpt lat="45.76992" lon="4.6623">
        <ele>412.8</ele>
        <time>2020-06-14T06:31:02.000Z</time>
      </trkpt>
      <trkpt lat="45.76998" lon="4.66229">
        <ele>412.6</ele>
        <time>2020-06-14T06:31:03.000Z</time>
      </trkpt>
      <trkpt lat="45.77005" lon="4.66228">
        <ele>412.6</ele>
        <time>2020-06-14T06:31:04.000Z</time>
      </trkpt>
      <trkpt lat="45.77017" lon="4.66223">
        <ele>412.4</ele>
        <time>2020-06-14T06:31:06.000Z</time>
      </trkpt>
      <trkpt lat="45.7703" lon="4.66215">
        <ele>412.4</ele>
        <time>2020-06-14T06:31:08.000Z</time>
      </trkpt>
      <trkpt lat="45.77036" lon="4.66211">
        <ele>412.4</ele>
        <time>2020-06-14T06:31:09.000Z</time>
      </trkpt>
      <trkpt lat="45.77042" lon="4.66206">
        <ele>412.2</ele>
        <time>2020-06-14T06:31:10.000Z</time>
      </trkpt>
      <trkpt lat="45.77048" lon="4.662">
        <ele>412.2</ele>
        <time>2020-06-14T06:31:11.000Z</time>
      </trkpt>
      <trkpt lat="45.77054" lon="4.66193">
        <ele>412</ele>
        <time>2020-06-14T06:31:12.000Z</time>
      </trkpt>
      <trkpt lat="45.77059" lon="4.66185">
        <ele>412.2</ele>
        <time>2020-06-14T06:31:13.000Z</time>
      </trkpt>
      <trkpt lat="45.77064" lon="4.66175">
        <ele>412</ele>
        <time>2020-06-14T06:31:14.000Z</time>
      </trkpt>
      <trkpt lat="45.77068" lon="4.66165">
        <ele>411.8</ele>
        <time>2020-06-14T06:31:15.000Z</time>
      </trkpt>
      <trkpt lat="45.77075" lon="4.66141">
        <ele>411.4</ele>
        <time>2020-06-14T06:31:17.000Z</time>
      </trkpt>
      <trkpt lat="45.77077" lon="4.66128">
        <ele>411.2</ele>
        <time>2020-06-14T06:31:18.000Z</time>
      </trkpt>
      <trkpt lat="45.77079" lon="4.66115">
        <ele>411</ele>
        <time>2020-06-14T06:31:19.000Z</time>
      </trkpt>
      <trkpt lat="45.77081" lon="4.66088">
        <ele>410</ele>
        <time>2020-06-14T06:31:21.000Z</time>
      </trkpt>
      <trkpt lat="45.77082" lon="4.6606">
        <ele>408.4</ele>
        <time>2020-06-14T06:31:23.000Z</time>
      </trkpt>
      <trkpt lat="45.77082" lon="4.66031">
        <ele>406.6</ele>
        <time>2020-06-14T06:31:25.000Z</time>
      </trkpt>
      <trkpt lat="45.77081" lon="4.66002">
        <ele>405.8</ele>
        <time>2020-06-14T06:31:27.000Z</time>
      </trkpt>
      <trkpt lat="45.7708" lon="4.65974">
        <ele>404.4</ele>
        <time>2020-06-14T06:31:29.000Z</time>
      </trkpt>
      <trkpt lat="45.77079" lon="4.65959">
        <ele>403.6</ele>
        <time>2020-06-14T06:31:30.000Z</time>
      </trkpt>
      <trkpt lat="45.77078" lon="4.6593">
        <ele>402.4</ele>
        <time>2020-06-14T06:31:32.000Z</time>
      </trkpt>
      <trkpt lat="45.77078" lon="4.65915">
        <ele>401.4</ele>
        <time>2020-06-14T06:31:33.000Z</time>
      </trkpt>
      <trkpt lat="45.77079" lon="4.65901">
        <ele>400.4</ele>
        <time>2020-06-14T06:31:34.000Z</time>
      </trkpt>
      <trkpt lat="45.7708" lon="4.65886">
        <ele>399.6</ele>
        <time>2020-06-14T06:31:35.000Z</time>
      </trkpt>
      <trkpt lat="45.77081" lon="4.65873">
        <ele>398.8</ele>
        <time>2020-06-14T06:31:36.000Z</time>
      </trkpt>
      <trkpt lat="45.77082" lon="4.65859">
        <ele>398.4</ele>
        <time>2020-06-14T06:31:37.000Z</time>
      </trkpt>
      <trkpt lat="45.77084" lon="4.65847">
        <ele>397.4</ele>
        <time>2020-06-14T06:31:38.000Z</time>
      </trkpt>
      <trkpt lat="45.77086" lon="4.65835">
        <ele>396.4</ele>
        <time>2020-06-14T06:31:39.000Z</time>
      </trkpt>
      <trkpt lat="45.77089" lon="4.65825">
        <ele>395.6</ele>
        <time>2020-06-14T06:31:40.000Z</time>
      </trkpt>
      <trkpt lat="45.77092" lon="4.65815">
        <ele>395.6</ele>
        <time>2020-06-14T06:31:41.000Z</time>
      </trkpt>
      <trkpt lat="45.77096" lon="4.65806">
        <ele>395.4</ele>
        <time>2020-06-14T06:31:42.000Z</time>
      </trkpt>
      <trkpt lat="45.771" lon="4.65799">
        <ele>395.4</ele>
        <time>2020-06-14T06:31:43.000Z</time>
      </trkpt>
      <trkpt lat="45.77105" lon="4.65793">
        <ele>395.4</ele>
        <time>2020-06-14T06:31:44.000Z</time>
      </trkpt>
      <trkpt lat="45.7711" lon="4.6579">
        <ele>395.2</ele>
        <time>2020-06-14T06:31:45.000Z</time>
      </trkpt>
      <trkpt lat="45.77116" lon="4.65788">
        <ele>395.2</ele>
        <time>2020-06-14T06:31:46.000Z</time>
      </trkpt>
      <trkpt lat="45.77122" lon="4.65789">
        <ele>395.4</ele>
        <time>2020-06-14T06:31:47.000Z</time>
      </trkpt>
      <trkpt lat="45.77127" lon="4.65791">
        <ele>395.4</ele>
        <time>2020-06-14T06:31:48.000Z</time>
      </trkpt>
      <trkpt lat="45.77131" lon="4.65796">
        <ele>395.2</ele>
        <time>2020-06-14T06:31:49.000Z</time>
      </trkpt>
      <trkpt lat="45.77135" lon="4.65801">
        <ele>395.8</ele>
        <time>2020-06-14T06:31:50.000Z</time>
      </trkpt>
      <trkpt lat="45.77137" lon="4.65807">
        <ele>396.2</ele>
        <time>2020-06-14T06:31:51.000Z</time>
      </trkpt>
      <trkpt lat="45.77139" lon="4.65813">
        <ele>396.8</ele>
        <time>2020-06-14T06:31:52.000Z</time>
      </trkpt>
      <trkpt lat="45.7714" lon="4.6582">
        <ele>397.4</ele>
        <time>2020-06-14T06:31:53.000Z</time>
      </trkpt>
      <trkpt lat="45.77142" lon="4.65826">
        <ele>397.4</ele>
        <time>2020-06-14T06:31:54.000Z</time>
      </trkpt>
      <trkpt lat="45.77143" lon="4.65833">
        <ele>397.8</ele>
        <time>2020-06-14T06:31:55.000Z</time>
      </trkpt>
      <trkpt lat="45.77144" lon="4.65841">
        <ele>398.2</ele>
        <time>2020-06-14T06:31:56.000Z</time>
      </trkpt>
      <trkpt lat="45.77144" lon="4.65847">
        <ele>398.8</ele>
        <time>2020-06-14T06:31:57.000Z</time>
      </trkpt>
      <trkpt lat="45.77145" lon="4.65854">
        <ele>399.4</ele>
        <time>2020-06-14T06:31:58.000Z</time>
      </trkpt>
      <trkpt lat="45.77146" lon="4.65861">
        <ele>399.8</ele>
        <time>2020-06-14T06:31:59.000Z</time>
      </trkpt>
      <trkpt lat="45.77147" lon="4.65867">
        <ele>400.4</ele>
        <time>2020-06-14T06:32:00.000Z</time>
      </trkpt>
      <trkpt lat="45.77148" lon="4.65873">
        <ele>401.4</ele>
        <time>2020-06-14T06:32:01.000Z</time>
      </trkpt>
      <trkpt lat="45.7715" lon="4.65879">
        <ele>401.8</ele>
        <time>2020-06-14T06:32:02.000Z</time>
      </trkpt>
      <trkpt lat="45.77151" lon="4.65885">
        <ele>402.2</ele>
        <time>2020-06-14T06:32:03.000Z</time>
      </trkpt>
      <trkpt lat="45.77152" lon="4.65891">
        <ele>402.8</ele>
        <time>2020-06-14T06:32:04.000Z</time>
      </trkpt>
      <trkpt lat="45.77154" lon="4.65898">
        <ele>403.2</ele>
        <time>2020-06-14T06:32:05.000Z</time>
      </trkpt>
      <trkpt lat="45.77155" lon="4.65903">
        <ele>403.2</ele>
        <time>2020-06-14T06:32:06.000Z</time>
      </trkpt>
      <trkpt lat="45.77157" lon="4.65908">
        <ele>403.4</ele>
        <time>2020-06-14T06:32:07.000Z</time>
      </trkpt>
      <trkpt lat="45.77158" lon="4.65913">
        <ele>403.6</ele>
        <time>2020-06-14T06:32:08.000Z</time>
      </trkpt>
      <trkpt lat="45.7716" lon="4.65919">
        <ele>404</ele>
        <time>2020-06-14T06:32:09.000Z</time>
      </trkpt>
      <trkpt lat="45.77162" lon="4.65924">
        <ele>404.6</ele>
        <time>2020-06-14T06:32:10.000Z</time>
      </trkpt>
      <trkpt lat="45.77164" lon="4.65929">
        <ele>404.8</ele>
        <time>2020-06-14T06:32:11.000Z</time>
      </trkpt>
      <trkpt lat="45.77166" lon="4.65934">
        <ele>405.2</ele>
        <time>2020-06-14T06:32:12.000Z</time>
      </trkpt>
      <trkpt lat="45.77168" lon="4.65939">
        <ele>405.4</ele>
        <time>2020-06-14T06:32:13.000Z</time>
      </trkpt>
      <trkpt lat="45.7717" lon="4.65944">
        <ele>405.8</ele>
        <time>2020-06-14T06:32:14.000Z</time>
      </trkpt>
      <trkpt lat="45.77172" lon="4.65949">
        <ele>406.4</ele>
        <time>2020-06-14T06:32:15.000Z</time>
      </trkpt>
      <trkpt lat="45.77174" lon="4.65954">
        <ele>406.6</ele>
        <time>2020-06-14T06:32:16.000Z</time>
      </trkpt>
      <trkpt lat="45.77176" lon="4.65959">
        <ele>406.8</ele>
        <time>2020-06-14T06:32:17.000Z</time>
      </trkpt>
      <trkpt lat="45.77178" lon="4.65964">
        <ele>407</ele>
        <time>2020-06-14T06:32:18.000Z</time>
      </trkpt>
      <trkpt lat="45.7718" lon="4.65968">
        <ele>407.2</ele>
        <time>2020-06-14T06:32:19.000Z</time>
      </trkpt>
      <trkpt lat="45.77182" lon="4.65973">
        <ele>407.6</ele>
        <time>2020-06-14T06:32:20.000Z</time>
      </trkpt>
      <trkpt lat="45.77185" lon="4.65977">
        <ele>407.8</ele>
        <time>2020-06-14T06:32:21.000Z</time>
      </trkpt>
      <trkpt lat="45.77187" lon="4.65982">
        <ele>408.2</ele>
        <time>2020-06-14T06:32:22.000Z</time>
      </trkpt>
      <trkpt lat="45.7719" lon="4.65986">
        <ele>408.6</ele>
        <time>2020-06-14T06:32:23.000Z</time>
      </trkpt>
      <trkpt lat="45.77192" lon="4.6599">
        <ele>408.8</ele>
        <time>2020-06-14T06:32:24.000Z</time>
      </trkpt>
      <trkpt lat="45.77195" lon="4.65995">
        <ele>409</ele>
        <time>2020-06-14T06:32:25.000Z</time>
      </trkpt>
      <trkpt lat="45.77197" lon="4.65999">
        <ele>409.2</ele>
        <time>2020-06-14T06:32:26.000Z</time>
      </trkpt>
      <trkpt lat="45.772" lon="4.66002">
        <ele>409.2</ele>
        <time>2020-06-14T06:32:27.000Z</time>
      </trkpt>
      <trkpt lat="45.77203" lon="4.66005">
        <ele>409.4</ele>
        <time>2020-06-14T06:32:28.000Z</time>
      </trkpt>
      <trkpt lat="45.77207" lon="4.66008">
        <ele>409.4</ele>
        <time>2020-06-14T06:32:29.000Z</time>
      </trkpt>
      <trkpt lat="45.77211" lon="4.6601">
        <ele>409.8</ele>
        <time>2020-06-14T06:32:30.000Z</time>
      </trkpt>
      <trkpt lat="45.77214" lon="4.66011">
        <ele>410</ele>
        <time>2020-06-14T06:32:31.000Z</time>
      </trkpt>
      <trkpt lat="45.77218" lon="4.66012">
        <ele>410.4</ele>
        <time>2020-06-14T06:32:32.000Z</time>
      </trkpt>
      <trkpt lat="45.77222" lon="4.66012">
        <ele>410.6</ele>
        <time>2020-06-14T06:32:33.000Z</time>
      </trkpt>
      <trkpt lat="45.77226" lon="4.66012">
        <ele>411</ele>
        <time>2020-06-14T06:32:34.000Z</time>
      </trkpt>
      <trkpt lat="45.7723" lon="4.66011">
        <ele>411.2</ele>
        <time>2020-06-14T06:32:35.000Z</time>
      </trkpt>
      <trkpt lat="45.77234" lon="4.6601">
        <ele>411.6</ele>
        <time>2020-06-14T06:32:36.000Z</time>
      </trkpt>
      <trkpt lat="45.77237" lon="4.66008">
        <ele>411.8</ele>
        <time>2020-06-14T06:32:37.000Z</time>
      </trkpt>
      <trkpt lat="45.77241" lon="4.66007">
        <ele>411.8</ele>
        <time>2020-06-14T06:32:38.000Z</time>
      </trkpt>
      <trkpt lat="45.77245" lon="4.66005">
        <ele>412.2</ele>
        <time>2020-06-14T06:32:39.000Z</time>
      </trkpt>
      <trkpt lat="45.77248" lon="4.66003">
        <ele>412.4</ele>
        <time>2020-06-14T06:32:40.000Z</time>
      </trkpt>
      <trkpt lat="45.77252" lon="4.66002">
        <ele>412.6</ele>
        <time>2020-06-14T06:32:41.000Z</time>
      </trkpt>
      <trkpt lat="45.77255" lon="4.66">
        <ele>413</ele>
        <time>2020-06-14T06:32:42.000Z</time>
      </trkpt>
      <trkpt lat="45.77259" lon="4.65998">
        <ele>413</ele>
        <time>2020-06-14T06:32:43.000Z</time>
      </trkpt>
      <trkpt lat="45.77263" lon="4.65996">
        <ele>413.2</ele>
        <time>2020-06-14T06:32:44.000Z</time>
      </trkpt>
      <trkpt lat="45.77266" lon="4.65995">
        <ele>413.4</ele>
        <time>2020-06-14T06:32:45.000Z</time>
      </trkpt>
      <trkpt lat="45.7727" lon="4.65993">
        <ele>413.6</ele>
        <time>2020-06-14T06:32:46.000Z</time>
      </trkpt>
      <trkpt lat="45.77273" lon="4.65991">
        <ele>413.6</ele>
        <time>2020-06-14T06:32:47.000Z</time>
      </trkpt>
      <trkpt lat="45.77277" lon="4.6599">
        <ele>413.6</ele>
        <time>2020-06-14T06:32:48.000Z</time>
      </trkpt>
      <trkpt lat="45.77281" lon="4.65988">
        <ele>413.8</ele>
        <time>2020-06-14T06:32:49.000Z</time>
      </trkpt>
      <trkpt lat="45.77284" lon="4.65987">
        <ele>414</ele>
        <time>2020-06-14T06:32:50.000Z</time>
      </trkpt>
      <trkpt lat="45.77288" lon="4.65985">
        <ele>414.2</ele>
        <time>2020-06-14T06:32:51.000Z</time>
      </trkpt>
      <trkpt lat="45.77291" lon="4.65984">
        <ele>414.4</ele>
        <time>2020-06-14T06:32:52.000Z</time>
      </trkpt>
      <trkpt lat="45.77295" lon="4.65982">
        <ele>414.8</ele>
        <time>2020-06-14T06:32:53.000Z</time>
      </trkpt>
      <trkpt lat="45.77298" lon="4.65981">
        <ele>415.2</ele>
        <time>2020-06-14T06:32:54.000Z</time>
      </trkpt>
      <trkpt lat="45.77302" lon="4.6598">
        <ele>415.2</ele>
        <time>2020-06-14T06:32:55.000Z</time>
      </trkpt>
      <trkpt lat="45.77305" lon="4.65978">
        <ele>415.4</ele>
        <time>2020-06-14T06:32:56.000Z</time>
      </trkpt>
      <trkpt lat="45.77309" lon="4.65977">
        <ele>415.8</ele>
        <time>2020-06-14T06:32:57.000Z</time>
      </trkpt>
      <trkpt lat="45.77313" lon="4.65977">
        <ele>415.8</ele>
        <time>2020-06-14T06:32:58.000Z</time>
      </trkpt>
      <trkpt lat="45.77316" lon="4.65976">
        <ele>416.4</ele>
        <time>2020-06-14T06:32:59.000Z</time>
      </trkpt>
      <trkpt lat="45.7732" lon="4.65977">
        <ele>416.4</ele>
        <time>2020-06-14T06:33:00.000Z</time>
      </trkpt>
      <trkpt lat="45.77324" lon="4.65977">
        <ele>416.6</ele>
        <time>2020-06-14T06:33:01.000Z</time>
      </trkpt>
      <trkpt lat="45.77327" lon="4.65978">
        <ele>416.6</ele>
        <time>2020-06-14T06:33:02.000Z</time>
      </trkpt>
      <trkpt lat="45.77331" lon="4.6598">
        <ele>416.8</ele>
        <time>2020-06-14T06:33:03.000Z</time>
      </trkpt>
      <trkpt lat="45.77334" lon="4.65982">
        <ele>417</ele>
        <time>2020-06-14T06:33:04.000Z</time>
      </trkpt>
      <trkpt lat="45.77337" lon="4.65984">
        <ele>417.4</ele>
        <time>2020-06-14T06:33:05.000Z</time>
      </trkpt>
      <trkpt lat="45.77339" lon="4.65988">
        <ele>417.4</ele>
        <time>2020-06-14T06:33:06.000Z</time>
      </trkpt>
      <trkpt lat="45.77341" lon="4.65992">
        <ele>417.2</ele>
        <time>2020-06-14T06:33:07.000Z</time>
      </trkpt>
      <trkpt lat="45.77343" lon="4.65996">
        <ele>417.4</ele>
        <time>2020-06-14T06:33:08.000Z</time>
      </trkpt>
      <trkpt lat="45.77345" lon="4.66001">
        <ele>417.4</ele>
        <time>2020-06-14T06:33:09.000Z</time>
      </trkpt>
      <trkpt lat="45.77347" lon="4.66006">
        <ele>417.6</ele>
        <time>2020-06-14T06:33:10.000Z</time>
      </trkpt>
      <trkpt lat="45.77351" lon="4.66022">
        <ele>418</ele>
        <time>2020-06-14T06:33:13.000Z</time>
      </trkpt>
      <trkpt lat="45.77356" lon="4.66043">
        <ele>418.4</ele>
        <time>2020-06-14T06:33:17.000Z</time>
      </trkpt>
      <trkpt lat="45.77357" lon="4.66049">
        <ele>418.6</ele>
        <time>2020-06-14T06:33:18.000Z</time>
      </trkpt>
      <trkpt lat="45.77359" lon="4.66054">
        <ele>418.6</ele>
        <time>2020-06-14T06:33:19.000Z</time>
      </trkpt>
      <trkpt lat="45.7736" lon="4.66059">
        <ele>418.6</ele>
        <time>2020-06-14T06:33:20.000Z</time>
      </trkpt>
      <trkpt lat="45.77361" lon="4.66065">
        <ele>418.8</ele>
        <time>2020-06-14T06:33:21.000Z</time>
      </trkpt>
      <trkpt lat="45.77362" lon="4.6607">
        <ele>418.8</ele>
        <time>2020-06-14T06:33:22.000Z</time>
      </trkpt>
      <trkpt lat="45.77364" lon="4.66075">
        <ele>419</ele>
        <time>2020-06-14T06:33:23.000Z</time>
      </trkpt>
      <trkpt lat="45.77365" lon="4.66081">
        <ele>419</ele>
        <time>2020-06-14T06:33:24.000Z</time>
      </trkpt>
      <trkpt lat="45.77367" lon="4.66086">
        <ele>419.2</ele>
        <time>2020-06-14T06:33:25.000Z</time>
      </trkpt>
      <trkpt lat="45.77368" lon="4.66091">
        <ele>419.4</ele>
        <time>2020-06-14T06:33:26.000Z</time>
      </trkpt>
      <trkpt lat="45.77369" lon="4.66096">
        <ele>419.4</ele>
        <time>2020-06-14T06:33:27.000Z</time>
      </trkpt>
      <trkpt lat="45.77371" lon="4.66102">
        <ele>419.6</ele>
        <time>2020-06-14T06:33:28.000Z</time>
      </trkpt>
      <trkpt lat="45.77372" lon="4.66107">
        <ele>419.6</ele>
        <time>2020-06-14T06:33:29.000Z</time>
      </trkpt>
      <trkpt lat="45.77373" lon="4.66112">
        <ele>419.6</ele>
        <time>2020-06-14T06:33:30.000Z</time>
      </trkpt>
      <trkpt lat="45.77375" lon="4.66117">
        <ele>419.8</ele>
        <time>2020-06-14T06:33:31.000Z</time>
      </trkpt>
      <trkpt lat="45.77376" lon="4.66122">
        <ele>420</ele>
        <time>2020-06-14T06:33:32.000Z</time>
      </trkpt>
      <trkpt lat="45.77377" lon="4.66127">
        <ele>420.2</ele>
        <time>2020-06-14T06:33:33.000Z</time>
      </trkpt>
      <trkpt lat="45.77378" lon="4.66132">
        <ele>420.4</ele>
        <time>2020-06-14T06:33:34.000Z</time>
      </trkpt>
      <trkpt lat="45.7738" lon="4.66138">
        <ele>420.6</ele>
        <time>2020-06-14T06:33:35.000Z</time>
      </trkpt>
      <trkpt lat="45.77381" lon="4.66143">
        <ele>420.8</ele>
        <time>2020-06-14T06:33:36.000Z</time>
      </trkpt>
      <trkpt lat="45.77382" lon="4.66148">
        <ele>420.8</ele>
        <time>2020-06-14T06:33:37.000Z</time>
      </trkpt>
      <trkpt lat="45.77384" lon="4.66153">
        <ele>421</ele>
        <time>2020-06-14T06:33:38.000Z</time>
      </trkpt>
      <trkpt lat="45.77385" lon="4.66159">
        <ele>421</ele>
        <time>2020-06-14T06:33:39.000Z</time>
      </trkpt>
      <trkpt lat="45.7739" lon="4.6618">
        <ele>421.8</ele>
        <time>2020-06-14T06:33:43.000Z</time>
      </trkpt>
      <trkpt lat="45.77392" lon="4.66186">
        <ele>421.8</ele>
        <time>2020-06-14T06:33:44.000Z</time>
      </trkpt>
      <trkpt lat="45.77398" lon="4.66202">
        <ele>422</ele>
        <time>2020-06-14T06:33:47.000Z</time>
      </trkpt>
      <trkpt lat="45.77412" lon="4.66243">
        <ele>422</ele>
        <time>2020-06-14T06:33:54.000Z</time>
      </trkpt>
      <trkpt lat="45.77418" lon="4.66255">
        <ele>422.2</ele>
        <time>2020-06-14T06:33:56.000Z</time>
      </trkpt>
      <trkpt lat="45.77432" lon="4.66275">
        <ele>422.4</ele>
        <time>2020-06-14T06:34:00.000Z</time>
      </trkpt>
      <trkpt lat="45.77435" lon="4.66279">
        <ele>422.4</ele>
        <time>2020-06-14T06:34:01.000Z</time>
      </trkpt>
      <trkpt lat="45.77439" lon="4.66283">
        <ele>422.4</ele>
        <time>2020-06-14T06:34:02.000Z</time>
      </trkpt>
      <trkpt lat="45.77443" lon="4.66287">
        <ele>422.4</ele>
        <time>2020-06-14T06:34:03.000Z</time>
      </trkpt>
      <trkpt lat="45.77447" lon="4.6629">
        <ele>422.4</ele>
        <time>2020-06-14T06:34:04.000Z</time>
      </trkpt>
      <trkpt lat="45.77451" lon="4.66294">
        <ele>422.6</ele>
        <time>2020-06-14T06:34:05.000Z</time>
      </trkpt>
      <trkpt lat="45.77455" lon="4.66297">
        <ele>422.6</ele>
        <time>2020-06-14T06:34:06.000Z</time>
      </trkpt>
      <trkpt lat="45.77459" lon="4.663">
        <ele>422.6</ele>
        <time>2020-06-14T06:34:07.000Z</time>
      </trkpt>
      <trkpt lat="45.77463" lon="4.66302">
        <ele>422.6</ele>
        <time>2020-06-14T06:34:08.000Z</time>
      </trkpt>
      <trkpt lat="45.77467" lon="4.66305">
        <ele>422.6</ele>
        <time>2020-06-14T06:34:09.000Z</time>
      </trkpt>
      <trkpt lat="45.77471" lon="4.66307">
        <ele>422.8</ele>
        <time>2020-06-14T06:34:10.000Z</time>
      </trkpt>
      <trkpt lat="45.77475" lon="4.6631">
        <ele>422.8</ele>
        <time>2020-06-14T06:34:11.000Z</time>
      </trkpt>
      <trkpt lat="45.7748" lon="4.66312">
        <ele>423</ele>
        <time>2020-06-14T06:34:12.000Z</time>
      </trkpt>
      <trkpt lat="45.77484" lon="4.66314">
        <ele>423.4</ele>
        <time>2020-06-14T06:34:13.000Z</time>
      </trkpt>
      <trkpt lat="45.77488" lon="4.66316">
        <ele>423.6</ele>
        <time>2020-06-14T06:34:14.000Z</time>
      </trkpt>
      <trkpt lat="45.77492" lon="4.66317">
        <ele>423.6</ele>
        <time>2020-06-14T06:34:15.000Z</time>
      </trkpt>
      <trkpt lat="45.77497" lon="4.66318">
        <ele>423.8</ele>
        <time>2020-06-14T06:34:16.000Z</time>
      </trkpt>
      <trkpt lat="45.77502" lon="4.66319">
        <ele>423.8</ele>
        <time>2020-06-14T06:34:17.000Z</time>
      </trkpt>
      <trkpt lat="45.77506" lon="4.66319">
        <ele>424.2</ele>
        <time>2020-06-14T06:34:18.000Z</time>
      </trkpt>
      <trkpt lat="45.77511" lon="4.66319">
        <ele>424.2</ele>
        <time>2020-06-14T06:34:19.000Z</time>
      </trkpt>
      <trkpt lat="45.77516" lon="4.66318">
        <ele>424.6</ele>
        <time>2020-06-14T06:34:20.000Z</time>
      </trkpt>
      <trkpt lat="45.77525" lon="4.66316">
        <ele>424.8</ele>
        <time>2020-06-14T06:34:22.000Z</time>
      </trkpt>
      <trkpt lat="45.77534" lon="4.66313">
        <ele>425.2</ele>
        <time>2020-06-14T06:34:24.000Z</time>
      </trkpt>
      <trkpt lat="45.77538" lon="4.66311">
        <ele>425.4</ele>
        <time>2020-06-14T06:34:25.000Z</time>
      </trkpt>
      <trkpt lat="45.77543" lon="4.66309">
        <ele>425.6</ele>
        <time>2020-06-14T06:34:26.000Z</time>
      </trkpt>
      <trkpt lat="45.77547" lon="4.66307">
        <ele>425.8</ele>
        <time>2020-06-14T06:34:27.000Z</time>
      </trkpt>
      <trkpt lat="45.77551" lon="4.66305">
        <ele>425.6</ele>
        <time>2020-06-14T06:34:28.000Z</time>
      </trkpt>
      <trkpt lat="45.77556" lon="4.66303">
        <ele>425.8</ele>
        <time>2020-06-14T06:34:29.000Z</time>
      </trkpt>
      <trkpt lat="45.7756" lon="4.66301">
        <ele>425.8</ele>
        <time>2020-06-14T06:34:30.000Z</time>
      </trkpt>
      <trkpt lat="45.77568" lon="4.66297">
        <ele>425.8</ele>
        <time>2020-06-14T06:34:32.000Z</time>
      </trkpt>
      <trkpt lat="45.77591" lon="4.66286">
        <ele>426.2</ele>
        <time>2020-06-14T06:34:37.000Z</time>
      </trkpt>
      <trkpt lat="45.77608" lon="4.66281">
        <ele>426.2</ele>
        <time>2020-06-14T06:34:40.000Z</time>
      </trkpt>
      <trkpt lat="45.77619" lon="4.66278">
        <ele>426.2</ele>
        <time>2020-06-14T06:34:42.000Z</time>
      </trkpt>
      <trkpt lat="45.77625" lon="4.66278">
        <ele>426.4</ele>
        <time>2020-06-14T06:34:43.000Z</time>
      </trkpt>
      <trkpt lat="45.77639" lon="4.66276">
        <ele>426.2</ele>
        <time>2020-06-14T06:34:45.000Z</time>
      </trkpt>
      <trkpt lat="45.77646" lon="4.66276">
        <ele>426</ele>
        <time>2020-06-14T06:34:46.000Z</time>
      </trkpt>
      <trkpt lat="45.77653" lon="4.66278">
        <ele>425.8</ele>
        <time>2020-06-14T06:34:47.000Z</time>
      </trkpt>
      <trkpt lat="45.7766" lon="4.66281">
        <ele>425.6</ele>
        <time>2020-06-14T06:34:48.000Z</time>
      </trkpt>
      <trkpt lat="45.77667" lon="4.66284">
        <ele>425.4</ele>
        <time>2020-06-14T06:34:49.000Z</time>
      </trkpt>
      <trkpt lat="45.77673" lon="4.6629">
        <ele>425.4</ele>
        <time>2020-06-14T06:34:50.000Z</time>
      </trkpt>
      <trkpt lat="45.77677" lon="4.66298">
        <ele>425</ele>
        <time>2020-06-14T06:34:51.000Z</time>
      </trkpt>
      <trkpt lat="45.77679" lon="4.66309">
        <ele>424.4</ele>
        <time>2020-06-14T06:34:52.000Z</time>
      </trkpt>
      <trkpt lat="45.7768" lon="4.66319">
        <ele>424</ele>
        <time>2020-06-14T06:34:53.000Z</time>
      </trkpt>
      <trkpt lat="45.7768" lon="4.66328">
        <ele>423.6</ele>
        <time>2020-06-14T06:34:54.000Z</time>
      </trkpt>
      <trkpt lat="45.7768" lon="4.66337">
        <ele>423.2</ele>
        <time>2020-06-14T06:34:55.000Z</time>
      </trkpt>
      <trkpt lat="45.7768" lon="4.66346">
        <ele>423.2</ele>
        <time>2020-06-14T06:34:56.000Z</time>
      </trkpt>
      <trkpt lat="45.77679" lon="4.66354">
        <ele>423.2</ele>
        <time>2020-06-14T06:34:57.000Z</time>
      </trkpt>
      <trkpt lat="45.77679" lon="4.66362">
        <ele>423.2</ele>
        <time>2020-06-14T06:34:58.000Z</time>
      </trkpt>
      <trkpt lat="45.77677" lon="4.66371">
        <ele>423</ele>
        <time>2020-06-14T06:34:59.000Z</time>
      </trkpt>
      <trkpt lat="45.77677" lon="4.66379">
        <ele>423</ele>
        <time>2020-06-14T06:35:00.000Z</time>
      </trkpt>
      <trkpt lat="45.77676" lon="4.66387">
        <ele>423.2</ele>
        <time>2020-06-14T06:35:01.000Z</time>
      </trkpt>
      <trkpt lat="45.77676" lon="4.66395">
        <ele>423</ele>
        <time>2020-06-14T06:35:02.000Z</time>
      </trkpt>
      <trkpt lat="45.77675" lon="4.66403">
        <ele>423</ele>
        <time>2020-06-14T06:35:03.000Z</time>
      </trkpt>
      <trkpt lat="45.77674" lon="4.66411">
        <ele>423.2</ele>
        <time>2020-06-14T06:35:04.000Z</time>
      </trkpt>
      <trkpt lat="45.77674" lon="4.66419">
        <ele>423.6</ele>
        <time>2020-06-14T06:35:05.000Z</time>
      </trkpt>
      <trkpt lat="45.77675" lon="4.66426">
        <ele>423.8</ele>
        <time>2020-06-14T06:35:06.000Z</time>
      </trkpt>
      <trkpt lat="45.77675" lon="4.66434">
        <ele>424.2</ele>
        <time>2020-06-14T06:35:07.000Z</time>
      </trkpt>
      <trkpt lat="45.77676" lon="4.66441">
        <ele>424.4</ele>
        <time>2020-06-14T06:35:08.000Z</time>
      </trkpt>
      <trkpt lat="45.77677" lon="4.66448">
        <ele>425</ele>
        <time>2020-06-14T06:35:09.000Z</time>
      </trkpt>
      <trkpt lat="45.77678" lon="4.66455">
        <ele>425.2</ele>
        <time>2020-06-14T06:35:10.000Z</time>
      </trkpt>
      <trkpt lat="45.77679" lon="4.66461">
        <ele>425.6</ele>
        <time>2020-06-14T06:35:11.000Z</time>
      </trkpt>
      <trkpt lat="45.7768" lon="4.66468">
        <ele>425.6</ele>
        <time>2020-06-14T06:35:12.000Z</time>
      </trkpt>
      <trkpt lat="45.77681" lon="4.66474">
        <ele>425.8</ele>
        <time>2020-06-14T06:35:13.000Z</time>
      </trkpt>
      <trkpt lat="45.77682" lon="4.6648">
        <ele>426</ele>
        <time>2020-06-14T06:35:14.000Z</time>
      </trkpt>
      <trkpt lat="45.77683" lon="4.66486">
        <ele>426.2</ele>
        <time>2020-06-14T06:35:15.000Z</time>
      </trkpt>
      <trkpt lat="45.77685" lon="4.66492">
        <ele>426.2</ele>
        <time>2020-06-14T06:35:16.000Z</time>
      </trkpt>
      <trkpt lat="45.77686" lon="4.66498">
        <ele>426.6</ele>
        <time>2020-06-14T06:35:17.000Z</time>
      </trkpt>
      <trkpt lat="45.77688" lon="4.66504">
        <ele>426.8</ele>
        <time>2020-06-14T06:35:18.000Z</time>
      </trkpt>
      <trkpt lat="45.7769" lon="4.66509">
        <ele>427.2</ele>
        <time>2020-06-14T06:35:19.000Z</time>
      </trkpt>
      <trkpt lat="45.77691" lon="4.66515">
        <ele>427.2</ele>
        <time>2020-06-14T06:35:20.000Z</time>
      </trkpt>
      <trkpt lat="45.77693" lon="4.66521">
        <ele>427.8</ele>
        <time>2020-06-14T06:35:21.000Z</time>
      </trkpt>
      <trkpt lat="45.77694" lon="4.66526">
        <ele>428</ele>
        <time>2020-06-14T06:35:22.000Z</time>
      </trkpt>
      <trkpt lat="45.77696" lon="4.66532">
        <ele>428.2</ele>
        <time>2020-06-14T06:35:23.000Z</time>
      </trkpt>
      <trkpt lat="45.77698" lon="4.66538">
        <ele>428.4</ele>
        <time>2020-06-14T06:35:24.000Z</time>
      </trkpt>
      <trkpt lat="45.77699" lon="4.66544">
        <ele>428.6</ele>
        <time>2020-06-14T06:35:25.000Z</time>
      </trkpt>
      <trkpt lat="45.77704" lon="4.66564">
        <ele>428.8</ele>
        <time>2020-06-14T06:35:28.000Z</time>
      </trkpt>
      <trkpt lat="45.77708" lon="4.66577">
        <ele>428.8</ele>
        <time>2020-06-14T06:35:30.000Z</time>
      </trkpt>
      <trkpt lat="45.7771" lon="4.66583">
        <ele>428.8</ele>
        <time>2020-06-14T06:35:31.000Z</time>
      </trkpt>
      <trkpt lat="45.77712" lon="4.66589">
        <ele>428.8</ele>
        <time>2020-06-14T06:35:32.000Z</time>
      </trkpt>
      <trkpt lat="45.77721" lon="4.66621">
        <ele>428.8</ele>
        <time>2020-06-14T06:35:37.000Z</time>
      </trkpt>
      <trkpt lat="45.77729" lon="4.66649">
        <ele>428.4</ele>
        <time>2020-06-14T06:35:41.000Z</time>
      </trkpt>
      <trkpt lat="45.77733" lon="4.66663">
        <ele>428.2</ele>
        <time>2020-06-14T06:35:43.000Z</time>
      </trkpt>
      <trkpt lat="45.77735" lon="4.66669">
        <ele>428</ele>
        <time>2020-06-14T06:35:44.000Z</time>
      </trkpt>
      <trkpt lat="45.77737" lon="4.66676">
        <ele>428</ele>
        <time>2020-06-14T06:35:45.000Z</time>
      </trkpt>
      <trkpt lat="45.77739" lon="4.66682">
        <ele>428</ele>
        <time>2020-06-14T06:35:46.000Z</time>
      </trkpt>
      <trkpt lat="45.77747" lon="4.66711">
        <ele>427.4</ele>
        <time>2020-06-14T06:35:50.000Z</time>
      </trkpt>
      <trkpt lat="45.77749" lon="4.66717">
        <ele>427.4</ele>
        <time>2020-06-14T06:35:51.000Z</time>
      </trkpt>
      <trkpt lat="45.77751" lon="4.66723">
        <ele>427.4</ele>
        <time>2020-06-14T06:35:52.000Z</time>
      </trkpt>
      <trkpt lat="45.77756" lon="4.66736">
        <ele>427.2</ele>
        <time>2020-06-14T06:35:54.000Z</time>
      </trkpt>
      <trkpt lat="45.77763" lon="4.66756">
        <ele>427</ele>
        <time>2020-06-14T06:35:57.000Z</time>
      </trkpt>
      <trkpt lat="45.77771" lon="4.66778">
        <ele>426.8</ele>
        <time>2020-06-14T06:36:00.000Z</time>
      </trkpt>
      <trkpt lat="45.77774" lon="4.66785">
        <ele>426.8</ele>
        <time>2020-06-14T06:36:01.000Z</time>
      </trkpt>
      <trkpt lat="45.77777" lon="4.66793">
        <ele>426.6</ele>
        <time>2020-06-14T06:36:02.000Z</time>
      </trkpt>
      <trkpt lat="45.7778" lon="4.66801">
        <ele>426.6</ele>
        <time>2020-06-14T06:36:03.000Z</time>
      </trkpt>
      <trkpt lat="45.77783" lon="4.66808">
        <ele>426.4</ele>
        <time>2020-06-14T06:36:04.000Z</time>
      </trkpt>
      <trkpt lat="45.77789" lon="4.66824">
        <ele>426</ele>
        <time>2020-06-14T06:36:06.000Z</time>
      </trkpt>
      <trkpt lat="45.77796" lon="4.66841">
        <ele>425.6</ele>
        <time>2020-06-14T06:36:08.000Z</time>
      </trkpt>
      <trkpt lat="45.77805" lon="4.66858">
        <ele>425.2</ele>
        <time>2020-06-14T06:36:10.000Z</time>
      </trkpt>
      <trkpt lat="45.77811" lon="4.66863">
        <ele>425.2</ele>
        <time>2020-06-14T06:36:11.000Z</time>
      </trkpt>
      <trkpt lat="45.77818" lon="4.66865">
        <ele>424.8</ele>
        <time>2020-06-14T06:36:12.000Z</time>
      </trkpt>
      <trkpt lat="45.77826" lon="4.66863">
        <ele>424.2</ele>
        <time>2020-06-14T06:36:13.000Z</time>
      </trkpt>
      <trkpt lat="45.77833" lon="4.66861">
        <ele>423.8</ele>
        <time>2020-06-14T06:36:14.000Z</time>
      </trkpt>
      <trkpt lat="45.77856" lon="4.66852">
        <ele>422</ele>
        <time>2020-06-14T06:36:17.000Z</time>
      </trkpt>
      <trkpt lat="45.77873" lon="4.66849">
        <ele>420.8</ele>
        <time>2020-06-14T06:36:19.000Z</time>
      </trkpt>
      <trkpt lat="45.77881" lon="4.66848">
        <ele>420</ele>
        <time>2020-06-14T06:36:20.000Z</time>
      </trkpt>
      <trkpt lat="45.77933" lon="4.66843">
        <ele>418.4</ele>
        <time>2020-06-14T06:36:25.000Z</time>
      </trkpt>
      <trkpt lat="45.77942" lon="4.66842">
        <ele>418</ele>
        <time>2020-06-14T06:36:28.000Z</time>
      </trkpt>
      <trkpt lat="45.77951" lon="4.66842">
        <ele>417.2</ele>
        <time>2020-06-14T06:36:29.000Z</time>
      </trkpt>
      <trkpt lat="45.7796" lon="4.66843">
        <ele>416.6</ele>
        <time>2020-06-14T06:36:30.000Z</time>
      </trkpt>
      <trkpt lat="45.77968" lon="4.66844">
        <ele>415.6</ele>
        <time>2020-06-14T06:36:31.000Z</time>
      </trkpt>
      <trkpt lat="45.77977" lon="4.66847">
        <ele>415.2</ele>
        <time>2020-06-14T06:36:32.000Z</time>
      </trkpt>
      <trkpt lat="45.77985" lon="4.6685">
        <ele>414.8</ele>
        <time>2020-06-14T06:36:33.000Z</time>
      </trkpt>
      <trkpt lat="45.77992" lon="4.66853">
        <ele>414.8</ele>
        <time>2020-06-14T06:36:34.000Z</time>
      </trkpt>
      <trkpt lat="45.78" lon="4.66856">
        <ele>414.4</ele>
        <time>2020-06-14T06:36:35.000Z</time>
      </trkpt>
      <trkpt lat="45.78007" lon="4.66858">
        <ele>414</ele>
        <time>2020-06-14T06:36:36.000Z</time>
      </trkpt>
      <trkpt lat="45.78014" lon="4.66861">
        <ele>413.6</ele>
        <time>2020-06-14T06:36:37.000Z</time>
      </trkpt>
      <trkpt lat="45.78021" lon="4.66863">
        <ele>413.2</ele>
        <time>2020-06-14T06:36:38.000Z</time>
      </trkpt>
      <trkpt lat="45.78027" lon="4.66865">
        <ele>413</ele>
        <time>2020-06-14T06:36:39.000Z</time>
      </trkpt>
      <trkpt lat="45.78034" lon="4.66868">
        <ele>413</ele>
        <time>2020-06-14T06:36:40.000Z</time>
      </trkpt>
      <trkpt lat="45.7804" lon="4.6687">
        <ele>413.2</ele>
        <time>2020-06-14T06:36:41.000Z</time>
      </trkpt>
      <trkpt lat="45.78047" lon="4.66872">
        <ele>413</ele>
        <time>2020-06-14T06:36:42.000Z</time>
      </trkpt>
      <trkpt lat="45.78053" lon="4.66874">
        <ele>413</ele>
        <time>2020-06-14T06:36:43.000Z</time>
      </trkpt>
      <trkpt lat="45.7806" lon="4.66875">
        <ele>413</ele>
        <time>2020-06-14T06:36:44.000Z</time>
      </trkpt>
      <trkpt lat="45.78066" lon="4.66876">
        <ele>413</ele>
        <time>2020-06-14T06:36:45.000Z</time>
      </trkpt>
      <trkpt lat="45.78086" lon="4.66875">
        <ele>413</ele>
        <time>2020-06-14T06:36:48.000Z</time>
      </trkpt>
      <trkpt lat="45.78093" lon="4.66872">
        <ele>412.8</ele>
        <time>2020-06-14T06:36:49.000Z</time>
      </trkpt>
      <trkpt lat="45.78099" lon="4.66869">
        <ele>412.8</ele>
        <time>2020-06-14T06:36:50.000Z</time>
      </trkpt>
      <trkpt lat="45.78112" lon="4.66859">
        <ele>413</ele>
        <time>2020-06-14T06:36:52.000Z</time>
      </trkpt>
      <trkpt lat="45.78119" lon="4.66852">
        <ele>412.8</ele>
        <time>2020-06-14T06:36:53.000Z</time>
      </trkpt>
      <trkpt lat="45.78132" lon="4.66837">
        <ele>412.8</ele>
        <time>2020-06-14T06:36:55.000Z</time>
      </trkpt>
      <trkpt lat="45.78137" lon="4.66828">
        <ele>412.8</ele>
        <time>2020-06-14T06:36:56.000Z</time>
      </trkpt>
      <trkpt lat="45.78142" lon="4.66817">
        <ele>412.6</ele>
        <time>2020-06-14T06:36:57.000Z</time>
      </trkpt>
      <trkpt lat="45.78146" lon="4.66806">
        <ele>412.2</ele>
        <time>2020-06-14T06:36:58.000Z</time>
      </trkpt>
      <trkpt lat="45.78148" lon="4.66792">
        <ele>411.8</ele>
        <time>2020-06-14T06:36:59.000Z</time>
      </trkpt>
      <trkpt lat="45.78151" lon="4.66766">
        <ele>411</ele>
        <time>2020-06-14T06:37:01.000Z</time>
      </trkpt>
      <trkpt lat="45.78153" lon="4.66738">
        <ele>409.8</ele>
        <time>2020-06-14T06:37:03.000Z</time>
      </trkpt>
      <trkpt lat="45.78154" lon="4.66724">
        <ele>409</ele>
        <time>2020-06-14T06:37:04.000Z</time>
      </trkpt>
      <trkpt lat="45.78155" lon="4.66709">
        <ele>408.6</ele>
        <time>2020-06-14T06:37:05.000Z</time>
      </trkpt>
      <trkpt lat="45.78155" lon="4.66695">
        <ele>407.8</ele>
        <time>2020-06-14T06:37:06.000Z</time>
      </trkpt>
      <trkpt lat="45.78156" lon="4.6668">
        <ele>406.8</ele>
        <time>2020-06-14T06:37:07.000Z</time>
      </trkpt>
      <trkpt lat="45.78159" lon="4.66651">
        <ele>405.4</ele>
        <time>2020-06-14T06:37:09.000Z</time>
      </trkpt>
      <trkpt lat="45.78161" lon="4.66636">
        <ele>404.4</ele>
        <time>2020-06-14T06:37:10.000Z</time>
      </trkpt>
      <trkpt lat="45.78164" lon="4.66622">
        <ele>403.8</ele>
        <time>2020-06-14T06:37:11.000Z</time>
      </trkpt>
      <trkpt lat="45.78176" lon="4.66581">
        <ele>402.4</ele>
        <time>2020-06-14T06:37:14.000Z</time>
      </trkpt>
      <trkpt lat="45.78184" lon="4.66571">
        <ele>401.6</ele>
        <time>2020-06-14T06:37:15.000Z</time>
      </trkpt>
      <trkpt lat="45.78194" lon="4.66565">
        <ele>400.6</ele>
        <time>2020-06-14T06:37:16.000Z</time>
      </trkpt>
      <trkpt lat="45.78203" lon="4.66565">
        <ele>399.6</ele>
        <time>2020-06-14T06:37:17.000Z</time>
      </trkpt>
      <trkpt lat="45.7821" lon="4.66569">
        <ele>398.6</ele>
        <time>2020-06-14T06:37:18.000Z</time>
      </trkpt>
      <trkpt lat="45.78216" lon="4.66576">
        <ele>397.8</ele>
        <time>2020-06-14T06:37:19.000Z</time>
      </trkpt>
      <trkpt lat="45.78222" lon="4.66585">
        <ele>397</ele>
        <time>2020-06-14T06:37:20.000Z</time>
      </trkpt>
      <trkpt lat="45.78227" lon="4.66593">
        <ele>396.4</ele>
        <time>2020-06-14T06:37:21.000Z</time>
      </trkpt>
      <trkpt lat="45.78231" lon="4.66601">
        <ele>395.8</ele>
        <time>2020-06-14T06:37:22.000Z</time>
      </trkpt>
      <trkpt lat="45.78235" lon="4.66609">
        <ele>395.6</ele>
        <time>2020-06-14T06:37:23.000Z</time>
      </trkpt>
      <trkpt lat="45.78239" lon="4.66617">
        <ele>395.4</ele>
        <time>2020-06-14T06:37:24.000Z</time>
      </trkpt>
      <trkpt lat="45.78243" lon="4.66624">
        <ele>395.4</ele>
        <time>2020-06-14T06:37:25.000Z</time>
      </trkpt>
      <trkpt lat="45.78246" lon="4.66631">
        <ele>395.4</ele>
        <time>2020-06-14T06:37:26.000Z</time>
      </trkpt>
      <trkpt lat="45.78249" lon="4.66637">
        <ele>395.4</ele>
        <time>2020-06-14T06:37:27.000Z</time>
      </trkpt>
      <trkpt lat="45.78251" lon="4.66643">
        <ele>395.2</ele>
        <time>2020-06-14T06:37:28.000Z</time>
      </trkpt>
      <trkpt lat="45.78254" lon="4.66649">
        <ele>395.4</ele>
        <time>2020-06-14T06:37:29.000Z</time>
      </trkpt>
      <trkpt lat="45.78257" lon="4.66653">
        <ele>395.4</ele>
        <time>2020-06-14T06:37:30.000Z</time>
      </trkpt>
      <trkpt lat="45.7826" lon="4.66658">
        <ele>395.2</ele>
        <time>2020-06-14T06:37:31.000Z</time>
      </trkpt>
      <trkpt lat="45.78262" lon="4.66663">
        <ele>395.4</ele>
        <time>2020-06-14T06:37:32.000Z</time>
      </trkpt>
      <trkpt lat="45.78264" lon="4.66669">
        <ele>395.8</ele>
        <time>2020-06-14T06:37:33.000Z</time>
      </trkpt>
      <trkpt lat="45.78266" lon="4.66673">
        <ele>395.8</ele>
        <time>2020-06-14T06:37:34.000Z</time>
      </trkpt>
      <trkpt lat="45.7827" lon="4.66675">
        <ele>396</ele>
        <time>2020-06-14T06:37:35.000Z</time>
      </trkpt>
      <trkpt lat="45.78272" lon="4.66676">
        <ele>396.4</ele>
        <time>2020-06-14T06:37:36.000Z</time>
      </trkpt>
      <trkpt lat="45.78276" lon="4.66677">
        <ele>396.6</ele>
        <time>2020-06-14T06:37:37.000Z</time>
      </trkpt>
      <trkpt lat="45.78278" lon="4.66677">
        <ele>397.4</ele>
        <time>2020-06-14T06:37:38.000Z</time>
      </trkpt>
      <trkpt lat="45.78281" lon="4.66677">
        <ele>398</ele>
        <time>2020-06-14T06:37:39.000Z</time>
      </trkpt>
      <trkpt lat="45.78284" lon="4.66677">
        <ele>398.4</ele>
        <time>2020-06-14T06:37:40.000Z</time>
      </trkpt>
      <trkpt lat="45.78287" lon="4.66677">
        <ele>398.8</ele>
        <time>2020-06-14T06:37:41.000Z</time>
      </trkpt>
      <trkpt lat="45.7829" lon="4.66676">
        <ele>399</ele>
        <time>2020-06-14T06:37:42.000Z</time>
      </trkpt>
      <trkpt lat="45.78293" lon="4.66675">
        <ele>399.4</ele>
        <time>2020-06-14T06:37:43.000Z</time>
      </trkpt>
      <trkpt lat="45.78295" lon="4.66673">
        <ele>399.4</ele>
        <time>2020-06-14T06:37:44.000Z</time>
      </trkpt>
      <trkpt lat="45.78312" lon="4.66667">
        <ele>400.4</ele>
        <time>2020-06-14T06:37:48.000Z</time>
      </trkpt>
      <trkpt lat="45.78316" lon="4.66665">
        <ele>400.4</ele>
        <time>2020-06-14T06:37:49.000Z</time>
      </trkpt>
      <trkpt lat="45.78319" lon="4.66662">
        <ele>400.6</ele>
        <time>2020-06-14T06:37:50.000Z</time>
      </trkpt>
      <trkpt lat="45.78326" lon="4.66656">
        <ele>400.6</ele>
        <time>2020-06-14T06:37:52.000Z</time>
      </trkpt>
      <trkpt lat="45.7833" lon="4.66651">
        <ele>400.8</ele>
        <time>2020-06-14T06:37:53.000Z</time>
      </trkpt>
      <trkpt lat="45.78333" lon="4.66647">
        <ele>400.8</ele>
        <time>2020-06-14T06:37:54.000Z</time>
      </trkpt>
      <trkpt lat="45.78336" lon="4.66641">
        <ele>400.8</ele>
        <time>2020-06-14T06:37:55.000Z</time>
      </trkpt>
      <trkpt lat="45.78344" lon="4.66625">
        <ele>400.6</ele>
        <time>2020-06-14T06:37:58.000Z</time>
      </trkpt>
      <trkpt lat="45.7835" lon="4.66613">
        <ele>400.4</ele>
        <time>2020-06-14T06:38:00.000Z</time>
      </trkpt>
      <trkpt lat="45.7836" lon="4.66594">
        <ele>400.2</ele>
        <time>2020-06-14T06:38:03.000Z</time>
      </trkpt>
      <trkpt lat="45.7837" lon="4.66574">
        <ele>399.8</ele>
        <time>2020-06-14T06:38:06.000Z</time>
      </trkpt>
      <trkpt lat="45.78374" lon="4.66567">
        <ele>399.8</ele>
        <time>2020-06-14T06:38:07.000Z</time>
      </trkpt>
      <trkpt lat="45.78379" lon="4.6656">
        <ele>399.6</ele>
        <time>2020-06-14T06:38:08.000Z</time>
      </trkpt>
      <trkpt lat="45.78389" lon="4.66545">
        <ele>398.6</ele>
        <time>2020-06-14T06:38:10.000Z</time>
      </trkpt>
      <trkpt lat="45.78395" lon="4.66537">
        <ele>398.2</ele>
        <time>2020-06-14T06:38:11.000Z</time>
      </trkpt>
      <trkpt lat="45.78401" lon="4.6653">
        <ele>397.6</ele>
        <time>2020-06-14T06:38:12.000Z</time>
      </trkpt>
      <trkpt lat="45.78415" lon="4.66516">
        <ele>397</ele>
        <time>2020-06-14T06:38:14.000Z</time>
      </trkpt>
      <trkpt lat="45.78429" lon="4.66503">
        <ele>396.6</ele>
        <time>2020-06-14T06:38:16.000Z</time>
      </trkpt>
      <trkpt lat="45.78436" lon="4.66497">
        <ele>396.6</ele>
        <time>2020-06-14T06:38:17.000Z</time>
      </trkpt>
      <trkpt lat="45.78444" lon="4.6649">
        <ele>396</ele>
        <time>2020-06-14T06:38:18.000Z</time>
      </trkpt>
      <trkpt lat="45.78451" lon="4.66484">
        <ele>395.6</ele>
        <time>2020-06-14T06:38:19.000Z</time>
      </trkpt>
      <trkpt lat="45.78458" lon="4.66478">
        <ele>394.8</ele>
        <time>2020-06-14T06:38:20.000Z</time>
      </trkpt>
      <trkpt lat="45.78465" lon="4.66471">
        <ele>394</ele>
        <time>2020-06-14T06:38:21.000Z</time>
      </trkpt>
      <trkpt lat="45.78471" lon="4.66464">
        <ele>393.4</ele>
        <time>2020-06-14T06:38:22.000Z</time>
      </trkpt>
      <trkpt lat="45.78477" lon="4.66458">
        <ele>392.8</ele>
        <time>2020-06-14T06:38:23.000Z</time>
      </trkpt>
      <trkpt lat="45.78483" lon="4.66451">
        <ele>392.2</ele>
        <time>2020-06-14T06:38:24.000Z</time>
      </trkpt>
      <trkpt lat="45.78489" lon="4.66445">
        <ele>392</ele>
        <time>2020-06-14T06:38:25.000Z</time>
      </trkpt>
      <trkpt lat="45.78494" lon="4.66439">
        <ele>391.2</ele>
        <time>2020-06-14T06:38:26.000Z</time>
      </trkpt>
      <trkpt lat="45.78499" lon="4.66434">
        <ele>391</ele>
        <time>2020-06-14T06:38:27.000Z</time>
      </trkpt>
      <trkpt lat="45.78504" lon="4.66429">
        <ele>390.6</ele>
        <time>2020-06-14T06:38:28.000Z</time>
      </trkpt>
      <trkpt lat="45.78508" lon="4.66424">
        <ele>390.4</ele>
        <time>2020-06-14T06:38:29.000Z</time>
      </trkpt>
      <trkpt lat="45.78513" lon="4.66419">
        <ele>390.4</ele>
        <time>2020-06-14T06:38:30.000Z</time>
      </trkpt>
      <trkpt lat="45.78521" lon="4.6641">
        <ele>390.2</ele>
        <time>2020-06-14T06:38:32.000Z</time>
      </trkpt>
      <trkpt lat="45.78526" lon="4.66406">
        <ele>390.2</ele>
        <time>2020-06-14T06:38:33.000Z</time>
      </trkpt>
      <trkpt lat="45.7853" lon="4.66402">
        <ele>390.2</ele>
        <time>2020-06-14T06:38:34.000Z</time>
      </trkpt>
      <trkpt lat="45.78534" lon="4.66399">
        <ele>390.2</ele>
        <time>2020-06-14T06:38:35.000Z</time>
      </trkpt>
      <trkpt lat="45.78538" lon="4.66397">
        <ele>390.2</ele>
        <time>2020-06-14T06:38:36.000Z</time>
      </trkpt>
      <trkpt lat="45.78542" lon="4.66397">
        <ele>390</ele>
        <time>2020-06-14T06:38:37.000Z</time>
      </trkpt>
      <trkpt lat="45.78546" lon="4.66397">
        <ele>390.2</ele>
        <time>2020-06-14T06:38:38.000Z</time>
      </trkpt>
      <trkpt lat="45.7855" lon="4.66396">
        <ele>390.2</ele>
        <time>2020-06-14T06:38:39.000Z</time>
      </trkpt>
      <trkpt lat="45.78554" lon="4.66394">
        <ele>390.2</ele>
        <time>2020-06-14T06:38:40.000Z</time>
      </trkpt>
      <trkpt lat="45.78558" lon="4.66392">
        <ele>390.2</ele>
        <time>2020-06-14T06:38:41.000Z</time>
      </trkpt>
      <trkpt lat="45.78561" lon="4.66388">
        <ele>390.2</ele>
        <time>2020-06-14T06:38:42.000Z</time>
      </trkpt>
      <trkpt lat="45.78564" lon="4.66385">
        <ele>390.4</ele>
        <time>2020-06-14T06:38:43.000Z</time>
      </trkpt>
      <trkpt lat="45.78567" lon="4.66381">
        <ele>390.4</ele>
        <time>2020-06-14T06:38:44.000Z</time>
      </trkpt>
      <trkpt lat="45.78569" lon="4.66377">
        <ele>390.6</ele>
        <time>2020-06-14T06:38:45.000Z</time>
      </trkpt>
      <trkpt lat="45.7857" lon="4.66373">
        <ele>390.8</ele>
        <time>2020-06-14T06:38:46.000Z</time>
      </trkpt>
      <trkpt lat="45.78571" lon="4.6637">
        <ele>391.2</ele>
        <time>2020-06-14T06:38:47.000Z</time>
      </trkpt>
      <trkpt lat="45.78572" lon="4.66367">
        <ele>391.6</ele>
        <time>2020-06-14T06:38:48.000Z</time>
      </trkpt>
      <trkpt lat="45.78572" lon="4.66364">
        <ele>391.6</ele>
        <time>2020-06-14T06:38:49.000Z</time>
      </trkpt>
      <trkpt lat="45.78573" lon="4.66361">
        <ele>391.8</ele>
        <time>2020-06-14T06:38:50.000Z</time>
      </trkpt>
      <trkpt lat="45.78574" lon="4.66359">
        <ele>391.8</ele>
        <time>2020-06-14T06:38:51.000Z</time>
      </trkpt>
      <trkpt lat="45.78574" lon="4.66357">
        <ele>392</ele>
        <time>2020-06-14T06:38:52.000Z</time>
      </trkpt>
      <trkpt lat="45.78575" lon="4.66355">
        <ele>392.4</ele>
        <time>2020-06-14T06:38:53.000Z</time>
      </trkpt>
      <trkpt lat="45.78576" lon="4.66353">
        <ele>393</ele>
        <time>2020-06-14T06:38:54.000Z</time>
      </trkpt>
      <trkpt lat="45.78576" lon="4.6635">
        <ele>393</ele>
        <time>2020-06-14T06:38:55.000Z</time>
      </trkpt>
      <trkpt lat="45.78577" lon="4.66348">
        <ele>393.4</ele>
        <time>2020-06-14T06:38:56.000Z</time>
      </trkpt>
      <trkpt lat="45.78578" lon="4.66345">
        <ele>393.8</ele>
        <time>2020-06-14T06:38:57.000Z</time>
      </trkpt>
      <trkpt lat="45.78578" lon="4.66343">
        <ele>394.2</ele>
        <time>2020-06-14T06:38:58.000Z</time>
      </trkpt>
      <trkpt lat="45.78579" lon="4.66341">
        <ele>394.6</ele>
        <time>2020-06-14T06:38:59.000Z</time>
      </trkpt>
      <trkpt lat="45.7858" lon="4.66339">
        <ele>395.2</ele>
        <time>2020-06-14T06:39:00.000Z</time>
      </trkpt>
      <trkpt lat="45.78581" lon="4.66337">
        <ele>395.8</ele>
        <time>2020-06-14T06:39:01.000Z</time>
      </trkpt>
      <trkpt lat="45.78581" lon="4.66334">
        <ele>396</ele>
        <time>2020-06-14T06:39:02.000Z</time>
      </trkpt>
      <trkpt lat="45.78582" lon="4.66332">
        <ele>396.4</ele>
        <time>2020-06-14T06:39:03.000Z</time>
      </trkpt>
      <trkpt lat="45.78583" lon="4.66329">
        <ele>396.8</ele>
        <time>2020-06-14T06:39:04.000Z</time>
      </trkpt>
      <trkpt lat="45.78583" lon="4.66327">
        <ele>397</ele>
        <time>2020-06-14T06:39:05.000Z</time>
      </trkpt>
      <trkpt lat="45.78584" lon="4.66324">
        <ele>397.6</ele>
        <time>2020-06-14T06:39:06.000Z</time>
      </trkpt>
      <trkpt lat="45.78584" lon="4.66322">
        <ele>397.8</ele>
        <time>2020-06-14T06:39:07.000Z</time>
      </trkpt>
      <trkpt lat="45.78584" lon="4.66319">
        <ele>398.2</ele>
        <time>2020-06-14T06:39:08.000Z</time>
      </trkpt>
      <trkpt lat="45.78584" lon="4.66317">
        <ele>398.6</ele>
        <time>2020-06-14T06:39:09.000Z</time>
      </trkpt>
      <trkpt lat="45.78585" lon="4.66315">
        <ele>398.6</ele>
        <time>2020-06-14T06:39:10.000Z</time>
      </trkpt>
      <trkpt lat="45.78586" lon="4.66313">
        <ele>398.8</ele>
        <time>2020-06-14T06:39:11.000Z</time>
      </trkpt>
      <trkpt lat="45.78586" lon="4.66311">
        <ele>399</ele>
        <time>2020-06-14T06:39:12.000Z</time>
      </trkpt>
      <trkpt lat="45.78587" lon="4.66309">
        <ele>399.4</ele>
        <time>2020-06-14T06:39:13.000Z</time>
      </trkpt>
      <trkpt lat="45.78588" lon="4.66308">
        <ele>399.6</ele>
        <time>2020-06-14T06:39:14.000Z</time>
      </trkpt>
      <trkpt lat="45.78589" lon="4.66306">
        <ele>399.8</ele>
        <time>2020-06-14T06:39:15.000Z</time>
      </trkpt>
      <trkpt lat="45.78589" lon="4.66303">
        <ele>399.8</ele>
        <time>2020-06-14T06:39:16.000Z</time>
      </trkpt>
      <trkpt lat="45.7859" lon="4.66301">
        <ele>400</ele>
        <time>2020-06-14T06:39:17.000Z</time>
      </trkpt>
      <trkpt lat="45.7859" lon="4.66298">
        <ele>400.4</ele>
        <time>2020-06-14T06:39:18.000Z</time>
      </trkpt>
      <trkpt lat="45.7859" lon="4.66296">
        <ele>400.6</ele>
        <time>2020-06-14T06:39:19.000Z</time>
      </trkpt>
      <trkpt lat="45.7859" lon="4.66294">
        <ele>401</ele>
        <time>2020-06-14T06:39:20.000Z</time>
      </trkpt>
      <trkpt lat="45.78591" lon="4.66292">
        <ele>401.4</ele>
        <time>2020-06-14T06:39:21.000Z</time>
      </trkpt>
      <trkpt lat="45.78592" lon="4.6629">
        <ele>401.6</ele>
        <time>2020-06-14T06:39:22.000Z</time>
      </trkpt>
      <trkpt lat="45.78593" lon="4.66288">
        <ele>402</ele>
        <time>2020-06-14T06:39:23.000Z</time>
      </trkpt>
      <trkpt lat="45.78593" lon="4.66286">
        <ele>402.4</ele>
        <time>2020-06-14T06:39:24.000Z</time>
      </trkpt>
      <trkpt lat="45.78594" lon="4.66284">
        <ele>402.8</ele>
        <time>2020-06-14T06:39:25.000Z</time>
      </trkpt>
      <trkpt lat="45.78595" lon="4.66282">
        <ele>403.2</ele>
        <time>2020-06-14T06:39:26.000Z</time>
      </trkpt>
      <trkpt lat="45.78595" lon="4.66281">
        <ele>403.2</ele>
        <time>2020-06-14T06:39:27.000Z</time>
      </trkpt>
      <trkpt lat="45.78597" lon="4.66279">
        <ele>403.8</ele>
        <time>2020-06-14T06:39:28.000Z</time>
      </trkpt>
      <trkpt lat="45.78598" lon="4.66278">
        <ele>403.8</ele>
        <time>2020-06-14T06:39:29.000Z</time>
      </trkpt>
      <trkpt lat="45.78599" lon="4.66277">
        <ele>404</ele>
        <time>2020-06-14T06:39:30.000Z</time>
      </trkpt>
      <trkpt lat="45.78599" lon="4.66276">
        <ele>404.4</ele>
        <time>2020-06-14T06:39:31.000Z</time>
      </trkpt>
      <trkpt lat="45.786" lon="4.66274">
        <ele>404.6</ele>
        <time>2020-06-14T06:39:32.000Z</time>
      </trkpt>
      <trkpt lat="45.78601" lon="4.66272">
        <ele>405</ele>
        <time>2020-06-14T06:39:33.000Z</time>
      </trkpt>
      <trkpt lat="45.78601" lon="4.6627">
        <ele>405</ele>
        <time>2020-06-14T06:39:34.000Z</time>
      </trkpt>
      <trkpt lat="45.78602" lon="4.66269">
        <ele>405.2</ele>
        <time>2020-06-14T06:39:35.000Z</time>
      </trkpt>
      <trkpt lat="45.78602" lon="4.66267">
        <ele>405.4</ele>
        <time>2020-06-14T06:39:36.000Z</time>
      </trkpt>
      <trkpt lat="45.78603" lon="4.66265">
        <ele>405.4</ele>
        <time>2020-06-14T06:39:37.000Z</time>
      </trkpt>
      <trkpt lat="45.78603" lon="4.66264">
        <ele>405.6</ele>
        <time>2020-06-14T06:39:38.000Z</time>
      </trkpt>
      <trkpt lat="45.78604" lon="4.66262">
        <ele>406.2</ele>
        <time>2020-06-14T06:39:39.000Z</time>
      </trkpt>
      <trkpt lat="45.78604" lon="4.66261">
        <ele>406.2</ele>
        <time>2020-06-14T06:39:40.000Z</time>
      </trkpt>
      <trkpt lat="45.78605" lon="4.66259">
        <ele>406.6</ele>
        <time>2020-06-14T06:39:41.000Z</time>
      </trkpt>
      <trkpt lat="45.78605" lon="4.66258">
        <ele>406.8</ele>
        <time>2020-06-14T06:39:42.000Z</time>
      </trkpt>
      <trkpt lat="45.78606" lon="4.66256">
        <ele>407.2</ele>
        <time>2020-06-14T06:39:43.000Z</time>
      </trkpt>
      <trkpt lat="45.78607" lon="4.66254">
        <ele>407.4</ele>
        <time>2020-06-14T06:39:44.000Z</time>
      </trkpt>
      <trkpt lat="45.78607" lon="4.66253">
        <ele>407.8</ele>
        <time>2020-06-14T06:39:45.000Z</time>
      </trkpt>
      <trkpt lat="45.78608" lon="4.66251">
        <ele>408.2</ele>
        <time>2020-06-14T06:39:46.000Z</time>
      </trkpt>
      <trkpt lat="45.78609" lon="4.66249">
        <ele>408.4</ele>
        <time>2020-06-14T06:39:47.000Z</time>
      </trkpt>
      <trkpt lat="45.7861" lon="4.66246">
        <ele>408.6</ele>
        <time>2020-06-14T06:39:48.000Z</time>
      </trkpt>
      <trkpt lat="45.7861" lon="4.66244">
        <ele>408.6</ele>
        <time>2020-06-14T06:39:49.000Z</time>
      </trkpt>
      <trkpt lat="45.78611" lon="4.66242">
        <ele>408.8</ele>
        <time>2020-06-14T06:39:50.000Z</time>
      </trkpt>
      <trkpt lat="45.78612" lon="4.6624">
        <ele>408.8</ele>
        <time>2020-06-14T06:39:51.000Z</time>
      </trkpt>
      <trkpt lat="45.78612" lon="4.66239">
        <ele>408.8</ele>
        <time>2020-06-14T06:39:52.000Z</time>
      </trkpt>
      <trkpt lat="45.78613" lon="4.66237">
        <ele>409.2</ele>
        <time>2020-06-14T06:39:53.000Z</time>
      </trkpt>
      <trkpt lat="45.78614" lon="4.66235">
        <ele>409.2</ele>
        <time>2020-06-14T06:39:54.000Z</time>
      </trkpt>
      <trkpt lat="45.78616" lon="4.66234">
        <ele>409.6</ele>
        <time>2020-06-14T06:39:55.000Z</time>
      </trkpt>
      <trkpt lat="45.78616" lon="4.66231">
        <ele>409.6</ele>
        <time>2020-06-14T06:39:56.000Z</time>
      </trkpt>
      <trkpt lat="45.78617" lon="4.66229">
        <ele>409.8</ele>
        <time>2020-06-14T06:39:57.000Z</time>
      </trkpt>
      <trkpt lat="45.78618" lon="4.66227">
        <ele>409.8</ele>
        <time>2020-06-14T06:39:58.000Z</time>
      </trkpt>
      <trkpt lat="45.78619" lon="4.66226">
        <ele>410</ele>
        <time>2020-06-14T06:39:59.000Z</time>
      </trkpt>
      <trkpt lat="45.7862" lon="4.66224">
        <ele>410.4</ele>
        <time>2020-06-14T06:40:00.000Z</time>
      </trkpt>
      <trkpt lat="45.7862" lon="4.66223">
        <ele>410.4</ele>
        <time>2020-06-14T06:40:01.000Z</time>
      </trkpt>
      <trkpt lat="45.78621" lon="4.66222">
        <ele>410.6</ele>
        <time>2020-06-14T06:40:02.000Z</time>
      </trkpt>
      <trkpt lat="45.78622" lon="4.6622">
        <ele>410.8</ele>
        <time>2020-06-14T06:40:03.000Z</time>
      </trkpt>
      <trkpt lat="45.78623" lon="4.66219">
        <ele>410.8</ele>
        <time>2020-06-14T06:40:04.000Z</time>
      </trkpt>
      <trkpt lat="45.78623" lon="4.66218">
        <ele>410.8</ele>
        <time>2020-06-14T06:40:05.000Z</time>
      </trkpt>
      <trkpt lat="45.78624" lon="4.66216">
        <ele>411.2</ele>
        <time>2020-06-14T06:40:06.000Z</time>
      </trkpt>
      <trkpt lat="45.78624" lon="4.66215">
        <ele>411.4</ele>
        <time>2020-06-14T06:40:07.000Z</time>
      </trkpt>
      <trkpt lat="45.78625" lon="4.66214">
        <ele>411.8</ele>
        <time>2020-06-14T06:40:08.000Z</time>
      </trkpt>
      <trkpt lat="45.78625" lon="4.66213">
        <ele>412</ele>
        <time>2020-06-14T06:40:09.000Z</time>
      </trkpt>
      <trkpt lat="45.78626" lon="4.66212">
        <ele>412.2</ele>
        <time>2020-06-14T06:40:10.000Z</time>
      </trkpt>
      <trkpt lat="45.78626" lon="4.66211">
        <ele>412.2</ele>
        <time>2020-06-14T06:40:11.000Z</time>
      </trkpt>
      <trkpt lat="45.78627" lon="4.6621">
        <ele>412.4</ele>
        <time>2020-06-14T06:40:12.000Z</time>
      </trkpt>
      <trkpt lat="45.78629" lon="4.66209">
        <ele>412.4</ele>
        <time>2020-06-14T06:40:13.000Z</time>
      </trkpt>
      <trkpt lat="45.7863" lon="4.66208">
        <ele>412.8</ele>
        <time>2020-06-14T06:40:14.000Z</time>
      </trkpt>
      <trkpt lat="45.78631" lon="4.66207">
        <ele>413.2</ele>
        <time>2020-06-14T06:40:15.000Z</time>
      </trkpt>
      <trkpt lat="45.78633" lon="4.66206">
        <ele>413.4</ele>
        <time>2020-06-14T06:40:16.000Z</time>
      </trkpt>
      <trkpt lat="45.78634" lon="4.66206">
        <ele>413.4</ele>
        <time>2020-06-14T06:40:17.000Z</time>
      </trkpt>
      <trkpt lat="45.78635" lon="4.66205">
        <ele>413.4</ele>
        <time>2020-06-14T06:40:18.000Z</time>
      </trkpt>
      <trkpt lat="45.78636" lon="4.66204">
        <ele>413.6</ele>
        <time>2020-06-14T06:40:19.000Z</time>
      </trkpt>
      <trkpt lat="45.78637" lon="4.66203">
        <ele>413.8</ele>
        <time>2020-06-14T06:40:20.000Z</time>
      </trkpt>
      <trkpt lat="45.78639" lon="4.66202">
        <ele>414</ele>
        <time>2020-06-14T06:40:21.000Z</time>
      </trkpt>
      <trkpt lat="45.7864" lon="4.66201">
        <ele>414.2</ele>
        <time>2020-06-14T06:40:22.000Z</time>
      </trkpt>
      <trkpt lat="45.78641" lon="4.662">
        <ele>414.4</ele>
        <time>2020-06-14T06:40:23.000Z</time>
      </trkpt>
      <trkpt lat="45.78642" lon="4.66199">
        <ele>414.4</ele>
        <time>2020-06-14T06:40:24.000Z</time>
      </trkpt>
      <trkpt lat="45.78643" lon="4.66198">
        <ele>414.8</ele>
        <time>2020-06-14T06:40:25.000Z</time>
      </trkpt>
      <trkpt lat="45.78645" lon="4.66196">
        <ele>414.8</ele>
        <time>2020-06-14T06:40:26.000Z</time>
      </trkpt>
      <trkpt lat="45.78645" lon="4.66195">
        <ele>415</ele>
        <time>2020-06-14T06:40:27.000Z</time>
      </trkpt>
      <trkpt lat="45.78646" lon="4.66194">
        <ele>415</ele>
        <time>2020-06-14T06:40:28.000Z</time>
      </trkpt>
      <trkpt lat="45.78647" lon="4.66193">
        <ele>415</ele>
        <time>2020-06-14T06:40:29.000Z</time>
      </trkpt>
      <trkpt lat="45.78648" lon="4.66193">
        <ele>415.2</ele>
        <time>2020-06-14T06:40:30.000Z</time>
      </trkpt>
      <trkpt lat="45.78649" lon="4.66192">
        <ele>415.2</ele>
        <time>2020-06-14T06:40:31.000Z</time>
      </trkpt>
      <trkpt lat="45.78649" lon="4.66192">
        <ele>415.2</ele>
        <time>2020-06-14T06:40:32.000Z</time>
      </trkpt>
      <trkpt lat="45.7865" lon="4.6619">
        <ele>415.2</ele>
        <time>2020-06-14T06:40:33.000Z</time>
      </trkpt>
      <trkpt lat="45.7865" lon="4.66189">
        <ele>415.2</ele>
        <time>2020-06-14T06:40:34.000Z</time>
      </trkpt>
      <trkpt lat="45.78651" lon="4.66188">
        <ele>415.4</ele>
        <time>2020-06-14T06:40:35.000Z</time>
      </trkpt>
      <trkpt lat="45.78652" lon="4.66187">
        <ele>415.4</ele>
        <time>2020-06-14T06:40:36.000Z</time>
      </trkpt>
      <trkpt lat="45.78653" lon="4.66186">
        <ele>415.6</ele>
        <time>2020-06-14T06:40:37.000Z</time>
      </trkpt>
      <trkpt lat="45.78655" lon="4.66185">
        <ele>415.6</ele>
        <time>2020-06-14T06:40:38.000Z</time>
      </trkpt>
      <trkpt lat="45.78656" lon="4.66184">
        <ele>415.8</ele>
        <time>2020-06-14T06:40:39.000Z</time>
      </trkpt>
      <trkpt lat="45.78658" lon="4.66184">
        <ele>416</ele>
        <time>2020-06-14T06:40:40.000Z</time>
      </trkpt>
      <trkpt lat="45.78659" lon="4.66183">
        <ele>416</ele>
        <time>2020-06-14T06:40:41.000Z</time>
      </trkpt>
      <trkpt lat="45.78661" lon="4.66182">
        <ele>416.2</ele>
        <time>2020-06-14T06:40:42.000Z</time>
      </trkpt>
      <trkpt lat="45.78662" lon="4.66181">
        <ele>416.2</ele>
        <time>2020-06-14T06:40:43.000Z</time>
      </trkpt>
      <trkpt lat="45.78664" lon="4.6618">
        <ele>416.2</ele>
        <time>2020-06-14T06:40:44.000Z</time>
      </trkpt>
      <trkpt lat="45.78665" lon="4.66178">
        <ele>416.4</ele>
        <time>2020-06-14T06:40:45.000Z</time>
      </trkpt>
      <trkpt lat="45.78666" lon="4.66178">
        <ele>416.8</ele>
        <time>2020-06-14T06:40:46.000Z</time>
      </trkpt>
      <trkpt lat="45.78667" lon="4.66177">
        <ele>417.2</ele>
        <time>2020-06-14T06:40:47.000Z</time>
      </trkpt>
      <trkpt lat="45.78668" lon="4.66176">
        <ele>417.2</ele>
        <time>2020-06-14T06:40:48.000Z</time>
      </trkpt>
      <trkpt lat="45.7867" lon="4.66175">
        <ele>417.4</ele>
        <time>2020-06-14T06:40:49.000Z</time>
      </trkpt>
      <trkpt lat="45.78671" lon="4.66174">
        <ele>417.6</ele>
        <time>2020-06-14T06:40:50.000Z</time>
      </trkpt>
      <trkpt lat="45.78672" lon="4.66173">
        <ele>417.8</ele>
        <time>2020-06-14T06:40:51.000Z</time>
      </trkpt>
      <trkpt lat="45.78673" lon="4.66172">
        <ele>418</ele>
        <time>2020-06-14T06:40:52.000Z</time>
      </trkpt>
      <trkpt lat="45.78674" lon="4.66171">
        <ele>418.4</ele>
        <time>2020-06-14T06:40:53.000Z</time>
      </trkpt>
      <trkpt lat="45.78675" lon="4.6617">
        <ele>418.6</ele>
        <time>2020-06-14T06:40:54.000Z</time>
      </trkpt>
      <trkpt lat="45.78676" lon="4.66169">
        <ele>418.8</ele>
        <time>2020-06-14T06:40:55.000Z</time>
      </trkpt>
      <trkpt lat="45.78677" lon="4.66169">
        <ele>418.8</ele>
        <time>2020-06-14T06:40:56.000Z</time>
      </trkpt>
      <trkpt lat="45.78679" lon="4.66168">
        <ele>419</ele>
        <time>2020-06-14T06:40:57.000Z</time>
      </trkpt>
      <trkpt lat="45.7868" lon="4.66167">
        <ele>419.2</ele>
        <time>2020-06-14T06:40:58.000Z</time>
      </trkpt>
      <trkpt lat="45.78681" lon="4.66166">
        <ele>419.2</ele>
        <time>2020-06-14T06:40:59.000Z</time>
      </trkpt>
      <trkpt lat="45.78683" lon="4.66166">
        <ele>419.4</ele>
        <time>2020-06-14T06:41:00.000Z</time>
      </trkpt>
      <trkpt lat="45.78684" lon="4.66165">
        <ele>419.6</ele>
        <time>2020-06-14T06:41:01.000Z</time>
      </trkpt>
      <trkpt lat="45.78685" lon="4.66164">
        <ele>419.6</ele>
        <time>2020-06-14T06:41:02.000Z</time>
      </trkpt>
      <trkpt lat="45.78686" lon="4.66163">
        <ele>419.8</ele>
        <time>2020-06-14T06:41:03.000Z</time>
      </trkpt>
      <trkpt lat="45.78687" lon="4.66163">
        <ele>420</ele>
        <time>2020-06-14T06:41:04.000Z</time>
      </trkpt>
      <trkpt lat="45.78688" lon="4.66162">
        <ele>420.4</ele>
        <time>2020-06-14T06:41:05.000Z</time>
      </trkpt>
      <trkpt lat="45.78689" lon="4.66161">
        <ele>420.4</ele>
        <time>2020-06-14T06:41:06.000Z</time>
      </trkpt>
      <trkpt lat="45.78689" lon="4.6616">
        <ele>420.4</ele>
        <time>2020-06-14T06:41:07.000Z</time>
      </trkpt>
      <trkpt lat="45.7869" lon="4.66159">
        <ele>420.6</ele>
        <time>2020-06-14T06:41:08.000Z</time>
      </trkpt>
      <trkpt lat="45.78691" lon="4.66158">
        <ele>420.8</ele>
        <time>2020-06-14T06:41:09.000Z</time>
      </trkpt>
      <trkpt lat="45.78691" lon="4.66157">
        <ele>421</ele>
        <time>2020-06-14T06:41:10.000Z</time>
      </trkpt>
      <trkpt lat="45.78692" lon="4.66157">
        <ele>421</ele>
        <time>2020-06-14T06:41:11.000Z</time>
      </trkpt>
      <trkpt lat="45.78692" lon="4.66156">
        <ele>421.2</ele>
        <time>2020-06-14T06:41:12.000Z</time>
      </trkpt>
      <trkpt lat="45.78693" lon="4.66162">
        <ele>422.8</ele>
        <time>2020-06-14T06:41:28.000Z</time>
      </trkpt>
      <trkpt lat="45.78693" lon="4.66163">
        <ele>422.6</ele>
        <time>2020-06-14T06:41:29.000Z</time>
      </trkpt>
      <trkpt lat="45.78693" lon="4.66164">
        <ele>422.6</ele>
        <time>2020-06-14T06:41:30.000Z</time>
      </trkpt>
      <trkpt lat="45.78693" lon="4.66165">
        <ele>422.6</ele>
        <time>2020-06-14T06:41:31.000Z</time>
      </trkpt>
      <trkpt lat="45.78694" lon="4.66165">
        <ele>422.6</ele>
        <time>2020-06-14T06:41:32.000Z</time>
      </trkpt>
      <trkpt lat="45.78695" lon="4.66165">
        <ele>422.6</ele>
        <time>2020-06-14T06:41:33.000Z</time>
      </trkpt>
      <trkpt lat="45.78695" lon="4.66165">
        <ele>422.8</ele>
        <time>2020-06-14T06:41:34.000Z</time>
      </trkpt>
      <trkpt lat="45.78699" lon="4.66162">
        <ele>423.2</ele>
        <time>2020-06-14T06:42:24.000Z</time>
      </trkpt>
      <trkpt lat="45.787" lon="4.66161">
        <ele>423.2</ele>
        <time>2020-06-14T06:42:25.000Z</time>
      </trkpt>
      <trkpt lat="45.78701" lon="4.66161">
        <ele>423</ele>
        <time>2020-06-14T06:42:26.000Z</time>
      </trkpt>
      <trkpt lat="45.78702" lon="4.66161">
        <ele>423.2</ele>
        <time>2020-06-14T06:42:27.000Z</time>
      </trkpt>
      <trkpt lat="45.78703" lon="4.66161">
        <ele>423.2</ele>
        <time>2020-06-14T06:42:28.000Z</time>
      </trkpt>
      <trkpt lat="45.78711" lon="4.6616">
        <ele>425</ele>
        <time>2020-06-14T06:42:37.000Z</time>
      </trkpt>
      <trkpt lat="45.78712" lon="4.6616">
        <ele>425.2</ele>
        <time>2020-06-14T06:42:38.000Z</time>
      </trkpt>
      <trkpt lat="45.78713" lon="4.66159">
        <ele>425.2</ele>
        <time>2020-06-14T06:42:39.000Z</time>
      </trkpt>
      <trkpt lat="45.78714" lon="4.66159">
        <ele>425.4</ele>
        <time>2020-06-14T06:42:40.000Z</time>
      </trkpt>
      <trkpt lat="45.78715" lon="4.66159">
        <ele>425.6</ele>
        <time>2020-06-14T06:42:41.000Z</time>
      </trkpt>
      <trkpt lat="45.78716" lon="4.66159">
        <ele>425.6</ele>
        <time>2020-06-14T06:42:42.000Z</time>
      </trkpt>
      <trkpt lat="45.78721" lon="4.66157">
        <ele>427.2</ele>
        <time>2020-06-14T06:42:50.000Z</time>
      </trkpt>
      <trkpt lat="45.78722" lon="4.66157">
        <ele>427.2</ele>
        <time>2020-06-14T06:42:51.000Z</time>
      </trkpt>
      <trkpt lat="45.78723" lon="4.66157">
        <ele>427.4</ele>
        <time>2020-06-14T06:42:52.000Z</time>
      </trkpt>
      <trkpt lat="45.78725" lon="4.66157">
        <ele>427.4</ele>
        <time>2020-06-14T06:42:53.000Z</time>
      </trkpt>
      <trkpt lat="45.78725" lon="4.66157">
        <ele>427.4</ele>
        <time>2020-06-14T06:42:54.000Z</time>
      </trkpt>
      <trkpt lat="45.78732" lon="4.66156">
        <ele>428</ele>
        <time>2020-06-14T06:42:59.000Z</time>
      </trkpt>
      <trkpt lat="45.78734" lon="4.66155">
        <ele>427.8</ele>
        <time>2020-06-14T06:43:00.000Z</time>
      </trkpt>
      <trkpt lat="45.78736" lon="4.66154">
        <ele>428</ele>
        <time>2020-06-14T06:43:01.000Z</time>
      </trkpt>
      <trkpt lat="45.78737" lon="4.66154">
        <ele>428.2</ele>
        <time>2020-06-14T06:43:02.000Z</time>
      </trkpt>
      <trkpt lat="45.78739" lon="4.66153">
        <ele>428.4</ele>
        <time>2020-06-14T06:43:03.000Z</time>
      </trkpt>
      <trkpt lat="45.78741" lon="4.66152">
        <ele>428.4</ele>
        <time>2020-06-14T06:43:04.000Z</time>
      </trkpt>
      <trkpt lat="45.78743" lon="4.66152">
        <ele>428.4</ele>
        <time>2020-06-14T06:43:05.000Z</time>
      </trkpt>
      <trkpt lat="45.78745" lon="4.66151">
        <ele>428.4</ele>
        <time>2020-06-14T06:43:06.000Z</time>
      </trkpt>
      <trkpt lat="45.78746" lon="4.6615">
        <ele>428.6</ele>
        <time>2020-06-14T06:43:07.000Z</time>
      </trkpt>
      <trkpt lat="45.78748" lon="4.66148">
        <ele>428.8</ele>
        <time>2020-06-14T06:43:08.000Z</time>
      </trkpt>
      <trkpt lat="45.78749" lon="4.66147">
        <ele>429</ele>
        <time>2020-06-14T06:43:09.000Z</time>
      </trkpt>
      <trkpt lat="45.78751" lon="4.66145">
        <ele>429.2</ele>
        <time>2020-06-14T06:43:10.000Z</time>
      </trkpt>
      <trkpt lat="45.78752" lon="4.66145">
        <ele>429.4</ele>
        <time>2020-06-14T06:43:11.000Z</time>
      </trkpt>
      <trkpt lat="45.78754" lon="4.66143">
        <ele>429.4</ele>
        <time>2020-06-14T06:43:12.000Z</time>
      </trkpt>
      <trkpt lat="45.78755" lon="4.66141">
        <ele>429.6</ele>
        <time>2020-06-14T06:43:13.000Z</time>
      </trkpt>
      <trkpt lat="45.78756" lon="4.66139">
        <ele>429.6</ele>
        <time>2020-06-14T06:43:14.000Z</time>
      </trkpt>
      <trkpt lat="45.78757" lon="4.66137">
        <ele>429.8</ele>
        <time>2020-06-14T06:43:15.000Z</time>
      </trkpt>
      <trkpt lat="45.78758" lon="4.66135">
        <ele>430</ele>
        <time>2020-06-14T06:43:16.000Z</time>
      </trkpt>
      <trkpt lat="45.78759" lon="4.66133">
        <ele>430</ele>
        <time>2020-06-14T06:43:17.000Z</time>
      </trkpt>
      <trkpt lat="45.7876" lon="4.66131">
        <ele>430.2</ele>
        <time>2020-06-14T06:43:18.000Z</time>
      </trkpt>
      <trkpt lat="45.7876" lon="4.66129">
        <ele>430.4</ele>
        <time>2020-06-14T06:43:19.000Z</time>
      </trkpt>
      <trkpt lat="45.78761" lon="4.66127">
        <ele>430.6</ele>
        <time>2020-06-14T06:43:20.000Z</time>
      </trkpt>
      <trkpt lat="45.78761" lon="4.66125">
        <ele>430.8</ele>
        <time>2020-06-14T06:43:21.000Z</time>
      </trkpt>
      <trkpt lat="45.78762" lon="4.66123">
        <ele>431</ele>
        <time>2020-06-14T06:43:22.000Z</time>
      </trkpt>
      <trkpt lat="45.78763" lon="4.66121">
        <ele>431.2</ele>
        <time>2020-06-14T06:43:23.000Z</time>
      </trkpt>
      <trkpt lat="45.78764" lon="4.6612">
        <ele>431.4</ele>
        <time>2020-06-14T06:43:24.000Z</time>
      </trkpt>
      <trkpt lat="45.78765" lon="4.66119">
        <ele>431.6</ele>
        <time>2020-06-14T06:43:25.000Z</time>
      </trkpt>
      <trkpt lat="45.78766" lon="4.66117">
        <ele>431.8</ele>
        <time>2020-06-14T06:43:26.000Z</time>
      </trkpt>
      <trkpt lat="45.78766" lon="4.66116">
        <ele>431.8</ele>
        <time>2020-06-14T06:43:27.000Z</time>
      </trkpt>
      <trkpt lat="45.78767" lon="4.66114">
        <ele>432</ele>
        <time>2020-06-14T06:43:28.000Z</time>
      </trkpt>
      <trkpt lat="45.78767" lon="4.66112">
        <ele>432.4</ele>
        <time>2020-06-14T06:43:29.000Z</time>
      </trkpt>
      <trkpt lat="45.78766" lon="4.6611">
        <ele>432.6</ele>
        <time>2020-06-14T06:43:30.000Z</time>
      </trkpt>
      <trkpt lat="45.78766" lon="4.66108">
        <ele>433</ele>
        <time>2020-06-14T06:43:31.000Z</time>
      </trkpt>
      <trkpt lat="45.78766" lon="4.66106">
        <ele>433</ele>
        <time>2020-06-14T06:43:32.000Z</time>
      </trkpt>
      <trkpt lat="45.78766" lon="4.66103">
        <ele>433.2</ele>
        <time>2020-06-14T06:43:33.000Z</time>
      </trkpt>
      <trkpt lat="45.78766" lon="4.66101">
        <ele>433.8</ele>
        <time>2020-06-14T06:43:34.000Z</time>
      </trkpt>
      <trkpt lat="45.78767" lon="4.66099">
        <ele>434</ele>
        <time>2020-06-14T06:43:35.000Z</time>
      </trkpt>
      <trkpt lat="45.78768" lon="4.66097">
        <ele>434.4</ele>
        <time>2020-06-14T06:43:36.000Z</time>
      </trkpt>
      <trkpt lat="45.78769" lon="4.66095">
        <ele>434.6</ele>
        <time>2020-06-14T06:43:37.000Z</time>
      </trkpt>
      <trkpt lat="45.7877" lon="4.66093">
        <ele>434.8</ele>
        <time>2020-06-14T06:43:38.000Z</time>
      </trkpt>
      <trkpt lat="45.78771" lon="4.66091">
        <ele>435.2</ele>
        <time>2020-06-14T06:43:39.000Z</time>
      </trkpt>
      <trkpt lat="45.78771" lon="4.66088">
        <ele>435.4</ele>
        <time>2020-06-14T06:43:40.000Z</time>
      </trkpt>
      <trkpt lat="45.78772" lon="4.66086">
        <ele>435.8</ele>
        <time>2020-06-14T06:43:41.000Z</time>
      </trkpt>
      <trkpt lat="45.78772" lon="4.66084">
        <ele>436</ele>
        <time>2020-06-14T06:43:42.000Z</time>
      </trkpt>
      <trkpt lat="45.78773" lon="4.66083">
        <ele>436</ele>
        <time>2020-06-14T06:43:43.000Z</time>
      </trkpt>
      <trkpt lat="45.78774" lon="4.66081">
        <ele>436.4</ele>
        <time>2020-06-14T06:43:44.000Z</time>
      </trkpt>
      <trkpt lat="45.78776" lon="4.6608">
        <ele>436.6</ele>
        <time>2020-06-14T06:43:45.000Z</time>
      </trkpt>
      <trkpt lat="45.78777" lon="4.66079">
        <ele>436.6</ele>
        <time>2020-06-14T06:43:46.000Z</time>
      </trkpt>
      <trkpt lat="45.78779" lon="4.66077">
        <ele>436.8</ele>
        <time>2020-06-14T06:43:47.000Z</time>
      </trkpt>
      <trkpt lat="45.7878" lon="4.66076">
        <ele>437</ele>
        <time>2020-06-14T06:43:48.000Z</time>
      </trkpt>
      <trkpt lat="45.7878" lon="4.66075">
        <ele>437.2</ele>
        <time>2020-06-14T06:43:49.000Z</time>
      </trkpt>
      <trkpt lat="45.78782" lon="4.66074">
        <ele>437.4</ele>
        <time>2020-06-14T06:43:50.000Z</time>
      </trkpt>
      <trkpt lat="45.78783" lon="4.66072">
        <ele>437.8</ele>
        <time>2020-06-14T06:43:51.000Z</time>
      </trkpt>
      <trkpt lat="45.78785" lon="4.66071">
        <ele>437.8</ele>
        <time>2020-06-14T06:43:52.000Z</time>
      </trkpt>
      <trkpt lat="45.78786" lon="4.6607">
        <ele>438</ele>
        <time>2020-06-14T06:43:53.000Z</time>
      </trkpt>
      <trkpt lat="45.78786" lon="4.66069">
        <ele>438.4</ele>
        <time>2020-06-14T06:43:54.000Z</time>
      </trkpt>
      <trkpt lat="45.78787" lon="4.66067">
        <ele>438.6</ele>
        <time>2020-06-14T06:43:55.000Z</time>
      </trkpt>
      <trkpt lat="45.78788" lon="4.66066">
        <ele>438.6</ele>
        <time>2020-06-14T06:43:56.000Z</time>
      </trkpt>
      <trkpt lat="45.7879" lon="4.66065">
        <ele>439</ele>
        <time>2020-06-14T06:43:57.000Z</time>
      </trkpt>
      <trkpt lat="45.78791" lon="4.66064">
        <ele>439.2</ele>
        <time>2020-06-14T06:43:58.000Z</time>
      </trkpt>
      <trkpt lat="45.78792" lon="4.66063">
        <ele>439.6</ele>
        <time>2020-06-14T06:43:59.000Z</time>
      </trkpt>
      <trkpt lat="45.78793" lon="4.66062">
        <ele>439.8</ele>
        <time>2020-06-14T06:44:00.000Z</time>
      </trkpt>
      <trkpt lat="45.78795" lon="4.66062">
        <ele>440.2</ele>
        <time>2020-06-14T06:44:01.000Z</time>
      </trkpt>
      <trkpt lat="45.78796" lon="4.66061">
        <ele>440.4</ele>
        <time>2020-06-14T06:44:02.000Z</time>
      </trkpt>
      <trkpt lat="45.78798" lon="4.66061">
        <ele>440.4</ele>
        <time>2020-06-14T06:44:03.000Z</time>
      </trkpt>
      <trkpt lat="45.78799" lon="4.6606">
        <ele>440.6</ele>
        <time>2020-06-14T06:44:04.000Z</time>
      </trkpt>
      <trkpt lat="45.788" lon="4.66059">
        <ele>441</ele>
        <time>2020-06-14T06:44:05.000Z</time>
      </trkpt>
      <trkpt lat="45.788" lon="4.66058">
        <ele>441.4</ele>
        <time>2020-06-14T06:44:06.000Z</time>
      </trkpt>
      <trkpt lat="45.788" lon="4.66057">
        <ele>441.4</ele>
        <time>2020-06-14T06:44:07.000Z</time>
      </trkpt>
      <trkpt lat="45.78801" lon="4.66056">
        <ele>441.4</ele>
        <time>2020-06-14T06:44:08.000Z</time>
      </trkpt>
      <trkpt lat="45.78802" lon="4.66055">
        <ele>441.8</ele>
        <time>2020-06-14T06:44:09.000Z</time>
      </trkpt>
      <trkpt lat="45.78803" lon="4.66055">
        <ele>442</ele>
        <time>2020-06-14T06:44:10.000Z</time>
      </trkpt>
      <trkpt lat="45.78805" lon="4.66054">
        <ele>442</ele>
        <time>2020-06-14T06:44:11.000Z</time>
      </trkpt>
      <trkpt lat="45.78806" lon="4.66053">
        <ele>442</ele>
        <time>2020-06-14T06:44:12.000Z</time>
      </trkpt>
      <trkpt lat="45.78808" lon="4.66052">
        <ele>442</ele>
        <time>2020-06-14T06:44:13.000Z</time>
      </trkpt>
      <trkpt lat="45.78809" lon="4.66051">
        <ele>442.4</ele>
        <time>2020-06-14T06:44:14.000Z</time>
      </trkpt>
      <trkpt lat="45.78811" lon="4.6605">
        <ele>442.6</ele>
        <time>2020-06-14T06:44:15.000Z</time>
      </trkpt>
      <trkpt lat="45.78812" lon="4.66049">
        <ele>442.8</ele>
        <time>2020-06-14T06:44:16.000Z</time>
      </trkpt>
      <trkpt lat="45.78813" lon="4.66048">
        <ele>443</ele>
        <time>2020-06-14T06:44:17.000Z</time>
      </trkpt>
      <trkpt lat="45.78814" lon="4.66047">
        <ele>443</ele>
        <time>2020-06-14T06:44:18.000Z</time>
      </trkpt>
      <trkpt lat="45.78815" lon="4.66046">
        <ele>443.2</ele>
        <time>2020-06-14T06:44:19.000Z</time>
      </trkpt>
      <trkpt lat="45.78817" lon="4.66045">
        <ele>443.2</ele>
        <time>2020-06-14T06:44:20.000Z</time>
      </trkpt>
      <trkpt lat="45.78818" lon="4.66044">
        <ele>443.4</ele>
        <time>2020-06-14T06:44:21.000Z</time>
      </trkpt>
      <trkpt lat="45.78819" lon="4.66044">
        <ele>443.8</ele>
        <time>2020-06-14T06:44:22.000Z</time>
      </trkpt>
      <trkpt lat="45.7882" lon="4.66043">
        <ele>444.2</ele>
        <time>2020-06-14T06:44:24.000Z</time>
      </trkpt>
      <trkpt lat="45.7882" lon="4.66043">
        <ele>444.6</ele>
        <time>2020-06-14T06:44:25.000Z</time>
      </trkpt>
      <trkpt lat="45.78821" lon="4.66043">
        <ele>444.6</ele>
        <time>2020-06-14T06:44:26.000Z</time>
      </trkpt>
      <trkpt lat="45.78822" lon="4.66043">
        <ele>444.8</ele>
        <time>2020-06-14T06:44:27.000Z</time>
      </trkpt>
      <trkpt lat="45.78853" lon="4.66005">
        <ele>453.8</ele>
        <time>2020-06-14T06:46:29.000Z</time>
      </trkpt>
      <trkpt lat="45.78854" lon="4.66003">
        <ele>453.8</ele>
        <time>2020-06-14T06:46:30.000Z</time>
      </trkpt>
      <trkpt lat="45.78854" lon="4.66002">
        <ele>453.8</ele>
        <time>2020-06-14T06:46:31.000Z</time>
      </trkpt>
      <trkpt lat="45.78854" lon="4.66">
        <ele>454</ele>
        <time>2020-06-14T06:46:32.000Z</time>
      </trkpt>
      <trkpt lat="45.78855" lon="4.65999">
        <ele>454</ele>
        <time>2020-06-14T06:46:33.000Z</time>
      </trkpt>
      <trkpt lat="45.78856" lon="4.65997">
        <ele>453.8</ele>
        <time>2020-06-14T06:46:34.000Z</time>
      </trkpt>
      <trkpt lat="45.78857" lon="4.65995">
        <ele>454</ele>
        <time>2020-06-14T06:46:35.000Z</time>
      </trkpt>
      <trkpt lat="45.78857" lon="4.65993">
        <ele>454</ele>
        <time>2020-06-14T06:46:36.000Z</time>
      </trkpt>
      <trkpt lat="45.78858" lon="4.65991">
        <ele>454.2</ele>
        <time>2020-06-14T06:46:37.000Z</time>
      </trkpt>
      <trkpt lat="45.78858" lon="4.6599">
        <ele>454.2</ele>
        <time>2020-06-14T06:46:38.000Z</time>
      </trkpt>
      <trkpt lat="45.78859" lon="4.65988">
        <ele>454.6</ele>
        <time>2020-06-14T06:46:39.000Z</time>
      </trkpt>
      <trkpt lat="45.78859" lon="4.65986">
        <ele>454.6</ele>
        <time>2020-06-14T06:46:40.000Z</time>
      </trkpt>
      <trkpt lat="45.78859" lon="4.65984">
        <ele>454.8</ele>
        <time>2020-06-14T06:46:41.000Z</time>
      </trkpt>
      <trkpt lat="45.78859" lon="4.65981">
        <ele>455.2</ele>
        <time>2020-06-14T06:46:42.000Z</time>
      </trkpt>
      <trkpt lat="45.7886" lon="4.65979">
        <ele>455.4</ele>
        <time>2020-06-14T06:46:43.000Z</time>
      </trkpt>
      <trkpt lat="45.78861" lon="4.65977">
        <ele>455.6</ele>
        <time>2020-06-14T06:46:44.000Z</time>
      </trkpt>
      <trkpt lat="45.78861" lon="4.65976">
        <ele>455.8</ele>
        <time>2020-06-14T06:46:45.000Z</time>
      </trkpt>
      <trkpt lat="45.78862" lon="4.65974">
        <ele>455.8</ele>
        <time>2020-06-14T06:46:46.000Z</time>
      </trkpt>
      <trkpt lat="45.78862" lon="4.65973">
        <ele>456</ele>
        <time>2020-06-14T06:46:47.000Z</time>
      </trkpt>
      <trkpt lat="45.78862" lon="4.65972">
        <ele>456.4</ele>
        <time>2020-06-14T06:46:48.000Z</time>
      </trkpt>
      <trkpt lat="45.78863" lon="4.65971">
        <ele>456.6</ele>
        <time>2020-06-14T06:46:49.000Z</time>
      </trkpt>
      <trkpt lat="45.78863" lon="4.6597">
        <ele>456.6</ele>
        <time>2020-06-14T06:46:50.000Z</time>
      </trkpt>
      <trkpt lat="45.78865" lon="4.65964">
        <ele>457.4</ele>
        <time>2020-06-14T06:46:54.000Z</time>
      </trkpt>
      <trkpt lat="45.78865" lon="4.65963">
        <ele>457.6</ele>
        <time>2020-06-14T06:46:55.000Z</time>
      </trkpt>
      <trkpt lat="45.78867" lon="4.6596">
        <ele>457.8</ele>
        <time>2020-06-14T06:46:57.000Z</time>
      </trkpt>
      <trkpt lat="45.78869" lon="4.65959">
        <ele>457.8</ele>
        <time>2020-06-14T06:46:58.000Z</time>
      </trkpt>
      <trkpt lat="45.7887" lon="4.65957">
        <ele>457.8</ele>
        <time>2020-06-14T06:46:59.000Z</time>
      </trkpt>
      <trkpt lat="45.78871" lon="4.65956">
        <ele>457.8</ele>
        <time>2020-06-14T06:47:00.000Z</time>
      </trkpt>
      <trkpt lat="45.78872" lon="4.65954">
        <ele>458</ele>
        <time>2020-06-14T06:47:01.000Z</time>
      </trkpt>
      <trkpt lat="45.78873" lon="4.65953">
        <ele>458</ele>
        <time>2020-06-14T06:47:02.000Z</time>
      </trkpt>
      <trkpt lat="45.78874" lon="4.65951">
        <ele>458</ele>
        <time>2020-06-14T06:47:03.000Z</time>
      </trkpt>
      <trkpt lat="45.78875" lon="4.65949">
        <ele>458</ele>
        <time>2020-06-14T06:47:04.000Z</time>
      </trkpt>
      <trkpt lat="45.78876" lon="4.65947">
        <ele>458.2</ele>
        <time>2020-06-14T06:47:05.000Z</time>
      </trkpt>
      <trkpt lat="45.78876" lon="4.65946">
        <ele>458.2</ele>
        <time>2020-06-14T06:47:06.000Z</time>
      </trkpt>
      <trkpt lat="45.78877" lon="4.65944">
        <ele>458.4</ele>
        <time>2020-06-14T06:47:07.000Z</time>
      </trkpt>
      <trkpt lat="45.78878" lon="4.65942">
        <ele>458.4</ele>
        <time>2020-06-14T06:47:08.000Z</time>
      </trkpt>
      <trkpt lat="45.78879" lon="4.65941">
        <ele>458.8</ele>
        <time>2020-06-14T06:47:09.000Z</time>
      </trkpt>
      <trkpt lat="45.7888" lon="4.65939">
        <ele>458.8</ele>
        <time>2020-06-14T06:47:10.000Z</time>
      </trkpt>
      <trkpt lat="45.78881" lon="4.65938">
        <ele>459</ele>
        <time>2020-06-14T06:47:11.000Z</time>
      </trkpt>
      <trkpt lat="45.78881" lon="4.65936">
        <ele>459.2</ele>
        <time>2020-06-14T06:47:12.000Z</time>
      </trkpt>
      <trkpt lat="45.78882" lon="4.65935">
        <ele>459.2</ele>
        <time>2020-06-14T06:47:13.000Z</time>
      </trkpt>
      <trkpt lat="45.78882" lon="4.65933">
        <ele>459.4</ele>
        <time>2020-06-14T06:47:14.000Z</time>
      </trkpt>
      <trkpt lat="45.78882" lon="4.65931">
        <ele>459.8</ele>
        <time>2020-06-14T06:47:15.000Z</time>
      </trkpt>
      <trkpt lat="45.78882" lon="4.65929">
        <ele>460</ele>
        <time>2020-06-14T06:47:16.000Z</time>
      </trkpt>
      <trkpt lat="45.78883" lon="4.65927">
        <ele>460</ele>
        <time>2020-06-14T06:47:17.000Z</time>
      </trkpt>
      <trkpt lat="45.78884" lon="4.65925">
        <ele>460.2</ele>
        <time>2020-06-14T06:47:18.000Z</time>
      </trkpt>
      <trkpt lat="45.78884" lon="4.65923">
        <ele>460.4</ele>
        <time>2020-06-14T06:47:19.000Z</time>
      </trkpt>
      <trkpt lat="45.78885" lon="4.65921">
        <ele>460.6</ele>
        <time>2020-06-14T06:47:20.000Z</time>
      </trkpt>
      <trkpt lat="45.78885" lon="4.65919">
        <ele>460.8</ele>
        <time>2020-06-14T06:47:21.000Z</time>
      </trkpt>
      <trkpt lat="45.78886" lon="4.65917">
        <ele>461</ele>
        <time>2020-06-14T06:47:22.000Z</time>
      </trkpt>
      <trkpt lat="45.78887" lon="4.65915">
        <ele>461.2</ele>
        <time>2020-06-14T06:47:23.000Z</time>
      </trkpt>
      <trkpt lat="45.78888" lon="4.65913">
        <ele>461.2</ele>
        <time>2020-06-14T06:47:24.000Z</time>
      </trkpt>
      <trkpt lat="45.78888" lon="4.65911">
        <ele>461.4</ele>
        <time>2020-06-14T06:47:25.000Z</time>
      </trkpt>
      <trkpt lat="45.78889" lon="4.65909">
        <ele>461.8</ele>
        <time>2020-06-14T06:47:26.000Z</time>
      </trkpt>
      <trkpt lat="45.78889" lon="4.65907">
        <ele>461.8</ele>
        <time>2020-06-14T06:47:27.000Z</time>
      </trkpt>
      <trkpt lat="45.78889" lon="4.65905">
        <ele>462.2</ele>
        <time>2020-06-14T06:47:28.000Z</time>
      </trkpt>
      <trkpt lat="45.7889" lon="4.65903">
        <ele>462.6</ele>
        <time>2020-06-14T06:47:29.000Z</time>
      </trkpt>
      <trkpt lat="45.7889" lon="4.65901">
        <ele>462.8</ele>
        <time>2020-06-14T06:47:30.000Z</time>
      </trkpt>
      <trkpt lat="45.78891" lon="4.65899">
        <ele>463.2</ele>
        <time>2020-06-14T06:47:31.000Z</time>
      </trkpt>
      <trkpt lat="45.7889" lon="4.65896">
        <ele>463.6</ele>
        <time>2020-06-14T06:47:32.000Z</time>
      </trkpt>
      <trkpt lat="45.7889" lon="4.65894">
        <ele>463.6</ele>
        <time>2020-06-14T06:47:33.000Z</time>
      </trkpt>
      <trkpt lat="45.78891" lon="4.65891">
        <ele>464.2</ele>
        <time>2020-06-14T06:47:34.000Z</time>
      </trkpt>
      <trkpt lat="45.78891" lon="4.65889">
        <ele>464.6</ele>
        <time>2020-06-14T06:47:35.000Z</time>
      </trkpt>
      <trkpt lat="45.78892" lon="4.65887">
        <ele>465</ele>
        <time>2020-06-14T06:47:36.000Z</time>
      </trkpt>
      <trkpt lat="45.78893" lon="4.65885">
        <ele>465.4</ele>
        <time>2020-06-14T06:47:37.000Z</time>
      </trkpt>
      <trkpt lat="45.78893" lon="4.65883">
        <ele>465.8</ele>
        <time>2020-06-14T06:47:38.000Z</time>
      </trkpt>
      <trkpt lat="45.78893" lon="4.65881">
        <ele>466</ele>
        <time>2020-06-14T06:47:39.000Z</time>
      </trkpt>
      <trkpt lat="45.78893" lon="4.65879">
        <ele>466.2</ele>
        <time>2020-06-14T06:47:40.000Z</time>
      </trkpt>
      <trkpt lat="45.78893" lon="4.65877">
        <ele>466.2</ele>
        <time>2020-06-14T06:47:41.000Z</time>
      </trkpt>
      <trkpt lat="45.78894" lon="4.65875">
        <ele>466.2</ele>
        <time>2020-06-14T06:47:42.000Z</time>
      </trkpt>
      <trkpt lat="45.78894" lon="4.65874">
        <ele>466.4</ele>
        <time>2020-06-14T06:47:43.000Z</time>
      </trkpt>
      <trkpt lat="45.78895" lon="4.65872">
        <ele>466.8</ele>
        <time>2020-06-14T06:47:44.000Z</time>
      </trkpt>
      <trkpt lat="45.78896" lon="4.65871">
        <ele>467</ele>
        <time>2020-06-14T06:47:45.000Z</time>
      </trkpt>
      <trkpt lat="45.78896" lon="4.65869">
        <ele>467</ele>
        <time>2020-06-14T06:47:46.000Z</time>
      </trkpt>
      <trkpt lat="45.78896" lon="4.65868">
        <ele>467.2</ele>
        <time>2020-06-14T06:47:47.000Z</time>
      </trkpt>
      <trkpt lat="45.78897" lon="4.65866">
        <ele>467.4</ele>
        <time>2020-06-14T06:47:48.000Z</time>
      </trkpt>
      <trkpt lat="45.78898" lon="4.65865">
        <ele>467.6</ele>
        <time>2020-06-14T06:47:49.000Z</time>
      </trkpt>
      <trkpt lat="45.78899" lon="4.65864">
        <ele>467.6</ele>
        <time>2020-06-14T06:47:50.000Z</time>
      </trkpt>
      <trkpt lat="45.78899" lon="4.65862">
        <ele>467.8</ele>
        <time>2020-06-14T06:47:51.000Z</time>
      </trkpt>
      <trkpt lat="45.789" lon="4.6586">
        <ele>467.8</ele>
        <time>2020-06-14T06:47:52.000Z</time>
      </trkpt>
      <trkpt lat="45.78902" lon="4.65858">
        <ele>467.8</ele>
        <time>2020-06-14T06:47:53.000Z</time>
      </trkpt>
      <trkpt lat="45.78903" lon="4.65857">
        <ele>468.2</ele>
        <time>2020-06-14T06:47:54.000Z</time>
      </trkpt>
      <trkpt lat="45.78904" lon="4.65855">
        <ele>468.4</ele>
        <time>2020-06-14T06:47:55.000Z</time>
      </trkpt>
      <trkpt lat="45.78905" lon="4.65853">
        <ele>468.6</ele>
        <time>2020-06-14T06:47:56.000Z</time>
      </trkpt>
      <trkpt lat="45.78906" lon="4.65851">
        <ele>468.8</ele>
        <time>2020-06-14T06:47:57.000Z</time>
      </trkpt>
      <trkpt lat="45.78907" lon="4.6585">
        <ele>468.8</ele>
        <time>2020-06-14T06:47:58.000Z</time>
      </trkpt>
      <trkpt lat="45.78908" lon="4.65848">
        <ele>469</ele>
        <time>2020-06-14T06:47:59.000Z</time>
      </trkpt>
      <trkpt lat="45.78909" lon="4.65846">
        <ele>469.2</ele>
        <time>2020-06-14T06:48:00.000Z</time>
      </trkpt>
      <trkpt lat="45.78909" lon="4.65844">
        <ele>469.4</ele>
        <time>2020-06-14T06:48:01.000Z</time>
      </trkpt>
      <trkpt lat="45.7891" lon="4.65842">
        <ele>469.6</ele>
        <time>2020-06-14T06:48:02.000Z</time>
      </trkpt>
      <trkpt lat="45.78912" lon="4.6584">
        <ele>469.8</ele>
        <time>2020-06-14T06:48:03.000Z</time>
      </trkpt>
      <trkpt lat="45.78913" lon="4.65838">
        <ele>470</ele>
        <time>2020-06-14T06:48:04.000Z</time>
      </trkpt>
      <trkpt lat="45.78914" lon="4.65837">
        <ele>470.2</ele>
        <time>2020-06-14T06:48:05.000Z</time>
      </trkpt>
      <trkpt lat="45.78915" lon="4.65835">
        <ele>470.4</ele>
        <time>2020-06-14T06:48:06.000Z</time>
      </trkpt>
      <trkpt lat="45.78916" lon="4.65833">
        <ele>471</ele>
        <time>2020-06-14T06:48:07.000Z</time>
      </trkpt>
      <trkpt lat="45.78917" lon="4.65831">
        <ele>471.2</ele>
        <time>2020-06-14T06:48:08.000Z</time>
      </trkpt>
      <trkpt lat="45.78918" lon="4.65829">
        <ele>471.4</ele>
        <time>2020-06-14T06:48:09.000Z</time>
      </trkpt>
      <trkpt lat="45.78918" lon="4.65827">
        <ele>471.4</ele>
        <time>2020-06-14T06:48:10.000Z</time>
      </trkpt>
      <trkpt lat="45.78919" lon="4.65826">
        <ele>471.6</ele>
        <time>2020-06-14T06:48:11.000Z</time>
      </trkpt>
      <trkpt lat="45.78919" lon="4.65824">
        <ele>471.8</ele>
        <time>2020-06-14T06:48:12.000Z</time>
      </trkpt>
      <trkpt lat="45.7892" lon="4.65823">
        <ele>471.8</ele>
        <time>2020-06-14T06:48:13.000Z</time>
      </trkpt>
      <trkpt lat="45.78922" lon="4.65822">
        <ele>471.8</ele>
        <time>2020-06-14T06:48:14.000Z</time>
      </trkpt>
      <trkpt lat="45.78923" lon="4.6582">
        <ele>471.8</ele>
        <time>2020-06-14T06:48:15.000Z</time>
      </trkpt>
      <trkpt lat="45.78924" lon="4.65819">
        <ele>471.8</ele>
        <time>2020-06-14T06:48:16.000Z</time>
      </trkpt>
      <trkpt lat="45.78925" lon="4.65818">
        <ele>472</ele>
        <time>2020-06-14T06:48:17.000Z</time>
      </trkpt>
      <trkpt lat="45.78926" lon="4.65817">
        <ele>472.2</ele>
        <time>2020-06-14T06:48:18.000Z</time>
      </trkpt>
      <trkpt lat="45.78927" lon="4.65816">
        <ele>472.2</ele>
        <time>2020-06-14T06:48:19.000Z</time>
      </trkpt>
      <trkpt lat="45.78928" lon="4.65815">
        <ele>472.2</ele>
        <time>2020-06-14T06:48:20.000Z</time>
      </trkpt>
      <trkpt lat="45.7893" lon="4.65813">
        <ele>472.4</ele>
        <time>2020-06-14T06:48:21.000Z</time>
      </trkpt>
      <trkpt lat="45.78931" lon="4.65812">
        <ele>472.4</ele>
        <time>2020-06-14T06:48:22.000Z</time>
      </trkpt>
      <trkpt lat="45.78931" lon="4.6581">
        <ele>472.4</ele>
        <time>2020-06-14T06:48:23.000Z</time>
      </trkpt>
      <trkpt lat="45.78932" lon="4.65809">
        <ele>472.6</ele>
        <time>2020-06-14T06:48:24.000Z</time>
      </trkpt>
      <trkpt lat="45.78933" lon="4.65808">
        <ele>472.8</ele>
        <time>2020-06-14T06:48:25.000Z</time>
      </trkpt>
      <trkpt lat="45.78934" lon="4.65807">
        <ele>472.6</ele>
        <time>2020-06-14T06:48:26.000Z</time>
      </trkpt>
      <trkpt lat="45.78935" lon="4.65805">
        <ele>473</ele>
        <time>2020-06-14T06:48:27.000Z</time>
      </trkpt>
      <trkpt lat="45.78936" lon="4.65804">
        <ele>473</ele>
        <time>2020-06-14T06:48:28.000Z</time>
      </trkpt>
      <trkpt lat="45.78937" lon="4.65802">
        <ele>473.2</ele>
        <time>2020-06-14T06:48:29.000Z</time>
      </trkpt>
      <trkpt lat="45.78938" lon="4.65801">
        <ele>473.2</ele>
        <time>2020-06-14T06:48:30.000Z</time>
      </trkpt>
      <trkpt lat="45.78939" lon="4.65799">
        <ele>473.4</ele>
        <time>2020-06-14T06:48:31.000Z</time>
      </trkpt>
      <trkpt lat="45.7894" lon="4.65798">
        <ele>473.6</ele>
        <time>2020-06-14T06:48:32.000Z</time>
      </trkpt>
      <trkpt lat="45.78941" lon="4.65797">
        <ele>473.6</ele>
        <time>2020-06-14T06:48:33.000Z</time>
      </trkpt>
      <trkpt lat="45.78942" lon="4.65796">
        <ele>473.8</ele>
        <time>2020-06-14T06:48:34.000Z</time>
      </trkpt>
      <trkpt lat="45.78943" lon="4.65795">
        <ele>473.8</ele>
        <time>2020-06-14T06:48:35.000Z</time>
      </trkpt>
      <trkpt lat="45.78944" lon="4.65794">
        <ele>474</ele>
        <time>2020-06-14T06:48:36.000Z</time>
      </trkpt>
      <trkpt lat="45.78946" lon="4.65794">
        <ele>474.2</ele>
        <time>2020-06-14T06:48:37.000Z</time>
      </trkpt>
      <trkpt lat="45.78947" lon="4.65793">
        <ele>474.4</ele>
        <time>2020-06-14T06:48:38.000Z</time>
      </trkpt>
      <trkpt lat="45.78948" lon="4.65792">
        <ele>474.4</ele>
        <time>2020-06-14T06:48:39.000Z</time>
      </trkpt>
      <trkpt lat="45.78949" lon="4.65792">
        <ele>474.8</ele>
        <time>2020-06-14T06:48:40.000Z</time>
      </trkpt>
      <trkpt lat="45.7895" lon="4.65792">
        <ele>475</ele>
        <time>2020-06-14T06:48:41.000Z</time>
      </trkpt>
      <trkpt lat="45.78951" lon="4.65791">
        <ele>475.6</ele>
        <time>2020-06-14T06:48:42.000Z</time>
      </trkpt>
      <trkpt lat="45.78952" lon="4.65791">
        <ele>475.8</ele>
        <time>2020-06-14T06:48:43.000Z</time>
      </trkpt>
      <trkpt lat="45.78962" lon="4.65785">
        <ele>478.8</ele>
        <time>2020-06-14T06:49:01.000Z</time>
      </trkpt>
      <trkpt lat="45.78964" lon="4.65784">
        <ele>479</ele>
        <time>2020-06-14T06:49:02.000Z</time>
      </trkpt>
      <trkpt lat="45.78965" lon="4.65784">
        <ele>478.8</ele>
        <time>2020-06-14T06:49:03.000Z</time>
      </trkpt>
      <trkpt lat="45.78966" lon="4.65783">
        <ele>479</ele>
        <time>2020-06-14T06:49:04.000Z</time>
      </trkpt>
      <trkpt lat="45.78967" lon="4.65783">
        <ele>479</ele>
        <time>2020-06-14T06:49:05.000Z</time>
      </trkpt>
      <trkpt lat="45.78968" lon="4.65782">
        <ele>479.2</ele>
        <time>2020-06-14T06:49:06.000Z</time>
      </trkpt>
      <trkpt lat="45.78969" lon="4.65782">
        <ele>479.4</ele>
        <time>2020-06-14T06:49:07.000Z</time>
      </trkpt>
      <trkpt lat="45.7897" lon="4.65782">
        <ele>479.4</ele>
        <time>2020-06-14T06:49:08.000Z</time>
      </trkpt>
      <trkpt lat="45.78971" lon="4.65781">
        <ele>479.4</ele>
        <time>2020-06-14T06:49:09.000Z</time>
      </trkpt>
      <trkpt lat="45.78972" lon="4.65781">
        <ele>479.6</ele>
        <time>2020-06-14T06:49:10.000Z</time>
      </trkpt>
      <trkpt lat="45.78974" lon="4.6578">
        <ele>479.8</ele>
        <time>2020-06-14T06:49:11.000Z</time>
      </trkpt>
      <trkpt lat="45.78975" lon="4.65779">
        <ele>479.8</ele>
        <time>2020-06-14T06:49:12.000Z</time>
      </trkpt>
      <trkpt lat="45.78976" lon="4.65778">
        <ele>480.2</ele>
        <time>2020-06-14T06:49:13.000Z</time>
      </trkpt>
      <trkpt lat="45.78977" lon="4.65777">
        <ele>480.2</ele>
        <time>2020-06-14T06:49:14.000Z</time>
      </trkpt>
      <trkpt lat="45.78978" lon="4.65776">
        <ele>480.4</ele>
        <time>2020-06-14T06:49:15.000Z</time>
      </trkpt>
      <trkpt lat="45.78979" lon="4.65775">
        <ele>480.8</ele>
        <time>2020-06-14T06:49:16.000Z</time>
      </trkpt>
      <trkpt lat="45.78981" lon="4.65774">
        <ele>480.8</ele>
        <time>2020-06-14T06:49:17.000Z</time>
      </trkpt>
      <trkpt lat="45.78982" lon="4.65773">
        <ele>481</ele>
        <time>2020-06-14T06:49:18.000Z</time>
      </trkpt>
      <trkpt lat="45.78983" lon="4.65773">
        <ele>481.2</ele>
        <time>2020-06-14T06:49:19.000Z</time>
      </trkpt>
      <trkpt lat="45.78985" lon="4.65771">
        <ele>481.2</ele>
        <time>2020-06-14T06:49:20.000Z</time>
      </trkpt>
      <trkpt lat="45.78987" lon="4.6577">
        <ele>481.2</ele>
        <time>2020-06-14T06:49:21.000Z</time>
      </trkpt>
      <trkpt lat="45.78989" lon="4.6577">
        <ele>481.4</ele>
        <time>2020-06-14T06:49:22.000Z</time>
      </trkpt>
      <trkpt lat="45.78991" lon="4.65769">
        <ele>481.6</ele>
        <time>2020-06-14T06:49:23.000Z</time>
      </trkpt>
      <trkpt lat="45.78992" lon="4.65769">
        <ele>481.8</ele>
        <time>2020-06-14T06:49:24.000Z</time>
      </trkpt>
      <trkpt lat="45.78994" lon="4.65768">
        <ele>482.2</ele>
        <time>2020-06-14T06:49:25.000Z</time>
      </trkpt>
      <trkpt lat="45.78996" lon="4.65767">
        <ele>482.4</ele>
        <time>2020-06-14T06:49:26.000Z</time>
      </trkpt>
      <trkpt lat="45.78997" lon="4.65766">
        <ele>482.8</ele>
        <time>2020-06-14T06:49:27.000Z</time>
      </trkpt>
      <trkpt lat="45.78999" lon="4.65765">
        <ele>483</ele>
        <time>2020-06-14T06:49:28.000Z</time>
      </trkpt>
      <trkpt lat="45.79" lon="4.65764">
        <ele>483.2</ele>
        <time>2020-06-14T06:49:29.000Z</time>
      </trkpt>
      <trkpt lat="45.79002" lon="4.65763">
        <ele>483.6</ele>
        <time>2020-06-14T06:49:30.000Z</time>
      </trkpt>
      <trkpt lat="45.79003" lon="4.65763">
        <ele>483.8</ele>
        <time>2020-06-14T06:49:31.000Z</time>
      </trkpt>
      <trkpt lat="45.79005" lon="4.65763">
        <ele>484</ele>
        <time>2020-06-14T06:49:32.000Z</time>
      </trkpt>
      <trkpt lat="45.79007" lon="4.65763">
        <ele>484.2</ele>
        <time>2020-06-14T06:49:33.000Z</time>
      </trkpt>
      <trkpt lat="45.79009" lon="4.65763">
        <ele>484.4</ele>
        <time>2020-06-14T06:49:34.000Z</time>
      </trkpt>
      <trkpt lat="45.7901" lon="4.65764">
        <ele>484.6</ele>
        <time>2020-06-14T06:49:35.000Z</time>
      </trkpt>
      <trkpt lat="45.79012" lon="4.65764">
        <ele>485</ele>
        <time>2020-06-14T06:49:36.000Z</time>
      </trkpt>
      <trkpt lat="45.79013" lon="4.65764">
        <ele>485</ele>
        <time>2020-06-14T06:49:37.000Z</time>
      </trkpt>
      <trkpt lat="45.79014" lon="4.65764">
        <ele>485</ele>
        <time>2020-06-14T06:49:38.000Z</time>
      </trkpt>
      <trkpt lat="45.79016" lon="4.65764">
        <ele>485.2</ele>
        <time>2020-06-14T06:49:39.000Z</time>
      </trkpt>
      <trkpt lat="45.79017" lon="4.65764">
        <ele>485.2</ele>
        <time>2020-06-14T06:49:40.000Z</time>
      </trkpt>
      <trkpt lat="45.79019" lon="4.65763">
        <ele>485.4</ele>
        <time>2020-06-14T06:49:41.000Z</time>
      </trkpt>
      <trkpt lat="45.7902" lon="4.65762">
        <ele>485.4</ele>
        <time>2020-06-14T06:49:42.000Z</time>
      </trkpt>
      <trkpt lat="45.79021" lon="4.65761">
        <ele>485.6</ele>
        <time>2020-06-14T06:49:43.000Z</time>
      </trkpt>
      <trkpt lat="45.79023" lon="4.6576">
        <ele>486</ele>
        <time>2020-06-14T06:49:44.000Z</time>
      </trkpt>
      <trkpt lat="45.79024" lon="4.65759">
        <ele>486.4</ele>
        <time>2020-06-14T06:49:45.000Z</time>
      </trkpt>
      <trkpt lat="45.79025" lon="4.65757">
        <ele>486.6</ele>
        <time>2020-06-14T06:49:46.000Z</time>
      </trkpt>
      <trkpt lat="45.79026" lon="4.65756">
        <ele>487</ele>
        <time>2020-06-14T06:49:47.000Z</time>
      </trkpt>
      <trkpt lat="45.79027" lon="4.65755">
        <ele>487</ele>
        <time>2020-06-14T06:49:48.000Z</time>
      </trkpt>
      <trkpt lat="45.79028" lon="4.65754">
        <ele>487</ele>
        <time>2020-06-14T06:49:49.000Z</time>
      </trkpt>
      <trkpt lat="45.79029" lon="4.65753">
        <ele>487.2</ele>
        <time>2020-06-14T06:49:50.000Z</time>
      </trkpt>
      <trkpt lat="45.79031" lon="4.65753">
        <ele>487.4</ele>
        <time>2020-06-14T06:49:51.000Z</time>
      </trkpt>
      <trkpt lat="45.79032" lon="4.65752">
        <ele>487.6</ele>
        <time>2020-06-14T06:49:52.000Z</time>
      </trkpt>
      <trkpt lat="45.79033" lon="4.65751">
        <ele>487.6</ele>
        <time>2020-06-14T06:49:53.000Z</time>
      </trkpt>
      <trkpt lat="45.79035" lon="4.65751">
        <ele>487.8</ele>
        <time>2020-06-14T06:49:54.000Z</time>
      </trkpt>
      <trkpt lat="45.79037" lon="4.6575">
        <ele>488.2</ele>
        <time>2020-06-14T06:49:55.000Z</time>
      </trkpt>
      <trkpt lat="45.79039" lon="4.65749">
        <ele>488.4</ele>
        <time>2020-06-14T06:49:56.000Z</time>
      </trkpt>
      <trkpt lat="45.7904" lon="4.65748">
        <ele>488.6</ele>
        <time>2020-06-14T06:49:57.000Z</time>
      </trkpt>
      <trkpt lat="45.79041" lon="4.65747">
        <ele>488.6</ele>
        <time>2020-06-14T06:49:58.000Z</time>
      </trkpt>
      <trkpt lat="45.79042" lon="4.65746">
        <ele>488.8</ele>
        <time>2020-06-14T06:49:59.000Z</time>
      </trkpt>
      <trkpt lat="45.79043" lon="4.65746">
        <ele>488.8</ele>
        <time>2020-06-14T06:50:00.000Z</time>
      </trkpt>
      <trkpt lat="45.79045" lon="4.65745">
        <ele>489</ele>
        <time>2020-06-14T06:50:01.000Z</time>
      </trkpt>
      <trkpt lat="45.79046" lon="4.65745">
        <ele>489</ele>
        <time>2020-06-14T06:50:02.000Z</time>
      </trkpt>
      <trkpt lat="45.79047" lon="4.65744">
        <ele>489</ele>
        <time>2020-06-14T06:50:03.000Z</time>
      </trkpt>
      <trkpt lat="45.79049" lon="4.65743">
        <ele>489.2</ele>
        <time>2020-06-14T06:50:04.000Z</time>
      </trkpt>
      <trkpt lat="45.7905" lon="4.65742">
        <ele>489.4</ele>
        <time>2020-06-14T06:50:05.000Z</time>
      </trkpt>
      <trkpt lat="45.79051" lon="4.65742">
        <ele>489.8</ele>
        <time>2020-06-14T06:50:06.000Z</time>
      </trkpt>
      <trkpt lat="45.79053" lon="4.65741">
        <ele>489.8</ele>
        <time>2020-06-14T06:50:07.000Z</time>
      </trkpt>
      <trkpt lat="45.79054" lon="4.6574">
        <ele>490</ele>
        <time>2020-06-14T06:50:08.000Z</time>
      </trkpt>
      <trkpt lat="45.79056" lon="4.6574">
        <ele>490.2</ele>
        <time>2020-06-14T06:50:09.000Z</time>
      </trkpt>
      <trkpt lat="45.79057" lon="4.65739">
        <ele>490.2</ele>
        <time>2020-06-14T06:50:10.000Z</time>
      </trkpt>
      <trkpt lat="45.79058" lon="4.65739">
        <ele>490.4</ele>
        <time>2020-06-14T06:50:11.000Z</time>
      </trkpt>
      <trkpt lat="45.79059" lon="4.65739">
        <ele>490.6</ele>
        <time>2020-06-14T06:50:12.000Z</time>
      </trkpt>
      <trkpt lat="45.79061" lon="4.65738">
        <ele>490.8</ele>
        <time>2020-06-14T06:50:13.000Z</time>
      </trkpt>
      <trkpt lat="45.79065" lon="4.65737">
        <ele>491</ele>
        <time>2020-06-14T06:50:15.000Z</time>
      </trkpt>
      <trkpt lat="45.79067" lon="4.65737">
        <ele>491.2</ele>
        <time>2020-06-14T06:50:16.000Z</time>
      </trkpt>
      <trkpt lat="45.79073" lon="4.65736">
        <ele>491.4</ele>
        <time>2020-06-14T06:50:19.000Z</time>
      </trkpt>
      <trkpt lat="45.7908" lon="4.65733">
        <ele>491.8</ele>
        <time>2020-06-14T06:50:24.000Z</time>
      </trkpt>
      <trkpt lat="45.79083" lon="4.65733">
        <ele>492</ele>
        <time>2020-06-14T06:50:26.000Z</time>
      </trkpt>
      <trkpt lat="45.79085" lon="4.65732">
        <ele>492</ele>
        <time>2020-06-14T06:50:27.000Z</time>
      </trkpt>
      <trkpt lat="45.79086" lon="4.65731">
        <ele>492.2</ele>
        <time>2020-06-14T06:50:28.000Z</time>
      </trkpt>
      <trkpt lat="45.79088" lon="4.6573">
        <ele>492.2</ele>
        <time>2020-06-14T06:50:29.000Z</time>
      </trkpt>
      <trkpt lat="45.7909" lon="4.6573">
        <ele>492.4</ele>
        <time>2020-06-14T06:50:30.000Z</time>
      </trkpt>
      <trkpt lat="45.79092" lon="4.65729">
        <ele>492.6</ele>
        <time>2020-06-14T06:50:31.000Z</time>
      </trkpt>
      <trkpt lat="45.79095" lon="4.65728">
        <ele>492.6</ele>
        <time>2020-06-14T06:50:33.000Z</time>
      </trkpt>
      <trkpt lat="45.79097" lon="4.65728">
        <ele>492.6</ele>
        <time>2020-06-14T06:50:34.000Z</time>
      </trkpt>
      <trkpt lat="45.79099" lon="4.65728">
        <ele>492.6</ele>
        <time>2020-06-14T06:50:35.000Z</time>
      </trkpt>
      <trkpt lat="45.791" lon="4.65728">
        <ele>492.6</ele>
        <time>2020-06-14T06:50:36.000Z</time>
      </trkpt>
      <trkpt lat="45.79102" lon="4.65728">
        <ele>492.6</ele>
        <time>2020-06-14T06:50:37.000Z</time>
      </trkpt>
      <trkpt lat="45.79103" lon="4.65727">
        <ele>492.6</ele>
        <time>2020-06-14T06:50:38.000Z</time>
      </trkpt>
      <trkpt lat="45.79104" lon="4.65725">
        <ele>492.6</ele>
        <time>2020-06-14T06:50:39.000Z</time>
      </trkpt>
      <trkpt lat="45.79104" lon="4.65724">
        <ele>492.6</ele>
        <time>2020-06-14T06:50:40.000Z</time>
      </trkpt>
      <trkpt lat="45.79104" lon="4.65723">
        <ele>492.6</ele>
        <time>2020-06-14T06:50:41.000Z</time>
      </trkpt>
      <trkpt lat="45.79104" lon="4.65722">
        <ele>492.6</ele>
        <time>2020-06-14T06:50:42.000Z</time>
      </trkpt>
      <trkpt lat="45.79103" lon="4.65721">
        <ele>492.6</ele>
        <time>2020-06-14T06:50:43.000Z</time>
      </trkpt>
      <trkpt lat="45.79102" lon="4.6572">
        <ele>492.6</ele>
        <time>2020-06-14T06:50:44.000Z</time>
      </trkpt>
      <trkpt lat="45.79099" lon="4.65716">
        <ele>492.6</ele>
        <time>2020-06-14T06:50:47.000Z</time>
      </trkpt>
      <trkpt lat="45.79095" lon="4.65712">
        <ele>492.6</ele>
        <time>2020-06-14T06:50:50.000Z</time>
      </trkpt>
      <trkpt lat="45.79093" lon="4.65709">
        <ele>492.4</ele>
        <time>2020-06-14T06:50:52.000Z</time>
      </trkpt>
      <trkpt lat="45.7909" lon="4.65706">
        <ele>492.6</ele>
        <time>2020-06-14T06:50:54.000Z</time>
      </trkpt>
      <trkpt lat="45.79083" lon="4.65698">
        <ele>493</ele>
        <time>2020-06-14T06:50:58.000Z</time>
      </trkpt>
      <trkpt lat="45.79078" lon="4.65693">
        <ele>493.2</ele>
        <time>2020-06-14T06:51:01.000Z</time>
      </trkpt>
      <trkpt lat="45.79077" lon="4.65692">
        <ele>493.2</ele>
        <time>2020-06-14T06:51:02.000Z</time>
      </trkpt>
      <trkpt lat="45.79075" lon="4.6569">
        <ele>493.2</ele>
        <time>2020-06-14T06:51:03.000Z</time>
      </trkpt>
      <trkpt lat="45.79074" lon="4.65689">
        <ele>493.4</ele>
        <time>2020-06-14T06:51:04.000Z</time>
      </trkpt>
      <trkpt lat="45.79073" lon="4.65688">
        <ele>493.4</ele>
        <time>2020-06-14T06:51:05.000Z</time>
      </trkpt>
      <trkpt lat="45.79069" lon="4.65683">
        <ele>493.4</ele>
        <time>2020-06-14T06:51:07.000Z</time>
      </trkpt>
      <trkpt lat="45.79065" lon="4.65679">
        <ele>493.6</ele>
        <time>2020-06-14T06:51:09.000Z</time>
      </trkpt>
      <trkpt lat="45.79063" lon="4.65677">
        <ele>493.6</ele>
        <time>2020-06-14T06:51:10.000Z</time>
      </trkpt>
      <trkpt lat="45.79062" lon="4.65676">
        <ele>493.6</ele>
        <time>2020-06-14T06:51:11.000Z</time>
      </trkpt>
      <trkpt lat="45.7906" lon="4.65674">
        <ele>493.8</ele>
        <time>2020-06-14T06:51:12.000Z</time>
      </trkpt>
      <trkpt lat="45.79056" lon="4.65669">
        <ele>494</ele>
        <time>2020-06-14T06:51:14.000Z</time>
      </trkpt>
      <trkpt lat="45.79053" lon="4.65667">
        <ele>494</ele>
        <time>2020-06-14T06:51:15.000Z</time>
      </trkpt>
      <trkpt lat="45.79051" lon="4.65665">
        <ele>494.2</ele>
        <time>2020-06-14T06:51:16.000Z</time>
      </trkpt>
      <trkpt lat="45.7905" lon="4.65662">
        <ele>494.4</ele>
        <time>2020-06-14T06:51:17.000Z</time>
      </trkpt>
      <trkpt lat="45.79048" lon="4.6566">
        <ele>494.4</ele>
        <time>2020-06-14T06:51:18.000Z</time>
      </trkpt>
      <trkpt lat="45.79047" lon="4.65659">
        <ele>494.6</ele>
        <time>2020-06-14T06:51:19.000Z</time>
      </trkpt>
      <trkpt lat="45.79046" lon="4.65657">
        <ele>494.6</ele>
        <time>2020-06-14T06:51:20.000Z</time>
      </trkpt>
      <trkpt lat="45.79044" lon="4.65654">
        <ele>494.6</ele>
        <time>2020-06-14T06:51:21.000Z</time>
      </trkpt>
      <trkpt lat="45.79042" lon="4.65652">
        <ele>494.6</ele>
        <time>2020-06-14T06:51:22.000Z</time>
      </trkpt>
      <trkpt lat="45.79041" lon="4.6565">
        <ele>494.6</ele>
        <time>2020-06-14T06:51:23.000Z</time>
      </trkpt>
      <trkpt lat="45.7904" lon="4.65648">
        <ele>494.6</ele>
        <time>2020-06-14T06:51:24.000Z</time>
      </trkpt>
      <trkpt lat="45.79038" lon="4.65646">
        <ele>495</ele>
        <time>2020-06-14T06:51:25.000Z</time>
      </trkpt>
      <trkpt lat="45.79036" lon="4.65644">
        <ele>495</ele>
        <time>2020-06-14T06:51:26.000Z</time>
      </trkpt>
      <trkpt lat="45.79034" lon="4.65641">
        <ele>495.2</ele>
        <time>2020-06-14T06:51:27.000Z</time>
      </trkpt>
      <trkpt lat="45.79033" lon="4.65639">
        <ele>495.2</ele>
        <time>2020-06-14T06:51:28.000Z</time>
      </trkpt>
      <trkpt lat="45.79032" lon="4.65637">
        <ele>495.6</ele>
        <time>2020-06-14T06:51:29.000Z</time>
      </trkpt>
      <trkpt lat="45.79031" lon="4.65634">
        <ele>495.8</ele>
        <time>2020-06-14T06:51:30.000Z</time>
      </trkpt>
      <trkpt lat="45.79029" lon="4.65632">
        <ele>496</ele>
        <time>2020-06-14T06:51:31.000Z</time>
      </trkpt>
      <trkpt lat="45.79028" lon="4.65629">
        <ele>496.2</ele>
        <time>2020-06-14T06:51:32.000Z</time>
      </trkpt>
      <trkpt lat="45.79026" lon="4.65627">
        <ele>496.4</ele>
        <time>2020-06-14T06:51:33.000Z</time>
      </trkpt>
      <trkpt lat="45.79024" lon="4.65625">
        <ele>496.8</ele>
        <time>2020-06-14T06:51:34.000Z</time>
      </trkpt>
      <trkpt lat="45.79022" lon="4.65623">
        <ele>497</ele>
        <time>2020-06-14T06:51:35.000Z</time>
      </trkpt>
      <trkpt lat="45.79021" lon="4.65621">
        <ele>497.2</ele>
        <time>2020-06-14T06:51:36.000Z</time>
      </trkpt>
      <trkpt lat="45.79019" lon="4.65618">
        <ele>497.6</ele>
        <time>2020-06-14T06:51:37.000Z</time>
      </trkpt>
      <trkpt lat="45.79018" lon="4.65616">
        <ele>497.8</ele>
        <time>2020-06-14T06:51:38.000Z</time>
      </trkpt>
      <trkpt lat="45.79017" lon="4.65613">
        <ele>498</ele>
        <time>2020-06-14T06:51:39.000Z</time>
      </trkpt>
      <trkpt lat="45.79015" lon="4.65611">
        <ele>498.2</ele>
        <time>2020-06-14T06:51:40.000Z</time>
      </trkpt>
      <trkpt lat="45.79014" lon="4.65608">
        <ele>498.6</ele>
        <time>2020-06-14T06:51:41.000Z</time>
      </trkpt>
      <trkpt lat="45.79014" lon="4.65606">
        <ele>498.6</ele>
        <time>2020-06-14T06:51:42.000Z</time>
      </trkpt>
      <trkpt lat="45.79013" lon="4.65603">
        <ele>499</ele>
        <time>2020-06-14T06:51:43.000Z</time>
      </trkpt>
      <trkpt lat="45.79012" lon="4.656">
        <ele>499.2</ele>
        <time>2020-06-14T06:51:44.000Z</time>
      </trkpt>
      <trkpt lat="45.79011" lon="4.65597">
        <ele>499.4</ele>
        <time>2020-06-14T06:51:45.000Z</time>
      </trkpt>
      <trkpt lat="45.79011" lon="4.65594">
        <ele>499.4</ele>
        <time>2020-06-14T06:51:46.000Z</time>
      </trkpt>
      <trkpt lat="45.7901" lon="4.65592">
        <ele>499.4</ele>
        <time>2020-06-14T06:51:47.000Z</time>
      </trkpt>
      <trkpt lat="45.7901" lon="4.65589">
        <ele>499.8</ele>
        <time>2020-06-14T06:51:48.000Z</time>
      </trkpt>
      <trkpt lat="45.79009" lon="4.65586">
        <ele>500</ele>
        <time>2020-06-14T06:51:49.000Z</time>
      </trkpt>
      <trkpt lat="45.79009" lon="4.65584">
        <ele>500.2</ele>
        <time>2020-06-14T06:51:50.000Z</time>
      </trkpt>
      <trkpt lat="45.79008" lon="4.65581">
        <ele>500.2</ele>
        <time>2020-06-14T06:51:51.000Z</time>
      </trkpt>
      <trkpt lat="45.79008" lon="4.65579">
        <ele>500.4</ele>
        <time>2020-06-14T06:51:52.000Z</time>
      </trkpt>
      <trkpt lat="45.79007" lon="4.65576">
        <ele>500.4</ele>
        <time>2020-06-14T06:51:53.000Z</time>
      </trkpt>
      <trkpt lat="45.79007" lon="4.65574">
        <ele>500.8</ele>
        <time>2020-06-14T06:51:54.000Z</time>
      </trkpt>
      <trkpt lat="45.79007" lon="4.65571">
        <ele>501</ele>
        <time>2020-06-14T06:51:55.000Z</time>
      </trkpt>
      <trkpt lat="45.79006" lon="4.65568">
        <ele>501.2</ele>
        <time>2020-06-14T06:51:56.000Z</time>
      </trkpt>
      <trkpt lat="45.79006" lon="4.65565">
        <ele>501.2</ele>
        <time>2020-06-14T06:51:57.000Z</time>
      </trkpt>
      <trkpt lat="45.79006" lon="4.65563">
        <ele>501.4</ele>
        <time>2020-06-14T06:51:58.000Z</time>
      </trkpt>
      <trkpt lat="45.79006" lon="4.6556">
        <ele>501.6</ele>
        <time>2020-06-14T06:51:59.000Z</time>
      </trkpt>
      <trkpt lat="45.79005" lon="4.65557">
        <ele>501.8</ele>
        <time>2020-06-14T06:52:00.000Z</time>
      </trkpt>
      <trkpt lat="45.79004" lon="4.65552">
        <ele>502</ele>
        <time>2020-06-14T06:52:02.000Z</time>
      </trkpt>
      <trkpt lat="45.79004" lon="4.6555">
        <ele>502</ele>
        <time>2020-06-14T06:52:03.000Z</time>
      </trkpt>
      <trkpt lat="45.79004" lon="4.65547">
        <ele>502.2</ele>
        <time>2020-06-14T06:52:04.000Z</time>
      </trkpt>
      <trkpt lat="45.79001" lon="4.65531">
        <ele>502.8</ele>
        <time>2020-06-14T06:52:10.000Z</time>
      </trkpt>
      <trkpt lat="45.79001" lon="4.65528">
        <ele>502.8</ele>
        <time>2020-06-14T06:52:11.000Z</time>
      </trkpt>
      <trkpt lat="45.79" lon="4.65526">
        <ele>503</ele>
        <time>2020-06-14T06:52:12.000Z</time>
      </trkpt>
      <trkpt lat="45.79" lon="4.65523">
        <ele>503</ele>
        <time>2020-06-14T06:52:13.000Z</time>
      </trkpt>
      <trkpt lat="45.79" lon="4.6552">
        <ele>503</ele>
        <time>2020-06-14T06:52:14.000Z</time>
      </trkpt>
      <trkpt lat="45.78999" lon="4.65517">
        <ele>503</ele>
        <time>2020-06-14T06:52:15.000Z</time>
      </trkpt>
      <trkpt lat="45.78999" lon="4.65515">
        <ele>503.2</ele>
        <time>2020-06-14T06:52:16.000Z</time>
      </trkpt>
      <trkpt lat="45.78998" lon="4.65512">
        <ele>503.2</ele>
        <time>2020-06-14T06:52:17.000Z</time>
      </trkpt>
      <trkpt lat="45.78996" lon="4.65511">
        <ele>503.4</ele>
        <time>2020-06-14T06:52:18.000Z</time>
      </trkpt>
      <trkpt lat="45.78996" lon="4.65508">
        <ele>503.4</ele>
        <time>2020-06-14T06:52:19.000Z</time>
      </trkpt>
      <trkpt lat="45.78995" lon="4.65506">
        <ele>503.8</ele>
        <time>2020-06-14T06:52:20.000Z</time>
      </trkpt>
      <trkpt lat="45.78994" lon="4.65503">
        <ele>504</ele>
        <time>2020-06-14T06:52:21.000Z</time>
      </trkpt>
      <trkpt lat="45.78994" lon="4.655">
        <ele>503.8</ele>
        <time>2020-06-14T06:52:22.000Z</time>
      </trkpt>
      <trkpt lat="45.78993" lon="4.65498">
        <ele>503.8</ele>
        <time>2020-06-14T06:52:23.000Z</time>
      </trkpt>
      <trkpt lat="45.78992" lon="4.65495">
        <ele>504.2</ele>
        <time>2020-06-14T06:52:24.000Z</time>
      </trkpt>
      <trkpt lat="45.78992" lon="4.65493">
        <ele>504.2</ele>
        <time>2020-06-14T06:52:25.000Z</time>
      </trkpt>
      <trkpt lat="45.78992" lon="4.65491">
        <ele>504.4</ele>
        <time>2020-06-14T06:52:26.000Z</time>
      </trkpt>
      <trkpt lat="45.78992" lon="4.65488">
        <ele>504.4</ele>
        <time>2020-06-14T06:52:27.000Z</time>
      </trkpt>
      <trkpt lat="45.78992" lon="4.65486">
        <ele>504.6</ele>
        <time>2020-06-14T06:52:28.000Z</time>
      </trkpt>
      <trkpt lat="45.78992" lon="4.65485">
        <ele>504.8</ele>
        <time>2020-06-14T06:52:29.000Z</time>
      </trkpt>
      <trkpt lat="45.78992" lon="4.65483">
        <ele>504.8</ele>
        <time>2020-06-14T06:52:30.000Z</time>
      </trkpt>
      <trkpt lat="45.78991" lon="4.65482">
        <ele>505</ele>
        <time>2020-06-14T06:52:31.000Z</time>
      </trkpt>
      <trkpt lat="45.78991" lon="4.65481">
        <ele>505.2</ele>
        <time>2020-06-14T06:52:32.000Z</time>
      </trkpt>
      <trkpt lat="45.78986" lon="4.65439">
        <ele>509</ele>
        <time>2020-06-14T06:53:19.000Z</time>
      </trkpt>
      <trkpt lat="45.78986" lon="4.65433">
        <ele>509.2</ele>
        <time>2020-06-14T06:53:22.000Z</time>
      </trkpt>
      <trkpt lat="45.78986" lon="4.65428">
        <ele>509</ele>
        <time>2020-06-14T06:53:24.000Z</time>
      </trkpt>
      <trkpt lat="45.78985" lon="4.65422">
        <ele>509</ele>
        <time>2020-06-14T06:53:27.000Z</time>
      </trkpt>
      <trkpt lat="45.78985" lon="4.65419">
        <ele>509.2</ele>
        <time>2020-06-14T06:53:28.000Z</time>
      </trkpt>
      <trkpt lat="45.78985" lon="4.65417">
        <ele>509.2</ele>
        <time>2020-06-14T06:53:29.000Z</time>
      </trkpt>
      <trkpt lat="45.78985" lon="4.65415">
        <ele>509.4</ele>
        <time>2020-06-14T06:53:30.000Z</time>
      </trkpt>
      <trkpt lat="45.78985" lon="4.65412">
        <ele>509.4</ele>
        <time>2020-06-14T06:53:31.000Z</time>
      </trkpt>
      <trkpt lat="45.78984" lon="4.6541">
        <ele>509.6</ele>
        <time>2020-06-14T06:53:32.000Z</time>
      </trkpt>
      <trkpt lat="45.78984" lon="4.65408">
        <ele>509.6</ele>
        <time>2020-06-14T06:53:33.000Z</time>
      </trkpt>
      <trkpt lat="45.78983" lon="4.65405">
        <ele>509.6</ele>
        <time>2020-06-14T06:53:34.000Z</time>
      </trkpt>
      <trkpt lat="45.78983" lon="4.65403">
        <ele>509.6</ele>
        <time>2020-06-14T06:53:35.000Z</time>
      </trkpt>
      <trkpt lat="45.78982" lon="4.65402">
        <ele>509.6</ele>
        <time>2020-06-14T06:53:36.000Z</time>
      </trkpt>
      <trkpt lat="45.78981" lon="4.654">
        <ele>509.8</ele>
        <time>2020-06-14T06:53:37.000Z</time>
      </trkpt>
      <trkpt lat="45.7898" lon="4.65398">
        <ele>510</ele>
        <time>2020-06-14T06:53:38.000Z</time>
      </trkpt>
      <trkpt lat="45.78979" lon="4.65396">
        <ele>510.2</ele>
        <time>2020-06-14T06:53:39.000Z</time>
      </trkpt>
      <trkpt lat="45.78979" lon="4.65393">
        <ele>510.4</ele>
        <time>2020-06-14T06:53:40.000Z</time>
      </trkpt>
      <trkpt lat="45.78978" lon="4.65391">
        <ele>510.6</ele>
        <time>2020-06-14T06:53:41.000Z</time>
      </trkpt>
      <trkpt lat="45.78977" lon="4.65389">
        <ele>511</ele>
        <time>2020-06-14T06:53:42.000Z</time>
      </trkpt>
      <trkpt lat="45.78977" lon="4.65387">
        <ele>511</ele>
        <time>2020-06-14T06:53:43.000Z</time>
      </trkpt>
      <trkpt lat="45.78975" lon="4.65384">
        <ele>511.4</ele>
        <time>2020-06-14T06:53:44.000Z</time>
      </trkpt>
      <trkpt lat="45.78975" lon="4.65382">
        <ele>511.6</ele>
        <time>2020-06-14T06:53:45.000Z</time>
      </trkpt>
      <trkpt lat="45.78974" lon="4.65379">
        <ele>511.8</ele>
        <time>2020-06-14T06:53:46.000Z</time>
      </trkpt>
      <trkpt lat="45.78973" lon="4.65377">
        <ele>511.8</ele>
        <time>2020-06-14T06:53:47.000Z</time>
      </trkpt>
      <trkpt lat="45.78972" lon="4.65376">
        <ele>512.2</ele>
        <time>2020-06-14T06:53:48.000Z</time>
      </trkpt>
      <trkpt lat="45.78971" lon="4.65374">
        <ele>512.4</ele>
        <time>2020-06-14T06:53:49.000Z</time>
      </trkpt>
      <trkpt lat="45.78971" lon="4.65372">
        <ele>512.6</ele>
        <time>2020-06-14T06:53:50.000Z</time>
      </trkpt>
      <trkpt lat="45.7897" lon="4.6537">
        <ele>512.8</ele>
        <time>2020-06-14T06:53:51.000Z</time>
      </trkpt>
      <trkpt lat="45.7897" lon="4.65368">
        <ele>513</ele>
        <time>2020-06-14T06:53:52.000Z</time>
      </trkpt>
      <trkpt lat="45.78969" lon="4.65366">
        <ele>513</ele>
        <time>2020-06-14T06:53:53.000Z</time>
      </trkpt>
      <trkpt lat="45.78969" lon="4.65364">
        <ele>513.2</ele>
        <time>2020-06-14T06:53:54.000Z</time>
      </trkpt>
      <trkpt lat="45.78968" lon="4.65362">
        <ele>513.2</ele>
        <time>2020-06-14T06:53:55.000Z</time>
      </trkpt>
      <trkpt lat="45.78968" lon="4.6536">
        <ele>513.6</ele>
        <time>2020-06-14T06:53:56.000Z</time>
      </trkpt>
      <trkpt lat="45.78967" lon="4.65359">
        <ele>513.8</ele>
        <time>2020-06-14T06:53:57.000Z</time>
      </trkpt>
      <trkpt lat="45.78967" lon="4.65357">
        <ele>514</ele>
        <time>2020-06-14T06:53:58.000Z</time>
      </trkpt>
      <trkpt lat="45.78966" lon="4.65355">
        <ele>514.2</ele>
        <time>2020-06-14T06:53:59.000Z</time>
      </trkpt>
      <trkpt lat="45.78965" lon="4.65352">
        <ele>514.2</ele>
        <time>2020-06-14T06:54:00.000Z</time>
      </trkpt>
      <trkpt lat="45.78965" lon="4.6535">
        <ele>514.4</ele>
        <time>2020-06-14T06:54:01.000Z</time>
      </trkpt>
      <trkpt lat="45.78963" lon="4.65346">
        <ele>514.6</ele>
        <time>2020-06-14T06:54:03.000Z</time>
      </trkpt>
      <trkpt lat="45.78962" lon="4.65343">
        <ele>514.8</ele>
        <time>2020-06-14T06:54:05.000Z</time>
      </trkpt>
      <trkpt lat="45.78961" lon="4.65341">
        <ele>514.8</ele>
        <time>2020-06-14T06:54:06.000Z</time>
      </trkpt>
      <trkpt lat="45.78961" lon="4.65339">
        <ele>515</ele>
        <time>2020-06-14T06:54:07.000Z</time>
      </trkpt>
      <trkpt lat="45.78959" lon="4.65338">
        <ele>515</ele>
        <time>2020-06-14T06:54:08.000Z</time>
      </trkpt>
      <trkpt lat="45.78959" lon="4.65336">
        <ele>515.2</ele>
        <time>2020-06-14T06:54:09.000Z</time>
      </trkpt>
      <trkpt lat="45.78958" lon="4.65334">
        <ele>515</ele>
        <time>2020-06-14T06:54:10.000Z</time>
      </trkpt>
      <trkpt lat="45.78957" lon="4.65332">
        <ele>515.2</ele>
        <time>2020-06-14T06:54:11.000Z</time>
      </trkpt>
      <trkpt lat="45.78956" lon="4.65331">
        <ele>515.4</ele>
        <time>2020-06-14T06:54:12.000Z</time>
      </trkpt>
      <trkpt lat="45.78955" lon="4.65329">
        <ele>515.4</ele>
        <time>2020-06-14T06:54:13.000Z</time>
      </trkpt>
      <trkpt lat="45.78954" lon="4.65328">
        <ele>515.2</ele>
        <time>2020-06-14T06:54:14.000Z</time>
      </trkpt>
      <trkpt lat="45.78953" lon="4.65327">
        <ele>515.2</ele>
        <time>2020-06-14T06:54:15.000Z</time>
      </trkpt>
      <trkpt lat="45.78952" lon="4.65325">
        <ele>515.4</ele>
        <time>2020-06-14T06:54:16.000Z</time>
      </trkpt>
      <trkpt lat="45.78952" lon="4.65323">
        <ele>515.4</ele>
        <time>2020-06-14T06:54:17.000Z</time>
      </trkpt>
      <trkpt lat="45.78951" lon="4.65321">
        <ele>515.4</ele>
        <time>2020-06-14T06:54:18.000Z</time>
      </trkpt>
      <trkpt lat="45.78951" lon="4.65319">
        <ele>515.4</ele>
        <time>2020-06-14T06:54:19.000Z</time>
      </trkpt>
      <trkpt lat="45.7895" lon="4.65317">
        <ele>515.6</ele>
        <time>2020-06-14T06:54:20.000Z</time>
      </trkpt>
      <trkpt lat="45.78949" lon="4.65315">
        <ele>515.8</ele>
        <time>2020-06-14T06:54:21.000Z</time>
      </trkpt>
      <trkpt lat="45.78949" lon="4.65313">
        <ele>515.8</ele>
        <time>2020-06-14T06:54:22.000Z</time>
      </trkpt>
      <trkpt lat="45.78948" lon="4.65312">
        <ele>516</ele>
        <time>2020-06-14T06:54:23.000Z</time>
      </trkpt>
      <trkpt lat="45.78948" lon="4.65309">
        <ele>516.2</ele>
        <time>2020-06-14T06:54:24.000Z</time>
      </trkpt>
      <trkpt lat="45.78947" lon="4.65307">
        <ele>516.2</ele>
        <time>2020-06-14T06:54:25.000Z</time>
      </trkpt>
      <trkpt lat="45.78947" lon="4.65305">
        <ele>516.4</ele>
        <time>2020-06-14T06:54:26.000Z</time>
      </trkpt>
      <trkpt lat="45.78947" lon="4.65303">
        <ele>516.6</ele>
        <time>2020-06-14T06:54:27.000Z</time>
      </trkpt>
      <trkpt lat="45.78946" lon="4.65301">
        <ele>516.6</ele>
        <time>2020-06-14T06:54:28.000Z</time>
      </trkpt>
      <trkpt lat="45.78944" lon="4.65297">
        <ele>517</ele>
        <time>2020-06-14T06:54:30.000Z</time>
      </trkpt>
      <trkpt lat="45.78943" lon="4.65295">
        <ele>517</ele>
        <time>2020-06-14T06:54:31.000Z</time>
      </trkpt>
      <trkpt lat="45.78942" lon="4.65292">
        <ele>517</ele>
        <time>2020-06-14T06:54:32.000Z</time>
      </trkpt>
      <trkpt lat="45.78938" lon="4.65285">
        <ele>517</ele>
        <time>2020-06-14T06:54:35.000Z</time>
      </trkpt>
      <trkpt lat="45.78934" lon="4.65277">
        <ele>517.2</ele>
        <time>2020-06-14T06:54:38.000Z</time>
      </trkpt>
      <trkpt lat="45.78932" lon="4.65275">
        <ele>517.4</ele>
        <time>2020-06-14T06:54:39.000Z</time>
      </trkpt>
      <trkpt lat="45.78932" lon="4.65273">
        <ele>517.4</ele>
        <time>2020-06-14T06:54:40.000Z</time>
      </trkpt>
      <trkpt lat="45.78931" lon="4.65271">
        <ele>517.6</ele>
        <time>2020-06-14T06:54:41.000Z</time>
      </trkpt>
      <trkpt lat="45.7893" lon="4.65269">
        <ele>517.8</ele>
        <time>2020-06-14T06:54:42.000Z</time>
      </trkpt>
      <trkpt lat="45.78929" lon="4.65267">
        <ele>517.8</ele>
        <time>2020-06-14T06:54:43.000Z</time>
      </trkpt>
      <trkpt lat="45.78928" lon="4.65265">
        <ele>517.8</ele>
        <time>2020-06-14T06:54:44.000Z</time>
      </trkpt>
      <trkpt lat="45.78927" lon="4.65263">
        <ele>517.8</ele>
        <time>2020-06-14T06:54:45.000Z</time>
      </trkpt>
      <trkpt lat="45.78924" lon="4.65257">
        <ele>518.2</ele>
        <time>2020-06-14T06:54:48.000Z</time>
      </trkpt>
      <trkpt lat="45.78924" lon="4.65256">
        <ele>518.4</ele>
        <time>2020-06-14T06:54:49.000Z</time>
      </trkpt>
      <trkpt lat="45.78923" lon="4.65254">
        <ele>518.6</ele>
        <time>2020-06-14T06:54:50.000Z</time>
      </trkpt>
      <trkpt lat="45.78922" lon="4.65252">
        <ele>518.8</ele>
        <time>2020-06-14T06:54:51.000Z</time>
      </trkpt>
      <trkpt lat="45.78921" lon="4.65251">
        <ele>519</ele>
        <time>2020-06-14T06:54:52.000Z</time>
      </trkpt>
      <trkpt lat="45.7892" lon="4.65249">
        <ele>518.8</ele>
        <time>2020-06-14T06:54:53.000Z</time>
      </trkpt>
      <trkpt lat="45.78919" lon="4.65248">
        <ele>518.8</ele>
        <time>2020-06-14T06:54:54.000Z</time>
      </trkpt>
      <trkpt lat="45.78916" lon="4.65244">
        <ele>519.2</ele>
        <time>2020-06-14T06:54:56.000Z</time>
      </trkpt>
      <trkpt lat="45.78914" lon="4.6524">
        <ele>519.4</ele>
        <time>2020-06-14T06:54:58.000Z</time>
      </trkpt>
      <trkpt lat="45.78913" lon="4.65238">
        <ele>519.6</ele>
        <time>2020-06-14T06:54:59.000Z</time>
      </trkpt>
      <trkpt lat="45.78913" lon="4.65237">
        <ele>519.6</ele>
        <time>2020-06-14T06:55:00.000Z</time>
      </trkpt>
      <trkpt lat="45.78912" lon="4.65235">
        <ele>519.8</ele>
        <time>2020-06-14T06:55:01.000Z</time>
      </trkpt>
      <trkpt lat="45.78912" lon="4.65234">
        <ele>519.8</ele>
        <time>2020-06-14T06:55:02.000Z</time>
      </trkpt>
      <trkpt lat="45.78912" lon="4.65234">
        <ele>520</ele>
        <time>2020-06-14T06:55:03.000Z</time>
      </trkpt>
      <trkpt lat="45.78912" lon="4.65233">
        <ele>519.8</ele>
        <time>2020-06-14T06:55:04.000Z</time>
      </trkpt>
      <trkpt lat="45.78912" lon="4.65232">
        <ele>519.8</ele>
        <time>2020-06-14T06:55:05.000Z</time>
      </trkpt>
      <trkpt lat="45.78912" lon="4.65231">
        <ele>520.2</ele>
        <time>2020-06-14T06:55:06.000Z</time>
      </trkpt>
      <trkpt lat="45.78911" lon="4.65229">
        <ele>520.4</ele>
        <time>2020-06-14T06:55:08.000Z</time>
      </trkpt>
      <trkpt lat="45.78911" lon="4.65227">
        <ele>520.4</ele>
        <time>2020-06-14T06:55:09.000Z</time>
      </trkpt>
      <trkpt lat="45.7891" lon="4.65225">
        <ele>520.6</ele>
        <time>2020-06-14T06:55:10.000Z</time>
      </trkpt>
      <trkpt lat="45.78909" lon="4.65223">
        <ele>520.8</ele>
        <time>2020-06-14T06:55:11.000Z</time>
      </trkpt>
      <trkpt lat="45.78908" lon="4.65222">
        <ele>521</ele>
        <time>2020-06-14T06:55:12.000Z</time>
      </trkpt>
      <trkpt lat="45.78907" lon="4.6522">
        <ele>521</ele>
        <time>2020-06-14T06:55:13.000Z</time>
      </trkpt>
      <trkpt lat="45.78906" lon="4.65218">
        <ele>521.2</ele>
        <time>2020-06-14T06:55:14.000Z</time>
      </trkpt>
      <trkpt lat="45.78906" lon="4.65216">
        <ele>521.2</ele>
        <time>2020-06-14T06:55:15.000Z</time>
      </trkpt>
      <trkpt lat="45.78905" lon="4.65214">
        <ele>521.2</ele>
        <time>2020-06-14T06:55:16.000Z</time>
      </trkpt>
      <trkpt lat="45.78905" lon="4.65211">
        <ele>521.4</ele>
        <time>2020-06-14T06:55:17.000Z</time>
      </trkpt>
      <trkpt lat="45.78903" lon="4.65209">
        <ele>521.4</ele>
        <time>2020-06-14T06:55:18.000Z</time>
      </trkpt>
      <trkpt lat="45.78902" lon="4.65208">
        <ele>521.6</ele>
        <time>2020-06-14T06:55:19.000Z</time>
      </trkpt>
      <trkpt lat="45.789" lon="4.65207">
        <ele>521.6</ele>
        <time>2020-06-14T06:55:20.000Z</time>
      </trkpt>
      <trkpt lat="45.78899" lon="4.65205">
        <ele>522</ele>
        <time>2020-06-14T06:55:21.000Z</time>
      </trkpt>
      <trkpt lat="45.78898" lon="4.65204">
        <ele>522.2</ele>
        <time>2020-06-14T06:55:22.000Z</time>
      </trkpt>
      <trkpt lat="45.78898" lon="4.65203">
        <ele>522.4</ele>
        <time>2020-06-14T06:55:23.000Z</time>
      </trkpt>
      <trkpt lat="45.78896" lon="4.65202">
        <ele>522.6</ele>
        <time>2020-06-14T06:55:24.000Z</time>
      </trkpt>
      <trkpt lat="45.78894" lon="4.652">
        <ele>522.8</ele>
        <time>2020-06-14T06:55:25.000Z</time>
      </trkpt>
      <trkpt lat="45.78892" lon="4.65198">
        <ele>523.6</ele>
        <time>2020-06-14T06:55:26.000Z</time>
      </trkpt>
      <trkpt lat="45.7889" lon="4.65197">
        <ele>523.6</ele>
        <time>2020-06-14T06:55:27.000Z</time>
      </trkpt>
      <trkpt lat="45.78889" lon="4.65196">
        <ele>523.8</ele>
        <time>2020-06-14T06:55:28.000Z</time>
      </trkpt>
      <trkpt lat="45.78887" lon="4.65194">
        <ele>524.2</ele>
        <time>2020-06-14T06:55:29.000Z</time>
      </trkpt>
      <trkpt lat="45.78885" lon="4.65193">
        <ele>524.4</ele>
        <time>2020-06-14T06:55:30.000Z</time>
      </trkpt>
      <trkpt lat="45.78884" lon="4.65192">
        <ele>524.4</ele>
        <time>2020-06-14T06:55:31.000Z</time>
      </trkpt>
      <trkpt lat="45.78884" lon="4.6519">
        <ele>524.8</ele>
        <time>2020-06-14T06:55:32.000Z</time>
      </trkpt>
      <trkpt lat="45.78883" lon="4.65189">
        <ele>525</ele>
        <time>2020-06-14T06:55:33.000Z</time>
      </trkpt>
      <trkpt lat="45.78883" lon="4.65188">
        <ele>525</ele>
        <time>2020-06-14T06:55:34.000Z</time>
      </trkpt>
      <trkpt lat="45.78882" lon="4.65187">
        <ele>525</ele>
        <time>2020-06-14T06:55:35.000Z</time>
      </trkpt>
      <trkpt lat="45.7888" lon="4.65186">
        <ele>525.2</ele>
        <time>2020-06-14T06:55:36.000Z</time>
      </trkpt>
      <trkpt lat="45.78879" lon="4.65186">
        <ele>525.4</ele>
        <time>2020-06-14T06:55:37.000Z</time>
      </trkpt>
      <trkpt lat="45.78878" lon="4.65185">
        <ele>525.6</ele>
        <time>2020-06-14T06:55:38.000Z</time>
      </trkpt>
      <trkpt lat="45.78876" lon="4.65184">
        <ele>526</ele>
        <time>2020-06-14T06:55:39.000Z</time>
      </trkpt>
      <trkpt lat="45.78875" lon="4.65183">
        <ele>526.2</ele>
        <time>2020-06-14T06:55:40.000Z</time>
      </trkpt>
      <trkpt lat="45.78875" lon="4.65182">
        <ele>526.6</ele>
        <time>2020-06-14T06:55:41.000Z</time>
      </trkpt>
      <trkpt lat="45.78874" lon="4.65181">
        <ele>526.8</ele>
        <time>2020-06-14T06:55:42.000Z</time>
      </trkpt>
      <trkpt lat="45.78873" lon="4.65179">
        <ele>527</ele>
        <time>2020-06-14T06:55:43.000Z</time>
      </trkpt>
      <trkpt lat="45.78872" lon="4.65178">
        <ele>527.2</ele>
        <time>2020-06-14T06:55:44.000Z</time>
      </trkpt>
      <trkpt lat="45.7887" lon="4.65177">
        <ele>527.4</ele>
        <time>2020-06-14T06:55:45.000Z</time>
      </trkpt>
      <trkpt lat="45.78868" lon="4.65177">
        <ele>527.6</ele>
        <time>2020-06-14T06:55:46.000Z</time>
      </trkpt>
      <trkpt lat="45.78867" lon="4.65176">
        <ele>528</ele>
        <time>2020-06-14T06:55:47.000Z</time>
      </trkpt>
      <trkpt lat="45.78865" lon="4.65175">
        <ele>528.2</ele>
        <time>2020-06-14T06:55:48.000Z</time>
      </trkpt>
      <trkpt lat="45.78863" lon="4.65174">
        <ele>528.2</ele>
        <time>2020-06-14T06:55:49.000Z</time>
      </trkpt>
      <trkpt lat="45.78861" lon="4.65172">
        <ele>528.6</ele>
        <time>2020-06-14T06:55:50.000Z</time>
      </trkpt>
      <trkpt lat="45.78859" lon="4.65171">
        <ele>529</ele>
        <time>2020-06-14T06:55:51.000Z</time>
      </trkpt>
      <trkpt lat="45.78857" lon="4.6517">
        <ele>529.2</ele>
        <time>2020-06-14T06:55:52.000Z</time>
      </trkpt>
      <trkpt lat="45.78855" lon="4.65169">
        <ele>529.4</ele>
        <time>2020-06-14T06:55:53.000Z</time>
      </trkpt>
      <trkpt lat="45.78853" lon="4.65167">
        <ele>529.8</ele>
        <time>2020-06-14T06:55:54.000Z</time>
      </trkpt>
      <trkpt lat="45.78852" lon="4.65166">
        <ele>530</ele>
        <time>2020-06-14T06:55:55.000Z</time>
      </trkpt>
      <trkpt lat="45.78851" lon="4.65165">
        <ele>530</ele>
        <time>2020-06-14T06:55:56.000Z</time>
      </trkpt>
      <trkpt lat="45.78849" lon="4.65164">
        <ele>530.4</ele>
        <time>2020-06-14T06:55:57.000Z</time>
      </trkpt>
      <trkpt lat="45.78848" lon="4.65163">
        <ele>530.6</ele>
        <time>2020-06-14T06:55:58.000Z</time>
      </trkpt>
      <trkpt lat="45.78847" lon="4.65162">
        <ele>530.6</ele>
        <time>2020-06-14T06:55:59.000Z</time>
      </trkpt>
      <trkpt lat="45.78846" lon="4.65161">
        <ele>530.6</ele>
        <time>2020-06-14T06:56:00.000Z</time>
      </trkpt>
      <trkpt lat="45.78846" lon="4.6516">
        <ele>530.8</ele>
        <time>2020-06-14T06:56:01.000Z</time>
      </trkpt>
      <trkpt lat="45.78845" lon="4.65158">
        <ele>531.2</ele>
        <time>2020-06-14T06:56:02.000Z</time>
      </trkpt>
      <trkpt lat="45.78844" lon="4.65157">
        <ele>531.6</ele>
        <time>2020-06-14T06:56:03.000Z</time>
      </trkpt>
      <trkpt lat="45.78843" lon="4.65156">
        <ele>531.8</ele>
        <time>2020-06-14T06:56:04.000Z</time>
      </trkpt>
      <trkpt lat="45.78842" lon="4.65154">
        <ele>532</ele>
        <time>2020-06-14T06:56:05.000Z</time>
      </trkpt>
      <trkpt lat="45.78841" lon="4.65153">
        <ele>532.2</ele>
        <time>2020-06-14T06:56:06.000Z</time>
      </trkpt>
      <trkpt lat="45.7884" lon="4.65153">
        <ele>532.8</ele>
        <time>2020-06-14T06:56:07.000Z</time>
      </trkpt>
      <trkpt lat="45.78835" lon="4.6515">
        <ele>534.8</ele>
        <time>2020-06-14T06:56:13.000Z</time>
      </trkpt>
      <trkpt lat="45.78834" lon="4.65149">
        <ele>535</ele>
        <time>2020-06-14T06:56:14.000Z</time>
      </trkpt>
      <trkpt lat="45.78833" lon="4.65149">
        <ele>535.4</ele>
        <time>2020-06-14T06:56:15.000Z</time>
      </trkpt>
      <trkpt lat="45.78832" lon="4.65148">
        <ele>535.6</ele>
        <time>2020-06-14T06:56:16.000Z</time>
      </trkpt>
      <trkpt lat="45.78831" lon="4.65147">
        <ele>535.6</ele>
        <time>2020-06-14T06:56:17.000Z</time>
      </trkpt>
      <trkpt lat="45.78829" lon="4.65147">
        <ele>535.6</ele>
        <time>2020-06-14T06:56:18.000Z</time>
      </trkpt>
      <trkpt lat="45.78828" lon="4.65147">
        <ele>535.8</ele>
        <time>2020-06-14T06:56:19.000Z</time>
      </trkpt>
      <trkpt lat="45.78827" lon="4.65146">
        <ele>535.8</ele>
        <time>2020-06-14T06:56:20.000Z</time>
      </trkpt>
      <trkpt lat="45.78826" lon="4.65145">
        <ele>536</ele>
        <time>2020-06-14T06:56:21.000Z</time>
      </trkpt>
      <trkpt lat="45.78825" lon="4.65144">
        <ele>536.2</ele>
        <time>2020-06-14T06:56:22.000Z</time>
      </trkpt>
      <trkpt lat="45.78824" lon="4.65143">
        <ele>536.2</ele>
        <time>2020-06-14T06:56:23.000Z</time>
      </trkpt>
      <trkpt lat="45.78823" lon="4.65142">
        <ele>536.4</ele>
        <time>2020-06-14T06:56:24.000Z</time>
      </trkpt>
      <trkpt lat="45.78821" lon="4.65141">
        <ele>536.4</ele>
        <time>2020-06-14T06:56:25.000Z</time>
      </trkpt>
      <trkpt lat="45.7882" lon="4.65141">
        <ele>536.6</ele>
        <time>2020-06-14T06:56:26.000Z</time>
      </trkpt>
      <trkpt lat="45.78819" lon="4.6514">
        <ele>536.6</ele>
        <time>2020-06-14T06:56:27.000Z</time>
      </trkpt>
      <trkpt lat="45.78819" lon="4.65139">
        <ele>536.8</ele>
        <time>2020-06-14T06:56:28.000Z</time>
      </trkpt>
      <trkpt lat="45.78818" lon="4.65137">
        <ele>536.8</ele>
        <time>2020-06-14T06:56:29.000Z</time>
      </trkpt>
      <trkpt lat="45.78817" lon="4.65136">
        <ele>536.8</ele>
        <time>2020-06-14T06:56:30.000Z</time>
      </trkpt>
      <trkpt lat="45.78816" lon="4.65134">
        <ele>537.2</ele>
        <time>2020-06-14T06:56:31.000Z</time>
      </trkpt>
      <trkpt lat="45.78815" lon="4.65134">
        <ele>537.2</ele>
        <time>2020-06-14T06:56:32.000Z</time>
      </trkpt>
      <trkpt lat="45.78814" lon="4.65133">
        <ele>537.4</ele>
        <time>2020-06-14T06:56:33.000Z</time>
      </trkpt>
      <trkpt lat="45.78814" lon="4.65132">
        <ele>537.8</ele>
        <time>2020-06-14T06:56:34.000Z</time>
      </trkpt>
      <trkpt lat="45.78813" lon="4.65132">
        <ele>537.8</ele>
        <time>2020-06-14T06:56:35.000Z</time>
      </trkpt>
      <trkpt lat="45.78812" lon="4.65131">
        <ele>538</ele>
        <time>2020-06-14T06:56:36.000Z</time>
      </trkpt>
      <trkpt lat="45.78812" lon="4.6513">
        <ele>538.2</ele>
        <time>2020-06-14T06:56:37.000Z</time>
      </trkpt>
      <trkpt lat="45.78812" lon="4.65129">
        <ele>538.4</ele>
        <time>2020-06-14T06:56:38.000Z</time>
      </trkpt>
      <trkpt lat="45.78811" lon="4.65127">
        <ele>538.4</ele>
        <time>2020-06-14T06:56:39.000Z</time>
      </trkpt>
      <trkpt lat="45.7881" lon="4.65125">
        <ele>538.6</ele>
        <time>2020-06-14T06:56:40.000Z</time>
      </trkpt>
      <trkpt lat="45.7881" lon="4.65124">
        <ele>538.8</ele>
        <time>2020-06-14T06:56:41.000Z</time>
      </trkpt>
      <trkpt lat="45.78809" lon="4.65122">
        <ele>539.4</ele>
        <time>2020-06-14T06:56:42.000Z</time>
      </trkpt>
      <trkpt lat="45.78809" lon="4.65121">
        <ele>539.8</ele>
        <time>2020-06-14T06:56:43.000Z</time>
      </trkpt>
      <trkpt lat="45.78809" lon="4.65119">
        <ele>540</ele>
        <time>2020-06-14T06:56:44.000Z</time>
      </trkpt>
      <trkpt lat="45.78808" lon="4.65118">
        <ele>540.2</ele>
        <time>2020-06-14T06:56:45.000Z</time>
      </trkpt>
      <trkpt lat="45.78808" lon="4.65117">
        <ele>540.6</ele>
        <time>2020-06-14T06:56:46.000Z</time>
      </trkpt>
      <trkpt lat="45.78808" lon="4.65116">
        <ele>540.6</ele>
        <time>2020-06-14T06:56:47.000Z</time>
      </trkpt>
      <trkpt lat="45.78807" lon="4.65115">
        <ele>541</ele>
        <time>2020-06-14T06:56:48.000Z</time>
      </trkpt>
      <trkpt lat="45.78806" lon="4.65114">
        <ele>541.2</ele>
        <time>2020-06-14T06:56:49.000Z</time>
      </trkpt>
      <trkpt lat="45.78805" lon="4.65112">
        <ele>541.4</ele>
        <time>2020-06-14T06:56:50.000Z</time>
      </trkpt>
      <trkpt lat="45.78805" lon="4.65111">
        <ele>541.8</ele>
        <time>2020-06-14T06:56:51.000Z</time>
      </trkpt>
      <trkpt lat="45.78804" lon="4.6511">
        <ele>542</ele>
        <time>2020-06-14T06:56:52.000Z</time>
      </trkpt>
      <trkpt lat="45.78803" lon="4.65109">
        <ele>542.4</ele>
        <time>2020-06-14T06:56:53.000Z</time>
      </trkpt>
      <trkpt lat="45.78803" lon="4.65108">
        <ele>542.4</ele>
        <time>2020-06-14T06:56:54.000Z</time>
      </trkpt>
      <trkpt lat="45.78802" lon="4.65106">
        <ele>542.8</ele>
        <time>2020-06-14T06:56:55.000Z</time>
      </trkpt>
      <trkpt lat="45.78802" lon="4.65105">
        <ele>543.2</ele>
        <time>2020-06-14T06:56:56.000Z</time>
      </trkpt>
      <trkpt lat="45.78796" lon="4.65092">
        <ele>545.8</ele>
        <time>2020-06-14T06:57:08.000Z</time>
      </trkpt>
      <trkpt lat="45.78796" lon="4.65091">
        <ele>545.8</ele>
        <time>2020-06-14T06:57:09.000Z</time>
      </trkpt>
      <trkpt lat="45.78795" lon="4.65089">
        <ele>546</ele>
        <time>2020-06-14T06:57:10.000Z</time>
      </trkpt>
      <trkpt lat="45.78795" lon="4.65088">
        <ele>545.8</ele>
        <time>2020-06-14T06:57:11.000Z</time>
      </trkpt>
      <trkpt lat="45.78794" lon="4.65087">
        <ele>546</ele>
        <time>2020-06-14T06:57:12.000Z</time>
      </trkpt>
      <trkpt lat="45.78793" lon="4.65086">
        <ele>546</ele>
        <time>2020-06-14T06:57:13.000Z</time>
      </trkpt>
      <trkpt lat="45.78792" lon="4.65084">
        <ele>546.2</ele>
        <time>2020-06-14T06:57:14.000Z</time>
      </trkpt>
      <trkpt lat="45.78791" lon="4.65083">
        <ele>546.2</ele>
        <time>2020-06-14T06:57:15.000Z</time>
      </trkpt>
      <trkpt lat="45.7879" lon="4.65082">
        <ele>546.2</ele>
        <time>2020-06-14T06:57:16.000Z</time>
      </trkpt>
      <trkpt lat="45.7879" lon="4.65081">
        <ele>546.2</ele>
        <time>2020-06-14T06:57:17.000Z</time>
      </trkpt>
      <trkpt lat="45.78789" lon="4.6508">
        <ele>546.6</ele>
        <time>2020-06-14T06:57:18.000Z</time>
      </trkpt>
      <trkpt lat="45.78788" lon="4.65079">
        <ele>547</ele>
        <time>2020-06-14T06:57:19.000Z</time>
      </trkpt>
      <trkpt lat="45.78787" lon="4.65077">
        <ele>547.6</ele>
        <time>2020-06-14T06:57:20.000Z</time>
      </trkpt>
      <trkpt lat="45.78787" lon="4.65075">
        <ele>547.8</ele>
        <time>2020-06-14T06:57:21.000Z</time>
      </trkpt>
      <trkpt lat="45.78786" lon="4.65073">
        <ele>548</ele>
        <time>2020-06-14T06:57:22.000Z</time>
      </trkpt>
      <trkpt lat="45.78785" lon="4.65072">
        <ele>548.2</ele>
        <time>2020-06-14T06:57:23.000Z</time>
      </trkpt>
      <trkpt lat="45.78785" lon="4.65071">
        <ele>548.8</ele>
        <time>2020-06-14T06:57:24.000Z</time>
      </trkpt>
      <trkpt lat="45.78784" lon="4.65069">
        <ele>549.2</ele>
        <time>2020-06-14T06:57:25.000Z</time>
      </trkpt>
      <trkpt lat="45.78783" lon="4.65067">
        <ele>549.4</ele>
        <time>2020-06-14T06:57:26.000Z</time>
      </trkpt>
      <trkpt lat="45.78782" lon="4.65066">
        <ele>549.4</ele>
        <time>2020-06-14T06:57:27.000Z</time>
      </trkpt>
      <trkpt lat="45.78782" lon="4.65064">
        <ele>549.4</ele>
        <time>2020-06-14T06:57:28.000Z</time>
      </trkpt>
      <trkpt lat="45.78781" lon="4.65063">
        <ele>549.6</ele>
        <time>2020-06-14T06:57:29.000Z</time>
      </trkpt>
      <trkpt lat="45.78781" lon="4.65062">
        <ele>550</ele>
        <time>2020-06-14T06:57:30.000Z</time>
      </trkpt>
      <trkpt lat="45.7878" lon="4.65061">
        <ele>550.6</ele>
        <time>2020-06-14T06:57:31.000Z</time>
      </trkpt>
      <trkpt lat="45.78779" lon="4.6506">
        <ele>551</ele>
        <time>2020-06-14T06:57:32.000Z</time>
      </trkpt>
      <trkpt lat="45.78778" lon="4.65058">
        <ele>551</ele>
        <time>2020-06-14T06:57:33.000Z</time>
      </trkpt>
      <trkpt lat="45.78777" lon="4.65057">
        <ele>551.2</ele>
        <time>2020-06-14T06:57:34.000Z</time>
      </trkpt>
      <trkpt lat="45.78776" lon="4.65056">
        <ele>551.4</ele>
        <time>2020-06-14T06:57:35.000Z</time>
      </trkpt>
      <trkpt lat="45.78775" lon="4.65056">
        <ele>551.6</ele>
        <time>2020-06-14T06:57:36.000Z</time>
      </trkpt>
      <trkpt lat="45.78774" lon="4.65055">
        <ele>551.8</ele>
        <time>2020-06-14T06:57:37.000Z</time>
      </trkpt>
      <trkpt lat="45.78773" lon="4.65054">
        <ele>551.8</ele>
        <time>2020-06-14T06:57:38.000Z</time>
      </trkpt>
      <trkpt lat="45.78767" lon="4.6505">
        <ele>552.8</ele>
        <time>2020-06-14T06:57:43.000Z</time>
      </trkpt>
      <trkpt lat="45.78765" lon="4.65049">
        <ele>553</ele>
        <time>2020-06-14T06:57:44.000Z</time>
      </trkpt>
      <trkpt lat="45.78764" lon="4.65049">
        <ele>553</ele>
        <time>2020-06-14T06:57:45.000Z</time>
      </trkpt>
      <trkpt lat="45.78762" lon="4.65048">
        <ele>553.2</ele>
        <time>2020-06-14T06:57:46.000Z</time>
      </trkpt>
      <trkpt lat="45.78757" lon="4.65045">
        <ele>553.4</ele>
        <time>2020-06-14T06:57:48.000Z</time>
      </trkpt>
      <trkpt lat="45.78756" lon="4.65044">
        <ele>553.6</ele>
        <time>2020-06-14T06:57:49.000Z</time>
      </trkpt>
      <trkpt lat="45.78755" lon="4.65044">
        <ele>553.6</ele>
        <time>2020-06-14T06:57:50.000Z</time>
      </trkpt>
      <trkpt lat="45.78754" lon="4.65043">
        <ele>553.6</ele>
        <time>2020-06-14T06:57:51.000Z</time>
      </trkpt>
      <trkpt lat="45.78753" lon="4.65042">
        <ele>553.6</ele>
        <time>2020-06-14T06:57:52.000Z</time>
      </trkpt>
      <trkpt lat="45.78751" lon="4.65041">
        <ele>554</ele>
        <time>2020-06-14T06:57:53.000Z</time>
      </trkpt>
      <trkpt lat="45.7875" lon="4.6504">
        <ele>553.8</ele>
        <time>2020-06-14T06:57:54.000Z</time>
      </trkpt>
      <trkpt lat="45.78749" lon="4.65039">
        <ele>554</ele>
        <time>2020-06-14T06:57:55.000Z</time>
      </trkpt>
      <trkpt lat="45.78748" lon="4.65038">
        <ele>554</ele>
        <time>2020-06-14T06:57:56.000Z</time>
      </trkpt>
      <trkpt lat="45.78748" lon="4.65037">
        <ele>554</ele>
        <time>2020-06-14T06:57:57.000Z</time>
      </trkpt>
      <trkpt lat="45.78747" lon="4.65036">
        <ele>554.2</ele>
        <time>2020-06-14T06:57:58.000Z</time>
      </trkpt>
      <trkpt lat="45.78746" lon="4.65035">
        <ele>554.2</ele>
        <time>2020-06-14T06:57:59.000Z</time>
      </trkpt>
      <trkpt lat="45.78745" lon="4.65034">
        <ele>554.4</ele>
        <time>2020-06-14T06:58:01.000Z</time>
      </trkpt>
      <trkpt lat="45.78745" lon="4.65033">
        <ele>554.6</ele>
        <time>2020-06-14T06:58:02.000Z</time>
      </trkpt>
      <trkpt lat="45.78744" lon="4.65032">
        <ele>554.8</ele>
        <time>2020-06-14T06:58:03.000Z</time>
      </trkpt>
      <trkpt lat="45.78743" lon="4.65031">
        <ele>554.8</ele>
        <time>2020-06-14T06:58:04.000Z</time>
      </trkpt>
      <trkpt lat="45.78735" lon="4.65028">
        <ele>556.4</ele>
        <time>2020-06-14T06:58:21.000Z</time>
      </trkpt>
      <trkpt lat="45.78734" lon="4.65028">
        <ele>556.4</ele>
        <time>2020-06-14T06:58:22.000Z</time>
      </trkpt>
      <trkpt lat="45.78725" lon="4.65024">
        <ele>558.2</ele>
        <time>2020-06-14T06:58:35.000Z</time>
      </trkpt>
      <trkpt lat="45.78724" lon="4.65024">
        <ele>558.4</ele>
        <time>2020-06-14T06:58:36.000Z</time>
      </trkpt>
      <trkpt lat="45.78723" lon="4.65023">
        <ele>558.6</ele>
        <time>2020-06-14T06:58:37.000Z</time>
      </trkpt>
      <trkpt lat="45.7872" lon="4.65022">
        <ele>559.2</ele>
        <time>2020-06-14T06:58:41.000Z</time>
      </trkpt>
      <trkpt lat="45.78719" lon="4.65023">
        <ele>559.4</ele>
        <time>2020-06-14T06:58:42.000Z</time>
      </trkpt>
      <trkpt lat="45.78718" lon="4.65023">
        <ele>559.8</ele>
        <time>2020-06-14T06:58:43.000Z</time>
      </trkpt>
      <trkpt lat="45.78717" lon="4.65023">
        <ele>560</ele>
        <time>2020-06-14T06:58:44.000Z</time>
      </trkpt>
      <trkpt lat="45.78717" lon="4.65023">
        <ele>560.2</ele>
        <time>2020-06-14T06:58:45.000Z</time>
      </trkpt>
      <trkpt lat="45.78716" lon="4.65023">
        <ele>560.4</ele>
        <time>2020-06-14T06:58:46.000Z</time>
      </trkpt>
      <trkpt lat="45.78715" lon="4.65024">
        <ele>560.4</ele>
        <time>2020-06-14T06:58:47.000Z</time>
      </trkpt>
      <trkpt lat="45.78715" lon="4.65024">
        <ele>560.6</ele>
        <time>2020-06-14T06:58:48.000Z</time>
      </trkpt>
      <trkpt lat="45.78703" lon="4.65027">
        <ele>564.2</ele>
        <time>2020-06-14T07:00:16.000Z</time>
      </trkpt>
      <trkpt lat="45.78702" lon="4.65027">
        <ele>561.4</ele>
        <time>2020-06-14T07:00:17.000Z</time>
      </trkpt>
      <trkpt lat="45.78698" lon="4.65027">
        <ele>561.4</ele>
        <time>2020-06-14T07:00:28.000Z</time>
      </trkpt>
      <trkpt lat="45.78696" lon="4.65028">
        <ele>561.4</ele>
        <time>2020-06-14T07:00:29.000Z</time>
      </trkpt>
      <trkpt lat="45.78693" lon="4.65028">
        <ele>561.4</ele>
        <time>2020-06-14T07:00:31.000Z</time>
      </trkpt>
      <trkpt lat="45.78691" lon="4.65028">
        <ele>561.4</ele>
        <time>2020-06-14T07:00:32.000Z</time>
      </trkpt>
      <trkpt lat="45.7869" lon="4.65028">
        <ele>561.4</ele>
        <time>2020-06-14T07:00:33.000Z</time>
      </trkpt>
      <trkpt lat="45.78688" lon="4.65028">
        <ele>561.4</ele>
        <time>2020-06-14T07:00:34.000Z</time>
      </trkpt>
      <trkpt lat="45.78685" lon="4.65028">
        <ele>561.6</ele>
        <time>2020-06-14T07:00:36.000Z</time>
      </trkpt>
      <trkpt lat="45.7868" lon="4.65027">
        <ele>561.6</ele>
        <time>2020-06-14T07:00:39.000Z</time>
      </trkpt>
      <trkpt lat="45.78678" lon="4.65027">
        <ele>561.6</ele>
        <time>2020-06-14T07:00:40.000Z</time>
      </trkpt>
      <trkpt lat="45.78676" lon="4.65026">
        <ele>561.6</ele>
        <time>2020-06-14T07:00:41.000Z</time>
      </trkpt>
      <trkpt lat="45.78675" lon="4.65026">
        <ele>561.6</ele>
        <time>2020-06-14T07:00:42.000Z</time>
      </trkpt>
      <trkpt lat="45.78673" lon="4.65027">
        <ele>561.6</ele>
        <time>2020-06-14T07:00:43.000Z</time>
      </trkpt>
      <trkpt lat="45.78672" lon="4.65026">
        <ele>561.6</ele>
        <time>2020-06-14T07:00:44.000Z</time>
      </trkpt>
      <trkpt lat="45.78666" lon="4.65026">
        <ele>561.6</ele>
        <time>2020-06-14T07:00:47.000Z</time>
      </trkpt>
      <trkpt lat="45.78664" lon="4.65026">
        <ele>561.6</ele>
        <time>2020-06-14T07:00:48.000Z</time>
      </trkpt>
      <trkpt lat="45.78658" lon="4.65025">
        <ele>561.6</ele>
        <time>2020-06-14T07:00:51.000Z</time>
      </trkpt>
      <trkpt lat="45.78656" lon="4.65025">
        <ele>561.8</ele>
        <time>2020-06-14T07:00:52.000Z</time>
      </trkpt>
      <trkpt lat="45.78653" lon="4.65025">
        <ele>561.8</ele>
        <time>2020-06-14T07:00:53.000Z</time>
      </trkpt>
      <trkpt lat="45.78649" lon="4.65024">
        <ele>561.8</ele>
        <time>2020-06-14T07:00:55.000Z</time>
      </trkpt>
      <trkpt lat="45.78644" lon="4.65023">
        <ele>561.8</ele>
        <time>2020-06-14T07:00:57.000Z</time>
      </trkpt>
      <trkpt lat="45.78639" lon="4.65022">
        <ele>562</ele>
        <time>2020-06-14T07:00:59.000Z</time>
      </trkpt>
      <trkpt lat="45.78636" lon="4.65021">
        <ele>562.2</ele>
        <time>2020-06-14T07:01:00.000Z</time>
      </trkpt>
      <trkpt lat="45.78633" lon="4.65021">
        <ele>562.2</ele>
        <time>2020-06-14T07:01:01.000Z</time>
      </trkpt>
      <trkpt lat="45.78631" lon="4.6502">
        <ele>562.4</ele>
        <time>2020-06-14T07:01:02.000Z</time>
      </trkpt>
      <trkpt lat="45.78622" lon="4.65017">
        <ele>562.4</ele>
        <time>2020-06-14T07:01:06.000Z</time>
      </trkpt>
      <trkpt lat="45.7862" lon="4.65016">
        <ele>562.4</ele>
        <time>2020-06-14T07:01:07.000Z</time>
      </trkpt>
      <trkpt lat="45.78619" lon="4.65015">
        <ele>562.4</ele>
        <time>2020-06-14T07:01:08.000Z</time>
      </trkpt>
      <trkpt lat="45.78617" lon="4.65014">
        <ele>562.6</ele>
        <time>2020-06-14T07:01:09.000Z</time>
      </trkpt>
      <trkpt lat="45.78616" lon="4.65012">
        <ele>562.6</ele>
        <time>2020-06-14T07:01:10.000Z</time>
      </trkpt>
      <trkpt lat="45.78614" lon="4.65011">
        <ele>562.6</ele>
        <time>2020-06-14T07:01:11.000Z</time>
      </trkpt>
      <trkpt lat="45.78613" lon="4.6501">
        <ele>562.6</ele>
        <time>2020-06-14T07:01:12.000Z</time>
      </trkpt>
      <trkpt lat="45.78611" lon="4.65009">
        <ele>562.8</ele>
        <time>2020-06-14T07:01:13.000Z</time>
      </trkpt>
      <trkpt lat="45.7861" lon="4.65008">
        <ele>562.8</ele>
        <time>2020-06-14T07:01:14.000Z</time>
      </trkpt>
      <trkpt lat="45.78608" lon="4.65007">
        <ele>562.8</ele>
        <time>2020-06-14T07:01:15.000Z</time>
      </trkpt>
      <trkpt lat="45.78607" lon="4.65006">
        <ele>562.8</ele>
        <time>2020-06-14T07:01:16.000Z</time>
      </trkpt>
      <trkpt lat="45.78606" lon="4.65006">
        <ele>562.8</ele>
        <time>2020-06-14T07:01:17.000Z</time>
      </trkpt>
      <trkpt lat="45.78605" lon="4.65005">
        <ele>563</ele>
        <time>2020-06-14T07:01:18.000Z</time>
      </trkpt>
      <trkpt lat="45.78604" lon="4.65004">
        <ele>563.2</ele>
        <time>2020-06-14T07:01:19.000Z</time>
      </trkpt>
      <trkpt lat="45.78603" lon="4.65003">
        <ele>563.4</ele>
        <time>2020-06-14T07:01:20.000Z</time>
      </trkpt>
      <trkpt lat="45.78602" lon="4.65002">
        <ele>563.4</ele>
        <time>2020-06-14T07:01:21.000Z</time>
      </trkpt>
      <trkpt lat="45.78601" lon="4.65001">
        <ele>563.4</ele>
        <time>2020-06-14T07:01:22.000Z</time>
      </trkpt>
      <trkpt lat="45.786" lon="4.65">
        <ele>563.4</ele>
        <time>2020-06-14T07:01:23.000Z</time>
      </trkpt>
      <trkpt lat="45.78599" lon="4.65">
        <ele>563.6</ele>
        <time>2020-06-14T07:01:24.000Z</time>
      </trkpt>
      <trkpt lat="45.78598" lon="4.64999">
        <ele>563.6</ele>
        <time>2020-06-14T07:01:25.000Z</time>
      </trkpt>
      <trkpt lat="45.78597" lon="4.64998">
        <ele>564</ele>
        <time>2020-06-14T07:01:26.000Z</time>
      </trkpt>
      <trkpt lat="45.78594" lon="4.64996">
        <ele>564</ele>
        <time>2020-06-14T07:01:28.000Z</time>
      </trkpt>
      <trkpt lat="45.78593" lon="4.64995">
        <ele>564</ele>
        <time>2020-06-14T07:01:29.000Z</time>
      </trkpt>
      <trkpt lat="45.78591" lon="4.64995">
        <ele>564.4</ele>
        <time>2020-06-14T07:01:30.000Z</time>
      </trkpt>
      <trkpt lat="45.7859" lon="4.64995">
        <ele>564.4</ele>
        <time>2020-06-14T07:01:31.000Z</time>
      </trkpt>
      <trkpt lat="45.7859" lon="4.64994">
        <ele>564.6</ele>
        <time>2020-06-14T07:01:32.000Z</time>
      </trkpt>
      <trkpt lat="45.78589" lon="4.64994">
        <ele>564.6</ele>
        <time>2020-06-14T07:01:33.000Z</time>
      </trkpt>
      <trkpt lat="45.78587" lon="4.64993">
        <ele>565</ele>
        <time>2020-06-14T07:01:34.000Z</time>
      </trkpt>
      <trkpt lat="45.78586" lon="4.64992">
        <ele>565</ele>
        <time>2020-06-14T07:01:35.000Z</time>
      </trkpt>
      <trkpt lat="45.78585" lon="4.64991">
        <ele>565</ele>
        <time>2020-06-14T07:01:36.000Z</time>
      </trkpt>
      <trkpt lat="45.78584" lon="4.64991">
        <ele>565</ele>
        <time>2020-06-14T07:01:37.000Z</time>
      </trkpt>
      <trkpt lat="45.78583" lon="4.64991">
        <ele>565.4</ele>
        <time>2020-06-14T07:01:38.000Z</time>
      </trkpt>
      <trkpt lat="45.78582" lon="4.6499">
        <ele>565.2</ele>
        <time>2020-06-14T07:01:39.000Z</time>
      </trkpt>
      <trkpt lat="45.78581" lon="4.64989">
        <ele>565.6</ele>
        <time>2020-06-14T07:01:40.000Z</time>
      </trkpt>
      <trkpt lat="45.7858" lon="4.64988">
        <ele>565.8</ele>
        <time>2020-06-14T07:01:41.000Z</time>
      </trkpt>
      <trkpt lat="45.78579" lon="4.64987">
        <ele>566</ele>
        <time>2020-06-14T07:01:42.000Z</time>
      </trkpt>
      <trkpt lat="45.78578" lon="4.64987">
        <ele>566</ele>
        <time>2020-06-14T07:01:43.000Z</time>
      </trkpt>
      <trkpt lat="45.78577" lon="4.64986">
        <ele>566.2</ele>
        <time>2020-06-14T07:01:44.000Z</time>
      </trkpt>
      <trkpt lat="45.78575" lon="4.64986">
        <ele>566.2</ele>
        <time>2020-06-14T07:01:45.000Z</time>
      </trkpt>
      <trkpt lat="45.78574" lon="4.64985">
        <ele>566.2</ele>
        <time>2020-06-14T07:01:46.000Z</time>
      </trkpt>
      <trkpt lat="45.78572" lon="4.64985">
        <ele>566.6</ele>
        <time>2020-06-14T07:01:47.000Z</time>
      </trkpt>
      <trkpt lat="45.7857" lon="4.64985">
        <ele>567</ele>
        <time>2020-06-14T07:01:48.000Z</time>
      </trkpt>
      <trkpt lat="45.78569" lon="4.64984">
        <ele>567</ele>
        <time>2020-06-14T07:01:49.000Z</time>
      </trkpt>
      <trkpt lat="45.78567" lon="4.64984">
        <ele>567.2</ele>
        <time>2020-06-14T07:01:50.000Z</time>
      </trkpt>
      <trkpt lat="45.78566" lon="4.64983">
        <ele>567.6</ele>
        <time>2020-06-14T07:01:51.000Z</time>
      </trkpt>
      <trkpt lat="45.78565" lon="4.64982">
        <ele>567.6</ele>
        <time>2020-06-14T07:01:52.000Z</time>
      </trkpt>
      <trkpt lat="45.78563" lon="4.64982">
        <ele>567.8</ele>
        <time>2020-06-14T07:01:53.000Z</time>
      </trkpt>
      <trkpt lat="45.78562" lon="4.64982">
        <ele>567.8</ele>
        <time>2020-06-14T07:01:54.000Z</time>
      </trkpt>
      <trkpt lat="45.7856" lon="4.64982">
        <ele>567.8</ele>
        <time>2020-06-14T07:01:55.000Z</time>
      </trkpt>
      <trkpt lat="45.78559" lon="4.64981">
        <ele>568</ele>
        <time>2020-06-14T07:01:56.000Z</time>
      </trkpt>
      <trkpt lat="45.78558" lon="4.64981">
        <ele>568.2</ele>
        <time>2020-06-14T07:01:57.000Z</time>
      </trkpt>
      <trkpt lat="45.78557" lon="4.6498">
        <ele>568.6</ele>
        <time>2020-06-14T07:01:58.000Z</time>
      </trkpt>
      <trkpt lat="45.78556" lon="4.64979">
        <ele>568.8</ele>
        <time>2020-06-14T07:01:59.000Z</time>
      </trkpt>
      <trkpt lat="45.78555" lon="4.64978">
        <ele>569</ele>
        <time>2020-06-14T07:02:00.000Z</time>
      </trkpt>
      <trkpt lat="45.78553" lon="4.64978">
        <ele>569</ele>
        <time>2020-06-14T07:02:01.000Z</time>
      </trkpt>
      <trkpt lat="45.78552" lon="4.64978">
        <ele>569.2</ele>
        <time>2020-06-14T07:02:02.000Z</time>
      </trkpt>
      <trkpt lat="45.78552" lon="4.64978">
        <ele>569.4</ele>
        <time>2020-06-14T07:02:03.000Z</time>
      </trkpt>
      <trkpt lat="45.7855" lon="4.64979">
        <ele>569.6</ele>
        <time>2020-06-14T07:02:04.000Z</time>
      </trkpt>
      <trkpt lat="45.78549" lon="4.64979">
        <ele>570</ele>
        <time>2020-06-14T07:02:05.000Z</time>
      </trkpt>
      <trkpt lat="45.78547" lon="4.64979">
        <ele>570</ele>
        <time>2020-06-14T07:02:06.000Z</time>
      </trkpt>
      <trkpt lat="45.78545" lon="4.64979">
        <ele>570</ele>
        <time>2020-06-14T07:02:07.000Z</time>
      </trkpt>
      <trkpt lat="45.78544" lon="4.64979">
        <ele>570.4</ele>
        <time>2020-06-14T07:02:08.000Z</time>
      </trkpt>
      <trkpt lat="45.78542" lon="4.64979">
        <ele>570.4</ele>
        <time>2020-06-14T07:02:09.000Z</time>
      </trkpt>
      <trkpt lat="45.78541" lon="4.6498">
        <ele>570.4</ele>
        <time>2020-06-14T07:02:10.000Z</time>
      </trkpt>
      <trkpt lat="45.78538" lon="4.64982">
        <ele>570.8</ele>
        <time>2020-06-14T07:02:12.000Z</time>
      </trkpt>
      <trkpt lat="45.78537" lon="4.64982">
        <ele>571</ele>
        <time>2020-06-14T07:02:13.000Z</time>
      </trkpt>
      <trkpt lat="45.78535" lon="4.64983">
        <ele>571.2</ele>
        <time>2020-06-14T07:02:14.000Z</time>
      </trkpt>
      <trkpt lat="45.78534" lon="4.64984">
        <ele>571</ele>
        <time>2020-06-14T07:02:15.000Z</time>
      </trkpt>
      <trkpt lat="45.78533" lon="4.64984">
        <ele>571.2</ele>
        <time>2020-06-14T07:02:16.000Z</time>
      </trkpt>
      <trkpt lat="45.78529" lon="4.64988">
        <ele>571.6</ele>
        <time>2020-06-14T07:02:19.000Z</time>
      </trkpt>
      <trkpt lat="45.78528" lon="4.64989">
        <ele>571.4</ele>
        <time>2020-06-14T07:02:20.000Z</time>
      </trkpt>
      <trkpt lat="45.78526" lon="4.64989">
        <ele>571.6</ele>
        <time>2020-06-14T07:02:21.000Z</time>
      </trkpt>
      <trkpt lat="45.78524" lon="4.6499">
        <ele>571.6</ele>
        <time>2020-06-14T07:02:22.000Z</time>
      </trkpt>
      <trkpt lat="45.78513" lon="4.64995">
        <ele>571.8</ele>
        <time>2020-06-14T07:02:27.000Z</time>
      </trkpt>
      <trkpt lat="45.78509" lon="4.64997">
        <ele>572</ele>
        <time>2020-06-14T07:02:29.000Z</time>
      </trkpt>
      <trkpt lat="45.78506" lon="4.64998">
        <ele>572</ele>
        <time>2020-06-14T07:02:30.000Z</time>
      </trkpt>
      <trkpt lat="45.78504" lon="4.64998">
        <ele>572</ele>
        <time>2020-06-14T07:02:31.000Z</time>
      </trkpt>
      <trkpt lat="45.78502" lon="4.64998">
        <ele>572.2</ele>
        <time>2020-06-14T07:02:32.000Z</time>
      </trkpt>
      <trkpt lat="45.78499" lon="4.64997">
        <ele>572.2</ele>
        <time>2020-06-14T07:02:33.000Z</time>
      </trkpt>
      <trkpt lat="45.78496" lon="4.64997">
        <ele>572.2</ele>
        <time>2020-06-14T07:02:34.000Z</time>
      </trkpt>
      <trkpt lat="45.78493" lon="4.64997">
        <ele>572.2</ele>
        <time>2020-06-14T07:02:35.000Z</time>
      </trkpt>
      <trkpt lat="45.78491" lon="4.64996">
        <ele>572.2</ele>
        <time>2020-06-14T07:02:36.000Z</time>
      </trkpt>
      <trkpt lat="45.78488" lon="4.64996">
        <ele>572.2</ele>
        <time>2020-06-14T07:02:37.000Z</time>
      </trkpt>
      <trkpt lat="45.78486" lon="4.64997">
        <ele>572.2</ele>
        <time>2020-06-14T07:02:38.000Z</time>
      </trkpt>
      <trkpt lat="45.78484" lon="4.64996">
        <ele>572.4</ele>
        <time>2020-06-14T07:02:39.000Z</time>
      </trkpt>
      <trkpt lat="45.78482" lon="4.64996">
        <ele>572.4</ele>
        <time>2020-06-14T07:02:40.000Z</time>
      </trkpt>
      <trkpt lat="45.7848" lon="4.64995">
        <ele>572.6</ele>
        <time>2020-06-14T07:02:41.000Z</time>
      </trkpt>
      <trkpt lat="45.78478" lon="4.64994">
        <ele>572.4</ele>
        <time>2020-06-14T07:02:42.000Z</time>
      </trkpt>
      <trkpt lat="45.78477" lon="4.64994">
        <ele>572.6</ele>
        <time>2020-06-14T07:02:43.000Z</time>
      </trkpt>
      <trkpt lat="45.78475" lon="4.64993">
        <ele>572.8</ele>
        <time>2020-06-14T07:02:44.000Z</time>
      </trkpt>
      <trkpt lat="45.78473" lon="4.64994">
        <ele>573</ele>
        <time>2020-06-14T07:02:45.000Z</time>
      </trkpt>
      <trkpt lat="45.78472" lon="4.64994">
        <ele>573</ele>
        <time>2020-06-14T07:02:46.000Z</time>
      </trkpt>
      <trkpt lat="45.7847" lon="4.64995">
        <ele>573</ele>
        <time>2020-06-14T07:02:47.000Z</time>
      </trkpt>
      <trkpt lat="45.78469" lon="4.64995">
        <ele>573.2</ele>
        <time>2020-06-14T07:02:48.000Z</time>
      </trkpt>
      <trkpt lat="45.78467" lon="4.64996">
        <ele>573.2</ele>
        <time>2020-06-14T07:02:49.000Z</time>
      </trkpt>
      <trkpt lat="45.78465" lon="4.64996">
        <ele>573.2</ele>
        <time>2020-06-14T07:02:50.000Z</time>
      </trkpt>
      <trkpt lat="45.78464" lon="4.64996">
        <ele>573.6</ele>
        <time>2020-06-14T07:02:51.000Z</time>
      </trkpt>
      <trkpt lat="45.78462" lon="4.64996">
        <ele>573.8</ele>
        <time>2020-06-14T07:02:52.000Z</time>
      </trkpt>
      <trkpt lat="45.7846" lon="4.64996">
        <ele>574.4</ele>
        <time>2020-06-14T07:02:53.000Z</time>
      </trkpt>
      <trkpt lat="45.78459" lon="4.64996">
        <ele>574.6</ele>
        <time>2020-06-14T07:02:54.000Z</time>
      </trkpt>
      <trkpt lat="45.78456" lon="4.64995">
        <ele>574.6</ele>
        <time>2020-06-14T07:02:55.000Z</time>
      </trkpt>
      <trkpt lat="45.78454" lon="4.64994">
        <ele>574.8</ele>
        <time>2020-06-14T07:02:56.000Z</time>
      </trkpt>
      <trkpt lat="45.78452" lon="4.64995">
        <ele>575.2</ele>
        <time>2020-06-14T07:02:57.000Z</time>
      </trkpt>
      <trkpt lat="45.7845" lon="4.64995">
        <ele>575.2</ele>
        <time>2020-06-14T07:02:58.000Z</time>
      </trkpt>
      <trkpt lat="45.78449" lon="4.64995">
        <ele>575.4</ele>
        <time>2020-06-14T07:02:59.000Z</time>
      </trkpt>
      <trkpt lat="45.78447" lon="4.64995">
        <ele>575.4</ele>
        <time>2020-06-14T07:03:00.000Z</time>
      </trkpt>
      <trkpt lat="45.78444" lon="4.64994">
        <ele>575.6</ele>
        <time>2020-06-14T07:03:01.000Z</time>
      </trkpt>
      <trkpt lat="45.78441" lon="4.64993">
        <ele>575.8</ele>
        <time>2020-06-14T07:03:02.000Z</time>
      </trkpt>
      <trkpt lat="45.7844" lon="4.64993">
        <ele>576</ele>
        <time>2020-06-14T07:03:03.000Z</time>
      </trkpt>
      <trkpt lat="45.78438" lon="4.64992">
        <ele>576.2</ele>
        <time>2020-06-14T07:03:04.000Z</time>
      </trkpt>
      <trkpt lat="45.78436" lon="4.64992">
        <ele>576.2</ele>
        <time>2020-06-14T07:03:05.000Z</time>
      </trkpt>
      <trkpt lat="45.78435" lon="4.64992">
        <ele>576.4</ele>
        <time>2020-06-14T07:03:06.000Z</time>
      </trkpt>
      <trkpt lat="45.78433" lon="4.64992">
        <ele>576.8</ele>
        <time>2020-06-14T07:03:07.000Z</time>
      </trkpt>
      <trkpt lat="45.78432" lon="4.64992">
        <ele>576.8</ele>
        <time>2020-06-14T07:03:08.000Z</time>
      </trkpt>
      <trkpt lat="45.7843" lon="4.64991">
        <ele>577</ele>
        <time>2020-06-14T07:03:09.000Z</time>
      </trkpt>
      <trkpt lat="45.78429" lon="4.64991">
        <ele>577</ele>
        <time>2020-06-14T07:03:10.000Z</time>
      </trkpt>
      <trkpt lat="45.78428" lon="4.64991">
        <ele>577.2</ele>
        <time>2020-06-14T07:03:11.000Z</time>
      </trkpt>
      <trkpt lat="45.78426" lon="4.64991">
        <ele>577.4</ele>
        <time>2020-06-14T07:03:12.000Z</time>
      </trkpt>
      <trkpt lat="45.78424" lon="4.64991">
        <ele>577.6</ele>
        <time>2020-06-14T07:03:13.000Z</time>
      </trkpt>
      <trkpt lat="45.78422" lon="4.64991">
        <ele>577.8</ele>
        <time>2020-06-14T07:03:14.000Z</time>
      </trkpt>
      <trkpt lat="45.7842" lon="4.6499">
        <ele>577.8</ele>
        <time>2020-06-14T07:03:15.000Z</time>
      </trkpt>
      <trkpt lat="45.78418" lon="4.6499">
        <ele>578</ele>
        <time>2020-06-14T07:03:16.000Z</time>
      </trkpt>
      <trkpt lat="45.78417" lon="4.6499">
        <ele>578.2</ele>
        <time>2020-06-14T07:03:17.000Z</time>
      </trkpt>
      <trkpt lat="45.78415" lon="4.6499">
        <ele>578.2</ele>
        <time>2020-06-14T07:03:18.000Z</time>
      </trkpt>
      <trkpt lat="45.78414" lon="4.6499">
        <ele>578.4</ele>
        <time>2020-06-14T07:03:19.000Z</time>
      </trkpt>
      <trkpt lat="45.78412" lon="4.64991">
        <ele>578.8</ele>
        <time>2020-06-14T07:03:20.000Z</time>
      </trkpt>
      <trkpt lat="45.78411" lon="4.64992">
        <ele>579</ele>
        <time>2020-06-14T07:03:21.000Z</time>
      </trkpt>
      <trkpt lat="45.7841" lon="4.64993">
        <ele>579.2</ele>
        <time>2020-06-14T07:03:22.000Z</time>
      </trkpt>
      <trkpt lat="45.78408" lon="4.64993">
        <ele>579.2</ele>
        <time>2020-06-14T07:03:23.000Z</time>
      </trkpt>
      <trkpt lat="45.78406" lon="4.64993">
        <ele>579.4</ele>
        <time>2020-06-14T07:03:24.000Z</time>
      </trkpt>
      <trkpt lat="45.78404" lon="4.64993">
        <ele>579.4</ele>
        <time>2020-06-14T07:03:25.000Z</time>
      </trkpt>
      <trkpt lat="45.78401" lon="4.64992">
        <ele>579.6</ele>
        <time>2020-06-14T07:03:26.000Z</time>
      </trkpt>
      <trkpt lat="45.784" lon="4.64991">
        <ele>579.6</ele>
        <time>2020-06-14T07:03:27.000Z</time>
      </trkpt>
      <trkpt lat="45.78398" lon="4.64991">
        <ele>579.8</ele>
        <time>2020-06-14T07:03:28.000Z</time>
      </trkpt>
      <trkpt lat="45.78397" lon="4.64991">
        <ele>580</ele>
        <time>2020-06-14T07:03:29.000Z</time>
      </trkpt>
      <trkpt lat="45.78396" lon="4.64991">
        <ele>580.4</ele>
        <time>2020-06-14T07:03:30.000Z</time>
      </trkpt>
      <trkpt lat="45.78394" lon="4.64992">
        <ele>580.4</ele>
        <time>2020-06-14T07:03:31.000Z</time>
      </trkpt>
      <trkpt lat="45.78393" lon="4.64992">
        <ele>580.4</ele>
        <time>2020-06-14T07:03:32.000Z</time>
      </trkpt>
      <trkpt lat="45.78392" lon="4.64992">
        <ele>580.6</ele>
        <time>2020-06-14T07:03:33.000Z</time>
      </trkpt>
      <trkpt lat="45.78386" lon="4.64989">
        <ele>581.8</ele>
        <time>2020-06-14T07:04:15.000Z</time>
      </trkpt>
      <trkpt lat="45.78384" lon="4.64989">
        <ele>581.8</ele>
        <time>2020-06-14T07:04:17.000Z</time>
      </trkpt>
      <trkpt lat="45.78383" lon="4.64989">
        <ele>581.6</ele>
        <time>2020-06-14T07:04:18.000Z</time>
      </trkpt>
      <trkpt lat="45.78382" lon="4.64988">
        <ele>581.8</ele>
        <time>2020-06-14T07:04:19.000Z</time>
      </trkpt>
      <trkpt lat="45.78381" lon="4.64988">
        <ele>581.8</ele>
        <time>2020-06-14T07:04:20.000Z</time>
      </trkpt>
      <trkpt lat="45.78381" lon="4.64988">
        <ele>581.8</ele>
        <time>2020-06-14T07:04:21.000Z</time>
      </trkpt>
      <trkpt lat="45.78379" lon="4.64988">
        <ele>581.8</ele>
        <time>2020-06-14T07:04:22.000Z</time>
      </trkpt>
      <trkpt lat="45.78378" lon="4.64989">
        <ele>581.8</ele>
        <time>2020-06-14T07:04:23.000Z</time>
      </trkpt>
      <trkpt lat="45.78377" lon="4.6499">
        <ele>581.6</ele>
        <time>2020-06-14T07:04:24.000Z</time>
      </trkpt>
      <trkpt lat="45.78376" lon="4.6499">
        <ele>581.8</ele>
        <time>2020-06-14T07:04:25.000Z</time>
      </trkpt>
      <trkpt lat="45.78375" lon="4.6499">
        <ele>581.8</ele>
        <time>2020-06-14T07:04:26.000Z</time>
      </trkpt>
      <trkpt lat="45.78375" lon="4.6499">
        <ele>582</ele>
        <time>2020-06-14T07:04:27.000Z</time>
      </trkpt>
      <trkpt lat="45.78374" lon="4.64991">
        <ele>582</ele>
        <time>2020-06-14T07:04:28.000Z</time>
      </trkpt>
      <trkpt lat="45.78373" lon="4.64991">
        <ele>582.2</ele>
        <time>2020-06-14T07:04:29.000Z</time>
      </trkpt>
      <trkpt lat="45.78372" lon="4.64991">
        <ele>582.2</ele>
        <time>2020-06-14T07:04:30.000Z</time>
      </trkpt>
      <trkpt lat="45.78368" lon="4.64987">
        <ele>582.8</ele>
        <time>2020-06-14T07:05:31.000Z</time>
      </trkpt>
      <trkpt lat="45.78369" lon="4.64985">
        <ele>582.8</ele>
        <time>2020-06-14T07:05:32.000Z</time>
      </trkpt>
      <trkpt lat="45.78369" lon="4.64983">
        <ele>582.8</ele>
        <time>2020-06-14T07:05:33.000Z</time>
      </trkpt>
      <trkpt lat="45.78371" lon="4.64982">
        <ele>583</ele>
        <time>2020-06-14T07:05:34.000Z</time>
      </trkpt>
      <trkpt lat="45.78371" lon="4.6498">
        <ele>583</ele>
        <time>2020-06-14T07:05:35.000Z</time>
      </trkpt>
      <trkpt lat="45.78372" lon="4.64979">
        <ele>583</ele>
        <time>2020-06-14T07:05:36.000Z</time>
      </trkpt>
      <trkpt lat="45.78374" lon="4.64976">
        <ele>582.8</ele>
        <time>2020-06-14T07:05:38.000Z</time>
      </trkpt>
      <trkpt lat="45.78374" lon="4.64975">
        <ele>583</ele>
        <time>2020-06-14T07:05:39.000Z</time>
      </trkpt>
      <trkpt lat="45.78374" lon="4.64973">
        <ele>583</ele>
        <time>2020-06-14T07:05:40.000Z</time>
      </trkpt>
      <trkpt lat="45.78374" lon="4.64972">
        <ele>583</ele>
        <time>2020-06-14T07:05:41.000Z</time>
      </trkpt>
      <trkpt lat="45.78375" lon="4.6497">
        <ele>583</ele>
        <time>2020-06-14T07:05:42.000Z</time>
      </trkpt>
      <trkpt lat="45.78376" lon="4.64968">
        <ele>583.2</ele>
        <time>2020-06-14T07:05:43.000Z</time>
      </trkpt>
      <trkpt lat="45.78376" lon="4.64966">
        <ele>583.2</ele>
        <time>2020-06-14T07:05:44.000Z</time>
      </trkpt>
      <trkpt lat="45.78377" lon="4.64965">
        <ele>583.2</ele>
        <time>2020-06-14T07:05:45.000Z</time>
      </trkpt>
      <trkpt lat="45.78377" lon="4.64963">
        <ele>583.4</ele>
        <time>2020-06-14T07:05:46.000Z</time>
      </trkpt>
      <trkpt lat="45.78378" lon="4.64962">
        <ele>583.6</ele>
        <time>2020-06-14T07:05:47.000Z</time>
      </trkpt>
      <trkpt lat="45.78378" lon="4.64961">
        <ele>583.6</ele>
        <time>2020-06-14T07:05:48.000Z</time>
      </trkpt>
      <trkpt lat="45.78379" lon="4.6496">
        <ele>584</ele>
        <time>2020-06-14T07:05:49.000Z</time>
      </trkpt>
      <trkpt lat="45.78383" lon="4.64948">
        <ele>586.6</ele>
        <time>2020-06-14T07:06:00.000Z</time>
      </trkpt>
      <trkpt lat="45.78384" lon="4.64946">
        <ele>586.8</ele>
        <time>2020-06-14T07:06:01.000Z</time>
      </trkpt>
      <trkpt lat="45.78386" lon="4.64944">
        <ele>587</ele>
        <time>2020-06-14T07:06:02.000Z</time>
      </trkpt>
      <trkpt lat="45.78386" lon="4.64942">
        <ele>587.2</ele>
        <time>2020-06-14T07:06:03.000Z</time>
      </trkpt>
      <trkpt lat="45.78387" lon="4.6494">
        <ele>587.2</ele>
        <time>2020-06-14T07:06:04.000Z</time>
      </trkpt>
      <trkpt lat="45.78387" lon="4.64938">
        <ele>587.2</ele>
        <time>2020-06-14T07:06:05.000Z</time>
      </trkpt>
      <trkpt lat="45.78387" lon="4.64935">
        <ele>587.4</ele>
        <time>2020-06-14T07:06:06.000Z</time>
      </trkpt>
      <trkpt lat="45.78387" lon="4.64933">
        <ele>587.4</ele>
        <time>2020-06-14T07:06:07.000Z</time>
      </trkpt>
      <trkpt lat="45.78386" lon="4.6493">
        <ele>587.6</ele>
        <time>2020-06-14T07:06:08.000Z</time>
      </trkpt>
      <trkpt lat="45.78386" lon="4.64928">
        <ele>587.6</ele>
        <time>2020-06-14T07:06:09.000Z</time>
      </trkpt>
      <trkpt lat="45.78386" lon="4.64926">
        <ele>587.8</ele>
        <time>2020-06-14T07:06:10.000Z</time>
      </trkpt>
      <trkpt lat="45.78387" lon="4.64925">
        <ele>588.2</ele>
        <time>2020-06-14T07:06:11.000Z</time>
      </trkpt>
      <trkpt lat="45.78387" lon="4.64923">
        <ele>588.2</ele>
        <time>2020-06-14T07:06:12.000Z</time>
      </trkpt>
      <trkpt lat="45.78387" lon="4.64921">
        <ele>588.4</ele>
        <time>2020-06-14T07:06:13.000Z</time>
      </trkpt>
      <trkpt lat="45.78387" lon="4.64919">
        <ele>588.8</ele>
        <time>2020-06-14T07:06:14.000Z</time>
      </trkpt>
      <trkpt lat="45.78386" lon="4.64918">
        <ele>589.4</ele>
        <time>2020-06-14T07:06:15.000Z</time>
      </trkpt>
      <trkpt lat="45.78385" lon="4.64916">
        <ele>589.6</ele>
        <time>2020-06-14T07:06:16.000Z</time>
      </trkpt>
      <trkpt lat="45.78383" lon="4.64915">
        <ele>590</ele>
        <time>2020-06-14T07:06:17.000Z</time>
      </trkpt>
      <trkpt lat="45.78378" lon="4.64904">
        <ele>590.6</ele>
        <time>2020-06-14T07:06:21.000Z</time>
      </trkpt>
      <trkpt lat="45.78378" lon="4.649">
        <ele>590.6</ele>
        <time>2020-06-14T07:06:22.000Z</time>
      </trkpt>
      <trkpt lat="45.78377" lon="4.64897">
        <ele>590.6</ele>
        <time>2020-06-14T07:06:23.000Z</time>
      </trkpt>
      <trkpt lat="45.78378" lon="4.64893">
        <ele>590.6</ele>
        <time>2020-06-14T07:06:24.000Z</time>
      </trkpt>
      <trkpt lat="45.78378" lon="4.64882">
        <ele>590.8</ele>
        <time>2020-06-14T07:06:27.000Z</time>
      </trkpt>
      <trkpt lat="45.78378" lon="4.64879">
        <ele>590.8</ele>
        <time>2020-06-14T07:06:28.000Z</time>
      </trkpt>
      <trkpt lat="45.78378" lon="4.64876">
        <ele>590.8</ele>
        <time>2020-06-14T07:06:29.000Z</time>
      </trkpt>
      <trkpt lat="45.78379" lon="4.64873">
        <ele>590.6</ele>
        <time>2020-06-14T07:06:30.000Z</time>
      </trkpt>
      <trkpt lat="45.78378" lon="4.64862">
        <ele>590.6</ele>
        <time>2020-06-14T07:06:33.000Z</time>
      </trkpt>
      <trkpt lat="45.78378" lon="4.64859">
        <ele>590.6</ele>
        <time>2020-06-14T07:06:34.000Z</time>
      </trkpt>
      <trkpt lat="45.78378" lon="4.64856">
        <ele>590.6</ele>
        <time>2020-06-14T07:06:35.000Z</time>
      </trkpt>
      <trkpt lat="45.78378" lon="4.64854">
        <ele>590.6</ele>
        <time>2020-06-14T07:06:36.000Z</time>
      </trkpt>
      <trkpt lat="45.78378" lon="4.64851">
        <ele>590.8</ele>
        <time>2020-06-14T07:06:37.000Z</time>
      </trkpt>
      <trkpt lat="45.78379" lon="4.64848">
        <ele>590.6</ele>
        <time>2020-06-14T07:06:38.000Z</time>
      </trkpt>
      <trkpt lat="45.78379" lon="4.64841">
        <ele>590.6</ele>
        <time>2020-06-14T07:06:40.000Z</time>
      </trkpt>
      <trkpt lat="45.78379" lon="4.64832">
        <ele>590.6</ele>
        <time>2020-06-14T07:06:43.000Z</time>
      </trkpt>
      <trkpt lat="45.78379" lon="4.64826">
        <ele>590.8</ele>
        <time>2020-06-14T07:06:45.000Z</time>
      </trkpt>
      <trkpt lat="45.78379" lon="4.64823">
        <ele>590.8</ele>
        <time>2020-06-14T07:06:46.000Z</time>
      </trkpt>
      <trkpt lat="45.78378" lon="4.6482">
        <ele>590.8</ele>
        <time>2020-06-14T07:06:47.000Z</time>
      </trkpt>
      <trkpt lat="45.78371" lon="4.64797">
        <ele>591</ele>
        <time>2020-06-14T07:06:53.000Z</time>
      </trkpt>
      <trkpt lat="45.78369" lon="4.64793">
        <ele>591</ele>
        <time>2020-06-14T07:06:54.000Z</time>
      </trkpt>
      <trkpt lat="45.78367" lon="4.64789">
        <ele>591.2</ele>
        <time>2020-06-14T07:06:55.000Z</time>
      </trkpt>
      <trkpt lat="45.7836" lon="4.64777">
        <ele>591.2</ele>
        <time>2020-06-14T07:06:58.000Z</time>
      </trkpt>
      <trkpt lat="45.78359" lon="4.64772">
        <ele>591</ele>
        <time>2020-06-14T07:06:59.000Z</time>
      </trkpt>
      <trkpt lat="45.78358" lon="4.64769">
        <ele>591.2</ele>
        <time>2020-06-14T07:07:00.000Z</time>
      </trkpt>
      <trkpt lat="45.78356" lon="4.64766">
        <ele>591.2</ele>
        <time>2020-06-14T07:07:01.000Z</time>
      </trkpt>
      <trkpt lat="45.78355" lon="4.64764">
        <ele>591.2</ele>
        <time>2020-06-14T07:07:02.000Z</time>
      </trkpt>
      <trkpt lat="45.78354" lon="4.64762">
        <ele>591.2</ele>
        <time>2020-06-14T07:07:03.000Z</time>
      </trkpt>
      <trkpt lat="45.78352" lon="4.64761">
        <ele>591.2</ele>
        <time>2020-06-14T07:07:04.000Z</time>
      </trkpt>
      <trkpt lat="45.78351" lon="4.64759">
        <ele>591.4</ele>
        <time>2020-06-14T07:07:05.000Z</time>
      </trkpt>
      <trkpt lat="45.7835" lon="4.64756">
        <ele>591.2</ele>
        <time>2020-06-14T07:07:06.000Z</time>
      </trkpt>
      <trkpt lat="45.78348" lon="4.64754">
        <ele>591.2</ele>
        <time>2020-06-14T07:07:07.000Z</time>
      </trkpt>
      <trkpt lat="45.78346" lon="4.64751">
        <ele>591.4</ele>
        <time>2020-06-14T07:07:08.000Z</time>
      </trkpt>
      <trkpt lat="45.78344" lon="4.64749">
        <ele>591.4</ele>
        <time>2020-06-14T07:07:09.000Z</time>
      </trkpt>
      <trkpt lat="45.78342" lon="4.64746">
        <ele>591.6</ele>
        <time>2020-06-14T07:07:10.000Z</time>
      </trkpt>
      <trkpt lat="45.78339" lon="4.64741">
        <ele>591.8</ele>
        <time>2020-06-14T07:07:11.000Z</time>
      </trkpt>
      <trkpt lat="45.78336" lon="4.64738">
        <ele>592</ele>
        <time>2020-06-14T07:07:12.000Z</time>
      </trkpt>
      <trkpt lat="45.78335" lon="4.64734">
        <ele>592.2</ele>
        <time>2020-06-14T07:07:13.000Z</time>
      </trkpt>
      <trkpt lat="45.78333" lon="4.64731">
        <ele>592.6</ele>
        <time>2020-06-14T07:07:14.000Z</time>
      </trkpt>
      <trkpt lat="45.78332" lon="4.64729">
        <ele>592.8</ele>
        <time>2020-06-14T07:07:15.000Z</time>
      </trkpt>
      <trkpt lat="45.7833" lon="4.64726">
        <ele>593</ele>
        <time>2020-06-14T07:07:16.000Z</time>
      </trkpt>
      <trkpt lat="45.78328" lon="4.64724">
        <ele>593.2</ele>
        <time>2020-06-14T07:07:17.000Z</time>
      </trkpt>
      <trkpt lat="45.78326" lon="4.64723">
        <ele>593.4</ele>
        <time>2020-06-14T07:07:18.000Z</time>
      </trkpt>
      <trkpt lat="45.78325" lon="4.64721">
        <ele>593.8</ele>
        <time>2020-06-14T07:07:19.000Z</time>
      </trkpt>
      <trkpt lat="45.78323" lon="4.64719">
        <ele>593.8</ele>
        <time>2020-06-14T07:07:20.000Z</time>
      </trkpt>
      <trkpt lat="45.78321" lon="4.64718">
        <ele>594.2</ele>
        <time>2020-06-14T07:07:21.000Z</time>
      </trkpt>
      <trkpt lat="45.78318" lon="4.64717">
        <ele>594.6</ele>
        <time>2020-06-14T07:07:22.000Z</time>
      </trkpt>
      <trkpt lat="45.78316" lon="4.64716">
        <ele>595</ele>
        <time>2020-06-14T07:07:23.000Z</time>
      </trkpt>
      <trkpt lat="45.78314" lon="4.64713">
        <ele>595.2</ele>
        <time>2020-06-14T07:07:24.000Z</time>
      </trkpt>
      <trkpt lat="45.78312" lon="4.6471">
        <ele>595.4</ele>
        <time>2020-06-14T07:07:25.000Z</time>
      </trkpt>
      <trkpt lat="45.78311" lon="4.64707">
        <ele>595.6</ele>
        <time>2020-06-14T07:07:26.000Z</time>
      </trkpt>
      <trkpt lat="45.78309" lon="4.64704">
        <ele>595.6</ele>
        <time>2020-06-14T07:07:27.000Z</time>
      </trkpt>
      <trkpt lat="45.78307" lon="4.64701">
        <ele>595.8</ele>
        <time>2020-06-14T07:07:28.000Z</time>
      </trkpt>
      <trkpt lat="45.78305" lon="4.64698">
        <ele>596</ele>
        <time>2020-06-14T07:07:29.000Z</time>
      </trkpt>
      <trkpt lat="45.78304" lon="4.64695">
        <ele>596.2</ele>
        <time>2020-06-14T07:07:30.000Z</time>
      </trkpt>
      <trkpt lat="45.78303" lon="4.64693">
        <ele>596.2</ele>
        <time>2020-06-14T07:07:31.000Z</time>
      </trkpt>
      <trkpt lat="45.78302" lon="4.64691">
        <ele>596.6</ele>
        <time>2020-06-14T07:07:32.000Z</time>
      </trkpt>
      <trkpt lat="45.783" lon="4.64689">
        <ele>596.8</ele>
        <time>2020-06-14T07:07:33.000Z</time>
      </trkpt>
      <trkpt lat="45.78299" lon="4.64687">
        <ele>597</ele>
        <time>2020-06-14T07:07:34.000Z</time>
      </trkpt>
      <trkpt lat="45.78297" lon="4.64686">
        <ele>597.2</ele>
        <time>2020-06-14T07:07:35.000Z</time>
      </trkpt>
      <trkpt lat="45.78296" lon="4.64684">
        <ele>597.2</ele>
        <time>2020-06-14T07:07:36.000Z</time>
      </trkpt>
      <trkpt lat="45.78294" lon="4.64682">
        <ele>597.4</ele>
        <time>2020-06-14T07:07:37.000Z</time>
      </trkpt>
      <trkpt lat="45.78293" lon="4.6468">
        <ele>597.6</ele>
        <time>2020-06-14T07:07:38.000Z</time>
      </trkpt>
      <trkpt lat="45.78291" lon="4.64678">
        <ele>597.8</ele>
        <time>2020-06-14T07:07:39.000Z</time>
      </trkpt>
      <trkpt lat="45.78289" lon="4.64677">
        <ele>598</ele>
        <time>2020-06-14T07:07:40.000Z</time>
      </trkpt>
      <trkpt lat="45.78287" lon="4.64675">
        <ele>598</ele>
        <time>2020-06-14T07:07:41.000Z</time>
      </trkpt>
      <trkpt lat="45.78285" lon="4.64674">
        <ele>598.4</ele>
        <time>2020-06-14T07:07:42.000Z</time>
      </trkpt>
      <trkpt lat="45.78284" lon="4.64672">
        <ele>598.6</ele>
        <time>2020-06-14T07:07:43.000Z</time>
      </trkpt>
      <trkpt lat="45.78282" lon="4.64671">
        <ele>598.6</ele>
        <time>2020-06-14T07:07:44.000Z</time>
      </trkpt>
      <trkpt lat="45.7828" lon="4.6467">
        <ele>598.8</ele>
        <time>2020-06-14T07:07:45.000Z</time>
      </trkpt>
      <trkpt lat="45.78278" lon="4.64669">
        <ele>599</ele>
        <time>2020-06-14T07:07:46.000Z</time>
      </trkpt>
      <trkpt lat="45.78277" lon="4.64667">
        <ele>599</ele>
        <time>2020-06-14T07:07:47.000Z</time>
      </trkpt>
      <trkpt lat="45.78268" lon="4.64659">
        <ele>599.6</ele>
        <time>2020-06-14T07:07:52.000Z</time>
      </trkpt>
      <trkpt lat="45.78266" lon="4.64657">
        <ele>599.8</ele>
        <time>2020-06-14T07:07:53.000Z</time>
      </trkpt>
      <trkpt lat="45.78264" lon="4.64655">
        <ele>600</ele>
        <time>2020-06-14T07:07:54.000Z</time>
      </trkpt>
      <trkpt lat="45.78262" lon="4.64653">
        <ele>599.8</ele>
        <time>2020-06-14T07:07:55.000Z</time>
      </trkpt>
      <trkpt lat="45.78255" lon="4.64645">
        <ele>600.2</ele>
        <time>2020-06-14T07:07:59.000Z</time>
      </trkpt>
      <trkpt lat="45.78253" lon="4.64642">
        <ele>600.2</ele>
        <time>2020-06-14T07:08:00.000Z</time>
      </trkpt>
      <trkpt lat="45.78248" lon="4.64636">
        <ele>600.2</ele>
        <time>2020-06-14T07:08:02.000Z</time>
      </trkpt>
      <trkpt lat="45.78245" lon="4.64633">
        <ele>600.2</ele>
        <time>2020-06-14T07:08:03.000Z</time>
      </trkpt>
      <trkpt lat="45.78243" lon="4.64631">
        <ele>600</ele>
        <time>2020-06-14T07:08:04.000Z</time>
      </trkpt>
      <trkpt lat="45.78241" lon="4.64629">
        <ele>600</ele>
        <time>2020-06-14T07:08:05.000Z</time>
      </trkpt>
      <trkpt lat="45.78239" lon="4.64627">
        <ele>600.2</ele>
        <time>2020-06-14T07:08:06.000Z</time>
      </trkpt>
      <trkpt lat="45.78237" lon="4.64625">
        <ele>600.2</ele>
        <time>2020-06-14T07:08:07.000Z</time>
      </trkpt>
      <trkpt lat="45.78235" lon="4.64623">
        <ele>600</ele>
        <time>2020-06-14T07:08:08.000Z</time>
      </trkpt>
      <trkpt lat="45.78233" lon="4.64621">
        <ele>600</ele>
        <time>2020-06-14T07:08:09.000Z</time>
      </trkpt>
      <trkpt lat="45.78231" lon="4.6462">
        <ele>600</ele>
        <time>2020-06-14T07:08:10.000Z</time>
      </trkpt>
      <trkpt lat="45.78229" lon="4.64618">
        <ele>600</ele>
        <time>2020-06-14T07:08:11.000Z</time>
      </trkpt>
      <trkpt lat="45.78226" lon="4.64617">
        <ele>599.8</ele>
        <time>2020-06-14T07:08:12.000Z</time>
      </trkpt>
      <trkpt lat="45.78218" lon="4.64612">
        <ele>599.8</ele>
        <time>2020-06-14T07:08:15.000Z</time>
      </trkpt>
      <trkpt lat="45.78211" lon="4.64606">
        <ele>599.8</ele>
        <time>2020-06-14T07:08:18.000Z</time>
      </trkpt>
      <trkpt lat="45.7821" lon="4.64604">
        <ele>599.8</ele>
        <time>2020-06-14T07:08:19.000Z</time>
      </trkpt>
      <trkpt lat="45.78209" lon="4.64602">
        <ele>599.8</ele>
        <time>2020-06-14T07:08:20.000Z</time>
      </trkpt>
      <trkpt lat="45.78208" lon="4.64599">
        <ele>599.8</ele>
        <time>2020-06-14T07:08:21.000Z</time>
      </trkpt>
      <trkpt lat="45.78207" lon="4.64596">
        <ele>599.8</ele>
        <time>2020-06-14T07:08:22.000Z</time>
      </trkpt>
      <trkpt lat="45.78206" lon="4.64594">
        <ele>599.8</ele>
        <time>2020-06-14T07:08:23.000Z</time>
      </trkpt>
      <trkpt lat="45.78202" lon="4.64589">
        <ele>599.6</ele>
        <time>2020-06-14T07:08:25.000Z</time>
      </trkpt>
      <trkpt lat="45.78198" lon="4.64585">
        <ele>599.6</ele>
        <time>2020-06-14T07:08:27.000Z</time>
      </trkpt>
      <trkpt lat="45.78196" lon="4.64583">
        <ele>599.6</ele>
        <time>2020-06-14T07:08:28.000Z</time>
      </trkpt>
      <trkpt lat="45.78194" lon="4.64582">
        <ele>599.6</ele>
        <time>2020-06-14T07:08:29.000Z</time>
      </trkpt>
      <trkpt lat="45.78192" lon="4.64581">
        <ele>599.8</ele>
        <time>2020-06-14T07:08:30.000Z</time>
      </trkpt>
      <trkpt lat="45.7819" lon="4.6458">
        <ele>599.8</ele>
        <time>2020-06-14T07:08:31.000Z</time>
      </trkpt>
      <trkpt lat="45.78188" lon="4.64578">
        <ele>599.8</ele>
        <time>2020-06-14T07:08:32.000Z</time>
      </trkpt>
      <trkpt lat="45.78185" lon="4.64576">
        <ele>599.8</ele>
        <time>2020-06-14T07:08:33.000Z</time>
      </trkpt>
      <trkpt lat="45.78183" lon="4.64575">
        <ele>600</ele>
        <time>2020-06-14T07:08:34.000Z</time>
      </trkpt>
      <trkpt lat="45.78181" lon="4.64574">
        <ele>600</ele>
        <time>2020-06-14T07:08:35.000Z</time>
      </trkpt>
      <trkpt lat="45.78178" lon="4.64573">
        <ele>600.2</ele>
        <time>2020-06-14T07:08:36.000Z</time>
      </trkpt>
      <trkpt lat="45.78175" lon="4.64572">
        <ele>600.2</ele>
        <time>2020-06-14T07:08:37.000Z</time>
      </trkpt>
      <trkpt lat="45.78173" lon="4.64571">
        <ele>600.2</ele>
        <time>2020-06-14T07:08:38.000Z</time>
      </trkpt>
      <trkpt lat="45.7817" lon="4.6457">
        <ele>600.4</ele>
        <time>2020-06-14T07:08:39.000Z</time>
      </trkpt>
      <trkpt lat="45.78168" lon="4.64569">
        <ele>600.4</ele>
        <time>2020-06-14T07:08:40.000Z</time>
      </trkpt>
      <trkpt lat="45.78165" lon="4.64568">
        <ele>600.6</ele>
        <time>2020-06-14T07:08:41.000Z</time>
      </trkpt>
      <trkpt lat="45.78163" lon="4.64567">
        <ele>600.8</ele>
        <time>2020-06-14T07:08:42.000Z</time>
      </trkpt>
      <trkpt lat="45.78161" lon="4.64567">
        <ele>601</ele>
        <time>2020-06-14T07:08:43.000Z</time>
      </trkpt>
      <trkpt lat="45.7816" lon="4.64566">
        <ele>601</ele>
        <time>2020-06-14T07:08:44.000Z</time>
      </trkpt>
      <trkpt lat="45.78158" lon="4.64564">
        <ele>601.2</ele>
        <time>2020-06-14T07:08:45.000Z</time>
      </trkpt>
      <trkpt lat="45.78157" lon="4.64562">
        <ele>601.4</ele>
        <time>2020-06-14T07:08:46.000Z</time>
      </trkpt>
      <trkpt lat="45.78155" lon="4.64561">
        <ele>601.4</ele>
        <time>2020-06-14T07:08:47.000Z</time>
      </trkpt>
      <trkpt lat="45.78153" lon="4.6456">
        <ele>601.4</ele>
        <time>2020-06-14T07:08:48.000Z</time>
      </trkpt>
      <trkpt lat="45.78152" lon="4.64558">
        <ele>601.6</ele>
        <time>2020-06-14T07:08:49.000Z</time>
      </trkpt>
      <trkpt lat="45.78151" lon="4.64557">
        <ele>601.8</ele>
        <time>2020-06-14T07:08:50.000Z</time>
      </trkpt>
      <trkpt lat="45.7815" lon="4.64555">
        <ele>602</ele>
        <time>2020-06-14T07:08:51.000Z</time>
      </trkpt>
      <trkpt lat="45.78149" lon="4.64554">
        <ele>602</ele>
        <time>2020-06-14T07:08:52.000Z</time>
      </trkpt>
      <trkpt lat="45.78148" lon="4.64553">
        <ele>602.4</ele>
        <time>2020-06-14T07:08:53.000Z</time>
      </trkpt>
      <trkpt lat="45.78146" lon="4.64552">
        <ele>602.6</ele>
        <time>2020-06-14T07:08:54.000Z</time>
      </trkpt>
      <trkpt lat="45.78145" lon="4.6455">
        <ele>603</ele>
        <time>2020-06-14T07:08:55.000Z</time>
      </trkpt>
      <trkpt lat="45.78143" lon="4.64549">
        <ele>603.2</ele>
        <time>2020-06-14T07:08:56.000Z</time>
      </trkpt>
      <trkpt lat="45.78142" lon="4.64549">
        <ele>603.4</ele>
        <time>2020-06-14T07:08:57.000Z</time>
      </trkpt>
      <trkpt lat="45.78141" lon="4.64548">
        <ele>603.8</ele>
        <time>2020-06-14T07:08:58.000Z</time>
      </trkpt>
      <trkpt lat="45.7814" lon="4.64548">
        <ele>604</ele>
        <time>2020-06-14T07:08:59.000Z</time>
      </trkpt>
      <trkpt lat="45.78139" lon="4.64547">
        <ele>604.4</ele>
        <time>2020-06-14T07:09:00.000Z</time>
      </trkpt>
      <trkpt lat="45.78138" lon="4.64546">
        <ele>604.6</ele>
        <time>2020-06-14T07:09:01.000Z</time>
      </trkpt>
      <trkpt lat="45.78137" lon="4.64545">
        <ele>605</ele>
        <time>2020-06-14T07:09:02.000Z</time>
      </trkpt>
      <trkpt lat="45.78136" lon="4.64544">
        <ele>605.2</ele>
        <time>2020-06-14T07:09:03.000Z</time>
      </trkpt>
      <trkpt lat="45.78135" lon="4.64543">
        <ele>605.4</ele>
        <time>2020-06-14T07:09:04.000Z</time>
      </trkpt>
      <trkpt lat="45.78133" lon="4.64542">
        <ele>605.8</ele>
        <time>2020-06-14T07:09:05.000Z</time>
      </trkpt>
      <trkpt lat="45.78132" lon="4.64541">
        <ele>606.2</ele>
        <time>2020-06-14T07:09:06.000Z</time>
      </trkpt>
      <trkpt lat="45.78132" lon="4.6454">
        <ele>606.2</ele>
        <time>2020-06-14T07:09:07.000Z</time>
      </trkpt>
      <trkpt lat="45.78131" lon="4.64539">
        <ele>606.2</ele>
        <time>2020-06-14T07:09:08.000Z</time>
      </trkpt>
      <trkpt lat="45.7813" lon="4.64538">
        <ele>606.4</ele>
        <time>2020-06-14T07:09:09.000Z</time>
      </trkpt>
      <trkpt lat="45.78129" lon="4.64537">
        <ele>607</ele>
        <time>2020-06-14T07:09:10.000Z</time>
      </trkpt>
      <trkpt lat="45.78127" lon="4.64535">
        <ele>607.4</ele>
        <time>2020-06-14T07:09:11.000Z</time>
      </trkpt>
      <trkpt lat="45.78126" lon="4.64535">
        <ele>607.6</ele>
        <time>2020-06-14T07:09:12.000Z</time>
      </trkpt>
      <trkpt lat="45.78125" lon="4.64534">
        <ele>608</ele>
        <time>2020-06-14T07:09:13.000Z</time>
      </trkpt>
      <trkpt lat="45.78124" lon="4.64534">
        <ele>608.4</ele>
        <time>2020-06-14T07:09:14.000Z</time>
      </trkpt>
      <trkpt lat="45.78123" lon="4.64533">
        <ele>608.6</ele>
        <time>2020-06-14T07:09:15.000Z</time>
      </trkpt>
      <trkpt lat="45.78121" lon="4.64533">
        <ele>609</ele>
        <time>2020-06-14T07:09:16.000Z</time>
      </trkpt>
      <trkpt lat="45.7812" lon="4.64532">
        <ele>609.2</ele>
        <time>2020-06-14T07:09:17.000Z</time>
      </trkpt>
      <trkpt lat="45.78119" lon="4.64531">
        <ele>609.2</ele>
        <time>2020-06-14T07:09:18.000Z</time>
      </trkpt>
      <trkpt lat="45.78118" lon="4.6453">
        <ele>609.6</ele>
        <time>2020-06-14T07:09:19.000Z</time>
      </trkpt>
      <trkpt lat="45.78116" lon="4.6453">
        <ele>610</ele>
        <time>2020-06-14T07:09:20.000Z</time>
      </trkpt>
      <trkpt lat="45.78115" lon="4.64529">
        <ele>610.6</ele>
        <time>2020-06-14T07:09:21.000Z</time>
      </trkpt>
      <trkpt lat="45.78114" lon="4.64528">
        <ele>610.6</ele>
        <time>2020-06-14T07:09:22.000Z</time>
      </trkpt>
      <trkpt lat="45.78112" lon="4.64528">
        <ele>611.2</ele>
        <time>2020-06-14T07:09:23.000Z</time>
      </trkpt>
      <trkpt lat="45.78111" lon="4.64527">
        <ele>611.6</ele>
        <time>2020-06-14T07:09:24.000Z</time>
      </trkpt>
      <trkpt lat="45.7811" lon="4.64526">
        <ele>611.6</ele>
        <time>2020-06-14T07:09:25.000Z</time>
      </trkpt>
      <trkpt lat="45.78109" lon="4.64526">
        <ele>611.8</ele>
        <time>2020-06-14T07:09:26.000Z</time>
      </trkpt>
      <trkpt lat="45.78108" lon="4.64525">
        <ele>612</ele>
        <time>2020-06-14T07:09:27.000Z</time>
      </trkpt>
      <trkpt lat="45.78107" lon="4.64525">
        <ele>612.4</ele>
        <time>2020-06-14T07:09:28.000Z</time>
      </trkpt>
      <trkpt lat="45.78105" lon="4.64524">
        <ele>613</ele>
        <time>2020-06-14T07:09:29.000Z</time>
      </trkpt>
      <trkpt lat="45.78104" lon="4.64523">
        <ele>613</ele>
        <time>2020-06-14T07:09:30.000Z</time>
      </trkpt>
      <trkpt lat="45.78103" lon="4.64523">
        <ele>612.8</ele>
        <time>2020-06-14T07:09:31.000Z</time>
      </trkpt>
      <trkpt lat="45.78102" lon="4.64522">
        <ele>613.4</ele>
        <time>2020-06-14T07:09:32.000Z</time>
      </trkpt>
      <trkpt lat="45.78101" lon="4.64522">
        <ele>613.6</ele>
        <time>2020-06-14T07:09:33.000Z</time>
      </trkpt>
      <trkpt lat="45.781" lon="4.64522">
        <ele>613.8</ele>
        <time>2020-06-14T07:09:34.000Z</time>
      </trkpt>
      <trkpt lat="45.78098" lon="4.64521">
        <ele>614</ele>
        <time>2020-06-14T07:09:35.000Z</time>
      </trkpt>
      <trkpt lat="45.78097" lon="4.64521">
        <ele>614.2</ele>
        <time>2020-06-14T07:09:36.000Z</time>
      </trkpt>
      <trkpt lat="45.78096" lon="4.6452">
        <ele>614.6</ele>
        <time>2020-06-14T07:09:37.000Z</time>
      </trkpt>
      <trkpt lat="45.78095" lon="4.6452">
        <ele>615</ele>
        <time>2020-06-14T07:09:38.000Z</time>
      </trkpt>
      <trkpt lat="45.78094" lon="4.6452">
        <ele>615.4</ele>
        <time>2020-06-14T07:09:39.000Z</time>
      </trkpt>
      <trkpt lat="45.78093" lon="4.64519">
        <ele>615.6</ele>
        <time>2020-06-14T07:09:40.000Z</time>
      </trkpt>
      <trkpt lat="45.78092" lon="4.64519">
        <ele>616</ele>
        <time>2020-06-14T07:09:41.000Z</time>
      </trkpt>
      <trkpt lat="45.7809" lon="4.64519">
        <ele>616.2</ele>
        <time>2020-06-14T07:09:42.000Z</time>
      </trkpt>
      <trkpt lat="45.78089" lon="4.64518">
        <ele>616.8</ele>
        <time>2020-06-14T07:09:43.000Z</time>
      </trkpt>
      <trkpt lat="45.78088" lon="4.64518">
        <ele>617</ele>
        <time>2020-06-14T07:09:44.000Z</time>
      </trkpt>
      <trkpt lat="45.78087" lon="4.64518">
        <ele>617.4</ele>
        <time>2020-06-14T07:09:45.000Z</time>
      </trkpt>
      <trkpt lat="45.78086" lon="4.64517">
        <ele>617.4</ele>
        <time>2020-06-14T07:09:46.000Z</time>
      </trkpt>
      <trkpt lat="45.78085" lon="4.64516">
        <ele>617.6</ele>
        <time>2020-06-14T07:09:47.000Z</time>
      </trkpt>
      <trkpt lat="45.78084" lon="4.64516">
        <ele>617.8</ele>
        <time>2020-06-14T07:09:48.000Z</time>
      </trkpt>
      <trkpt lat="45.78083" lon="4.64516">
        <ele>617.8</ele>
        <time>2020-06-14T07:09:49.000Z</time>
      </trkpt>
      <trkpt lat="45.78082" lon="4.64515">
        <ele>618</ele>
        <time>2020-06-14T07:09:50.000Z</time>
      </trkpt>
      <trkpt lat="45.78082" lon="4.64515">
        <ele>618.4</ele>
        <time>2020-06-14T07:09:51.000Z</time>
      </trkpt>
      <trkpt lat="45.7808" lon="4.64515">
        <ele>618.6</ele>
        <time>2020-06-14T07:09:52.000Z</time>
      </trkpt>
      <trkpt lat="45.78079" lon="4.64514">
        <ele>618.8</ele>
        <time>2020-06-14T07:09:53.000Z</time>
      </trkpt>
      <trkpt lat="45.78078" lon="4.64514">
        <ele>619</ele>
        <time>2020-06-14T07:09:54.000Z</time>
      </trkpt>
      <trkpt lat="45.78077" lon="4.64513">
        <ele>619.2</ele>
        <time>2020-06-14T07:09:55.000Z</time>
      </trkpt>
      <trkpt lat="45.78076" lon="4.64513">
        <ele>619.6</ele>
        <time>2020-06-14T07:09:56.000Z</time>
      </trkpt>
      <trkpt lat="45.78075" lon="4.64512">
        <ele>619.6</ele>
        <time>2020-06-14T07:09:57.000Z</time>
      </trkpt>
      <trkpt lat="45.78074" lon="4.64512">
        <ele>620</ele>
        <time>2020-06-14T07:09:58.000Z</time>
      </trkpt>
      <trkpt lat="45.78073" lon="4.64512">
        <ele>620.2</ele>
        <time>2020-06-14T07:09:59.000Z</time>
      </trkpt>
      <trkpt lat="45.78072" lon="4.64511">
        <ele>620.4</ele>
        <time>2020-06-14T07:10:00.000Z</time>
      </trkpt>
      <trkpt lat="45.78071" lon="4.64511">
        <ele>620.4</ele>
        <time>2020-06-14T07:10:01.000Z</time>
      </trkpt>
      <trkpt lat="45.78071" lon="4.6451">
        <ele>620.8</ele>
        <time>2020-06-14T07:10:02.000Z</time>
      </trkpt>
      <trkpt lat="45.7807" lon="4.64509">
        <ele>620.8</ele>
        <time>2020-06-14T07:10:03.000Z</time>
      </trkpt>
      <trkpt lat="45.78069" lon="4.64508">
        <ele>621</ele>
        <time>2020-06-14T07:10:04.000Z</time>
      </trkpt>
      <trkpt lat="45.78069" lon="4.64508">
        <ele>621.2</ele>
        <time>2020-06-14T07:10:05.000Z</time>
      </trkpt>
      <trkpt lat="45.78068" lon="4.64507">
        <ele>621.4</ele>
        <time>2020-06-14T07:10:06.000Z</time>
      </trkpt>
      <trkpt lat="45.78067" lon="4.64506">
        <ele>621.6</ele>
        <time>2020-06-14T07:10:07.000Z</time>
      </trkpt>
      <trkpt lat="45.78066" lon="4.64506">
        <ele>621.8</ele>
        <time>2020-06-14T07:10:08.000Z</time>
      </trkpt>
      <trkpt lat="45.78065" lon="4.64505">
        <ele>621.8</ele>
        <time>2020-06-14T07:10:09.000Z</time>
      </trkpt>
      <trkpt lat="45.78065" lon="4.64505">
        <ele>622.2</ele>
        <time>2020-06-14T07:10:10.000Z</time>
      </trkpt>
      <trkpt lat="45.78064" lon="4.64504">
        <ele>622.4</ele>
        <time>2020-06-14T07:10:11.000Z</time>
      </trkpt>
      <trkpt lat="45.78064" lon="4.64503">
        <ele>622.6</ele>
        <time>2020-06-14T07:10:12.000Z</time>
      </trkpt>
      <trkpt lat="45.78064" lon="4.64502">
        <ele>622.6</ele>
        <time>2020-06-14T07:10:13.000Z</time>
      </trkpt>
      <trkpt lat="45.78063" lon="4.645">
        <ele>623.2</ele>
        <time>2020-06-14T07:10:14.000Z</time>
      </trkpt>
      <trkpt lat="45.78062" lon="4.64499">
        <ele>623.6</ele>
        <time>2020-06-14T07:10:15.000Z</time>
      </trkpt>
      <trkpt lat="45.78062" lon="4.64498">
        <ele>624</ele>
        <time>2020-06-14T07:10:16.000Z</time>
      </trkpt>
      <trkpt lat="45.78062" lon="4.64497">
        <ele>624.2</ele>
        <time>2020-06-14T07:10:17.000Z</time>
      </trkpt>
      <trkpt lat="45.78061" lon="4.64496">
        <ele>624.6</ele>
        <time>2020-06-14T07:10:18.000Z</time>
      </trkpt>
      <trkpt lat="45.78059" lon="4.64494">
        <ele>625.4</ele>
        <time>2020-06-14T07:10:19.000Z</time>
      </trkpt>
      <trkpt lat="45.78058" lon="4.64493">
        <ele>625.6</ele>
        <time>2020-06-14T07:10:20.000Z</time>
      </trkpt>
      <trkpt lat="45.78057" lon="4.64492">
        <ele>626.2</ele>
        <time>2020-06-14T07:10:21.000Z</time>
      </trkpt>
      <trkpt lat="45.78056" lon="4.64491">
        <ele>626.2</ele>
        <time>2020-06-14T07:10:22.000Z</time>
      </trkpt>
      <trkpt lat="45.78055" lon="4.6449">
        <ele>626.6</ele>
        <time>2020-06-14T07:10:23.000Z</time>
      </trkpt>
      <trkpt lat="45.78054" lon="4.64488">
        <ele>627</ele>
        <time>2020-06-14T07:10:24.000Z</time>
      </trkpt>
      <trkpt lat="45.78053" lon="4.64487">
        <ele>627.2</ele>
        <time>2020-06-14T07:10:25.000Z</time>
      </trkpt>
      <trkpt lat="45.78052" lon="4.64486">
        <ele>627.4</ele>
        <time>2020-06-14T07:10:26.000Z</time>
      </trkpt>
      <trkpt lat="45.7805" lon="4.64484">
        <ele>627.6</ele>
        <time>2020-06-14T07:10:27.000Z</time>
      </trkpt>
      <trkpt lat="45.78049" lon="4.64483">
        <ele>628</ele>
        <time>2020-06-14T07:10:28.000Z</time>
      </trkpt>
      <trkpt lat="45.78047" lon="4.64481">
        <ele>628</ele>
        <time>2020-06-14T07:10:29.000Z</time>
      </trkpt>
      <trkpt lat="45.78045" lon="4.64479">
        <ele>628</ele>
        <time>2020-06-14T07:10:30.000Z</time>
      </trkpt>
      <trkpt lat="45.78044" lon="4.64478">
        <ele>628.4</ele>
        <time>2020-06-14T07:10:31.000Z</time>
      </trkpt>
      <trkpt lat="45.78043" lon="4.64476">
        <ele>628.6</ele>
        <time>2020-06-14T07:10:32.000Z</time>
      </trkpt>
      <trkpt lat="45.78042" lon="4.64474">
        <ele>628.8</ele>
        <time>2020-06-14T07:10:33.000Z</time>
      </trkpt>
      <trkpt lat="45.78041" lon="4.64472">
        <ele>629</ele>
        <time>2020-06-14T07:10:34.000Z</time>
      </trkpt>
      <trkpt lat="45.78039" lon="4.64471">
        <ele>629.4</ele>
        <time>2020-06-14T07:10:35.000Z</time>
      </trkpt>
      <trkpt lat="45.78039" lon="4.64469">
        <ele>629.4</ele>
        <time>2020-06-14T07:10:36.000Z</time>
      </trkpt>
      <trkpt lat="45.78038" lon="4.64468">
        <ele>629.4</ele>
        <time>2020-06-14T07:10:37.000Z</time>
      </trkpt>
      <trkpt lat="45.78037" lon="4.64466">
        <ele>629.6</ele>
        <time>2020-06-14T07:10:38.000Z</time>
      </trkpt>
      <trkpt lat="45.78036" lon="4.64465">
        <ele>629.6</ele>
        <time>2020-06-14T07:10:39.000Z</time>
      </trkpt>
      <trkpt lat="45.78035" lon="4.64463">
        <ele>629.8</ele>
        <time>2020-06-14T07:10:40.000Z</time>
      </trkpt>
      <trkpt lat="45.78033" lon="4.64462">
        <ele>629.8</ele>
        <time>2020-06-14T07:10:41.000Z</time>
      </trkpt>
      <trkpt lat="45.78032" lon="4.64461">
        <ele>630</ele>
        <time>2020-06-14T07:10:42.000Z</time>
      </trkpt>
      <trkpt lat="45.78029" lon="4.64458">
        <ele>630.2</ele>
        <time>2020-06-14T07:10:44.000Z</time>
      </trkpt>
      <trkpt lat="45.78027" lon="4.64457">
        <ele>630.4</ele>
        <time>2020-06-14T07:10:45.000Z</time>
      </trkpt>
      <trkpt lat="45.78025" lon="4.64455">
        <ele>630.2</ele>
        <time>2020-06-14T07:10:46.000Z</time>
      </trkpt>
      <trkpt lat="45.78022" lon="4.64452">
        <ele>630.4</ele>
        <time>2020-06-14T07:10:48.000Z</time>
      </trkpt>
      <trkpt lat="45.78019" lon="4.64447">
        <ele>630.6</ele>
        <time>2020-06-14T07:10:50.000Z</time>
      </trkpt>
      <trkpt lat="45.78013" lon="4.64437">
        <ele>630.4</ele>
        <time>2020-06-14T07:10:54.000Z</time>
      </trkpt>
      <trkpt lat="45.78012" lon="4.64434">
        <ele>630.4</ele>
        <time>2020-06-14T07:10:55.000Z</time>
      </trkpt>
      <trkpt lat="45.78011" lon="4.64432">
        <ele>630.4</ele>
        <time>2020-06-14T07:10:56.000Z</time>
      </trkpt>
      <trkpt lat="45.78005" lon="4.64419">
        <ele>630.4</ele>
        <time>2020-06-14T07:10:59.000Z</time>
      </trkpt>
      <trkpt lat="45.77998" lon="4.6441">
        <ele>630.2</ele>
        <time>2020-06-14T07:11:01.000Z</time>
      </trkpt>
      <trkpt lat="45.77994" lon="4.64405">
        <ele>630.2</ele>
        <time>2020-06-14T07:11:02.000Z</time>
      </trkpt>
      <trkpt lat="45.7799" lon="4.64399">
        <ele>630</ele>
        <time>2020-06-14T07:11:03.000Z</time>
      </trkpt>
      <trkpt lat="45.77986" lon="4.64393">
        <ele>630.2</ele>
        <time>2020-06-14T07:11:04.000Z</time>
      </trkpt>
      <trkpt lat="45.77982" lon="4.64386">
        <ele>629.8</ele>
        <time>2020-06-14T07:11:05.000Z</time>
      </trkpt>
      <trkpt lat="45.77979" lon="4.6438">
        <ele>629.4</ele>
        <time>2020-06-14T07:11:06.000Z</time>
      </trkpt>
      <trkpt lat="45.77977" lon="4.64373">
        <ele>629</ele>
        <time>2020-06-14T07:11:07.000Z</time>
      </trkpt>
      <trkpt lat="45.77974" lon="4.64366">
        <ele>628.6</ele>
        <time>2020-06-14T07:11:08.000Z</time>
      </trkpt>
      <trkpt lat="45.7797" lon="4.6436">
        <ele>628.2</ele>
        <time>2020-06-14T07:11:09.000Z</time>
      </trkpt>
      <trkpt lat="45.77967" lon="4.64352">
        <ele>628.2</ele>
        <time>2020-06-14T07:11:10.000Z</time>
      </trkpt>
      <trkpt lat="45.7796" lon="4.64336">
        <ele>626.8</ele>
        <time>2020-06-14T07:11:12.000Z</time>
      </trkpt>
      <trkpt lat="45.77957" lon="4.64328">
        <ele>626.2</ele>
        <time>2020-06-14T07:11:13.000Z</time>
      </trkpt>
      <trkpt lat="45.77952" lon="4.6432">
        <ele>625.6</ele>
        <time>2020-06-14T07:11:14.000Z</time>
      </trkpt>
      <trkpt lat="45.77949" lon="4.64312">
        <ele>624.2</ele>
        <time>2020-06-14T07:11:15.000Z</time>
      </trkpt>
      <trkpt lat="45.77944" lon="4.64305">
        <ele>623.6</ele>
        <time>2020-06-14T07:11:16.000Z</time>
      </trkpt>
      <trkpt lat="45.7794" lon="4.64297">
        <ele>622.8</ele>
        <time>2020-06-14T07:11:17.000Z</time>
      </trkpt>
      <trkpt lat="45.77936" lon="4.64289">
        <ele>621.8</ele>
        <time>2020-06-14T07:11:18.000Z</time>
      </trkpt>
      <trkpt lat="45.77931" lon="4.6428">
        <ele>620.8</ele>
        <time>2020-06-14T07:11:19.000Z</time>
      </trkpt>
      <trkpt lat="45.77927" lon="4.64271">
        <ele>619.8</ele>
        <time>2020-06-14T07:11:20.000Z</time>
      </trkpt>
      <trkpt lat="45.77916" lon="4.6425">
        <ele>618</ele>
        <time>2020-06-14T07:11:22.000Z</time>
      </trkpt>
      <trkpt lat="45.77911" lon="4.6424">
        <ele>617</ele>
        <time>2020-06-14T07:11:23.000Z</time>
      </trkpt>
      <trkpt lat="45.77907" lon="4.64229">
        <ele>615.6</ele>
        <time>2020-06-14T07:11:24.000Z</time>
      </trkpt>
      <trkpt lat="45.77901" lon="4.64219">
        <ele>614.8</ele>
        <time>2020-06-14T07:11:25.000Z</time>
      </trkpt>
      <trkpt lat="45.77896" lon="4.64208">
        <ele>614</ele>
        <time>2020-06-14T07:11:26.000Z</time>
      </trkpt>
      <trkpt lat="45.77885" lon="4.64188">
        <ele>611</ele>
        <time>2020-06-14T07:11:28.000Z</time>
      </trkpt>
      <trkpt lat="45.77879" lon="4.64177">
        <ele>609.8</ele>
        <time>2020-06-14T07:11:29.000Z</time>
      </trkpt>
      <trkpt lat="45.77868" lon="4.64157">
        <ele>609</ele>
        <time>2020-06-14T07:11:31.000Z</time>
      </trkpt>
      <trkpt lat="45.77862" lon="4.64145">
        <ele>607.8</ele>
        <time>2020-06-14T07:11:32.000Z</time>
      </trkpt>
      <trkpt lat="45.77857" lon="4.64133">
        <ele>606.8</ele>
        <time>2020-06-14T07:11:33.000Z</time>
      </trkpt>
      <trkpt lat="45.77851" lon="4.64122">
        <ele>605.8</ele>
        <time>2020-06-14T07:11:34.000Z</time>
      </trkpt>
      <trkpt lat="45.77847" lon="4.64111">
        <ele>604.8</ele>
        <time>2020-06-14T07:11:35.000Z</time>
      </trkpt>
      <trkpt lat="45.77843" lon="4.641">
        <ele>603.4</ele>
        <time>2020-06-14T07:11:36.000Z</time>
      </trkpt>
      <trkpt lat="45.7784" lon="4.64089">
        <ele>602.8</ele>
        <time>2020-06-14T07:11:37.000Z</time>
      </trkpt>
      <trkpt lat="45.77838" lon="4.6408">
        <ele>602.2</ele>
        <time>2020-06-14T07:11:38.000Z</time>
      </trkpt>
      <trkpt lat="45.77835" lon="4.64072">
        <ele>601.8</ele>
        <time>2020-06-14T07:11:39.000Z</time>
      </trkpt>
      <trkpt lat="45.77832" lon="4.64063">
        <ele>601</ele>
        <time>2020-06-14T07:11:40.000Z</time>
      </trkpt>
      <trkpt lat="45.77829" lon="4.64056">
        <ele>599.6</ele>
        <time>2020-06-14T07:11:41.000Z</time>
      </trkpt>
      <trkpt lat="45.77826" lon="4.64049">
        <ele>598</ele>
        <time>2020-06-14T07:11:42.000Z</time>
      </trkpt>
      <trkpt lat="45.77823" lon="4.64042">
        <ele>597</ele>
        <time>2020-06-14T07:11:43.000Z</time>
      </trkpt>
      <trkpt lat="45.7782" lon="4.64035">
        <ele>596.6</ele>
        <time>2020-06-14T07:11:44.000Z</time>
      </trkpt>
      <trkpt lat="45.77816" lon="4.64028">
        <ele>595.8</ele>
        <time>2020-06-14T07:11:45.000Z</time>
      </trkpt>
      <trkpt lat="45.77813" lon="4.64021">
        <ele>595.6</ele>
        <time>2020-06-14T07:11:46.000Z</time>
      </trkpt>
      <trkpt lat="45.77809" lon="4.64015">
        <ele>595</ele>
        <time>2020-06-14T07:11:47.000Z</time>
      </trkpt>
      <trkpt lat="45.77806" lon="4.64009">
        <ele>594.8</ele>
        <time>2020-06-14T07:11:48.000Z</time>
      </trkpt>
      <trkpt lat="45.77803" lon="4.64005">
        <ele>594.4</ele>
        <time>2020-06-14T07:11:49.000Z</time>
      </trkpt>
      <trkpt lat="45.778" lon="4.64002">
        <ele>594.2</ele>
        <time>2020-06-14T07:11:50.000Z</time>
      </trkpt>
      <trkpt lat="45.77798" lon="4.64">
        <ele>594.2</ele>
        <time>2020-06-14T07:11:51.000Z</time>
      </trkpt>
      <trkpt lat="45.77797" lon="4.63997">
        <ele>594.2</ele>
        <time>2020-06-14T07:11:52.000Z</time>
      </trkpt>
      <trkpt lat="45.77795" lon="4.63996">
        <ele>594</ele>
        <time>2020-06-14T07:11:53.000Z</time>
      </trkpt>
      <trkpt lat="45.77795" lon="4.63994">
        <ele>593.8</ele>
        <time>2020-06-14T07:11:54.000Z</time>
      </trkpt>
      <trkpt lat="45.77794" lon="4.63992">
        <ele>593.4</ele>
        <time>2020-06-14T07:11:55.000Z</time>
      </trkpt>
      <trkpt lat="45.77793" lon="4.6399">
        <ele>593.2</ele>
        <time>2020-06-14T07:11:56.000Z</time>
      </trkpt>
      <trkpt lat="45.77792" lon="4.63988">
        <ele>593</ele>
        <time>2020-06-14T07:11:57.000Z</time>
      </trkpt>
      <trkpt lat="45.77791" lon="4.63986">
        <ele>592.8</ele>
        <time>2020-06-14T07:11:58.000Z</time>
      </trkpt>
      <trkpt lat="45.77786" lon="4.6398">
        <ele>592.8</ele>
        <time>2020-06-14T07:12:01.000Z</time>
      </trkpt>
      <trkpt lat="45.77785" lon="4.63978">
        <ele>592.6</ele>
        <time>2020-06-14T07:12:02.000Z</time>
      </trkpt>
      <trkpt lat="45.77784" lon="4.63976">
        <ele>592.8</ele>
        <time>2020-06-14T07:12:03.000Z</time>
      </trkpt>
      <trkpt lat="45.77783" lon="4.63975">
        <ele>592.6</ele>
        <time>2020-06-14T07:12:04.000Z</time>
      </trkpt>
      <trkpt lat="45.77781" lon="4.63973">
        <ele>592.6</ele>
        <time>2020-06-14T07:12:05.000Z</time>
      </trkpt>
      <trkpt lat="45.77777" lon="4.63969">
        <ele>592.6</ele>
        <time>2020-06-14T07:12:07.000Z</time>
      </trkpt>
      <trkpt lat="45.77775" lon="4.63967">
        <ele>592.8</ele>
        <time>2020-06-14T07:12:08.000Z</time>
      </trkpt>
      <trkpt lat="45.77773" lon="4.63966">
        <ele>592.8</ele>
        <time>2020-06-14T07:12:09.000Z</time>
      </trkpt>
      <trkpt lat="45.77771" lon="4.63964">
        <ele>593</ele>
        <time>2020-06-14T07:12:10.000Z</time>
      </trkpt>
      <trkpt lat="45.77769" lon="4.63962">
        <ele>593</ele>
        <time>2020-06-14T07:12:11.000Z</time>
      </trkpt>
      <trkpt lat="45.77767" lon="4.63961">
        <ele>592.8</ele>
        <time>2020-06-14T07:12:12.000Z</time>
      </trkpt>
      <trkpt lat="45.77762" lon="4.63957">
        <ele>593</ele>
        <time>2020-06-14T07:12:14.000Z</time>
      </trkpt>
      <trkpt lat="45.77758" lon="4.63955">
        <ele>593.2</ele>
        <time>2020-06-14T07:12:15.000Z</time>
      </trkpt>
      <trkpt lat="45.77755" lon="4.63952">
        <ele>593.2</ele>
        <time>2020-06-14T07:12:16.000Z</time>
      </trkpt>
      <trkpt lat="45.77753" lon="4.63949">
        <ele>593.2</ele>
        <time>2020-06-14T07:12:17.000Z</time>
      </trkpt>
      <trkpt lat="45.7775" lon="4.63946">
        <ele>593.4</ele>
        <time>2020-06-14T07:12:18.000Z</time>
      </trkpt>
      <trkpt lat="45.77748" lon="4.63944">
        <ele>593.4</ele>
        <time>2020-06-14T07:12:19.000Z</time>
      </trkpt>
      <trkpt lat="45.77746" lon="4.63942">
        <ele>593.6</ele>
        <time>2020-06-14T07:12:20.000Z</time>
      </trkpt>
      <trkpt lat="45.77743" lon="4.6394">
        <ele>593.4</ele>
        <time>2020-06-14T07:12:21.000Z</time>
      </trkpt>
      <trkpt lat="45.77741" lon="4.63938">
        <ele>593.4</ele>
        <time>2020-06-14T07:12:22.000Z</time>
      </trkpt>
      <trkpt lat="45.77739" lon="4.63937">
        <ele>593.6</ele>
        <time>2020-06-14T07:12:23.000Z</time>
      </trkpt>
      <trkpt lat="45.77737" lon="4.63935">
        <ele>593.6</ele>
        <time>2020-06-14T07:12:24.000Z</time>
      </trkpt>
      <trkpt lat="45.77734" lon="4.63934">
        <ele>593.8</ele>
        <time>2020-06-14T07:12:25.000Z</time>
      </trkpt>
      <trkpt lat="45.77732" lon="4.63933">
        <ele>593.8</ele>
        <time>2020-06-14T07:12:26.000Z</time>
      </trkpt>
      <trkpt lat="45.7773" lon="4.63933">
        <ele>594.2</ele>
        <time>2020-06-14T07:12:27.000Z</time>
      </trkpt>
      <trkpt lat="45.77727" lon="4.63933">
        <ele>594</ele>
        <time>2020-06-14T07:12:28.000Z</time>
      </trkpt>
      <trkpt lat="45.77719" lon="4.63933">
        <ele>594.2</ele>
        <time>2020-06-14T07:12:31.000Z</time>
      </trkpt>
      <trkpt lat="45.77716" lon="4.63934">
        <ele>594.2</ele>
        <time>2020-06-14T07:12:32.000Z</time>
      </trkpt>
      <trkpt lat="45.77713" lon="4.63934">
        <ele>594.4</ele>
        <time>2020-06-14T07:12:33.000Z</time>
      </trkpt>
      <trkpt lat="45.7771" lon="4.63933">
        <ele>594.6</ele>
        <time>2020-06-14T07:12:34.000Z</time>
      </trkpt>
      <trkpt lat="45.77707" lon="4.63932">
        <ele>594.8</ele>
        <time>2020-06-14T07:12:35.000Z</time>
      </trkpt>
      <trkpt lat="45.77705" lon="4.63931">
        <ele>594.8</ele>
        <time>2020-06-14T07:12:36.000Z</time>
      </trkpt>
      <trkpt lat="45.77702" lon="4.6393">
        <ele>594.8</ele>
        <time>2020-06-14T07:12:37.000Z</time>
      </trkpt>
      <trkpt lat="45.777" lon="4.63928">
        <ele>595</ele>
        <time>2020-06-14T07:12:38.000Z</time>
      </trkpt>
      <trkpt lat="45.77698" lon="4.63927">
        <ele>595.2</ele>
        <time>2020-06-14T07:12:39.000Z</time>
      </trkpt>
      <trkpt lat="45.77696" lon="4.63925">
        <ele>595.4</ele>
        <time>2020-06-14T07:12:40.000Z</time>
      </trkpt>
      <trkpt lat="45.77694" lon="4.63924">
        <ele>595.4</ele>
        <time>2020-06-14T07:12:41.000Z</time>
      </trkpt>
      <trkpt lat="45.77692" lon="4.63922">
        <ele>595.4</ele>
        <time>2020-06-14T07:12:42.000Z</time>
      </trkpt>
      <trkpt lat="45.7769" lon="4.63921">
        <ele>595.8</ele>
        <time>2020-06-14T07:12:43.000Z</time>
      </trkpt>
      <trkpt lat="45.77688" lon="4.63919">
        <ele>595.8</ele>
        <time>2020-06-14T07:12:44.000Z</time>
      </trkpt>
      <trkpt lat="45.77687" lon="4.63917">
        <ele>596</ele>
        <time>2020-06-14T07:12:45.000Z</time>
      </trkpt>
      <trkpt lat="45.77685" lon="4.63916">
        <ele>596.2</ele>
        <time>2020-06-14T07:12:46.000Z</time>
      </trkpt>
      <trkpt lat="45.77683" lon="4.63914">
        <ele>596.4</ele>
        <time>2020-06-14T07:12:47.000Z</time>
      </trkpt>
      <trkpt lat="45.77681" lon="4.63913">
        <ele>596.4</ele>
        <time>2020-06-14T07:12:48.000Z</time>
      </trkpt>
      <trkpt lat="45.77677" lon="4.63911">
        <ele>596.6</ele>
        <time>2020-06-14T07:12:50.000Z</time>
      </trkpt>
      <trkpt lat="45.77675" lon="4.63909">
        <ele>596.6</ele>
        <time>2020-06-14T07:12:51.000Z</time>
      </trkpt>
      <trkpt lat="45.77669" lon="4.63906">
        <ele>596.6</ele>
        <time>2020-06-14T07:12:53.000Z</time>
      </trkpt>
      <trkpt lat="45.77666" lon="4.63904">
        <ele>596.6</ele>
        <time>2020-06-14T07:12:54.000Z</time>
      </trkpt>
      <trkpt lat="45.77657" lon="4.63899">
        <ele>596.8</ele>
        <time>2020-06-14T07:12:56.000Z</time>
      </trkpt>
      <trkpt lat="45.77644" lon="4.63892">
        <ele>596.8</ele>
        <time>2020-06-14T07:12:59.000Z</time>
      </trkpt>
      <trkpt lat="45.77639" lon="4.63889">
        <ele>596.6</ele>
        <time>2020-06-14T07:13:00.000Z</time>
      </trkpt>
      <trkpt lat="45.77622" lon="4.63879">
        <ele>595.8</ele>
        <time>2020-06-14T07:13:03.000Z</time>
      </trkpt>
      <trkpt lat="45.77617" lon="4.63875">
        <ele>595.2</ele>
        <time>2020-06-14T07:13:04.000Z</time>
      </trkpt>
      <trkpt lat="45.77612" lon="4.6387">
        <ele>594.6</ele>
        <time>2020-06-14T07:13:05.000Z</time>
      </trkpt>
      <trkpt lat="45.77608" lon="4.63866">
        <ele>594.2</ele>
        <time>2020-06-14T07:13:06.000Z</time>
      </trkpt>
      <trkpt lat="45.77603" lon="4.63862">
        <ele>593.8</ele>
        <time>2020-06-14T07:13:07.000Z</time>
      </trkpt>
      <trkpt lat="45.77599" lon="4.63859">
        <ele>593.6</ele>
        <time>2020-06-14T07:13:08.000Z</time>
      </trkpt>
      <trkpt lat="45.77594" lon="4.63856">
        <ele>593.2</ele>
        <time>2020-06-14T07:13:09.000Z</time>
      </trkpt>
      <trkpt lat="45.7759" lon="4.63854">
        <ele>593</ele>
        <time>2020-06-14T07:13:10.000Z</time>
      </trkpt>
      <trkpt lat="45.77586" lon="4.63852">
        <ele>593.2</ele>
        <time>2020-06-14T07:13:11.000Z</time>
      </trkpt>
      <trkpt lat="45.77583" lon="4.63851">
        <ele>593.2</ele>
        <time>2020-06-14T07:13:12.000Z</time>
      </trkpt>
      <trkpt lat="45.77581" lon="4.6385">
        <ele>593.2</ele>
        <time>2020-06-14T07:13:13.000Z</time>
      </trkpt>
      <trkpt lat="45.77579" lon="4.63849">
        <ele>593</ele>
        <time>2020-06-14T07:13:14.000Z</time>
      </trkpt>
      <trkpt lat="45.77577" lon="4.63849">
        <ele>593</ele>
        <time>2020-06-14T07:13:15.000Z</time>
      </trkpt>
      <trkpt lat="45.77576" lon="4.63848">
        <ele>593</ele>
        <time>2020-06-14T07:13:16.000Z</time>
      </trkpt>
      <trkpt lat="45.77576" lon="4.63848">
        <ele>593</ele>
        <time>2020-06-14T07:13:17.000Z</time>
      </trkpt>
      <trkpt lat="45.77569" lon="4.63842">
        <ele>595.2</ele>
        <time>2020-06-14T07:13:34.000Z</time>
      </trkpt>
      <trkpt lat="45.77568" lon="4.6384">
        <ele>595.4</ele>
        <time>2020-06-14T07:13:35.000Z</time>
      </trkpt>
      <trkpt lat="45.77566" lon="4.63838">
        <ele>595.4</ele>
        <time>2020-06-14T07:13:37.000Z</time>
      </trkpt>
      <trkpt lat="45.77565" lon="4.63836">
        <ele>595.4</ele>
        <time>2020-06-14T07:13:38.000Z</time>
      </trkpt>
      <trkpt lat="45.77565" lon="4.63835">
        <ele>595.4</ele>
        <time>2020-06-14T07:13:39.000Z</time>
      </trkpt>
      <trkpt lat="45.77565" lon="4.63833">
        <ele>595.4</ele>
        <time>2020-06-14T07:13:40.000Z</time>
      </trkpt>
      <trkpt lat="45.77564" lon="4.63832">
        <ele>595.6</ele>
        <time>2020-06-14T07:13:41.000Z</time>
      </trkpt>
      <trkpt lat="45.77564" lon="4.6383">
        <ele>595.4</ele>
        <time>2020-06-14T07:13:42.000Z</time>
      </trkpt>
      <trkpt lat="45.77563" lon="4.63829">
        <ele>595.6</ele>
        <time>2020-06-14T07:13:43.000Z</time>
      </trkpt>
      <trkpt lat="45.77563" lon="4.63827">
        <ele>595.6</ele>
        <time>2020-06-14T07:13:44.000Z</time>
      </trkpt>
      <trkpt lat="45.77563" lon="4.63826">
        <ele>595.4</ele>
        <time>2020-06-14T07:13:45.000Z</time>
      </trkpt>
      <trkpt lat="45.77562" lon="4.63824">
        <ele>595.6</ele>
        <time>2020-06-14T07:13:46.000Z</time>
      </trkpt>
      <trkpt lat="45.77562" lon="4.63823">
        <ele>595.8</ele>
        <time>2020-06-14T07:13:47.000Z</time>
      </trkpt>
      <trkpt lat="45.77561" lon="4.63822">
        <ele>596.2</ele>
        <time>2020-06-14T07:13:48.000Z</time>
      </trkpt>
      <trkpt lat="45.7756" lon="4.63821">
        <ele>596.4</ele>
        <time>2020-06-14T07:13:49.000Z</time>
      </trkpt>
      <trkpt lat="45.77559" lon="4.63819">
        <ele>596.6</ele>
        <time>2020-06-14T07:13:50.000Z</time>
      </trkpt>
      <trkpt lat="45.77558" lon="4.63818">
        <ele>596.8</ele>
        <time>2020-06-14T07:13:51.000Z</time>
      </trkpt>
      <trkpt lat="45.77556" lon="4.63817">
        <ele>597</ele>
        <time>2020-06-14T07:13:52.000Z</time>
      </trkpt>
      <trkpt lat="45.77555" lon="4.63817">
        <ele>597.4</ele>
        <time>2020-06-14T07:13:53.000Z</time>
      </trkpt>
      <trkpt lat="45.77554" lon="4.63816">
        <ele>597.6</ele>
        <time>2020-06-14T07:13:54.000Z</time>
      </trkpt>
      <trkpt lat="45.77553" lon="4.63815">
        <ele>597.8</ele>
        <time>2020-06-14T07:13:55.000Z</time>
      </trkpt>
      <trkpt lat="45.77552" lon="4.63814">
        <ele>598.2</ele>
        <time>2020-06-14T07:13:56.000Z</time>
      </trkpt>
      <trkpt lat="45.77552" lon="4.63814">
        <ele>598.6</ele>
        <time>2020-06-14T07:13:57.000Z</time>
      </trkpt>
      <trkpt lat="45.77552" lon="4.63813">
        <ele>598.8</ele>
        <time>2020-06-14T07:13:58.000Z</time>
      </trkpt>
      <trkpt lat="45.7755" lon="4.63811">
        <ele>599.2</ele>
        <time>2020-06-14T07:13:59.000Z</time>
      </trkpt>
      <trkpt lat="45.77549" lon="4.63811">
        <ele>599.2</ele>
        <time>2020-06-14T07:14:00.000Z</time>
      </trkpt>
      <trkpt lat="45.77549" lon="4.6381">
        <ele>599.2</ele>
        <time>2020-06-14T07:14:01.000Z</time>
      </trkpt>
      <trkpt lat="45.77548" lon="4.63809">
        <ele>599.6</ele>
        <time>2020-06-14T07:14:02.000Z</time>
      </trkpt>
      <trkpt lat="45.77547" lon="4.63809">
        <ele>599.6</ele>
        <time>2020-06-14T07:14:03.000Z</time>
      </trkpt>
      <trkpt lat="45.77547" lon="4.63808">
        <ele>599.8</ele>
        <time>2020-06-14T07:14:04.000Z</time>
      </trkpt>
      <trkpt lat="45.77546" lon="4.63807">
        <ele>600</ele>
        <time>2020-06-14T07:14:05.000Z</time>
      </trkpt>
      <trkpt lat="45.77546" lon="4.63806">
        <ele>600.2</ele>
        <time>2020-06-14T07:14:06.000Z</time>
      </trkpt>
      <trkpt lat="45.77545" lon="4.63806">
        <ele>600.4</ele>
        <time>2020-06-14T07:14:07.000Z</time>
      </trkpt>
      <trkpt lat="45.77545" lon="4.63804">
        <ele>600.6</ele>
        <time>2020-06-14T07:14:08.000Z</time>
      </trkpt>
      <trkpt lat="45.77544" lon="4.63803">
        <ele>600.8</ele>
        <time>2020-06-14T07:14:09.000Z</time>
      </trkpt>
      <trkpt lat="45.77544" lon="4.63802">
        <ele>601</ele>
        <time>2020-06-14T07:14:10.000Z</time>
      </trkpt>
      <trkpt lat="45.77543" lon="4.63801">
        <ele>601.4</ele>
        <time>2020-06-14T07:14:11.000Z</time>
      </trkpt>
      <trkpt lat="45.77542" lon="4.638">
        <ele>601.4</ele>
        <time>2020-06-14T07:14:12.000Z</time>
      </trkpt>
      <trkpt lat="45.77542" lon="4.63799">
        <ele>601.8</ele>
        <time>2020-06-14T07:14:13.000Z</time>
      </trkpt>
      <trkpt lat="45.77541" lon="4.63798">
        <ele>602</ele>
        <time>2020-06-14T07:14:14.000Z</time>
      </trkpt>
      <trkpt lat="45.7754" lon="4.63797">
        <ele>602</ele>
        <time>2020-06-14T07:14:15.000Z</time>
      </trkpt>
      <trkpt lat="45.7752" lon="4.63781">
        <ele>607.8</ele>
        <time>2020-06-14T07:15:00.000Z</time>
      </trkpt>
      <trkpt lat="45.7752" lon="4.6378">
        <ele>607.8</ele>
        <time>2020-06-14T07:15:01.000Z</time>
      </trkpt>
      <trkpt lat="45.77519" lon="4.63779">
        <ele>607.8</ele>
        <time>2020-06-14T07:15:02.000Z</time>
      </trkpt>
      <trkpt lat="45.77518" lon="4.63779">
        <ele>607.8</ele>
        <time>2020-06-14T07:15:03.000Z</time>
      </trkpt>
      <trkpt lat="45.77517" lon="4.63778">
        <ele>607.8</ele>
        <time>2020-06-14T07:15:04.000Z</time>
      </trkpt>
      <trkpt lat="45.77516" lon="4.63777">
        <ele>607.8</ele>
        <time>2020-06-14T07:15:05.000Z</time>
      </trkpt>
      <trkpt lat="45.77516" lon="4.63777">
        <ele>607.8</ele>
        <time>2020-06-14T07:15:06.000Z</time>
      </trkpt>
      <trkpt lat="45.77515" lon="4.63776">
        <ele>607.8</ele>
        <time>2020-06-14T07:15:07.000Z</time>
      </trkpt>
      <trkpt lat="45.77514" lon="4.63775">
        <ele>608</ele>
        <time>2020-06-14T07:15:08.000Z</time>
      </trkpt>
      <trkpt lat="45.77513" lon="4.63774">
        <ele>607.8</ele>
        <time>2020-06-14T07:15:09.000Z</time>
      </trkpt>
      <trkpt lat="45.77512" lon="4.63772">
        <ele>608.4</ele>
        <time>2020-06-14T07:15:10.000Z</time>
      </trkpt>
      <trkpt lat="45.77511" lon="4.63771">
        <ele>608.8</ele>
        <time>2020-06-14T07:15:11.000Z</time>
      </trkpt>
      <trkpt lat="45.7751" lon="4.6377">
        <ele>609.2</ele>
        <time>2020-06-14T07:15:12.000Z</time>
      </trkpt>
      <trkpt lat="45.77508" lon="4.63769">
        <ele>609.6</ele>
        <time>2020-06-14T07:15:13.000Z</time>
      </trkpt>
      <trkpt lat="45.77507" lon="4.63768">
        <ele>609.8</ele>
        <time>2020-06-14T07:15:14.000Z</time>
      </trkpt>
      <trkpt lat="45.77506" lon="4.63767">
        <ele>610.4</ele>
        <time>2020-06-14T07:15:15.000Z</time>
      </trkpt>
      <trkpt lat="45.77503" lon="4.63767">
        <ele>610.4</ele>
        <time>2020-06-14T07:15:16.000Z</time>
      </trkpt>
      <trkpt lat="45.77502" lon="4.63766">
        <ele>610.6</ele>
        <time>2020-06-14T07:15:17.000Z</time>
      </trkpt>
      <trkpt lat="45.77501" lon="4.63765">
        <ele>610.8</ele>
        <time>2020-06-14T07:15:18.000Z</time>
      </trkpt>
      <trkpt lat="45.775" lon="4.63764">
        <ele>611</ele>
        <time>2020-06-14T07:15:19.000Z</time>
      </trkpt>
      <trkpt lat="45.77499" lon="4.63763">
        <ele>611.2</ele>
        <time>2020-06-14T07:15:20.000Z</time>
      </trkpt>
      <trkpt lat="45.77497" lon="4.63763">
        <ele>611.2</ele>
        <time>2020-06-14T07:15:21.000Z</time>
      </trkpt>
      <trkpt lat="45.77496" lon="4.63762">
        <ele>611.4</ele>
        <time>2020-06-14T07:15:22.000Z</time>
      </trkpt>
      <trkpt lat="45.77494" lon="4.63761">
        <ele>611.6</ele>
        <time>2020-06-14T07:15:23.000Z</time>
      </trkpt>
      <trkpt lat="45.77493" lon="4.6376">
        <ele>611.6</ele>
        <time>2020-06-14T07:15:24.000Z</time>
      </trkpt>
      <trkpt lat="45.77492" lon="4.6376">
        <ele>611.6</ele>
        <time>2020-06-14T07:15:25.000Z</time>
      </trkpt>
      <trkpt lat="45.7749" lon="4.63759">
        <ele>611.8</ele>
        <time>2020-06-14T07:15:26.000Z</time>
      </trkpt>
      <trkpt lat="45.77489" lon="4.63758">
        <ele>612.2</ele>
        <time>2020-06-14T07:15:27.000Z</time>
      </trkpt>
      <trkpt lat="45.77487" lon="4.63757">
        <ele>612.2</ele>
        <time>2020-06-14T07:15:28.000Z</time>
      </trkpt>
      <trkpt lat="45.77486" lon="4.63755">
        <ele>612.4</ele>
        <time>2020-06-14T07:15:29.000Z</time>
      </trkpt>
      <trkpt lat="45.77484" lon="4.63755">
        <ele>612.8</ele>
        <time>2020-06-14T07:15:30.000Z</time>
      </trkpt>
      <trkpt lat="45.77482" lon="4.63754">
        <ele>613</ele>
        <time>2020-06-14T07:15:31.000Z</time>
      </trkpt>
      <trkpt lat="45.77481" lon="4.63753">
        <ele>613.2</ele>
        <time>2020-06-14T07:15:32.000Z</time>
      </trkpt>
      <trkpt lat="45.77473" lon="4.63747">
        <ele>616.8</ele>
        <time>2020-06-14T07:15:44.000Z</time>
      </trkpt>
      <trkpt lat="45.77472" lon="4.63746">
        <ele>616.8</ele>
        <time>2020-06-14T07:15:45.000Z</time>
      </trkpt>
      <trkpt lat="45.77471" lon="4.63746">
        <ele>616.8</ele>
        <time>2020-06-14T07:15:46.000Z</time>
      </trkpt>
      <trkpt lat="45.77468" lon="4.63744">
        <ele>617.4</ele>
        <time>2020-06-14T07:15:50.000Z</time>
      </trkpt>
      <trkpt lat="45.77467" lon="4.63745">
        <ele>617.8</ele>
        <time>2020-06-14T07:15:51.000Z</time>
      </trkpt>
      <trkpt lat="45.77466" lon="4.63745">
        <ele>617.8</ele>
        <time>2020-06-14T07:15:52.000Z</time>
      </trkpt>
      <trkpt lat="45.77465" lon="4.63746">
        <ele>618.2</ele>
        <time>2020-06-14T07:15:53.000Z</time>
      </trkpt>
      <trkpt lat="45.77464" lon="4.63746">
        <ele>618.2</ele>
        <time>2020-06-14T07:15:54.000Z</time>
      </trkpt>
      <trkpt lat="45.77463" lon="4.63746">
        <ele>618.8</ele>
        <time>2020-06-14T07:15:56.000Z</time>
      </trkpt>
      <trkpt lat="45.77463" lon="4.63747">
        <ele>619</ele>
        <time>2020-06-14T07:15:57.000Z</time>
      </trkpt>
      <trkpt lat="45.77461" lon="4.63748">
        <ele>619.2</ele>
        <time>2020-06-14T07:15:59.000Z</time>
      </trkpt>
      <trkpt lat="45.7746" lon="4.63748">
        <ele>619.4</ele>
        <time>2020-06-14T07:16:00.000Z</time>
      </trkpt>
      <trkpt lat="45.77459" lon="4.63749">
        <ele>619.6</ele>
        <time>2020-06-14T07:16:01.000Z</time>
      </trkpt>
      <trkpt lat="45.77458" lon="4.63749">
        <ele>619.8</ele>
        <time>2020-06-14T07:16:02.000Z</time>
      </trkpt>
      <trkpt lat="45.77456" lon="4.63748">
        <ele>620</ele>
        <time>2020-06-14T07:16:03.000Z</time>
      </trkpt>
      <trkpt lat="45.77455" lon="4.63749">
        <ele>620</ele>
        <time>2020-06-14T07:16:04.000Z</time>
      </trkpt>
      <trkpt lat="45.77454" lon="4.63749">
        <ele>620</ele>
        <time>2020-06-14T07:16:05.000Z</time>
      </trkpt>
      <trkpt lat="45.77453" lon="4.6375">
        <ele>620</ele>
        <time>2020-06-14T07:16:06.000Z</time>
      </trkpt>
      <trkpt lat="45.77452" lon="4.63751">
        <ele>620.2</ele>
        <time>2020-06-14T07:16:07.000Z</time>
      </trkpt>
      <trkpt lat="45.77451" lon="4.63753">
        <ele>620.6</ele>
        <time>2020-06-14T07:16:08.000Z</time>
      </trkpt>
      <trkpt lat="45.77451" lon="4.63754">
        <ele>620.8</ele>
        <time>2020-06-14T07:16:09.000Z</time>
      </trkpt>
      <trkpt lat="45.7745" lon="4.63755">
        <ele>620.8</ele>
        <time>2020-06-14T07:16:10.000Z</time>
      </trkpt>
      <trkpt lat="45.77449" lon="4.63756">
        <ele>621</ele>
        <time>2020-06-14T07:16:11.000Z</time>
      </trkpt>
      <trkpt lat="45.77448" lon="4.63757">
        <ele>621</ele>
        <time>2020-06-14T07:16:12.000Z</time>
      </trkpt>
      <trkpt lat="45.77447" lon="4.63759">
        <ele>621.4</ele>
        <time>2020-06-14T07:16:13.000Z</time>
      </trkpt>
      <trkpt lat="45.77446" lon="4.6376">
        <ele>621.6</ele>
        <time>2020-06-14T07:16:14.000Z</time>
      </trkpt>
      <trkpt lat="45.77446" lon="4.63761">
        <ele>622</ele>
        <time>2020-06-14T07:16:15.000Z</time>
      </trkpt>
      <trkpt lat="45.77445" lon="4.63762">
        <ele>622.2</ele>
        <time>2020-06-14T07:16:16.000Z</time>
      </trkpt>
      <trkpt lat="45.77444" lon="4.63763">
        <ele>622.4</ele>
        <time>2020-06-14T07:16:17.000Z</time>
      </trkpt>
      <trkpt lat="45.77444" lon="4.63765">
        <ele>622.8</ele>
        <time>2020-06-14T07:16:18.000Z</time>
      </trkpt>
      <trkpt lat="45.77442" lon="4.63766">
        <ele>623</ele>
        <time>2020-06-14T07:16:19.000Z</time>
      </trkpt>
      <trkpt lat="45.77441" lon="4.63768">
        <ele>623.2</ele>
        <time>2020-06-14T07:16:20.000Z</time>
      </trkpt>
      <trkpt lat="45.7744" lon="4.63769">
        <ele>623.4</ele>
        <time>2020-06-14T07:16:21.000Z</time>
      </trkpt>
      <trkpt lat="45.77439" lon="4.6377">
        <ele>623.8</ele>
        <time>2020-06-14T07:16:22.000Z</time>
      </trkpt>
      <trkpt lat="45.77439" lon="4.63771">
        <ele>623.8</ele>
        <time>2020-06-14T07:16:23.000Z</time>
      </trkpt>
      <trkpt lat="45.77438" lon="4.63772">
        <ele>624</ele>
        <time>2020-06-14T07:16:24.000Z</time>
      </trkpt>
      <trkpt lat="45.77437" lon="4.63773">
        <ele>624.2</ele>
        <time>2020-06-14T07:16:25.000Z</time>
      </trkpt>
      <trkpt lat="45.77436" lon="4.63774">
        <ele>624.4</ele>
        <time>2020-06-14T07:16:26.000Z</time>
      </trkpt>
      <trkpt lat="45.77436" lon="4.63775">
        <ele>625</ele>
        <time>2020-06-14T07:16:27.000Z</time>
      </trkpt>
      <trkpt lat="45.77435" lon="4.63776">
        <ele>625.2</ele>
        <time>2020-06-14T07:16:28.000Z</time>
      </trkpt>
      <trkpt lat="45.77434" lon="4.63777">
        <ele>625.4</ele>
        <time>2020-06-14T07:16:29.000Z</time>
      </trkpt>
      <trkpt lat="45.77433" lon="4.63778">
        <ele>625.6</ele>
        <time>2020-06-14T07:16:30.000Z</time>
      </trkpt>
      <trkpt lat="45.77432" lon="4.63779">
        <ele>625.6</ele>
        <time>2020-06-14T07:16:31.000Z</time>
      </trkpt>
      <trkpt lat="45.77431" lon="4.6378">
        <ele>626</ele>
        <time>2020-06-14T07:16:32.000Z</time>
      </trkpt>
      <trkpt lat="45.7743" lon="4.63781">
        <ele>626</ele>
        <time>2020-06-14T07:16:33.000Z</time>
      </trkpt>
      <trkpt lat="45.77429" lon="4.63781">
        <ele>626.4</ele>
        <time>2020-06-14T07:16:34.000Z</time>
      </trkpt>
      <trkpt lat="45.77427" lon="4.63781">
        <ele>626.6</ele>
        <time>2020-06-14T07:16:35.000Z</time>
      </trkpt>
      <trkpt lat="45.77426" lon="4.63782">
        <ele>627</ele>
        <time>2020-06-14T07:16:36.000Z</time>
      </trkpt>
      <trkpt lat="45.77425" lon="4.63782">
        <ele>627.2</ele>
        <time>2020-06-14T07:16:37.000Z</time>
      </trkpt>
      <trkpt lat="45.77424" lon="4.63782">
        <ele>627.4</ele>
        <time>2020-06-14T07:16:38.000Z</time>
      </trkpt>
      <trkpt lat="45.77422" lon="4.63783">
        <ele>627.6</ele>
        <time>2020-06-14T07:16:39.000Z</time>
      </trkpt>
      <trkpt lat="45.77421" lon="4.63783">
        <ele>627.6</ele>
        <time>2020-06-14T07:16:40.000Z</time>
      </trkpt>
      <trkpt lat="45.77419" lon="4.63784">
        <ele>628</ele>
        <time>2020-06-14T07:16:41.000Z</time>
      </trkpt>
      <trkpt lat="45.77418" lon="4.63784">
        <ele>628.2</ele>
        <time>2020-06-14T07:16:42.000Z</time>
      </trkpt>
      <trkpt lat="45.77417" lon="4.63784">
        <ele>628.4</ele>
        <time>2020-06-14T07:16:43.000Z</time>
      </trkpt>
      <trkpt lat="45.77416" lon="4.63785">
        <ele>628.6</ele>
        <time>2020-06-14T07:16:44.000Z</time>
      </trkpt>
      <trkpt lat="45.77414" lon="4.63785">
        <ele>628.8</ele>
        <time>2020-06-14T07:16:45.000Z</time>
      </trkpt>
      <trkpt lat="45.77412" lon="4.63786">
        <ele>629.2</ele>
        <time>2020-06-14T07:16:46.000Z</time>
      </trkpt>
      <trkpt lat="45.77411" lon="4.63786">
        <ele>629.4</ele>
        <time>2020-06-14T07:16:47.000Z</time>
      </trkpt>
      <trkpt lat="45.7741" lon="4.63786">
        <ele>629.4</ele>
        <time>2020-06-14T07:16:48.000Z</time>
      </trkpt>
      <trkpt lat="45.77408" lon="4.63787">
        <ele>629.6</ele>
        <time>2020-06-14T07:16:49.000Z</time>
      </trkpt>
      <trkpt lat="45.77407" lon="4.63788">
        <ele>629.8</ele>
        <time>2020-06-14T07:16:50.000Z</time>
      </trkpt>
      <trkpt lat="45.77405" lon="4.63789">
        <ele>630.2</ele>
        <time>2020-06-14T07:16:51.000Z</time>
      </trkpt>
      <trkpt lat="45.77404" lon="4.6379">
        <ele>630.2</ele>
        <time>2020-06-14T07:16:52.000Z</time>
      </trkpt>
      <trkpt lat="45.77403" lon="4.63791">
        <ele>630.2</ele>
        <time>2020-06-14T07:16:53.000Z</time>
      </trkpt>
      <trkpt lat="45.77401" lon="4.63792">
        <ele>630.4</ele>
        <time>2020-06-14T07:16:54.000Z</time>
      </trkpt>
      <trkpt lat="45.774" lon="4.63793">
        <ele>630.4</ele>
        <time>2020-06-14T07:16:55.000Z</time>
      </trkpt>
      <trkpt lat="45.77399" lon="4.63794">
        <ele>630.6</ele>
        <time>2020-06-14T07:16:56.000Z</time>
      </trkpt>
      <trkpt lat="45.77398" lon="4.63795">
        <ele>630.6</ele>
        <time>2020-06-14T07:16:57.000Z</time>
      </trkpt>
      <trkpt lat="45.77397" lon="4.63797">
        <ele>631</ele>
        <time>2020-06-14T07:16:58.000Z</time>
      </trkpt>
      <trkpt lat="45.77396" lon="4.63797">
        <ele>631.2</ele>
        <time>2020-06-14T07:16:59.000Z</time>
      </trkpt>
      <trkpt lat="45.77395" lon="4.63798">
        <ele>631.4</ele>
        <time>2020-06-14T07:17:00.000Z</time>
      </trkpt>
      <trkpt lat="45.77393" lon="4.63799">
        <ele>631.6</ele>
        <time>2020-06-14T07:17:01.000Z</time>
      </trkpt>
      <trkpt lat="45.77392" lon="4.638">
        <ele>631.8</ele>
        <time>2020-06-14T07:17:02.000Z</time>
      </trkpt>
      <trkpt lat="45.77392" lon="4.63801">
        <ele>632</ele>
        <time>2020-06-14T07:17:03.000Z</time>
      </trkpt>
      <trkpt lat="45.77391" lon="4.63802">
        <ele>632.6</ele>
        <time>2020-06-14T07:17:04.000Z</time>
      </trkpt>
      <trkpt lat="45.7739" lon="4.63803">
        <ele>633</ele>
        <time>2020-06-14T07:17:05.000Z</time>
      </trkpt>
      <trkpt lat="45.7739" lon="4.63804">
        <ele>632.8</ele>
        <time>2020-06-14T07:17:06.000Z</time>
      </trkpt>
      <trkpt lat="45.77389" lon="4.63805">
        <ele>633.2</ele>
        <time>2020-06-14T07:17:07.000Z</time>
      </trkpt>
      <trkpt lat="45.77387" lon="4.63805">
        <ele>633.2</ele>
        <time>2020-06-14T07:17:08.000Z</time>
      </trkpt>
      <trkpt lat="45.77386" lon="4.63807">
        <ele>633.6</ele>
        <time>2020-06-14T07:17:09.000Z</time>
      </trkpt>
      <trkpt lat="45.77385" lon="4.63808">
        <ele>633.6</ele>
        <time>2020-06-14T07:17:10.000Z</time>
      </trkpt>
      <trkpt lat="45.77383" lon="4.63809">
        <ele>633.8</ele>
        <time>2020-06-14T07:17:11.000Z</time>
      </trkpt>
      <trkpt lat="45.77381" lon="4.6381">
        <ele>634</ele>
        <time>2020-06-14T07:17:12.000Z</time>
      </trkpt>
      <trkpt lat="45.7738" lon="4.63811">
        <ele>634</ele>
        <time>2020-06-14T07:17:13.000Z</time>
      </trkpt>
      <trkpt lat="45.77377" lon="4.63812">
        <ele>634.2</ele>
        <time>2020-06-14T07:17:14.000Z</time>
      </trkpt>
      <trkpt lat="45.77376" lon="4.63813">
        <ele>634.4</ele>
        <time>2020-06-14T07:17:15.000Z</time>
      </trkpt>
      <trkpt lat="45.77375" lon="4.63814">
        <ele>634.4</ele>
        <time>2020-06-14T07:17:16.000Z</time>
      </trkpt>
      <trkpt lat="45.77374" lon="4.63815">
        <ele>634.6</ele>
        <time>2020-06-14T07:17:17.000Z</time>
      </trkpt>
      <trkpt lat="45.77373" lon="4.63816">
        <ele>634.8</ele>
        <time>2020-06-14T07:17:18.000Z</time>
      </trkpt>
      <trkpt lat="45.77371" lon="4.63818">
        <ele>635</ele>
        <time>2020-06-14T07:17:19.000Z</time>
      </trkpt>
      <trkpt lat="45.7737" lon="4.63819">
        <ele>635</ele>
        <time>2020-06-14T07:17:20.000Z</time>
      </trkpt>
      <trkpt lat="45.77368" lon="4.63821">
        <ele>635.2</ele>
        <time>2020-06-14T07:17:21.000Z</time>
      </trkpt>
      <trkpt lat="45.77367" lon="4.63822">
        <ele>635.4</ele>
        <time>2020-06-14T07:17:22.000Z</time>
      </trkpt>
      <trkpt lat="45.77365" lon="4.63824">
        <ele>635.8</ele>
        <time>2020-06-14T07:17:23.000Z</time>
      </trkpt>
      <trkpt lat="45.77363" lon="4.63826">
        <ele>636</ele>
        <time>2020-06-14T07:17:24.000Z</time>
      </trkpt>
      <trkpt lat="45.77362" lon="4.63827">
        <ele>636.2</ele>
        <time>2020-06-14T07:17:25.000Z</time>
      </trkpt>
      <trkpt lat="45.77361" lon="4.63829">
        <ele>636.2</ele>
        <time>2020-06-14T07:17:26.000Z</time>
      </trkpt>
      <trkpt lat="45.77359" lon="4.63831">
        <ele>636.6</ele>
        <time>2020-06-14T07:17:27.000Z</time>
      </trkpt>
      <trkpt lat="45.77356" lon="4.63832">
        <ele>636.6</ele>
        <time>2020-06-14T07:17:28.000Z</time>
      </trkpt>
      <trkpt lat="45.77354" lon="4.63832">
        <ele>636.8</ele>
        <time>2020-06-14T07:17:29.000Z</time>
      </trkpt>
      <trkpt lat="45.77351" lon="4.63832">
        <ele>637</ele>
        <time>2020-06-14T07:17:30.000Z</time>
      </trkpt>
      <trkpt lat="45.77349" lon="4.63832">
        <ele>637.2</ele>
        <time>2020-06-14T07:17:31.000Z</time>
      </trkpt>
      <trkpt lat="45.77347" lon="4.63832">
        <ele>637.2</ele>
        <time>2020-06-14T07:17:32.000Z</time>
      </trkpt>
      <trkpt lat="45.77345" lon="4.63833">
        <ele>637.2</ele>
        <time>2020-06-14T07:17:33.000Z</time>
      </trkpt>
      <trkpt lat="45.77343" lon="4.63833">
        <ele>637.4</ele>
        <time>2020-06-14T07:17:34.000Z</time>
      </trkpt>
      <trkpt lat="45.77341" lon="4.63834">
        <ele>637.4</ele>
        <time>2020-06-14T07:17:35.000Z</time>
      </trkpt>
      <trkpt lat="45.77338" lon="4.63834">
        <ele>637.8</ele>
        <time>2020-06-14T07:17:36.000Z</time>
      </trkpt>
      <trkpt lat="45.77336" lon="4.63835">
        <ele>638</ele>
        <time>2020-06-14T07:17:37.000Z</time>
      </trkpt>
      <trkpt lat="45.77333" lon="4.63835">
        <ele>638.4</ele>
        <time>2020-06-14T07:17:38.000Z</time>
      </trkpt>
      <trkpt lat="45.77331" lon="4.63835">
        <ele>638.6</ele>
        <time>2020-06-14T07:17:39.000Z</time>
      </trkpt>
      <trkpt lat="45.77329" lon="4.63835">
        <ele>639</ele>
        <time>2020-06-14T07:17:40.000Z</time>
      </trkpt>
      <trkpt lat="45.77328" lon="4.63835">
        <ele>639</ele>
        <time>2020-06-14T07:17:41.000Z</time>
      </trkpt>
      <trkpt lat="45.77326" lon="4.63836">
        <ele>639.4</ele>
        <time>2020-06-14T07:17:42.000Z</time>
      </trkpt>
      <trkpt lat="45.77325" lon="4.63836">
        <ele>639.6</ele>
        <time>2020-06-14T07:17:43.000Z</time>
      </trkpt>
      <trkpt lat="45.77324" lon="4.63836">
        <ele>640</ele>
        <time>2020-06-14T07:17:44.000Z</time>
      </trkpt>
      <trkpt lat="45.77322" lon="4.63836">
        <ele>640.2</ele>
        <time>2020-06-14T07:17:45.000Z</time>
      </trkpt>
      <trkpt lat="45.77321" lon="4.63836">
        <ele>640.4</ele>
        <time>2020-06-14T07:17:46.000Z</time>
      </trkpt>
      <trkpt lat="45.7732" lon="4.63836">
        <ele>640.6</ele>
        <time>2020-06-14T07:17:47.000Z</time>
      </trkpt>
      <trkpt lat="45.77319" lon="4.63835">
        <ele>640.8</ele>
        <time>2020-06-14T07:17:48.000Z</time>
      </trkpt>
      <trkpt lat="45.77318" lon="4.63835">
        <ele>641</ele>
        <time>2020-06-14T07:17:49.000Z</time>
      </trkpt>
      <trkpt lat="45.77316" lon="4.63835">
        <ele>641.4</ele>
        <time>2020-06-14T07:17:50.000Z</time>
      </trkpt>
      <trkpt lat="45.77315" lon="4.63834">
        <ele>641.4</ele>
        <time>2020-06-14T07:17:51.000Z</time>
      </trkpt>
      <trkpt lat="45.77314" lon="4.63833">
        <ele>641.6</ele>
        <time>2020-06-14T07:17:52.000Z</time>
      </trkpt>
      <trkpt lat="45.77313" lon="4.63833">
        <ele>641.6</ele>
        <time>2020-06-14T07:17:53.000Z</time>
      </trkpt>
      <trkpt lat="45.77311" lon="4.63832">
        <ele>641.8</ele>
        <time>2020-06-14T07:17:54.000Z</time>
      </trkpt>
      <trkpt lat="45.7731" lon="4.63831">
        <ele>642</ele>
        <time>2020-06-14T07:17:55.000Z</time>
      </trkpt>
      <trkpt lat="45.7731" lon="4.63831">
        <ele>642.2</ele>
        <time>2020-06-14T07:17:56.000Z</time>
      </trkpt>
      <trkpt lat="45.77308" lon="4.63829">
        <ele>642.4</ele>
        <time>2020-06-14T07:17:57.000Z</time>
      </trkpt>
      <trkpt lat="45.77306" lon="4.63828">
        <ele>642.6</ele>
        <time>2020-06-14T07:17:58.000Z</time>
      </trkpt>
      <trkpt lat="45.77305" lon="4.63827">
        <ele>642.8</ele>
        <time>2020-06-14T07:17:59.000Z</time>
      </trkpt>
      <trkpt lat="45.77304" lon="4.63826">
        <ele>643</ele>
        <time>2020-06-14T07:18:00.000Z</time>
      </trkpt>
      <trkpt lat="45.77303" lon="4.63825">
        <ele>643.4</ele>
        <time>2020-06-14T07:18:01.000Z</time>
      </trkpt>
      <trkpt lat="45.77301" lon="4.63824">
        <ele>643.4</ele>
        <time>2020-06-14T07:18:02.000Z</time>
      </trkpt>
      <trkpt lat="45.77299" lon="4.63823">
        <ele>643.6</ele>
        <time>2020-06-14T07:18:03.000Z</time>
      </trkpt>
      <trkpt lat="45.77298" lon="4.63823">
        <ele>644</ele>
        <time>2020-06-14T07:18:04.000Z</time>
      </trkpt>
      <trkpt lat="45.77296" lon="4.63821">
        <ele>644.2</ele>
        <time>2020-06-14T07:18:05.000Z</time>
      </trkpt>
      <trkpt lat="45.77294" lon="4.63821">
        <ele>644.4</ele>
        <time>2020-06-14T07:18:06.000Z</time>
      </trkpt>
      <trkpt lat="45.77292" lon="4.6382">
        <ele>644.6</ele>
        <time>2020-06-14T07:18:07.000Z</time>
      </trkpt>
      <trkpt lat="45.77289" lon="4.63819">
        <ele>645.2</ele>
        <time>2020-06-14T07:18:08.000Z</time>
      </trkpt>
      <trkpt lat="45.77287" lon="4.63818">
        <ele>645.6</ele>
        <time>2020-06-14T07:18:09.000Z</time>
      </trkpt>
      <trkpt lat="45.77285" lon="4.63816">
        <ele>645.8</ele>
        <time>2020-06-14T07:18:10.000Z</time>
      </trkpt>
      <trkpt lat="45.77282" lon="4.63815">
        <ele>645.8</ele>
        <time>2020-06-14T07:18:11.000Z</time>
      </trkpt>
      <trkpt lat="45.77278" lon="4.63814">
        <ele>646</ele>
        <time>2020-06-14T07:18:12.000Z</time>
      </trkpt>
      <trkpt lat="45.77275" lon="4.63813">
        <ele>646</ele>
        <time>2020-06-14T07:18:13.000Z</time>
      </trkpt>
      <trkpt lat="45.77273" lon="4.63812">
        <ele>646</ele>
        <time>2020-06-14T07:18:14.000Z</time>
      </trkpt>
      <trkpt lat="45.7727" lon="4.63811">
        <ele>646.4</ele>
        <time>2020-06-14T07:18:15.000Z</time>
      </trkpt>
      <trkpt lat="45.77268" lon="4.63809">
        <ele>646.6</ele>
        <time>2020-06-14T07:18:16.000Z</time>
      </trkpt>
      <trkpt lat="45.77267" lon="4.63807">
        <ele>646.8</ele>
        <time>2020-06-14T07:18:17.000Z</time>
      </trkpt>
      <trkpt lat="45.77266" lon="4.63806">
        <ele>646.8</ele>
        <time>2020-06-14T07:18:18.000Z</time>
      </trkpt>
      <trkpt lat="45.77264" lon="4.63805">
        <ele>647.2</ele>
        <time>2020-06-14T07:18:19.000Z</time>
      </trkpt>
      <trkpt lat="45.77263" lon="4.63804">
        <ele>647.4</ele>
        <time>2020-06-14T07:18:20.000Z</time>
      </trkpt>
      <trkpt lat="45.77261" lon="4.63802">
        <ele>647.6</ele>
        <time>2020-06-14T07:18:21.000Z</time>
      </trkpt>
      <trkpt lat="45.7726" lon="4.638">
        <ele>647.8</ele>
        <time>2020-06-14T07:18:22.000Z</time>
      </trkpt>
      <trkpt lat="45.77258" lon="4.63799">
        <ele>648</ele>
        <time>2020-06-14T07:18:23.000Z</time>
      </trkpt>
      <trkpt lat="45.77257" lon="4.63797">
        <ele>648.2</ele>
        <time>2020-06-14T07:18:24.000Z</time>
      </trkpt>
      <trkpt lat="45.77256" lon="4.63796">
        <ele>648.2</ele>
        <time>2020-06-14T07:18:25.000Z</time>
      </trkpt>
      <trkpt lat="45.77255" lon="4.63795">
        <ele>648.6</ele>
        <time>2020-06-14T07:18:26.000Z</time>
      </trkpt>
      <trkpt lat="45.77254" lon="4.63793">
        <ele>649</ele>
        <time>2020-06-14T07:18:27.000Z</time>
      </trkpt>
      <trkpt lat="45.77253" lon="4.63792">
        <ele>648.8</ele>
        <time>2020-06-14T07:18:28.000Z</time>
      </trkpt>
      <trkpt lat="45.77253" lon="4.6379">
        <ele>649.2</ele>
        <time>2020-06-14T07:18:29.000Z</time>
      </trkpt>
      <trkpt lat="45.77252" lon="4.63789">
        <ele>649.2</ele>
        <time>2020-06-14T07:18:30.000Z</time>
      </trkpt>
      <trkpt lat="45.77252" lon="4.63787">
        <ele>649.6</ele>
        <time>2020-06-14T07:18:31.000Z</time>
      </trkpt>
      <trkpt lat="45.77251" lon="4.63785">
        <ele>649.8</ele>
        <time>2020-06-14T07:18:32.000Z</time>
      </trkpt>
      <trkpt lat="45.7725" lon="4.63784">
        <ele>649.8</ele>
        <time>2020-06-14T07:18:33.000Z</time>
      </trkpt>
      <trkpt lat="45.77249" lon="4.63782">
        <ele>649.8</ele>
        <time>2020-06-14T07:18:34.000Z</time>
      </trkpt>
      <trkpt lat="45.77249" lon="4.6378">
        <ele>650</ele>
        <time>2020-06-14T07:18:35.000Z</time>
      </trkpt>
      <trkpt lat="45.77248" lon="4.63778">
        <ele>650.2</ele>
        <time>2020-06-14T07:18:36.000Z</time>
      </trkpt>
      <trkpt lat="45.77248" lon="4.63775">
        <ele>650.4</ele>
        <time>2020-06-14T07:18:37.000Z</time>
      </trkpt>
      <trkpt lat="45.77247" lon="4.63773">
        <ele>650.6</ele>
        <time>2020-06-14T07:18:38.000Z</time>
      </trkpt>
      <trkpt lat="45.77247" lon="4.63771">
        <ele>650.8</ele>
        <time>2020-06-14T07:18:39.000Z</time>
      </trkpt>
      <trkpt lat="45.77247" lon="4.63769">
        <ele>651</ele>
        <time>2020-06-14T07:18:40.000Z</time>
      </trkpt>
      <trkpt lat="45.77246" lon="4.63768">
        <ele>651.2</ele>
        <time>2020-06-14T07:18:41.000Z</time>
      </trkpt>
      <trkpt lat="45.77246" lon="4.63766">
        <ele>651.4</ele>
        <time>2020-06-14T07:18:42.000Z</time>
      </trkpt>
      <trkpt lat="45.77246" lon="4.63764">
        <ele>651.6</ele>
        <time>2020-06-14T07:18:43.000Z</time>
      </trkpt>
      <trkpt lat="45.77245" lon="4.63762">
        <ele>651.8</ele>
        <time>2020-06-14T07:18:44.000Z</time>
      </trkpt>
      <trkpt lat="45.77243" lon="4.6376">
        <ele>652.2</ele>
        <time>2020-06-14T07:18:45.000Z</time>
      </trkpt>
      <trkpt lat="45.77243" lon="4.63758">
        <ele>652.4</ele>
        <time>2020-06-14T07:18:46.000Z</time>
      </trkpt>
      <trkpt lat="45.77242" lon="4.63757">
        <ele>652.6</ele>
        <time>2020-06-14T07:18:47.000Z</time>
      </trkpt>
      <trkpt lat="45.77241" lon="4.63756">
        <ele>652.8</ele>
        <time>2020-06-14T07:18:48.000Z</time>
      </trkpt>
      <trkpt lat="45.7724" lon="4.63755">
        <ele>653.2</ele>
        <time>2020-06-14T07:18:49.000Z</time>
      </trkpt>
      <trkpt lat="45.77239" lon="4.63753">
        <ele>653.4</ele>
        <time>2020-06-14T07:18:50.000Z</time>
      </trkpt>
      <trkpt lat="45.77238" lon="4.63752">
        <ele>653.6</ele>
        <time>2020-06-14T07:18:51.000Z</time>
      </trkpt>
      <trkpt lat="45.77237" lon="4.63751">
        <ele>654</ele>
        <time>2020-06-14T07:18:52.000Z</time>
      </trkpt>
      <trkpt lat="45.77237" lon="4.63749">
        <ele>654.2</ele>
        <time>2020-06-14T07:18:53.000Z</time>
      </trkpt>
      <trkpt lat="45.77236" lon="4.63748">
        <ele>654.2</ele>
        <time>2020-06-14T07:18:54.000Z</time>
      </trkpt>
      <trkpt lat="45.77235" lon="4.63746">
        <ele>654.2</ele>
        <time>2020-06-14T07:18:55.000Z</time>
      </trkpt>
      <trkpt lat="45.77235" lon="4.63745">
        <ele>654.6</ele>
        <time>2020-06-14T07:18:56.000Z</time>
      </trkpt>
      <trkpt lat="45.77234" lon="4.63744">
        <ele>654.8</ele>
        <time>2020-06-14T07:18:57.000Z</time>
      </trkpt>
      <trkpt lat="45.77233" lon="4.63743">
        <ele>655.2</ele>
        <time>2020-06-14T07:18:58.000Z</time>
      </trkpt>
      <trkpt lat="45.77233" lon="4.63742">
        <ele>655.2</ele>
        <time>2020-06-14T07:18:59.000Z</time>
      </trkpt>
      <trkpt lat="45.77233" lon="4.63741">
        <ele>655.4</ele>
        <time>2020-06-14T07:19:00.000Z</time>
      </trkpt>
      <trkpt lat="45.77232" lon="4.63739">
        <ele>655.8</ele>
        <time>2020-06-14T07:19:01.000Z</time>
      </trkpt>
      <trkpt lat="45.77227" lon="4.63735">
        <ele>658</ele>
        <time>2020-06-14T07:19:14.000Z</time>
      </trkpt>
      <trkpt lat="45.77226" lon="4.63735">
        <ele>658</ele>
        <time>2020-06-14T07:19:15.000Z</time>
      </trkpt>
      <trkpt lat="45.77225" lon="4.63735">
        <ele>658</ele>
        <time>2020-06-14T07:19:16.000Z</time>
      </trkpt>
      <trkpt lat="45.77224" lon="4.63736">
        <ele>658</ele>
        <time>2020-06-14T07:19:17.000Z</time>
      </trkpt>
      <trkpt lat="45.77223" lon="4.63736">
        <ele>658</ele>
        <time>2020-06-14T07:19:18.000Z</time>
      </trkpt>
      <trkpt lat="45.77222" lon="4.63735">
        <ele>658</ele>
        <time>2020-06-14T07:19:19.000Z</time>
      </trkpt>
      <trkpt lat="45.77222" lon="4.63736">
        <ele>658.2</ele>
        <time>2020-06-14T07:19:20.000Z</time>
      </trkpt>
      <trkpt lat="45.77221" lon="4.63736">
        <ele>658.2</ele>
        <time>2020-06-14T07:19:21.000Z</time>
      </trkpt>
      <trkpt lat="45.77221" lon="4.63735">
        <ele>658</ele>
        <time>2020-06-14T07:19:22.000Z</time>
      </trkpt>
      <trkpt lat="45.7721" lon="4.63731">
        <ele>659.8</ele>
        <time>2020-06-14T07:19:52.000Z</time>
      </trkpt>
      <trkpt lat="45.7721" lon="4.6373">
        <ele>659.8</ele>
        <time>2020-06-14T07:19:53.000Z</time>
      </trkpt>
      <trkpt lat="45.77209" lon="4.6373">
        <ele>659.6</ele>
        <time>2020-06-14T07:19:54.000Z</time>
      </trkpt>
      <trkpt lat="45.77206" lon="4.63729">
        <ele>659.8</ele>
        <time>2020-06-14T07:19:56.000Z</time>
      </trkpt>
      <trkpt lat="45.77205" lon="4.6373">
        <ele>659.8</ele>
        <time>2020-06-14T07:19:57.000Z</time>
      </trkpt>
      <trkpt lat="45.77204" lon="4.63729">
        <ele>659.8</ele>
        <time>2020-06-14T07:19:58.000Z</time>
      </trkpt>
      <trkpt lat="45.77203" lon="4.63729">
        <ele>659.8</ele>
        <time>2020-06-14T07:19:59.000Z</time>
      </trkpt>
      <trkpt lat="45.77203" lon="4.6373">
        <ele>659.8</ele>
        <time>2020-06-14T07:20:00.000Z</time>
      </trkpt>
      <trkpt lat="45.77202" lon="4.6373">
        <ele>659.8</ele>
        <time>2020-06-14T07:20:01.000Z</time>
      </trkpt>
      <trkpt lat="45.77201" lon="4.63729">
        <ele>660</ele>
        <time>2020-06-14T07:20:02.000Z</time>
      </trkpt>
      <trkpt lat="45.772" lon="4.63729">
        <ele>660</ele>
        <time>2020-06-14T07:20:03.000Z</time>
      </trkpt>
      <trkpt lat="45.772" lon="4.63728">
        <ele>660.2</ele>
        <time>2020-06-14T07:20:04.000Z</time>
      </trkpt>
      <trkpt lat="45.77196" lon="4.6373">
        <ele>662.8</ele>
        <time>2020-06-14T07:24:18.000Z</time>
      </trkpt>
      <trkpt lat="45.77194" lon="4.63729">
        <ele>662.6</ele>
        <time>2020-06-14T07:24:19.000Z</time>
      </trkpt>
      <trkpt lat="45.77193" lon="4.63728">
        <ele>662.6</ele>
        <time>2020-06-14T07:24:20.000Z</time>
      </trkpt>
      <trkpt lat="45.77192" lon="4.63727">
        <ele>662.6</ele>
        <time>2020-06-14T07:24:21.000Z</time>
      </trkpt>
      <trkpt lat="45.77189" lon="4.63726">
        <ele>662.6</ele>
        <time>2020-06-14T07:24:22.000Z</time>
      </trkpt>
      <trkpt lat="45.77187" lon="4.63725">
        <ele>662.6</ele>
        <time>2020-06-14T07:24:23.000Z</time>
      </trkpt>
      <trkpt lat="45.77186" lon="4.63725">
        <ele>662.8</ele>
        <time>2020-06-14T07:24:24.000Z</time>
      </trkpt>
      <trkpt lat="45.77184" lon="4.63724">
        <ele>662.8</ele>
        <time>2020-06-14T07:24:25.000Z</time>
      </trkpt>
      <trkpt lat="45.77183" lon="4.63723">
        <ele>663.2</ele>
        <time>2020-06-14T07:24:26.000Z</time>
      </trkpt>
      <trkpt lat="45.77182" lon="4.63722">
        <ele>663.4</ele>
        <time>2020-06-14T07:24:27.000Z</time>
      </trkpt>
      <trkpt lat="45.7718" lon="4.63721">
        <ele>663.8</ele>
        <time>2020-06-14T07:24:28.000Z</time>
      </trkpt>
      <trkpt lat="45.77178" lon="4.6372">
        <ele>664.2</ele>
        <time>2020-06-14T07:24:29.000Z</time>
      </trkpt>
      <trkpt lat="45.77176" lon="4.63719">
        <ele>664.6</ele>
        <time>2020-06-14T07:24:30.000Z</time>
      </trkpt>
      <trkpt lat="45.77175" lon="4.63719">
        <ele>664.8</ele>
        <time>2020-06-14T07:24:31.000Z</time>
      </trkpt>
      <trkpt lat="45.77172" lon="4.63718">
        <ele>665</ele>
        <time>2020-06-14T07:24:32.000Z</time>
      </trkpt>
      <trkpt lat="45.77171" lon="4.63717">
        <ele>665.2</ele>
        <time>2020-06-14T07:24:33.000Z</time>
      </trkpt>
      <trkpt lat="45.77169" lon="4.63717">
        <ele>665.4</ele>
        <time>2020-06-14T07:24:34.000Z</time>
      </trkpt>
      <trkpt lat="45.77168" lon="4.63716">
        <ele>665.6</ele>
        <time>2020-06-14T07:24:35.000Z</time>
      </trkpt>
      <trkpt lat="45.77167" lon="4.63715">
        <ele>665.8</ele>
        <time>2020-06-14T07:24:36.000Z</time>
      </trkpt>
      <trkpt lat="45.77165" lon="4.63715">
        <ele>666.2</ele>
        <time>2020-06-14T07:24:37.000Z</time>
      </trkpt>
      <trkpt lat="45.77164" lon="4.63714">
        <ele>666.2</ele>
        <time>2020-06-14T07:24:38.000Z</time>
      </trkpt>
      <trkpt lat="45.77162" lon="4.63712">
        <ele>666.6</ele>
        <time>2020-06-14T07:24:39.000Z</time>
      </trkpt>
      <trkpt lat="45.7716" lon="4.63711">
        <ele>667</ele>
        <time>2020-06-14T07:24:40.000Z</time>
      </trkpt>
      <trkpt lat="45.77158" lon="4.63711">
        <ele>667.2</ele>
        <time>2020-06-14T07:24:41.000Z</time>
      </trkpt>
      <trkpt lat="45.77157" lon="4.63711">
        <ele>667.8</ele>
        <time>2020-06-14T07:24:42.000Z</time>
      </trkpt>
      <trkpt lat="45.77156" lon="4.63711">
        <ele>668</ele>
        <time>2020-06-14T07:24:43.000Z</time>
      </trkpt>
      <trkpt lat="45.77154" lon="4.6371">
        <ele>668.4</ele>
        <time>2020-06-14T07:24:44.000Z</time>
      </trkpt>
      <trkpt lat="45.77153" lon="4.6371">
        <ele>669</ele>
        <time>2020-06-14T07:24:45.000Z</time>
      </trkpt>
      <trkpt lat="45.77151" lon="4.63709">
        <ele>669.4</ele>
        <time>2020-06-14T07:24:46.000Z</time>
      </trkpt>
      <trkpt lat="45.7715" lon="4.63708">
        <ele>669.6</ele>
        <time>2020-06-14T07:24:47.000Z</time>
      </trkpt>
      <trkpt lat="45.77149" lon="4.63708">
        <ele>670</ele>
        <time>2020-06-14T07:24:48.000Z</time>
      </trkpt>
      <trkpt lat="45.77148" lon="4.63708">
        <ele>670.2</ele>
        <time>2020-06-14T07:24:49.000Z</time>
      </trkpt>
      <trkpt lat="45.77147" lon="4.63708">
        <ele>670.6</ele>
        <time>2020-06-14T07:24:50.000Z</time>
      </trkpt>
      <trkpt lat="45.77146" lon="4.63708">
        <ele>670.8</ele>
        <time>2020-06-14T07:24:51.000Z</time>
      </trkpt>
      <trkpt lat="45.77144" lon="4.63708">
        <ele>671.2</ele>
        <time>2020-06-14T07:24:52.000Z</time>
      </trkpt>
      <trkpt lat="45.77143" lon="4.63709">
        <ele>671.6</ele>
        <time>2020-06-14T07:24:53.000Z</time>
      </trkpt>
      <trkpt lat="45.77142" lon="4.63709">
        <ele>671.8</ele>
        <time>2020-06-14T07:24:54.000Z</time>
      </trkpt>
      <trkpt lat="45.77141" lon="4.63709">
        <ele>672</ele>
        <time>2020-06-14T07:24:55.000Z</time>
      </trkpt>
      <trkpt lat="45.7714" lon="4.63709">
        <ele>672.4</ele>
        <time>2020-06-14T07:24:56.000Z</time>
      </trkpt>
      <trkpt lat="45.77139" lon="4.63708">
        <ele>672.6</ele>
        <time>2020-06-14T07:24:57.000Z</time>
      </trkpt>
      <trkpt lat="45.77137" lon="4.63708">
        <ele>672.6</ele>
        <time>2020-06-14T07:24:58.000Z</time>
      </trkpt>
      <trkpt lat="45.77135" lon="4.63708">
        <ele>672.8</ele>
        <time>2020-06-14T07:24:59.000Z</time>
      </trkpt>
      <trkpt lat="45.77133" lon="4.63708">
        <ele>673.2</ele>
        <time>2020-06-14T07:25:00.000Z</time>
      </trkpt>
      <trkpt lat="45.77131" lon="4.63708">
        <ele>673.4</ele>
        <time>2020-06-14T07:25:01.000Z</time>
      </trkpt>
      <trkpt lat="45.7713" lon="4.63707">
        <ele>673.6</ele>
        <time>2020-06-14T07:25:02.000Z</time>
      </trkpt>
      <trkpt lat="45.77128" lon="4.63707">
        <ele>673.8</ele>
        <time>2020-06-14T07:25:03.000Z</time>
      </trkpt>
      <trkpt lat="45.77127" lon="4.63707">
        <ele>674</ele>
        <time>2020-06-14T07:25:04.000Z</time>
      </trkpt>
      <trkpt lat="45.77125" lon="4.63706">
        <ele>674.2</ele>
        <time>2020-06-14T07:25:05.000Z</time>
      </trkpt>
      <trkpt lat="45.77123" lon="4.63706">
        <ele>674.4</ele>
        <time>2020-06-14T07:25:06.000Z</time>
      </trkpt>
      <trkpt lat="45.77121" lon="4.63705">
        <ele>674.6</ele>
        <time>2020-06-14T07:25:07.000Z</time>
      </trkpt>
      <trkpt lat="45.7712" lon="4.63705">
        <ele>674.8</ele>
        <time>2020-06-14T07:25:08.000Z</time>
      </trkpt>
      <trkpt lat="45.77118" lon="4.63705">
        <ele>675</ele>
        <time>2020-06-14T07:25:09.000Z</time>
      </trkpt>
      <trkpt lat="45.77117" lon="4.63704">
        <ele>675.2</ele>
        <time>2020-06-14T07:25:10.000Z</time>
      </trkpt>
      <trkpt lat="45.77116" lon="4.63704">
        <ele>675.4</ele>
        <time>2020-06-14T07:25:11.000Z</time>
      </trkpt>
      <trkpt lat="45.77115" lon="4.63703">
        <ele>675.6</ele>
        <time>2020-06-14T07:25:12.000Z</time>
      </trkpt>
      <trkpt lat="45.77113" lon="4.63703">
        <ele>676</ele>
        <time>2020-06-14T07:25:13.000Z</time>
      </trkpt>
      <trkpt lat="45.77112" lon="4.63702">
        <ele>676.2</ele>
        <time>2020-06-14T07:25:14.000Z</time>
      </trkpt>
      <trkpt lat="45.7711" lon="4.63701">
        <ele>676.4</ele>
        <time>2020-06-14T07:25:15.000Z</time>
      </trkpt>
      <trkpt lat="45.77109" lon="4.63701">
        <ele>676.4</ele>
        <time>2020-06-14T07:25:16.000Z</time>
      </trkpt>
      <trkpt lat="45.77108" lon="4.637">
        <ele>676.6</ele>
        <time>2020-06-14T07:25:17.000Z</time>
      </trkpt>
      <trkpt lat="45.77106" lon="4.63699">
        <ele>676.6</ele>
        <time>2020-06-14T07:25:18.000Z</time>
      </trkpt>
      <trkpt lat="45.77104" lon="4.63699">
        <ele>676.8</ele>
        <time>2020-06-14T07:25:19.000Z</time>
      </trkpt>
      <trkpt lat="45.77103" lon="4.63698">
        <ele>676.8</ele>
        <time>2020-06-14T07:25:20.000Z</time>
      </trkpt>
      <trkpt lat="45.77101" lon="4.63697">
        <ele>677</ele>
        <time>2020-06-14T07:25:21.000Z</time>
      </trkpt>
      <trkpt lat="45.77099" lon="4.63696">
        <ele>677.2</ele>
        <time>2020-06-14T07:25:22.000Z</time>
      </trkpt>
      <trkpt lat="45.77097" lon="4.63696">
        <ele>677.2</ele>
        <time>2020-06-14T07:25:23.000Z</time>
      </trkpt>
      <trkpt lat="45.77095" lon="4.63695">
        <ele>677.4</ele>
        <time>2020-06-14T07:25:24.000Z</time>
      </trkpt>
      <trkpt lat="45.77094" lon="4.63695">
        <ele>677.6</ele>
        <time>2020-06-14T07:25:25.000Z</time>
      </trkpt>
      <trkpt lat="45.77092" lon="4.63694">
        <ele>677.8</ele>
        <time>2020-06-14T07:25:26.000Z</time>
      </trkpt>
      <trkpt lat="45.7709" lon="4.63693">
        <ele>678.2</ele>
        <time>2020-06-14T07:25:27.000Z</time>
      </trkpt>
      <trkpt lat="45.77088" lon="4.63694">
        <ele>678.2</ele>
        <time>2020-06-14T07:25:28.000Z</time>
      </trkpt>
      <trkpt lat="45.77087" lon="4.63694">
        <ele>678.4</ele>
        <time>2020-06-14T07:25:29.000Z</time>
      </trkpt>
      <trkpt lat="45.77085" lon="4.63695">
        <ele>678.6</ele>
        <time>2020-06-14T07:25:30.000Z</time>
      </trkpt>
      <trkpt lat="45.77083" lon="4.63695">
        <ele>679</ele>
        <time>2020-06-14T07:25:31.000Z</time>
      </trkpt>
      <trkpt lat="45.77082" lon="4.63695">
        <ele>678.8</ele>
        <time>2020-06-14T07:25:32.000Z</time>
      </trkpt>
      <trkpt lat="45.77081" lon="4.63694">
        <ele>679.2</ele>
        <time>2020-06-14T07:25:33.000Z</time>
      </trkpt>
      <trkpt lat="45.7708" lon="4.63694">
        <ele>679.4</ele>
        <time>2020-06-14T07:25:34.000Z</time>
      </trkpt>
      <trkpt lat="45.77079" lon="4.63693">
        <ele>679.6</ele>
        <time>2020-06-14T07:25:35.000Z</time>
      </trkpt>
      <trkpt lat="45.77078" lon="4.63692">
        <ele>679.8</ele>
        <time>2020-06-14T07:25:36.000Z</time>
      </trkpt>
      <trkpt lat="45.77077" lon="4.63692">
        <ele>680</ele>
        <time>2020-06-14T07:25:37.000Z</time>
      </trkpt>
      <trkpt lat="45.77076" lon="4.63691">
        <ele>680</ele>
        <time>2020-06-14T07:25:38.000Z</time>
      </trkpt>
      <trkpt lat="45.77075" lon="4.63691">
        <ele>680.2</ele>
        <time>2020-06-14T07:25:39.000Z</time>
      </trkpt>
      <trkpt lat="45.77074" lon="4.63691">
        <ele>680.6</ele>
        <time>2020-06-14T07:25:40.000Z</time>
      </trkpt>
      <trkpt lat="45.77073" lon="4.6369">
        <ele>680.6</ele>
        <time>2020-06-14T07:25:41.000Z</time>
      </trkpt>
      <trkpt lat="45.77072" lon="4.6369">
        <ele>681</ele>
        <time>2020-06-14T07:25:42.000Z</time>
      </trkpt>
      <trkpt lat="45.77071" lon="4.63689">
        <ele>681.2</ele>
        <time>2020-06-14T07:25:43.000Z</time>
      </trkpt>
      <trkpt lat="45.77071" lon="4.63689">
        <ele>681.4</ele>
        <time>2020-06-14T07:25:44.000Z</time>
      </trkpt>
      <trkpt lat="45.7707" lon="4.6369">
        <ele>681.4</ele>
        <time>2020-06-14T07:25:45.000Z</time>
      </trkpt>
      <trkpt lat="45.77067" lon="4.6369">
        <ele>681.8</ele>
        <time>2020-06-14T07:25:46.000Z</time>
      </trkpt>
      <trkpt lat="45.77066" lon="4.6369">
        <ele>682</ele>
        <time>2020-06-14T07:25:47.000Z</time>
      </trkpt>
      <trkpt lat="45.77064" lon="4.63691">
        <ele>682</ele>
        <time>2020-06-14T07:25:48.000Z</time>
      </trkpt>
      <trkpt lat="45.77063" lon="4.63691">
        <ele>682.4</ele>
        <time>2020-06-14T07:25:49.000Z</time>
      </trkpt>
      <trkpt lat="45.7706" lon="4.63691">
        <ele>682.8</ele>
        <time>2020-06-14T07:25:50.000Z</time>
      </trkpt>
      <trkpt lat="45.77058" lon="4.63691">
        <ele>683</ele>
        <time>2020-06-14T07:25:51.000Z</time>
      </trkpt>
      <trkpt lat="45.77056" lon="4.6369">
        <ele>683</ele>
        <time>2020-06-14T07:25:52.000Z</time>
      </trkpt>
      <trkpt lat="45.77054" lon="4.6369">
        <ele>683.4</ele>
        <time>2020-06-14T07:25:53.000Z</time>
      </trkpt>
      <trkpt lat="45.77053" lon="4.63691">
        <ele>683.2</ele>
        <time>2020-06-14T07:25:54.000Z</time>
      </trkpt>
      <trkpt lat="45.77052" lon="4.63691">
        <ele>683.4</ele>
        <time>2020-06-14T07:25:55.000Z</time>
      </trkpt>
      <trkpt lat="45.77051" lon="4.6369">
        <ele>683.8</ele>
        <time>2020-06-14T07:25:56.000Z</time>
      </trkpt>
      <trkpt lat="45.77049" lon="4.6369">
        <ele>684</ele>
        <time>2020-06-14T07:25:57.000Z</time>
      </trkpt>
      <trkpt lat="45.77048" lon="4.6369">
        <ele>684</ele>
        <time>2020-06-14T07:25:58.000Z</time>
      </trkpt>
      <trkpt lat="45.77047" lon="4.63689">
        <ele>684.2</ele>
        <time>2020-06-14T07:25:59.000Z</time>
      </trkpt>
      <trkpt lat="45.77045" lon="4.63689">
        <ele>684.2</ele>
        <time>2020-06-14T07:26:00.000Z</time>
      </trkpt>
      <trkpt lat="45.77044" lon="4.63688">
        <ele>684.4</ele>
        <time>2020-06-14T07:26:01.000Z</time>
      </trkpt>
      <trkpt lat="45.77042" lon="4.63688">
        <ele>684.4</ele>
        <time>2020-06-14T07:26:02.000Z</time>
      </trkpt>
      <trkpt lat="45.77039" lon="4.63688">
        <ele>684.6</ele>
        <time>2020-06-14T07:26:03.000Z</time>
      </trkpt>
      <trkpt lat="45.77038" lon="4.63687">
        <ele>685</ele>
        <time>2020-06-14T07:26:04.000Z</time>
      </trkpt>
      <trkpt lat="45.77036" lon="4.63688">
        <ele>685.4</ele>
        <time>2020-06-14T07:26:05.000Z</time>
      </trkpt>
      <trkpt lat="45.77035" lon="4.63687">
        <ele>685.6</ele>
        <time>2020-06-14T07:26:06.000Z</time>
      </trkpt>
      <trkpt lat="45.77033" lon="4.63687">
        <ele>685.8</ele>
        <time>2020-06-14T07:26:07.000Z</time>
      </trkpt>
      <trkpt lat="45.77032" lon="4.63687">
        <ele>685.8</ele>
        <time>2020-06-14T07:26:08.000Z</time>
      </trkpt>
      <trkpt lat="45.77031" lon="4.63687">
        <ele>686.2</ele>
        <time>2020-06-14T07:26:09.000Z</time>
      </trkpt>
      <trkpt lat="45.7703" lon="4.63687">
        <ele>686.2</ele>
        <time>2020-06-14T07:26:10.000Z</time>
      </trkpt>
      <trkpt lat="45.77028" lon="4.63686">
        <ele>686.4</ele>
        <time>2020-06-14T07:26:11.000Z</time>
      </trkpt>
      <trkpt lat="45.77027" lon="4.63686">
        <ele>686.8</ele>
        <time>2020-06-14T07:26:12.000Z</time>
      </trkpt>
      <trkpt lat="45.77025" lon="4.63686">
        <ele>687</ele>
        <time>2020-06-14T07:26:13.000Z</time>
      </trkpt>
      <trkpt lat="45.77023" lon="4.63686">
        <ele>687.4</ele>
        <time>2020-06-14T07:26:14.000Z</time>
      </trkpt>
      <trkpt lat="45.77022" lon="4.63686">
        <ele>687.8</ele>
        <time>2020-06-14T07:26:15.000Z</time>
      </trkpt>
      <trkpt lat="45.7702" lon="4.63686">
        <ele>688</ele>
        <time>2020-06-14T07:26:16.000Z</time>
      </trkpt>
      <trkpt lat="45.77019" lon="4.63686">
        <ele>688</ele>
        <time>2020-06-14T07:26:17.000Z</time>
      </trkpt>
      <trkpt lat="45.77018" lon="4.63686">
        <ele>688</ele>
        <time>2020-06-14T07:26:18.000Z</time>
      </trkpt>
      <trkpt lat="45.77016" lon="4.63686">
        <ele>688.2</ele>
        <time>2020-06-14T07:26:19.000Z</time>
      </trkpt>
      <trkpt lat="45.77015" lon="4.63686">
        <ele>688.4</ele>
        <time>2020-06-14T07:26:20.000Z</time>
      </trkpt>
      <trkpt lat="45.77013" lon="4.63686">
        <ele>688.8</ele>
        <time>2020-06-14T07:26:21.000Z</time>
      </trkpt>
      <trkpt lat="45.77011" lon="4.63687">
        <ele>689</ele>
        <time>2020-06-14T07:26:22.000Z</time>
      </trkpt>
      <trkpt lat="45.7701" lon="4.63687">
        <ele>689.2</ele>
        <time>2020-06-14T07:26:23.000Z</time>
      </trkpt>
      <trkpt lat="45.77009" lon="4.63687">
        <ele>689.6</ele>
        <time>2020-06-14T07:26:24.000Z</time>
      </trkpt>
      <trkpt lat="45.77008" lon="4.63687">
        <ele>689.6</ele>
        <time>2020-06-14T07:26:25.000Z</time>
      </trkpt>
      <trkpt lat="45.77007" lon="4.63687">
        <ele>689.8</ele>
        <time>2020-06-14T07:26:26.000Z</time>
      </trkpt>
      <trkpt lat="45.77005" lon="4.63686">
        <ele>690</ele>
        <time>2020-06-14T07:26:27.000Z</time>
      </trkpt>
      <trkpt lat="45.77004" lon="4.63685">
        <ele>690.2</ele>
        <time>2020-06-14T07:26:28.000Z</time>
      </trkpt>
      <trkpt lat="45.77003" lon="4.63684">
        <ele>690.2</ele>
        <time>2020-06-14T07:26:29.000Z</time>
      </trkpt>
      <trkpt lat="45.77002" lon="4.63683">
        <ele>690.8</ele>
        <time>2020-06-14T07:26:30.000Z</time>
      </trkpt>
      <trkpt lat="45.77001" lon="4.63682">
        <ele>690.8</ele>
        <time>2020-06-14T07:26:31.000Z</time>
      </trkpt>
      <trkpt lat="45.76999" lon="4.63681">
        <ele>690.8</ele>
        <time>2020-06-14T07:26:32.000Z</time>
      </trkpt>
      <trkpt lat="45.76997" lon="4.63681">
        <ele>691.2</ele>
        <time>2020-06-14T07:26:33.000Z</time>
      </trkpt>
      <trkpt lat="45.76995" lon="4.63681">
        <ele>691.2</ele>
        <time>2020-06-14T07:26:34.000Z</time>
      </trkpt>
      <trkpt lat="45.76993" lon="4.6368">
        <ele>691.6</ele>
        <time>2020-06-14T07:26:35.000Z</time>
      </trkpt>
      <trkpt lat="45.76991" lon="4.63679">
        <ele>691.6</ele>
        <time>2020-06-14T07:26:36.000Z</time>
      </trkpt>
      <trkpt lat="45.76989" lon="4.63677">
        <ele>692</ele>
        <time>2020-06-14T07:26:37.000Z</time>
      </trkpt>
      <trkpt lat="45.76986" lon="4.63676">
        <ele>692</ele>
        <time>2020-06-14T07:26:38.000Z</time>
      </trkpt>
      <trkpt lat="45.76984" lon="4.63675">
        <ele>692.4</ele>
        <time>2020-06-14T07:26:39.000Z</time>
      </trkpt>
      <trkpt lat="45.76982" lon="4.63674">
        <ele>692.6</ele>
        <time>2020-06-14T07:26:40.000Z</time>
      </trkpt>
      <trkpt lat="45.7698" lon="4.63673">
        <ele>692.6</ele>
        <time>2020-06-14T07:26:41.000Z</time>
      </trkpt>
      <trkpt lat="45.76977" lon="4.63671">
        <ele>693</ele>
        <time>2020-06-14T07:26:42.000Z</time>
      </trkpt>
      <trkpt lat="45.76975" lon="4.6367">
        <ele>693.2</ele>
        <time>2020-06-14T07:26:43.000Z</time>
      </trkpt>
      <trkpt lat="45.76973" lon="4.63669">
        <ele>693.4</ele>
        <time>2020-06-14T07:26:44.000Z</time>
      </trkpt>
      <trkpt lat="45.76971" lon="4.63669">
        <ele>693.6</ele>
        <time>2020-06-14T07:26:45.000Z</time>
      </trkpt>
      <trkpt lat="45.76969" lon="4.63668">
        <ele>693.8</ele>
        <time>2020-06-14T07:26:46.000Z</time>
      </trkpt>
      <trkpt lat="45.76967" lon="4.63667">
        <ele>694.2</ele>
        <time>2020-06-14T07:26:47.000Z</time>
      </trkpt>
      <trkpt lat="45.76965" lon="4.63665">
        <ele>694.4</ele>
        <time>2020-06-14T07:26:48.000Z</time>
      </trkpt>
      <trkpt lat="45.76964" lon="4.63663">
        <ele>694.4</ele>
        <time>2020-06-14T07:26:49.000Z</time>
      </trkpt>
      <trkpt lat="45.76962" lon="4.63661">
        <ele>694.8</ele>
        <time>2020-06-14T07:26:50.000Z</time>
      </trkpt>
      <trkpt lat="45.76961" lon="4.6366">
        <ele>694.8</ele>
        <time>2020-06-14T07:26:51.000Z</time>
      </trkpt>
      <trkpt lat="45.7696" lon="4.6366">
        <ele>695</ele>
        <time>2020-06-14T07:26:52.000Z</time>
      </trkpt>
      <trkpt lat="45.76958" lon="4.63658">
        <ele>695.2</ele>
        <time>2020-06-14T07:26:53.000Z</time>
      </trkpt>
      <trkpt lat="45.76956" lon="4.63657">
        <ele>695.4</ele>
        <time>2020-06-14T07:26:54.000Z</time>
      </trkpt>
      <trkpt lat="45.76954" lon="4.63655">
        <ele>695.6</ele>
        <time>2020-06-14T07:26:55.000Z</time>
      </trkpt>
      <trkpt lat="45.76953" lon="4.63653">
        <ele>695.8</ele>
        <time>2020-06-14T07:26:56.000Z</time>
      </trkpt>
      <trkpt lat="45.76951" lon="4.6365">
        <ele>695.8</ele>
        <time>2020-06-14T07:26:57.000Z</time>
      </trkpt>
      <trkpt lat="45.76949" lon="4.63647">
        <ele>695.8</ele>
        <time>2020-06-14T07:26:58.000Z</time>
      </trkpt>
      <trkpt lat="45.76948" lon="4.63645">
        <ele>696</ele>
        <time>2020-06-14T07:26:59.000Z</time>
      </trkpt>
      <trkpt lat="45.76946" lon="4.63642">
        <ele>696.2</ele>
        <time>2020-06-14T07:27:00.000Z</time>
      </trkpt>
      <trkpt lat="45.76945" lon="4.6364">
        <ele>696.2</ele>
        <time>2020-06-14T07:27:01.000Z</time>
      </trkpt>
      <trkpt lat="45.76944" lon="4.63637">
        <ele>696.4</ele>
        <time>2020-06-14T07:27:02.000Z</time>
      </trkpt>
      <trkpt lat="45.76942" lon="4.63635">
        <ele>696.4</ele>
        <time>2020-06-14T07:27:03.000Z</time>
      </trkpt>
      <trkpt lat="45.76941" lon="4.63633">
        <ele>696.6</ele>
        <time>2020-06-14T07:27:04.000Z</time>
      </trkpt>
      <trkpt lat="45.7694" lon="4.63631">
        <ele>696.6</ele>
        <time>2020-06-14T07:27:05.000Z</time>
      </trkpt>
      <trkpt lat="45.76938" lon="4.6363">
        <ele>696.8</ele>
        <time>2020-06-14T07:27:06.000Z</time>
      </trkpt>
      <trkpt lat="45.76937" lon="4.63628">
        <ele>696.8</ele>
        <time>2020-06-14T07:27:07.000Z</time>
      </trkpt>
      <trkpt lat="45.76936" lon="4.63627">
        <ele>697</ele>
        <time>2020-06-14T07:27:08.000Z</time>
      </trkpt>
      <trkpt lat="45.76935" lon="4.63625">
        <ele>697.4</ele>
        <time>2020-06-14T07:27:09.000Z</time>
      </trkpt>
      <trkpt lat="45.76933" lon="4.63624">
        <ele>697.6</ele>
        <time>2020-06-14T07:27:10.000Z</time>
      </trkpt>
      <trkpt lat="45.76932" lon="4.63623">
        <ele>698</ele>
        <time>2020-06-14T07:27:11.000Z</time>
      </trkpt>
      <trkpt lat="45.76931" lon="4.63622">
        <ele>698</ele>
        <time>2020-06-14T07:27:12.000Z</time>
      </trkpt>
      <trkpt lat="45.76926" lon="4.63608">
        <ele>699</ele>
        <time>2020-06-14T07:29:01.000Z</time>
      </trkpt>
      <trkpt lat="45.76926" lon="4.63606">
        <ele>698.8</ele>
        <time>2020-06-14T07:29:02.000Z</time>
      </trkpt>
      <trkpt lat="45.76927" lon="4.63605">
        <ele>699</ele>
        <time>2020-06-14T07:29:03.000Z</time>
      </trkpt>
      <trkpt lat="45.76927" lon="4.63603">
        <ele>698.8</ele>
        <time>2020-06-14T07:29:04.000Z</time>
      </trkpt>
      <trkpt lat="45.76927" lon="4.63601">
        <ele>698.8</ele>
        <time>2020-06-14T07:29:05.000Z</time>
      </trkpt>
      <trkpt lat="45.76928" lon="4.636">
        <ele>698.8</ele>
        <time>2020-06-14T07:29:06.000Z</time>
      </trkpt>
      <trkpt lat="45.76929" lon="4.63599">
        <ele>698.8</ele>
        <time>2020-06-14T07:29:07.000Z</time>
      </trkpt>
      <trkpt lat="45.76929" lon="4.63597">
        <ele>699</ele>
        <time>2020-06-14T07:29:08.000Z</time>
      </trkpt>
      <trkpt lat="45.7693" lon="4.63594">
        <ele>699</ele>
        <time>2020-06-14T07:29:09.000Z</time>
      </trkpt>
      <trkpt lat="45.76931" lon="4.63591">
        <ele>699</ele>
        <time>2020-06-14T07:29:10.000Z</time>
      </trkpt>
      <trkpt lat="45.76931" lon="4.63589">
        <ele>698.8</ele>
        <time>2020-06-14T07:29:11.000Z</time>
      </trkpt>
      <trkpt lat="45.76931" lon="4.63587">
        <ele>699</ele>
        <time>2020-06-14T07:29:12.000Z</time>
      </trkpt>
      <trkpt lat="45.76931" lon="4.63585">
        <ele>699</ele>
        <time>2020-06-14T07:29:13.000Z</time>
      </trkpt>
      <trkpt lat="45.76932" lon="4.63584">
        <ele>699.4</ele>
        <time>2020-06-14T07:29:14.000Z</time>
      </trkpt>
      <trkpt lat="45.76932" lon="4.63582">
        <ele>699.8</ele>
        <time>2020-06-14T07:29:15.000Z</time>
      </trkpt>
      <trkpt lat="45.76932" lon="4.6358">
        <ele>700</ele>
        <time>2020-06-14T07:29:16.000Z</time>
      </trkpt>
      <trkpt lat="45.76933" lon="4.63578">
        <ele>700.4</ele>
        <time>2020-06-14T07:29:17.000Z</time>
      </trkpt>
      <trkpt lat="45.76933" lon="4.63576">
        <ele>700.6</ele>
        <time>2020-06-14T07:29:18.000Z</time>
      </trkpt>
      <trkpt lat="45.76934" lon="4.63574">
        <ele>701</ele>
        <time>2020-06-14T07:29:19.000Z</time>
      </trkpt>
      <trkpt lat="45.76934" lon="4.63571">
        <ele>701.6</ele>
        <time>2020-06-14T07:29:20.000Z</time>
      </trkpt>
      <trkpt lat="45.76935" lon="4.63569">
        <ele>702</ele>
        <time>2020-06-14T07:29:21.000Z</time>
      </trkpt>
      <trkpt lat="45.76936" lon="4.63567">
        <ele>702.4</ele>
        <time>2020-06-14T07:29:22.000Z</time>
      </trkpt>
      <trkpt lat="45.76937" lon="4.63565">
        <ele>702.6</ele>
        <time>2020-06-14T07:29:23.000Z</time>
      </trkpt>
      <trkpt lat="45.76937" lon="4.63564">
        <ele>702.6</ele>
        <time>2020-06-14T07:29:24.000Z</time>
      </trkpt>
      <trkpt lat="45.76938" lon="4.63562">
        <ele>703</ele>
        <time>2020-06-14T07:29:25.000Z</time>
      </trkpt>
      <trkpt lat="45.7694" lon="4.6356">
        <ele>703.4</ele>
        <time>2020-06-14T07:29:26.000Z</time>
      </trkpt>
      <trkpt lat="45.7694" lon="4.63559">
        <ele>703.4</ele>
        <time>2020-06-14T07:29:27.000Z</time>
      </trkpt>
      <trkpt lat="45.76941" lon="4.63557">
        <ele>703.6</ele>
        <time>2020-06-14T07:29:28.000Z</time>
      </trkpt>
      <trkpt lat="45.76942" lon="4.63556">
        <ele>703.8</ele>
        <time>2020-06-14T07:29:29.000Z</time>
      </trkpt>
      <trkpt lat="45.76942" lon="4.63554">
        <ele>703.8</ele>
        <time>2020-06-14T07:29:30.000Z</time>
      </trkpt>
      <trkpt lat="45.76942" lon="4.63553">
        <ele>704</ele>
        <time>2020-06-14T07:29:31.000Z</time>
      </trkpt>
      <trkpt lat="45.76942" lon="4.63552">
        <ele>704</ele>
        <time>2020-06-14T07:29:32.000Z</time>
      </trkpt>
      <trkpt lat="45.76943" lon="4.63551">
        <ele>704.4</ele>
        <time>2020-06-14T07:29:33.000Z</time>
      </trkpt>
      <trkpt lat="45.76943" lon="4.63551">
        <ele>704.6</ele>
        <time>2020-06-14T07:29:34.000Z</time>
      </trkpt>
      <trkpt lat="45.76945" lon="4.63535">
        <ele>706.4</ele>
        <time>2020-06-14T07:29:51.000Z</time>
      </trkpt>
      <trkpt lat="45.76946" lon="4.63532">
        <ele>706.6</ele>
        <time>2020-06-14T07:29:53.000Z</time>
      </trkpt>
      <trkpt lat="45.76946" lon="4.6353">
        <ele>706.8</ele>
        <time>2020-06-14T07:29:54.000Z</time>
      </trkpt>
      <trkpt lat="45.76946" lon="4.63529">
        <ele>706.8</ele>
        <time>2020-06-14T07:29:55.000Z</time>
      </trkpt>
      <trkpt lat="45.76945" lon="4.63527">
        <ele>706.8</ele>
        <time>2020-06-14T07:29:56.000Z</time>
      </trkpt>
      <trkpt lat="45.76945" lon="4.63525">
        <ele>706.8</ele>
        <time>2020-06-14T07:29:57.000Z</time>
      </trkpt>
      <trkpt lat="45.76945" lon="4.63523">
        <ele>706.8</ele>
        <time>2020-06-14T07:29:58.000Z</time>
      </trkpt>
      <trkpt lat="45.76944" lon="4.63521">
        <ele>706.8</ele>
        <time>2020-06-14T07:29:59.000Z</time>
      </trkpt>
      <trkpt lat="45.76944" lon="4.63519">
        <ele>707</ele>
        <time>2020-06-14T07:30:00.000Z</time>
      </trkpt>
      <trkpt lat="45.76943" lon="4.63518">
        <ele>707</ele>
        <time>2020-06-14T07:30:01.000Z</time>
      </trkpt>
      <trkpt lat="45.76943" lon="4.63516">
        <ele>707.2</ele>
        <time>2020-06-14T07:30:02.000Z</time>
      </trkpt>
      <trkpt lat="45.76942" lon="4.63515">
        <ele>707.4</ele>
        <time>2020-06-14T07:30:03.000Z</time>
      </trkpt>
      <trkpt lat="45.7694" lon="4.6351">
        <ele>708</ele>
        <time>2020-06-14T07:30:06.000Z</time>
      </trkpt>
      <trkpt lat="45.7694" lon="4.63507">
        <ele>708</ele>
        <time>2020-06-14T07:30:07.000Z</time>
      </trkpt>
      <trkpt lat="45.76939" lon="4.63505">
        <ele>708.2</ele>
        <time>2020-06-14T07:30:08.000Z</time>
      </trkpt>
      <trkpt lat="45.76938" lon="4.63503">
        <ele>708.4</ele>
        <time>2020-06-14T07:30:09.000Z</time>
      </trkpt>
      <trkpt lat="45.76937" lon="4.63501">
        <ele>708.2</ele>
        <time>2020-06-14T07:30:10.000Z</time>
      </trkpt>
      <trkpt lat="45.76936" lon="4.63499">
        <ele>708.4</ele>
        <time>2020-06-14T07:30:11.000Z</time>
      </trkpt>
      <trkpt lat="45.76934" lon="4.63494">
        <ele>708.4</ele>
        <time>2020-06-14T07:30:13.000Z</time>
      </trkpt>
      <trkpt lat="45.76933" lon="4.63492">
        <ele>708.4</ele>
        <time>2020-06-14T07:30:14.000Z</time>
      </trkpt>
      <trkpt lat="45.76932" lon="4.63491">
        <ele>708.4</ele>
        <time>2020-06-14T07:30:15.000Z</time>
      </trkpt>
      <trkpt lat="45.76931" lon="4.63489">
        <ele>708.6</ele>
        <time>2020-06-14T07:30:16.000Z</time>
      </trkpt>
      <trkpt lat="45.76931" lon="4.63487">
        <ele>708.8</ele>
        <time>2020-06-14T07:30:17.000Z</time>
      </trkpt>
      <trkpt lat="45.7693" lon="4.63485">
        <ele>709</ele>
        <time>2020-06-14T07:30:18.000Z</time>
      </trkpt>
      <trkpt lat="45.7693" lon="4.63483">
        <ele>709</ele>
        <time>2020-06-14T07:30:19.000Z</time>
      </trkpt>
      <trkpt lat="45.7693" lon="4.63481">
        <ele>709</ele>
        <time>2020-06-14T07:30:20.000Z</time>
      </trkpt>
      <trkpt lat="45.76929" lon="4.63479">
        <ele>709</ele>
        <time>2020-06-14T07:30:21.000Z</time>
      </trkpt>
      <trkpt lat="45.76929" lon="4.63477">
        <ele>709.2</ele>
        <time>2020-06-14T07:30:22.000Z</time>
      </trkpt>
      <trkpt lat="45.76927" lon="4.63476">
        <ele>709.4</ele>
        <time>2020-06-14T07:30:23.000Z</time>
      </trkpt>
      <trkpt lat="45.76927" lon="4.63473">
        <ele>709.6</ele>
        <time>2020-06-14T07:30:24.000Z</time>
      </trkpt>
      <trkpt lat="45.76927" lon="4.63471">
        <ele>709.4</ele>
        <time>2020-06-14T07:30:25.000Z</time>
      </trkpt>
      <trkpt lat="45.76927" lon="4.63467">
        <ele>709.8</ele>
        <time>2020-06-14T07:30:26.000Z</time>
      </trkpt>
      <trkpt lat="45.76926" lon="4.63465">
        <ele>709.8</ele>
        <time>2020-06-14T07:30:27.000Z</time>
      </trkpt>
      <trkpt lat="45.76926" lon="4.63463">
        <ele>710</ele>
        <time>2020-06-14T07:30:28.000Z</time>
      </trkpt>
      <trkpt lat="45.76925" lon="4.63461">
        <ele>710.2</ele>
        <time>2020-06-14T07:30:29.000Z</time>
      </trkpt>
      <trkpt lat="45.76925" lon="4.63458">
        <ele>710.2</ele>
        <time>2020-06-14T07:30:30.000Z</time>
      </trkpt>
      <trkpt lat="45.76925" lon="4.63456">
        <ele>710.4</ele>
        <time>2020-06-14T07:30:31.000Z</time>
      </trkpt>
      <trkpt lat="45.76926" lon="4.63454">
        <ele>710.6</ele>
        <time>2020-06-14T07:30:32.000Z</time>
      </trkpt>
      <trkpt lat="45.76925" lon="4.63451">
        <ele>710.6</ele>
        <time>2020-06-14T07:30:33.000Z</time>
      </trkpt>
      <trkpt lat="45.76925" lon="4.63448">
        <ele>710.8</ele>
        <time>2020-06-14T07:30:34.000Z</time>
      </trkpt>
      <trkpt lat="45.76926" lon="4.63444">
        <ele>711.2</ele>
        <time>2020-06-14T07:30:35.000Z</time>
      </trkpt>
      <trkpt lat="45.76926" lon="4.63441">
        <ele>711.6</ele>
        <time>2020-06-14T07:30:36.000Z</time>
      </trkpt>
      <trkpt lat="45.76925" lon="4.63438">
        <ele>711.8</ele>
        <time>2020-06-14T07:30:37.000Z</time>
      </trkpt>
      <trkpt lat="45.76925" lon="4.63436">
        <ele>712</ele>
        <time>2020-06-14T07:30:38.000Z</time>
      </trkpt>
      <trkpt lat="45.76925" lon="4.63434">
        <ele>712.4</ele>
        <time>2020-06-14T07:30:39.000Z</time>
      </trkpt>
      <trkpt lat="45.76925" lon="4.6343">
        <ele>712.4</ele>
        <time>2020-06-14T07:30:40.000Z</time>
      </trkpt>
      <trkpt lat="45.76926" lon="4.63427">
        <ele>712.6</ele>
        <time>2020-06-14T07:30:41.000Z</time>
      </trkpt>
      <trkpt lat="45.76927" lon="4.63424">
        <ele>712.8</ele>
        <time>2020-06-14T07:30:42.000Z</time>
      </trkpt>
      <trkpt lat="45.76928" lon="4.63422">
        <ele>712.8</ele>
        <time>2020-06-14T07:30:43.000Z</time>
      </trkpt>
      <trkpt lat="45.76929" lon="4.63421">
        <ele>713</ele>
        <time>2020-06-14T07:30:44.000Z</time>
      </trkpt>
      <trkpt lat="45.76931" lon="4.63418">
        <ele>713.2</ele>
        <time>2020-06-14T07:30:45.000Z</time>
      </trkpt>
      <trkpt lat="45.76932" lon="4.63416">
        <ele>713.2</ele>
        <time>2020-06-14T07:30:46.000Z</time>
      </trkpt>
      <trkpt lat="45.76933" lon="4.63414">
        <ele>713.4</ele>
        <time>2020-06-14T07:30:47.000Z</time>
      </trkpt>
      <trkpt lat="45.76933" lon="4.63411">
        <ele>713.4</ele>
        <time>2020-06-14T07:30:48.000Z</time>
      </trkpt>
      <trkpt lat="45.76934" lon="4.63409">
        <ele>713.6</ele>
        <time>2020-06-14T07:30:49.000Z</time>
      </trkpt>
      <trkpt lat="45.76934" lon="4.63407">
        <ele>714</ele>
        <time>2020-06-14T07:30:50.000Z</time>
      </trkpt>
      <trkpt lat="45.76934" lon="4.63405">
        <ele>714.2</ele>
        <time>2020-06-14T07:30:51.000Z</time>
      </trkpt>
      <trkpt lat="45.76935" lon="4.63403">
        <ele>714.6</ele>
        <time>2020-06-14T07:30:52.000Z</time>
      </trkpt>
      <trkpt lat="45.76934" lon="4.63401">
        <ele>715.2</ele>
        <time>2020-06-14T07:30:53.000Z</time>
      </trkpt>
      <trkpt lat="45.76934" lon="4.63399">
        <ele>715.6</ele>
        <time>2020-06-14T07:30:54.000Z</time>
      </trkpt>
      <trkpt lat="45.76934" lon="4.63397">
        <ele>716</ele>
        <time>2020-06-14T07:30:55.000Z</time>
      </trkpt>
      <trkpt lat="45.76934" lon="4.63394">
        <ele>716.2</ele>
        <time>2020-06-14T07:30:56.000Z</time>
      </trkpt>
      <trkpt lat="45.76934" lon="4.63392">
        <ele>716.6</ele>
        <time>2020-06-14T07:30:57.000Z</time>
      </trkpt>
      <trkpt lat="45.76934" lon="4.63386">
        <ele>717</ele>
        <time>2020-06-14T07:30:59.000Z</time>
      </trkpt>
      <trkpt lat="45.76934" lon="4.6338">
        <ele>717.4</ele>
        <time>2020-06-14T07:31:01.000Z</time>
      </trkpt>
      <trkpt lat="45.76933" lon="4.63375">
        <ele>717.4</ele>
        <time>2020-06-14T07:31:03.000Z</time>
      </trkpt>
      <trkpt lat="45.76932" lon="4.63372">
        <ele>717.6</ele>
        <time>2020-06-14T07:31:04.000Z</time>
      </trkpt>
      <trkpt lat="45.76931" lon="4.63367">
        <ele>717.4</ele>
        <time>2020-06-14T07:31:06.000Z</time>
      </trkpt>
      <trkpt lat="45.7693" lon="4.63364">
        <ele>717.6</ele>
        <time>2020-06-14T07:31:07.000Z</time>
      </trkpt>
      <trkpt lat="45.76931" lon="4.63361">
        <ele>717.6</ele>
        <time>2020-06-14T07:31:08.000Z</time>
      </trkpt>
      <trkpt lat="45.76931" lon="4.63358">
        <ele>717.6</ele>
        <time>2020-06-14T07:31:09.000Z</time>
      </trkpt>
      <trkpt lat="45.76931" lon="4.63355">
        <ele>717.6</ele>
        <time>2020-06-14T07:31:10.000Z</time>
      </trkpt>
      <trkpt lat="45.76932" lon="4.63348">
        <ele>717.4</ele>
        <time>2020-06-14T07:31:12.000Z</time>
      </trkpt>
      <trkpt lat="45.76934" lon="4.63345">
        <ele>717.6</ele>
        <time>2020-06-14T07:31:13.000Z</time>
      </trkpt>
      <trkpt lat="45.76935" lon="4.63342">
        <ele>717.4</ele>
        <time>2020-06-14T07:31:14.000Z</time>
      </trkpt>
      <trkpt lat="45.76936" lon="4.63339">
        <ele>717.6</ele>
        <time>2020-06-14T07:31:15.000Z</time>
      </trkpt>
      <trkpt lat="45.76936" lon="4.63336">
        <ele>717.6</ele>
        <time>2020-06-14T07:31:16.000Z</time>
      </trkpt>
      <trkpt lat="45.76937" lon="4.63333">
        <ele>717.6</ele>
        <time>2020-06-14T07:31:17.000Z</time>
      </trkpt>
      <trkpt lat="45.76937" lon="4.63331">
        <ele>717.6</ele>
        <time>2020-06-14T07:31:18.000Z</time>
      </trkpt>
      <trkpt lat="45.76939" lon="4.63324">
        <ele>717.4</ele>
        <time>2020-06-14T07:31:21.000Z</time>
      </trkpt>
      <trkpt lat="45.7694" lon="4.63322">
        <ele>717.6</ele>
        <time>2020-06-14T07:31:22.000Z</time>
      </trkpt>
      <trkpt lat="45.7694" lon="4.6332">
        <ele>717.4</ele>
        <time>2020-06-14T07:31:23.000Z</time>
      </trkpt>
      <trkpt lat="45.76941" lon="4.63316">
        <ele>717.6</ele>
        <time>2020-06-14T07:31:24.000Z</time>
      </trkpt>
      <trkpt lat="45.76942" lon="4.63313">
        <ele>717.6</ele>
        <time>2020-06-14T07:31:25.000Z</time>
      </trkpt>
      <trkpt lat="45.76944" lon="4.63309">
        <ele>717.4</ele>
        <time>2020-06-14T07:31:26.000Z</time>
      </trkpt>
      <trkpt lat="45.76946" lon="4.63306">
        <ele>717.6</ele>
        <time>2020-06-14T07:31:27.000Z</time>
      </trkpt>
      <trkpt lat="45.76949" lon="4.63305">
        <ele>717.6</ele>
        <time>2020-06-14T07:31:28.000Z</time>
      </trkpt>
      <trkpt lat="45.76951" lon="4.63304">
        <ele>717.4</ele>
        <time>2020-06-14T07:31:29.000Z</time>
      </trkpt>
      <trkpt lat="45.76953" lon="4.63304">
        <ele>717.4</ele>
        <time>2020-06-14T07:31:30.000Z</time>
      </trkpt>
      <trkpt lat="45.76955" lon="4.63304">
        <ele>717.4</ele>
        <time>2020-06-14T07:31:31.000Z</time>
      </trkpt>
      <trkpt lat="45.76956" lon="4.63305">
        <ele>717.4</ele>
        <time>2020-06-14T07:31:32.000Z</time>
      </trkpt>
      <trkpt lat="45.76957" lon="4.63307">
        <ele>717.4</ele>
        <time>2020-06-14T07:31:33.000Z</time>
      </trkpt>
      <trkpt lat="45.76958" lon="4.63309">
        <ele>717.4</ele>
        <time>2020-06-14T07:31:34.000Z</time>
      </trkpt>
      <trkpt lat="45.7696" lon="4.63312">
        <ele>717.4</ele>
        <time>2020-06-14T07:31:35.000Z</time>
      </trkpt>
      <trkpt lat="45.76961" lon="4.63314">
        <ele>717.4</ele>
        <time>2020-06-14T07:31:36.000Z</time>
      </trkpt>
      <trkpt lat="45.76963" lon="4.63316">
        <ele>717.4</ele>
        <time>2020-06-14T07:31:37.000Z</time>
      </trkpt>
      <trkpt lat="45.76965" lon="4.63318">
        <ele>717.4</ele>
        <time>2020-06-14T07:31:38.000Z</time>
      </trkpt>
      <trkpt lat="45.76967" lon="4.6332">
        <ele>717.4</ele>
        <time>2020-06-14T07:31:39.000Z</time>
      </trkpt>
      <trkpt lat="45.76969" lon="4.63322">
        <ele>717.6</ele>
        <time>2020-06-14T07:31:40.000Z</time>
      </trkpt>
      <trkpt lat="45.7697" lon="4.63324">
        <ele>717.6</ele>
        <time>2020-06-14T07:31:41.000Z</time>
      </trkpt>
      <trkpt lat="45.76972" lon="4.63327">
        <ele>717.6</ele>
        <time>2020-06-14T07:31:42.000Z</time>
      </trkpt>
      <trkpt lat="45.76973" lon="4.63329">
        <ele>717.4</ele>
        <time>2020-06-14T07:31:43.000Z</time>
      </trkpt>
      <trkpt lat="45.76974" lon="4.63331">
        <ele>717.4</ele>
        <time>2020-06-14T07:31:44.000Z</time>
      </trkpt>
      <trkpt lat="45.76975" lon="4.63333">
        <ele>717.8</ele>
        <time>2020-06-14T07:31:45.000Z</time>
      </trkpt>
      <trkpt lat="45.76977" lon="4.63334">
        <ele>718.4</ele>
        <time>2020-06-14T07:31:46.000Z</time>
      </trkpt>
      <trkpt lat="45.76979" lon="4.63336">
        <ele>718.4</ele>
        <time>2020-06-14T07:31:47.000Z</time>
      </trkpt>
      <trkpt lat="45.7698" lon="4.63338">
        <ele>718.8</ele>
        <time>2020-06-14T07:31:48.000Z</time>
      </trkpt>
      <trkpt lat="45.76982" lon="4.63339">
        <ele>719.2</ele>
        <time>2020-06-14T07:31:49.000Z</time>
      </trkpt>
      <trkpt lat="45.76984" lon="4.6334">
        <ele>719.2</ele>
        <time>2020-06-14T07:31:50.000Z</time>
      </trkpt>
      <trkpt lat="45.76986" lon="4.63341">
        <ele>719.6</ele>
        <time>2020-06-14T07:31:51.000Z</time>
      </trkpt>
      <trkpt lat="45.76988" lon="4.63343">
        <ele>720.2</ele>
        <time>2020-06-14T07:31:52.000Z</time>
      </trkpt>
      <trkpt lat="45.76989" lon="4.63344">
        <ele>720.4</ele>
        <time>2020-06-14T07:31:53.000Z</time>
      </trkpt>
      <trkpt lat="45.7699" lon="4.63345">
        <ele>720.4</ele>
        <time>2020-06-14T07:31:54.000Z</time>
      </trkpt>
      <trkpt lat="45.76991" lon="4.63347">
        <ele>720.6</ele>
        <time>2020-06-14T07:31:55.000Z</time>
      </trkpt>
      <trkpt lat="45.76991" lon="4.63349">
        <ele>720.8</ele>
        <time>2020-06-14T07:31:56.000Z</time>
      </trkpt>
      <trkpt lat="45.76991" lon="4.63351">
        <ele>720.8</ele>
        <time>2020-06-14T07:31:57.000Z</time>
      </trkpt>
      <trkpt lat="45.76991" lon="4.63352">
        <ele>721.2</ele>
        <time>2020-06-14T07:31:58.000Z</time>
      </trkpt>
      <trkpt lat="45.76991" lon="4.63354">
        <ele>721</ele>
        <time>2020-06-14T07:31:59.000Z</time>
      </trkpt>
      <trkpt lat="45.76992" lon="4.63355">
        <ele>721.4</ele>
        <time>2020-06-14T07:32:00.000Z</time>
      </trkpt>
      <trkpt lat="45.76993" lon="4.63356">
        <ele>721.4</ele>
        <time>2020-06-14T07:32:01.000Z</time>
      </trkpt>
      <trkpt lat="45.76994" lon="4.63357">
        <ele>721.4</ele>
        <time>2020-06-14T07:32:02.000Z</time>
      </trkpt>
      <trkpt lat="45.76996" lon="4.63358">
        <ele>721.6</ele>
        <time>2020-06-14T07:32:03.000Z</time>
      </trkpt>
      <trkpt lat="45.76997" lon="4.6336">
        <ele>721.8</ele>
        <time>2020-06-14T07:32:04.000Z</time>
      </trkpt>
      <trkpt lat="45.77003" lon="4.63367">
        <ele>722.6</ele>
        <time>2020-06-14T07:32:08.000Z</time>
      </trkpt>
      <trkpt lat="45.77004" lon="4.63369">
        <ele>722.6</ele>
        <time>2020-06-14T07:32:09.000Z</time>
      </trkpt>
      <trkpt lat="45.77005" lon="4.63372">
        <ele>722.6</ele>
        <time>2020-06-14T07:32:10.000Z</time>
      </trkpt>
      <trkpt lat="45.77006" lon="4.63374">
        <ele>722.8</ele>
        <time>2020-06-14T07:32:11.000Z</time>
      </trkpt>
      <trkpt lat="45.77007" lon="4.63376">
        <ele>722.8</ele>
        <time>2020-06-14T07:32:12.000Z</time>
      </trkpt>
      <trkpt lat="45.77008" lon="4.63378">
        <ele>723</ele>
        <time>2020-06-14T07:32:13.000Z</time>
      </trkpt>
      <trkpt lat="45.77009" lon="4.6338">
        <ele>723</ele>
        <time>2020-06-14T07:32:14.000Z</time>
      </trkpt>
      <trkpt lat="45.77011" lon="4.63383">
        <ele>722.8</ele>
        <time>2020-06-14T07:32:15.000Z</time>
      </trkpt>
      <trkpt lat="45.77013" lon="4.63385">
        <ele>723</ele>
        <time>2020-06-14T07:32:16.000Z</time>
      </trkpt>
      <trkpt lat="45.77015" lon="4.63387">
        <ele>723</ele>
        <time>2020-06-14T07:32:17.000Z</time>
      </trkpt>
      <trkpt lat="45.77019" lon="4.63393">
        <ele>723.2</ele>
        <time>2020-06-14T07:32:19.000Z</time>
      </trkpt>
      <trkpt lat="45.77021" lon="4.63396">
        <ele>723.4</ele>
        <time>2020-06-14T07:32:20.000Z</time>
      </trkpt>
      <trkpt lat="45.77022" lon="4.63399">
        <ele>723.4</ele>
        <time>2020-06-14T07:32:21.000Z</time>
      </trkpt>
      <trkpt lat="45.77024" lon="4.63401">
        <ele>723.6</ele>
        <time>2020-06-14T07:32:22.000Z</time>
      </trkpt>
      <trkpt lat="45.77025" lon="4.63405">
        <ele>723.6</ele>
        <time>2020-06-14T07:32:23.000Z</time>
      </trkpt>
      <trkpt lat="45.77026" lon="4.63408">
        <ele>723.8</ele>
        <time>2020-06-14T07:32:24.000Z</time>
      </trkpt>
      <trkpt lat="45.77027" lon="4.6341">
        <ele>723.8</ele>
        <time>2020-06-14T07:32:25.000Z</time>
      </trkpt>
      <trkpt lat="45.77027" lon="4.63413">
        <ele>724</ele>
        <time>2020-06-14T07:32:26.000Z</time>
      </trkpt>
      <trkpt lat="45.77028" lon="4.63415">
        <ele>724</ele>
        <time>2020-06-14T07:32:27.000Z</time>
      </trkpt>
      <trkpt lat="45.77028" lon="4.63416">
        <ele>724</ele>
        <time>2020-06-14T07:32:28.000Z</time>
      </trkpt>
      <trkpt lat="45.77028" lon="4.63418">
        <ele>724</ele>
        <time>2020-06-14T07:32:29.000Z</time>
      </trkpt>
      <trkpt lat="45.77029" lon="4.6342">
        <ele>724.4</ele>
        <time>2020-06-14T07:32:30.000Z</time>
      </trkpt>
      <trkpt lat="45.77029" lon="4.63421">
        <ele>724.6</ele>
        <time>2020-06-14T07:32:31.000Z</time>
      </trkpt>
      <trkpt lat="45.77031" lon="4.63438">
        <ele>726.8</ele>
        <time>2020-06-14T07:43:58.000Z</time>
      </trkpt>
      <trkpt lat="45.77032" lon="4.6344">
        <ele>726.8</ele>
        <time>2020-06-14T07:43:59.000Z</time>
      </trkpt>
      <trkpt lat="45.77033" lon="4.63441">
        <ele>726.8</ele>
        <time>2020-06-14T07:44:00.000Z</time>
      </trkpt>
      <trkpt lat="45.77036" lon="4.63445">
        <ele>726.8</ele>
        <time>2020-06-14T07:44:02.000Z</time>
      </trkpt>
      <trkpt lat="45.77037" lon="4.63447">
        <ele>726.8</ele>
        <time>2020-06-14T07:44:03.000Z</time>
      </trkpt>
      <trkpt lat="45.77038" lon="4.63449">
        <ele>726.6</ele>
        <time>2020-06-14T07:44:04.000Z</time>
      </trkpt>
      <trkpt lat="45.7704" lon="4.63451">
        <ele>726.6</ele>
        <time>2020-06-14T07:44:05.000Z</time>
      </trkpt>
      <trkpt lat="45.77041" lon="4.63452">
        <ele>726.4</ele>
        <time>2020-06-14T07:44:06.000Z</time>
      </trkpt>
      <trkpt lat="45.77043" lon="4.63451">
        <ele>726.6</ele>
        <time>2020-06-14T07:44:07.000Z</time>
      </trkpt>
      <trkpt lat="45.77044" lon="4.6345">
        <ele>726.4</ele>
        <time>2020-06-14T07:44:08.000Z</time>
      </trkpt>
      <trkpt lat="45.77046" lon="4.63448">
        <ele>726.4</ele>
        <time>2020-06-14T07:44:09.000Z</time>
      </trkpt>
      <trkpt lat="45.77048" lon="4.63445">
        <ele>726.4</ele>
        <time>2020-06-14T07:44:10.000Z</time>
      </trkpt>
      <trkpt lat="45.77049" lon="4.63441">
        <ele>726.4</ele>
        <time>2020-06-14T07:44:11.000Z</time>
      </trkpt>
      <trkpt lat="45.77052" lon="4.63435">
        <ele>725.8</ele>
        <time>2020-06-14T07:44:13.000Z</time>
      </trkpt>
      <trkpt lat="45.77054" lon="4.63434">
        <ele>725.6</ele>
        <time>2020-06-14T07:44:14.000Z</time>
      </trkpt>
      <trkpt lat="45.77056" lon="4.63434">
        <ele>725.4</ele>
        <time>2020-06-14T07:44:15.000Z</time>
      </trkpt>
      <trkpt lat="45.77058" lon="4.63435">
        <ele>724.6</ele>
        <time>2020-06-14T07:44:16.000Z</time>
      </trkpt>
      <trkpt lat="45.7706" lon="4.63436">
        <ele>723.8</ele>
        <time>2020-06-14T07:44:17.000Z</time>
      </trkpt>
      <trkpt lat="45.77062" lon="4.63438">
        <ele>723</ele>
        <time>2020-06-14T07:44:18.000Z</time>
      </trkpt>
      <trkpt lat="45.77065" lon="4.6344">
        <ele>722.6</ele>
        <time>2020-06-14T07:44:19.000Z</time>
      </trkpt>
      <trkpt lat="45.77068" lon="4.63441">
        <ele>721.8</ele>
        <time>2020-06-14T07:44:20.000Z</time>
      </trkpt>
      <trkpt lat="45.7707" lon="4.6344">
        <ele>721.4</ele>
        <time>2020-06-14T07:44:21.000Z</time>
      </trkpt>
      <trkpt lat="45.77072" lon="4.63439">
        <ele>721</ele>
        <time>2020-06-14T07:44:22.000Z</time>
      </trkpt>
      <trkpt lat="45.77074" lon="4.63438">
        <ele>720.8</ele>
        <time>2020-06-14T07:44:23.000Z</time>
      </trkpt>
      <trkpt lat="45.77079" lon="4.63439">
        <ele>720.6</ele>
        <time>2020-06-14T07:44:24.000Z</time>
      </trkpt>
      <trkpt lat="45.77083" lon="4.6344">
        <ele>720.4</ele>
        <time>2020-06-14T07:44:25.000Z</time>
      </trkpt>
      <trkpt lat="45.77086" lon="4.63439">
        <ele>719.8</ele>
        <time>2020-06-14T07:44:26.000Z</time>
      </trkpt>
      <trkpt lat="45.7709" lon="4.63438">
        <ele>719</ele>
        <time>2020-06-14T07:44:28.000Z</time>
      </trkpt>
      <trkpt lat="45.77092" lon="4.63439">
        <ele>718.8</ele>
        <time>2020-06-14T07:44:29.000Z</time>
      </trkpt>
      <trkpt lat="45.77095" lon="4.63442">
        <ele>718.2</ele>
        <time>2020-06-14T07:44:30.000Z</time>
      </trkpt>
      <trkpt lat="45.77096" lon="4.63446">
        <ele>718.2</ele>
        <time>2020-06-14T07:44:31.000Z</time>
      </trkpt>
      <trkpt lat="45.77098" lon="4.6345">
        <ele>717.4</ele>
        <time>2020-06-14T07:44:32.000Z</time>
      </trkpt>
      <trkpt lat="45.771" lon="4.63453">
        <ele>717</ele>
        <time>2020-06-14T07:44:33.000Z</time>
      </trkpt>
      <trkpt lat="45.77104" lon="4.63455">
        <ele>716.2</ele>
        <time>2020-06-14T07:44:34.000Z</time>
      </trkpt>
      <trkpt lat="45.77107" lon="4.63455">
        <ele>715.8</ele>
        <time>2020-06-14T07:44:35.000Z</time>
      </trkpt>
      <trkpt lat="45.7711" lon="4.63454">
        <ele>715.8</ele>
        <time>2020-06-14T07:44:36.000Z</time>
      </trkpt>
      <trkpt lat="45.77112" lon="4.63454">
        <ele>715.4</ele>
        <time>2020-06-14T07:44:37.000Z</time>
      </trkpt>
      <trkpt lat="45.77114" lon="4.63455">
        <ele>714.8</ele>
        <time>2020-06-14T07:44:38.000Z</time>
      </trkpt>
      <trkpt lat="45.77117" lon="4.63455">
        <ele>714.2</ele>
        <time>2020-06-14T07:44:40.000Z</time>
      </trkpt>
      <trkpt lat="45.77118" lon="4.63455">
        <ele>713.6</ele>
        <time>2020-06-14T07:44:41.000Z</time>
      </trkpt>
      <trkpt lat="45.77121" lon="4.63456">
        <ele>712.8</ele>
        <time>2020-06-14T07:44:43.000Z</time>
      </trkpt>
      <trkpt lat="45.77123" lon="4.63457">
        <ele>712.6</ele>
        <time>2020-06-14T07:44:44.000Z</time>
      </trkpt>
      <trkpt lat="45.77127" lon="4.63458">
        <ele>712.4</ele>
        <time>2020-06-14T07:44:45.000Z</time>
      </trkpt>
      <trkpt lat="45.77129" lon="4.63458">
        <ele>712.2</ele>
        <time>2020-06-14T07:44:46.000Z</time>
      </trkpt>
      <trkpt lat="45.77131" lon="4.63456">
        <ele>712</ele>
        <time>2020-06-14T07:44:47.000Z</time>
      </trkpt>
      <trkpt lat="45.77135" lon="4.63453">
        <ele>712</ele>
        <time>2020-06-14T07:44:49.000Z</time>
      </trkpt>
      <trkpt lat="45.77137" lon="4.63452">
        <ele>711.8</ele>
        <time>2020-06-14T07:44:50.000Z</time>
      </trkpt>
      <trkpt lat="45.77139" lon="4.63453">
        <ele>711.8</ele>
        <time>2020-06-14T07:44:51.000Z</time>
      </trkpt>
      <trkpt lat="45.77141" lon="4.63454">
        <ele>711.6</ele>
        <time>2020-06-14T07:44:52.000Z</time>
      </trkpt>
      <trkpt lat="45.77143" lon="4.63455">
        <ele>711.4</ele>
        <time>2020-06-14T07:44:53.000Z</time>
      </trkpt>
      <trkpt lat="45.77144" lon="4.63457">
        <ele>710.8</ele>
        <time>2020-06-14T07:44:54.000Z</time>
      </trkpt>
      <trkpt lat="45.77147" lon="4.63459">
        <ele>710</ele>
        <time>2020-06-14T07:44:55.000Z</time>
      </trkpt>
      <trkpt lat="45.77149" lon="4.6346">
        <ele>709.6</ele>
        <time>2020-06-14T07:44:56.000Z</time>
      </trkpt>
      <trkpt lat="45.7715" lon="4.63461">
        <ele>709</ele>
        <time>2020-06-14T07:44:57.000Z</time>
      </trkpt>
      <trkpt lat="45.77154" lon="4.63463">
        <ele>709</ele>
        <time>2020-06-14T07:44:58.000Z</time>
      </trkpt>
      <trkpt lat="45.77155" lon="4.63464">
        <ele>707.8</ele>
        <time>2020-06-14T07:45:00.000Z</time>
      </trkpt>
      <trkpt lat="45.77156" lon="4.63466">
        <ele>707.2</ele>
        <time>2020-06-14T07:45:01.000Z</time>
      </trkpt>
      <trkpt lat="45.77158" lon="4.63467">
        <ele>706.4</ele>
        <time>2020-06-14T07:45:02.000Z</time>
      </trkpt>
      <trkpt lat="45.77159" lon="4.63469">
        <ele>705.6</ele>
        <time>2020-06-14T07:45:03.000Z</time>
      </trkpt>
      <trkpt lat="45.77161" lon="4.63473">
        <ele>704.8</ele>
        <time>2020-06-14T07:45:04.000Z</time>
      </trkpt>
      <trkpt lat="45.77164" lon="4.63478">
        <ele>704</ele>
        <time>2020-06-14T07:45:05.000Z</time>
      </trkpt>
      <trkpt lat="45.77165" lon="4.63482">
        <ele>703.6</ele>
        <time>2020-06-14T07:45:06.000Z</time>
      </trkpt>
      <trkpt lat="45.77168" lon="4.63487">
        <ele>703.4</ele>
        <time>2020-06-14T07:45:07.000Z</time>
      </trkpt>
      <trkpt lat="45.77169" lon="4.63492">
        <ele>703.4</ele>
        <time>2020-06-14T07:45:08.000Z</time>
      </trkpt>
      <trkpt lat="45.77169" lon="4.63496">
        <ele>703.4</ele>
        <time>2020-06-14T07:45:09.000Z</time>
      </trkpt>
      <trkpt lat="45.7717" lon="4.63501">
        <ele>703.2</ele>
        <time>2020-06-14T07:45:10.000Z</time>
      </trkpt>
      <trkpt lat="45.77171" lon="4.63511">
        <ele>702.6</ele>
        <time>2020-06-14T07:45:12.000Z</time>
      </trkpt>
      <trkpt lat="45.77171" lon="4.63514">
        <ele>701.6</ele>
        <time>2020-06-14T07:45:13.000Z</time>
      </trkpt>
      <trkpt lat="45.77171" lon="4.63517">
        <ele>700.4</ele>
        <time>2020-06-14T07:45:14.000Z</time>
      </trkpt>
      <trkpt lat="45.7717" lon="4.63521">
        <ele>699</ele>
        <time>2020-06-14T07:45:15.000Z</time>
      </trkpt>
      <trkpt lat="45.77169" lon="4.63525">
        <ele>698</ele>
        <time>2020-06-14T07:45:16.000Z</time>
      </trkpt>
      <trkpt lat="45.7717" lon="4.63529">
        <ele>697.4</ele>
        <time>2020-06-14T07:45:17.000Z</time>
      </trkpt>
      <trkpt lat="45.77172" lon="4.63532">
        <ele>697.2</ele>
        <time>2020-06-14T07:45:18.000Z</time>
      </trkpt>
      <trkpt lat="45.77174" lon="4.63533">
        <ele>696.4</ele>
        <time>2020-06-14T07:45:19.000Z</time>
      </trkpt>
      <trkpt lat="45.77175" lon="4.63536">
        <ele>696.2</ele>
        <time>2020-06-14T07:45:20.000Z</time>
      </trkpt>
      <trkpt lat="45.77176" lon="4.63538">
        <ele>695.8</ele>
        <time>2020-06-14T07:45:21.000Z</time>
      </trkpt>
      <trkpt lat="45.77177" lon="4.63542">
        <ele>695.6</ele>
        <time>2020-06-14T07:45:22.000Z</time>
      </trkpt>
      <trkpt lat="45.77177" lon="4.63547">
        <ele>695.2</ele>
        <time>2020-06-14T07:45:23.000Z</time>
      </trkpt>
      <trkpt lat="45.77177" lon="4.63551">
        <ele>695</ele>
        <time>2020-06-14T07:45:24.000Z</time>
      </trkpt>
      <trkpt lat="45.77178" lon="4.63556">
        <ele>694.8</ele>
        <time>2020-06-14T07:45:25.000Z</time>
      </trkpt>
      <trkpt lat="45.77178" lon="4.63561">
        <ele>694.6</ele>
        <time>2020-06-14T07:45:26.000Z</time>
      </trkpt>
      <trkpt lat="45.77179" lon="4.63565">
        <ele>694</ele>
        <time>2020-06-14T07:45:27.000Z</time>
      </trkpt>
      <trkpt lat="45.7718" lon="4.63569">
        <ele>693.2</ele>
        <time>2020-06-14T07:45:28.000Z</time>
      </trkpt>
      <trkpt lat="45.77181" lon="4.63573">
        <ele>692.6</ele>
        <time>2020-06-14T07:45:29.000Z</time>
      </trkpt>
      <trkpt lat="45.77182" lon="4.63576">
        <ele>691.8</ele>
        <time>2020-06-14T07:45:30.000Z</time>
      </trkpt>
      <trkpt lat="45.77183" lon="4.6358">
        <ele>690.8</ele>
        <time>2020-06-14T07:45:31.000Z</time>
      </trkpt>
      <trkpt lat="45.77183" lon="4.63584">
        <ele>690.2</ele>
        <time>2020-06-14T07:45:32.000Z</time>
      </trkpt>
      <trkpt lat="45.77183" lon="4.63588">
        <ele>690.2</ele>
        <time>2020-06-14T07:45:33.000Z</time>
      </trkpt>
      <trkpt lat="45.77185" lon="4.63592">
        <ele>689.6</ele>
        <time>2020-06-14T07:45:34.000Z</time>
      </trkpt>
      <trkpt lat="45.77186" lon="4.63595">
        <ele>688.8</ele>
        <time>2020-06-14T07:45:35.000Z</time>
      </trkpt>
      <trkpt lat="45.77188" lon="4.63598">
        <ele>688</ele>
        <time>2020-06-14T07:45:36.000Z</time>
      </trkpt>
      <trkpt lat="45.77189" lon="4.63602">
        <ele>687.4</ele>
        <time>2020-06-14T07:45:37.000Z</time>
      </trkpt>
      <trkpt lat="45.7719" lon="4.63605">
        <ele>686.4</ele>
        <time>2020-06-14T07:45:38.000Z</time>
      </trkpt>
      <trkpt lat="45.77191" lon="4.63609">
        <ele>685.8</ele>
        <time>2020-06-14T07:45:39.000Z</time>
      </trkpt>
      <trkpt lat="45.77192" lon="4.63614">
        <ele>685.2</ele>
        <time>2020-06-14T07:45:40.000Z</time>
      </trkpt>
      <trkpt lat="45.77194" lon="4.63618">
        <ele>684.2</ele>
        <time>2020-06-14T07:45:41.000Z</time>
      </trkpt>
      <trkpt lat="45.77196" lon="4.63623">
        <ele>683.2</ele>
        <time>2020-06-14T07:45:42.000Z</time>
      </trkpt>
      <trkpt lat="45.77199" lon="4.63627">
        <ele>682.2</ele>
        <time>2020-06-14T07:45:43.000Z</time>
      </trkpt>
      <trkpt lat="45.77201" lon="4.63632">
        <ele>680.8</ele>
        <time>2020-06-14T07:45:44.000Z</time>
      </trkpt>
      <trkpt lat="45.77202" lon="4.63637">
        <ele>680</ele>
        <time>2020-06-14T07:45:45.000Z</time>
      </trkpt>
      <trkpt lat="45.77204" lon="4.63643">
        <ele>679.2</ele>
        <time>2020-06-14T07:45:46.000Z</time>
      </trkpt>
      <trkpt lat="45.77206" lon="4.63647">
        <ele>678.4</ele>
        <time>2020-06-14T07:45:47.000Z</time>
      </trkpt>
      <trkpt lat="45.7721" lon="4.63656">
        <ele>675.4</ele>
        <time>2020-06-14T07:45:49.000Z</time>
      </trkpt>
      <trkpt lat="45.77213" lon="4.63661">
        <ele>673.6</ele>
        <time>2020-06-14T07:45:50.000Z</time>
      </trkpt>
      <trkpt lat="45.77217" lon="4.63664">
        <ele>672.6</ele>
        <time>2020-06-14T07:45:51.000Z</time>
      </trkpt>
      <trkpt lat="45.77219" lon="4.63665">
        <ele>671.6</ele>
        <time>2020-06-14T07:45:52.000Z</time>
      </trkpt>
      <trkpt lat="45.77221" lon="4.63665">
        <ele>671.6</ele>
        <time>2020-06-14T07:45:53.000Z</time>
      </trkpt>
      <trkpt lat="45.77222" lon="4.63666">
        <ele>670.6</ele>
        <time>2020-06-14T07:45:54.000Z</time>
      </trkpt>
      <trkpt lat="45.77223" lon="4.6368">
        <ele>665</ele>
        <time>2020-06-14T07:46:05.000Z</time>
      </trkpt>
      <trkpt lat="45.77223" lon="4.63682">
        <ele>665</ele>
        <time>2020-06-14T07:46:06.000Z</time>
      </trkpt>
      <trkpt lat="45.77224" lon="4.63684">
        <ele>665</ele>
        <time>2020-06-14T07:46:07.000Z</time>
      </trkpt>
      <trkpt lat="45.77224" lon="4.63686">
        <ele>665</ele>
        <time>2020-06-14T07:46:08.000Z</time>
      </trkpt>
      <trkpt lat="45.77224" lon="4.63688">
        <ele>665</ele>
        <time>2020-06-14T07:46:09.000Z</time>
      </trkpt>
      <trkpt lat="45.77223" lon="4.63691">
        <ele>665</ele>
        <time>2020-06-14T07:46:10.000Z</time>
      </trkpt>
      <trkpt lat="45.77224" lon="4.63694">
        <ele>665</ele>
        <time>2020-06-14T07:46:11.000Z</time>
      </trkpt>
      <trkpt lat="45.77224" lon="4.63697">
        <ele>664.8</ele>
        <time>2020-06-14T07:46:12.000Z</time>
      </trkpt>
      <trkpt lat="45.77225" lon="4.637">
        <ele>664.6</ele>
        <time>2020-06-14T07:46:13.000Z</time>
      </trkpt>
      <trkpt lat="45.77226" lon="4.63706">
        <ele>663.6</ele>
        <time>2020-06-14T07:46:15.000Z</time>
      </trkpt>
      <trkpt lat="45.77225" lon="4.63708">
        <ele>663.2</ele>
        <time>2020-06-14T07:46:16.000Z</time>
      </trkpt>
      <trkpt lat="45.77224" lon="4.6371">
        <ele>663</ele>
        <time>2020-06-14T07:46:17.000Z</time>
      </trkpt>
      <trkpt lat="45.77222" lon="4.63713">
        <ele>662.6</ele>
        <time>2020-06-14T07:46:18.000Z</time>
      </trkpt>
      <trkpt lat="45.7722" lon="4.63716">
        <ele>662.4</ele>
        <time>2020-06-14T07:46:19.000Z</time>
      </trkpt>
      <trkpt lat="45.77218" lon="4.63718">
        <ele>662.4</ele>
        <time>2020-06-14T07:46:20.000Z</time>
      </trkpt>
      <trkpt lat="45.77217" lon="4.63719">
        <ele>661.8</ele>
        <time>2020-06-14T07:46:21.000Z</time>
      </trkpt>
      <trkpt lat="45.77216" lon="4.63719">
        <ele>661.2</ele>
        <time>2020-06-14T07:46:22.000Z</time>
      </trkpt>
      <trkpt lat="45.77215" lon="4.63719">
        <ele>660.6</ele>
        <time>2020-06-14T07:46:23.000Z</time>
      </trkpt>
      <trkpt lat="45.77213" lon="4.63719">
        <ele>660.2</ele>
        <time>2020-06-14T07:46:25.000Z</time>
      </trkpt>
      <trkpt lat="45.77212" lon="4.63718">
        <ele>660.2</ele>
        <time>2020-06-14T07:46:26.000Z</time>
      </trkpt>
      <trkpt lat="45.77211" lon="4.63718">
        <ele>660</ele>
        <time>2020-06-14T07:46:27.000Z</time>
      </trkpt>
      <trkpt lat="45.77209" lon="4.63718">
        <ele>660.2</ele>
        <time>2020-06-14T07:46:28.000Z</time>
      </trkpt>
      <trkpt lat="45.77208" lon="4.63719">
        <ele>660.2</ele>
        <time>2020-06-14T07:46:29.000Z</time>
      </trkpt>
      <trkpt lat="45.77206" lon="4.63719">
        <ele>660</ele>
        <time>2020-06-14T07:46:30.000Z</time>
      </trkpt>
      <trkpt lat="45.77205" lon="4.6372">
        <ele>660.2</ele>
        <time>2020-06-14T07:46:31.000Z</time>
      </trkpt>
      <trkpt lat="45.77203" lon="4.63721">
        <ele>660.2</ele>
        <time>2020-06-14T07:46:32.000Z</time>
      </trkpt>
      <trkpt lat="45.77202" lon="4.63721">
        <ele>660</ele>
        <time>2020-06-14T07:46:33.000Z</time>
      </trkpt>
      <trkpt lat="45.77201" lon="4.63722">
        <ele>660.2</ele>
        <time>2020-06-14T07:46:34.000Z</time>
      </trkpt>
      <trkpt lat="45.772" lon="4.63722">
        <ele>660.6</ele>
        <time>2020-06-14T07:46:35.000Z</time>
      </trkpt>
      <trkpt lat="45.77199" lon="4.63721">
        <ele>660.8</ele>
        <time>2020-06-14T07:46:36.000Z</time>
      </trkpt>
      <trkpt lat="45.77198" lon="4.63721">
        <ele>661</ele>
        <time>2020-06-14T07:46:37.000Z</time>
      </trkpt>
      <trkpt lat="45.77197" lon="4.6372">
        <ele>661.4</ele>
        <time>2020-06-14T07:46:38.000Z</time>
      </trkpt>
      <trkpt lat="45.77195" lon="4.63719">
        <ele>661.8</ele>
        <time>2020-06-14T07:46:39.000Z</time>
      </trkpt>
      <trkpt lat="45.77193" lon="4.63718">
        <ele>662</ele>
        <time>2020-06-14T07:46:40.000Z</time>
      </trkpt>
      <trkpt lat="45.77192" lon="4.63717">
        <ele>662</ele>
        <time>2020-06-14T07:46:41.000Z</time>
      </trkpt>
      <trkpt lat="45.7719" lon="4.63716">
        <ele>662.4</ele>
        <time>2020-06-14T07:46:42.000Z</time>
      </trkpt>
      <trkpt lat="45.77188" lon="4.63715">
        <ele>662.6</ele>
        <time>2020-06-14T07:46:43.000Z</time>
      </trkpt>
      <trkpt lat="45.77187" lon="4.63714">
        <ele>663</ele>
        <time>2020-06-14T07:46:44.000Z</time>
      </trkpt>
      <trkpt lat="45.77185" lon="4.63713">
        <ele>663</ele>
        <time>2020-06-14T07:46:45.000Z</time>
      </trkpt>
      <trkpt lat="45.77184" lon="4.63713">
        <ele>663.4</ele>
        <time>2020-06-14T07:46:46.000Z</time>
      </trkpt>
      <trkpt lat="45.77182" lon="4.63713">
        <ele>663.6</ele>
        <time>2020-06-14T07:46:47.000Z</time>
      </trkpt>
      <trkpt lat="45.7718" lon="4.63712">
        <ele>664</ele>
        <time>2020-06-14T07:46:48.000Z</time>
      </trkpt>
      <trkpt lat="45.77179" lon="4.63712">
        <ele>664.4</ele>
        <time>2020-06-14T07:46:49.000Z</time>
      </trkpt>
      <trkpt lat="45.77177" lon="4.63711">
        <ele>664.6</ele>
        <time>2020-06-14T07:46:50.000Z</time>
      </trkpt>
      <trkpt lat="45.77176" lon="4.63709">
        <ele>665</ele>
        <time>2020-06-14T07:46:51.000Z</time>
      </trkpt>
      <trkpt lat="45.77174" lon="4.63709">
        <ele>665.2</ele>
        <time>2020-06-14T07:46:52.000Z</time>
      </trkpt>
      <trkpt lat="45.77173" lon="4.63708">
        <ele>665.6</ele>
        <time>2020-06-14T07:46:53.000Z</time>
      </trkpt>
      <trkpt lat="45.77172" lon="4.63708">
        <ele>665.8</ele>
        <time>2020-06-14T07:46:54.000Z</time>
      </trkpt>
      <trkpt lat="45.7717" lon="4.63707">
        <ele>666</ele>
        <time>2020-06-14T07:46:55.000Z</time>
      </trkpt>
      <trkpt lat="45.77168" lon="4.63707">
        <ele>666.4</ele>
        <time>2020-06-14T07:46:56.000Z</time>
      </trkpt>
      <trkpt lat="45.77167" lon="4.63706">
        <ele>666.8</ele>
        <time>2020-06-14T07:46:57.000Z</time>
      </trkpt>
      <trkpt lat="45.77165" lon="4.63706">
        <ele>666.8</ele>
        <time>2020-06-14T07:46:58.000Z</time>
      </trkpt>
      <trkpt lat="45.77164" lon="4.63706">
        <ele>667.2</ele>
        <time>2020-06-14T07:46:59.000Z</time>
      </trkpt>
      <trkpt lat="45.77162" lon="4.63705">
        <ele>667.6</ele>
        <time>2020-06-14T07:47:00.000Z</time>
      </trkpt>
      <trkpt lat="45.7716" lon="4.63705">
        <ele>667.6</ele>
        <time>2020-06-14T07:47:01.000Z</time>
      </trkpt>
      <trkpt lat="45.77158" lon="4.63704">
        <ele>667.8</ele>
        <time>2020-06-14T07:47:02.000Z</time>
      </trkpt>
      <trkpt lat="45.77157" lon="4.63704">
        <ele>668.2</ele>
        <time>2020-06-14T07:47:03.000Z</time>
      </trkpt>
      <trkpt lat="45.77155" lon="4.63703">
        <ele>668.4</ele>
        <time>2020-06-14T07:47:04.000Z</time>
      </trkpt>
      <trkpt lat="45.77154" lon="4.63703">
        <ele>668.8</ele>
        <time>2020-06-14T07:47:05.000Z</time>
      </trkpt>
      <trkpt lat="45.77153" lon="4.63703">
        <ele>669</ele>
        <time>2020-06-14T07:47:06.000Z</time>
      </trkpt>
      <trkpt lat="45.77152" lon="4.63702">
        <ele>669.4</ele>
        <time>2020-06-14T07:47:07.000Z</time>
      </trkpt>
      <trkpt lat="45.7715" lon="4.63702">
        <ele>669.8</ele>
        <time>2020-06-14T07:47:08.000Z</time>
      </trkpt>
      <trkpt lat="45.77149" lon="4.63702">
        <ele>670</ele>
        <time>2020-06-14T07:47:09.000Z</time>
      </trkpt>
      <trkpt lat="45.77148" lon="4.63702">
        <ele>670.4</ele>
        <time>2020-06-14T07:47:10.000Z</time>
      </trkpt>
      <trkpt lat="45.77146" lon="4.63702">
        <ele>670.8</ele>
        <time>2020-06-14T07:47:11.000Z</time>
      </trkpt>
      <trkpt lat="45.77145" lon="4.63702">
        <ele>671</ele>
        <time>2020-06-14T07:47:12.000Z</time>
      </trkpt>
      <trkpt lat="45.77144" lon="4.63702">
        <ele>671.4</ele>
        <time>2020-06-14T07:47:13.000Z</time>
      </trkpt>
      <trkpt lat="45.77143" lon="4.63702">
        <ele>671.6</ele>
        <time>2020-06-14T07:47:14.000Z</time>
      </trkpt>
      <trkpt lat="45.77142" lon="4.63702">
        <ele>672</ele>
        <time>2020-06-14T07:47:15.000Z</time>
      </trkpt>
      <trkpt lat="45.77141" lon="4.63702">
        <ele>672</ele>
        <time>2020-06-14T07:47:16.000Z</time>
      </trkpt>
      <trkpt lat="45.77139" lon="4.63701">
        <ele>672.2</ele>
        <time>2020-06-14T07:47:17.000Z</time>
      </trkpt>
      <trkpt lat="45.77138" lon="4.63701">
        <ele>672.6</ele>
        <time>2020-06-14T07:47:18.000Z</time>
      </trkpt>
      <trkpt lat="45.77136" lon="4.63701">
        <ele>673</ele>
        <time>2020-06-14T07:47:19.000Z</time>
      </trkpt>
      <trkpt lat="45.77135" lon="4.637">
        <ele>673.2</ele>
        <time>2020-06-14T07:47:20.000Z</time>
      </trkpt>
      <trkpt lat="45.77134" lon="4.637">
        <ele>673.2</ele>
        <time>2020-06-14T07:47:21.000Z</time>
      </trkpt>
      <trkpt lat="45.77132" lon="4.637">
        <ele>673.4</ele>
        <time>2020-06-14T07:47:22.000Z</time>
      </trkpt>
      <trkpt lat="45.77131" lon="4.637">
        <ele>673.6</ele>
        <time>2020-06-14T07:47:23.000Z</time>
      </trkpt>
      <trkpt lat="45.7713" lon="4.637">
        <ele>673.8</ele>
        <time>2020-06-14T07:47:24.000Z</time>
      </trkpt>
      <trkpt lat="45.77128" lon="4.637">
        <ele>674</ele>
        <time>2020-06-14T07:47:25.000Z</time>
      </trkpt>
      <trkpt lat="45.77127" lon="4.637">
        <ele>674.2</ele>
        <time>2020-06-14T07:47:26.000Z</time>
      </trkpt>
      <trkpt lat="45.77126" lon="4.63699">
        <ele>674.6</ele>
        <time>2020-06-14T07:47:27.000Z</time>
      </trkpt>
      <trkpt lat="45.77125" lon="4.63699">
        <ele>674.6</ele>
        <time>2020-06-14T07:47:28.000Z</time>
      </trkpt>
      <trkpt lat="45.77123" lon="4.63698">
        <ele>674.8</ele>
        <time>2020-06-14T07:47:29.000Z</time>
      </trkpt>
      <trkpt lat="45.77122" lon="4.63698">
        <ele>675.2</ele>
        <time>2020-06-14T07:47:30.000Z</time>
      </trkpt>
      <trkpt lat="45.77121" lon="4.63697">
        <ele>675.4</ele>
        <time>2020-06-14T07:47:31.000Z</time>
      </trkpt>
      <trkpt lat="45.7712" lon="4.63697">
        <ele>675.6</ele>
        <time>2020-06-14T07:47:32.000Z</time>
      </trkpt>
      <trkpt lat="45.77118" lon="4.63697">
        <ele>675.8</ele>
        <time>2020-06-14T07:47:33.000Z</time>
      </trkpt>
      <trkpt lat="45.77117" lon="4.63696">
        <ele>676</ele>
        <time>2020-06-14T07:47:34.000Z</time>
      </trkpt>
      <trkpt lat="45.77117" lon="4.63696">
        <ele>676.2</ele>
        <time>2020-06-14T07:47:35.000Z</time>
      </trkpt>
      <trkpt lat="45.77116" lon="4.63695">
        <ele>676.2</ele>
        <time>2020-06-14T07:47:36.000Z</time>
      </trkpt>
      <trkpt lat="45.77115" lon="4.63695">
        <ele>676.6</ele>
        <time>2020-06-14T07:47:37.000Z</time>
      </trkpt>
      <trkpt lat="45.77114" lon="4.63695">
        <ele>676.8</ele>
        <time>2020-06-14T07:47:38.000Z</time>
      </trkpt>
      <trkpt lat="45.77113" lon="4.63695">
        <ele>677</ele>
        <time>2020-06-14T07:47:39.000Z</time>
      </trkpt>
      <trkpt lat="45.77112" lon="4.63696">
        <ele>677</ele>
        <time>2020-06-14T07:47:40.000Z</time>
      </trkpt>
      <trkpt lat="45.77111" lon="4.63696">
        <ele>677</ele>
        <time>2020-06-14T07:47:41.000Z</time>
      </trkpt>
      <trkpt lat="45.77091" lon="4.63691">
        <ele>678.8</ele>
        <time>2020-06-14T07:58:30.000Z</time>
      </trkpt>
      <trkpt lat="45.77089" lon="4.63691">
        <ele>678.8</ele>
        <time>2020-06-14T07:58:31.000Z</time>
      </trkpt>
      <trkpt lat="45.77088" lon="4.6369">
        <ele>679</ele>
        <time>2020-06-14T07:58:32.000Z</time>
      </trkpt>
      <trkpt lat="45.77086" lon="4.6369">
        <ele>679</ele>
        <time>2020-06-14T07:58:33.000Z</time>
      </trkpt>
      <trkpt lat="45.77084" lon="4.63691">
        <ele>679.4</ele>
        <time>2020-06-14T07:58:35.000Z</time>
      </trkpt>
      <trkpt lat="45.77082" lon="4.6369">
        <ele>679.4</ele>
        <time>2020-06-14T07:58:36.000Z</time>
      </trkpt>
      <trkpt lat="45.77081" lon="4.6369">
        <ele>679.8</ele>
        <time>2020-06-14T07:58:37.000Z</time>
      </trkpt>
      <trkpt lat="45.7708" lon="4.6369">
        <ele>679.8</ele>
        <time>2020-06-14T07:58:38.000Z</time>
      </trkpt>
      <trkpt lat="45.77078" lon="4.6369">
        <ele>680</ele>
        <time>2020-06-14T07:58:39.000Z</time>
      </trkpt>
      <trkpt lat="45.77077" lon="4.63689">
        <ele>680</ele>
        <time>2020-06-14T07:58:40.000Z</time>
      </trkpt>
      <trkpt lat="45.77075" lon="4.63688">
        <ele>680</ele>
        <time>2020-06-14T07:58:41.000Z</time>
      </trkpt>
      <trkpt lat="45.77074" lon="4.63688">
        <ele>680.2</ele>
        <time>2020-06-14T07:58:42.000Z</time>
      </trkpt>
      <trkpt lat="45.77072" lon="4.63687">
        <ele>680.2</ele>
        <time>2020-06-14T07:58:43.000Z</time>
      </trkpt>
      <trkpt lat="45.77071" lon="4.63687">
        <ele>680.2</ele>
        <time>2020-06-14T07:58:44.000Z</time>
      </trkpt>
      <trkpt lat="45.77069" lon="4.63686">
        <ele>680.2</ele>
        <time>2020-06-14T07:58:45.000Z</time>
      </trkpt>
      <trkpt lat="45.77068" lon="4.63686">
        <ele>680.6</ele>
        <time>2020-06-14T07:58:46.000Z</time>
      </trkpt>
      <trkpt lat="45.77067" lon="4.63686">
        <ele>681</ele>
        <time>2020-06-14T07:58:47.000Z</time>
      </trkpt>
      <trkpt lat="45.77065" lon="4.63686">
        <ele>681</ele>
        <time>2020-06-14T07:58:48.000Z</time>
      </trkpt>
      <trkpt lat="45.77064" lon="4.63687">
        <ele>681.2</ele>
        <time>2020-06-14T07:58:49.000Z</time>
      </trkpt>
      <trkpt lat="45.77063" lon="4.63687">
        <ele>681.2</ele>
        <time>2020-06-14T07:58:50.000Z</time>
      </trkpt>
      <trkpt lat="45.77062" lon="4.63687">
        <ele>681.8</ele>
        <time>2020-06-14T07:58:51.000Z</time>
      </trkpt>
      <trkpt lat="45.77061" lon="4.63688">
        <ele>682</ele>
        <time>2020-06-14T07:58:52.000Z</time>
      </trkpt>
      <trkpt lat="45.7706" lon="4.63688">
        <ele>682.4</ele>
        <time>2020-06-14T07:58:53.000Z</time>
      </trkpt>
      <trkpt lat="45.77059" lon="4.63689">
        <ele>682.6</ele>
        <time>2020-06-14T07:58:54.000Z</time>
      </trkpt>
      <trkpt lat="45.77057" lon="4.63689">
        <ele>683</ele>
        <time>2020-06-14T07:58:55.000Z</time>
      </trkpt>
      <trkpt lat="45.77056" lon="4.63689">
        <ele>683.2</ele>
        <time>2020-06-14T07:58:56.000Z</time>
      </trkpt>
      <trkpt lat="45.77054" lon="4.63689">
        <ele>683.4</ele>
        <time>2020-06-14T07:58:57.000Z</time>
      </trkpt>
      <trkpt lat="45.77052" lon="4.63689">
        <ele>683.6</ele>
        <time>2020-06-14T07:58:58.000Z</time>
      </trkpt>
      <trkpt lat="45.77051" lon="4.63689">
        <ele>683.8</ele>
        <time>2020-06-14T07:58:59.000Z</time>
      </trkpt>
      <trkpt lat="45.77049" lon="4.6369">
        <ele>683.8</ele>
        <time>2020-06-14T07:59:00.000Z</time>
      </trkpt>
      <trkpt lat="45.77047" lon="4.6369">
        <ele>684.2</ele>
        <time>2020-06-14T07:59:01.000Z</time>
      </trkpt>
      <trkpt lat="45.77046" lon="4.6369">
        <ele>684.2</ele>
        <time>2020-06-14T07:59:02.000Z</time>
      </trkpt>
      <trkpt lat="45.77044" lon="4.63689">
        <ele>684.4</ele>
        <time>2020-06-14T07:59:03.000Z</time>
      </trkpt>
      <trkpt lat="45.77042" lon="4.63689">
        <ele>684.4</ele>
        <time>2020-06-14T07:59:04.000Z</time>
      </trkpt>
      <trkpt lat="45.77041" lon="4.63688">
        <ele>684.6</ele>
        <time>2020-06-14T07:59:05.000Z</time>
      </trkpt>
      <trkpt lat="45.7704" lon="4.63688">
        <ele>684.8</ele>
        <time>2020-06-14T07:59:06.000Z</time>
      </trkpt>
      <trkpt lat="45.77038" lon="4.63688">
        <ele>685</ele>
        <time>2020-06-14T07:59:07.000Z</time>
      </trkpt>
      <trkpt lat="45.77037" lon="4.63688">
        <ele>685.2</ele>
        <time>2020-06-14T07:59:08.000Z</time>
      </trkpt>
      <trkpt lat="45.77035" lon="4.63687">
        <ele>685.4</ele>
        <time>2020-06-14T07:59:09.000Z</time>
      </trkpt>
      <trkpt lat="45.77034" lon="4.63687">
        <ele>685.6</ele>
        <time>2020-06-14T07:59:10.000Z</time>
      </trkpt>
      <trkpt lat="45.77032" lon="4.63687">
        <ele>685.8</ele>
        <time>2020-06-14T07:59:11.000Z</time>
      </trkpt>
      <trkpt lat="45.77031" lon="4.63688">
        <ele>686</ele>
        <time>2020-06-14T07:59:12.000Z</time>
      </trkpt>
      <trkpt lat="45.7703" lon="4.63688">
        <ele>686.4</ele>
        <time>2020-06-14T07:59:13.000Z</time>
      </trkpt>
      <trkpt lat="45.77028" lon="4.63689">
        <ele>686.6</ele>
        <time>2020-06-14T07:59:14.000Z</time>
      </trkpt>
      <trkpt lat="45.77027" lon="4.63689">
        <ele>687</ele>
        <time>2020-06-14T07:59:15.000Z</time>
      </trkpt>
      <trkpt lat="45.77026" lon="4.63689">
        <ele>687</ele>
        <time>2020-06-14T07:59:16.000Z</time>
      </trkpt>
      <trkpt lat="45.77025" lon="4.63689">
        <ele>687</ele>
        <time>2020-06-14T07:59:17.000Z</time>
      </trkpt>
      <trkpt lat="45.77024" lon="4.63688">
        <ele>687.2</ele>
        <time>2020-06-14T07:59:18.000Z</time>
      </trkpt>
      <trkpt lat="45.77023" lon="4.63688">
        <ele>687.6</ele>
        <time>2020-06-14T07:59:19.000Z</time>
      </trkpt>
      <trkpt lat="45.77021" lon="4.63688">
        <ele>687.8</ele>
        <time>2020-06-14T07:59:20.000Z</time>
      </trkpt>
      <trkpt lat="45.7702" lon="4.63688">
        <ele>688</ele>
        <time>2020-06-14T07:59:21.000Z</time>
      </trkpt>
      <trkpt lat="45.77019" lon="4.63688">
        <ele>688.2</ele>
        <time>2020-06-14T07:59:22.000Z</time>
      </trkpt>
      <trkpt lat="45.77018" lon="4.63688">
        <ele>688.4</ele>
        <time>2020-06-14T07:59:23.000Z</time>
      </trkpt>
      <trkpt lat="45.77016" lon="4.63688">
        <ele>688.4</ele>
        <time>2020-06-14T07:59:24.000Z</time>
      </trkpt>
      <trkpt lat="45.77015" lon="4.63687">
        <ele>688.6</ele>
        <time>2020-06-14T07:59:25.000Z</time>
      </trkpt>
      <trkpt lat="45.77014" lon="4.63687">
        <ele>689</ele>
        <time>2020-06-14T07:59:26.000Z</time>
      </trkpt>
      <trkpt lat="45.77012" lon="4.63687">
        <ele>689.2</ele>
        <time>2020-06-14T07:59:27.000Z</time>
      </trkpt>
      <trkpt lat="45.77011" lon="4.63686">
        <ele>689.6</ele>
        <time>2020-06-14T07:59:28.000Z</time>
      </trkpt>
      <trkpt lat="45.77009" lon="4.63686">
        <ele>689.8</ele>
        <time>2020-06-14T07:59:29.000Z</time>
      </trkpt>
      <trkpt lat="45.77008" lon="4.63686">
        <ele>690</ele>
        <time>2020-06-14T07:59:30.000Z</time>
      </trkpt>
      <trkpt lat="45.77007" lon="4.63685">
        <ele>690.2</ele>
        <time>2020-06-14T07:59:31.000Z</time>
      </trkpt>
      <trkpt lat="45.77006" lon="4.63684">
        <ele>690.6</ele>
        <time>2020-06-14T07:59:32.000Z</time>
      </trkpt>
      <trkpt lat="45.77005" lon="4.63683">
        <ele>690.6</ele>
        <time>2020-06-14T07:59:33.000Z</time>
      </trkpt>
      <trkpt lat="45.77004" lon="4.63683">
        <ele>691</ele>
        <time>2020-06-14T07:59:34.000Z</time>
      </trkpt>
      <trkpt lat="45.77003" lon="4.63682">
        <ele>691.2</ele>
        <time>2020-06-14T07:59:35.000Z</time>
      </trkpt>
      <trkpt lat="45.77002" lon="4.63681">
        <ele>691.4</ele>
        <time>2020-06-14T07:59:36.000Z</time>
      </trkpt>
      <trkpt lat="45.77" lon="4.63681">
        <ele>691.4</ele>
        <time>2020-06-14T07:59:37.000Z</time>
      </trkpt>
      <trkpt lat="45.76999" lon="4.63681">
        <ele>691.6</ele>
        <time>2020-06-14T07:59:38.000Z</time>
      </trkpt>
      <trkpt lat="45.76997" lon="4.6368">
        <ele>691.8</ele>
        <time>2020-06-14T07:59:39.000Z</time>
      </trkpt>
      <trkpt lat="45.76995" lon="4.63679">
        <ele>692.2</ele>
        <time>2020-06-14T07:59:40.000Z</time>
      </trkpt>
      <trkpt lat="45.76994" lon="4.63678">
        <ele>692.4</ele>
        <time>2020-06-14T07:59:41.000Z</time>
      </trkpt>
      <trkpt lat="45.76992" lon="4.63677">
        <ele>692.6</ele>
        <time>2020-06-14T07:59:42.000Z</time>
      </trkpt>
      <trkpt lat="45.7699" lon="4.63676">
        <ele>693</ele>
        <time>2020-06-14T07:59:43.000Z</time>
      </trkpt>
      <trkpt lat="45.76988" lon="4.63675">
        <ele>693</ele>
        <time>2020-06-14T07:59:44.000Z</time>
      </trkpt>
      <trkpt lat="45.76986" lon="4.63675">
        <ele>693</ele>
        <time>2020-06-14T07:59:45.000Z</time>
      </trkpt>
      <trkpt lat="45.76984" lon="4.63674">
        <ele>693.2</ele>
        <time>2020-06-14T07:59:46.000Z</time>
      </trkpt>
      <trkpt lat="45.76983" lon="4.63673">
        <ele>693.4</ele>
        <time>2020-06-14T07:59:47.000Z</time>
      </trkpt>
      <trkpt lat="45.76981" lon="4.63672">
        <ele>693.6</ele>
        <time>2020-06-14T07:59:48.000Z</time>
      </trkpt>
      <trkpt lat="45.76979" lon="4.63671">
        <ele>693.6</ele>
        <time>2020-06-14T07:59:49.000Z</time>
      </trkpt>
      <trkpt lat="45.76977" lon="4.6367">
        <ele>694</ele>
        <time>2020-06-14T07:59:50.000Z</time>
      </trkpt>
      <trkpt lat="45.76976" lon="4.63669">
        <ele>694.2</ele>
        <time>2020-06-14T07:59:51.000Z</time>
      </trkpt>
      <trkpt lat="45.76974" lon="4.63668">
        <ele>694.4</ele>
        <time>2020-06-14T07:59:52.000Z</time>
      </trkpt>
      <trkpt lat="45.76973" lon="4.63667">
        <ele>694.6</ele>
        <time>2020-06-14T07:59:53.000Z</time>
      </trkpt>
      <trkpt lat="45.76972" lon="4.63666">
        <ele>694.6</ele>
        <time>2020-06-14T07:59:54.000Z</time>
      </trkpt>
      <trkpt lat="45.7697" lon="4.63665">
        <ele>694.8</ele>
        <time>2020-06-14T07:59:55.000Z</time>
      </trkpt>
      <trkpt lat="45.76968" lon="4.63663">
        <ele>694.8</ele>
        <time>2020-06-14T07:59:56.000Z</time>
      </trkpt>
      <trkpt lat="45.76966" lon="4.63662">
        <ele>695</ele>
        <time>2020-06-14T07:59:57.000Z</time>
      </trkpt>
      <trkpt lat="45.76965" lon="4.63661">
        <ele>695</ele>
        <time>2020-06-14T07:59:58.000Z</time>
      </trkpt>
      <trkpt lat="45.76962" lon="4.63659">
        <ele>695.2</ele>
        <time>2020-06-14T08:00:00.000Z</time>
      </trkpt>
      <trkpt lat="45.76961" lon="4.63659">
        <ele>695.6</ele>
        <time>2020-06-14T08:00:01.000Z</time>
      </trkpt>
      <trkpt lat="45.76959" lon="4.63657">
        <ele>695.6</ele>
        <time>2020-06-14T08:00:02.000Z</time>
      </trkpt>
      <trkpt lat="45.76958" lon="4.63656">
        <ele>695.8</ele>
        <time>2020-06-14T08:00:03.000Z</time>
      </trkpt>
      <trkpt lat="45.76957" lon="4.63656">
        <ele>696</ele>
        <time>2020-06-14T08:00:04.000Z</time>
      </trkpt>
      <trkpt lat="45.76956" lon="4.63654">
        <ele>696</ele>
        <time>2020-06-14T08:00:05.000Z</time>
      </trkpt>
      <trkpt lat="45.76955" lon="4.63653">
        <ele>696</ele>
        <time>2020-06-14T08:00:06.000Z</time>
      </trkpt>
      <trkpt lat="45.76954" lon="4.63652">
        <ele>696</ele>
        <time>2020-06-14T08:00:07.000Z</time>
      </trkpt>
      <trkpt lat="45.76953" lon="4.6365">
        <ele>696.2</ele>
        <time>2020-06-14T08:00:08.000Z</time>
      </trkpt>
      <trkpt lat="45.76951" lon="4.63648">
        <ele>696.4</ele>
        <time>2020-06-14T08:00:09.000Z</time>
      </trkpt>
      <trkpt lat="45.7695" lon="4.63646">
        <ele>696.4</ele>
        <time>2020-06-14T08:00:10.000Z</time>
      </trkpt>
      <trkpt lat="45.76949" lon="4.63643">
        <ele>696.8</ele>
        <time>2020-06-14T08:00:11.000Z</time>
      </trkpt>
      <trkpt lat="45.76948" lon="4.63642">
        <ele>697</ele>
        <time>2020-06-14T08:00:12.000Z</time>
      </trkpt>
      <trkpt lat="45.76947" lon="4.6364">
        <ele>697.2</ele>
        <time>2020-06-14T08:00:13.000Z</time>
      </trkpt>
      <trkpt lat="45.76946" lon="4.63638">
        <ele>697.4</ele>
        <time>2020-06-14T08:00:14.000Z</time>
      </trkpt>
      <trkpt lat="45.76945" lon="4.63636">
        <ele>697.6</ele>
        <time>2020-06-14T08:00:15.000Z</time>
      </trkpt>
      <trkpt lat="45.76944" lon="4.63635">
        <ele>697.6</ele>
        <time>2020-06-14T08:00:16.000Z</time>
      </trkpt>
      <trkpt lat="45.76943" lon="4.63633">
        <ele>697.6</ele>
        <time>2020-06-14T08:00:17.000Z</time>
      </trkpt>
      <trkpt lat="45.76941" lon="4.63629">
        <ele>697.8</ele>
        <time>2020-06-14T08:00:19.000Z</time>
      </trkpt>
      <trkpt lat="45.7694" lon="4.63627">
        <ele>698</ele>
        <time>2020-06-14T08:00:20.000Z</time>
      </trkpt>
      <trkpt lat="45.76938" lon="4.63626">
        <ele>698.2</ele>
        <time>2020-06-14T08:00:21.000Z</time>
      </trkpt>
      <trkpt lat="45.76937" lon="4.63624">
        <ele>698.2</ele>
        <time>2020-06-14T08:00:22.000Z</time>
      </trkpt>
      <trkpt lat="45.76936" lon="4.63621">
        <ele>698.4</ele>
        <time>2020-06-14T08:00:23.000Z</time>
      </trkpt>
      <trkpt lat="45.76933" lon="4.63616">
        <ele>698.4</ele>
        <time>2020-06-14T08:00:25.000Z</time>
      </trkpt>
      <trkpt lat="45.76932" lon="4.63614">
        <ele>698.6</ele>
        <time>2020-06-14T08:00:26.000Z</time>
      </trkpt>
      <trkpt lat="45.7693" lon="4.63612">
        <ele>698.6</ele>
        <time>2020-06-14T08:00:27.000Z</time>
      </trkpt>
      <trkpt lat="45.76929" lon="4.63609">
        <ele>698.6</ele>
        <time>2020-06-14T08:00:28.000Z</time>
      </trkpt>
      <trkpt lat="45.76928" lon="4.63606">
        <ele>698.8</ele>
        <time>2020-06-14T08:00:29.000Z</time>
      </trkpt>
      <trkpt lat="45.76926" lon="4.63603">
        <ele>698.8</ele>
        <time>2020-06-14T08:00:30.000Z</time>
      </trkpt>
      <trkpt lat="45.76925" lon="4.63602">
        <ele>698.6</ele>
        <time>2020-06-14T08:00:31.000Z</time>
      </trkpt>
      <trkpt lat="45.76922" lon="4.636">
        <ele>698.8</ele>
        <time>2020-06-14T08:00:32.000Z</time>
      </trkpt>
      <trkpt lat="45.76918" lon="4.63597">
        <ele>698.8</ele>
        <time>2020-06-14T08:00:34.000Z</time>
      </trkpt>
      <trkpt lat="45.76916" lon="4.63594">
        <ele>699</ele>
        <time>2020-06-14T08:00:35.000Z</time>
      </trkpt>
      <trkpt lat="45.76915" lon="4.63592">
        <ele>698.8</ele>
        <time>2020-06-14T08:00:36.000Z</time>
      </trkpt>
      <trkpt lat="45.76914" lon="4.63589">
        <ele>699</ele>
        <time>2020-06-14T08:00:37.000Z</time>
      </trkpt>
      <trkpt lat="45.76913" lon="4.63586">
        <ele>698.8</ele>
        <time>2020-06-14T08:00:38.000Z</time>
      </trkpt>
      <trkpt lat="45.76912" lon="4.63583">
        <ele>698.8</ele>
        <time>2020-06-14T08:00:39.000Z</time>
      </trkpt>
      <trkpt lat="45.76911" lon="4.6358">
        <ele>698.8</ele>
        <time>2020-06-14T08:00:40.000Z</time>
      </trkpt>
      <trkpt lat="45.76909" lon="4.63576">
        <ele>698.6</ele>
        <time>2020-06-14T08:00:41.000Z</time>
      </trkpt>
      <trkpt lat="45.76908" lon="4.63573">
        <ele>698.6</ele>
        <time>2020-06-14T08:00:42.000Z</time>
      </trkpt>
      <trkpt lat="45.76907" lon="4.63569">
        <ele>698.6</ele>
        <time>2020-06-14T08:00:43.000Z</time>
      </trkpt>
      <trkpt lat="45.76905" lon="4.63565">
        <ele>698.8</ele>
        <time>2020-06-14T08:00:44.000Z</time>
      </trkpt>
      <trkpt lat="45.76903" lon="4.63558">
        <ele>698.6</ele>
        <time>2020-06-14T08:00:46.000Z</time>
      </trkpt>
      <trkpt lat="45.769" lon="4.63554">
        <ele>698.8</ele>
        <time>2020-06-14T08:00:47.000Z</time>
      </trkpt>
      <trkpt lat="45.76899" lon="4.6355">
        <ele>698.8</ele>
        <time>2020-06-14T08:00:48.000Z</time>
      </trkpt>
      <trkpt lat="45.76896" lon="4.63544">
        <ele>698.8</ele>
        <time>2020-06-14T08:00:50.000Z</time>
      </trkpt>
      <trkpt lat="45.76895" lon="4.6354">
        <ele>698.8</ele>
        <time>2020-06-14T08:00:51.000Z</time>
      </trkpt>
      <trkpt lat="45.76893" lon="4.63538">
        <ele>698.8</ele>
        <time>2020-06-14T08:00:52.000Z</time>
      </trkpt>
      <trkpt lat="45.76891" lon="4.63535">
        <ele>698.8</ele>
        <time>2020-06-14T08:00:53.000Z</time>
      </trkpt>
      <trkpt lat="45.7689" lon="4.63532">
        <ele>698.8</ele>
        <time>2020-06-14T08:00:54.000Z</time>
      </trkpt>
      <trkpt lat="45.76889" lon="4.63529">
        <ele>698.8</ele>
        <time>2020-06-14T08:00:55.000Z</time>
      </trkpt>
      <trkpt lat="45.76887" lon="4.63526">
        <ele>699</ele>
        <time>2020-06-14T08:00:56.000Z</time>
      </trkpt>
      <trkpt lat="45.76886" lon="4.63523">
        <ele>699.2</ele>
        <time>2020-06-14T08:00:57.000Z</time>
      </trkpt>
      <trkpt lat="45.76884" lon="4.6352">
        <ele>699.2</ele>
        <time>2020-06-14T08:00:58.000Z</time>
      </trkpt>
      <trkpt lat="45.76883" lon="4.63516">
        <ele>699.4</ele>
        <time>2020-06-14T08:00:59.000Z</time>
      </trkpt>
      <trkpt lat="45.76882" lon="4.63513">
        <ele>699.6</ele>
        <time>2020-06-14T08:01:00.000Z</time>
      </trkpt>
      <trkpt lat="45.7688" lon="4.63509">
        <ele>699.6</ele>
        <time>2020-06-14T08:01:01.000Z</time>
      </trkpt>
      <trkpt lat="45.76878" lon="4.63506">
        <ele>699.8</ele>
        <time>2020-06-14T08:01:02.000Z</time>
      </trkpt>
      <trkpt lat="45.76876" lon="4.63502">
        <ele>700.2</ele>
        <time>2020-06-14T08:01:03.000Z</time>
      </trkpt>
      <trkpt lat="45.76874" lon="4.63499">
        <ele>700.4</ele>
        <time>2020-06-14T08:01:04.000Z</time>
      </trkpt>
      <trkpt lat="45.76872" lon="4.63496">
        <ele>700.4</ele>
        <time>2020-06-14T08:01:05.000Z</time>
      </trkpt>
      <trkpt lat="45.7687" lon="4.63493">
        <ele>700.4</ele>
        <time>2020-06-14T08:01:06.000Z</time>
      </trkpt>
      <trkpt lat="45.76868" lon="4.63488">
        <ele>700.6</ele>
        <time>2020-06-14T08:01:07.000Z</time>
      </trkpt>
      <trkpt lat="45.76867" lon="4.63484">
        <ele>700.8</ele>
        <time>2020-06-14T08:01:08.000Z</time>
      </trkpt>
      <trkpt lat="45.76865" lon="4.63479">
        <ele>700.8</ele>
        <time>2020-06-14T08:01:09.000Z</time>
      </trkpt>
      <trkpt lat="45.76864" lon="4.63476">
        <ele>700.8</ele>
        <time>2020-06-14T08:01:10.000Z</time>
      </trkpt>
      <trkpt lat="45.76862" lon="4.63472">
        <ele>700.8</ele>
        <time>2020-06-14T08:01:11.000Z</time>
      </trkpt>
      <trkpt lat="45.76861" lon="4.63468">
        <ele>700.8</ele>
        <time>2020-06-14T08:01:12.000Z</time>
      </trkpt>
      <trkpt lat="45.76859" lon="4.63465">
        <ele>701.2</ele>
        <time>2020-06-14T08:01:13.000Z</time>
      </trkpt>
      <trkpt lat="45.76858" lon="4.63461">
        <ele>701.4</ele>
        <time>2020-06-14T08:01:14.000Z</time>
      </trkpt>
      <trkpt lat="45.76857" lon="4.63457">
        <ele>701.4</ele>
        <time>2020-06-14T08:01:15.000Z</time>
      </trkpt>
      <trkpt lat="45.76856" lon="4.63454">
        <ele>701.6</ele>
        <time>2020-06-14T08:01:16.000Z</time>
      </trkpt>
      <trkpt lat="45.76855" lon="4.63451">
        <ele>702</ele>
        <time>2020-06-14T08:01:17.000Z</time>
      </trkpt>
      <trkpt lat="45.76854" lon="4.63448">
        <ele>702</ele>
        <time>2020-06-14T08:01:18.000Z</time>
      </trkpt>
      <trkpt lat="45.76853" lon="4.63445">
        <ele>702.4</ele>
        <time>2020-06-14T08:01:19.000Z</time>
      </trkpt>
      <trkpt lat="45.76852" lon="4.63441">
        <ele>702.4</ele>
        <time>2020-06-14T08:01:20.000Z</time>
      </trkpt>
      <trkpt lat="45.76852" lon="4.63438">
        <ele>702.6</ele>
        <time>2020-06-14T08:01:21.000Z</time>
      </trkpt>
      <trkpt lat="45.76851" lon="4.63434">
        <ele>702.6</ele>
        <time>2020-06-14T08:01:22.000Z</time>
      </trkpt>
      <trkpt lat="45.7685" lon="4.63431">
        <ele>703</ele>
        <time>2020-06-14T08:01:23.000Z</time>
      </trkpt>
      <trkpt lat="45.76849" lon="4.63429">
        <ele>703</ele>
        <time>2020-06-14T08:01:24.000Z</time>
      </trkpt>
      <trkpt lat="45.76848" lon="4.63427">
        <ele>703.2</ele>
        <time>2020-06-14T08:01:25.000Z</time>
      </trkpt>
      <trkpt lat="45.76847" lon="4.63424">
        <ele>703.2</ele>
        <time>2020-06-14T08:01:26.000Z</time>
      </trkpt>
      <trkpt lat="45.76846" lon="4.63422">
        <ele>703.4</ele>
        <time>2020-06-14T08:01:27.000Z</time>
      </trkpt>
      <trkpt lat="45.76846" lon="4.63419">
        <ele>703.4</ele>
        <time>2020-06-14T08:01:28.000Z</time>
      </trkpt>
      <trkpt lat="45.76844" lon="4.63416">
        <ele>703.8</ele>
        <time>2020-06-14T08:01:29.000Z</time>
      </trkpt>
      <trkpt lat="45.76842" lon="4.63413">
        <ele>703.8</ele>
        <time>2020-06-14T08:01:30.000Z</time>
      </trkpt>
      <trkpt lat="45.76841" lon="4.6341">
        <ele>704.2</ele>
        <time>2020-06-14T08:01:31.000Z</time>
      </trkpt>
      <trkpt lat="45.7684" lon="4.63407">
        <ele>704.2</ele>
        <time>2020-06-14T08:01:32.000Z</time>
      </trkpt>
      <trkpt lat="45.76838" lon="4.63404">
        <ele>704.4</ele>
        <time>2020-06-14T08:01:33.000Z</time>
      </trkpt>
      <trkpt lat="45.76837" lon="4.63401">
        <ele>704.4</ele>
        <time>2020-06-14T08:01:34.000Z</time>
      </trkpt>
      <trkpt lat="45.76837" lon="4.63398">
        <ele>704.8</ele>
        <time>2020-06-14T08:01:35.000Z</time>
      </trkpt>
      <trkpt lat="45.76836" lon="4.63396">
        <ele>704.8</ele>
        <time>2020-06-14T08:01:36.000Z</time>
      </trkpt>
      <trkpt lat="45.76835" lon="4.63392">
        <ele>705.2</ele>
        <time>2020-06-14T08:01:37.000Z</time>
      </trkpt>
      <trkpt lat="45.76833" lon="4.63388">
        <ele>705.4</ele>
        <time>2020-06-14T08:01:38.000Z</time>
      </trkpt>
      <trkpt lat="45.76832" lon="4.63385">
        <ele>705.4</ele>
        <time>2020-06-14T08:01:39.000Z</time>
      </trkpt>
      <trkpt lat="45.7683" lon="4.63382">
        <ele>705.8</ele>
        <time>2020-06-14T08:01:40.000Z</time>
      </trkpt>
      <trkpt lat="45.76829" lon="4.6338">
        <ele>706</ele>
        <time>2020-06-14T08:01:41.000Z</time>
      </trkpt>
      <trkpt lat="45.76827" lon="4.63377">
        <ele>706.2</ele>
        <time>2020-06-14T08:01:42.000Z</time>
      </trkpt>
      <trkpt lat="45.76825" lon="4.63375">
        <ele>706.4</ele>
        <time>2020-06-14T08:01:43.000Z</time>
      </trkpt>
      <trkpt lat="45.76823" lon="4.63371">
        <ele>706.4</ele>
        <time>2020-06-14T08:01:44.000Z</time>
      </trkpt>
      <trkpt lat="45.76822" lon="4.63368">
        <ele>706.8</ele>
        <time>2020-06-14T08:01:45.000Z</time>
      </trkpt>
      <trkpt lat="45.76821" lon="4.63365">
        <ele>706.8</ele>
        <time>2020-06-14T08:01:46.000Z</time>
      </trkpt>
      <trkpt lat="45.7682" lon="4.63362">
        <ele>706.8</ele>
        <time>2020-06-14T08:01:47.000Z</time>
      </trkpt>
      <trkpt lat="45.76819" lon="4.63359">
        <ele>707</ele>
        <time>2020-06-14T08:01:48.000Z</time>
      </trkpt>
      <trkpt lat="45.76818" lon="4.63358">
        <ele>707.2</ele>
        <time>2020-06-14T08:01:49.000Z</time>
      </trkpt>
      <trkpt lat="45.76816" lon="4.63356">
        <ele>707.2</ele>
        <time>2020-06-14T08:01:50.000Z</time>
      </trkpt>
      <trkpt lat="45.76814" lon="4.63354">
        <ele>707.4</ele>
        <time>2020-06-14T08:01:51.000Z</time>
      </trkpt>
      <trkpt lat="45.76813" lon="4.63351">
        <ele>707.8</ele>
        <time>2020-06-14T08:01:52.000Z</time>
      </trkpt>
      <trkpt lat="45.7681" lon="4.63349">
        <ele>707.8</ele>
        <time>2020-06-14T08:01:53.000Z</time>
      </trkpt>
      <trkpt lat="45.76805" lon="4.63341">
        <ele>708.4</ele>
        <time>2020-06-14T08:01:56.000Z</time>
      </trkpt>
      <trkpt lat="45.76803" lon="4.63338">
        <ele>708.4</ele>
        <time>2020-06-14T08:01:57.000Z</time>
      </trkpt>
      <trkpt lat="45.76803" lon="4.63335">
        <ele>708.4</ele>
        <time>2020-06-14T08:01:58.000Z</time>
      </trkpt>
      <trkpt lat="45.76801" lon="4.63331">
        <ele>708.6</ele>
        <time>2020-06-14T08:01:59.000Z</time>
      </trkpt>
      <trkpt lat="45.76798" lon="4.63325">
        <ele>708.4</ele>
        <time>2020-06-14T08:02:01.000Z</time>
      </trkpt>
      <trkpt lat="45.76797" lon="4.63323">
        <ele>708.4</ele>
        <time>2020-06-14T08:02:02.000Z</time>
      </trkpt>
      <trkpt lat="45.76794" lon="4.63316">
        <ele>708.6</ele>
        <time>2020-06-14T08:02:04.000Z</time>
      </trkpt>
      <trkpt lat="45.76793" lon="4.63313">
        <ele>708.8</ele>
        <time>2020-06-14T08:02:05.000Z</time>
      </trkpt>
      <trkpt lat="45.76791" lon="4.63311">
        <ele>708.8</ele>
        <time>2020-06-14T08:02:06.000Z</time>
      </trkpt>
      <trkpt lat="45.7679" lon="4.63308">
        <ele>708.8</ele>
        <time>2020-06-14T08:02:07.000Z</time>
      </trkpt>
      <trkpt lat="45.76789" lon="4.63305">
        <ele>708.8</ele>
        <time>2020-06-14T08:02:08.000Z</time>
      </trkpt>
      <trkpt lat="45.76788" lon="4.63301">
        <ele>708.6</ele>
        <time>2020-06-14T08:02:09.000Z</time>
      </trkpt>
      <trkpt lat="45.76787" lon="4.63299">
        <ele>708.8</ele>
        <time>2020-06-14T08:02:10.000Z</time>
      </trkpt>
      <trkpt lat="45.76786" lon="4.63296">
        <ele>708.8</ele>
        <time>2020-06-14T08:02:11.000Z</time>
      </trkpt>
      <trkpt lat="45.76785" lon="4.63293">
        <ele>708.8</ele>
        <time>2020-06-14T08:02:12.000Z</time>
      </trkpt>
      <trkpt lat="45.76783" lon="4.6329">
        <ele>708.8</ele>
        <time>2020-06-14T08:02:13.000Z</time>
      </trkpt>
      <trkpt lat="45.76782" lon="4.63286">
        <ele>708.8</ele>
        <time>2020-06-14T08:02:14.000Z</time>
      </trkpt>
      <trkpt lat="45.7678" lon="4.63283">
        <ele>709</ele>
        <time>2020-06-14T08:02:15.000Z</time>
      </trkpt>
      <trkpt lat="45.76779" lon="4.6328">
        <ele>709</ele>
        <time>2020-06-14T08:02:16.000Z</time>
      </trkpt>
      <trkpt lat="45.76776" lon="4.63277">
        <ele>709.2</ele>
        <time>2020-06-14T08:02:17.000Z</time>
      </trkpt>
      <trkpt lat="45.76775" lon="4.63274">
        <ele>709.4</ele>
        <time>2020-06-14T08:02:18.000Z</time>
      </trkpt>
      <trkpt lat="45.76773" lon="4.63271">
        <ele>709.4</ele>
        <time>2020-06-14T08:02:19.000Z</time>
      </trkpt>
      <trkpt lat="45.76772" lon="4.63268">
        <ele>709.6</ele>
        <time>2020-06-14T08:02:20.000Z</time>
      </trkpt>
      <trkpt lat="45.7677" lon="4.63265">
        <ele>709.8</ele>
        <time>2020-06-14T08:02:21.000Z</time>
      </trkpt>
      <trkpt lat="45.76769" lon="4.63262">
        <ele>710</ele>
        <time>2020-06-14T08:02:22.000Z</time>
      </trkpt>
      <trkpt lat="45.76766" lon="4.63258">
        <ele>710</ele>
        <time>2020-06-14T08:02:23.000Z</time>
      </trkpt>
      <trkpt lat="45.76765" lon="4.63255">
        <ele>710.4</ele>
        <time>2020-06-14T08:02:24.000Z</time>
      </trkpt>
      <trkpt lat="45.76764" lon="4.6325">
        <ele>710.4</ele>
        <time>2020-06-14T08:02:25.000Z</time>
      </trkpt>
      <trkpt lat="45.76762" lon="4.63246">
        <ele>710.6</ele>
        <time>2020-06-14T08:02:26.000Z</time>
      </trkpt>
      <trkpt lat="45.76761" lon="4.63242">
        <ele>710.6</ele>
        <time>2020-06-14T08:02:27.000Z</time>
      </trkpt>
      <trkpt lat="45.7676" lon="4.6324">
        <ele>711</ele>
        <time>2020-06-14T08:02:28.000Z</time>
      </trkpt>
      <trkpt lat="45.76758" lon="4.63237">
        <ele>711.4</ele>
        <time>2020-06-14T08:02:29.000Z</time>
      </trkpt>
      <trkpt lat="45.76757" lon="4.63234">
        <ele>711.6</ele>
        <time>2020-06-14T08:02:30.000Z</time>
      </trkpt>
      <trkpt lat="45.76756" lon="4.63232">
        <ele>712</ele>
        <time>2020-06-14T08:02:31.000Z</time>
      </trkpt>
      <trkpt lat="45.76754" lon="4.6323">
        <ele>712.2</ele>
        <time>2020-06-14T08:02:32.000Z</time>
      </trkpt>
      <trkpt lat="45.76752" lon="4.63227">
        <ele>712.4</ele>
        <time>2020-06-14T08:02:33.000Z</time>
      </trkpt>
      <trkpt lat="45.7675" lon="4.63223">
        <ele>712.6</ele>
        <time>2020-06-14T08:02:34.000Z</time>
      </trkpt>
      <trkpt lat="45.76748" lon="4.6322">
        <ele>712.8</ele>
        <time>2020-06-14T08:02:35.000Z</time>
      </trkpt>
      <trkpt lat="45.76746" lon="4.63216">
        <ele>713</ele>
        <time>2020-06-14T08:02:36.000Z</time>
      </trkpt>
      <trkpt lat="45.7674" lon="4.63206">
        <ele>713.4</ele>
        <time>2020-06-14T08:02:39.000Z</time>
      </trkpt>
      <trkpt lat="45.76737" lon="4.63198">
        <ele>713.6</ele>
        <time>2020-06-14T08:02:41.000Z</time>
      </trkpt>
      <trkpt lat="45.76732" lon="4.63187">
        <ele>713.4</ele>
        <time>2020-06-14T08:02:43.000Z</time>
      </trkpt>
      <trkpt lat="45.7673" lon="4.63183">
        <ele>713.4</ele>
        <time>2020-06-14T08:02:44.000Z</time>
      </trkpt>
      <trkpt lat="45.76728" lon="4.63179">
        <ele>713.6</ele>
        <time>2020-06-14T08:02:45.000Z</time>
      </trkpt>
      <trkpt lat="45.76723" lon="4.63171">
        <ele>713.6</ele>
        <time>2020-06-14T08:02:47.000Z</time>
      </trkpt>
      <trkpt lat="45.76721" lon="4.63168">
        <ele>713.4</ele>
        <time>2020-06-14T08:02:48.000Z</time>
      </trkpt>
      <trkpt lat="45.76719" lon="4.63165">
        <ele>713.4</ele>
        <time>2020-06-14T08:02:49.000Z</time>
      </trkpt>
      <trkpt lat="45.76717" lon="4.63162">
        <ele>713.4</ele>
        <time>2020-06-14T08:02:50.000Z</time>
      </trkpt>
      <trkpt lat="45.76714" lon="4.63159">
        <ele>713.4</ele>
        <time>2020-06-14T08:02:51.000Z</time>
      </trkpt>
      <trkpt lat="45.76711" lon="4.63156">
        <ele>713.2</ele>
        <time>2020-06-14T08:02:52.000Z</time>
      </trkpt>
      <trkpt lat="45.76709" lon="4.63154">
        <ele>713</ele>
        <time>2020-06-14T08:02:53.000Z</time>
      </trkpt>
      <trkpt lat="45.76707" lon="4.63151">
        <ele>712.8</ele>
        <time>2020-06-14T08:02:54.000Z</time>
      </trkpt>
      <trkpt lat="45.76705" lon="4.63149">
        <ele>712.6</ele>
        <time>2020-06-14T08:02:55.000Z</time>
      </trkpt>
      <trkpt lat="45.76702" lon="4.63145">
        <ele>712.6</ele>
        <time>2020-06-14T08:02:56.000Z</time>
      </trkpt>
      <trkpt lat="45.76699" lon="4.63142">
        <ele>712.4</ele>
        <time>2020-06-14T08:02:57.000Z</time>
      </trkpt>
      <trkpt lat="45.76695" lon="4.63138">
        <ele>712.4</ele>
        <time>2020-06-14T08:02:59.000Z</time>
      </trkpt>
      <trkpt lat="45.76692" lon="4.63134">
        <ele>712.4</ele>
        <time>2020-06-14T08:03:00.000Z</time>
      </trkpt>
      <trkpt lat="45.76688" lon="4.63131">
        <ele>712</ele>
        <time>2020-06-14T08:03:01.000Z</time>
      </trkpt>
      <trkpt lat="45.76684" lon="4.63128">
        <ele>712</ele>
        <time>2020-06-14T08:03:02.000Z</time>
      </trkpt>
      <trkpt lat="45.76674" lon="4.63119">
        <ele>711.8</ele>
        <time>2020-06-14T08:03:05.000Z</time>
      </trkpt>
      <trkpt lat="45.76666" lon="4.63113">
        <ele>711.6</ele>
        <time>2020-06-14T08:03:07.000Z</time>
      </trkpt>
      <trkpt lat="45.76662" lon="4.63111">
        <ele>711.6</ele>
        <time>2020-06-14T08:03:08.000Z</time>
      </trkpt>
      <trkpt lat="45.76659" lon="4.63108">
        <ele>711.4</ele>
        <time>2020-06-14T08:03:09.000Z</time>
      </trkpt>
      <trkpt lat="45.76655" lon="4.63105">
        <ele>711</ele>
        <time>2020-06-14T08:03:10.000Z</time>
      </trkpt>
      <trkpt lat="45.76648" lon="4.631">
        <ele>710.8</ele>
        <time>2020-06-14T08:03:12.000Z</time>
      </trkpt>
      <trkpt lat="45.7664" lon="4.63095">
        <ele>710.6</ele>
        <time>2020-06-14T08:03:14.000Z</time>
      </trkpt>
      <trkpt lat="45.76637" lon="4.63093">
        <ele>710.6</ele>
        <time>2020-06-14T08:03:15.000Z</time>
      </trkpt>
      <trkpt lat="45.76633" lon="4.63091">
        <ele>710.6</ele>
        <time>2020-06-14T08:03:16.000Z</time>
      </trkpt>
      <trkpt lat="45.7663" lon="4.6309">
        <ele>710.6</ele>
        <time>2020-06-14T08:03:17.000Z</time>
      </trkpt>
      <trkpt lat="45.76626" lon="4.63089">
        <ele>710.6</ele>
        <time>2020-06-14T08:03:18.000Z</time>
      </trkpt>
      <trkpt lat="45.76623" lon="4.63087">
        <ele>710.4</ele>
        <time>2020-06-14T08:03:19.000Z</time>
      </trkpt>
      <trkpt lat="45.7662" lon="4.63085">
        <ele>710.6</ele>
        <time>2020-06-14T08:03:20.000Z</time>
      </trkpt>
      <trkpt lat="45.76617" lon="4.63083">
        <ele>710.6</ele>
        <time>2020-06-14T08:03:21.000Z</time>
      </trkpt>
      <trkpt lat="45.76613" lon="4.63081">
        <ele>710.6</ele>
        <time>2020-06-14T08:03:22.000Z</time>
      </trkpt>
      <trkpt lat="45.7661" lon="4.63078">
        <ele>710.8</ele>
        <time>2020-06-14T08:03:23.000Z</time>
      </trkpt>
      <trkpt lat="45.76607" lon="4.63076">
        <ele>710.8</ele>
        <time>2020-06-14T08:03:24.000Z</time>
      </trkpt>
      <trkpt lat="45.76604" lon="4.63075">
        <ele>711.2</ele>
        <time>2020-06-14T08:03:25.000Z</time>
      </trkpt>
      <trkpt lat="45.76601" lon="4.63074">
        <ele>711.6</ele>
        <time>2020-06-14T08:03:26.000Z</time>
      </trkpt>
      <trkpt lat="45.76598" lon="4.63073">
        <ele>711.8</ele>
        <time>2020-06-14T08:03:27.000Z</time>
      </trkpt>
      <trkpt lat="45.76595" lon="4.63072">
        <ele>711.8</ele>
        <time>2020-06-14T08:03:28.000Z</time>
      </trkpt>
      <trkpt lat="45.76593" lon="4.63071">
        <ele>712</ele>
        <time>2020-06-14T08:03:29.000Z</time>
      </trkpt>
      <trkpt lat="45.7659" lon="4.6307">
        <ele>712.2</ele>
        <time>2020-06-14T08:03:30.000Z</time>
      </trkpt>
      <trkpt lat="45.76587" lon="4.63069">
        <ele>712.6</ele>
        <time>2020-06-14T08:03:31.000Z</time>
      </trkpt>
      <trkpt lat="45.76583" lon="4.63069">
        <ele>712.8</ele>
        <time>2020-06-14T08:03:32.000Z</time>
      </trkpt>
      <trkpt lat="45.7658" lon="4.63069">
        <ele>713</ele>
        <time>2020-06-14T08:03:33.000Z</time>
      </trkpt>
      <trkpt lat="45.76573" lon="4.63069">
        <ele>713.2</ele>
        <time>2020-06-14T08:03:35.000Z</time>
      </trkpt>
      <trkpt lat="45.76569" lon="4.63071">
        <ele>713.6</ele>
        <time>2020-06-14T08:03:36.000Z</time>
      </trkpt>
      <trkpt lat="45.76566" lon="4.63072">
        <ele>713.4</ele>
        <time>2020-06-14T08:03:37.000Z</time>
      </trkpt>
      <trkpt lat="45.76554" lon="4.63076">
        <ele>713.6</ele>
        <time>2020-06-14T08:03:40.000Z</time>
      </trkpt>
      <trkpt lat="45.76549" lon="4.63077">
        <ele>713.4</ele>
        <time>2020-06-14T08:03:41.000Z</time>
      </trkpt>
      <trkpt lat="45.76545" lon="4.63077">
        <ele>713.4</ele>
        <time>2020-06-14T08:03:42.000Z</time>
      </trkpt>
      <trkpt lat="45.7654" lon="4.63077">
        <ele>713.6</ele>
        <time>2020-06-14T08:03:43.000Z</time>
      </trkpt>
      <trkpt lat="45.76536" lon="4.63077">
        <ele>713.4</ele>
        <time>2020-06-14T08:03:44.000Z</time>
      </trkpt>
      <trkpt lat="45.76523" lon="4.63077">
        <ele>712.8</ele>
        <time>2020-06-14T08:03:47.000Z</time>
      </trkpt>
      <trkpt lat="45.76519" lon="4.63076">
        <ele>712.8</ele>
        <time>2020-06-14T08:03:48.000Z</time>
      </trkpt>
      <trkpt lat="45.76511" lon="4.63075">
        <ele>712.4</ele>
        <time>2020-06-14T08:03:50.000Z</time>
      </trkpt>
      <trkpt lat="45.76502" lon="4.63075">
        <ele>712.4</ele>
        <time>2020-06-14T08:03:52.000Z</time>
      </trkpt>
      <trkpt lat="45.76498" lon="4.63075">
        <ele>712.4</ele>
        <time>2020-06-14T08:03:53.000Z</time>
      </trkpt>
      <trkpt lat="45.76495" lon="4.63075">
        <ele>712.4</ele>
        <time>2020-06-14T08:03:54.000Z</time>
      </trkpt>
      <trkpt lat="45.76491" lon="4.63075">
        <ele>712.4</ele>
        <time>2020-06-14T08:03:55.000Z</time>
      </trkpt>
      <trkpt lat="45.76488" lon="4.63075">
        <ele>712.4</ele>
        <time>2020-06-14T08:03:56.000Z</time>
      </trkpt>
      <trkpt lat="45.76485" lon="4.63075">
        <ele>712.4</ele>
        <time>2020-06-14T08:03:57.000Z</time>
      </trkpt>
      <trkpt lat="45.76481" lon="4.63074">
        <ele>712.4</ele>
        <time>2020-06-14T08:03:58.000Z</time>
      </trkpt>
      <trkpt lat="45.76477" lon="4.63074">
        <ele>712.4</ele>
        <time>2020-06-14T08:03:59.000Z</time>
      </trkpt>
      <trkpt lat="45.76474" lon="4.63074">
        <ele>712.6</ele>
        <time>2020-06-14T08:04:00.000Z</time>
      </trkpt>
      <trkpt lat="45.7647" lon="4.63074">
        <ele>712.6</ele>
        <time>2020-06-14T08:04:01.000Z</time>
      </trkpt>
      <trkpt lat="45.76466" lon="4.63073">
        <ele>712.8</ele>
        <time>2020-06-14T08:04:02.000Z</time>
      </trkpt>
      <trkpt lat="45.76463" lon="4.63073">
        <ele>713</ele>
        <time>2020-06-14T08:04:03.000Z</time>
      </trkpt>
      <trkpt lat="45.76459" lon="4.63072">
        <ele>713.4</ele>
        <time>2020-06-14T08:04:04.000Z</time>
      </trkpt>
      <trkpt lat="45.76456" lon="4.63071">
        <ele>713.4</ele>
        <time>2020-06-14T08:04:05.000Z</time>
      </trkpt>
      <trkpt lat="45.76453" lon="4.63071">
        <ele>713.8</ele>
        <time>2020-06-14T08:04:06.000Z</time>
      </trkpt>
      <trkpt lat="45.76451" lon="4.63069">
        <ele>714</ele>
        <time>2020-06-14T08:04:07.000Z</time>
      </trkpt>
      <trkpt lat="45.76448" lon="4.63067">
        <ele>714</ele>
        <time>2020-06-14T08:04:08.000Z</time>
      </trkpt>
      <trkpt lat="45.76446" lon="4.63065">
        <ele>714.2</ele>
        <time>2020-06-14T08:04:09.000Z</time>
      </trkpt>
      <trkpt lat="45.76443" lon="4.63063">
        <ele>714.4</ele>
        <time>2020-06-14T08:04:10.000Z</time>
      </trkpt>
      <trkpt lat="45.7644" lon="4.6306">
        <ele>714.6</ele>
        <time>2020-06-14T08:04:11.000Z</time>
      </trkpt>
      <trkpt lat="45.76437" lon="4.63058">
        <ele>715</ele>
        <time>2020-06-14T08:04:12.000Z</time>
      </trkpt>
      <trkpt lat="45.76428" lon="4.63052">
        <ele>715.6</ele>
        <time>2020-06-14T08:04:15.000Z</time>
      </trkpt>
      <trkpt lat="45.76426" lon="4.63049">
        <ele>715.6</ele>
        <time>2020-06-14T08:04:16.000Z</time>
      </trkpt>
      <trkpt lat="45.76423" lon="4.63045">
        <ele>715.8</ele>
        <time>2020-06-14T08:04:17.000Z</time>
      </trkpt>
      <trkpt lat="45.7642" lon="4.63043">
        <ele>715.8</ele>
        <time>2020-06-14T08:04:18.000Z</time>
      </trkpt>
      <trkpt lat="45.76417" lon="4.63039">
        <ele>715.8</ele>
        <time>2020-06-14T08:04:19.000Z</time>
      </trkpt>
      <trkpt lat="45.76409" lon="4.63031">
        <ele>715.8</ele>
        <time>2020-06-14T08:04:21.000Z</time>
      </trkpt>
      <trkpt lat="45.76406" lon="4.63028">
        <ele>715.8</ele>
        <time>2020-06-14T08:04:22.000Z</time>
      </trkpt>
      <trkpt lat="45.76398" lon="4.63019">
        <ele>715.8</ele>
        <time>2020-06-14T08:04:24.000Z</time>
      </trkpt>
      <trkpt lat="45.76395" lon="4.63016">
        <ele>715.8</ele>
        <time>2020-06-14T08:04:25.000Z</time>
      </trkpt>
      <trkpt lat="45.76392" lon="4.63012">
        <ele>716</ele>
        <time>2020-06-14T08:04:26.000Z</time>
      </trkpt>
      <trkpt lat="45.76389" lon="4.63009">
        <ele>715.8</ele>
        <time>2020-06-14T08:04:27.000Z</time>
      </trkpt>
      <trkpt lat="45.76385" lon="4.63005">
        <ele>715.8</ele>
        <time>2020-06-14T08:04:28.000Z</time>
      </trkpt>
      <trkpt lat="45.76377" lon="4.62999">
        <ele>715.8</ele>
        <time>2020-06-14T08:04:30.000Z</time>
      </trkpt>
      <trkpt lat="45.76352" lon="4.62978">
        <ele>714.2</ele>
        <time>2020-06-14T08:04:35.000Z</time>
      </trkpt>
      <trkpt lat="45.76347" lon="4.62974">
        <ele>713.8</ele>
        <time>2020-06-14T08:04:36.000Z</time>
      </trkpt>
      <trkpt lat="45.76342" lon="4.6297">
        <ele>713.6</ele>
        <time>2020-06-14T08:04:37.000Z</time>
      </trkpt>
      <trkpt lat="45.76336" lon="4.62966">
        <ele>712.8</ele>
        <time>2020-06-14T08:04:38.000Z</time>
      </trkpt>
      <trkpt lat="45.76332" lon="4.62963">
        <ele>712.2</ele>
        <time>2020-06-14T08:04:39.000Z</time>
      </trkpt>
      <trkpt lat="45.76327" lon="4.62958">
        <ele>711.8</ele>
        <time>2020-06-14T08:04:40.000Z</time>
      </trkpt>
      <trkpt lat="45.76322" lon="4.62953">
        <ele>711.8</ele>
        <time>2020-06-14T08:04:41.000Z</time>
      </trkpt>
      <trkpt lat="45.76309" lon="4.62945">
        <ele>711.6</ele>
        <time>2020-06-14T08:04:43.000Z</time>
      </trkpt>
      <trkpt lat="45.76304" lon="4.62942">
        <ele>711.2</ele>
        <time>2020-06-14T08:04:44.000Z</time>
      </trkpt>
      <trkpt lat="45.76299" lon="4.62939">
        <ele>710.8</ele>
        <time>2020-06-14T08:04:45.000Z</time>
      </trkpt>
      <trkpt lat="45.76297" lon="4.62936">
        <ele>710.4</ele>
        <time>2020-06-14T08:04:46.000Z</time>
      </trkpt>
      <trkpt lat="45.76295" lon="4.62933">
        <ele>709.8</ele>
        <time>2020-06-14T08:04:47.000Z</time>
      </trkpt>
      <trkpt lat="45.76293" lon="4.62929">
        <ele>709</ele>
        <time>2020-06-14T08:04:48.000Z</time>
      </trkpt>
      <trkpt lat="45.76289" lon="4.62917">
        <ele>707.8</ele>
        <time>2020-06-14T08:04:51.000Z</time>
      </trkpt>
      <trkpt lat="45.76287" lon="4.62914">
        <ele>707</ele>
        <time>2020-06-14T08:04:52.000Z</time>
      </trkpt>
      <trkpt lat="45.76286" lon="4.62911">
        <ele>706.6</ele>
        <time>2020-06-14T08:04:53.000Z</time>
      </trkpt>
      <trkpt lat="45.76286" lon="4.62908">
        <ele>706.4</ele>
        <time>2020-06-14T08:04:54.000Z</time>
      </trkpt>
      <trkpt lat="45.76286" lon="4.62906">
        <ele>706.2</ele>
        <time>2020-06-14T08:04:55.000Z</time>
      </trkpt>
      <trkpt lat="45.76286" lon="4.62903">
        <ele>705.8</ele>
        <time>2020-06-14T08:04:56.000Z</time>
      </trkpt>
      <trkpt lat="45.76286" lon="4.62902">
        <ele>705.4</ele>
        <time>2020-06-14T08:04:57.000Z</time>
      </trkpt>
      <trkpt lat="45.76286" lon="4.629">
        <ele>705.4</ele>
        <time>2020-06-14T08:04:58.000Z</time>
      </trkpt>
      <trkpt lat="45.76286" lon="4.62899">
        <ele>705.2</ele>
        <time>2020-06-14T08:04:59.000Z</time>
      </trkpt>
      <trkpt lat="45.76287" lon="4.62897">
        <ele>705.2</ele>
        <time>2020-06-14T08:05:00.000Z</time>
      </trkpt>
      <trkpt lat="45.76286" lon="4.62894">
        <ele>705.2</ele>
        <time>2020-06-14T08:05:01.000Z</time>
      </trkpt>
      <trkpt lat="45.76285" lon="4.62892">
        <ele>705.2</ele>
        <time>2020-06-14T08:05:02.000Z</time>
      </trkpt>
      <trkpt lat="45.76282" lon="4.62887">
        <ele>705.2</ele>
        <time>2020-06-14T08:05:04.000Z</time>
      </trkpt>
      <trkpt lat="45.76281" lon="4.62885">
        <ele>705.2</ele>
        <time>2020-06-14T08:05:05.000Z</time>
      </trkpt>
      <trkpt lat="45.7628" lon="4.62883">
        <ele>705</ele>
        <time>2020-06-14T08:05:06.000Z</time>
      </trkpt>
      <trkpt lat="45.76279" lon="4.62882">
        <ele>705.2</ele>
        <time>2020-06-14T08:05:07.000Z</time>
      </trkpt>
      <trkpt lat="45.76278" lon="4.6288">
        <ele>705.2</ele>
        <time>2020-06-14T08:05:08.000Z</time>
      </trkpt>
      <trkpt lat="45.76276" lon="4.62877">
        <ele>705.2</ele>
        <time>2020-06-14T08:05:09.000Z</time>
      </trkpt>
      <trkpt lat="45.76273" lon="4.62874">
        <ele>705.2</ele>
        <time>2020-06-14T08:05:11.000Z</time>
      </trkpt>
      <trkpt lat="45.76271" lon="4.62873">
        <ele>705</ele>
        <time>2020-06-14T08:05:12.000Z</time>
      </trkpt>
      <trkpt lat="45.76269" lon="4.62871">
        <ele>705.2</ele>
        <time>2020-06-14T08:05:13.000Z</time>
      </trkpt>
      <trkpt lat="45.76267" lon="4.62871">
        <ele>705.2</ele>
        <time>2020-06-14T08:05:14.000Z</time>
      </trkpt>
      <trkpt lat="45.76266" lon="4.6287">
        <ele>705.2</ele>
        <time>2020-06-14T08:05:15.000Z</time>
      </trkpt>
      <trkpt lat="45.76264" lon="4.6287">
        <ele>705.2</ele>
        <time>2020-06-14T08:05:16.000Z</time>
      </trkpt>
      <trkpt lat="45.76263" lon="4.6287">
        <ele>705.2</ele>
        <time>2020-06-14T08:05:17.000Z</time>
      </trkpt>
      <trkpt lat="45.76259" lon="4.62868">
        <ele>705.4</ele>
        <time>2020-06-14T08:05:19.000Z</time>
      </trkpt>
      <trkpt lat="45.76258" lon="4.62868">
        <ele>705.4</ele>
        <time>2020-06-14T08:05:20.000Z</time>
      </trkpt>
      <trkpt lat="45.76256" lon="4.62867">
        <ele>705.6</ele>
        <time>2020-06-14T08:05:21.000Z</time>
      </trkpt>
      <trkpt lat="45.76253" lon="4.62867">
        <ele>705.8</ele>
        <time>2020-06-14T08:05:22.000Z</time>
      </trkpt>
      <trkpt lat="45.76251" lon="4.62867">
        <ele>705.8</ele>
        <time>2020-06-14T08:05:23.000Z</time>
      </trkpt>
      <trkpt lat="45.76248" lon="4.62866">
        <ele>705.8</ele>
        <time>2020-06-14T08:05:24.000Z</time>
      </trkpt>
      <trkpt lat="45.7624" lon="4.62866">
        <ele>706</ele>
        <time>2020-06-14T08:05:27.000Z</time>
      </trkpt>
      <trkpt lat="45.76237" lon="4.62866">
        <ele>706.2</ele>
        <time>2020-06-14T08:05:28.000Z</time>
      </trkpt>
      <trkpt lat="45.76234" lon="4.62865">
        <ele>706.2</ele>
        <time>2020-06-14T08:05:29.000Z</time>
      </trkpt>
      <trkpt lat="45.76231" lon="4.62865">
        <ele>706.2</ele>
        <time>2020-06-14T08:05:30.000Z</time>
      </trkpt>
      <trkpt lat="45.76229" lon="4.62865">
        <ele>706</ele>
        <time>2020-06-14T08:05:31.000Z</time>
      </trkpt>
      <trkpt lat="45.76226" lon="4.62865">
        <ele>706</ele>
        <time>2020-06-14T08:05:32.000Z</time>
      </trkpt>
      <trkpt lat="45.76223" lon="4.62864">
        <ele>706.2</ele>
        <time>2020-06-14T08:05:33.000Z</time>
      </trkpt>
      <trkpt lat="45.7622" lon="4.62865">
        <ele>706.2</ele>
        <time>2020-06-14T08:05:34.000Z</time>
      </trkpt>
      <trkpt lat="45.76218" lon="4.62865">
        <ele>706.2</ele>
        <time>2020-06-14T08:05:35.000Z</time>
      </trkpt>
      <trkpt lat="45.76212" lon="4.62864">
        <ele>706.2</ele>
        <time>2020-06-14T08:05:37.000Z</time>
      </trkpt>
      <trkpt lat="45.76209" lon="4.62864">
        <ele>706.4</ele>
        <time>2020-06-14T08:05:38.000Z</time>
      </trkpt>
      <trkpt lat="45.76205" lon="4.62864">
        <ele>706.8</ele>
        <time>2020-06-14T08:05:39.000Z</time>
      </trkpt>
      <trkpt lat="45.76202" lon="4.62863">
        <ele>707</ele>
        <time>2020-06-14T08:05:40.000Z</time>
      </trkpt>
      <trkpt lat="45.76197" lon="4.6286">
        <ele>707</ele>
        <time>2020-06-14T08:05:42.000Z</time>
      </trkpt>
      <trkpt lat="45.76194" lon="4.62857">
        <ele>707.2</ele>
        <time>2020-06-14T08:05:43.000Z</time>
      </trkpt>
      <trkpt lat="45.76189" lon="4.62851">
        <ele>707.4</ele>
        <time>2020-06-14T08:05:45.000Z</time>
      </trkpt>
      <trkpt lat="45.76186" lon="4.62847">
        <ele>707.4</ele>
        <time>2020-06-14T08:05:46.000Z</time>
      </trkpt>
      <trkpt lat="45.76183" lon="4.62843">
        <ele>707.4</ele>
        <time>2020-06-14T08:05:47.000Z</time>
      </trkpt>
      <trkpt lat="45.76181" lon="4.62839">
        <ele>707.6</ele>
        <time>2020-06-14T08:05:48.000Z</time>
      </trkpt>
      <trkpt lat="45.76179" lon="4.62835">
        <ele>707.8</ele>
        <time>2020-06-14T08:05:49.000Z</time>
      </trkpt>
      <trkpt lat="45.76177" lon="4.62831">
        <ele>707.8</ele>
        <time>2020-06-14T08:05:50.000Z</time>
      </trkpt>
      <trkpt lat="45.76175" lon="4.62827">
        <ele>707.8</ele>
        <time>2020-06-14T08:05:51.000Z</time>
      </trkpt>
      <trkpt lat="45.76173" lon="4.62823">
        <ele>707.8</ele>
        <time>2020-06-14T08:05:52.000Z</time>
      </trkpt>
      <trkpt lat="45.76171" lon="4.62818">
        <ele>708</ele>
        <time>2020-06-14T08:05:53.000Z</time>
      </trkpt>
      <trkpt lat="45.76169" lon="4.62815">
        <ele>708</ele>
        <time>2020-06-14T08:05:54.000Z</time>
      </trkpt>
      <trkpt lat="45.76167" lon="4.62811">
        <ele>708.2</ele>
        <time>2020-06-14T08:05:55.000Z</time>
      </trkpt>
      <trkpt lat="45.76166" lon="4.62808">
        <ele>708.4</ele>
        <time>2020-06-14T08:05:56.000Z</time>
      </trkpt>
      <trkpt lat="45.76164" lon="4.62804">
        <ele>708.4</ele>
        <time>2020-06-14T08:05:57.000Z</time>
      </trkpt>
      <trkpt lat="45.76162" lon="4.628">
        <ele>708.4</ele>
        <time>2020-06-14T08:05:58.000Z</time>
      </trkpt>
      <trkpt lat="45.76161" lon="4.62797">
        <ele>708.6</ele>
        <time>2020-06-14T08:05:59.000Z</time>
      </trkpt>
      <trkpt lat="45.76159" lon="4.62794">
        <ele>708.8</ele>
        <time>2020-06-14T08:06:00.000Z</time>
      </trkpt>
      <trkpt lat="45.76157" lon="4.6279">
        <ele>709</ele>
        <time>2020-06-14T08:06:01.000Z</time>
      </trkpt>
      <trkpt lat="45.76155" lon="4.62787">
        <ele>709</ele>
        <time>2020-06-14T08:06:02.000Z</time>
      </trkpt>
      <trkpt lat="45.76154" lon="4.62784">
        <ele>709</ele>
        <time>2020-06-14T08:06:03.000Z</time>
      </trkpt>
      <trkpt lat="45.76152" lon="4.6278">
        <ele>709.2</ele>
        <time>2020-06-14T08:06:04.000Z</time>
      </trkpt>
      <trkpt lat="45.7615" lon="4.62777">
        <ele>709.4</ele>
        <time>2020-06-14T08:06:05.000Z</time>
      </trkpt>
      <trkpt lat="45.76148" lon="4.62774">
        <ele>709.6</ele>
        <time>2020-06-14T08:06:06.000Z</time>
      </trkpt>
      <trkpt lat="45.76146" lon="4.62771">
        <ele>709.8</ele>
        <time>2020-06-14T08:06:07.000Z</time>
      </trkpt>
      <trkpt lat="45.76144" lon="4.62769">
        <ele>709.8</ele>
        <time>2020-06-14T08:06:08.000Z</time>
      </trkpt>
      <trkpt lat="45.76141" lon="4.62766">
        <ele>709.8</ele>
        <time>2020-06-14T08:06:09.000Z</time>
      </trkpt>
      <trkpt lat="45.76139" lon="4.62764">
        <ele>710.2</ele>
        <time>2020-06-14T08:06:10.000Z</time>
      </trkpt>
      <trkpt lat="45.76137" lon="4.62761">
        <ele>710.2</ele>
        <time>2020-06-14T08:06:11.000Z</time>
      </trkpt>
      <trkpt lat="45.76135" lon="4.62759">
        <ele>710.4</ele>
        <time>2020-06-14T08:06:12.000Z</time>
      </trkpt>
      <trkpt lat="45.76132" lon="4.62757">
        <ele>710.4</ele>
        <time>2020-06-14T08:06:13.000Z</time>
      </trkpt>
      <trkpt lat="45.7613" lon="4.62755">
        <ele>710.6</ele>
        <time>2020-06-14T08:06:14.000Z</time>
      </trkpt>
      <trkpt lat="45.76127" lon="4.62754">
        <ele>710.8</ele>
        <time>2020-06-14T08:06:15.000Z</time>
      </trkpt>
      <trkpt lat="45.76124" lon="4.62753">
        <ele>710.8</ele>
        <time>2020-06-14T08:06:16.000Z</time>
      </trkpt>
      <trkpt lat="45.76121" lon="4.62752">
        <ele>711</ele>
        <time>2020-06-14T08:06:17.000Z</time>
      </trkpt>
      <trkpt lat="45.76118" lon="4.62752">
        <ele>711.4</ele>
        <time>2020-06-14T08:06:18.000Z</time>
      </trkpt>
      <trkpt lat="45.76115" lon="4.62751">
        <ele>711.6</ele>
        <time>2020-06-14T08:06:19.000Z</time>
      </trkpt>
      <trkpt lat="45.76112" lon="4.62752">
        <ele>711.8</ele>
        <time>2020-06-14T08:06:20.000Z</time>
      </trkpt>
      <trkpt lat="45.76109" lon="4.62753">
        <ele>711.8</ele>
        <time>2020-06-14T08:06:21.000Z</time>
      </trkpt>
      <trkpt lat="45.76106" lon="4.62755">
        <ele>712</ele>
        <time>2020-06-14T08:06:22.000Z</time>
      </trkpt>
      <trkpt lat="45.76103" lon="4.62757">
        <ele>712.2</ele>
        <time>2020-06-14T08:06:23.000Z</time>
      </trkpt>
      <trkpt lat="45.761" lon="4.6276">
        <ele>712.4</ele>
        <time>2020-06-14T08:06:24.000Z</time>
      </trkpt>
      <trkpt lat="45.76098" lon="4.62764">
        <ele>712.6</ele>
        <time>2020-06-14T08:06:25.000Z</time>
      </trkpt>
      <trkpt lat="45.76096" lon="4.62768">
        <ele>712.6</ele>
        <time>2020-06-14T08:06:26.000Z</time>
      </trkpt>
      <trkpt lat="45.76095" lon="4.62772">
        <ele>712.8</ele>
        <time>2020-06-14T08:06:27.000Z</time>
      </trkpt>
      <trkpt lat="45.76094" lon="4.62777">
        <ele>713</ele>
        <time>2020-06-14T08:06:28.000Z</time>
      </trkpt>
      <trkpt lat="45.76093" lon="4.62782">
        <ele>713.2</ele>
        <time>2020-06-14T08:06:29.000Z</time>
      </trkpt>
      <trkpt lat="45.76091" lon="4.62786">
        <ele>713.2</ele>
        <time>2020-06-14T08:06:30.000Z</time>
      </trkpt>
      <trkpt lat="45.7609" lon="4.6279">
        <ele>713</ele>
        <time>2020-06-14T08:06:31.000Z</time>
      </trkpt>
      <trkpt lat="45.76088" lon="4.62795">
        <ele>713.2</ele>
        <time>2020-06-14T08:06:32.000Z</time>
      </trkpt>
      <trkpt lat="45.76086" lon="4.62799">
        <ele>713.2</ele>
        <time>2020-06-14T08:06:33.000Z</time>
      </trkpt>
      <trkpt lat="45.76085" lon="4.62803">
        <ele>713.6</ele>
        <time>2020-06-14T08:06:34.000Z</time>
      </trkpt>
      <trkpt lat="45.76083" lon="4.62806">
        <ele>713.6</ele>
        <time>2020-06-14T08:06:35.000Z</time>
      </trkpt>
      <trkpt lat="45.76082" lon="4.6281">
        <ele>713.8</ele>
        <time>2020-06-14T08:06:36.000Z</time>
      </trkpt>
      <trkpt lat="45.7608" lon="4.62814">
        <ele>714</ele>
        <time>2020-06-14T08:06:37.000Z</time>
      </trkpt>
      <trkpt lat="45.76077" lon="4.62817">
        <ele>714.2</ele>
        <time>2020-06-14T08:06:38.000Z</time>
      </trkpt>
      <trkpt lat="45.76075" lon="4.62819">
        <ele>714.4</ele>
        <time>2020-06-14T08:06:39.000Z</time>
      </trkpt>
      <trkpt lat="45.76072" lon="4.62822">
        <ele>714.6</ele>
        <time>2020-06-14T08:06:40.000Z</time>
      </trkpt>
      <trkpt lat="45.7607" lon="4.62825">
        <ele>714.8</ele>
        <time>2020-06-14T08:06:41.000Z</time>
      </trkpt>
      <trkpt lat="45.76067" lon="4.62828">
        <ele>715</ele>
        <time>2020-06-14T08:06:42.000Z</time>
      </trkpt>
      <trkpt lat="45.76065" lon="4.62831">
        <ele>715.6</ele>
        <time>2020-06-14T08:06:43.000Z</time>
      </trkpt>
      <trkpt lat="45.76063" lon="4.62834">
        <ele>715.6</ele>
        <time>2020-06-14T08:06:44.000Z</time>
      </trkpt>
      <trkpt lat="45.76061" lon="4.62837">
        <ele>715.8</ele>
        <time>2020-06-14T08:06:45.000Z</time>
      </trkpt>
      <trkpt lat="45.76059" lon="4.62839">
        <ele>715.8</ele>
        <time>2020-06-14T08:06:46.000Z</time>
      </trkpt>
      <trkpt lat="45.76058" lon="4.62843">
        <ele>715.8</ele>
        <time>2020-06-14T08:06:47.000Z</time>
      </trkpt>
      <trkpt lat="45.76056" lon="4.62846">
        <ele>716</ele>
        <time>2020-06-14T08:06:48.000Z</time>
      </trkpt>
      <trkpt lat="45.76054" lon="4.62849">
        <ele>716.2</ele>
        <time>2020-06-14T08:06:49.000Z</time>
      </trkpt>
      <trkpt lat="45.76052" lon="4.62851">
        <ele>716.4</ele>
        <time>2020-06-14T08:06:50.000Z</time>
      </trkpt>
      <trkpt lat="45.7605" lon="4.62852">
        <ele>716.4</ele>
        <time>2020-06-14T08:06:51.000Z</time>
      </trkpt>
      <trkpt lat="45.76048" lon="4.62851">
        <ele>716.8</ele>
        <time>2020-06-14T08:06:52.000Z</time>
      </trkpt>
      <trkpt lat="45.76046" lon="4.6285">
        <ele>717</ele>
        <time>2020-06-14T08:06:53.000Z</time>
      </trkpt>
      <trkpt lat="45.76045" lon="4.62847">
        <ele>717</ele>
        <time>2020-06-14T08:06:54.000Z</time>
      </trkpt>
      <trkpt lat="45.76045" lon="4.62844">
        <ele>717.4</ele>
        <time>2020-06-14T08:06:55.000Z</time>
      </trkpt>
      <trkpt lat="45.76045" lon="4.6284">
        <ele>717.6</ele>
        <time>2020-06-14T08:06:56.000Z</time>
      </trkpt>
      <trkpt lat="45.76047" lon="4.62837">
        <ele>717.8</ele>
        <time>2020-06-14T08:06:57.000Z</time>
      </trkpt>
      <trkpt lat="45.76049" lon="4.62834">
        <ele>717.8</ele>
        <time>2020-06-14T08:06:58.000Z</time>
      </trkpt>
      <trkpt lat="45.76051" lon="4.62831">
        <ele>718</ele>
        <time>2020-06-14T08:06:59.000Z</time>
      </trkpt>
      <trkpt lat="45.76054" lon="4.62829">
        <ele>718</ele>
        <time>2020-06-14T08:07:00.000Z</time>
      </trkpt>
      <trkpt lat="45.76057" lon="4.62827">
        <ele>718.2</ele>
        <time>2020-06-14T08:07:01.000Z</time>
      </trkpt>
      <trkpt lat="45.76059" lon="4.62824">
        <ele>718.6</ele>
        <time>2020-06-14T08:07:02.000Z</time>
      </trkpt>
      <trkpt lat="45.76062" lon="4.62821">
        <ele>718.8</ele>
        <time>2020-06-14T08:07:03.000Z</time>
      </trkpt>
      <trkpt lat="45.76064" lon="4.62817">
        <ele>718.8</ele>
        <time>2020-06-14T08:07:04.000Z</time>
      </trkpt>
      <trkpt lat="45.76065" lon="4.62813">
        <ele>719</ele>
        <time>2020-06-14T08:07:05.000Z</time>
      </trkpt>
      <trkpt lat="45.76067" lon="4.62808">
        <ele>718.8</ele>
        <time>2020-06-14T08:07:06.000Z</time>
      </trkpt>
      <trkpt lat="45.76068" lon="4.62804">
        <ele>719</ele>
        <time>2020-06-14T08:07:07.000Z</time>
      </trkpt>
      <trkpt lat="45.76069" lon="4.62799">
        <ele>719.4</ele>
        <time>2020-06-14T08:07:08.000Z</time>
      </trkpt>
      <trkpt lat="45.7607" lon="4.62795">
        <ele>719.6</ele>
        <time>2020-06-14T08:07:09.000Z</time>
      </trkpt>
      <trkpt lat="45.76071" lon="4.6279">
        <ele>719.8</ele>
        <time>2020-06-14T08:07:10.000Z</time>
      </trkpt>
      <trkpt lat="45.76072" lon="4.62786">
        <ele>719.8</ele>
        <time>2020-06-14T08:07:11.000Z</time>
      </trkpt>
      <trkpt lat="45.76072" lon="4.62782">
        <ele>719.8</ele>
        <time>2020-06-14T08:07:12.000Z</time>
      </trkpt>
      <trkpt lat="45.76072" lon="4.62777">
        <ele>720</ele>
        <time>2020-06-14T08:07:13.000Z</time>
      </trkpt>
      <trkpt lat="45.76072" lon="4.62773">
        <ele>720.2</ele>
        <time>2020-06-14T08:07:14.000Z</time>
      </trkpt>
      <trkpt lat="45.76072" lon="4.62769">
        <ele>720.4</ele>
        <time>2020-06-14T08:07:15.000Z</time>
      </trkpt>
      <trkpt lat="45.76072" lon="4.62765">
        <ele>720.4</ele>
        <time>2020-06-14T08:07:16.000Z</time>
      </trkpt>
      <trkpt lat="45.76072" lon="4.62761">
        <ele>720.8</ele>
        <time>2020-06-14T08:07:17.000Z</time>
      </trkpt>
      <trkpt lat="45.76072" lon="4.62757">
        <ele>721.2</ele>
        <time>2020-06-14T08:07:18.000Z</time>
      </trkpt>
      <trkpt lat="45.76071" lon="4.62753">
        <ele>721.4</ele>
        <time>2020-06-14T08:07:19.000Z</time>
      </trkpt>
      <trkpt lat="45.7607" lon="4.62749">
        <ele>721.8</ele>
        <time>2020-06-14T08:07:20.000Z</time>
      </trkpt>
      <trkpt lat="45.7607" lon="4.62744">
        <ele>721.8</ele>
        <time>2020-06-14T08:07:21.000Z</time>
      </trkpt>
      <trkpt lat="45.76068" lon="4.6274">
        <ele>722.4</ele>
        <time>2020-06-14T08:07:22.000Z</time>
      </trkpt>
      <trkpt lat="45.76068" lon="4.62736">
        <ele>722.4</ele>
        <time>2020-06-14T08:07:23.000Z</time>
      </trkpt>
      <trkpt lat="45.76067" lon="4.62732">
        <ele>722.8</ele>
        <time>2020-06-14T08:07:24.000Z</time>
      </trkpt>
      <trkpt lat="45.76067" lon="4.62728">
        <ele>723</ele>
        <time>2020-06-14T08:07:25.000Z</time>
      </trkpt>
      <trkpt lat="45.76066" lon="4.62724">
        <ele>723.2</ele>
        <time>2020-06-14T08:07:26.000Z</time>
      </trkpt>
      <trkpt lat="45.76066" lon="4.6272">
        <ele>723.4</ele>
        <time>2020-06-14T08:07:27.000Z</time>
      </trkpt>
      <trkpt lat="45.76066" lon="4.62716">
        <ele>723.6</ele>
        <time>2020-06-14T08:07:28.000Z</time>
      </trkpt>
      <trkpt lat="45.76066" lon="4.62712">
        <ele>723.8</ele>
        <time>2020-06-14T08:07:29.000Z</time>
      </trkpt>
      <trkpt lat="45.76067" lon="4.62708">
        <ele>723.8</ele>
        <time>2020-06-14T08:07:30.000Z</time>
      </trkpt>
      <trkpt lat="45.76069" lon="4.62705">
        <ele>723.8</ele>
        <time>2020-06-14T08:07:31.000Z</time>
      </trkpt>
      <trkpt lat="45.7607" lon="4.62702">
        <ele>723.8</ele>
        <time>2020-06-14T08:07:32.000Z</time>
      </trkpt>
      <trkpt lat="45.76072" lon="4.62699">
        <ele>724.2</ele>
        <time>2020-06-14T08:07:33.000Z</time>
      </trkpt>
      <trkpt lat="45.76074" lon="4.62696">
        <ele>724.2</ele>
        <time>2020-06-14T08:07:34.000Z</time>
      </trkpt>
      <trkpt lat="45.76077" lon="4.62694">
        <ele>724.4</ele>
        <time>2020-06-14T08:07:35.000Z</time>
      </trkpt>
      <trkpt lat="45.76079" lon="4.62692">
        <ele>724.6</ele>
        <time>2020-06-14T08:07:36.000Z</time>
      </trkpt>
      <trkpt lat="45.76082" lon="4.6269">
        <ele>724.8</ele>
        <time>2020-06-14T08:07:37.000Z</time>
      </trkpt>
      <trkpt lat="45.76084" lon="4.62688">
        <ele>724.6</ele>
        <time>2020-06-14T08:07:38.000Z</time>
      </trkpt>
      <trkpt lat="45.76087" lon="4.62687">
        <ele>724.8</ele>
        <time>2020-06-14T08:07:39.000Z</time>
      </trkpt>
      <trkpt lat="45.76089" lon="4.62685">
        <ele>725.2</ele>
        <time>2020-06-14T08:07:40.000Z</time>
      </trkpt>
      <trkpt lat="45.76092" lon="4.62684">
        <ele>725.2</ele>
        <time>2020-06-14T08:07:41.000Z</time>
      </trkpt>
      <trkpt lat="45.76096" lon="4.62683">
        <ele>725.6</ele>
        <time>2020-06-14T08:07:42.000Z</time>
      </trkpt>
      <trkpt lat="45.76099" lon="4.62682">
        <ele>725.6</ele>
        <time>2020-06-14T08:07:43.000Z</time>
      </trkpt>
      <trkpt lat="45.76102" lon="4.62681">
        <ele>725.6</ele>
        <time>2020-06-14T08:07:44.000Z</time>
      </trkpt>
      <trkpt lat="45.76105" lon="4.62681">
        <ele>725.8</ele>
        <time>2020-06-14T08:07:45.000Z</time>
      </trkpt>
      <trkpt lat="45.76108" lon="4.6268">
        <ele>725.8</ele>
        <time>2020-06-14T08:07:46.000Z</time>
      </trkpt>
      <trkpt lat="45.76111" lon="4.6268">
        <ele>726</ele>
        <time>2020-06-14T08:07:47.000Z</time>
      </trkpt>
      <trkpt lat="45.76114" lon="4.62679">
        <ele>726.2</ele>
        <time>2020-06-14T08:07:48.000Z</time>
      </trkpt>
      <trkpt lat="45.76117" lon="4.62679">
        <ele>726.4</ele>
        <time>2020-06-14T08:07:49.000Z</time>
      </trkpt>
      <trkpt lat="45.7612" lon="4.62679">
        <ele>726.4</ele>
        <time>2020-06-14T08:07:50.000Z</time>
      </trkpt>
      <trkpt lat="45.76122" lon="4.62678">
        <ele>726.4</ele>
        <time>2020-06-14T08:07:51.000Z</time>
      </trkpt>
      <trkpt lat="45.76125" lon="4.62678">
        <ele>726.6</ele>
        <time>2020-06-14T08:07:52.000Z</time>
      </trkpt>
      <trkpt lat="45.76128" lon="4.62678">
        <ele>727</ele>
        <time>2020-06-14T08:07:53.000Z</time>
      </trkpt>
      <trkpt lat="45.76131" lon="4.62678">
        <ele>727.4</ele>
        <time>2020-06-14T08:07:54.000Z</time>
      </trkpt>
      <trkpt lat="45.76134" lon="4.62677">
        <ele>727.6</ele>
        <time>2020-06-14T08:07:55.000Z</time>
      </trkpt>
      <trkpt lat="45.76136" lon="4.62677">
        <ele>727.8</ele>
        <time>2020-06-14T08:07:56.000Z</time>
      </trkpt>
      <trkpt lat="45.76139" lon="4.62677">
        <ele>728</ele>
        <time>2020-06-14T08:07:57.000Z</time>
      </trkpt>
      <trkpt lat="45.76142" lon="4.62677">
        <ele>728.2</ele>
        <time>2020-06-14T08:07:58.000Z</time>
      </trkpt>
      <trkpt lat="45.76144" lon="4.62675">
        <ele>728.4</ele>
        <time>2020-06-14T08:07:59.000Z</time>
      </trkpt>
      <trkpt lat="45.76146" lon="4.62671">
        <ele>728.6</ele>
        <time>2020-06-14T08:08:00.000Z</time>
      </trkpt>
      <trkpt lat="45.76146" lon="4.62667">
        <ele>728.6</ele>
        <time>2020-06-14T08:08:01.000Z</time>
      </trkpt>
      <trkpt lat="45.76145" lon="4.62664">
        <ele>728.8</ele>
        <time>2020-06-14T08:08:02.000Z</time>
      </trkpt>
      <trkpt lat="45.76143" lon="4.62661">
        <ele>728.8</ele>
        <time>2020-06-14T08:08:03.000Z</time>
      </trkpt>
      <trkpt lat="45.76141" lon="4.6266">
        <ele>729</ele>
        <time>2020-06-14T08:08:04.000Z</time>
      </trkpt>
      <trkpt lat="45.76138" lon="4.6266">
        <ele>729.2</ele>
        <time>2020-06-14T08:08:05.000Z</time>
      </trkpt>
      <trkpt lat="45.76135" lon="4.62661">
        <ele>729.2</ele>
        <time>2020-06-14T08:08:06.000Z</time>
      </trkpt>
      <trkpt lat="45.76132" lon="4.62663">
        <ele>729.6</ele>
        <time>2020-06-14T08:08:07.000Z</time>
      </trkpt>
      <trkpt lat="45.7613" lon="4.62664">
        <ele>729.8</ele>
        <time>2020-06-14T08:08:08.000Z</time>
      </trkpt>
      <trkpt lat="45.76126" lon="4.62666">
        <ele>730</ele>
        <time>2020-06-14T08:08:09.000Z</time>
      </trkpt>
      <trkpt lat="45.76123" lon="4.62666">
        <ele>730.2</ele>
        <time>2020-06-14T08:08:10.000Z</time>
      </trkpt>
      <trkpt lat="45.7612" lon="4.62667">
        <ele>730.4</ele>
        <time>2020-06-14T08:08:11.000Z</time>
      </trkpt>
      <trkpt lat="45.76116" lon="4.62667">
        <ele>730.4</ele>
        <time>2020-06-14T08:08:12.000Z</time>
      </trkpt>
      <trkpt lat="45.76113" lon="4.62667">
        <ele>730.4</ele>
        <time>2020-06-14T08:08:13.000Z</time>
      </trkpt>
      <trkpt lat="45.76109" lon="4.62667">
        <ele>730.6</ele>
        <time>2020-06-14T08:08:14.000Z</time>
      </trkpt>
      <trkpt lat="45.76106" lon="4.62667">
        <ele>730.8</ele>
        <time>2020-06-14T08:08:15.000Z</time>
      </trkpt>
      <trkpt lat="45.76103" lon="4.62667">
        <ele>730.6</ele>
        <time>2020-06-14T08:08:16.000Z</time>
      </trkpt>
      <trkpt lat="45.76101" lon="4.62667">
        <ele>731</ele>
        <time>2020-06-14T08:08:17.000Z</time>
      </trkpt>
      <trkpt lat="45.76098" lon="4.62667">
        <ele>731.2</ele>
        <time>2020-06-14T08:08:18.000Z</time>
      </trkpt>
      <trkpt lat="45.76095" lon="4.62667">
        <ele>731.2</ele>
        <time>2020-06-14T08:08:19.000Z</time>
      </trkpt>
      <trkpt lat="45.76092" lon="4.62667">
        <ele>731.6</ele>
        <time>2020-06-14T08:08:20.000Z</time>
      </trkpt>
      <trkpt lat="45.76089" lon="4.62667">
        <ele>731.8</ele>
        <time>2020-06-14T08:08:21.000Z</time>
      </trkpt>
      <trkpt lat="45.76087" lon="4.62667">
        <ele>731.8</ele>
        <time>2020-06-14T08:08:22.000Z</time>
      </trkpt>
      <trkpt lat="45.76084" lon="4.62667">
        <ele>732</ele>
        <time>2020-06-14T08:08:23.000Z</time>
      </trkpt>
      <trkpt lat="45.76081" lon="4.62666">
        <ele>732</ele>
        <time>2020-06-14T08:08:24.000Z</time>
      </trkpt>
      <trkpt lat="45.76078" lon="4.62666">
        <ele>732.2</ele>
        <time>2020-06-14T08:08:25.000Z</time>
      </trkpt>
      <trkpt lat="45.76076" lon="4.62665">
        <ele>732.4</ele>
        <time>2020-06-14T08:08:26.000Z</time>
      </trkpt>
      <trkpt lat="45.76073" lon="4.62664">
        <ele>732.6</ele>
        <time>2020-06-14T08:08:27.000Z</time>
      </trkpt>
      <trkpt lat="45.7607" lon="4.62663">
        <ele>733</ele>
        <time>2020-06-14T08:08:28.000Z</time>
      </trkpt>
      <trkpt lat="45.76067" lon="4.62662">
        <ele>732.8</ele>
        <time>2020-06-14T08:08:29.000Z</time>
      </trkpt>
      <trkpt lat="45.76065" lon="4.62661">
        <ele>733.2</ele>
        <time>2020-06-14T08:08:30.000Z</time>
      </trkpt>
      <trkpt lat="45.76063" lon="4.62659">
        <ele>733.4</ele>
        <time>2020-06-14T08:08:31.000Z</time>
      </trkpt>
      <trkpt lat="45.76061" lon="4.62657">
        <ele>733.4</ele>
        <time>2020-06-14T08:08:32.000Z</time>
      </trkpt>
      <trkpt lat="45.76058" lon="4.62656">
        <ele>733.6</ele>
        <time>2020-06-14T08:08:33.000Z</time>
      </trkpt>
      <trkpt lat="45.76056" lon="4.62655">
        <ele>734</ele>
        <time>2020-06-14T08:08:34.000Z</time>
      </trkpt>
      <trkpt lat="45.76053" lon="4.62655">
        <ele>734.2</ele>
        <time>2020-06-14T08:08:35.000Z</time>
      </trkpt>
      <trkpt lat="45.7605" lon="4.62654">
        <ele>734.4</ele>
        <time>2020-06-14T08:08:36.000Z</time>
      </trkpt>
      <trkpt lat="45.76048" lon="4.62655">
        <ele>734.4</ele>
        <time>2020-06-14T08:08:37.000Z</time>
      </trkpt>
      <trkpt lat="45.76045" lon="4.62656">
        <ele>734.8</ele>
        <time>2020-06-14T08:08:38.000Z</time>
      </trkpt>
      <trkpt lat="45.76043" lon="4.62658">
        <ele>734.8</ele>
        <time>2020-06-14T08:08:39.000Z</time>
      </trkpt>
      <trkpt lat="45.7604" lon="4.6266">
        <ele>734.8</ele>
        <time>2020-06-14T08:08:40.000Z</time>
      </trkpt>
      <trkpt lat="45.76038" lon="4.62662">
        <ele>735.2</ele>
        <time>2020-06-14T08:08:41.000Z</time>
      </trkpt>
      <trkpt lat="45.76036" lon="4.62665">
        <ele>735.4</ele>
        <time>2020-06-14T08:08:42.000Z</time>
      </trkpt>
      <trkpt lat="45.76034" lon="4.62668">
        <ele>735.8</ele>
        <time>2020-06-14T08:08:43.000Z</time>
      </trkpt>
      <trkpt lat="45.76032" lon="4.6267">
        <ele>736</ele>
        <time>2020-06-14T08:08:44.000Z</time>
      </trkpt>
      <trkpt lat="45.7603" lon="4.62673">
        <ele>736</ele>
        <time>2020-06-14T08:08:45.000Z</time>
      </trkpt>
      <trkpt lat="45.76029" lon="4.62676">
        <ele>736.4</ele>
        <time>2020-06-14T08:08:46.000Z</time>
      </trkpt>
      <trkpt lat="45.76027" lon="4.62679">
        <ele>736.4</ele>
        <time>2020-06-14T08:08:47.000Z</time>
      </trkpt>
      <trkpt lat="45.76026" lon="4.62682">
        <ele>736.4</ele>
        <time>2020-06-14T08:08:48.000Z</time>
      </trkpt>
      <trkpt lat="45.76024" lon="4.62686">
        <ele>736.4</ele>
        <time>2020-06-14T08:08:49.000Z</time>
      </trkpt>
      <trkpt lat="45.76022" lon="4.62689">
        <ele>736.6</ele>
        <time>2020-06-14T08:08:50.000Z</time>
      </trkpt>
      <trkpt lat="45.76019" lon="4.62697">
        <ele>737</ele>
        <time>2020-06-14T08:08:52.000Z</time>
      </trkpt>
      <trkpt lat="45.76018" lon="4.627">
        <ele>737</ele>
        <time>2020-06-14T08:08:53.000Z</time>
      </trkpt>
      <trkpt lat="45.76016" lon="4.62704">
        <ele>737</ele>
        <time>2020-06-14T08:08:54.000Z</time>
      </trkpt>
      <trkpt lat="45.76015" lon="4.62707">
        <ele>737.2</ele>
        <time>2020-06-14T08:08:55.000Z</time>
      </trkpt>
      <trkpt lat="45.76014" lon="4.62711">
        <ele>737.2</ele>
        <time>2020-06-14T08:08:56.000Z</time>
      </trkpt>
      <trkpt lat="45.76013" lon="4.62714">
        <ele>737.4</ele>
        <time>2020-06-14T08:08:57.000Z</time>
      </trkpt>
      <trkpt lat="45.76012" lon="4.62718">
        <ele>737.6</ele>
        <time>2020-06-14T08:08:58.000Z</time>
      </trkpt>
      <trkpt lat="45.7601" lon="4.62722">
        <ele>737.8</ele>
        <time>2020-06-14T08:08:59.000Z</time>
      </trkpt>
      <trkpt lat="45.76009" lon="4.62726">
        <ele>737.8</ele>
        <time>2020-06-14T08:09:00.000Z</time>
      </trkpt>
      <trkpt lat="45.76008" lon="4.6273">
        <ele>738</ele>
        <time>2020-06-14T08:09:01.000Z</time>
      </trkpt>
      <trkpt lat="45.76007" lon="4.62734">
        <ele>738.2</ele>
        <time>2020-06-14T08:09:02.000Z</time>
      </trkpt>
      <trkpt lat="45.76006" lon="4.62738">
        <ele>738.4</ele>
        <time>2020-06-14T08:09:03.000Z</time>
      </trkpt>
      <trkpt lat="45.76005" lon="4.62742">
        <ele>738.6</ele>
        <time>2020-06-14T08:09:04.000Z</time>
      </trkpt>
      <trkpt lat="45.76004" lon="4.62746">
        <ele>738.8</ele>
        <time>2020-06-14T08:09:05.000Z</time>
      </trkpt>
      <trkpt lat="45.76004" lon="4.6275">
        <ele>739</ele>
        <time>2020-06-14T08:09:06.000Z</time>
      </trkpt>
      <trkpt lat="45.76003" lon="4.62754">
        <ele>739</ele>
        <time>2020-06-14T08:09:07.000Z</time>
      </trkpt>
      <trkpt lat="45.76002" lon="4.62757">
        <ele>739.2</ele>
        <time>2020-06-14T08:09:08.000Z</time>
      </trkpt>
      <trkpt lat="45.75999" lon="4.62761">
        <ele>739.4</ele>
        <time>2020-06-14T08:09:09.000Z</time>
      </trkpt>
      <trkpt lat="45.75997" lon="4.62763">
        <ele>739.6</ele>
        <time>2020-06-14T08:09:10.000Z</time>
      </trkpt>
      <trkpt lat="45.75995" lon="4.62765">
        <ele>739.6</ele>
        <time>2020-06-14T08:09:11.000Z</time>
      </trkpt>
      <trkpt lat="45.75993" lon="4.62766">
        <ele>739.6</ele>
        <time>2020-06-14T08:09:12.000Z</time>
      </trkpt>
      <trkpt lat="45.75991" lon="4.62765">
        <ele>739.8</ele>
        <time>2020-06-14T08:09:13.000Z</time>
      </trkpt>
      <trkpt lat="45.7599" lon="4.62764">
        <ele>739.8</ele>
        <time>2020-06-14T08:09:14.000Z</time>
      </trkpt>
      <trkpt lat="45.7599" lon="4.62762">
        <ele>740</ele>
        <time>2020-06-14T08:09:15.000Z</time>
      </trkpt>
      <trkpt lat="45.75989" lon="4.62759">
        <ele>740.2</ele>
        <time>2020-06-14T08:09:16.000Z</time>
      </trkpt>
      <trkpt lat="45.75988" lon="4.62758">
        <ele>740.4</ele>
        <time>2020-06-14T08:09:17.000Z</time>
      </trkpt>
      <trkpt lat="45.75987" lon="4.62757">
        <ele>740.6</ele>
        <time>2020-06-14T08:09:18.000Z</time>
      </trkpt>
      <trkpt lat="45.75986" lon="4.62755">
        <ele>740.6</ele>
        <time>2020-06-14T08:09:19.000Z</time>
      </trkpt>
      <trkpt lat="45.75985" lon="4.62754">
        <ele>740.8</ele>
        <time>2020-06-14T08:09:20.000Z</time>
      </trkpt>
      <trkpt lat="45.75984" lon="4.62752">
        <ele>740.8</ele>
        <time>2020-06-14T08:09:21.000Z</time>
      </trkpt>
      <trkpt lat="45.75982" lon="4.6275">
        <ele>741</ele>
        <time>2020-06-14T08:09:22.000Z</time>
      </trkpt>
      <trkpt lat="45.75981" lon="4.62749">
        <ele>741</ele>
        <time>2020-06-14T08:09:23.000Z</time>
      </trkpt>
      <trkpt lat="45.7598" lon="4.62747">
        <ele>741</ele>
        <time>2020-06-14T08:09:24.000Z</time>
      </trkpt>
      <trkpt lat="45.75978" lon="4.62746">
        <ele>741.2</ele>
        <time>2020-06-14T08:09:25.000Z</time>
      </trkpt>
      <trkpt lat="45.75978" lon="4.62745">
        <ele>741.6</ele>
        <time>2020-06-14T08:09:26.000Z</time>
      </trkpt>
      <trkpt lat="45.75975" lon="4.62736">
        <ele>745.2</ele>
        <time>2020-06-14T08:10:01.000Z</time>
      </trkpt>
      <trkpt lat="45.75974" lon="4.62734">
        <ele>745.2</ele>
        <time>2020-06-14T08:10:02.000Z</time>
      </trkpt>
      <trkpt lat="45.75973" lon="4.62732">
        <ele>745.4</ele>
        <time>2020-06-14T08:10:03.000Z</time>
      </trkpt>
      <trkpt lat="45.75972" lon="4.6273">
        <ele>745.4</ele>
        <time>2020-06-14T08:10:04.000Z</time>
      </trkpt>
      <trkpt lat="45.75972" lon="4.62727">
        <ele>745.2</ele>
        <time>2020-06-14T08:10:05.000Z</time>
      </trkpt>
      <trkpt lat="45.75971" lon="4.62725">
        <ele>745.2</ele>
        <time>2020-06-14T08:10:06.000Z</time>
      </trkpt>
      <trkpt lat="45.75971" lon="4.62722">
        <ele>745.4</ele>
        <time>2020-06-14T08:10:07.000Z</time>
      </trkpt>
      <trkpt lat="45.75971" lon="4.62719">
        <ele>745.4</ele>
        <time>2020-06-14T08:10:08.000Z</time>
      </trkpt>
      <trkpt lat="45.75971" lon="4.62716">
        <ele>745.4</ele>
        <time>2020-06-14T08:10:09.000Z</time>
      </trkpt>
      <trkpt lat="45.7597" lon="4.62714">
        <ele>745.6</ele>
        <time>2020-06-14T08:10:10.000Z</time>
      </trkpt>
      <trkpt lat="45.7597" lon="4.62711">
        <ele>745.6</ele>
        <time>2020-06-14T08:10:11.000Z</time>
      </trkpt>
      <trkpt lat="45.7597" lon="4.62709">
        <ele>745.8</ele>
        <time>2020-06-14T08:10:12.000Z</time>
      </trkpt>
      <trkpt lat="45.7597" lon="4.62706">
        <ele>746</ele>
        <time>2020-06-14T08:10:13.000Z</time>
      </trkpt>
      <trkpt lat="45.7597" lon="4.62704">
        <ele>746.4</ele>
        <time>2020-06-14T08:10:14.000Z</time>
      </trkpt>
      <trkpt lat="45.75969" lon="4.62701">
        <ele>746.6</ele>
        <time>2020-06-14T08:10:15.000Z</time>
      </trkpt>
      <trkpt lat="45.75969" lon="4.62698">
        <ele>747</ele>
        <time>2020-06-14T08:10:16.000Z</time>
      </trkpt>
      <trkpt lat="45.75969" lon="4.62695">
        <ele>747</ele>
        <time>2020-06-14T08:10:17.000Z</time>
      </trkpt>
      <trkpt lat="45.75969" lon="4.62692">
        <ele>747.4</ele>
        <time>2020-06-14T08:10:18.000Z</time>
      </trkpt>
      <trkpt lat="45.75968" lon="4.62689">
        <ele>747.4</ele>
        <time>2020-06-14T08:10:19.000Z</time>
      </trkpt>
      <trkpt lat="45.75968" lon="4.62686">
        <ele>747.8</ele>
        <time>2020-06-14T08:10:20.000Z</time>
      </trkpt>
      <trkpt lat="45.75968" lon="4.62683">
        <ele>747.8</ele>
        <time>2020-06-14T08:10:21.000Z</time>
      </trkpt>
      <trkpt lat="45.75968" lon="4.62681">
        <ele>748</ele>
        <time>2020-06-14T08:10:22.000Z</time>
      </trkpt>
      <trkpt lat="45.75968" lon="4.62678">
        <ele>748.2</ele>
        <time>2020-06-14T08:10:23.000Z</time>
      </trkpt>
      <trkpt lat="45.75968" lon="4.62676">
        <ele>748.4</ele>
        <time>2020-06-14T08:10:24.000Z</time>
      </trkpt>
      <trkpt lat="45.75967" lon="4.62673">
        <ele>748.4</ele>
        <time>2020-06-14T08:10:25.000Z</time>
      </trkpt>
      <trkpt lat="45.75967" lon="4.6267">
        <ele>748.4</ele>
        <time>2020-06-14T08:10:26.000Z</time>
      </trkpt>
      <trkpt lat="45.75967" lon="4.62667">
        <ele>748.6</ele>
        <time>2020-06-14T08:10:27.000Z</time>
      </trkpt>
      <trkpt lat="45.75967" lon="4.62665">
        <ele>749</ele>
        <time>2020-06-14T08:10:28.000Z</time>
      </trkpt>
      <trkpt lat="45.75967" lon="4.62662">
        <ele>749</ele>
        <time>2020-06-14T08:10:29.000Z</time>
      </trkpt>
      <trkpt lat="45.75967" lon="4.62659">
        <ele>749.2</ele>
        <time>2020-06-14T08:10:30.000Z</time>
      </trkpt>
      <trkpt lat="45.75967" lon="4.62656">
        <ele>749.2</ele>
        <time>2020-06-14T08:10:31.000Z</time>
      </trkpt>
      <trkpt lat="45.75968" lon="4.62653">
        <ele>749.4</ele>
        <time>2020-06-14T08:10:32.000Z</time>
      </trkpt>
      <trkpt lat="45.75967" lon="4.6265">
        <ele>749.6</ele>
        <time>2020-06-14T08:10:33.000Z</time>
      </trkpt>
      <trkpt lat="45.75967" lon="4.62648">
        <ele>749.8</ele>
        <time>2020-06-14T08:10:34.000Z</time>
      </trkpt>
      <trkpt lat="45.75967" lon="4.62646">
        <ele>749.8</ele>
        <time>2020-06-14T08:10:35.000Z</time>
      </trkpt>
      <trkpt lat="45.75967" lon="4.62643">
        <ele>750</ele>
        <time>2020-06-14T08:10:36.000Z</time>
      </trkpt>
      <trkpt lat="45.75967" lon="4.6264">
        <ele>750</ele>
        <time>2020-06-14T08:10:37.000Z</time>
      </trkpt>
      <trkpt lat="45.75968" lon="4.62637">
        <ele>750.2</ele>
        <time>2020-06-14T08:10:38.000Z</time>
      </trkpt>
      <trkpt lat="45.75968" lon="4.62634">
        <ele>750.4</ele>
        <time>2020-06-14T08:10:39.000Z</time>
      </trkpt>
      <trkpt lat="45.75968" lon="4.62631">
        <ele>750.6</ele>
        <time>2020-06-14T08:10:40.000Z</time>
      </trkpt>
      <trkpt lat="45.75968" lon="4.62628">
        <ele>750.8</ele>
        <time>2020-06-14T08:10:41.000Z</time>
      </trkpt>
      <trkpt lat="45.75968" lon="4.62626">
        <ele>750.8</ele>
        <time>2020-06-14T08:10:42.000Z</time>
      </trkpt>
      <trkpt lat="45.75968" lon="4.62623">
        <ele>750.8</ele>
        <time>2020-06-14T08:10:43.000Z</time>
      </trkpt>
      <trkpt lat="45.75967" lon="4.6262">
        <ele>751</ele>
        <time>2020-06-14T08:10:44.000Z</time>
      </trkpt>
      <trkpt lat="45.75967" lon="4.62617">
        <ele>751.2</ele>
        <time>2020-06-14T08:10:45.000Z</time>
      </trkpt>
      <trkpt lat="45.75967" lon="4.62614">
        <ele>751.4</ele>
        <time>2020-06-14T08:10:46.000Z</time>
      </trkpt>
      <trkpt lat="45.75967" lon="4.62611">
        <ele>751.4</ele>
        <time>2020-06-14T08:10:47.000Z</time>
      </trkpt>
      <trkpt lat="45.75966" lon="4.62608">
        <ele>751.4</ele>
        <time>2020-06-14T08:10:48.000Z</time>
      </trkpt>
      <trkpt lat="45.75966" lon="4.62605">
        <ele>751.4</ele>
        <time>2020-06-14T08:10:49.000Z</time>
      </trkpt>
      <trkpt lat="45.75966" lon="4.62602">
        <ele>751.8</ele>
        <time>2020-06-14T08:10:50.000Z</time>
      </trkpt>
      <trkpt lat="45.75966" lon="4.62599">
        <ele>751.8</ele>
        <time>2020-06-14T08:10:51.000Z</time>
      </trkpt>
      <trkpt lat="45.75965" lon="4.62596">
        <ele>752</ele>
        <time>2020-06-14T08:10:52.000Z</time>
      </trkpt>
      <trkpt lat="45.75964" lon="4.62592">
        <ele>752.2</ele>
        <time>2020-06-14T08:10:53.000Z</time>
      </trkpt>
      <trkpt lat="45.75964" lon="4.62589">
        <ele>752.4</ele>
        <time>2020-06-14T08:10:54.000Z</time>
      </trkpt>
      <trkpt lat="45.75964" lon="4.62586">
        <ele>752.4</ele>
        <time>2020-06-14T08:10:55.000Z</time>
      </trkpt>
      <trkpt lat="45.75963" lon="4.62583">
        <ele>752.8</ele>
        <time>2020-06-14T08:10:56.000Z</time>
      </trkpt>
      <trkpt lat="45.75963" lon="4.6258">
        <ele>753</ele>
        <time>2020-06-14T08:10:57.000Z</time>
      </trkpt>
      <trkpt lat="45.75962" lon="4.62576">
        <ele>753</ele>
        <time>2020-06-14T08:10:58.000Z</time>
      </trkpt>
      <trkpt lat="45.75962" lon="4.62573">
        <ele>753.4</ele>
        <time>2020-06-14T08:10:59.000Z</time>
      </trkpt>
      <trkpt lat="45.75962" lon="4.6257">
        <ele>753.4</ele>
        <time>2020-06-14T08:11:00.000Z</time>
      </trkpt>
      <trkpt lat="45.75961" lon="4.62567">
        <ele>753.6</ele>
        <time>2020-06-14T08:11:01.000Z</time>
      </trkpt>
      <trkpt lat="45.7596" lon="4.62564">
        <ele>753.6</ele>
        <time>2020-06-14T08:11:02.000Z</time>
      </trkpt>
      <trkpt lat="45.7596" lon="4.62562">
        <ele>753.8</ele>
        <time>2020-06-14T08:11:03.000Z</time>
      </trkpt>
      <trkpt lat="45.75959" lon="4.62559">
        <ele>754.2</ele>
        <time>2020-06-14T08:11:04.000Z</time>
      </trkpt>
      <trkpt lat="45.75957" lon="4.62555">
        <ele>754.6</ele>
        <time>2020-06-14T08:11:05.000Z</time>
      </trkpt>
      <trkpt lat="45.75956" lon="4.62552">
        <ele>754.8</ele>
        <time>2020-06-14T08:11:06.000Z</time>
      </trkpt>
      <trkpt lat="45.75956" lon="4.62549">
        <ele>755</ele>
        <time>2020-06-14T08:11:07.000Z</time>
      </trkpt>
      <trkpt lat="45.75955" lon="4.62546">
        <ele>755</ele>
        <time>2020-06-14T08:11:08.000Z</time>
      </trkpt>
      <trkpt lat="45.75955" lon="4.62543">
        <ele>755.2</ele>
        <time>2020-06-14T08:11:09.000Z</time>
      </trkpt>
      <trkpt lat="45.75955" lon="4.62541">
        <ele>755.4</ele>
        <time>2020-06-14T08:11:10.000Z</time>
      </trkpt>
      <trkpt lat="45.75954" lon="4.62538">
        <ele>755.4</ele>
        <time>2020-06-14T08:11:11.000Z</time>
      </trkpt>
      <trkpt lat="45.75954" lon="4.62535">
        <ele>755.6</ele>
        <time>2020-06-14T08:11:12.000Z</time>
      </trkpt>
      <trkpt lat="45.75953" lon="4.62532">
        <ele>755.8</ele>
        <time>2020-06-14T08:11:13.000Z</time>
      </trkpt>
      <trkpt lat="45.75954" lon="4.62528">
        <ele>755.8</ele>
        <time>2020-06-14T08:11:14.000Z</time>
      </trkpt>
      <trkpt lat="45.75954" lon="4.62525">
        <ele>756.2</ele>
        <time>2020-06-14T08:11:15.000Z</time>
      </trkpt>
      <trkpt lat="45.75954" lon="4.62521">
        <ele>756.4</ele>
        <time>2020-06-14T08:11:16.000Z</time>
      </trkpt>
      <trkpt lat="45.75954" lon="4.62518">
        <ele>756.8</ele>
        <time>2020-06-14T08:11:17.000Z</time>
      </trkpt>
      <trkpt lat="45.75954" lon="4.6251">
        <ele>757</ele>
        <time>2020-06-14T08:11:19.000Z</time>
      </trkpt>
      <trkpt lat="45.75954" lon="4.62506">
        <ele>756.8</ele>
        <time>2020-06-14T08:11:20.000Z</time>
      </trkpt>
      <trkpt lat="45.75954" lon="4.62502">
        <ele>757</ele>
        <time>2020-06-14T08:11:21.000Z</time>
      </trkpt>
      <trkpt lat="45.75953" lon="4.62499">
        <ele>757</ele>
        <time>2020-06-14T08:11:22.000Z</time>
      </trkpt>
      <trkpt lat="45.75954" lon="4.62498">
        <ele>757</ele>
        <time>2020-06-14T08:11:23.000Z</time>
      </trkpt>
      <trkpt lat="45.75954" lon="4.62496">
        <ele>757</ele>
        <time>2020-06-14T08:11:24.000Z</time>
      </trkpt>
      <trkpt lat="45.75954" lon="4.62493">
        <ele>757</ele>
        <time>2020-06-14T08:11:25.000Z</time>
      </trkpt>
      <trkpt lat="45.75953" lon="4.62483">
        <ele>757</ele>
        <time>2020-06-14T08:11:28.000Z</time>
      </trkpt>
      <trkpt lat="45.75952" lon="4.6248">
        <ele>756.8</ele>
        <time>2020-06-14T08:11:29.000Z</time>
      </trkpt>
      <trkpt lat="45.7595" lon="4.62476">
        <ele>757</ele>
        <time>2020-06-14T08:11:30.000Z</time>
      </trkpt>
      <trkpt lat="45.75949" lon="4.62472">
        <ele>757</ele>
        <time>2020-06-14T08:11:31.000Z</time>
      </trkpt>
      <trkpt lat="45.75946" lon="4.62454">
        <ele>756.8</ele>
        <time>2020-06-14T08:11:35.000Z</time>
      </trkpt>
      <trkpt lat="45.75945" lon="4.62444">
        <ele>756.8</ele>
        <time>2020-06-14T08:11:37.000Z</time>
      </trkpt>
      <trkpt lat="45.75945" lon="4.62439">
        <ele>756.8</ele>
        <time>2020-06-14T08:11:38.000Z</time>
      </trkpt>
      <trkpt lat="45.75945" lon="4.62434">
        <ele>756.6</ele>
        <time>2020-06-14T08:11:39.000Z</time>
      </trkpt>
      <trkpt lat="45.75944" lon="4.62429">
        <ele>756.8</ele>
        <time>2020-06-14T08:11:40.000Z</time>
      </trkpt>
      <trkpt lat="45.75943" lon="4.62418">
        <ele>756.8</ele>
        <time>2020-06-14T08:11:42.000Z</time>
      </trkpt>
      <trkpt lat="45.75943" lon="4.62412">
        <ele>756.6</ele>
        <time>2020-06-14T08:11:43.000Z</time>
      </trkpt>
      <trkpt lat="45.75944" lon="4.62406">
        <ele>756.8</ele>
        <time>2020-06-14T08:11:44.000Z</time>
      </trkpt>
      <trkpt lat="45.75944" lon="4.624">
        <ele>756.6</ele>
        <time>2020-06-14T08:11:45.000Z</time>
      </trkpt>
      <trkpt lat="45.75943" lon="4.62394">
        <ele>756.4</ele>
        <time>2020-06-14T08:11:46.000Z</time>
      </trkpt>
      <trkpt lat="45.75942" lon="4.62388">
        <ele>756.2</ele>
        <time>2020-06-14T08:11:47.000Z</time>
      </trkpt>
      <trkpt lat="45.75941" lon="4.62384">
        <ele>756</ele>
        <time>2020-06-14T08:11:48.000Z</time>
      </trkpt>
      <trkpt lat="45.75939" lon="4.6238">
        <ele>755.8</ele>
        <time>2020-06-14T08:11:49.000Z</time>
      </trkpt>
      <trkpt lat="45.75937" lon="4.62377">
        <ele>755.8</ele>
        <time>2020-06-14T08:11:50.000Z</time>
      </trkpt>
      <trkpt lat="45.75935" lon="4.62375">
        <ele>755.4</ele>
        <time>2020-06-14T08:11:51.000Z</time>
      </trkpt>
      <trkpt lat="45.75934" lon="4.62374">
        <ele>755.4</ele>
        <time>2020-06-14T08:11:52.000Z</time>
      </trkpt>
      <trkpt lat="45.75932" lon="4.62373">
        <ele>755.2</ele>
        <time>2020-06-14T08:11:53.000Z</time>
      </trkpt>
      <trkpt lat="45.75931" lon="4.62374">
        <ele>755</ele>
        <time>2020-06-14T08:11:54.000Z</time>
      </trkpt>
      <trkpt lat="45.75929" lon="4.62374">
        <ele>755</ele>
        <time>2020-06-14T08:11:55.000Z</time>
      </trkpt>
      <trkpt lat="45.75928" lon="4.62375">
        <ele>755</ele>
        <time>2020-06-14T08:11:56.000Z</time>
      </trkpt>
      <trkpt lat="45.75926" lon="4.62375">
        <ele>755</ele>
        <time>2020-06-14T08:11:57.000Z</time>
      </trkpt>
      <trkpt lat="45.75924" lon="4.62376">
        <ele>755.2</ele>
        <time>2020-06-14T08:11:58.000Z</time>
      </trkpt>
      <trkpt lat="45.75922" lon="4.62377">
        <ele>755</ele>
        <time>2020-06-14T08:11:59.000Z</time>
      </trkpt>
      <trkpt lat="45.75921" lon="4.62378">
        <ele>755</ele>
        <time>2020-06-14T08:12:00.000Z</time>
      </trkpt>
      <trkpt lat="45.75919" lon="4.62379">
        <ele>755</ele>
        <time>2020-06-14T08:12:01.000Z</time>
      </trkpt>
      <trkpt lat="45.75918" lon="4.62381">
        <ele>755.4</ele>
        <time>2020-06-14T08:12:02.000Z</time>
      </trkpt>
      <trkpt lat="45.75917" lon="4.62383">
        <ele>755.4</ele>
        <time>2020-06-14T08:12:03.000Z</time>
      </trkpt>
      <trkpt lat="45.75916" lon="4.62384">
        <ele>756.2</ele>
        <time>2020-06-14T08:12:04.000Z</time>
      </trkpt>
      <trkpt lat="45.75915" lon="4.62386">
        <ele>756.8</ele>
        <time>2020-06-14T08:12:05.000Z</time>
      </trkpt>
      <trkpt lat="45.75913" lon="4.62387">
        <ele>757.4</ele>
        <time>2020-06-14T08:12:06.000Z</time>
      </trkpt>
      <trkpt lat="45.75912" lon="4.62389">
        <ele>757.8</ele>
        <time>2020-06-14T08:12:07.000Z</time>
      </trkpt>
      <trkpt lat="45.75911" lon="4.6239">
        <ele>758</ele>
        <time>2020-06-14T08:12:08.000Z</time>
      </trkpt>
      <trkpt lat="45.7591" lon="4.62391">
        <ele>758.6</ele>
        <time>2020-06-14T08:12:09.000Z</time>
      </trkpt>
      <trkpt lat="45.75908" lon="4.62391">
        <ele>758.8</ele>
        <time>2020-06-14T08:12:10.000Z</time>
      </trkpt>
      <trkpt lat="45.75907" lon="4.62392">
        <ele>759</ele>
        <time>2020-06-14T08:12:11.000Z</time>
      </trkpt>
      <trkpt lat="45.75905" lon="4.62392">
        <ele>759</ele>
        <time>2020-06-14T08:12:12.000Z</time>
      </trkpt>
      <trkpt lat="45.75904" lon="4.62392">
        <ele>759.6</ele>
        <time>2020-06-14T08:12:13.000Z</time>
      </trkpt>
      <trkpt lat="45.75903" lon="4.62392">
        <ele>760</ele>
        <time>2020-06-14T08:12:14.000Z</time>
      </trkpt>
      <trkpt lat="45.75901" lon="4.62392">
        <ele>760.4</ele>
        <time>2020-06-14T08:12:15.000Z</time>
      </trkpt>
      <trkpt lat="45.759" lon="4.62391">
        <ele>760.8</ele>
        <time>2020-06-14T08:12:16.000Z</time>
      </trkpt>
      <trkpt lat="45.75898" lon="4.62391">
        <ele>761.4</ele>
        <time>2020-06-14T08:12:17.000Z</time>
      </trkpt>
      <trkpt lat="45.75897" lon="4.6239">
        <ele>761.6</ele>
        <time>2020-06-14T08:12:18.000Z</time>
      </trkpt>
      <trkpt lat="45.75896" lon="4.62388">
        <ele>762</ele>
        <time>2020-06-14T08:12:19.000Z</time>
      </trkpt>
      <trkpt lat="45.75895" lon="4.62387">
        <ele>762.4</ele>
        <time>2020-06-14T08:12:20.000Z</time>
      </trkpt>
      <trkpt lat="45.75894" lon="4.62386">
        <ele>763</ele>
        <time>2020-06-14T08:12:21.000Z</time>
      </trkpt>
      <trkpt lat="45.75893" lon="4.62384">
        <ele>763.2</ele>
        <time>2020-06-14T08:12:22.000Z</time>
      </trkpt>
      <trkpt lat="45.75892" lon="4.62382">
        <ele>763.6</ele>
        <time>2020-06-14T08:12:23.000Z</time>
      </trkpt>
      <trkpt lat="45.75891" lon="4.62381">
        <ele>763.6</ele>
        <time>2020-06-14T08:12:24.000Z</time>
      </trkpt>
      <trkpt lat="45.75889" lon="4.62379">
        <ele>763.8</ele>
        <time>2020-06-14T08:12:25.000Z</time>
      </trkpt>
      <trkpt lat="45.75887" lon="4.62378">
        <ele>764</ele>
        <time>2020-06-14T08:12:26.000Z</time>
      </trkpt>
      <trkpt lat="45.75885" lon="4.62378">
        <ele>764.2</ele>
        <time>2020-06-14T08:12:27.000Z</time>
      </trkpt>
      <trkpt lat="45.75884" lon="4.62377">
        <ele>764.4</ele>
        <time>2020-06-14T08:12:28.000Z</time>
      </trkpt>
      <trkpt lat="45.75882" lon="4.62377">
        <ele>764.4</ele>
        <time>2020-06-14T08:12:29.000Z</time>
      </trkpt>
      <trkpt lat="45.75881" lon="4.62376">
        <ele>764.8</ele>
        <time>2020-06-14T08:12:30.000Z</time>
      </trkpt>
      <trkpt lat="45.75879" lon="4.62375">
        <ele>764.8</ele>
        <time>2020-06-14T08:12:31.000Z</time>
      </trkpt>
      <trkpt lat="45.75877" lon="4.62375">
        <ele>764.8</ele>
        <time>2020-06-14T08:12:32.000Z</time>
      </trkpt>
      <trkpt lat="45.75875" lon="4.62374">
        <ele>764.8</ele>
        <time>2020-06-14T08:12:33.000Z</time>
      </trkpt>
      <trkpt lat="45.75873" lon="4.62373">
        <ele>764.8</ele>
        <time>2020-06-14T08:12:34.000Z</time>
      </trkpt>
      <trkpt lat="45.7587" lon="4.62372">
        <ele>764.8</ele>
        <time>2020-06-14T08:12:35.000Z</time>
      </trkpt>
      <trkpt lat="45.75868" lon="4.62372">
        <ele>765.2</ele>
        <time>2020-06-14T08:12:36.000Z</time>
      </trkpt>
      <trkpt lat="45.75865" lon="4.62371">
        <ele>765.4</ele>
        <time>2020-06-14T08:12:37.000Z</time>
      </trkpt>
      <trkpt lat="45.75864" lon="4.62371">
        <ele>765.6</ele>
        <time>2020-06-14T08:12:38.000Z</time>
      </trkpt>
      <trkpt lat="45.75862" lon="4.62371">
        <ele>766</ele>
        <time>2020-06-14T08:12:39.000Z</time>
      </trkpt>
      <trkpt lat="45.7586" lon="4.6237">
        <ele>766</ele>
        <time>2020-06-14T08:12:40.000Z</time>
      </trkpt>
      <trkpt lat="45.75858" lon="4.6237">
        <ele>766.2</ele>
        <time>2020-06-14T08:12:41.000Z</time>
      </trkpt>
      <trkpt lat="45.75856" lon="4.62371">
        <ele>766.6</ele>
        <time>2020-06-14T08:12:42.000Z</time>
      </trkpt>
      <trkpt lat="45.75854" lon="4.62371">
        <ele>766.8</ele>
        <time>2020-06-14T08:12:43.000Z</time>
      </trkpt>
      <trkpt lat="45.75852" lon="4.62371">
        <ele>766.8</ele>
        <time>2020-06-14T08:12:44.000Z</time>
      </trkpt>
      <trkpt lat="45.75851" lon="4.62371">
        <ele>766.8</ele>
        <time>2020-06-14T08:12:45.000Z</time>
      </trkpt>
      <trkpt lat="45.75848" lon="4.6237">
        <ele>767</ele>
        <time>2020-06-14T08:12:46.000Z</time>
      </trkpt>
      <trkpt lat="45.75846" lon="4.62371">
        <ele>767</ele>
        <time>2020-06-14T08:12:47.000Z</time>
      </trkpt>
      <trkpt lat="45.75843" lon="4.62371">
        <ele>767.2</ele>
        <time>2020-06-14T08:12:48.000Z</time>
      </trkpt>
      <trkpt lat="45.75841" lon="4.62371">
        <ele>767.2</ele>
        <time>2020-06-14T08:12:49.000Z</time>
      </trkpt>
      <trkpt lat="45.75839" lon="4.6237">
        <ele>767.6</ele>
        <time>2020-06-14T08:12:50.000Z</time>
      </trkpt>
      <trkpt lat="45.75837" lon="4.6237">
        <ele>767.8</ele>
        <time>2020-06-14T08:12:51.000Z</time>
      </trkpt>
      <trkpt lat="45.75836" lon="4.62369">
        <ele>768</ele>
        <time>2020-06-14T08:12:52.000Z</time>
      </trkpt>
      <trkpt lat="45.75834" lon="4.62368">
        <ele>768</ele>
        <time>2020-06-14T08:12:53.000Z</time>
      </trkpt>
      <trkpt lat="45.7583" lon="4.62367">
        <ele>768</ele>
        <time>2020-06-14T08:12:55.000Z</time>
      </trkpt>
      <trkpt lat="45.75827" lon="4.62367">
        <ele>768</ele>
        <time>2020-06-14T08:12:56.000Z</time>
      </trkpt>
      <trkpt lat="45.75823" lon="4.62366">
        <ele>768.2</ele>
        <time>2020-06-14T08:12:58.000Z</time>
      </trkpt>
      <trkpt lat="45.7582" lon="4.62364">
        <ele>768.2</ele>
        <time>2020-06-14T08:12:59.000Z</time>
      </trkpt>
      <trkpt lat="45.75818" lon="4.62361">
        <ele>768.2</ele>
        <time>2020-06-14T08:13:00.000Z</time>
      </trkpt>
      <trkpt lat="45.75815" lon="4.62359">
        <ele>768.2</ele>
        <time>2020-06-14T08:13:01.000Z</time>
      </trkpt>
      <trkpt lat="45.75813" lon="4.62355">
        <ele>768.4</ele>
        <time>2020-06-14T08:13:02.000Z</time>
      </trkpt>
      <trkpt lat="45.75811" lon="4.62352">
        <ele>768.2</ele>
        <time>2020-06-14T08:13:03.000Z</time>
      </trkpt>
      <trkpt lat="45.75808" lon="4.6235">
        <ele>768.2</ele>
        <time>2020-06-14T08:13:04.000Z</time>
      </trkpt>
      <trkpt lat="45.75804" lon="4.62348">
        <ele>768.4</ele>
        <time>2020-06-14T08:13:05.000Z</time>
      </trkpt>
      <trkpt lat="45.75799" lon="4.62346">
        <ele>768.2</ele>
        <time>2020-06-14T08:13:06.000Z</time>
      </trkpt>
      <trkpt lat="45.75796" lon="4.62343">
        <ele>768.2</ele>
        <time>2020-06-14T08:13:07.000Z</time>
      </trkpt>
      <trkpt lat="45.75787" lon="4.62338">
        <ele>768.2</ele>
        <time>2020-06-14T08:13:09.000Z</time>
      </trkpt>
      <trkpt lat="45.75779" lon="4.62336">
        <ele>767.6</ele>
        <time>2020-06-14T08:13:11.000Z</time>
      </trkpt>
      <trkpt lat="45.75775" lon="4.62336">
        <ele>767.6</ele>
        <time>2020-06-14T08:13:12.000Z</time>
      </trkpt>
      <trkpt lat="45.75771" lon="4.62335">
        <ele>767.6</ele>
        <time>2020-06-14T08:13:13.000Z</time>
      </trkpt>
      <trkpt lat="45.75767" lon="4.62334">
        <ele>767.2</ele>
        <time>2020-06-14T08:13:14.000Z</time>
      </trkpt>
      <trkpt lat="45.75762" lon="4.62332">
        <ele>766.8</ele>
        <time>2020-06-14T08:13:15.000Z</time>
      </trkpt>
      <trkpt lat="45.75759" lon="4.6233">
        <ele>766.2</ele>
        <time>2020-06-14T08:13:16.000Z</time>
      </trkpt>
      <trkpt lat="45.75755" lon="4.62326">
        <ele>765.6</ele>
        <time>2020-06-14T08:13:17.000Z</time>
      </trkpt>
      <trkpt lat="45.75751" lon="4.62321">
        <ele>765.4</ele>
        <time>2020-06-14T08:13:18.000Z</time>
      </trkpt>
      <trkpt lat="45.75749" lon="4.62314">
        <ele>764.6</ele>
        <time>2020-06-14T08:13:19.000Z</time>
      </trkpt>
      <trkpt lat="45.75746" lon="4.62307">
        <ele>763.8</ele>
        <time>2020-06-14T08:13:20.000Z</time>
      </trkpt>
      <trkpt lat="45.75744" lon="4.62299">
        <ele>762.6</ele>
        <time>2020-06-14T08:13:21.000Z</time>
      </trkpt>
      <trkpt lat="45.75742" lon="4.6229">
        <ele>762</ele>
        <time>2020-06-14T08:13:22.000Z</time>
      </trkpt>
      <trkpt lat="45.75732" lon="4.62257">
        <ele>759.4</ele>
        <time>2020-06-14T08:13:26.000Z</time>
      </trkpt>
      <trkpt lat="45.75728" lon="4.62248">
        <ele>759</ele>
        <time>2020-06-14T08:13:27.000Z</time>
      </trkpt>
      <trkpt lat="45.75725" lon="4.62239">
        <ele>758.4</ele>
        <time>2020-06-14T08:13:28.000Z</time>
      </trkpt>
      <trkpt lat="45.75722" lon="4.62231">
        <ele>758</ele>
        <time>2020-06-14T08:13:29.000Z</time>
      </trkpt>
      <trkpt lat="45.7572" lon="4.62223">
        <ele>757.2</ele>
        <time>2020-06-14T08:13:30.000Z</time>
      </trkpt>
      <trkpt lat="45.75717" lon="4.62215">
        <ele>756.6</ele>
        <time>2020-06-14T08:13:31.000Z</time>
      </trkpt>
      <trkpt lat="45.75714" lon="4.62207">
        <ele>756.4</ele>
        <time>2020-06-14T08:13:32.000Z</time>
      </trkpt>
      <trkpt lat="45.75712" lon="4.62199">
        <ele>756.2</ele>
        <time>2020-06-14T08:13:33.000Z</time>
      </trkpt>
      <trkpt lat="45.75709" lon="4.62192">
        <ele>756.2</ele>
        <time>2020-06-14T08:13:34.000Z</time>
      </trkpt>
      <trkpt lat="45.75706" lon="4.62185">
        <ele>756.2</ele>
        <time>2020-06-14T08:13:35.000Z</time>
      </trkpt>
      <trkpt lat="45.75702" lon="4.62179">
        <ele>755.8</ele>
        <time>2020-06-14T08:13:36.000Z</time>
      </trkpt>
      <trkpt lat="45.75699" lon="4.62174">
        <ele>755.6</ele>
        <time>2020-06-14T08:13:37.000Z</time>
      </trkpt>
      <trkpt lat="45.75695" lon="4.62171">
        <ele>755.2</ele>
        <time>2020-06-14T08:13:38.000Z</time>
      </trkpt>
      <trkpt lat="45.75693" lon="4.62167">
        <ele>755</ele>
        <time>2020-06-14T08:13:39.000Z</time>
      </trkpt>
      <trkpt lat="45.75692" lon="4.62164">
        <ele>754.8</ele>
        <time>2020-06-14T08:13:40.000Z</time>
      </trkpt>
      <trkpt lat="45.75691" lon="4.62162">
        <ele>754.8</ele>
        <time>2020-06-14T08:13:41.000Z</time>
      </trkpt>
      <trkpt lat="45.75689" lon="4.62159">
        <ele>754.4</ele>
        <time>2020-06-14T08:13:42.000Z</time>
      </trkpt>
      <trkpt lat="45.75688" lon="4.62156">
        <ele>754.4</ele>
        <time>2020-06-14T08:13:43.000Z</time>
      </trkpt>
      <trkpt lat="45.75687" lon="4.62154">
        <ele>754.6</ele>
        <time>2020-06-14T08:13:44.000Z</time>
      </trkpt>
      <trkpt lat="45.75686" lon="4.62151">
        <ele>754.4</ele>
        <time>2020-06-14T08:13:45.000Z</time>
      </trkpt>
      <trkpt lat="45.75686" lon="4.62148">
        <ele>754.2</ele>
        <time>2020-06-14T08:13:46.000Z</time>
      </trkpt>
      <trkpt lat="45.75685" lon="4.62144">
        <ele>754</ele>
        <time>2020-06-14T08:13:47.000Z</time>
      </trkpt>
      <trkpt lat="45.75684" lon="4.6214">
        <ele>753.6</ele>
        <time>2020-06-14T08:13:48.000Z</time>
      </trkpt>
      <trkpt lat="45.75683" lon="4.62135">
        <ele>753.4</ele>
        <time>2020-06-14T08:13:49.000Z</time>
      </trkpt>
      <trkpt lat="45.75682" lon="4.62125">
        <ele>753</ele>
        <time>2020-06-14T08:13:51.000Z</time>
      </trkpt>
      <trkpt lat="45.75683" lon="4.6212">
        <ele>752.8</ele>
        <time>2020-06-14T08:13:52.000Z</time>
      </trkpt>
      <trkpt lat="45.75683" lon="4.62115">
        <ele>752.8</ele>
        <time>2020-06-14T08:13:53.000Z</time>
      </trkpt>
      <trkpt lat="45.75683" lon="4.621">
        <ele>752.8</ele>
        <time>2020-06-14T08:13:56.000Z</time>
      </trkpt>
      <trkpt lat="45.75682" lon="4.62095">
        <ele>752.6</ele>
        <time>2020-06-14T08:13:57.000Z</time>
      </trkpt>
      <trkpt lat="45.75681" lon="4.6209">
        <ele>752.4</ele>
        <time>2020-06-14T08:13:58.000Z</time>
      </trkpt>
      <trkpt lat="45.7568" lon="4.62086">
        <ele>752.4</ele>
        <time>2020-06-14T08:13:59.000Z</time>
      </trkpt>
      <trkpt lat="45.7568" lon="4.62081">
        <ele>752.6</ele>
        <time>2020-06-14T08:14:00.000Z</time>
      </trkpt>
      <trkpt lat="45.7568" lon="4.62077">
        <ele>752.4</ele>
        <time>2020-06-14T08:14:01.000Z</time>
      </trkpt>
      <trkpt lat="45.75679" lon="4.62072">
        <ele>752.4</ele>
        <time>2020-06-14T08:14:02.000Z</time>
      </trkpt>
      <trkpt lat="45.75679" lon="4.62068">
        <ele>752.2</ele>
        <time>2020-06-14T08:14:03.000Z</time>
      </trkpt>
      <trkpt lat="45.75678" lon="4.62063">
        <ele>752.2</ele>
        <time>2020-06-14T08:14:04.000Z</time>
      </trkpt>
      <trkpt lat="45.75677" lon="4.62059">
        <ele>752.2</ele>
        <time>2020-06-14T08:14:05.000Z</time>
      </trkpt>
      <trkpt lat="45.75677" lon="4.62054">
        <ele>752.2</ele>
        <time>2020-06-14T08:14:06.000Z</time>
      </trkpt>
      <trkpt lat="45.75676" lon="4.62049">
        <ele>752</ele>
        <time>2020-06-14T08:14:07.000Z</time>
      </trkpt>
      <trkpt lat="45.75674" lon="4.62034">
        <ele>751.8</ele>
        <time>2020-06-14T08:14:10.000Z</time>
      </trkpt>
      <trkpt lat="45.75673" lon="4.62029">
        <ele>751.8</ele>
        <time>2020-06-14T08:14:11.000Z</time>
      </trkpt>
      <trkpt lat="45.75673" lon="4.62025">
        <ele>751.8</ele>
        <time>2020-06-14T08:14:12.000Z</time>
      </trkpt>
      <trkpt lat="45.75673" lon="4.62021">
        <ele>751.6</ele>
        <time>2020-06-14T08:14:13.000Z</time>
      </trkpt>
      <trkpt lat="45.75673" lon="4.62017">
        <ele>751.6</ele>
        <time>2020-06-14T08:14:14.000Z</time>
      </trkpt>
      <trkpt lat="45.75672" lon="4.62013">
        <ele>751.6</ele>
        <time>2020-06-14T08:14:15.000Z</time>
      </trkpt>
      <trkpt lat="45.75672" lon="4.62009">
        <ele>751.6</ele>
        <time>2020-06-14T08:14:16.000Z</time>
      </trkpt>
      <trkpt lat="45.75673" lon="4.62006">
        <ele>751.6</ele>
        <time>2020-06-14T08:14:17.000Z</time>
      </trkpt>
      <trkpt lat="45.75674" lon="4.62003">
        <ele>751.6</ele>
        <time>2020-06-14T08:14:18.000Z</time>
      </trkpt>
      <trkpt lat="45.75675" lon="4.61995">
        <ele>751.6</ele>
        <time>2020-06-14T08:14:20.000Z</time>
      </trkpt>
      <trkpt lat="45.75675" lon="4.61991">
        <ele>751.6</ele>
        <time>2020-06-14T08:14:21.000Z</time>
      </trkpt>
      <trkpt lat="45.75673" lon="4.61987">
        <ele>751.6</ele>
        <time>2020-06-14T08:14:22.000Z</time>
      </trkpt>
      <trkpt lat="45.75669" lon="4.61975">
        <ele>751.4</ele>
        <time>2020-06-14T08:14:25.000Z</time>
      </trkpt>
      <trkpt lat="45.75668" lon="4.61971">
        <ele>751.6</ele>
        <time>2020-06-14T08:14:26.000Z</time>
      </trkpt>
      <trkpt lat="45.75667" lon="4.61967">
        <ele>751.4</ele>
        <time>2020-06-14T08:14:27.000Z</time>
      </trkpt>
      <trkpt lat="45.75666" lon="4.61962">
        <ele>751.4</ele>
        <time>2020-06-14T08:14:28.000Z</time>
      </trkpt>
      <trkpt lat="45.75666" lon="4.61958">
        <ele>751.4</ele>
        <time>2020-06-14T08:14:29.000Z</time>
      </trkpt>
      <trkpt lat="45.75665" lon="4.61954">
        <ele>751.4</ele>
        <time>2020-06-14T08:14:30.000Z</time>
      </trkpt>
      <trkpt lat="45.75665" lon="4.61949">
        <ele>751.4</ele>
        <time>2020-06-14T08:14:31.000Z</time>
      </trkpt>
      <trkpt lat="45.75663" lon="4.61941">
        <ele>751.4</ele>
        <time>2020-06-14T08:14:33.000Z</time>
      </trkpt>
      <trkpt lat="45.75662" lon="4.61936">
        <ele>751.4</ele>
        <time>2020-06-14T08:14:34.000Z</time>
      </trkpt>
      <trkpt lat="45.75661" lon="4.61932">
        <ele>751.4</ele>
        <time>2020-06-14T08:14:35.000Z</time>
      </trkpt>
      <trkpt lat="45.75655" lon="4.619">
        <ele>751</ele>
        <time>2020-06-14T08:14:41.000Z</time>
      </trkpt>
      <trkpt lat="45.75654" lon="4.61894">
        <ele>751</ele>
        <time>2020-06-14T08:14:42.000Z</time>
      </trkpt>
      <trkpt lat="45.75652" lon="4.61888">
        <ele>750.8</ele>
        <time>2020-06-14T08:14:43.000Z</time>
      </trkpt>
      <trkpt lat="45.7565" lon="4.61882">
        <ele>750.8</ele>
        <time>2020-06-14T08:14:44.000Z</time>
      </trkpt>
      <trkpt lat="45.75646" lon="4.6187">
        <ele>750.6</ele>
        <time>2020-06-14T08:14:46.000Z</time>
      </trkpt>
      <trkpt lat="45.75643" lon="4.61865">
        <ele>750.6</ele>
        <time>2020-06-14T08:14:47.000Z</time>
      </trkpt>
      <trkpt lat="45.7564" lon="4.61861">
        <ele>750.4</ele>
        <time>2020-06-14T08:14:48.000Z</time>
      </trkpt>
      <trkpt lat="45.75637" lon="4.61857">
        <ele>750.2</ele>
        <time>2020-06-14T08:14:49.000Z</time>
      </trkpt>
      <trkpt lat="45.75635" lon="4.61854">
        <ele>750.2</ele>
        <time>2020-06-14T08:14:50.000Z</time>
      </trkpt>
      <trkpt lat="45.75633" lon="4.6185">
        <ele>749.8</ele>
        <time>2020-06-14T08:14:51.000Z</time>
      </trkpt>
      <trkpt lat="45.75632" lon="4.61847">
        <ele>749.6</ele>
        <time>2020-06-14T08:14:52.000Z</time>
      </trkpt>
      <trkpt lat="45.7563" lon="4.61845">
        <ele>749.4</ele>
        <time>2020-06-14T08:14:53.000Z</time>
      </trkpt>
      <trkpt lat="45.75627" lon="4.61844">
        <ele>749.4</ele>
        <time>2020-06-14T08:14:54.000Z</time>
      </trkpt>
      <trkpt lat="45.75623" lon="4.61843">
        <ele>749.2</ele>
        <time>2020-06-14T08:14:55.000Z</time>
      </trkpt>
      <trkpt lat="45.7562" lon="4.61841">
        <ele>749.2</ele>
        <time>2020-06-14T08:14:56.000Z</time>
      </trkpt>
      <trkpt lat="45.75618" lon="4.61839">
        <ele>749</ele>
        <time>2020-06-14T08:14:57.000Z</time>
      </trkpt>
      <trkpt lat="45.75617" lon="4.61835">
        <ele>748.8</ele>
        <time>2020-06-14T08:14:58.000Z</time>
      </trkpt>
      <trkpt lat="45.75617" lon="4.6183">
        <ele>748.4</ele>
        <time>2020-06-14T08:14:59.000Z</time>
      </trkpt>
      <trkpt lat="45.75616" lon="4.61825">
        <ele>748.2</ele>
        <time>2020-06-14T08:15:00.000Z</time>
      </trkpt>
      <trkpt lat="45.75616" lon="4.61822">
        <ele>748</ele>
        <time>2020-06-14T08:15:01.000Z</time>
      </trkpt>
      <trkpt lat="45.75617" lon="4.61818">
        <ele>747.8</ele>
        <time>2020-06-14T08:15:02.000Z</time>
      </trkpt>
      <trkpt lat="45.75617" lon="4.61814">
        <ele>747</ele>
        <time>2020-06-14T08:15:03.000Z</time>
      </trkpt>
      <trkpt lat="45.75617" lon="4.61811">
        <ele>746.4</ele>
        <time>2020-06-14T08:15:04.000Z</time>
      </trkpt>
      <trkpt lat="45.75618" lon="4.61809">
        <ele>746.2</ele>
        <time>2020-06-14T08:15:05.000Z</time>
      </trkpt>
      <trkpt lat="45.75618" lon="4.61807">
        <ele>746</ele>
        <time>2020-06-14T08:15:06.000Z</time>
      </trkpt>
      <trkpt lat="45.75617" lon="4.61805">
        <ele>746.2</ele>
        <time>2020-06-14T08:15:07.000Z</time>
      </trkpt>
      <trkpt lat="45.75617" lon="4.61803">
        <ele>746</ele>
        <time>2020-06-14T08:15:08.000Z</time>
      </trkpt>
      <trkpt lat="45.75618" lon="4.61801">
        <ele>746</ele>
        <time>2020-06-14T08:15:09.000Z</time>
      </trkpt>
      <trkpt lat="45.75619" lon="4.61798">
        <ele>746</ele>
        <time>2020-06-14T08:15:10.000Z</time>
      </trkpt>
      <trkpt lat="45.75619" lon="4.61796">
        <ele>746</ele>
        <time>2020-06-14T08:15:11.000Z</time>
      </trkpt>
      <trkpt lat="45.7562" lon="4.61794">
        <ele>746</ele>
        <time>2020-06-14T08:15:12.000Z</time>
      </trkpt>
      <trkpt lat="45.7562" lon="4.61792">
        <ele>746</ele>
        <time>2020-06-14T08:15:13.000Z</time>
      </trkpt>
      <trkpt lat="45.7562" lon="4.6179">
        <ele>746.2</ele>
        <time>2020-06-14T08:15:14.000Z</time>
      </trkpt>
      <trkpt lat="45.75621" lon="4.61789">
        <ele>746.6</ele>
        <time>2020-06-14T08:15:15.000Z</time>
      </trkpt>
      <trkpt lat="45.7562" lon="4.61788">
        <ele>746.6</ele>
        <time>2020-06-14T08:15:16.000Z</time>
      </trkpt>
      <trkpt lat="45.7562" lon="4.61787">
        <ele>746.6</ele>
        <time>2020-06-14T08:15:17.000Z</time>
      </trkpt>
      <trkpt lat="45.75618" lon="4.61784">
        <ele>746.6</ele>
        <time>2020-06-14T08:15:19.000Z</time>
      </trkpt>
      <trkpt lat="45.75617" lon="4.61783">
        <ele>746.6</ele>
        <time>2020-06-14T08:15:20.000Z</time>
      </trkpt>
      <trkpt lat="45.75615" lon="4.61784">
        <ele>746.6</ele>
        <time>2020-06-14T08:15:21.000Z</time>
      </trkpt>
      <trkpt lat="45.75614" lon="4.61785">
        <ele>746.6</ele>
        <time>2020-06-14T08:15:22.000Z</time>
      </trkpt>
      <trkpt lat="45.75613" lon="4.61787">
        <ele>746.6</ele>
        <time>2020-06-14T08:15:23.000Z</time>
      </trkpt>
      <trkpt lat="45.75607" lon="4.61789">
        <ele>744.8</ele>
        <time>2020-06-14T08:15:37.000Z</time>
      </trkpt>
      <trkpt lat="45.75605" lon="4.61791">
        <ele>745</ele>
        <time>2020-06-14T08:15:38.000Z</time>
      </trkpt>
      <trkpt lat="45.75604" lon="4.61792">
        <ele>744.8</ele>
        <time>2020-06-14T08:15:39.000Z</time>
      </trkpt>
      <trkpt lat="45.75603" lon="4.61793">
        <ele>745</ele>
        <time>2020-06-14T08:15:40.000Z</time>
      </trkpt>
      <trkpt lat="45.75601" lon="4.61793">
        <ele>745</ele>
        <time>2020-06-14T08:15:41.000Z</time>
      </trkpt>
      <trkpt lat="45.756" lon="4.61794">
        <ele>745</ele>
        <time>2020-06-14T08:15:42.000Z</time>
      </trkpt>
      <trkpt lat="45.75598" lon="4.61793">
        <ele>744.8</ele>
        <time>2020-06-14T08:15:43.000Z</time>
      </trkpt>
      <trkpt lat="45.75597" lon="4.61792">
        <ele>744.8</ele>
        <time>2020-06-14T08:15:44.000Z</time>
      </trkpt>
      <trkpt lat="45.75595" lon="4.61791">
        <ele>744.8</ele>
        <time>2020-06-14T08:15:45.000Z</time>
      </trkpt>
      <trkpt lat="45.75593" lon="4.61789">
        <ele>744.8</ele>
        <time>2020-06-14T08:15:46.000Z</time>
      </trkpt>
      <trkpt lat="45.75591" lon="4.61788">
        <ele>745.2</ele>
        <time>2020-06-14T08:15:47.000Z</time>
      </trkpt>
      <trkpt lat="45.75589" lon="4.61786">
        <ele>745.2</ele>
        <time>2020-06-14T08:15:48.000Z</time>
      </trkpt>
      <trkpt lat="45.75588" lon="4.61785">
        <ele>745.4</ele>
        <time>2020-06-14T08:15:49.000Z</time>
      </trkpt>
      <trkpt lat="45.75587" lon="4.61782">
        <ele>745.6</ele>
        <time>2020-06-14T08:15:50.000Z</time>
      </trkpt>
      <trkpt lat="45.75585" lon="4.6178">
        <ele>746</ele>
        <time>2020-06-14T08:15:51.000Z</time>
      </trkpt>
      <trkpt lat="45.75584" lon="4.61778">
        <ele>746.2</ele>
        <time>2020-06-14T08:15:52.000Z</time>
      </trkpt>
      <trkpt lat="45.75583" lon="4.61776">
        <ele>746.4</ele>
        <time>2020-06-14T08:15:53.000Z</time>
      </trkpt>
      <trkpt lat="45.75582" lon="4.61773">
        <ele>746.4</ele>
        <time>2020-06-14T08:15:54.000Z</time>
      </trkpt>
      <trkpt lat="45.7558" lon="4.6177">
        <ele>746.6</ele>
        <time>2020-06-14T08:15:55.000Z</time>
      </trkpt>
      <trkpt lat="45.75578" lon="4.61764">
        <ele>747.2</ele>
        <time>2020-06-14T08:15:57.000Z</time>
      </trkpt>
      <trkpt lat="45.75576" lon="4.61761">
        <ele>747.4</ele>
        <time>2020-06-14T08:15:58.000Z</time>
      </trkpt>
      <trkpt lat="45.75574" lon="4.61758">
        <ele>747.6</ele>
        <time>2020-06-14T08:15:59.000Z</time>
      </trkpt>
      <trkpt lat="45.75573" lon="4.61756">
        <ele>747.6</ele>
        <time>2020-06-14T08:16:00.000Z</time>
      </trkpt>
      <trkpt lat="45.75571" lon="4.61754">
        <ele>747.8</ele>
        <time>2020-06-14T08:16:01.000Z</time>
      </trkpt>
      <trkpt lat="45.7557" lon="4.61752">
        <ele>747.8</ele>
        <time>2020-06-14T08:16:02.000Z</time>
      </trkpt>
      <trkpt lat="45.75568" lon="4.61751">
        <ele>747.8</ele>
        <time>2020-06-14T08:16:03.000Z</time>
      </trkpt>
      <trkpt lat="45.75567" lon="4.61749">
        <ele>747.8</ele>
        <time>2020-06-14T08:16:04.000Z</time>
      </trkpt>
      <trkpt lat="45.75566" lon="4.61747">
        <ele>747.8</ele>
        <time>2020-06-14T08:16:05.000Z</time>
      </trkpt>
      <trkpt lat="45.75565" lon="4.61745">
        <ele>747.8</ele>
        <time>2020-06-14T08:16:06.000Z</time>
      </trkpt>
      <trkpt lat="45.75564" lon="4.61743">
        <ele>748</ele>
        <time>2020-06-14T08:16:07.000Z</time>
      </trkpt>
      <trkpt lat="45.75563" lon="4.61741">
        <ele>748.2</ele>
        <time>2020-06-14T08:16:08.000Z</time>
      </trkpt>
      <trkpt lat="45.75562" lon="4.6174">
        <ele>748.6</ele>
        <time>2020-06-14T08:16:09.000Z</time>
      </trkpt>
      <trkpt lat="45.7556" lon="4.61738">
        <ele>748.6</ele>
        <time>2020-06-14T08:16:10.000Z</time>
      </trkpt>
      <trkpt lat="45.75558" lon="4.61737">
        <ele>748.8</ele>
        <time>2020-06-14T08:16:11.000Z</time>
      </trkpt>
      <trkpt lat="45.75556" lon="4.61736">
        <ele>749.2</ele>
        <time>2020-06-14T08:16:12.000Z</time>
      </trkpt>
      <trkpt lat="45.75555" lon="4.61734">
        <ele>749.4</ele>
        <time>2020-06-14T08:16:13.000Z</time>
      </trkpt>
      <trkpt lat="45.75553" lon="4.61731">
        <ele>749.4</ele>
        <time>2020-06-14T08:16:14.000Z</time>
      </trkpt>
      <trkpt lat="45.75551" lon="4.61729">
        <ele>749.6</ele>
        <time>2020-06-14T08:16:15.000Z</time>
      </trkpt>
      <trkpt lat="45.7555" lon="4.61727">
        <ele>749.8</ele>
        <time>2020-06-14T08:16:16.000Z</time>
      </trkpt>
      <trkpt lat="45.75548" lon="4.61724">
        <ele>749.8</ele>
        <time>2020-06-14T08:16:17.000Z</time>
      </trkpt>
      <trkpt lat="45.75547" lon="4.61722">
        <ele>750.2</ele>
        <time>2020-06-14T08:16:18.000Z</time>
      </trkpt>
      <trkpt lat="45.75546" lon="4.6172">
        <ele>750.6</ele>
        <time>2020-06-14T08:16:19.000Z</time>
      </trkpt>
      <trkpt lat="45.75544" lon="4.61717">
        <ele>750.8</ele>
        <time>2020-06-14T08:16:20.000Z</time>
      </trkpt>
      <trkpt lat="45.75542" lon="4.61715">
        <ele>751</ele>
        <time>2020-06-14T08:16:21.000Z</time>
      </trkpt>
      <trkpt lat="45.75541" lon="4.61713">
        <ele>751</ele>
        <time>2020-06-14T08:16:22.000Z</time>
      </trkpt>
      <trkpt lat="45.75539" lon="4.61712">
        <ele>751.2</ele>
        <time>2020-06-14T08:16:23.000Z</time>
      </trkpt>
      <trkpt lat="45.75538" lon="4.61711">
        <ele>751.4</ele>
        <time>2020-06-14T08:16:24.000Z</time>
      </trkpt>
      <trkpt lat="45.75537" lon="4.61709">
        <ele>751.4</ele>
        <time>2020-06-14T08:16:25.000Z</time>
      </trkpt>
      <trkpt lat="45.75535" lon="4.61708">
        <ele>751.4</ele>
        <time>2020-06-14T08:16:26.000Z</time>
      </trkpt>
      <trkpt lat="45.75534" lon="4.61706">
        <ele>751.6</ele>
        <time>2020-06-14T08:16:27.000Z</time>
      </trkpt>
      <trkpt lat="45.75532" lon="4.61704">
        <ele>752.2</ele>
        <time>2020-06-14T08:16:28.000Z</time>
      </trkpt>
      <trkpt lat="45.7553" lon="4.61702">
        <ele>752.2</ele>
        <time>2020-06-14T08:16:29.000Z</time>
      </trkpt>
      <trkpt lat="45.75528" lon="4.617">
        <ele>752.4</ele>
        <time>2020-06-14T08:16:30.000Z</time>
      </trkpt>
      <trkpt lat="45.75526" lon="4.61698">
        <ele>752.6</ele>
        <time>2020-06-14T08:16:31.000Z</time>
      </trkpt>
      <trkpt lat="45.75524" lon="4.61696">
        <ele>752.8</ele>
        <time>2020-06-14T08:16:32.000Z</time>
      </trkpt>
      <trkpt lat="45.75522" lon="4.61694">
        <ele>753</ele>
        <time>2020-06-14T08:16:33.000Z</time>
      </trkpt>
      <trkpt lat="45.7552" lon="4.61693">
        <ele>753.2</ele>
        <time>2020-06-14T08:16:34.000Z</time>
      </trkpt>
      <trkpt lat="45.75518" lon="4.61692">
        <ele>753.4</ele>
        <time>2020-06-14T08:16:35.000Z</time>
      </trkpt>
      <trkpt lat="45.75517" lon="4.61691">
        <ele>753.6</ele>
        <time>2020-06-14T08:16:36.000Z</time>
      </trkpt>
      <trkpt lat="45.75516" lon="4.61689">
        <ele>753.6</ele>
        <time>2020-06-14T08:16:37.000Z</time>
      </trkpt>
      <trkpt lat="45.75515" lon="4.61688">
        <ele>753.8</ele>
        <time>2020-06-14T08:16:38.000Z</time>
      </trkpt>
      <trkpt lat="45.75513" lon="4.61687">
        <ele>754</ele>
        <time>2020-06-14T08:16:39.000Z</time>
      </trkpt>
      <trkpt lat="45.75511" lon="4.61685">
        <ele>754.2</ele>
        <time>2020-06-14T08:16:40.000Z</time>
      </trkpt>
      <trkpt lat="45.75509" lon="4.61683">
        <ele>754.4</ele>
        <time>2020-06-14T08:16:41.000Z</time>
      </trkpt>
      <trkpt lat="45.75507" lon="4.61682">
        <ele>754.4</ele>
        <time>2020-06-14T08:16:42.000Z</time>
      </trkpt>
      <trkpt lat="45.75505" lon="4.6168">
        <ele>754.8</ele>
        <time>2020-06-14T08:16:43.000Z</time>
      </trkpt>
      <trkpt lat="45.75504" lon="4.61679">
        <ele>754.8</ele>
        <time>2020-06-14T08:16:44.000Z</time>
      </trkpt>
      <trkpt lat="45.75503" lon="4.61677">
        <ele>755</ele>
        <time>2020-06-14T08:16:45.000Z</time>
      </trkpt>
      <trkpt lat="45.75501" lon="4.61675">
        <ele>755.2</ele>
        <time>2020-06-14T08:16:46.000Z</time>
      </trkpt>
      <trkpt lat="45.755" lon="4.61674">
        <ele>755.4</ele>
        <time>2020-06-14T08:16:47.000Z</time>
      </trkpt>
      <trkpt lat="45.75498" lon="4.61673">
        <ele>755.6</ele>
        <time>2020-06-14T08:16:48.000Z</time>
      </trkpt>
      <trkpt lat="45.75496" lon="4.61671">
        <ele>755.6</ele>
        <time>2020-06-14T08:16:49.000Z</time>
      </trkpt>
      <trkpt lat="45.75495" lon="4.61669">
        <ele>756</ele>
        <time>2020-06-14T08:16:50.000Z</time>
      </trkpt>
      <trkpt lat="45.75493" lon="4.61667">
        <ele>756</ele>
        <time>2020-06-14T08:16:51.000Z</time>
      </trkpt>
      <trkpt lat="45.75492" lon="4.61666">
        <ele>756.2</ele>
        <time>2020-06-14T08:16:52.000Z</time>
      </trkpt>
      <trkpt lat="45.7549" lon="4.61664">
        <ele>756.4</ele>
        <time>2020-06-14T08:16:53.000Z</time>
      </trkpt>
      <trkpt lat="45.75488" lon="4.61662">
        <ele>756.4</ele>
        <time>2020-06-14T08:16:54.000Z</time>
      </trkpt>
      <trkpt lat="45.75486" lon="4.61661">
        <ele>756.4</ele>
        <time>2020-06-14T08:16:55.000Z</time>
      </trkpt>
      <trkpt lat="45.75484" lon="4.6166">
        <ele>756.6</ele>
        <time>2020-06-14T08:16:56.000Z</time>
      </trkpt>
      <trkpt lat="45.75482" lon="4.6166">
        <ele>756.8</ele>
        <time>2020-06-14T08:16:57.000Z</time>
      </trkpt>
      <trkpt lat="45.7548" lon="4.61659">
        <ele>757.2</ele>
        <time>2020-06-14T08:16:58.000Z</time>
      </trkpt>
      <trkpt lat="45.75479" lon="4.61658">
        <ele>757.2</ele>
        <time>2020-06-14T08:16:59.000Z</time>
      </trkpt>
      <trkpt lat="45.75477" lon="4.61656">
        <ele>757.4</ele>
        <time>2020-06-14T08:17:00.000Z</time>
      </trkpt>
      <trkpt lat="45.75476" lon="4.61656">
        <ele>757.4</ele>
        <time>2020-06-14T08:17:01.000Z</time>
      </trkpt>
      <trkpt lat="45.75475" lon="4.61654">
        <ele>757.4</ele>
        <time>2020-06-14T08:17:02.000Z</time>
      </trkpt>
      <trkpt lat="45.75473" lon="4.61653">
        <ele>757.8</ele>
        <time>2020-06-14T08:17:03.000Z</time>
      </trkpt>
      <trkpt lat="45.75472" lon="4.61652">
        <ele>758</ele>
        <time>2020-06-14T08:17:04.000Z</time>
      </trkpt>
      <trkpt lat="45.7547" lon="4.61651">
        <ele>758.2</ele>
        <time>2020-06-14T08:17:05.000Z</time>
      </trkpt>
      <trkpt lat="45.75468" lon="4.6165">
        <ele>758.6</ele>
        <time>2020-06-14T08:17:06.000Z</time>
      </trkpt>
      <trkpt lat="45.75467" lon="4.61649">
        <ele>758.8</ele>
        <time>2020-06-14T08:17:07.000Z</time>
      </trkpt>
      <trkpt lat="45.75465" lon="4.61648">
        <ele>759</ele>
        <time>2020-06-14T08:17:08.000Z</time>
      </trkpt>
      <trkpt lat="45.75463" lon="4.61648">
        <ele>759</ele>
        <time>2020-06-14T08:17:09.000Z</time>
      </trkpt>
      <trkpt lat="45.75462" lon="4.61647">
        <ele>759.6</ele>
        <time>2020-06-14T08:17:10.000Z</time>
      </trkpt>
      <trkpt lat="45.7546" lon="4.61646">
        <ele>759.6</ele>
        <time>2020-06-14T08:17:11.000Z</time>
      </trkpt>
      <trkpt lat="45.75459" lon="4.61646">
        <ele>760</ele>
        <time>2020-06-14T08:17:12.000Z</time>
      </trkpt>
      <trkpt lat="45.75457" lon="4.61645">
        <ele>760.2</ele>
        <time>2020-06-14T08:17:13.000Z</time>
      </trkpt>
      <trkpt lat="45.75456" lon="4.61644">
        <ele>760.4</ele>
        <time>2020-06-14T08:17:14.000Z</time>
      </trkpt>
      <trkpt lat="45.75454" lon="4.61644">
        <ele>760.6</ele>
        <time>2020-06-14T08:17:15.000Z</time>
      </trkpt>
      <trkpt lat="45.75453" lon="4.61643">
        <ele>761</ele>
        <time>2020-06-14T08:17:16.000Z</time>
      </trkpt>
      <trkpt lat="45.75451" lon="4.61643">
        <ele>761</ele>
        <time>2020-06-14T08:17:17.000Z</time>
      </trkpt>
      <trkpt lat="45.75449" lon="4.61642">
        <ele>761.2</ele>
        <time>2020-06-14T08:17:18.000Z</time>
      </trkpt>
      <trkpt lat="45.75448" lon="4.61642">
        <ele>761.6</ele>
        <time>2020-06-14T08:17:19.000Z</time>
      </trkpt>
      <trkpt lat="45.75446" lon="4.61641">
        <ele>761.8</ele>
        <time>2020-06-14T08:17:20.000Z</time>
      </trkpt>
      <trkpt lat="45.75444" lon="4.61641">
        <ele>762.2</ele>
        <time>2020-06-14T08:17:21.000Z</time>
      </trkpt>
      <trkpt lat="45.75443" lon="4.6164">
        <ele>762.2</ele>
        <time>2020-06-14T08:17:22.000Z</time>
      </trkpt>
      <trkpt lat="45.75441" lon="4.61639">
        <ele>762.2</ele>
        <time>2020-06-14T08:17:23.000Z</time>
      </trkpt>
      <trkpt lat="45.75439" lon="4.61638">
        <ele>762.6</ele>
        <time>2020-06-14T08:17:24.000Z</time>
      </trkpt>
      <trkpt lat="45.75437" lon="4.61637">
        <ele>762.8</ele>
        <time>2020-06-14T08:17:25.000Z</time>
      </trkpt>
      <trkpt lat="45.75435" lon="4.61637">
        <ele>762.8</ele>
        <time>2020-06-14T08:17:26.000Z</time>
      </trkpt>
      <trkpt lat="45.75433" lon="4.61637">
        <ele>763</ele>
        <time>2020-06-14T08:17:27.000Z</time>
      </trkpt>
      <trkpt lat="45.75431" lon="4.61637">
        <ele>763.4</ele>
        <time>2020-06-14T08:17:28.000Z</time>
      </trkpt>
      <trkpt lat="45.75429" lon="4.61637">
        <ele>763.6</ele>
        <time>2020-06-14T08:17:29.000Z</time>
      </trkpt>
      <trkpt lat="45.75428" lon="4.61636">
        <ele>763.6</ele>
        <time>2020-06-14T08:17:30.000Z</time>
      </trkpt>
      <trkpt lat="45.75426" lon="4.61635">
        <ele>763.8</ele>
        <time>2020-06-14T08:17:31.000Z</time>
      </trkpt>
      <trkpt lat="45.75425" lon="4.61633">
        <ele>763.8</ele>
        <time>2020-06-14T08:17:32.000Z</time>
      </trkpt>
      <trkpt lat="45.75423" lon="4.61633">
        <ele>764.2</ele>
        <time>2020-06-14T08:17:33.000Z</time>
      </trkpt>
      <trkpt lat="45.75419" lon="4.61631">
        <ele>764.4</ele>
        <time>2020-06-14T08:17:35.000Z</time>
      </trkpt>
      <trkpt lat="45.75418" lon="4.6163">
        <ele>764.4</ele>
        <time>2020-06-14T08:17:36.000Z</time>
      </trkpt>
      <trkpt lat="45.75416" lon="4.61629">
        <ele>764.6</ele>
        <time>2020-06-14T08:17:37.000Z</time>
      </trkpt>
      <trkpt lat="45.75414" lon="4.61627">
        <ele>764.8</ele>
        <time>2020-06-14T08:17:38.000Z</time>
      </trkpt>
      <trkpt lat="45.75412" lon="4.61626">
        <ele>764.8</ele>
        <time>2020-06-14T08:17:39.000Z</time>
      </trkpt>
      <trkpt lat="45.75409" lon="4.61625">
        <ele>765</ele>
        <time>2020-06-14T08:17:41.000Z</time>
      </trkpt>
      <trkpt lat="45.75407" lon="4.61624">
        <ele>765</ele>
        <time>2020-06-14T08:17:42.000Z</time>
      </trkpt>
      <trkpt lat="45.75405" lon="4.61622">
        <ele>765</ele>
        <time>2020-06-14T08:17:43.000Z</time>
      </trkpt>
      <trkpt lat="45.75403" lon="4.61621">
        <ele>765.2</ele>
        <time>2020-06-14T08:17:44.000Z</time>
      </trkpt>
      <trkpt lat="45.75402" lon="4.6162">
        <ele>765.2</ele>
        <time>2020-06-14T08:17:45.000Z</time>
      </trkpt>
      <trkpt lat="45.754" lon="4.61619">
        <ele>765.2</ele>
        <time>2020-06-14T08:17:46.000Z</time>
      </trkpt>
      <trkpt lat="45.75398" lon="4.61617">
        <ele>765.4</ele>
        <time>2020-06-14T08:17:47.000Z</time>
      </trkpt>
      <trkpt lat="45.75396" lon="4.61616">
        <ele>765.6</ele>
        <time>2020-06-14T08:17:48.000Z</time>
      </trkpt>
      <trkpt lat="45.75394" lon="4.61614">
        <ele>765.8</ele>
        <time>2020-06-14T08:17:49.000Z</time>
      </trkpt>
      <trkpt lat="45.75392" lon="4.61614">
        <ele>765.8</ele>
        <time>2020-06-14T08:17:50.000Z</time>
      </trkpt>
      <trkpt lat="45.7539" lon="4.61612">
        <ele>766</ele>
        <time>2020-06-14T08:17:51.000Z</time>
      </trkpt>
      <trkpt lat="45.75388" lon="4.61611">
        <ele>766.2</ele>
        <time>2020-06-14T08:17:52.000Z</time>
      </trkpt>
      <trkpt lat="45.75387" lon="4.61611">
        <ele>766.4</ele>
        <time>2020-06-14T08:17:53.000Z</time>
      </trkpt>
      <trkpt lat="45.75385" lon="4.61609">
        <ele>766.4</ele>
        <time>2020-06-14T08:17:54.000Z</time>
      </trkpt>
      <trkpt lat="45.75383" lon="4.61608">
        <ele>766.4</ele>
        <time>2020-06-14T08:17:55.000Z</time>
      </trkpt>
      <trkpt lat="45.75381" lon="4.61607">
        <ele>766.6</ele>
        <time>2020-06-14T08:17:56.000Z</time>
      </trkpt>
      <trkpt lat="45.75379" lon="4.61606">
        <ele>766.8</ele>
        <time>2020-06-14T08:17:57.000Z</time>
      </trkpt>
      <trkpt lat="45.75377" lon="4.61605">
        <ele>767</ele>
        <time>2020-06-14T08:17:58.000Z</time>
      </trkpt>
      <trkpt lat="45.75375" lon="4.61604">
        <ele>767</ele>
        <time>2020-06-14T08:17:59.000Z</time>
      </trkpt>
      <trkpt lat="45.75372" lon="4.61603">
        <ele>767.2</ele>
        <time>2020-06-14T08:18:00.000Z</time>
      </trkpt>
      <trkpt lat="45.7537" lon="4.61601">
        <ele>767.2</ele>
        <time>2020-06-14T08:18:01.000Z</time>
      </trkpt>
      <trkpt lat="45.75369" lon="4.61601">
        <ele>767.4</ele>
        <time>2020-06-14T08:18:02.000Z</time>
      </trkpt>
      <trkpt lat="45.75368" lon="4.616">
        <ele>767.4</ele>
        <time>2020-06-14T08:18:03.000Z</time>
      </trkpt>
      <trkpt lat="45.75366" lon="4.61599">
        <ele>767.6</ele>
        <time>2020-06-14T08:18:04.000Z</time>
      </trkpt>
      <trkpt lat="45.75364" lon="4.61598">
        <ele>767.6</ele>
        <time>2020-06-14T08:18:05.000Z</time>
      </trkpt>
      <trkpt lat="45.75362" lon="4.61597">
        <ele>767.8</ele>
        <time>2020-06-14T08:18:06.000Z</time>
      </trkpt>
      <trkpt lat="45.7536" lon="4.61596">
        <ele>767.8</ele>
        <time>2020-06-14T08:18:07.000Z</time>
      </trkpt>
      <trkpt lat="45.75359" lon="4.61595">
        <ele>768</ele>
        <time>2020-06-14T08:18:08.000Z</time>
      </trkpt>
      <trkpt lat="45.75352" lon="4.61592">
        <ele>768.2</ele>
        <time>2020-06-14T08:18:11.000Z</time>
      </trkpt>
      <trkpt lat="45.7535" lon="4.61591">
        <ele>768.2</ele>
        <time>2020-06-14T08:18:12.000Z</time>
      </trkpt>
      <trkpt lat="45.75348" lon="4.61591">
        <ele>768.2</ele>
        <time>2020-06-14T08:18:13.000Z</time>
      </trkpt>
      <trkpt lat="45.75347" lon="4.6159">
        <ele>768.4</ele>
        <time>2020-06-14T08:18:14.000Z</time>
      </trkpt>
      <trkpt lat="45.75345" lon="4.6159">
        <ele>768.4</ele>
        <time>2020-06-14T08:18:15.000Z</time>
      </trkpt>
      <trkpt lat="45.7534" lon="4.61588">
        <ele>768.8</ele>
        <time>2020-06-14T08:18:17.000Z</time>
      </trkpt>
      <trkpt lat="45.75335" lon="4.61587">
        <ele>768.8</ele>
        <time>2020-06-14T08:18:19.000Z</time>
      </trkpt>
      <trkpt lat="45.7533" lon="4.61584">
        <ele>768.8</ele>
        <time>2020-06-14T08:18:21.000Z</time>
      </trkpt>
      <trkpt lat="45.75328" lon="4.61583">
        <ele>769</ele>
        <time>2020-06-14T08:18:22.000Z</time>
      </trkpt>
      <trkpt lat="45.75325" lon="4.61583">
        <ele>769</ele>
        <time>2020-06-14T08:18:23.000Z</time>
      </trkpt>
      <trkpt lat="45.7532" lon="4.61581">
        <ele>768.8</ele>
        <time>2020-06-14T08:18:25.000Z</time>
      </trkpt>
      <trkpt lat="45.75315" lon="4.6158">
        <ele>769</ele>
        <time>2020-06-14T08:18:27.000Z</time>
      </trkpt>
      <trkpt lat="45.75309" lon="4.61576">
        <ele>768.8</ele>
        <time>2020-06-14T08:18:29.000Z</time>
      </trkpt>
      <trkpt lat="45.75307" lon="4.61574">
        <ele>769</ele>
        <time>2020-06-14T08:18:30.000Z</time>
      </trkpt>
      <trkpt lat="45.75305" lon="4.61573">
        <ele>769</ele>
        <time>2020-06-14T08:18:31.000Z</time>
      </trkpt>
      <trkpt lat="45.75304" lon="4.61571">
        <ele>769</ele>
        <time>2020-06-14T08:18:32.000Z</time>
      </trkpt>
      <trkpt lat="45.75303" lon="4.61569">
        <ele>768.8</ele>
        <time>2020-06-14T08:18:33.000Z</time>
      </trkpt>
      <trkpt lat="45.75302" lon="4.61568">
        <ele>769</ele>
        <time>2020-06-14T08:18:34.000Z</time>
      </trkpt>
      <trkpt lat="45.753" lon="4.61565">
        <ele>768.8</ele>
        <time>2020-06-14T08:18:35.000Z</time>
      </trkpt>
      <trkpt lat="45.75299" lon="4.61562">
        <ele>768.8</ele>
        <time>2020-06-14T08:18:36.000Z</time>
      </trkpt>
      <trkpt lat="45.75297" lon="4.61559">
        <ele>768.8</ele>
        <time>2020-06-14T08:18:37.000Z</time>
      </trkpt>
      <trkpt lat="45.75297" lon="4.61557">
        <ele>768.6</ele>
        <time>2020-06-14T08:18:38.000Z</time>
      </trkpt>
      <trkpt lat="45.75295" lon="4.61554">
        <ele>768.6</ele>
        <time>2020-06-14T08:18:39.000Z</time>
      </trkpt>
      <trkpt lat="45.75295" lon="4.61551">
        <ele>768.6</ele>
        <time>2020-06-14T08:18:40.000Z</time>
      </trkpt>
      <trkpt lat="45.75294" lon="4.61548">
        <ele>768.4</ele>
        <time>2020-06-14T08:18:41.000Z</time>
      </trkpt>
      <trkpt lat="45.75293" lon="4.61543">
        <ele>768.4</ele>
        <time>2020-06-14T08:18:42.000Z</time>
      </trkpt>
      <trkpt lat="45.75291" lon="4.61525">
        <ele>768.2</ele>
        <time>2020-06-14T08:18:45.000Z</time>
      </trkpt>
      <trkpt lat="45.7529" lon="4.61519">
        <ele>768</ele>
        <time>2020-06-14T08:18:46.000Z</time>
      </trkpt>
      <trkpt lat="45.75289" lon="4.61513">
        <ele>767.6</ele>
        <time>2020-06-14T08:18:47.000Z</time>
      </trkpt>
      <trkpt lat="45.75285" lon="4.61494">
        <ele>767</ele>
        <time>2020-06-14T08:18:50.000Z</time>
      </trkpt>
      <trkpt lat="45.75284" lon="4.61488">
        <ele>766.6</ele>
        <time>2020-06-14T08:18:51.000Z</time>
      </trkpt>
      <trkpt lat="45.75281" lon="4.61466">
        <ele>765.6</ele>
        <time>2020-06-14T08:18:54.000Z</time>
      </trkpt>
      <trkpt lat="45.7528" lon="4.61458">
        <ele>765.4</ele>
        <time>2020-06-14T08:18:55.000Z</time>
      </trkpt>
      <trkpt lat="45.75277" lon="4.61434">
        <ele>764.4</ele>
        <time>2020-06-14T08:18:58.000Z</time>
      </trkpt>
      <trkpt lat="45.75277" lon="4.61425">
        <ele>764</ele>
        <time>2020-06-14T08:18:59.000Z</time>
      </trkpt>
      <trkpt lat="45.75277" lon="4.61415">
        <ele>763.8</ele>
        <time>2020-06-14T08:19:00.000Z</time>
      </trkpt>
      <trkpt lat="45.75276" lon="4.61407">
        <ele>763.6</ele>
        <time>2020-06-14T08:19:01.000Z</time>
      </trkpt>
      <trkpt lat="45.75277" lon="4.61398">
        <ele>763.2</ele>
        <time>2020-06-14T08:19:02.000Z</time>
      </trkpt>
      <trkpt lat="45.75276" lon="4.6139">
        <ele>762.4</ele>
        <time>2020-06-14T08:19:03.000Z</time>
      </trkpt>
      <trkpt lat="45.75275" lon="4.61382">
        <ele>762.4</ele>
        <time>2020-06-14T08:19:04.000Z</time>
      </trkpt>
      <trkpt lat="45.75273" lon="4.61374">
        <ele>761.8</ele>
        <time>2020-06-14T08:19:05.000Z</time>
      </trkpt>
      <trkpt lat="45.75272" lon="4.61366">
        <ele>761.6</ele>
        <time>2020-06-14T08:19:06.000Z</time>
      </trkpt>
      <trkpt lat="45.75271" lon="4.61358">
        <ele>761.2</ele>
        <time>2020-06-14T08:19:07.000Z</time>
      </trkpt>
      <trkpt lat="45.75267" lon="4.61333">
        <ele>760.2</ele>
        <time>2020-06-14T08:19:10.000Z</time>
      </trkpt>
      <trkpt lat="45.75266" lon="4.61325">
        <ele>759.8</ele>
        <time>2020-06-14T08:19:11.000Z</time>
      </trkpt>
      <trkpt lat="45.75264" lon="4.61317">
        <ele>759.4</ele>
        <time>2020-06-14T08:19:12.000Z</time>
      </trkpt>
      <trkpt lat="45.75263" lon="4.61309">
        <ele>759</ele>
        <time>2020-06-14T08:19:13.000Z</time>
      </trkpt>
      <trkpt lat="45.75261" lon="4.61301">
        <ele>758.4</ele>
        <time>2020-06-14T08:19:14.000Z</time>
      </trkpt>
      <trkpt lat="45.75259" lon="4.61293">
        <ele>757.6</ele>
        <time>2020-06-14T08:19:15.000Z</time>
      </trkpt>
      <trkpt lat="45.75258" lon="4.61285">
        <ele>756.8</ele>
        <time>2020-06-14T08:19:16.000Z</time>
      </trkpt>
      <trkpt lat="45.75257" lon="4.61277">
        <ele>756.4</ele>
        <time>2020-06-14T08:19:17.000Z</time>
      </trkpt>
      <trkpt lat="45.75255" lon="4.61269">
        <ele>756</ele>
        <time>2020-06-14T08:19:18.000Z</time>
      </trkpt>
      <trkpt lat="45.75252" lon="4.61254">
        <ele>755</ele>
        <time>2020-06-14T08:19:20.000Z</time>
      </trkpt>
      <trkpt lat="45.75246" lon="4.61221">
        <ele>753.4</ele>
        <time>2020-06-14T08:19:24.000Z</time>
      </trkpt>
      <trkpt lat="45.75244" lon="4.61214">
        <ele>752.6</ele>
        <time>2020-06-14T08:19:25.000Z</time>
      </trkpt>
      <trkpt lat="45.75241" lon="4.61207">
        <ele>752</ele>
        <time>2020-06-14T08:19:26.000Z</time>
      </trkpt>
      <trkpt lat="45.75237" lon="4.612">
        <ele>751.8</ele>
        <time>2020-06-14T08:19:27.000Z</time>
      </trkpt>
      <trkpt lat="45.75234" lon="4.61193">
        <ele>751.6</ele>
        <time>2020-06-14T08:19:28.000Z</time>
      </trkpt>
      <trkpt lat="45.75229" lon="4.61188">
        <ele>751.2</ele>
        <time>2020-06-14T08:19:29.000Z</time>
      </trkpt>
      <trkpt lat="45.75225" lon="4.61183">
        <ele>750.8</ele>
        <time>2020-06-14T08:19:30.000Z</time>
      </trkpt>
      <trkpt lat="45.75215" lon="4.61172">
        <ele>750</ele>
        <time>2020-06-14T08:19:32.000Z</time>
      </trkpt>
      <trkpt lat="45.7521" lon="4.61166">
        <ele>749.6</ele>
        <time>2020-06-14T08:19:33.000Z</time>
      </trkpt>
      <trkpt lat="45.75206" lon="4.6116">
        <ele>749.2</ele>
        <time>2020-06-14T08:19:34.000Z</time>
      </trkpt>
      <trkpt lat="45.75201" lon="4.61155">
        <ele>748.8</ele>
        <time>2020-06-14T08:19:35.000Z</time>
      </trkpt>
      <trkpt lat="45.75197" lon="4.61149">
        <ele>748.4</ele>
        <time>2020-06-14T08:19:36.000Z</time>
      </trkpt>
      <trkpt lat="45.75193" lon="4.61143">
        <ele>747.6</ele>
        <time>2020-06-14T08:19:37.000Z</time>
      </trkpt>
      <trkpt lat="45.75189" lon="4.61138">
        <ele>747</ele>
        <time>2020-06-14T08:19:38.000Z</time>
      </trkpt>
      <trkpt lat="45.75186" lon="4.61132">
        <ele>746.6</ele>
        <time>2020-06-14T08:19:39.000Z</time>
      </trkpt>
      <trkpt lat="45.75183" lon="4.61129">
        <ele>746.2</ele>
        <time>2020-06-14T08:19:40.000Z</time>
      </trkpt>
      <trkpt lat="45.7518" lon="4.61125">
        <ele>746</ele>
        <time>2020-06-14T08:19:41.000Z</time>
      </trkpt>
      <trkpt lat="45.75178" lon="4.6112">
        <ele>745.8</ele>
        <time>2020-06-14T08:19:42.000Z</time>
      </trkpt>
      <trkpt lat="45.75175" lon="4.61116">
        <ele>745.8</ele>
        <time>2020-06-14T08:19:43.000Z</time>
      </trkpt>
      <trkpt lat="45.75173" lon="4.61111">
        <ele>745.8</ele>
        <time>2020-06-14T08:19:44.000Z</time>
      </trkpt>
      <trkpt lat="45.7517" lon="4.61107">
        <ele>745.6</ele>
        <time>2020-06-14T08:19:45.000Z</time>
      </trkpt>
      <trkpt lat="45.75168" lon="4.61104">
        <ele>745.6</ele>
        <time>2020-06-14T08:19:46.000Z</time>
      </trkpt>
      <trkpt lat="45.75165" lon="4.611">
        <ele>745.4</ele>
        <time>2020-06-14T08:19:47.000Z</time>
      </trkpt>
      <trkpt lat="45.75163" lon="4.61095">
        <ele>745.6</ele>
        <time>2020-06-14T08:19:48.000Z</time>
      </trkpt>
      <trkpt lat="45.75161" lon="4.61091">
        <ele>745.4</ele>
        <time>2020-06-14T08:19:49.000Z</time>
      </trkpt>
      <trkpt lat="45.75159" lon="4.61084">
        <ele>745.4</ele>
        <time>2020-06-14T08:19:50.000Z</time>
      </trkpt>
      <trkpt lat="45.75156" lon="4.61073">
        <ele>745.4</ele>
        <time>2020-06-14T08:19:52.000Z</time>
      </trkpt>
      <trkpt lat="45.75154" lon="4.61068">
        <ele>745.4</ele>
        <time>2020-06-14T08:19:53.000Z</time>
      </trkpt>
      <trkpt lat="45.75152" lon="4.61062">
        <ele>745.4</ele>
        <time>2020-06-14T08:19:54.000Z</time>
      </trkpt>
      <trkpt lat="45.75151" lon="4.61057">
        <ele>745.4</ele>
        <time>2020-06-14T08:19:55.000Z</time>
      </trkpt>
      <trkpt lat="45.75146" lon="4.61047">
        <ele>745.4</ele>
        <time>2020-06-14T08:19:57.000Z</time>
      </trkpt>
      <trkpt lat="45.75144" lon="4.61044">
        <ele>745.4</ele>
        <time>2020-06-14T08:19:58.000Z</time>
      </trkpt>
      <trkpt lat="45.75141" lon="4.61042">
        <ele>745.4</ele>
        <time>2020-06-14T08:19:59.000Z</time>
      </trkpt>
      <trkpt lat="45.75138" lon="4.61041">
        <ele>745.4</ele>
        <time>2020-06-14T08:20:00.000Z</time>
      </trkpt>
      <trkpt lat="45.75136" lon="4.61039">
        <ele>745.2</ele>
        <time>2020-06-14T08:20:01.000Z</time>
      </trkpt>
      <trkpt lat="45.75133" lon="4.61038">
        <ele>745.2</ele>
        <time>2020-06-14T08:20:02.000Z</time>
      </trkpt>
      <trkpt lat="45.75126" lon="4.61035">
        <ele>745</ele>
        <time>2020-06-14T08:20:04.000Z</time>
      </trkpt>
      <trkpt lat="45.75123" lon="4.61035">
        <ele>744.4</ele>
        <time>2020-06-14T08:20:05.000Z</time>
      </trkpt>
      <trkpt lat="45.75119" lon="4.61034">
        <ele>744</ele>
        <time>2020-06-14T08:20:06.000Z</time>
      </trkpt>
      <trkpt lat="45.7511" lon="4.61033">
        <ele>743.2</ele>
        <time>2020-06-14T08:20:08.000Z</time>
      </trkpt>
      <trkpt lat="45.75101" lon="4.61031">
        <ele>742.6</ele>
        <time>2020-06-14T08:20:10.000Z</time>
      </trkpt>
      <trkpt lat="45.75097" lon="4.61031">
        <ele>742.4</ele>
        <time>2020-06-14T08:20:11.000Z</time>
      </trkpt>
      <trkpt lat="45.75094" lon="4.61031">
        <ele>742.2</ele>
        <time>2020-06-14T08:20:12.000Z</time>
      </trkpt>
      <trkpt lat="45.7507" lon="4.61032">
        <ele>741.8</ele>
        <time>2020-06-14T08:20:18.000Z</time>
      </trkpt>
      <trkpt lat="45.75067" lon="4.61033">
        <ele>741.8</ele>
        <time>2020-06-14T08:20:19.000Z</time>
      </trkpt>
      <trkpt lat="45.75064" lon="4.61033">
        <ele>741.6</ele>
        <time>2020-06-14T08:20:20.000Z</time>
      </trkpt>
      <trkpt lat="45.75057" lon="4.61033">
        <ele>741.4</ele>
        <time>2020-06-14T08:20:22.000Z</time>
      </trkpt>
      <trkpt lat="45.75054" lon="4.61034">
        <ele>741.4</ele>
        <time>2020-06-14T08:20:23.000Z</time>
      </trkpt>
      <trkpt lat="45.75051" lon="4.61036">
        <ele>741.4</ele>
        <time>2020-06-14T08:20:24.000Z</time>
      </trkpt>
      <trkpt lat="45.75049" lon="4.61037">
        <ele>741.4</ele>
        <time>2020-06-14T08:20:25.000Z</time>
      </trkpt>
      <trkpt lat="45.75047" lon="4.61038">
        <ele>741.4</ele>
        <time>2020-06-14T08:20:26.000Z</time>
      </trkpt>
      <trkpt lat="45.75044" lon="4.61038">
        <ele>741.2</ele>
        <time>2020-06-14T08:20:27.000Z</time>
      </trkpt>
      <trkpt lat="45.75041" lon="4.61038">
        <ele>741.2</ele>
        <time>2020-06-14T08:20:28.000Z</time>
      </trkpt>
      <trkpt lat="45.75037" lon="4.61038">
        <ele>741.4</ele>
        <time>2020-06-14T08:20:29.000Z</time>
      </trkpt>
      <trkpt lat="45.75034" lon="4.61039">
        <ele>741.2</ele>
        <time>2020-06-14T08:20:30.000Z</time>
      </trkpt>
      <trkpt lat="45.75031" lon="4.6104">
        <ele>741.2</ele>
        <time>2020-06-14T08:20:31.000Z</time>
      </trkpt>
      <trkpt lat="45.75028" lon="4.61041">
        <ele>741.4</ele>
        <time>2020-06-14T08:20:32.000Z</time>
      </trkpt>
      <trkpt lat="45.75025" lon="4.61042">
        <ele>741.4</ele>
        <time>2020-06-14T08:20:33.000Z</time>
      </trkpt>
      <trkpt lat="45.75022" lon="4.61043">
        <ele>741.4</ele>
        <time>2020-06-14T08:20:34.000Z</time>
      </trkpt>
      <trkpt lat="45.75019" lon="4.61044">
        <ele>741.8</ele>
        <time>2020-06-14T08:20:35.000Z</time>
      </trkpt>
      <trkpt lat="45.75017" lon="4.61044">
        <ele>742</ele>
        <time>2020-06-14T08:20:36.000Z</time>
      </trkpt>
      <trkpt lat="45.75014" lon="4.61045">
        <ele>742.4</ele>
        <time>2020-06-14T08:20:37.000Z</time>
      </trkpt>
      <trkpt lat="45.75012" lon="4.61046">
        <ele>742.4</ele>
        <time>2020-06-14T08:20:38.000Z</time>
      </trkpt>
      <trkpt lat="45.7501" lon="4.61046">
        <ele>742.6</ele>
        <time>2020-06-14T08:20:39.000Z</time>
      </trkpt>
      <trkpt lat="45.75007" lon="4.61048">
        <ele>742.8</ele>
        <time>2020-06-14T08:20:40.000Z</time>
      </trkpt>
      <trkpt lat="45.75005" lon="4.61049">
        <ele>742.8</ele>
        <time>2020-06-14T08:20:41.000Z</time>
      </trkpt>
      <trkpt lat="45.75002" lon="4.6105">
        <ele>743</ele>
        <time>2020-06-14T08:20:42.000Z</time>
      </trkpt>
      <trkpt lat="45.75" lon="4.61051">
        <ele>743.2</ele>
        <time>2020-06-14T08:20:43.000Z</time>
      </trkpt>
      <trkpt lat="45.74998" lon="4.61052">
        <ele>743.2</ele>
        <time>2020-06-14T08:20:44.000Z</time>
      </trkpt>
      <trkpt lat="45.74995" lon="4.61053">
        <ele>743.8</ele>
        <time>2020-06-14T08:20:45.000Z</time>
      </trkpt>
      <trkpt lat="45.74993" lon="4.61054">
        <ele>743.8</ele>
        <time>2020-06-14T08:20:46.000Z</time>
      </trkpt>
      <trkpt lat="45.7499" lon="4.61054">
        <ele>743.8</ele>
        <time>2020-06-14T08:20:47.000Z</time>
      </trkpt>
      <trkpt lat="45.74988" lon="4.61054">
        <ele>744</ele>
        <time>2020-06-14T08:20:48.000Z</time>
      </trkpt>
      <trkpt lat="45.74986" lon="4.61054">
        <ele>744</ele>
        <time>2020-06-14T08:20:49.000Z</time>
      </trkpt>
      <trkpt lat="45.74984" lon="4.61054">
        <ele>744.2</ele>
        <time>2020-06-14T08:20:50.000Z</time>
      </trkpt>
      <trkpt lat="45.74983" lon="4.61053">
        <ele>744</ele>
        <time>2020-06-14T08:20:51.000Z</time>
      </trkpt>
      <trkpt lat="45.74982" lon="4.61054">
        <ele>744</ele>
        <time>2020-06-14T08:20:52.000Z</time>
      </trkpt>
      <trkpt lat="45.74978" lon="4.61054">
        <ele>744.2</ele>
        <time>2020-06-14T08:20:54.000Z</time>
      </trkpt>
      <trkpt lat="45.74977" lon="4.61055">
        <ele>744.2</ele>
        <time>2020-06-14T08:20:55.000Z</time>
      </trkpt>
      <trkpt lat="45.74975" lon="4.61056">
        <ele>744.2</ele>
        <time>2020-06-14T08:20:56.000Z</time>
      </trkpt>
      <trkpt lat="45.74972" lon="4.61056">
        <ele>744</ele>
        <time>2020-06-14T08:20:57.000Z</time>
      </trkpt>
      <trkpt lat="45.74969" lon="4.61057">
        <ele>744.2</ele>
        <time>2020-06-14T08:20:58.000Z</time>
      </trkpt>
      <trkpt lat="45.74966" lon="4.61058">
        <ele>744</ele>
        <time>2020-06-14T08:20:59.000Z</time>
      </trkpt>
      <trkpt lat="45.74963" lon="4.61061">
        <ele>744</ele>
        <time>2020-06-14T08:21:00.000Z</time>
      </trkpt>
      <trkpt lat="45.74961" lon="4.61063">
        <ele>743.8</ele>
        <time>2020-06-14T08:21:01.000Z</time>
      </trkpt>
      <trkpt lat="45.74959" lon="4.61065">
        <ele>743.6</ele>
        <time>2020-06-14T08:21:02.000Z</time>
      </trkpt>
      <trkpt lat="45.74958" lon="4.61066">
        <ele>743</ele>
        <time>2020-06-14T08:21:03.000Z</time>
      </trkpt>
      <trkpt lat="45.74955" lon="4.61065">
        <ele>742.6</ele>
        <time>2020-06-14T08:21:04.000Z</time>
      </trkpt>
      <trkpt lat="45.74953" lon="4.61066">
        <ele>742.6</ele>
        <time>2020-06-14T08:21:05.000Z</time>
      </trkpt>
      <trkpt lat="45.74949" lon="4.61067">
        <ele>741.4</ele>
        <time>2020-06-14T08:21:07.000Z</time>
      </trkpt>
      <trkpt lat="45.74947" lon="4.61069">
        <ele>741</ele>
        <time>2020-06-14T08:21:08.000Z</time>
      </trkpt>
      <trkpt lat="45.74945" lon="4.6107">
        <ele>740.6</ele>
        <time>2020-06-14T08:21:09.000Z</time>
      </trkpt>
      <trkpt lat="45.74943" lon="4.61071">
        <ele>740.6</ele>
        <time>2020-06-14T08:21:10.000Z</time>
      </trkpt>
      <trkpt lat="45.74941" lon="4.61072">
        <ele>740.4</ele>
        <time>2020-06-14T08:21:11.000Z</time>
      </trkpt>
      <trkpt lat="45.74938" lon="4.61073">
        <ele>740.4</ele>
        <time>2020-06-14T08:21:12.000Z</time>
      </trkpt>
      <trkpt lat="45.74937" lon="4.61074">
        <ele>740</ele>
        <time>2020-06-14T08:21:13.000Z</time>
      </trkpt>
      <trkpt lat="45.74935" lon="4.61074">
        <ele>740</ele>
        <time>2020-06-14T08:21:14.000Z</time>
      </trkpt>
      <trkpt lat="45.74934" lon="4.61073">
        <ele>740</ele>
        <time>2020-06-14T08:21:15.000Z</time>
      </trkpt>
      <trkpt lat="45.74933" lon="4.61073">
        <ele>739.8</ele>
        <time>2020-06-14T08:21:16.000Z</time>
      </trkpt>
      <trkpt lat="45.74931" lon="4.61072">
        <ele>739.6</ele>
        <time>2020-06-14T08:21:17.000Z</time>
      </trkpt>
      <trkpt lat="45.74929" lon="4.61073">
        <ele>739</ele>
        <time>2020-06-14T08:21:18.000Z</time>
      </trkpt>
      <trkpt lat="45.74926" lon="4.61075">
        <ele>738.8</ele>
        <time>2020-06-14T08:21:19.000Z</time>
      </trkpt>
      <trkpt lat="45.74918" lon="4.61081">
        <ele>738.6</ele>
        <time>2020-06-14T08:21:22.000Z</time>
      </trkpt>
      <trkpt lat="45.74916" lon="4.61083">
        <ele>738.4</ele>
        <time>2020-06-14T08:21:23.000Z</time>
      </trkpt>
      <trkpt lat="45.74914" lon="4.61085">
        <ele>738.2</ele>
        <time>2020-06-14T08:21:24.000Z</time>
      </trkpt>
      <trkpt lat="45.74912" lon="4.61087">
        <ele>738.2</ele>
        <time>2020-06-14T08:21:25.000Z</time>
      </trkpt>
      <trkpt lat="45.74908" lon="4.61096">
        <ele>738.2</ele>
        <time>2020-06-14T08:21:28.000Z</time>
      </trkpt>
      <trkpt lat="45.74905" lon="4.61102">
        <ele>738</ele>
        <time>2020-06-14T08:21:30.000Z</time>
      </trkpt>
      <trkpt lat="45.74902" lon="4.61103">
        <ele>737.8</ele>
        <time>2020-06-14T08:21:31.000Z</time>
      </trkpt>
      <trkpt lat="45.749" lon="4.61104">
        <ele>737.8</ele>
        <time>2020-06-14T08:21:32.000Z</time>
      </trkpt>
      <trkpt lat="45.74898" lon="4.61104">
        <ele>737.8</ele>
        <time>2020-06-14T08:21:33.000Z</time>
      </trkpt>
      <trkpt lat="45.74895" lon="4.61103">
        <ele>737.8</ele>
        <time>2020-06-14T08:21:34.000Z</time>
      </trkpt>
      <trkpt lat="45.74893" lon="4.61103">
        <ele>737.8</ele>
        <time>2020-06-14T08:21:35.000Z</time>
      </trkpt>
      <trkpt lat="45.74891" lon="4.61102">
        <ele>737.6</ele>
        <time>2020-06-14T08:21:36.000Z</time>
      </trkpt>
      <trkpt lat="45.74889" lon="4.61101">
        <ele>737.6</ele>
        <time>2020-06-14T08:21:37.000Z</time>
      </trkpt>
      <trkpt lat="45.74886" lon="4.61101">
        <ele>737.4</ele>
        <time>2020-06-14T08:21:38.000Z</time>
      </trkpt>
      <trkpt lat="45.74884" lon="4.61101">
        <ele>737.4</ele>
        <time>2020-06-14T08:21:39.000Z</time>
      </trkpt>
      <trkpt lat="45.74881" lon="4.61101">
        <ele>737.4</ele>
        <time>2020-06-14T08:21:40.000Z</time>
      </trkpt>
      <trkpt lat="45.74879" lon="4.61101">
        <ele>737.4</ele>
        <time>2020-06-14T08:21:41.000Z</time>
      </trkpt>
      <trkpt lat="45.74877" lon="4.611">
        <ele>737.4</ele>
        <time>2020-06-14T08:21:42.000Z</time>
      </trkpt>
      <trkpt lat="45.74875" lon="4.61099">
        <ele>737.4</ele>
        <time>2020-06-14T08:21:43.000Z</time>
      </trkpt>
      <trkpt lat="45.74874" lon="4.61099">
        <ele>737.4</ele>
        <time>2020-06-14T08:21:44.000Z</time>
      </trkpt>
      <trkpt lat="45.74872" lon="4.61099">
        <ele>737</ele>
        <time>2020-06-14T08:21:45.000Z</time>
      </trkpt>
      <trkpt lat="45.7487" lon="4.61099">
        <ele>736.6</ele>
        <time>2020-06-14T08:21:46.000Z</time>
      </trkpt>
      <trkpt lat="45.74868" lon="4.61098">
        <ele>736.2</ele>
        <time>2020-06-14T08:21:47.000Z</time>
      </trkpt>
      <trkpt lat="45.74866" lon="4.61097">
        <ele>735.8</ele>
        <time>2020-06-14T08:21:48.000Z</time>
      </trkpt>
      <trkpt lat="45.74864" lon="4.61097">
        <ele>735.6</ele>
        <time>2020-06-14T08:21:49.000Z</time>
      </trkpt>
      <trkpt lat="45.74862" lon="4.61097">
        <ele>735</ele>
        <time>2020-06-14T08:21:50.000Z</time>
      </trkpt>
      <trkpt lat="45.7486" lon="4.61098">
        <ele>734.8</ele>
        <time>2020-06-14T08:21:51.000Z</time>
      </trkpt>
      <trkpt lat="45.74858" lon="4.61098">
        <ele>734.4</ele>
        <time>2020-06-14T08:21:52.000Z</time>
      </trkpt>
      <trkpt lat="45.74855" lon="4.61099">
        <ele>734</ele>
        <time>2020-06-14T08:21:53.000Z</time>
      </trkpt>
      <trkpt lat="45.74853" lon="4.61099">
        <ele>733.4</ele>
        <time>2020-06-14T08:21:54.000Z</time>
      </trkpt>
      <trkpt lat="45.74851" lon="4.61101">
        <ele>732.8</ele>
        <time>2020-06-14T08:21:55.000Z</time>
      </trkpt>
      <trkpt lat="45.7485" lon="4.61102">
        <ele>732.6</ele>
        <time>2020-06-14T08:21:56.000Z</time>
      </trkpt>
      <trkpt lat="45.74849" lon="4.61103">
        <ele>732</ele>
        <time>2020-06-14T08:21:57.000Z</time>
      </trkpt>
      <trkpt lat="45.74848" lon="4.61104">
        <ele>731.6</ele>
        <time>2020-06-14T08:21:58.000Z</time>
      </trkpt>
      <trkpt lat="45.74846" lon="4.61106">
        <ele>730.8</ele>
        <time>2020-06-14T08:21:59.000Z</time>
      </trkpt>
      <trkpt lat="45.74844" lon="4.61107">
        <ele>730.4</ele>
        <time>2020-06-14T08:22:00.000Z</time>
      </trkpt>
      <trkpt lat="45.7484" lon="4.61111">
        <ele>729.8</ele>
        <time>2020-06-14T08:22:02.000Z</time>
      </trkpt>
      <trkpt lat="45.74838" lon="4.61111">
        <ele>729.6</ele>
        <time>2020-06-14T08:22:03.000Z</time>
      </trkpt>
      <trkpt lat="45.74837" lon="4.6111">
        <ele>729.4</ele>
        <time>2020-06-14T08:22:04.000Z</time>
      </trkpt>
      <trkpt lat="45.74835" lon="4.6111">
        <ele>729.4</ele>
        <time>2020-06-14T08:22:05.000Z</time>
      </trkpt>
      <trkpt lat="45.74833" lon="4.61111">
        <ele>729.2</ele>
        <time>2020-06-14T08:22:06.000Z</time>
      </trkpt>
      <trkpt lat="45.74831" lon="4.61112">
        <ele>728.8</ele>
        <time>2020-06-14T08:22:07.000Z</time>
      </trkpt>
      <trkpt lat="45.74828" lon="4.61114">
        <ele>728.4</ele>
        <time>2020-06-14T08:22:09.000Z</time>
      </trkpt>
      <trkpt lat="45.74826" lon="4.61115">
        <ele>727.8</ele>
        <time>2020-06-14T08:22:10.000Z</time>
      </trkpt>
      <trkpt lat="45.74824" lon="4.61117">
        <ele>727.8</ele>
        <time>2020-06-14T08:22:11.000Z</time>
      </trkpt>
      <trkpt lat="45.74821" lon="4.6112">
        <ele>727.6</ele>
        <time>2020-06-14T08:22:13.000Z</time>
      </trkpt>
      <trkpt lat="45.74819" lon="4.61122">
        <ele>727.4</ele>
        <time>2020-06-14T08:22:14.000Z</time>
      </trkpt>
      <trkpt lat="45.74819" lon="4.61124">
        <ele>727</ele>
        <time>2020-06-14T08:22:15.000Z</time>
      </trkpt>
      <trkpt lat="45.74817" lon="4.61127">
        <ele>726.8</ele>
        <time>2020-06-14T08:22:16.000Z</time>
      </trkpt>
      <trkpt lat="45.74817" lon="4.61129">
        <ele>726.6</ele>
        <time>2020-06-14T08:22:17.000Z</time>
      </trkpt>
      <trkpt lat="45.74814" lon="4.61136">
        <ele>726.4</ele>
        <time>2020-06-14T08:22:19.000Z</time>
      </trkpt>
      <trkpt lat="45.74811" lon="4.61139">
        <ele>725.4</ele>
        <time>2020-06-14T08:22:20.000Z</time>
      </trkpt>
      <trkpt lat="45.74808" lon="4.61141">
        <ele>725.4</ele>
        <time>2020-06-14T08:22:21.000Z</time>
      </trkpt>
      <trkpt lat="45.74805" lon="4.61143">
        <ele>725</ele>
        <time>2020-06-14T08:22:22.000Z</time>
      </trkpt>
      <trkpt lat="45.74803" lon="4.61144">
        <ele>725</ele>
        <time>2020-06-14T08:22:23.000Z</time>
      </trkpt>
      <trkpt lat="45.74801" lon="4.61145">
        <ele>724.8</ele>
        <time>2020-06-14T08:22:24.000Z</time>
      </trkpt>
      <trkpt lat="45.748" lon="4.61146">
        <ele>724.8</ele>
        <time>2020-06-14T08:22:25.000Z</time>
      </trkpt>
      <trkpt lat="45.74798" lon="4.61146">
        <ele>724.6</ele>
        <time>2020-06-14T08:22:26.000Z</time>
      </trkpt>
      <trkpt lat="45.7479" lon="4.61144">
        <ele>721.6</ele>
        <time>2020-06-14T08:23:22.000Z</time>
      </trkpt>
      <trkpt lat="45.74789" lon="4.61144">
        <ele>721.8</ele>
        <time>2020-06-14T08:23:23.000Z</time>
      </trkpt>
      <trkpt lat="45.74787" lon="4.61143">
        <ele>721.6</ele>
        <time>2020-06-14T08:23:24.000Z</time>
      </trkpt>
      <trkpt lat="45.74785" lon="4.61142">
        <ele>721.6</ele>
        <time>2020-06-14T08:23:25.000Z</time>
      </trkpt>
      <trkpt lat="45.74783" lon="4.61142">
        <ele>721.6</ele>
        <time>2020-06-14T08:23:26.000Z</time>
      </trkpt>
      <trkpt lat="45.74779" lon="4.6114">
        <ele>721.6</ele>
        <time>2020-06-14T08:23:28.000Z</time>
      </trkpt>
      <trkpt lat="45.74775" lon="4.61138">
        <ele>721.6</ele>
        <time>2020-06-14T08:23:30.000Z</time>
      </trkpt>
      <trkpt lat="45.74772" lon="4.61137">
        <ele>721.6</ele>
        <time>2020-06-14T08:23:31.000Z</time>
      </trkpt>
      <trkpt lat="45.7477" lon="4.61135">
        <ele>721.6</ele>
        <time>2020-06-14T08:23:32.000Z</time>
      </trkpt>
      <trkpt lat="45.74767" lon="4.61133">
        <ele>721.4</ele>
        <time>2020-06-14T08:23:33.000Z</time>
      </trkpt>
      <trkpt lat="45.74765" lon="4.6113">
        <ele>721.4</ele>
        <time>2020-06-14T08:23:34.000Z</time>
      </trkpt>
      <trkpt lat="45.74763" lon="4.61126">
        <ele>721.4</ele>
        <time>2020-06-14T08:23:35.000Z</time>
      </trkpt>
      <trkpt lat="45.7476" lon="4.61122">
        <ele>721.4</ele>
        <time>2020-06-14T08:23:36.000Z</time>
      </trkpt>
      <trkpt lat="45.74747" lon="4.61106">
        <ele>721.2</ele>
        <time>2020-06-14T08:23:40.000Z</time>
      </trkpt>
      <trkpt lat="45.74743" lon="4.61102">
        <ele>721</ele>
        <time>2020-06-14T08:23:41.000Z</time>
      </trkpt>
      <trkpt lat="45.74739" lon="4.61099">
        <ele>721</ele>
        <time>2020-06-14T08:23:42.000Z</time>
      </trkpt>
      <trkpt lat="45.7473" lon="4.61091">
        <ele>720.8</ele>
        <time>2020-06-14T08:23:44.000Z</time>
      </trkpt>
      <trkpt lat="45.74719" lon="4.61081">
        <ele>720.6</ele>
        <time>2020-06-14T08:23:46.000Z</time>
      </trkpt>
      <trkpt lat="45.74707" lon="4.61068">
        <ele>720.2</ele>
        <time>2020-06-14T08:23:48.000Z</time>
      </trkpt>
      <trkpt lat="45.74701" lon="4.61061">
        <ele>719.8</ele>
        <time>2020-06-14T08:23:49.000Z</time>
      </trkpt>
      <trkpt lat="45.74695" lon="4.61054">
        <ele>719.4</ele>
        <time>2020-06-14T08:23:50.000Z</time>
      </trkpt>
      <trkpt lat="45.74689" lon="4.61047">
        <ele>718.8</ele>
        <time>2020-06-14T08:23:51.000Z</time>
      </trkpt>
      <trkpt lat="45.74684" lon="4.6104">
        <ele>718.2</ele>
        <time>2020-06-14T08:23:52.000Z</time>
      </trkpt>
      <trkpt lat="45.74662" lon="4.6101">
        <ele>715.2</ele>
        <time>2020-06-14T08:23:56.000Z</time>
      </trkpt>
      <trkpt lat="45.74657" lon="4.61002">
        <ele>714.6</ele>
        <time>2020-06-14T08:23:57.000Z</time>
      </trkpt>
      <trkpt lat="45.74652" lon="4.60994">
        <ele>714.2</ele>
        <time>2020-06-14T08:23:58.000Z</time>
      </trkpt>
      <trkpt lat="45.74647" lon="4.60986">
        <ele>714.2</ele>
        <time>2020-06-14T08:23:59.000Z</time>
      </trkpt>
      <trkpt lat="45.74643" lon="4.60978">
        <ele>713.6</ele>
        <time>2020-06-14T08:24:00.000Z</time>
      </trkpt>
      <trkpt lat="45.74633" lon="4.60962">
        <ele>712.8</ele>
        <time>2020-06-14T08:24:02.000Z</time>
      </trkpt>
      <trkpt lat="45.74629" lon="4.60954">
        <ele>712.8</ele>
        <time>2020-06-14T08:24:03.000Z</time>
      </trkpt>
      <trkpt lat="45.74624" lon="4.60946">
        <ele>712.6</ele>
        <time>2020-06-14T08:24:04.000Z</time>
      </trkpt>
      <trkpt lat="45.7462" lon="4.60938">
        <ele>712.2</ele>
        <time>2020-06-14T08:24:05.000Z</time>
      </trkpt>
      <trkpt lat="45.74616" lon="4.6093">
        <ele>712</ele>
        <time>2020-06-14T08:24:06.000Z</time>
      </trkpt>
      <trkpt lat="45.74612" lon="4.60923">
        <ele>711.6</ele>
        <time>2020-06-14T08:24:07.000Z</time>
      </trkpt>
      <trkpt lat="45.74608" lon="4.60916">
        <ele>711.2</ele>
        <time>2020-06-14T08:24:08.000Z</time>
      </trkpt>
      <trkpt lat="45.74603" lon="4.6091">
        <ele>710.6</ele>
        <time>2020-06-14T08:24:09.000Z</time>
      </trkpt>
      <trkpt lat="45.746" lon="4.60904">
        <ele>710.2</ele>
        <time>2020-06-14T08:24:10.000Z</time>
      </trkpt>
      <trkpt lat="45.74597" lon="4.60898">
        <ele>710</ele>
        <time>2020-06-14T08:24:11.000Z</time>
      </trkpt>
      <trkpt lat="45.74595" lon="4.60893">
        <ele>709.6</ele>
        <time>2020-06-14T08:24:12.000Z</time>
      </trkpt>
      <trkpt lat="45.74593" lon="4.60888">
        <ele>709.2</ele>
        <time>2020-06-14T08:24:13.000Z</time>
      </trkpt>
      <trkpt lat="45.74591" lon="4.60884">
        <ele>708.6</ele>
        <time>2020-06-14T08:24:14.000Z</time>
      </trkpt>
      <trkpt lat="45.7459" lon="4.6088">
        <ele>708.4</ele>
        <time>2020-06-14T08:24:15.000Z</time>
      </trkpt>
      <trkpt lat="45.74589" lon="4.60876">
        <ele>708.4</ele>
        <time>2020-06-14T08:24:16.000Z</time>
      </trkpt>
      <trkpt lat="45.74587" lon="4.60872">
        <ele>708.2</ele>
        <time>2020-06-14T08:24:17.000Z</time>
      </trkpt>
      <trkpt lat="45.74585" lon="4.60869">
        <ele>708.2</ele>
        <time>2020-06-14T08:24:18.000Z</time>
      </trkpt>
      <trkpt lat="45.74583" lon="4.60866">
        <ele>708.2</ele>
        <time>2020-06-14T08:24:19.000Z</time>
      </trkpt>
      <trkpt lat="45.74582" lon="4.60863">
        <ele>708.2</ele>
        <time>2020-06-14T08:24:20.000Z</time>
      </trkpt>
      <trkpt lat="45.7458" lon="4.6086">
        <ele>708.4</ele>
        <time>2020-06-14T08:24:21.000Z</time>
      </trkpt>
      <trkpt lat="45.74579" lon="4.60857">
        <ele>708.2</ele>
        <time>2020-06-14T08:24:22.000Z</time>
      </trkpt>
      <trkpt lat="45.74578" lon="4.60854">
        <ele>708.2</ele>
        <time>2020-06-14T08:24:23.000Z</time>
      </trkpt>
      <trkpt lat="45.74577" lon="4.60852">
        <ele>708.4</ele>
        <time>2020-06-14T08:24:24.000Z</time>
      </trkpt>
      <trkpt lat="45.74575" lon="4.6085">
        <ele>708.6</ele>
        <time>2020-06-14T08:24:25.000Z</time>
      </trkpt>
      <trkpt lat="45.74574" lon="4.60848">
        <ele>708.6</ele>
        <time>2020-06-14T08:24:26.000Z</time>
      </trkpt>
      <trkpt lat="45.74572" lon="4.60846">
        <ele>708.8</ele>
        <time>2020-06-14T08:24:27.000Z</time>
      </trkpt>
      <trkpt lat="45.74571" lon="4.60843">
        <ele>709</ele>
        <time>2020-06-14T08:24:28.000Z</time>
      </trkpt>
      <trkpt lat="45.7457" lon="4.60841">
        <ele>709.2</ele>
        <time>2020-06-14T08:24:29.000Z</time>
      </trkpt>
      <trkpt lat="45.74569" lon="4.60839">
        <ele>709.6</ele>
        <time>2020-06-14T08:24:30.000Z</time>
      </trkpt>
      <trkpt lat="45.74567" lon="4.60836">
        <ele>709.6</ele>
        <time>2020-06-14T08:24:31.000Z</time>
      </trkpt>
      <trkpt lat="45.74566" lon="4.60833">
        <ele>709.8</ele>
        <time>2020-06-14T08:24:32.000Z</time>
      </trkpt>
      <trkpt lat="45.74565" lon="4.60831">
        <ele>710.2</ele>
        <time>2020-06-14T08:24:33.000Z</time>
      </trkpt>
      <trkpt lat="45.74563" lon="4.60828">
        <ele>710.2</ele>
        <time>2020-06-14T08:24:34.000Z</time>
      </trkpt>
      <trkpt lat="45.74562" lon="4.60826">
        <ele>710.4</ele>
        <time>2020-06-14T08:24:35.000Z</time>
      </trkpt>
      <trkpt lat="45.74562" lon="4.60824">
        <ele>710.4</ele>
        <time>2020-06-14T08:24:36.000Z</time>
      </trkpt>
      <trkpt lat="45.7456" lon="4.60821">
        <ele>710.6</ele>
        <time>2020-06-14T08:24:37.000Z</time>
      </trkpt>
      <trkpt lat="45.74559" lon="4.60818">
        <ele>710.6</ele>
        <time>2020-06-14T08:24:38.000Z</time>
      </trkpt>
      <trkpt lat="45.74557" lon="4.60815">
        <ele>711</ele>
        <time>2020-06-14T08:24:39.000Z</time>
      </trkpt>
      <trkpt lat="45.74556" lon="4.60813">
        <ele>711</ele>
        <time>2020-06-14T08:24:40.000Z</time>
      </trkpt>
      <trkpt lat="45.74554" lon="4.60809">
        <ele>711</ele>
        <time>2020-06-14T08:24:41.000Z</time>
      </trkpt>
      <trkpt lat="45.74552" lon="4.60806">
        <ele>711.2</ele>
        <time>2020-06-14T08:24:42.000Z</time>
      </trkpt>
      <trkpt lat="45.74551" lon="4.60803">
        <ele>711.4</ele>
        <time>2020-06-14T08:24:43.000Z</time>
      </trkpt>
      <trkpt lat="45.7455" lon="4.608">
        <ele>711.4</ele>
        <time>2020-06-14T08:24:44.000Z</time>
      </trkpt>
      <trkpt lat="45.74549" lon="4.60797">
        <ele>711.6</ele>
        <time>2020-06-14T08:24:45.000Z</time>
      </trkpt>
      <trkpt lat="45.74547" lon="4.60794">
        <ele>712</ele>
        <time>2020-06-14T08:24:46.000Z</time>
      </trkpt>
      <trkpt lat="45.74546" lon="4.60792">
        <ele>712.2</ele>
        <time>2020-06-14T08:24:47.000Z</time>
      </trkpt>
      <trkpt lat="45.74546" lon="4.60789">
        <ele>712.2</ele>
        <time>2020-06-14T08:24:48.000Z</time>
      </trkpt>
      <trkpt lat="45.74544" lon="4.60786">
        <ele>712.4</ele>
        <time>2020-06-14T08:24:49.000Z</time>
      </trkpt>
      <trkpt lat="45.74543" lon="4.60784">
        <ele>712.4</ele>
        <time>2020-06-14T08:24:50.000Z</time>
      </trkpt>
      <trkpt lat="45.74542" lon="4.60781">
        <ele>712.8</ele>
        <time>2020-06-14T08:24:51.000Z</time>
      </trkpt>
      <trkpt lat="45.74541" lon="4.60778">
        <ele>712.8</ele>
        <time>2020-06-14T08:24:52.000Z</time>
      </trkpt>
      <trkpt lat="45.7454" lon="4.60776">
        <ele>713</ele>
        <time>2020-06-14T08:24:53.000Z</time>
      </trkpt>
      <trkpt lat="45.7454" lon="4.60774">
        <ele>713</ele>
        <time>2020-06-14T08:24:54.000Z</time>
      </trkpt>
      <trkpt lat="45.74539" lon="4.60772">
        <ele>713.2</ele>
        <time>2020-06-14T08:24:55.000Z</time>
      </trkpt>
      <trkpt lat="45.74538" lon="4.6077">
        <ele>713.2</ele>
        <time>2020-06-14T08:24:56.000Z</time>
      </trkpt>
      <trkpt lat="45.74537" lon="4.60768">
        <ele>713.4</ele>
        <time>2020-06-14T08:24:57.000Z</time>
      </trkpt>
      <trkpt lat="45.74536" lon="4.60766">
        <ele>713.4</ele>
        <time>2020-06-14T08:24:58.000Z</time>
      </trkpt>
      <trkpt lat="45.74535" lon="4.60765">
        <ele>713.4</ele>
        <time>2020-06-14T08:24:59.000Z</time>
      </trkpt>
      <trkpt lat="45.74533" lon="4.60764">
        <ele>713.6</ele>
        <time>2020-06-14T08:25:00.000Z</time>
      </trkpt>
      <trkpt lat="45.74532" lon="4.60762">
        <ele>713.6</ele>
        <time>2020-06-14T08:25:01.000Z</time>
      </trkpt>
      <trkpt lat="45.7453" lon="4.60761">
        <ele>713.8</ele>
        <time>2020-06-14T08:25:02.000Z</time>
      </trkpt>
      <trkpt lat="45.74528" lon="4.6076">
        <ele>714</ele>
        <time>2020-06-14T08:25:03.000Z</time>
      </trkpt>
      <trkpt lat="45.74527" lon="4.60758">
        <ele>714.4</ele>
        <time>2020-06-14T08:25:04.000Z</time>
      </trkpt>
      <trkpt lat="45.74525" lon="4.60757">
        <ele>714.4</ele>
        <time>2020-06-14T08:25:05.000Z</time>
      </trkpt>
      <trkpt lat="45.74524" lon="4.60755">
        <ele>714.6</ele>
        <time>2020-06-14T08:25:06.000Z</time>
      </trkpt>
      <trkpt lat="45.74523" lon="4.60753">
        <ele>715</ele>
        <time>2020-06-14T08:25:07.000Z</time>
      </trkpt>
      <trkpt lat="45.74522" lon="4.60752">
        <ele>715.4</ele>
        <time>2020-06-14T08:25:08.000Z</time>
      </trkpt>
      <trkpt lat="45.74521" lon="4.6075">
        <ele>715.8</ele>
        <time>2020-06-14T08:25:09.000Z</time>
      </trkpt>
      <trkpt lat="45.7452" lon="4.60748">
        <ele>716.2</ele>
        <time>2020-06-14T08:25:10.000Z</time>
      </trkpt>
      <trkpt lat="45.7452" lon="4.60747">
        <ele>716.2</ele>
        <time>2020-06-14T08:25:11.000Z</time>
      </trkpt>
      <trkpt lat="45.74519" lon="4.60745">
        <ele>716.2</ele>
        <time>2020-06-14T08:25:12.000Z</time>
      </trkpt>
      <trkpt lat="45.74519" lon="4.60744">
        <ele>716.6</ele>
        <time>2020-06-14T08:25:13.000Z</time>
      </trkpt>
      <trkpt lat="45.74518" lon="4.60742">
        <ele>716.8</ele>
        <time>2020-06-14T08:25:14.000Z</time>
      </trkpt>
      <trkpt lat="45.74518" lon="4.6074">
        <ele>717.2</ele>
        <time>2020-06-14T08:25:15.000Z</time>
      </trkpt>
      <trkpt lat="45.74516" lon="4.60739">
        <ele>717.4</ele>
        <time>2020-06-14T08:25:16.000Z</time>
      </trkpt>
      <trkpt lat="45.74515" lon="4.60737">
        <ele>717.4</ele>
        <time>2020-06-14T08:25:17.000Z</time>
      </trkpt>
      <trkpt lat="45.74514" lon="4.60736">
        <ele>717.6</ele>
        <time>2020-06-14T08:25:18.000Z</time>
      </trkpt>
      <trkpt lat="45.74512" lon="4.60734">
        <ele>717.8</ele>
        <time>2020-06-14T08:25:19.000Z</time>
      </trkpt>
      <trkpt lat="45.74512" lon="4.60732">
        <ele>717.8</ele>
        <time>2020-06-14T08:25:20.000Z</time>
      </trkpt>
      <trkpt lat="45.7451" lon="4.60731">
        <ele>718.2</ele>
        <time>2020-06-14T08:25:21.000Z</time>
      </trkpt>
      <trkpt lat="45.74508" lon="4.6073">
        <ele>718.4</ele>
        <time>2020-06-14T08:25:22.000Z</time>
      </trkpt>
      <trkpt lat="45.74507" lon="4.60729">
        <ele>718.6</ele>
        <time>2020-06-14T08:25:23.000Z</time>
      </trkpt>
      <trkpt lat="45.74506" lon="4.60728">
        <ele>718.8</ele>
        <time>2020-06-14T08:25:24.000Z</time>
      </trkpt>
      <trkpt lat="45.74504" lon="4.60727">
        <ele>718.8</ele>
        <time>2020-06-14T08:25:25.000Z</time>
      </trkpt>
      <trkpt lat="45.74503" lon="4.60726">
        <ele>719.2</ele>
        <time>2020-06-14T08:25:26.000Z</time>
      </trkpt>
      <trkpt lat="45.74502" lon="4.60725">
        <ele>719.4</ele>
        <time>2020-06-14T08:25:27.000Z</time>
      </trkpt>
      <trkpt lat="45.745" lon="4.60724">
        <ele>719.6</ele>
        <time>2020-06-14T08:25:28.000Z</time>
      </trkpt>
      <trkpt lat="45.74499" lon="4.60722">
        <ele>719.8</ele>
        <time>2020-06-14T08:25:29.000Z</time>
      </trkpt>
      <trkpt lat="45.74498" lon="4.60721">
        <ele>720</ele>
        <time>2020-06-14T08:25:30.000Z</time>
      </trkpt>
      <trkpt lat="45.74497" lon="4.6072">
        <ele>720.4</ele>
        <time>2020-06-14T08:25:31.000Z</time>
      </trkpt>
      <trkpt lat="45.74497" lon="4.60719">
        <ele>720.6</ele>
        <time>2020-06-14T08:25:32.000Z</time>
      </trkpt>
      <trkpt lat="45.74496" lon="4.60718">
        <ele>720.6</ele>
        <time>2020-06-14T08:25:33.000Z</time>
      </trkpt>
      <trkpt lat="45.74496" lon="4.60717">
        <ele>720.8</ele>
        <time>2020-06-14T08:25:34.000Z</time>
      </trkpt>
      <trkpt lat="45.74495" lon="4.60717">
        <ele>721</ele>
        <time>2020-06-14T08:25:35.000Z</time>
      </trkpt>
      <trkpt lat="45.74495" lon="4.60716">
        <ele>721.2</ele>
        <time>2020-06-14T08:25:36.000Z</time>
      </trkpt>
      <trkpt lat="45.74494" lon="4.60715">
        <ele>721.4</ele>
        <time>2020-06-14T08:25:37.000Z</time>
      </trkpt>
      <trkpt lat="45.74493" lon="4.60713">
        <ele>721.8</ele>
        <time>2020-06-14T08:25:38.000Z</time>
      </trkpt>
      <trkpt lat="45.74492" lon="4.60712">
        <ele>721.8</ele>
        <time>2020-06-14T08:25:39.000Z</time>
      </trkpt>
      <trkpt lat="45.7449" lon="4.60711">
        <ele>721.8</ele>
        <time>2020-06-14T08:25:40.000Z</time>
      </trkpt>
      <trkpt lat="45.74489" lon="4.60711">
        <ele>722</ele>
        <time>2020-06-14T08:25:41.000Z</time>
      </trkpt>
      <trkpt lat="45.74489" lon="4.6071">
        <ele>722.2</ele>
        <time>2020-06-14T08:25:42.000Z</time>
      </trkpt>
      <trkpt lat="45.74488" lon="4.6071">
        <ele>722.2</ele>
        <time>2020-06-14T08:25:43.000Z</time>
      </trkpt>
      <trkpt lat="45.74487" lon="4.60708">
        <ele>722.6</ele>
        <time>2020-06-14T08:25:44.000Z</time>
      </trkpt>
      <trkpt lat="45.74486" lon="4.60707">
        <ele>722.6</ele>
        <time>2020-06-14T08:25:45.000Z</time>
      </trkpt>
      <trkpt lat="45.74484" lon="4.60706">
        <ele>722.8</ele>
        <time>2020-06-14T08:25:46.000Z</time>
      </trkpt>
      <trkpt lat="45.74483" lon="4.60704">
        <ele>723</ele>
        <time>2020-06-14T08:25:47.000Z</time>
      </trkpt>
      <trkpt lat="45.74482" lon="4.60704">
        <ele>723.4</ele>
        <time>2020-06-14T08:25:48.000Z</time>
      </trkpt>
      <trkpt lat="45.7448" lon="4.60703">
        <ele>723.4</ele>
        <time>2020-06-14T08:25:49.000Z</time>
      </trkpt>
      <trkpt lat="45.74479" lon="4.60703">
        <ele>723.6</ele>
        <time>2020-06-14T08:25:50.000Z</time>
      </trkpt>
      <trkpt lat="45.74478" lon="4.60702">
        <ele>724</ele>
        <time>2020-06-14T08:25:51.000Z</time>
      </trkpt>
      <trkpt lat="45.74476" lon="4.60701">
        <ele>724.2</ele>
        <time>2020-06-14T08:25:52.000Z</time>
      </trkpt>
      <trkpt lat="45.74475" lon="4.607">
        <ele>724.4</ele>
        <time>2020-06-14T08:25:53.000Z</time>
      </trkpt>
      <trkpt lat="45.74474" lon="4.60699">
        <ele>724.6</ele>
        <time>2020-06-14T08:25:54.000Z</time>
      </trkpt>
      <trkpt lat="45.74473" lon="4.60698">
        <ele>724.8</ele>
        <time>2020-06-14T08:25:55.000Z</time>
      </trkpt>
      <trkpt lat="45.74471" lon="4.60697">
        <ele>725.2</ele>
        <time>2020-06-14T08:25:56.000Z</time>
      </trkpt>
      <trkpt lat="45.7447" lon="4.60697">
        <ele>725.6</ele>
        <time>2020-06-14T08:25:57.000Z</time>
      </trkpt>
      <trkpt lat="45.74468" lon="4.60696">
        <ele>725.8</ele>
        <time>2020-06-14T08:25:58.000Z</time>
      </trkpt>
      <trkpt lat="45.74467" lon="4.60696">
        <ele>726</ele>
        <time>2020-06-14T08:25:59.000Z</time>
      </trkpt>
      <trkpt lat="45.74466" lon="4.60695">
        <ele>726</ele>
        <time>2020-06-14T08:26:00.000Z</time>
      </trkpt>
      <trkpt lat="45.74464" lon="4.60694">
        <ele>726.2</ele>
        <time>2020-06-14T08:26:01.000Z</time>
      </trkpt>
      <trkpt lat="45.74463" lon="4.60694">
        <ele>726.4</ele>
        <time>2020-06-14T08:26:02.000Z</time>
      </trkpt>
      <trkpt lat="45.74462" lon="4.60693">
        <ele>726.6</ele>
        <time>2020-06-14T08:26:03.000Z</time>
      </trkpt>
      <trkpt lat="45.74461" lon="4.60693">
        <ele>726.8</ele>
        <time>2020-06-14T08:26:04.000Z</time>
      </trkpt>
      <trkpt lat="45.74458" lon="4.60693">
        <ele>727</ele>
        <time>2020-06-14T08:26:05.000Z</time>
      </trkpt>
      <trkpt lat="45.74458" lon="4.60692">
        <ele>727.2</ele>
        <time>2020-06-14T08:26:06.000Z</time>
      </trkpt>
      <trkpt lat="45.74457" lon="4.60692">
        <ele>727.4</ele>
        <time>2020-06-14T08:26:07.000Z</time>
      </trkpt>
      <trkpt lat="45.74455" lon="4.60691">
        <ele>727.6</ele>
        <time>2020-06-14T08:26:08.000Z</time>
      </trkpt>
      <trkpt lat="45.74454" lon="4.6069">
        <ele>727.8</ele>
        <time>2020-06-14T08:26:09.000Z</time>
      </trkpt>
      <trkpt lat="45.74453" lon="4.60689">
        <ele>728.4</ele>
        <time>2020-06-14T08:26:10.000Z</time>
      </trkpt>
      <trkpt lat="45.74452" lon="4.60688">
        <ele>728.6</ele>
        <time>2020-06-14T08:26:11.000Z</time>
      </trkpt>
      <trkpt lat="45.74451" lon="4.60687">
        <ele>729</ele>
        <time>2020-06-14T08:26:12.000Z</time>
      </trkpt>
      <trkpt lat="45.7445" lon="4.60686">
        <ele>729.2</ele>
        <time>2020-06-14T08:26:13.000Z</time>
      </trkpt>
      <trkpt lat="45.74449" lon="4.60684">
        <ele>729.4</ele>
        <time>2020-06-14T08:26:14.000Z</time>
      </trkpt>
      <trkpt lat="45.74448" lon="4.60682">
        <ele>729.4</ele>
        <time>2020-06-14T08:26:15.000Z</time>
      </trkpt>
      <trkpt lat="45.74447" lon="4.60681">
        <ele>729.4</ele>
        <time>2020-06-14T08:26:16.000Z</time>
      </trkpt>
      <trkpt lat="45.74446" lon="4.6068">
        <ele>729.8</ele>
        <time>2020-06-14T08:26:17.000Z</time>
      </trkpt>
      <trkpt lat="45.74444" lon="4.6068">
        <ele>730.2</ele>
        <time>2020-06-14T08:26:18.000Z</time>
      </trkpt>
      <trkpt lat="45.74443" lon="4.60679">
        <ele>730.2</ele>
        <time>2020-06-14T08:26:19.000Z</time>
      </trkpt>
      <trkpt lat="45.74442" lon="4.60678">
        <ele>730.2</ele>
        <time>2020-06-14T08:26:20.000Z</time>
      </trkpt>
      <trkpt lat="45.74441" lon="4.60677">
        <ele>730.2</ele>
        <time>2020-06-14T08:26:21.000Z</time>
      </trkpt>
      <trkpt lat="45.7444" lon="4.60676">
        <ele>730.6</ele>
        <time>2020-06-14T08:26:22.000Z</time>
      </trkpt>
      <trkpt lat="45.74439" lon="4.60676">
        <ele>730.8</ele>
        <time>2020-06-14T08:26:23.000Z</time>
      </trkpt>
      <trkpt lat="45.74437" lon="4.60675">
        <ele>730.8</ele>
        <time>2020-06-14T08:26:24.000Z</time>
      </trkpt>
      <trkpt lat="45.74436" lon="4.60674">
        <ele>731</ele>
        <time>2020-06-14T08:26:25.000Z</time>
      </trkpt>
      <trkpt lat="45.74435" lon="4.60674">
        <ele>731.2</ele>
        <time>2020-06-14T08:26:26.000Z</time>
      </trkpt>
      <trkpt lat="45.74434" lon="4.60673">
        <ele>731.2</ele>
        <time>2020-06-14T08:26:27.000Z</time>
      </trkpt>
      <trkpt lat="45.74433" lon="4.60673">
        <ele>731.6</ele>
        <time>2020-06-14T08:26:28.000Z</time>
      </trkpt>
      <trkpt lat="45.74432" lon="4.60672">
        <ele>731.6</ele>
        <time>2020-06-14T08:26:29.000Z</time>
      </trkpt>
      <trkpt lat="45.74431" lon="4.60671">
        <ele>731.6</ele>
        <time>2020-06-14T08:26:30.000Z</time>
      </trkpt>
      <trkpt lat="45.74431" lon="4.6067">
        <ele>731.8</ele>
        <time>2020-06-14T08:26:31.000Z</time>
      </trkpt>
      <trkpt lat="45.7443" lon="4.60669">
        <ele>732.2</ele>
        <time>2020-06-14T08:26:32.000Z</time>
      </trkpt>
      <trkpt lat="45.74429" lon="4.60668">
        <ele>732.4</ele>
        <time>2020-06-14T08:26:33.000Z</time>
      </trkpt>
      <trkpt lat="45.74429" lon="4.60667">
        <ele>732.6</ele>
        <time>2020-06-14T08:26:34.000Z</time>
      </trkpt>
      <trkpt lat="45.74427" lon="4.60666">
        <ele>732.6</ele>
        <time>2020-06-14T08:26:35.000Z</time>
      </trkpt>
      <trkpt lat="45.74426" lon="4.60665">
        <ele>732.8</ele>
        <time>2020-06-14T08:26:36.000Z</time>
      </trkpt>
      <trkpt lat="45.74424" lon="4.60664">
        <ele>733</ele>
        <time>2020-06-14T08:26:37.000Z</time>
      </trkpt>
      <trkpt lat="45.74423" lon="4.60662">
        <ele>733.2</ele>
        <time>2020-06-14T08:26:38.000Z</time>
      </trkpt>
      <trkpt lat="45.74421" lon="4.60661">
        <ele>733.6</ele>
        <time>2020-06-14T08:26:39.000Z</time>
      </trkpt>
      <trkpt lat="45.7442" lon="4.6066">
        <ele>733.6</ele>
        <time>2020-06-14T08:26:40.000Z</time>
      </trkpt>
      <trkpt lat="45.74419" lon="4.60659">
        <ele>733.8</ele>
        <time>2020-06-14T08:26:41.000Z</time>
      </trkpt>
      <trkpt lat="45.74419" lon="4.60659">
        <ele>734</ele>
        <time>2020-06-14T08:26:42.000Z</time>
      </trkpt>
      <trkpt lat="45.74418" lon="4.60658">
        <ele>734</ele>
        <time>2020-06-14T08:26:43.000Z</time>
      </trkpt>
      <trkpt lat="45.74417" lon="4.60658">
        <ele>734.2</ele>
        <time>2020-06-14T08:26:44.000Z</time>
      </trkpt>
      <trkpt lat="45.74415" lon="4.60657">
        <ele>734.2</ele>
        <time>2020-06-14T08:26:45.000Z</time>
      </trkpt>
      <trkpt lat="45.74414" lon="4.60656">
        <ele>734.6</ele>
        <time>2020-06-14T08:26:46.000Z</time>
      </trkpt>
      <trkpt lat="45.74413" lon="4.60656">
        <ele>734.6</ele>
        <time>2020-06-14T08:26:47.000Z</time>
      </trkpt>
      <trkpt lat="45.74412" lon="4.60655">
        <ele>734.8</ele>
        <time>2020-06-14T08:26:48.000Z</time>
      </trkpt>
      <trkpt lat="45.74411" lon="4.60655">
        <ele>735</ele>
        <time>2020-06-14T08:26:49.000Z</time>
      </trkpt>
      <trkpt lat="45.74409" lon="4.60654">
        <ele>735.2</ele>
        <time>2020-06-14T08:26:50.000Z</time>
      </trkpt>
      <trkpt lat="45.74408" lon="4.60654">
        <ele>735.2</ele>
        <time>2020-06-14T08:26:51.000Z</time>
      </trkpt>
      <trkpt lat="45.74407" lon="4.60652">
        <ele>735</ele>
        <time>2020-06-14T08:26:52.000Z</time>
      </trkpt>
      <trkpt lat="45.74406" lon="4.60652">
        <ele>735.2</ele>
        <time>2020-06-14T08:26:53.000Z</time>
      </trkpt>
      <trkpt lat="45.74405" lon="4.60651">
        <ele>735.4</ele>
        <time>2020-06-14T08:26:54.000Z</time>
      </trkpt>
      <trkpt lat="45.74404" lon="4.6065">
        <ele>735.6</ele>
        <time>2020-06-14T08:26:55.000Z</time>
      </trkpt>
      <trkpt lat="45.74402" lon="4.60649">
        <ele>736</ele>
        <time>2020-06-14T08:26:56.000Z</time>
      </trkpt>
      <trkpt lat="45.74401" lon="4.60647">
        <ele>736</ele>
        <time>2020-06-14T08:26:57.000Z</time>
      </trkpt>
      <trkpt lat="45.744" lon="4.60646">
        <ele>736.2</ele>
        <time>2020-06-14T08:26:58.000Z</time>
      </trkpt>
      <trkpt lat="45.74399" lon="4.60645">
        <ele>736.4</ele>
        <time>2020-06-14T08:26:59.000Z</time>
      </trkpt>
      <trkpt lat="45.74398" lon="4.60644">
        <ele>736.6</ele>
        <time>2020-06-14T08:27:00.000Z</time>
      </trkpt>
      <trkpt lat="45.74397" lon="4.60643">
        <ele>736.6</ele>
        <time>2020-06-14T08:27:01.000Z</time>
      </trkpt>
      <trkpt lat="45.74396" lon="4.60641">
        <ele>737</ele>
        <time>2020-06-14T08:27:02.000Z</time>
      </trkpt>
      <trkpt lat="45.74394" lon="4.6064">
        <ele>737.2</ele>
        <time>2020-06-14T08:27:03.000Z</time>
      </trkpt>
      <trkpt lat="45.74393" lon="4.60639">
        <ele>737.4</ele>
        <time>2020-06-14T08:27:04.000Z</time>
      </trkpt>
      <trkpt lat="45.74391" lon="4.60637">
        <ele>737.6</ele>
        <time>2020-06-14T08:27:05.000Z</time>
      </trkpt>
      <trkpt lat="45.7439" lon="4.60636">
        <ele>737.8</ele>
        <time>2020-06-14T08:27:06.000Z</time>
      </trkpt>
      <trkpt lat="45.74389" lon="4.60635">
        <ele>738</ele>
        <time>2020-06-14T08:27:07.000Z</time>
      </trkpt>
      <trkpt lat="45.74387" lon="4.60634">
        <ele>738.4</ele>
        <time>2020-06-14T08:27:08.000Z</time>
      </trkpt>
      <trkpt lat="45.74386" lon="4.60633">
        <ele>738.6</ele>
        <time>2020-06-14T08:27:09.000Z</time>
      </trkpt>
      <trkpt lat="45.74384" lon="4.60632">
        <ele>738.6</ele>
        <time>2020-06-14T08:27:10.000Z</time>
      </trkpt>
      <trkpt lat="45.74382" lon="4.60631">
        <ele>738.8</ele>
        <time>2020-06-14T08:27:11.000Z</time>
      </trkpt>
      <trkpt lat="45.74381" lon="4.60631">
        <ele>738.8</ele>
        <time>2020-06-14T08:27:12.000Z</time>
      </trkpt>
      <trkpt lat="45.7438" lon="4.6063">
        <ele>738.8</ele>
        <time>2020-06-14T08:27:13.000Z</time>
      </trkpt>
      <trkpt lat="45.74378" lon="4.6063">
        <ele>739.2</ele>
        <time>2020-06-14T08:27:14.000Z</time>
      </trkpt>
      <trkpt lat="45.74377" lon="4.6063">
        <ele>739.4</ele>
        <time>2020-06-14T08:27:15.000Z</time>
      </trkpt>
      <trkpt lat="45.74376" lon="4.6063">
        <ele>739.2</ele>
        <time>2020-06-14T08:27:16.000Z</time>
      </trkpt>
      <trkpt lat="45.74374" lon="4.60628">
        <ele>739.4</ele>
        <time>2020-06-14T08:27:17.000Z</time>
      </trkpt>
      <trkpt lat="45.74373" lon="4.60627">
        <ele>739.6</ele>
        <time>2020-06-14T08:27:18.000Z</time>
      </trkpt>
      <trkpt lat="45.74372" lon="4.60627">
        <ele>739.8</ele>
        <time>2020-06-14T08:27:19.000Z</time>
      </trkpt>
      <trkpt lat="45.7437" lon="4.60626">
        <ele>739.8</ele>
        <time>2020-06-14T08:27:20.000Z</time>
      </trkpt>
      <trkpt lat="45.74369" lon="4.60625">
        <ele>739.8</ele>
        <time>2020-06-14T08:27:21.000Z</time>
      </trkpt>
      <trkpt lat="45.74368" lon="4.60624">
        <ele>739.8</ele>
        <time>2020-06-14T08:27:22.000Z</time>
      </trkpt>
      <trkpt lat="45.74367" lon="4.60623">
        <ele>740</ele>
        <time>2020-06-14T08:27:23.000Z</time>
      </trkpt>
      <trkpt lat="45.74366" lon="4.60622">
        <ele>740.2</ele>
        <time>2020-06-14T08:27:24.000Z</time>
      </trkpt>
      <trkpt lat="45.74365" lon="4.60621">
        <ele>740.2</ele>
        <time>2020-06-14T08:27:25.000Z</time>
      </trkpt>
      <trkpt lat="45.74364" lon="4.6062">
        <ele>740.4</ele>
        <time>2020-06-14T08:27:26.000Z</time>
      </trkpt>
      <trkpt lat="45.74363" lon="4.60619">
        <ele>740.4</ele>
        <time>2020-06-14T08:27:27.000Z</time>
      </trkpt>
      <trkpt lat="45.74362" lon="4.60618">
        <ele>740.6</ele>
        <time>2020-06-14T08:27:28.000Z</time>
      </trkpt>
      <trkpt lat="45.74361" lon="4.60617">
        <ele>740.8</ele>
        <time>2020-06-14T08:27:29.000Z</time>
      </trkpt>
      <trkpt lat="45.7436" lon="4.60616">
        <ele>740.8</ele>
        <time>2020-06-14T08:27:30.000Z</time>
      </trkpt>
      <trkpt lat="45.7436" lon="4.60615">
        <ele>741.2</ele>
        <time>2020-06-14T08:27:31.000Z</time>
      </trkpt>
      <trkpt lat="45.74359" lon="4.60614">
        <ele>741.4</ele>
        <time>2020-06-14T08:27:32.000Z</time>
      </trkpt>
      <trkpt lat="45.74358" lon="4.60613">
        <ele>741.4</ele>
        <time>2020-06-14T08:27:33.000Z</time>
      </trkpt>
      <trkpt lat="45.74357" lon="4.60613">
        <ele>741.6</ele>
        <time>2020-06-14T08:27:34.000Z</time>
      </trkpt>
      <trkpt lat="45.74355" lon="4.60612">
        <ele>741.6</ele>
        <time>2020-06-14T08:27:35.000Z</time>
      </trkpt>
      <trkpt lat="45.74354" lon="4.60611">
        <ele>741.8</ele>
        <time>2020-06-14T08:27:36.000Z</time>
      </trkpt>
      <trkpt lat="45.74353" lon="4.6061">
        <ele>742</ele>
        <time>2020-06-14T08:27:37.000Z</time>
      </trkpt>
      <trkpt lat="45.74352" lon="4.60609">
        <ele>742.4</ele>
        <time>2020-06-14T08:27:38.000Z</time>
      </trkpt>
      <trkpt lat="45.7435" lon="4.60608">
        <ele>742.8</ele>
        <time>2020-06-14T08:27:39.000Z</time>
      </trkpt>
      <trkpt lat="45.74349" lon="4.60607">
        <ele>742.8</ele>
        <time>2020-06-14T08:27:40.000Z</time>
      </trkpt>
      <trkpt lat="45.74348" lon="4.60606">
        <ele>743</ele>
        <time>2020-06-14T08:27:41.000Z</time>
      </trkpt>
      <trkpt lat="45.74347" lon="4.60605">
        <ele>743</ele>
        <time>2020-06-14T08:27:42.000Z</time>
      </trkpt>
      <trkpt lat="45.74345" lon="4.60604">
        <ele>743</ele>
        <time>2020-06-14T08:27:43.000Z</time>
      </trkpt>
      <trkpt lat="45.74344" lon="4.60603">
        <ele>743.2</ele>
        <time>2020-06-14T08:27:44.000Z</time>
      </trkpt>
      <trkpt lat="45.74343" lon="4.60602">
        <ele>743.4</ele>
        <time>2020-06-14T08:27:45.000Z</time>
      </trkpt>
      <trkpt lat="45.74342" lon="4.60601">
        <ele>743.6</ele>
        <time>2020-06-14T08:27:46.000Z</time>
      </trkpt>
      <trkpt lat="45.74341" lon="4.606">
        <ele>744</ele>
        <time>2020-06-14T08:27:47.000Z</time>
      </trkpt>
      <trkpt lat="45.7434" lon="4.60599">
        <ele>744.2</ele>
        <time>2020-06-14T08:27:48.000Z</time>
      </trkpt>
      <trkpt lat="45.74339" lon="4.60597">
        <ele>744.6</ele>
        <time>2020-06-14T08:27:49.000Z</time>
      </trkpt>
      <trkpt lat="45.74338" lon="4.60596">
        <ele>745</ele>
        <time>2020-06-14T08:27:50.000Z</time>
      </trkpt>
      <trkpt lat="45.74338" lon="4.60594">
        <ele>745.2</ele>
        <time>2020-06-14T08:27:51.000Z</time>
      </trkpt>
      <trkpt lat="45.74337" lon="4.60592">
        <ele>745.6</ele>
        <time>2020-06-14T08:27:52.000Z</time>
      </trkpt>
      <trkpt lat="45.74336" lon="4.60591">
        <ele>745.8</ele>
        <time>2020-06-14T08:27:53.000Z</time>
      </trkpt>
      <trkpt lat="45.74335" lon="4.60589">
        <ele>746.2</ele>
        <time>2020-06-14T08:27:54.000Z</time>
      </trkpt>
      <trkpt lat="45.74334" lon="4.60588">
        <ele>746.4</ele>
        <time>2020-06-14T08:27:55.000Z</time>
      </trkpt>
      <trkpt lat="45.74333" lon="4.60587">
        <ele>746.8</ele>
        <time>2020-06-14T08:27:56.000Z</time>
      </trkpt>
      <trkpt lat="45.74332" lon="4.60587">
        <ele>747</ele>
        <time>2020-06-14T08:27:57.000Z</time>
      </trkpt>
      <trkpt lat="45.7433" lon="4.60586">
        <ele>747.2</ele>
        <time>2020-06-14T08:27:58.000Z</time>
      </trkpt>
      <trkpt lat="45.74328" lon="4.60586">
        <ele>747.2</ele>
        <time>2020-06-14T08:27:59.000Z</time>
      </trkpt>
      <trkpt lat="45.74327" lon="4.60586">
        <ele>747.4</ele>
        <time>2020-06-14T08:28:00.000Z</time>
      </trkpt>
      <trkpt lat="45.74326" lon="4.60586">
        <ele>747.8</ele>
        <time>2020-06-14T08:28:01.000Z</time>
      </trkpt>
      <trkpt lat="45.74325" lon="4.60586">
        <ele>748</ele>
        <time>2020-06-14T08:28:02.000Z</time>
      </trkpt>
      <trkpt lat="45.74324" lon="4.60586">
        <ele>748</ele>
        <time>2020-06-14T08:28:03.000Z</time>
      </trkpt>
      <trkpt lat="45.74322" lon="4.60586">
        <ele>748.2</ele>
        <time>2020-06-14T08:28:04.000Z</time>
      </trkpt>
      <trkpt lat="45.74321" lon="4.60586">
        <ele>748.4</ele>
        <time>2020-06-14T08:28:05.000Z</time>
      </trkpt>
      <trkpt lat="45.7432" lon="4.60586">
        <ele>748.6</ele>
        <time>2020-06-14T08:28:06.000Z</time>
      </trkpt>
      <trkpt lat="45.74319" lon="4.60586">
        <ele>749</ele>
        <time>2020-06-14T08:28:07.000Z</time>
      </trkpt>
      <trkpt lat="45.74319" lon="4.60585">
        <ele>749.2</ele>
        <time>2020-06-14T08:28:08.000Z</time>
      </trkpt>
      <trkpt lat="45.74317" lon="4.60585">
        <ele>749.2</ele>
        <time>2020-06-14T08:28:09.000Z</time>
      </trkpt>
      <trkpt lat="45.74316" lon="4.60584">
        <ele>749.6</ele>
        <time>2020-06-14T08:28:10.000Z</time>
      </trkpt>
      <trkpt lat="45.74315" lon="4.60584">
        <ele>749.6</ele>
        <time>2020-06-14T08:28:11.000Z</time>
      </trkpt>
      <trkpt lat="45.74294" lon="4.60569">
        <ele>754.8</ele>
        <time>2020-06-14T08:28:46.000Z</time>
      </trkpt>
      <trkpt lat="45.74293" lon="4.60568">
        <ele>754.8</ele>
        <time>2020-06-14T08:28:47.000Z</time>
      </trkpt>
      <trkpt lat="45.74292" lon="4.60568">
        <ele>754.8</ele>
        <time>2020-06-14T08:28:48.000Z</time>
      </trkpt>
      <trkpt lat="45.7429" lon="4.60568">
        <ele>755</ele>
        <time>2020-06-14T08:28:49.000Z</time>
      </trkpt>
      <trkpt lat="45.74288" lon="4.60568">
        <ele>755</ele>
        <time>2020-06-14T08:28:50.000Z</time>
      </trkpt>
      <trkpt lat="45.74286" lon="4.60568">
        <ele>755</ele>
        <time>2020-06-14T08:28:51.000Z</time>
      </trkpt>
      <trkpt lat="45.74285" lon="4.60568">
        <ele>755.2</ele>
        <time>2020-06-14T08:28:52.000Z</time>
      </trkpt>
      <trkpt lat="45.74284" lon="4.60568">
        <ele>755.2</ele>
        <time>2020-06-14T08:28:53.000Z</time>
      </trkpt>
      <trkpt lat="45.74282" lon="4.60567">
        <ele>755.4</ele>
        <time>2020-06-14T08:28:54.000Z</time>
      </trkpt>
      <trkpt lat="45.74281" lon="4.60567">
        <ele>755.6</ele>
        <time>2020-06-14T08:28:55.000Z</time>
      </trkpt>
      <trkpt lat="45.74279" lon="4.60567">
        <ele>755.8</ele>
        <time>2020-06-14T08:28:56.000Z</time>
      </trkpt>
      <trkpt lat="45.74278" lon="4.60567">
        <ele>756</ele>
        <time>2020-06-14T08:28:57.000Z</time>
      </trkpt>
      <trkpt lat="45.74276" lon="4.60566">
        <ele>756.4</ele>
        <time>2020-06-14T08:28:58.000Z</time>
      </trkpt>
      <trkpt lat="45.74275" lon="4.60566">
        <ele>756.6</ele>
        <time>2020-06-14T08:28:59.000Z</time>
      </trkpt>
      <trkpt lat="45.74274" lon="4.60566">
        <ele>756.8</ele>
        <time>2020-06-14T08:29:00.000Z</time>
      </trkpt>
      <trkpt lat="45.74273" lon="4.60565">
        <ele>757</ele>
        <time>2020-06-14T08:29:01.000Z</time>
      </trkpt>
      <trkpt lat="45.74272" lon="4.60565">
        <ele>757.2</ele>
        <time>2020-06-14T08:29:02.000Z</time>
      </trkpt>
      <trkpt lat="45.7427" lon="4.60564">
        <ele>757.6</ele>
        <time>2020-06-14T08:29:03.000Z</time>
      </trkpt>
      <trkpt lat="45.74269" lon="4.60564">
        <ele>757.8</ele>
        <time>2020-06-14T08:29:04.000Z</time>
      </trkpt>
      <trkpt lat="45.74268" lon="4.60564">
        <ele>757.8</ele>
        <time>2020-06-14T08:29:05.000Z</time>
      </trkpt>
      <trkpt lat="45.74266" lon="4.60563">
        <ele>758.2</ele>
        <time>2020-06-14T08:29:06.000Z</time>
      </trkpt>
      <trkpt lat="45.74265" lon="4.60563">
        <ele>758.4</ele>
        <time>2020-06-14T08:29:07.000Z</time>
      </trkpt>
      <trkpt lat="45.74263" lon="4.60562">
        <ele>758.8</ele>
        <time>2020-06-14T08:29:08.000Z</time>
      </trkpt>
      <trkpt lat="45.74262" lon="4.60561">
        <ele>759</ele>
        <time>2020-06-14T08:29:09.000Z</time>
      </trkpt>
      <trkpt lat="45.7426" lon="4.60561">
        <ele>759.4</ele>
        <time>2020-06-14T08:29:10.000Z</time>
      </trkpt>
      <trkpt lat="45.74259" lon="4.60559">
        <ele>759.6</ele>
        <time>2020-06-14T08:29:11.000Z</time>
      </trkpt>
      <trkpt lat="45.74258" lon="4.60559">
        <ele>759.8</ele>
        <time>2020-06-14T08:29:12.000Z</time>
      </trkpt>
      <trkpt lat="45.74256" lon="4.60558">
        <ele>760</ele>
        <time>2020-06-14T08:29:13.000Z</time>
      </trkpt>
      <trkpt lat="45.74254" lon="4.60557">
        <ele>760.2</ele>
        <time>2020-06-14T08:29:14.000Z</time>
      </trkpt>
      <trkpt lat="45.74253" lon="4.60556">
        <ele>760.6</ele>
        <time>2020-06-14T08:29:15.000Z</time>
      </trkpt>
      <trkpt lat="45.74252" lon="4.60555">
        <ele>761</ele>
        <time>2020-06-14T08:29:16.000Z</time>
      </trkpt>
      <trkpt lat="45.7425" lon="4.60553">
        <ele>761.2</ele>
        <time>2020-06-14T08:29:17.000Z</time>
      </trkpt>
      <trkpt lat="45.74249" lon="4.60551">
        <ele>761.6</ele>
        <time>2020-06-14T08:29:18.000Z</time>
      </trkpt>
      <trkpt lat="45.74248" lon="4.6055">
        <ele>762</ele>
        <time>2020-06-14T08:29:19.000Z</time>
      </trkpt>
      <trkpt lat="45.74247" lon="4.60548">
        <ele>762.2</ele>
        <time>2020-06-14T08:29:20.000Z</time>
      </trkpt>
      <trkpt lat="45.74246" lon="4.60547">
        <ele>762.6</ele>
        <time>2020-06-14T08:29:21.000Z</time>
      </trkpt>
      <trkpt lat="45.74245" lon="4.60546">
        <ele>762.8</ele>
        <time>2020-06-14T08:29:22.000Z</time>
      </trkpt>
      <trkpt lat="45.74244" lon="4.60545">
        <ele>763</ele>
        <time>2020-06-14T08:29:23.000Z</time>
      </trkpt>
      <trkpt lat="45.74243" lon="4.60543">
        <ele>763.2</ele>
        <time>2020-06-14T08:29:24.000Z</time>
      </trkpt>
      <trkpt lat="45.74243" lon="4.60542">
        <ele>763.2</ele>
        <time>2020-06-14T08:29:25.000Z</time>
      </trkpt>
      <trkpt lat="45.74242" lon="4.60541">
        <ele>763.4</ele>
        <time>2020-06-14T08:29:26.000Z</time>
      </trkpt>
      <trkpt lat="45.74241" lon="4.6054">
        <ele>763.4</ele>
        <time>2020-06-14T08:29:27.000Z</time>
      </trkpt>
      <trkpt lat="45.74239" lon="4.60538">
        <ele>763.6</ele>
        <time>2020-06-14T08:29:28.000Z</time>
      </trkpt>
      <trkpt lat="45.74238" lon="4.60538">
        <ele>763.6</ele>
        <time>2020-06-14T08:29:29.000Z</time>
      </trkpt>
      <trkpt lat="45.74237" lon="4.60536">
        <ele>764</ele>
        <time>2020-06-14T08:29:30.000Z</time>
      </trkpt>
      <trkpt lat="45.74236" lon="4.60535">
        <ele>764</ele>
        <time>2020-06-14T08:29:31.000Z</time>
      </trkpt>
      <trkpt lat="45.74234" lon="4.60534">
        <ele>764.4</ele>
        <time>2020-06-14T08:29:32.000Z</time>
      </trkpt>
      <trkpt lat="45.74233" lon="4.60533">
        <ele>764.4</ele>
        <time>2020-06-14T08:29:33.000Z</time>
      </trkpt>
      <trkpt lat="45.74232" lon="4.60532">
        <ele>764.6</ele>
        <time>2020-06-14T08:29:34.000Z</time>
      </trkpt>
      <trkpt lat="45.74231" lon="4.60531">
        <ele>764.8</ele>
        <time>2020-06-14T08:29:35.000Z</time>
      </trkpt>
      <trkpt lat="45.7423" lon="4.6053">
        <ele>765</ele>
        <time>2020-06-14T08:29:36.000Z</time>
      </trkpt>
      <trkpt lat="45.74228" lon="4.60528">
        <ele>765.2</ele>
        <time>2020-06-14T08:29:37.000Z</time>
      </trkpt>
      <trkpt lat="45.74227" lon="4.60527">
        <ele>765.4</ele>
        <time>2020-06-14T08:29:38.000Z</time>
      </trkpt>
      <trkpt lat="45.74226" lon="4.60525">
        <ele>765.6</ele>
        <time>2020-06-14T08:29:39.000Z</time>
      </trkpt>
      <trkpt lat="45.74226" lon="4.60523">
        <ele>765.8</ele>
        <time>2020-06-14T08:29:40.000Z</time>
      </trkpt>
      <trkpt lat="45.74225" lon="4.60522">
        <ele>766</ele>
        <time>2020-06-14T08:29:41.000Z</time>
      </trkpt>
      <trkpt lat="45.74224" lon="4.6052">
        <ele>766</ele>
        <time>2020-06-14T08:29:42.000Z</time>
      </trkpt>
      <trkpt lat="45.74223" lon="4.60519">
        <ele>766</ele>
        <time>2020-06-14T08:29:43.000Z</time>
      </trkpt>
      <trkpt lat="45.74222" lon="4.60518">
        <ele>766.4</ele>
        <time>2020-06-14T08:29:44.000Z</time>
      </trkpt>
      <trkpt lat="45.74221" lon="4.60517">
        <ele>766.4</ele>
        <time>2020-06-14T08:29:45.000Z</time>
      </trkpt>
      <trkpt lat="45.74221" lon="4.60516">
        <ele>766.4</ele>
        <time>2020-06-14T08:29:46.000Z</time>
      </trkpt>
      <trkpt lat="45.7422" lon="4.60515">
        <ele>766.6</ele>
        <time>2020-06-14T08:29:47.000Z</time>
      </trkpt>
      <trkpt lat="45.74218" lon="4.60514">
        <ele>766.4</ele>
        <time>2020-06-14T08:29:48.000Z</time>
      </trkpt>
      <trkpt lat="45.74218" lon="4.60513">
        <ele>766.6</ele>
        <time>2020-06-14T08:29:49.000Z</time>
      </trkpt>
      <trkpt lat="45.74217" lon="4.60512">
        <ele>767</ele>
        <time>2020-06-14T08:29:50.000Z</time>
      </trkpt>
      <trkpt lat="45.74216" lon="4.60511">
        <ele>767</ele>
        <time>2020-06-14T08:29:51.000Z</time>
      </trkpt>
      <trkpt lat="45.74207" lon="4.60501">
        <ele>768.6</ele>
        <time>2020-06-14T08:30:26.000Z</time>
      </trkpt>
      <trkpt lat="45.74207" lon="4.60501">
        <ele>768.6</ele>
        <time>2020-06-14T08:30:27.000Z</time>
      </trkpt>
      <trkpt lat="45.74206" lon="4.605">
        <ele>768.6</ele>
        <time>2020-06-14T08:30:28.000Z</time>
      </trkpt>
      <trkpt lat="45.74207" lon="4.60498">
        <ele>768.6</ele>
        <time>2020-06-14T08:30:29.000Z</time>
      </trkpt>
      <trkpt lat="45.74206" lon="4.60497">
        <ele>768.6</ele>
        <time>2020-06-14T08:30:30.000Z</time>
      </trkpt>
      <trkpt lat="45.74206" lon="4.60495">
        <ele>768.6</ele>
        <time>2020-06-14T08:30:31.000Z</time>
      </trkpt>
      <trkpt lat="45.74206" lon="4.60494">
        <ele>768.6</ele>
        <time>2020-06-14T08:30:32.000Z</time>
      </trkpt>
      <trkpt lat="45.74205" lon="4.60493">
        <ele>768.6</ele>
        <time>2020-06-14T08:30:33.000Z</time>
      </trkpt>
      <trkpt lat="45.74204" lon="4.60492">
        <ele>768.6</ele>
        <time>2020-06-14T08:30:34.000Z</time>
      </trkpt>
      <trkpt lat="45.74204" lon="4.6049">
        <ele>768.8</ele>
        <time>2020-06-14T08:30:35.000Z</time>
      </trkpt>
      <trkpt lat="45.74202" lon="4.60489">
        <ele>769</ele>
        <time>2020-06-14T08:30:36.000Z</time>
      </trkpt>
      <trkpt lat="45.74202" lon="4.60488">
        <ele>769.2</ele>
        <time>2020-06-14T08:30:37.000Z</time>
      </trkpt>
      <trkpt lat="45.74202" lon="4.60487">
        <ele>769.6</ele>
        <time>2020-06-14T08:30:38.000Z</time>
      </trkpt>
      <trkpt lat="45.74201" lon="4.60485">
        <ele>769.6</ele>
        <time>2020-06-14T08:30:39.000Z</time>
      </trkpt>
      <trkpt lat="45.742" lon="4.60483">
        <ele>769.8</ele>
        <time>2020-06-14T08:30:40.000Z</time>
      </trkpt>
      <trkpt lat="45.74199" lon="4.60482">
        <ele>770.4</ele>
        <time>2020-06-14T08:30:41.000Z</time>
      </trkpt>
      <trkpt lat="45.74199" lon="4.60481">
        <ele>770.6</ele>
        <time>2020-06-14T08:30:42.000Z</time>
      </trkpt>
      <trkpt lat="45.74198" lon="4.6048">
        <ele>771</ele>
        <time>2020-06-14T08:30:43.000Z</time>
      </trkpt>
      <trkpt lat="45.74197" lon="4.60478">
        <ele>771.2</ele>
        <time>2020-06-14T08:30:44.000Z</time>
      </trkpt>
      <trkpt lat="45.74195" lon="4.60477">
        <ele>771.4</ele>
        <time>2020-06-14T08:30:45.000Z</time>
      </trkpt>
      <trkpt lat="45.74194" lon="4.60475">
        <ele>771.4</ele>
        <time>2020-06-14T08:30:46.000Z</time>
      </trkpt>
      <trkpt lat="45.74193" lon="4.60473">
        <ele>771.4</ele>
        <time>2020-06-14T08:30:47.000Z</time>
      </trkpt>
      <trkpt lat="45.74191" lon="4.60471">
        <ele>771.8</ele>
        <time>2020-06-14T08:30:48.000Z</time>
      </trkpt>
      <trkpt lat="45.7419" lon="4.6047">
        <ele>771.8</ele>
        <time>2020-06-14T08:30:49.000Z</time>
      </trkpt>
      <trkpt lat="45.74189" lon="4.60469">
        <ele>772.2</ele>
        <time>2020-06-14T08:30:50.000Z</time>
      </trkpt>
      <trkpt lat="45.74188" lon="4.60468">
        <ele>772.6</ele>
        <time>2020-06-14T08:30:51.000Z</time>
      </trkpt>
      <trkpt lat="45.74187" lon="4.60467">
        <ele>772.8</ele>
        <time>2020-06-14T08:30:52.000Z</time>
      </trkpt>
      <trkpt lat="45.74186" lon="4.60466">
        <ele>773</ele>
        <time>2020-06-14T08:30:53.000Z</time>
      </trkpt>
      <trkpt lat="45.74185" lon="4.60465">
        <ele>773</ele>
        <time>2020-06-14T08:30:54.000Z</time>
      </trkpt>
      <trkpt lat="45.74185" lon="4.60464">
        <ele>773.2</ele>
        <time>2020-06-14T08:30:55.000Z</time>
      </trkpt>
      <trkpt lat="45.74184" lon="4.60462">
        <ele>773.8</ele>
        <time>2020-06-14T08:30:56.000Z</time>
      </trkpt>
      <trkpt lat="45.74183" lon="4.60461">
        <ele>774</ele>
        <time>2020-06-14T08:30:57.000Z</time>
      </trkpt>
      <trkpt lat="45.74183" lon="4.6046">
        <ele>774.2</ele>
        <time>2020-06-14T08:30:58.000Z</time>
      </trkpt>
      <trkpt lat="45.74182" lon="4.60458">
        <ele>774.4</ele>
        <time>2020-06-14T08:30:59.000Z</time>
      </trkpt>
      <trkpt lat="45.74182" lon="4.60457">
        <ele>774.6</ele>
        <time>2020-06-14T08:31:00.000Z</time>
      </trkpt>
      <trkpt lat="45.74181" lon="4.60456">
        <ele>774.8</ele>
        <time>2020-06-14T08:31:01.000Z</time>
      </trkpt>
      <trkpt lat="45.7418" lon="4.60454">
        <ele>775.2</ele>
        <time>2020-06-14T08:31:02.000Z</time>
      </trkpt>
      <trkpt lat="45.74179" lon="4.60452">
        <ele>775.6</ele>
        <time>2020-06-14T08:31:03.000Z</time>
      </trkpt>
      <trkpt lat="45.74177" lon="4.6045">
        <ele>775.8</ele>
        <time>2020-06-14T08:31:04.000Z</time>
      </trkpt>
      <trkpt lat="45.74175" lon="4.60448">
        <ele>776.2</ele>
        <time>2020-06-14T08:31:05.000Z</time>
      </trkpt>
      <trkpt lat="45.74174" lon="4.60446">
        <ele>776.2</ele>
        <time>2020-06-14T08:31:06.000Z</time>
      </trkpt>
      <trkpt lat="45.74173" lon="4.60444">
        <ele>776.2</ele>
        <time>2020-06-14T08:31:07.000Z</time>
      </trkpt>
      <trkpt lat="45.74172" lon="4.60442">
        <ele>776.4</ele>
        <time>2020-06-14T08:31:08.000Z</time>
      </trkpt>
      <trkpt lat="45.74171" lon="4.6044">
        <ele>776.8</ele>
        <time>2020-06-14T08:31:09.000Z</time>
      </trkpt>
      <trkpt lat="45.74169" lon="4.60438">
        <ele>777</ele>
        <time>2020-06-14T08:31:10.000Z</time>
      </trkpt>
      <trkpt lat="45.74168" lon="4.60436">
        <ele>777.6</ele>
        <time>2020-06-14T08:31:11.000Z</time>
      </trkpt>
      <trkpt lat="45.74167" lon="4.60434">
        <ele>777.8</ele>
        <time>2020-06-14T08:31:12.000Z</time>
      </trkpt>
      <trkpt lat="45.74166" lon="4.60432">
        <ele>778</ele>
        <time>2020-06-14T08:31:13.000Z</time>
      </trkpt>
      <trkpt lat="45.74165" lon="4.6043">
        <ele>778.2</ele>
        <time>2020-06-14T08:31:14.000Z</time>
      </trkpt>
      <trkpt lat="45.74165" lon="4.60429">
        <ele>778.6</ele>
        <time>2020-06-14T08:31:15.000Z</time>
      </trkpt>
      <trkpt lat="45.74164" lon="4.60427">
        <ele>778.8</ele>
        <time>2020-06-14T08:31:16.000Z</time>
      </trkpt>
      <trkpt lat="45.74163" lon="4.60425">
        <ele>779</ele>
        <time>2020-06-14T08:31:17.000Z</time>
      </trkpt>
      <trkpt lat="45.74162" lon="4.60423">
        <ele>779.4</ele>
        <time>2020-06-14T08:31:18.000Z</time>
      </trkpt>
      <trkpt lat="45.74161" lon="4.60422">
        <ele>779.4</ele>
        <time>2020-06-14T08:31:19.000Z</time>
      </trkpt>
      <trkpt lat="45.7416" lon="4.60421">
        <ele>780</ele>
        <time>2020-06-14T08:31:20.000Z</time>
      </trkpt>
      <trkpt lat="45.74159" lon="4.60421">
        <ele>780.2</ele>
        <time>2020-06-14T08:31:21.000Z</time>
      </trkpt>
      <trkpt lat="45.74159" lon="4.60419">
        <ele>780.4</ele>
        <time>2020-06-14T08:31:22.000Z</time>
      </trkpt>
      <trkpt lat="45.74158" lon="4.60417">
        <ele>780.8</ele>
        <time>2020-06-14T08:31:23.000Z</time>
      </trkpt>
      <trkpt lat="45.74158" lon="4.60416">
        <ele>781</ele>
        <time>2020-06-14T08:31:24.000Z</time>
      </trkpt>
      <trkpt lat="45.74157" lon="4.60414">
        <ele>781</ele>
        <time>2020-06-14T08:31:25.000Z</time>
      </trkpt>
      <trkpt lat="45.74157" lon="4.60412">
        <ele>781.2</ele>
        <time>2020-06-14T08:31:26.000Z</time>
      </trkpt>
      <trkpt lat="45.74156" lon="4.60411">
        <ele>781.2</ele>
        <time>2020-06-14T08:31:27.000Z</time>
      </trkpt>
      <trkpt lat="45.74156" lon="4.60409">
        <ele>781.4</ele>
        <time>2020-06-14T08:31:28.000Z</time>
      </trkpt>
      <trkpt lat="45.74155" lon="4.60406">
        <ele>781.6</ele>
        <time>2020-06-14T08:31:29.000Z</time>
      </trkpt>
      <trkpt lat="45.74155" lon="4.60403">
        <ele>781.8</ele>
        <time>2020-06-14T08:31:30.000Z</time>
      </trkpt>
      <trkpt lat="45.74155" lon="4.60401">
        <ele>782</ele>
        <time>2020-06-14T08:31:31.000Z</time>
      </trkpt>
      <trkpt lat="45.74154" lon="4.60398">
        <ele>782.2</ele>
        <time>2020-06-14T08:31:32.000Z</time>
      </trkpt>
      <trkpt lat="45.74155" lon="4.60395">
        <ele>782.6</ele>
        <time>2020-06-14T08:31:33.000Z</time>
      </trkpt>
      <trkpt lat="45.74155" lon="4.60392">
        <ele>782.6</ele>
        <time>2020-06-14T08:31:34.000Z</time>
      </trkpt>
      <trkpt lat="45.74155" lon="4.60389">
        <ele>782.8</ele>
        <time>2020-06-14T08:31:35.000Z</time>
      </trkpt>
      <trkpt lat="45.74154" lon="4.60387">
        <ele>782.8</ele>
        <time>2020-06-14T08:31:36.000Z</time>
      </trkpt>
      <trkpt lat="45.74153" lon="4.60384">
        <ele>783</ele>
        <time>2020-06-14T08:31:37.000Z</time>
      </trkpt>
      <trkpt lat="45.74153" lon="4.60381">
        <ele>783.2</ele>
        <time>2020-06-14T08:31:38.000Z</time>
      </trkpt>
      <trkpt lat="45.74153" lon="4.60379">
        <ele>783.4</ele>
        <time>2020-06-14T08:31:39.000Z</time>
      </trkpt>
      <trkpt lat="45.74153" lon="4.60376">
        <ele>783.6</ele>
        <time>2020-06-14T08:31:40.000Z</time>
      </trkpt>
      <trkpt lat="45.74152" lon="4.60373">
        <ele>783.8</ele>
        <time>2020-06-14T08:31:41.000Z</time>
      </trkpt>
      <trkpt lat="45.74152" lon="4.60371">
        <ele>784</ele>
        <time>2020-06-14T08:31:42.000Z</time>
      </trkpt>
      <trkpt lat="45.74152" lon="4.60369">
        <ele>784</ele>
        <time>2020-06-14T08:31:43.000Z</time>
      </trkpt>
      <trkpt lat="45.74152" lon="4.60366">
        <ele>784.2</ele>
        <time>2020-06-14T08:31:44.000Z</time>
      </trkpt>
      <trkpt lat="45.74152" lon="4.60364">
        <ele>784.6</ele>
        <time>2020-06-14T08:31:45.000Z</time>
      </trkpt>
      <trkpt lat="45.74151" lon="4.60361">
        <ele>784.6</ele>
        <time>2020-06-14T08:31:46.000Z</time>
      </trkpt>
      <trkpt lat="45.74151" lon="4.60359">
        <ele>784.6</ele>
        <time>2020-06-14T08:31:47.000Z</time>
      </trkpt>
      <trkpt lat="45.74151" lon="4.60356">
        <ele>784.8</ele>
        <time>2020-06-14T08:31:48.000Z</time>
      </trkpt>
      <trkpt lat="45.74151" lon="4.60354">
        <ele>784.8</ele>
        <time>2020-06-14T08:31:49.000Z</time>
      </trkpt>
      <trkpt lat="45.74151" lon="4.60352">
        <ele>785.2</ele>
        <time>2020-06-14T08:31:50.000Z</time>
      </trkpt>
      <trkpt lat="45.74151" lon="4.60349">
        <ele>785.6</ele>
        <time>2020-06-14T08:31:51.000Z</time>
      </trkpt>
      <trkpt lat="45.74151" lon="4.60347">
        <ele>785.8</ele>
        <time>2020-06-14T08:31:52.000Z</time>
      </trkpt>
      <trkpt lat="45.74151" lon="4.60345">
        <ele>786.2</ele>
        <time>2020-06-14T08:31:53.000Z</time>
      </trkpt>
      <trkpt lat="45.74151" lon="4.60342">
        <ele>786.2</ele>
        <time>2020-06-14T08:31:54.000Z</time>
      </trkpt>
      <trkpt lat="45.74151" lon="4.6034">
        <ele>786.6</ele>
        <time>2020-06-14T08:31:55.000Z</time>
      </trkpt>
      <trkpt lat="45.74151" lon="4.60337">
        <ele>787</ele>
        <time>2020-06-14T08:31:56.000Z</time>
      </trkpt>
      <trkpt lat="45.74151" lon="4.60335">
        <ele>787.2</ele>
        <time>2020-06-14T08:31:57.000Z</time>
      </trkpt>
      <trkpt lat="45.74151" lon="4.60332">
        <ele>787.6</ele>
        <time>2020-06-14T08:31:58.000Z</time>
      </trkpt>
      <trkpt lat="45.7415" lon="4.6033">
        <ele>787.8</ele>
        <time>2020-06-14T08:31:59.000Z</time>
      </trkpt>
      <trkpt lat="45.7415" lon="4.60327">
        <ele>787.8</ele>
        <time>2020-06-14T08:32:00.000Z</time>
      </trkpt>
      <trkpt lat="45.74151" lon="4.60324">
        <ele>788.2</ele>
        <time>2020-06-14T08:32:01.000Z</time>
      </trkpt>
      <trkpt lat="45.74151" lon="4.60322">
        <ele>788.6</ele>
        <time>2020-06-14T08:32:02.000Z</time>
      </trkpt>
      <trkpt lat="45.74151" lon="4.6032">
        <ele>788.6</ele>
        <time>2020-06-14T08:32:03.000Z</time>
      </trkpt>
      <trkpt lat="45.7415" lon="4.60318">
        <ele>788.8</ele>
        <time>2020-06-14T08:32:04.000Z</time>
      </trkpt>
      <trkpt lat="45.7415" lon="4.60316">
        <ele>789.2</ele>
        <time>2020-06-14T08:32:05.000Z</time>
      </trkpt>
      <trkpt lat="45.7415" lon="4.60313">
        <ele>789.6</ele>
        <time>2020-06-14T08:32:06.000Z</time>
      </trkpt>
      <trkpt lat="45.74151" lon="4.6031">
        <ele>789.6</ele>
        <time>2020-06-14T08:32:07.000Z</time>
      </trkpt>
      <trkpt lat="45.74151" lon="4.60307">
        <ele>789.6</ele>
        <time>2020-06-14T08:32:08.000Z</time>
      </trkpt>
      <trkpt lat="45.74151" lon="4.60304">
        <ele>789.8</ele>
        <time>2020-06-14T08:32:09.000Z</time>
      </trkpt>
      <trkpt lat="45.74152" lon="4.60302">
        <ele>790.2</ele>
        <time>2020-06-14T08:32:10.000Z</time>
      </trkpt>
      <trkpt lat="45.74152" lon="4.60299">
        <ele>790.4</ele>
        <time>2020-06-14T08:32:11.000Z</time>
      </trkpt>
      <trkpt lat="45.74153" lon="4.60297">
        <ele>790.4</ele>
        <time>2020-06-14T08:32:12.000Z</time>
      </trkpt>
      <trkpt lat="45.74154" lon="4.60294">
        <ele>790.8</ele>
        <time>2020-06-14T08:32:13.000Z</time>
      </trkpt>
      <trkpt lat="45.74155" lon="4.60291">
        <ele>791</ele>
        <time>2020-06-14T08:32:14.000Z</time>
      </trkpt>
      <trkpt lat="45.74155" lon="4.60289">
        <ele>791.2</ele>
        <time>2020-06-14T08:32:15.000Z</time>
      </trkpt>
      <trkpt lat="45.74155" lon="4.60287">
        <ele>791.4</ele>
        <time>2020-06-14T08:32:16.000Z</time>
      </trkpt>
      <trkpt lat="45.74155" lon="4.60285">
        <ele>791.4</ele>
        <time>2020-06-14T08:32:17.000Z</time>
      </trkpt>
      <trkpt lat="45.74156" lon="4.60283">
        <ele>791.8</ele>
        <time>2020-06-14T08:32:18.000Z</time>
      </trkpt>
      <trkpt lat="45.74156" lon="4.60281">
        <ele>791.8</ele>
        <time>2020-06-14T08:32:19.000Z</time>
      </trkpt>
      <trkpt lat="45.74157" lon="4.6028">
        <ele>792</ele>
        <time>2020-06-14T08:32:20.000Z</time>
      </trkpt>
      <trkpt lat="45.74157" lon="4.60278">
        <ele>792</ele>
        <time>2020-06-14T08:32:21.000Z</time>
      </trkpt>
      <trkpt lat="45.74157" lon="4.60275">
        <ele>792.2</ele>
        <time>2020-06-14T08:32:22.000Z</time>
      </trkpt>
      <trkpt lat="45.74157" lon="4.60273">
        <ele>792.4</ele>
        <time>2020-06-14T08:32:23.000Z</time>
      </trkpt>
      <trkpt lat="45.74157" lon="4.60271">
        <ele>792.6</ele>
        <time>2020-06-14T08:32:24.000Z</time>
      </trkpt>
      <trkpt lat="45.74157" lon="4.60269">
        <ele>792.6</ele>
        <time>2020-06-14T08:32:25.000Z</time>
      </trkpt>
      <trkpt lat="45.74157" lon="4.60267">
        <ele>792.6</ele>
        <time>2020-06-14T08:32:26.000Z</time>
      </trkpt>
      <trkpt lat="45.74157" lon="4.60265">
        <ele>792.8</ele>
        <time>2020-06-14T08:32:27.000Z</time>
      </trkpt>
      <trkpt lat="45.74157" lon="4.60263">
        <ele>792.8</ele>
        <time>2020-06-14T08:32:28.000Z</time>
      </trkpt>
      <trkpt lat="45.74156" lon="4.60263">
        <ele>792.8</ele>
        <time>2020-06-14T08:32:29.000Z</time>
      </trkpt>
      <trkpt lat="45.74155" lon="4.60263">
        <ele>793</ele>
        <time>2020-06-14T08:32:30.000Z</time>
      </trkpt>
      <trkpt lat="45.74154" lon="4.60264">
        <ele>793.4</ele>
        <time>2020-06-14T08:32:31.000Z</time>
      </trkpt>
      <trkpt lat="45.74153" lon="4.60265">
        <ele>793.4</ele>
        <time>2020-06-14T08:32:32.000Z</time>
      </trkpt>
      <trkpt lat="45.74151" lon="4.60265">
        <ele>793.6</ele>
        <time>2020-06-14T08:32:33.000Z</time>
      </trkpt>
      <trkpt lat="45.74151" lon="4.60266">
        <ele>793.8</ele>
        <time>2020-06-14T08:32:34.000Z</time>
      </trkpt>
      <trkpt lat="45.7415" lon="4.60267">
        <ele>794.2</ele>
        <time>2020-06-14T08:32:35.000Z</time>
      </trkpt>
      <trkpt lat="45.74148" lon="4.60268">
        <ele>794.4</ele>
        <time>2020-06-14T08:32:36.000Z</time>
      </trkpt>
      <trkpt lat="45.74147" lon="4.60268">
        <ele>794.4</ele>
        <time>2020-06-14T08:32:37.000Z</time>
      </trkpt>
      <trkpt lat="45.74146" lon="4.60269">
        <ele>794.8</ele>
        <time>2020-06-14T08:32:38.000Z</time>
      </trkpt>
      <trkpt lat="45.74145" lon="4.6027">
        <ele>795</ele>
        <time>2020-06-14T08:32:39.000Z</time>
      </trkpt>
      <trkpt lat="45.74144" lon="4.6027">
        <ele>795.2</ele>
        <time>2020-06-14T08:32:40.000Z</time>
      </trkpt>
      <trkpt lat="45.74143" lon="4.60271">
        <ele>795.4</ele>
        <time>2020-06-14T08:32:41.000Z</time>
      </trkpt>
      <trkpt lat="45.74142" lon="4.60272">
        <ele>795.8</ele>
        <time>2020-06-14T08:32:42.000Z</time>
      </trkpt>
      <trkpt lat="45.74141" lon="4.60273">
        <ele>796</ele>
        <time>2020-06-14T08:32:43.000Z</time>
      </trkpt>
      <trkpt lat="45.7414" lon="4.60274">
        <ele>796.4</ele>
        <time>2020-06-14T08:32:44.000Z</time>
      </trkpt>
      <trkpt lat="45.7414" lon="4.60275">
        <ele>796.4</ele>
        <time>2020-06-14T08:32:45.000Z</time>
      </trkpt>
      <trkpt lat="45.74138" lon="4.60276">
        <ele>796.6</ele>
        <time>2020-06-14T08:32:46.000Z</time>
      </trkpt>
      <trkpt lat="45.74137" lon="4.60278">
        <ele>796.8</ele>
        <time>2020-06-14T08:32:47.000Z</time>
      </trkpt>
      <trkpt lat="45.74135" lon="4.60279">
        <ele>796.8</ele>
        <time>2020-06-14T08:32:48.000Z</time>
      </trkpt>
      <trkpt lat="45.74134" lon="4.6028">
        <ele>796.8</ele>
        <time>2020-06-14T08:32:49.000Z</time>
      </trkpt>
      <trkpt lat="45.74132" lon="4.60281">
        <ele>797</ele>
        <time>2020-06-14T08:32:50.000Z</time>
      </trkpt>
      <trkpt lat="45.74131" lon="4.60282">
        <ele>797.2</ele>
        <time>2020-06-14T08:32:51.000Z</time>
      </trkpt>
      <trkpt lat="45.7413" lon="4.60284">
        <ele>797.6</ele>
        <time>2020-06-14T08:32:52.000Z</time>
      </trkpt>
      <trkpt lat="45.74129" lon="4.60285">
        <ele>797.8</ele>
        <time>2020-06-14T08:32:53.000Z</time>
      </trkpt>
      <trkpt lat="45.74127" lon="4.60285">
        <ele>797.8</ele>
        <time>2020-06-14T08:32:54.000Z</time>
      </trkpt>
      <trkpt lat="45.74126" lon="4.60286">
        <ele>798</ele>
        <time>2020-06-14T08:32:55.000Z</time>
      </trkpt>
      <trkpt lat="45.74124" lon="4.60287">
        <ele>798.6</ele>
        <time>2020-06-14T08:32:56.000Z</time>
      </trkpt>
      <trkpt lat="45.74123" lon="4.60288">
        <ele>798.8</ele>
        <time>2020-06-14T08:32:57.000Z</time>
      </trkpt>
      <trkpt lat="45.74122" lon="4.6029">
        <ele>799</ele>
        <time>2020-06-14T08:32:58.000Z</time>
      </trkpt>
      <trkpt lat="45.74121" lon="4.60291">
        <ele>799.2</ele>
        <time>2020-06-14T08:32:59.000Z</time>
      </trkpt>
      <trkpt lat="45.7412" lon="4.60292">
        <ele>799.4</ele>
        <time>2020-06-14T08:33:00.000Z</time>
      </trkpt>
      <trkpt lat="45.74118" lon="4.60293">
        <ele>799.4</ele>
        <time>2020-06-14T08:33:01.000Z</time>
      </trkpt>
      <trkpt lat="45.74117" lon="4.60294">
        <ele>799.6</ele>
        <time>2020-06-14T08:33:02.000Z</time>
      </trkpt>
      <trkpt lat="45.74116" lon="4.60295">
        <ele>800</ele>
        <time>2020-06-14T08:33:03.000Z</time>
      </trkpt>
      <trkpt lat="45.74114" lon="4.60296">
        <ele>800</ele>
        <time>2020-06-14T08:33:04.000Z</time>
      </trkpt>
      <trkpt lat="45.74113" lon="4.60298">
        <ele>800.2</ele>
        <time>2020-06-14T08:33:05.000Z</time>
      </trkpt>
      <trkpt lat="45.74111" lon="4.603">
        <ele>800.2</ele>
        <time>2020-06-14T08:33:06.000Z</time>
      </trkpt>
      <trkpt lat="45.74108" lon="4.60302">
        <ele>800.4</ele>
        <time>2020-06-14T08:33:07.000Z</time>
      </trkpt>
      <trkpt lat="45.74107" lon="4.60304">
        <ele>800.4</ele>
        <time>2020-06-14T08:33:08.000Z</time>
      </trkpt>
      <trkpt lat="45.74105" lon="4.60306">
        <ele>800.6</ele>
        <time>2020-06-14T08:33:09.000Z</time>
      </trkpt>
      <trkpt lat="45.74103" lon="4.60307">
        <ele>800.8</ele>
        <time>2020-06-14T08:33:10.000Z</time>
      </trkpt>
      <trkpt lat="45.74101" lon="4.60309">
        <ele>800.8</ele>
        <time>2020-06-14T08:33:11.000Z</time>
      </trkpt>
      <trkpt lat="45.741" lon="4.60311">
        <ele>801</ele>
        <time>2020-06-14T08:33:12.000Z</time>
      </trkpt>
      <trkpt lat="45.74098" lon="4.60312">
        <ele>801.2</ele>
        <time>2020-06-14T08:33:13.000Z</time>
      </trkpt>
      <trkpt lat="45.74097" lon="4.60314">
        <ele>801.4</ele>
        <time>2020-06-14T08:33:14.000Z</time>
      </trkpt>
      <trkpt lat="45.74095" lon="4.60315">
        <ele>801.6</ele>
        <time>2020-06-14T08:33:15.000Z</time>
      </trkpt>
      <trkpt lat="45.74094" lon="4.60317">
        <ele>802</ele>
        <time>2020-06-14T08:33:16.000Z</time>
      </trkpt>
      <trkpt lat="45.74092" lon="4.60319">
        <ele>802.2</ele>
        <time>2020-06-14T08:33:17.000Z</time>
      </trkpt>
      <trkpt lat="45.7409" lon="4.60321">
        <ele>802.2</ele>
        <time>2020-06-14T08:33:18.000Z</time>
      </trkpt>
      <trkpt lat="45.74088" lon="4.60322">
        <ele>802.6</ele>
        <time>2020-06-14T08:33:19.000Z</time>
      </trkpt>
      <trkpt lat="45.74086" lon="4.60324">
        <ele>802.6</ele>
        <time>2020-06-14T08:33:20.000Z</time>
      </trkpt>
      <trkpt lat="45.74084" lon="4.60325">
        <ele>802.8</ele>
        <time>2020-06-14T08:33:21.000Z</time>
      </trkpt>
      <trkpt lat="45.74083" lon="4.60328">
        <ele>803.2</ele>
        <time>2020-06-14T08:33:22.000Z</time>
      </trkpt>
      <trkpt lat="45.7408" lon="4.6033">
        <ele>803.4</ele>
        <time>2020-06-14T08:33:23.000Z</time>
      </trkpt>
      <trkpt lat="45.74078" lon="4.60332">
        <ele>803.4</ele>
        <time>2020-06-14T08:33:24.000Z</time>
      </trkpt>
      <trkpt lat="45.74075" lon="4.60334">
        <ele>803.6</ele>
        <time>2020-06-14T08:33:25.000Z</time>
      </trkpt>
      <trkpt lat="45.74073" lon="4.60336">
        <ele>803.8</ele>
        <time>2020-06-14T08:33:26.000Z</time>
      </trkpt>
      <trkpt lat="45.7407" lon="4.60337">
        <ele>804</ele>
        <time>2020-06-14T08:33:27.000Z</time>
      </trkpt>
      <trkpt lat="45.74067" lon="4.60339">
        <ele>804</ele>
        <time>2020-06-14T08:33:28.000Z</time>
      </trkpt>
      <trkpt lat="45.74065" lon="4.6034">
        <ele>804.2</ele>
        <time>2020-06-14T08:33:29.000Z</time>
      </trkpt>
      <trkpt lat="45.74063" lon="4.60342">
        <ele>804.4</ele>
        <time>2020-06-14T08:33:30.000Z</time>
      </trkpt>
      <trkpt lat="45.74061" lon="4.60344">
        <ele>804.8</ele>
        <time>2020-06-14T08:33:31.000Z</time>
      </trkpt>
      <trkpt lat="45.74059" lon="4.60345">
        <ele>805</ele>
        <time>2020-06-14T08:33:32.000Z</time>
      </trkpt>
      <trkpt lat="45.74057" lon="4.60347">
        <ele>805.2</ele>
        <time>2020-06-14T08:33:33.000Z</time>
      </trkpt>
      <trkpt lat="45.74055" lon="4.60348">
        <ele>805.6</ele>
        <time>2020-06-14T08:33:34.000Z</time>
      </trkpt>
      <trkpt lat="45.74053" lon="4.60349">
        <ele>806.2</ele>
        <time>2020-06-14T08:33:35.000Z</time>
      </trkpt>
      <trkpt lat="45.74052" lon="4.60352">
        <ele>806.4</ele>
        <time>2020-06-14T08:33:36.000Z</time>
      </trkpt>
      <trkpt lat="45.74051" lon="4.60354">
        <ele>806.6</ele>
        <time>2020-06-14T08:33:37.000Z</time>
      </trkpt>
      <trkpt lat="45.74049" lon="4.60355">
        <ele>807</ele>
        <time>2020-06-14T08:33:38.000Z</time>
      </trkpt>
      <trkpt lat="45.74047" lon="4.60357">
        <ele>807</ele>
        <time>2020-06-14T08:33:39.000Z</time>
      </trkpt>
      <trkpt lat="45.74044" lon="4.60358">
        <ele>807.4</ele>
        <time>2020-06-14T08:33:40.000Z</time>
      </trkpt>
      <trkpt lat="45.74042" lon="4.60359">
        <ele>807.8</ele>
        <time>2020-06-14T08:33:41.000Z</time>
      </trkpt>
      <trkpt lat="45.7404" lon="4.60359">
        <ele>808.2</ele>
        <time>2020-06-14T08:33:42.000Z</time>
      </trkpt>
      <trkpt lat="45.74037" lon="4.6036">
        <ele>808.4</ele>
        <time>2020-06-14T08:33:43.000Z</time>
      </trkpt>
      <trkpt lat="45.74036" lon="4.6036">
        <ele>809.2</ele>
        <time>2020-06-14T08:33:44.000Z</time>
      </trkpt>
      <trkpt lat="45.74034" lon="4.60359">
        <ele>809.4</ele>
        <time>2020-06-14T08:33:45.000Z</time>
      </trkpt>
      <trkpt lat="45.74032" lon="4.60358">
        <ele>809.6</ele>
        <time>2020-06-14T08:33:46.000Z</time>
      </trkpt>
      <trkpt lat="45.7403" lon="4.60357">
        <ele>809.6</ele>
        <time>2020-06-14T08:33:47.000Z</time>
      </trkpt>
      <trkpt lat="45.74029" lon="4.60357">
        <ele>809.8</ele>
        <time>2020-06-14T08:33:48.000Z</time>
      </trkpt>
      <trkpt lat="45.74027" lon="4.60356">
        <ele>809.8</ele>
        <time>2020-06-14T08:33:49.000Z</time>
      </trkpt>
      <trkpt lat="45.74025" lon="4.60355">
        <ele>810.2</ele>
        <time>2020-06-14T08:33:50.000Z</time>
      </trkpt>
      <trkpt lat="45.74023" lon="4.60354">
        <ele>810.8</ele>
        <time>2020-06-14T08:33:51.000Z</time>
      </trkpt>
      <trkpt lat="45.74021" lon="4.60353">
        <ele>811</ele>
        <time>2020-06-14T08:33:52.000Z</time>
      </trkpt>
      <trkpt lat="45.74019" lon="4.60352">
        <ele>811.2</ele>
        <time>2020-06-14T08:33:53.000Z</time>
      </trkpt>
      <trkpt lat="45.74018" lon="4.6035">
        <ele>811.2</ele>
        <time>2020-06-14T08:33:54.000Z</time>
      </trkpt>
      <trkpt lat="45.74017" lon="4.60348">
        <ele>811.4</ele>
        <time>2020-06-14T08:33:55.000Z</time>
      </trkpt>
      <trkpt lat="45.74015" lon="4.60346">
        <ele>811.8</ele>
        <time>2020-06-14T08:33:56.000Z</time>
      </trkpt>
      <trkpt lat="45.74012" lon="4.60344">
        <ele>812</ele>
        <time>2020-06-14T08:33:57.000Z</time>
      </trkpt>
      <trkpt lat="45.7401" lon="4.60342">
        <ele>812.2</ele>
        <time>2020-06-14T08:33:58.000Z</time>
      </trkpt>
      <trkpt lat="45.74005" lon="4.60339">
        <ele>812.6</ele>
        <time>2020-06-14T08:34:00.000Z</time>
      </trkpt>
      <trkpt lat="45.74003" lon="4.60338">
        <ele>812.6</ele>
        <time>2020-06-14T08:34:01.000Z</time>
      </trkpt>
      <trkpt lat="45.73998" lon="4.60334">
        <ele>812.8</ele>
        <time>2020-06-14T08:34:03.000Z</time>
      </trkpt>
      <trkpt lat="45.73995" lon="4.60332">
        <ele>812.8</ele>
        <time>2020-06-14T08:34:04.000Z</time>
      </trkpt>
      <trkpt lat="45.73992" lon="4.6033">
        <ele>812.8</ele>
        <time>2020-06-14T08:34:05.000Z</time>
      </trkpt>
      <trkpt lat="45.73988" lon="4.60329">
        <ele>812.8</ele>
        <time>2020-06-14T08:34:06.000Z</time>
      </trkpt>
      <trkpt lat="45.7397" lon="4.6032">
        <ele>812.8</ele>
        <time>2020-06-14T08:34:12.000Z</time>
      </trkpt>
      <trkpt lat="45.73967" lon="4.60318">
        <ele>812.8</ele>
        <time>2020-06-14T08:34:13.000Z</time>
      </trkpt>
      <trkpt lat="45.7396" lon="4.60315">
        <ele>812.8</ele>
        <time>2020-06-14T08:34:15.000Z</time>
      </trkpt>
      <trkpt lat="45.73957" lon="4.60313">
        <ele>812.8</ele>
        <time>2020-06-14T08:34:16.000Z</time>
      </trkpt>
      <trkpt lat="45.73954" lon="4.60311">
        <ele>812.8</ele>
        <time>2020-06-14T08:34:17.000Z</time>
      </trkpt>
      <trkpt lat="45.73951" lon="4.60309">
        <ele>812.8</ele>
        <time>2020-06-14T08:34:18.000Z</time>
      </trkpt>
      <trkpt lat="45.73948" lon="4.60308">
        <ele>812.8</ele>
        <time>2020-06-14T08:34:19.000Z</time>
      </trkpt>
      <trkpt lat="45.73945" lon="4.60306">
        <ele>812.6</ele>
        <time>2020-06-14T08:34:20.000Z</time>
      </trkpt>
      <trkpt lat="45.73943" lon="4.60305">
        <ele>812.6</ele>
        <time>2020-06-14T08:34:21.000Z</time>
      </trkpt>
      <trkpt lat="45.73941" lon="4.60303">
        <ele>812.4</ele>
        <time>2020-06-14T08:34:22.000Z</time>
      </trkpt>
      <trkpt lat="45.73938" lon="4.60302">
        <ele>812.2</ele>
        <time>2020-06-14T08:34:23.000Z</time>
      </trkpt>
      <trkpt lat="45.73936" lon="4.60301">
        <ele>812.4</ele>
        <time>2020-06-14T08:34:24.000Z</time>
      </trkpt>
      <trkpt lat="45.73934" lon="4.603">
        <ele>812.2</ele>
        <time>2020-06-14T08:34:25.000Z</time>
      </trkpt>
      <trkpt lat="45.73931" lon="4.60299">
        <ele>812.2</ele>
        <time>2020-06-14T08:34:26.000Z</time>
      </trkpt>
      <trkpt lat="45.73927" lon="4.60296">
        <ele>812.2</ele>
        <time>2020-06-14T08:34:28.000Z</time>
      </trkpt>
      <trkpt lat="45.73925" lon="4.60295">
        <ele>812.2</ele>
        <time>2020-06-14T08:34:29.000Z</time>
      </trkpt>
      <trkpt lat="45.73923" lon="4.60294">
        <ele>812</ele>
        <time>2020-06-14T08:34:30.000Z</time>
      </trkpt>
      <trkpt lat="45.73918" lon="4.60292">
        <ele>812</ele>
        <time>2020-06-14T08:34:32.000Z</time>
      </trkpt>
      <trkpt lat="45.73916" lon="4.6029">
        <ele>812.2</ele>
        <time>2020-06-14T08:34:33.000Z</time>
      </trkpt>
      <trkpt lat="45.73914" lon="4.60288">
        <ele>812</ele>
        <time>2020-06-14T08:34:34.000Z</time>
      </trkpt>
      <trkpt lat="45.73911" lon="4.60286">
        <ele>812</ele>
        <time>2020-06-14T08:34:35.000Z</time>
      </trkpt>
      <trkpt lat="45.73906" lon="4.60282">
        <ele>811.8</ele>
        <time>2020-06-14T08:34:37.000Z</time>
      </trkpt>
      <trkpt lat="45.739" lon="4.60279">
        <ele>811.6</ele>
        <time>2020-06-14T08:34:39.000Z</time>
      </trkpt>
      <trkpt lat="45.73897" lon="4.60277">
        <ele>811.4</ele>
        <time>2020-06-14T08:34:40.000Z</time>
      </trkpt>
      <trkpt lat="45.73894" lon="4.60275">
        <ele>811.2</ele>
        <time>2020-06-14T08:34:41.000Z</time>
      </trkpt>
      <trkpt lat="45.73891" lon="4.60274">
        <ele>811.2</ele>
        <time>2020-06-14T08:34:42.000Z</time>
      </trkpt>
      <trkpt lat="45.73889" lon="4.60272">
        <ele>811</ele>
        <time>2020-06-14T08:34:43.000Z</time>
      </trkpt>
      <trkpt lat="45.73879" lon="4.60264">
        <ele>811</ele>
        <time>2020-06-14T08:34:46.000Z</time>
      </trkpt>
      <trkpt lat="45.73875" lon="4.60261">
        <ele>811</ele>
        <time>2020-06-14T08:34:47.000Z</time>
      </trkpt>
      <trkpt lat="45.73871" lon="4.60257">
        <ele>810.8</ele>
        <time>2020-06-14T08:34:48.000Z</time>
      </trkpt>
      <trkpt lat="45.73866" lon="4.60254">
        <ele>810.8</ele>
        <time>2020-06-14T08:34:49.000Z</time>
      </trkpt>
      <trkpt lat="45.73861" lon="4.60251">
        <ele>810.8</ele>
        <time>2020-06-14T08:34:50.000Z</time>
      </trkpt>
      <trkpt lat="45.73856" lon="4.60248">
        <ele>810.8</ele>
        <time>2020-06-14T08:34:51.000Z</time>
      </trkpt>
      <trkpt lat="45.7385" lon="4.60245">
        <ele>810.8</ele>
        <time>2020-06-14T08:34:52.000Z</time>
      </trkpt>
      <trkpt lat="45.73844" lon="4.60242">
        <ele>810.4</ele>
        <time>2020-06-14T08:34:53.000Z</time>
      </trkpt>
      <trkpt lat="45.73838" lon="4.6024">
        <ele>810.2</ele>
        <time>2020-06-14T08:34:54.000Z</time>
      </trkpt>
      <trkpt lat="45.73832" lon="4.60236">
        <ele>810</ele>
        <time>2020-06-14T08:34:55.000Z</time>
      </trkpt>
      <trkpt lat="45.73828" lon="4.60232">
        <ele>809.6</ele>
        <time>2020-06-14T08:34:56.000Z</time>
      </trkpt>
      <trkpt lat="45.73824" lon="4.60227">
        <ele>809.4</ele>
        <time>2020-06-14T08:34:57.000Z</time>
      </trkpt>
      <trkpt lat="45.7382" lon="4.60224">
        <ele>809</ele>
        <time>2020-06-14T08:34:58.000Z</time>
      </trkpt>
      <trkpt lat="45.73816" lon="4.60222">
        <ele>808.4</ele>
        <time>2020-06-14T08:34:59.000Z</time>
      </trkpt>
      <trkpt lat="45.73814" lon="4.6022">
        <ele>807.4</ele>
        <time>2020-06-14T08:35:00.000Z</time>
      </trkpt>
      <trkpt lat="45.73812" lon="4.60218">
        <ele>806.8</ele>
        <time>2020-06-14T08:35:01.000Z</time>
      </trkpt>
      <trkpt lat="45.73809" lon="4.60217">
        <ele>806.6</ele>
        <time>2020-06-14T08:35:02.000Z</time>
      </trkpt>
      <trkpt lat="45.73808" lon="4.60215">
        <ele>806.4</ele>
        <time>2020-06-14T08:35:03.000Z</time>
      </trkpt>
      <trkpt lat="45.73806" lon="4.60214">
        <ele>806.2</ele>
        <time>2020-06-14T08:35:04.000Z</time>
      </trkpt>
      <trkpt lat="45.73803" lon="4.60214">
        <ele>806</ele>
        <time>2020-06-14T08:35:05.000Z</time>
      </trkpt>
      <trkpt lat="45.73801" lon="4.60215">
        <ele>806</ele>
        <time>2020-06-14T08:35:06.000Z</time>
      </trkpt>
      <trkpt lat="45.73799" lon="4.60216">
        <ele>805.8</ele>
        <time>2020-06-14T08:35:07.000Z</time>
      </trkpt>
      <trkpt lat="45.73797" lon="4.60217">
        <ele>805.8</ele>
        <time>2020-06-14T08:35:08.000Z</time>
      </trkpt>
      <trkpt lat="45.73795" lon="4.60217">
        <ele>805.8</ele>
        <time>2020-06-14T08:35:09.000Z</time>
      </trkpt>
      <trkpt lat="45.73794" lon="4.60218">
        <ele>806</ele>
        <time>2020-06-14T08:35:10.000Z</time>
      </trkpt>
      <trkpt lat="45.73792" lon="4.60218">
        <ele>805.8</ele>
        <time>2020-06-14T08:35:11.000Z</time>
      </trkpt>
      <trkpt lat="45.7379" lon="4.6021">
        <ele>805.6</ele>
        <time>2020-06-14T08:37:05.000Z</time>
      </trkpt>
      <trkpt lat="45.73791" lon="4.60207">
        <ele>805.6</ele>
        <time>2020-06-14T08:37:06.000Z</time>
      </trkpt>
      <trkpt lat="45.7379" lon="4.60204">
        <ele>805.6</ele>
        <time>2020-06-14T08:37:07.000Z</time>
      </trkpt>
      <trkpt lat="45.73788" lon="4.60201">
        <ele>805.6</ele>
        <time>2020-06-14T08:37:08.000Z</time>
      </trkpt>
      <trkpt lat="45.73786" lon="4.60197">
        <ele>805.6</ele>
        <time>2020-06-14T08:37:09.000Z</time>
      </trkpt>
      <trkpt lat="45.73784" lon="4.60193">
        <ele>805.6</ele>
        <time>2020-06-14T08:37:10.000Z</time>
      </trkpt>
      <trkpt lat="45.73781" lon="4.60189">
        <ele>805.6</ele>
        <time>2020-06-14T08:37:11.000Z</time>
      </trkpt>
      <trkpt lat="45.73767" lon="4.60173">
        <ele>805.4</ele>
        <time>2020-06-14T08:37:15.000Z</time>
      </trkpt>
      <trkpt lat="45.73757" lon="4.60161">
        <ele>805.4</ele>
        <time>2020-06-14T08:37:18.000Z</time>
      </trkpt>
      <trkpt lat="45.73754" lon="4.60157">
        <ele>805.4</ele>
        <time>2020-06-14T08:37:19.000Z</time>
      </trkpt>
      <trkpt lat="45.7375" lon="4.60153">
        <ele>805.4</ele>
        <time>2020-06-14T08:37:20.000Z</time>
      </trkpt>
      <trkpt lat="45.73747" lon="4.60149">
        <ele>805.2</ele>
        <time>2020-06-14T08:37:21.000Z</time>
      </trkpt>
      <trkpt lat="45.73743" lon="4.60146">
        <ele>805.2</ele>
        <time>2020-06-14T08:37:22.000Z</time>
      </trkpt>
      <trkpt lat="45.7374" lon="4.60142">
        <ele>805.2</ele>
        <time>2020-06-14T08:37:23.000Z</time>
      </trkpt>
      <trkpt lat="45.73737" lon="4.60138">
        <ele>805.2</ele>
        <time>2020-06-14T08:37:24.000Z</time>
      </trkpt>
      <trkpt lat="45.73733" lon="4.60134">
        <ele>805.2</ele>
        <time>2020-06-14T08:37:25.000Z</time>
      </trkpt>
      <trkpt lat="45.7373" lon="4.6013">
        <ele>805.2</ele>
        <time>2020-06-14T08:37:26.000Z</time>
      </trkpt>
      <trkpt lat="45.73724" lon="4.60122">
        <ele>805.2</ele>
        <time>2020-06-14T08:37:28.000Z</time>
      </trkpt>
      <trkpt lat="45.73721" lon="4.60119">
        <ele>805</ele>
        <time>2020-06-14T08:37:29.000Z</time>
      </trkpt>
      <trkpt lat="45.73717" lon="4.60115">
        <ele>805.2</ele>
        <time>2020-06-14T08:37:30.000Z</time>
      </trkpt>
      <trkpt lat="45.73714" lon="4.60112">
        <ele>805.2</ele>
        <time>2020-06-14T08:37:31.000Z</time>
      </trkpt>
      <trkpt lat="45.73711" lon="4.60108">
        <ele>805.2</ele>
        <time>2020-06-14T08:37:32.000Z</time>
      </trkpt>
      <trkpt lat="45.73708" lon="4.60105">
        <ele>805.2</ele>
        <time>2020-06-14T08:37:33.000Z</time>
      </trkpt>
      <trkpt lat="45.73705" lon="4.60102">
        <ele>805.2</ele>
        <time>2020-06-14T08:37:34.000Z</time>
      </trkpt>
      <trkpt lat="45.73702" lon="4.60099">
        <ele>805.4</ele>
        <time>2020-06-14T08:37:35.000Z</time>
      </trkpt>
      <trkpt lat="45.73696" lon="4.60093">
        <ele>805.4</ele>
        <time>2020-06-14T08:37:37.000Z</time>
      </trkpt>
      <trkpt lat="45.73693" lon="4.6009">
        <ele>805.4</ele>
        <time>2020-06-14T08:37:38.000Z</time>
      </trkpt>
      <trkpt lat="45.7369" lon="4.60088">
        <ele>805.2</ele>
        <time>2020-06-14T08:37:39.000Z</time>
      </trkpt>
      <trkpt lat="45.73688" lon="4.60086">
        <ele>805.2</ele>
        <time>2020-06-14T08:37:40.000Z</time>
      </trkpt>
      <trkpt lat="45.73687" lon="4.60084">
        <ele>805.4</ele>
        <time>2020-06-14T08:37:41.000Z</time>
      </trkpt>
      <trkpt lat="45.73685" lon="4.60082">
        <ele>805.6</ele>
        <time>2020-06-14T08:37:42.000Z</time>
      </trkpt>
      <trkpt lat="45.73684" lon="4.6008">
        <ele>805.6</ele>
        <time>2020-06-14T08:37:43.000Z</time>
      </trkpt>
      <trkpt lat="45.73683" lon="4.60078">
        <ele>805.6</ele>
        <time>2020-06-14T08:37:44.000Z</time>
      </trkpt>
      <trkpt lat="45.73681" lon="4.60076">
        <ele>805.8</ele>
        <time>2020-06-14T08:37:45.000Z</time>
      </trkpt>
      <trkpt lat="45.7368" lon="4.60074">
        <ele>805.6</ele>
        <time>2020-06-14T08:37:46.000Z</time>
      </trkpt>
      <trkpt lat="45.73678" lon="4.60071">
        <ele>805.6</ele>
        <time>2020-06-14T08:37:47.000Z</time>
      </trkpt>
      <trkpt lat="45.73673" lon="4.60063">
        <ele>805.8</ele>
        <time>2020-06-14T08:37:49.000Z</time>
      </trkpt>
      <trkpt lat="45.7367" lon="4.60059">
        <ele>805.8</ele>
        <time>2020-06-14T08:37:50.000Z</time>
      </trkpt>
      <trkpt lat="45.73667" lon="4.60054">
        <ele>805.6</ele>
        <time>2020-06-14T08:37:51.000Z</time>
      </trkpt>
      <trkpt lat="45.73664" lon="4.6005">
        <ele>805.8</ele>
        <time>2020-06-14T08:37:52.000Z</time>
      </trkpt>
      <trkpt lat="45.73662" lon="4.60045">
        <ele>805.6</ele>
        <time>2020-06-14T08:37:53.000Z</time>
      </trkpt>
      <trkpt lat="45.73656" lon="4.60036">
        <ele>804.8</ele>
        <time>2020-06-14T08:37:55.000Z</time>
      </trkpt>
      <trkpt lat="45.73652" lon="4.60031">
        <ele>804.6</ele>
        <time>2020-06-14T08:37:56.000Z</time>
      </trkpt>
      <trkpt lat="45.73649" lon="4.60026">
        <ele>804.2</ele>
        <time>2020-06-14T08:37:57.000Z</time>
      </trkpt>
      <trkpt lat="45.73645" lon="4.60022">
        <ele>803.6</ele>
        <time>2020-06-14T08:37:58.000Z</time>
      </trkpt>
      <trkpt lat="45.73643" lon="4.60017">
        <ele>803.2</ele>
        <time>2020-06-14T08:37:59.000Z</time>
      </trkpt>
      <trkpt lat="45.73637" lon="4.60007">
        <ele>802.8</ele>
        <time>2020-06-14T08:38:01.000Z</time>
      </trkpt>
      <trkpt lat="45.73635" lon="4.60001">
        <ele>802.8</ele>
        <time>2020-06-14T08:38:02.000Z</time>
      </trkpt>
      <trkpt lat="45.73633" lon="4.59993">
        <ele>802.4</ele>
        <time>2020-06-14T08:38:03.000Z</time>
      </trkpt>
      <trkpt lat="45.7363" lon="4.59986">
        <ele>802.4</ele>
        <time>2020-06-14T08:38:04.000Z</time>
      </trkpt>
      <trkpt lat="45.73628" lon="4.5998">
        <ele>801.2</ele>
        <time>2020-06-14T08:38:05.000Z</time>
      </trkpt>
      <trkpt lat="45.73626" lon="4.59974">
        <ele>800.6</ele>
        <time>2020-06-14T08:38:06.000Z</time>
      </trkpt>
      <trkpt lat="45.73625" lon="4.59968">
        <ele>800</ele>
        <time>2020-06-14T08:38:07.000Z</time>
      </trkpt>
      <trkpt lat="45.73624" lon="4.59963">
        <ele>798.6</ele>
        <time>2020-06-14T08:38:08.000Z</time>
      </trkpt>
      <trkpt lat="45.73622" lon="4.59958">
        <ele>797.6</ele>
        <time>2020-06-14T08:38:09.000Z</time>
      </trkpt>
      <trkpt lat="45.73621" lon="4.59953">
        <ele>796.8</ele>
        <time>2020-06-14T08:38:10.000Z</time>
      </trkpt>
      <trkpt lat="45.7362" lon="4.59948">
        <ele>795.8</ele>
        <time>2020-06-14T08:38:11.000Z</time>
      </trkpt>
      <trkpt lat="45.73619" lon="4.59942">
        <ele>795</ele>
        <time>2020-06-14T08:38:12.000Z</time>
      </trkpt>
      <trkpt lat="45.73616" lon="4.59931">
        <ele>793.2</ele>
        <time>2020-06-14T08:38:14.000Z</time>
      </trkpt>
      <trkpt lat="45.73614" lon="4.59924">
        <ele>792.6</ele>
        <time>2020-06-14T08:38:15.000Z</time>
      </trkpt>
      <trkpt lat="45.73612" lon="4.59917">
        <ele>791.8</ele>
        <time>2020-06-14T08:38:16.000Z</time>
      </trkpt>
      <trkpt lat="45.73609" lon="4.5991">
        <ele>790.8</ele>
        <time>2020-06-14T08:38:17.000Z</time>
      </trkpt>
      <trkpt lat="45.73606" lon="4.59902">
        <ele>790</ele>
        <time>2020-06-14T08:38:18.000Z</time>
      </trkpt>
      <trkpt lat="45.73603" lon="4.59895">
        <ele>788.6</ele>
        <time>2020-06-14T08:38:19.000Z</time>
      </trkpt>
      <trkpt lat="45.73596" lon="4.59881">
        <ele>788</ele>
        <time>2020-06-14T08:38:21.000Z</time>
      </trkpt>
      <trkpt lat="45.73593" lon="4.59875">
        <ele>786.6</ele>
        <time>2020-06-14T08:38:22.000Z</time>
      </trkpt>
      <trkpt lat="45.73589" lon="4.59868">
        <ele>786</ele>
        <time>2020-06-14T08:38:23.000Z</time>
      </trkpt>
      <trkpt lat="45.73583" lon="4.59854">
        <ele>783.4</ele>
        <time>2020-06-14T08:38:25.000Z</time>
      </trkpt>
      <trkpt lat="45.73579" lon="4.59849">
        <ele>781.8</ele>
        <time>2020-06-14T08:38:26.000Z</time>
      </trkpt>
      <trkpt lat="45.73576" lon="4.59843">
        <ele>781</ele>
        <time>2020-06-14T08:38:27.000Z</time>
      </trkpt>
      <trkpt lat="45.73573" lon="4.59837">
        <ele>779.6</ele>
        <time>2020-06-14T08:38:28.000Z</time>
      </trkpt>
      <trkpt lat="45.73568" lon="4.59826">
        <ele>777.2</ele>
        <time>2020-06-14T08:38:30.000Z</time>
      </trkpt>
      <trkpt lat="45.73566" lon="4.5982">
        <ele>776.4</ele>
        <time>2020-06-14T08:38:31.000Z</time>
      </trkpt>
      <trkpt lat="45.73564" lon="4.59814">
        <ele>775.2</ele>
        <time>2020-06-14T08:38:32.000Z</time>
      </trkpt>
      <trkpt lat="45.73561" lon="4.59809">
        <ele>774.4</ele>
        <time>2020-06-14T08:38:33.000Z</time>
      </trkpt>
      <trkpt lat="45.73558" lon="4.59803">
        <ele>773.4</ele>
        <time>2020-06-14T08:38:34.000Z</time>
      </trkpt>
      <trkpt lat="45.73547" lon="4.59779">
        <ele>770.4</ele>
        <time>2020-06-14T08:38:37.000Z</time>
      </trkpt>
      <trkpt lat="45.73544" lon="4.59773">
        <ele>769.4</ele>
        <time>2020-06-14T08:38:38.000Z</time>
      </trkpt>
      <trkpt lat="45.73541" lon="4.59767">
        <ele>768.8</ele>
        <time>2020-06-14T08:38:39.000Z</time>
      </trkpt>
      <trkpt lat="45.73534" lon="4.59757">
        <ele>767.8</ele>
        <time>2020-06-14T08:38:41.000Z</time>
      </trkpt>
      <trkpt lat="45.7353" lon="4.5975">
        <ele>767</ele>
        <time>2020-06-14T08:38:42.000Z</time>
      </trkpt>
      <trkpt lat="45.73525" lon="4.59742">
        <ele>766.2</ele>
        <time>2020-06-14T08:38:43.000Z</time>
      </trkpt>
      <trkpt lat="45.73521" lon="4.59735">
        <ele>764.4</ele>
        <time>2020-06-14T08:38:44.000Z</time>
      </trkpt>
      <trkpt lat="45.73514" lon="4.59717">
        <ele>763</ele>
        <time>2020-06-14T08:38:46.000Z</time>
      </trkpt>
      <trkpt lat="45.73511" lon="4.59705">
        <ele>762.6</ele>
        <time>2020-06-14T08:38:47.000Z</time>
      </trkpt>
      <trkpt lat="45.73508" lon="4.59692">
        <ele>762.2</ele>
        <time>2020-06-14T08:38:48.000Z</time>
      </trkpt>
      <trkpt lat="45.73505" lon="4.59679">
        <ele>762</ele>
        <time>2020-06-14T08:38:49.000Z</time>
      </trkpt>
      <trkpt lat="45.73501" lon="4.59667">
        <ele>760.6</ele>
        <time>2020-06-14T08:38:50.000Z</time>
      </trkpt>
      <trkpt lat="45.73498" lon="4.59656">
        <ele>759.2</ele>
        <time>2020-06-14T08:38:51.000Z</time>
      </trkpt>
      <trkpt lat="45.73495" lon="4.59645">
        <ele>757.6</ele>
        <time>2020-06-14T08:38:52.000Z</time>
      </trkpt>
      <trkpt lat="45.73492" lon="4.59635">
        <ele>756.6</ele>
        <time>2020-06-14T08:38:53.000Z</time>
      </trkpt>
      <trkpt lat="45.7349" lon="4.59626">
        <ele>755.6</ele>
        <time>2020-06-14T08:38:54.000Z</time>
      </trkpt>
      <trkpt lat="45.73487" lon="4.59617">
        <ele>753.8</ele>
        <time>2020-06-14T08:38:55.000Z</time>
      </trkpt>
      <trkpt lat="45.73485" lon="4.59609">
        <ele>752</ele>
        <time>2020-06-14T08:38:56.000Z</time>
      </trkpt>
      <trkpt lat="45.73483" lon="4.59602">
        <ele>751.2</ele>
        <time>2020-06-14T08:38:57.000Z</time>
      </trkpt>
      <trkpt lat="45.73481" lon="4.59595">
        <ele>750.6</ele>
        <time>2020-06-14T08:38:58.000Z</time>
      </trkpt>
      <trkpt lat="45.73479" lon="4.59589">
        <ele>750.2</ele>
        <time>2020-06-14T08:38:59.000Z</time>
      </trkpt>
      <trkpt lat="45.73477" lon="4.59582">
        <ele>750</ele>
        <time>2020-06-14T08:39:00.000Z</time>
      </trkpt>
      <trkpt lat="45.7347" lon="4.59561">
        <ele>749.6</ele>
        <time>2020-06-14T08:39:03.000Z</time>
      </trkpt>
      <trkpt lat="45.73468" lon="4.59554">
        <ele>749.4</ele>
        <time>2020-06-14T08:39:04.000Z</time>
      </trkpt>
      <trkpt lat="45.73466" lon="4.59547">
        <ele>749.2</ele>
        <time>2020-06-14T08:39:05.000Z</time>
      </trkpt>
      <trkpt lat="45.73464" lon="4.59541">
        <ele>749.2</ele>
        <time>2020-06-14T08:39:06.000Z</time>
      </trkpt>
      <trkpt lat="45.73462" lon="4.59535">
        <ele>749.2</ele>
        <time>2020-06-14T08:39:07.000Z</time>
      </trkpt>
      <trkpt lat="45.73455" lon="4.59511">
        <ele>749.2</ele>
        <time>2020-06-14T08:39:11.000Z</time>
      </trkpt>
      <trkpt lat="45.73453" lon="4.59505">
        <ele>749.2</ele>
        <time>2020-06-14T08:39:12.000Z</time>
      </trkpt>
      <trkpt lat="45.73451" lon="4.595">
        <ele>749.4</ele>
        <time>2020-06-14T08:39:13.000Z</time>
      </trkpt>
      <trkpt lat="45.73449" lon="4.59494">
        <ele>749.4</ele>
        <time>2020-06-14T08:39:14.000Z</time>
      </trkpt>
      <trkpt lat="45.73446" lon="4.59489">
        <ele>749.4</ele>
        <time>2020-06-14T08:39:15.000Z</time>
      </trkpt>
      <trkpt lat="45.73444" lon="4.59483">
        <ele>749.2</ele>
        <time>2020-06-14T08:39:16.000Z</time>
      </trkpt>
      <trkpt lat="45.73442" lon="4.59477">
        <ele>749.4</ele>
        <time>2020-06-14T08:39:17.000Z</time>
      </trkpt>
      <trkpt lat="45.73438" lon="4.59466">
        <ele>749.6</ele>
        <time>2020-06-14T08:39:19.000Z</time>
      </trkpt>
      <trkpt lat="45.73435" lon="4.59461">
        <ele>749.4</ele>
        <time>2020-06-14T08:39:20.000Z</time>
      </trkpt>
      <trkpt lat="45.73433" lon="4.59456">
        <ele>749.4</ele>
        <time>2020-06-14T08:39:21.000Z</time>
      </trkpt>
      <trkpt lat="45.73431" lon="4.59451">
        <ele>749.6</ele>
        <time>2020-06-14T08:39:22.000Z</time>
      </trkpt>
      <trkpt lat="45.73428" lon="4.59445">
        <ele>749.6</ele>
        <time>2020-06-14T08:39:23.000Z</time>
      </trkpt>
      <trkpt lat="45.73423" lon="4.59435">
        <ele>749.6</ele>
        <time>2020-06-14T08:39:25.000Z</time>
      </trkpt>
      <trkpt lat="45.73421" lon="4.59429">
        <ele>749.8</ele>
        <time>2020-06-14T08:39:26.000Z</time>
      </trkpt>
      <trkpt lat="45.73413" lon="4.5941">
        <ele>749.6</ele>
        <time>2020-06-14T08:39:29.000Z</time>
      </trkpt>
      <trkpt lat="45.7341" lon="4.59403">
        <ele>749.6</ele>
        <time>2020-06-14T08:39:30.000Z</time>
      </trkpt>
      <trkpt lat="45.73406" lon="4.59397">
        <ele>749.6</ele>
        <time>2020-06-14T08:39:31.000Z</time>
      </trkpt>
      <trkpt lat="45.73401" lon="4.59391">
        <ele>749.6</ele>
        <time>2020-06-14T08:39:32.000Z</time>
      </trkpt>
      <trkpt lat="45.73395" lon="4.59386">
        <ele>749.4</ele>
        <time>2020-06-14T08:39:33.000Z</time>
      </trkpt>
      <trkpt lat="45.73388" lon="4.59383">
        <ele>749</ele>
        <time>2020-06-14T08:39:34.000Z</time>
      </trkpt>
      <trkpt lat="45.73381" lon="4.59383">
        <ele>748.8</ele>
        <time>2020-06-14T08:39:35.000Z</time>
      </trkpt>
      <trkpt lat="45.73373" lon="4.59384">
        <ele>748.8</ele>
        <time>2020-06-14T08:39:36.000Z</time>
      </trkpt>
      <trkpt lat="45.73366" lon="4.59386">
        <ele>748.2</ele>
        <time>2020-06-14T08:39:37.000Z</time>
      </trkpt>
      <trkpt lat="45.73361" lon="4.59391">
        <ele>747.8</ele>
        <time>2020-06-14T08:39:38.000Z</time>
      </trkpt>
      <trkpt lat="45.73356" lon="4.59396">
        <ele>747</ele>
        <time>2020-06-14T08:39:39.000Z</time>
      </trkpt>
      <trkpt lat="45.73353" lon="4.59402">
        <ele>746.8</ele>
        <time>2020-06-14T08:39:40.000Z</time>
      </trkpt>
      <trkpt lat="45.7335" lon="4.59408">
        <ele>746.8</ele>
        <time>2020-06-14T08:39:41.000Z</time>
      </trkpt>
      <trkpt lat="45.73346" lon="4.59413">
        <ele>746.4</ele>
        <time>2020-06-14T08:39:42.000Z</time>
      </trkpt>
      <trkpt lat="45.73343" lon="4.59418">
        <ele>745.8</ele>
        <time>2020-06-14T08:39:43.000Z</time>
      </trkpt>
      <trkpt lat="45.7334" lon="4.59422">
        <ele>745.4</ele>
        <time>2020-06-14T08:39:44.000Z</time>
      </trkpt>
      <trkpt lat="45.73337" lon="4.59427">
        <ele>745.4</ele>
        <time>2020-06-14T08:39:45.000Z</time>
      </trkpt>
      <trkpt lat="45.73334" lon="4.59432">
        <ele>745.4</ele>
        <time>2020-06-14T08:39:46.000Z</time>
      </trkpt>
      <trkpt lat="45.73332" lon="4.59436">
        <ele>745.2</ele>
        <time>2020-06-14T08:39:47.000Z</time>
      </trkpt>
      <trkpt lat="45.7333" lon="4.59441">
        <ele>745.2</ele>
        <time>2020-06-14T08:39:48.000Z</time>
      </trkpt>
      <trkpt lat="45.73327" lon="4.59446">
        <ele>745.2</ele>
        <time>2020-06-14T08:39:49.000Z</time>
      </trkpt>
      <trkpt lat="45.73324" lon="4.5945">
        <ele>745.2</ele>
        <time>2020-06-14T08:39:50.000Z</time>
      </trkpt>
      <trkpt lat="45.73321" lon="4.59453">
        <ele>745.2</ele>
        <time>2020-06-14T08:39:51.000Z</time>
      </trkpt>
      <trkpt lat="45.73318" lon="4.59457">
        <ele>745.2</ele>
        <time>2020-06-14T08:39:52.000Z</time>
      </trkpt>
      <trkpt lat="45.73315" lon="4.59462">
        <ele>745.2</ele>
        <time>2020-06-14T08:39:53.000Z</time>
      </trkpt>
      <trkpt lat="45.73313" lon="4.59467">
        <ele>745.2</ele>
        <time>2020-06-14T08:39:54.000Z</time>
      </trkpt>
      <trkpt lat="45.73311" lon="4.59473">
        <ele>745.6</ele>
        <time>2020-06-14T08:39:55.000Z</time>
      </trkpt>
      <trkpt lat="45.73309" lon="4.59478">
        <ele>746</ele>
        <time>2020-06-14T08:39:56.000Z</time>
      </trkpt>
      <trkpt lat="45.73309" lon="4.59483">
        <ele>746.4</ele>
        <time>2020-06-14T08:39:57.000Z</time>
      </trkpt>
      <trkpt lat="45.73308" lon="4.59488">
        <ele>746.8</ele>
        <time>2020-06-14T08:39:58.000Z</time>
      </trkpt>
      <trkpt lat="45.73307" lon="4.59492">
        <ele>746.8</ele>
        <time>2020-06-14T08:39:59.000Z</time>
      </trkpt>
      <trkpt lat="45.73306" lon="4.59496">
        <ele>747.2</ele>
        <time>2020-06-14T08:40:00.000Z</time>
      </trkpt>
      <trkpt lat="45.73304" lon="4.59499">
        <ele>747.2</ele>
        <time>2020-06-14T08:40:01.000Z</time>
      </trkpt>
      <trkpt lat="45.73303" lon="4.59503">
        <ele>747.2</ele>
        <time>2020-06-14T08:40:02.000Z</time>
      </trkpt>
      <trkpt lat="45.73301" lon="4.59507">
        <ele>747.4</ele>
        <time>2020-06-14T08:40:03.000Z</time>
      </trkpt>
      <trkpt lat="45.733" lon="4.5951">
        <ele>747.8</ele>
        <time>2020-06-14T08:40:04.000Z</time>
      </trkpt>
      <trkpt lat="45.73298" lon="4.59514">
        <ele>747.8</ele>
        <time>2020-06-14T08:40:05.000Z</time>
      </trkpt>
      <trkpt lat="45.73296" lon="4.59517">
        <ele>748.4</ele>
        <time>2020-06-14T08:40:06.000Z</time>
      </trkpt>
      <trkpt lat="45.73294" lon="4.59519">
        <ele>749.2</ele>
        <time>2020-06-14T08:40:07.000Z</time>
      </trkpt>
      <trkpt lat="45.73292" lon="4.59522">
        <ele>750.2</ele>
        <time>2020-06-14T08:40:08.000Z</time>
      </trkpt>
      <trkpt lat="45.7329" lon="4.59524">
        <ele>750.8</ele>
        <time>2020-06-14T08:40:09.000Z</time>
      </trkpt>
      <trkpt lat="45.73288" lon="4.59526">
        <ele>751.4</ele>
        <time>2020-06-14T08:40:10.000Z</time>
      </trkpt>
      <trkpt lat="45.73286" lon="4.59529">
        <ele>751.8</ele>
        <time>2020-06-14T08:40:11.000Z</time>
      </trkpt>
      <trkpt lat="45.73284" lon="4.59531">
        <ele>752</ele>
        <time>2020-06-14T08:40:12.000Z</time>
      </trkpt>
      <trkpt lat="45.73282" lon="4.59534">
        <ele>752.4</ele>
        <time>2020-06-14T08:40:13.000Z</time>
      </trkpt>
      <trkpt lat="45.7328" lon="4.59536">
        <ele>752.4</ele>
        <time>2020-06-14T08:40:14.000Z</time>
      </trkpt>
      <trkpt lat="45.73277" lon="4.59538">
        <ele>752.8</ele>
        <time>2020-06-14T08:40:15.000Z</time>
      </trkpt>
      <trkpt lat="45.73275" lon="4.5954">
        <ele>753</ele>
        <time>2020-06-14T08:40:16.000Z</time>
      </trkpt>
      <trkpt lat="45.73271" lon="4.59544">
        <ele>753.4</ele>
        <time>2020-06-14T08:40:18.000Z</time>
      </trkpt>
      <trkpt lat="45.73269" lon="4.59546">
        <ele>753.8</ele>
        <time>2020-06-14T08:40:19.000Z</time>
      </trkpt>
      <trkpt lat="45.73267" lon="4.59548">
        <ele>754.2</ele>
        <time>2020-06-14T08:40:20.000Z</time>
      </trkpt>
      <trkpt lat="45.73264" lon="4.5955">
        <ele>754.2</ele>
        <time>2020-06-14T08:40:21.000Z</time>
      </trkpt>
      <trkpt lat="45.73259" lon="4.59554">
        <ele>754.6</ele>
        <time>2020-06-14T08:40:23.000Z</time>
      </trkpt>
      <trkpt lat="45.73257" lon="4.59556">
        <ele>754.6</ele>
        <time>2020-06-14T08:40:24.000Z</time>
      </trkpt>
      <trkpt lat="45.73255" lon="4.59557">
        <ele>754.6</ele>
        <time>2020-06-14T08:40:25.000Z</time>
      </trkpt>
      <trkpt lat="45.73253" lon="4.59559">
        <ele>754.6</ele>
        <time>2020-06-14T08:40:26.000Z</time>
      </trkpt>
      <trkpt lat="45.7325" lon="4.59561">
        <ele>755</ele>
        <time>2020-06-14T08:40:27.000Z</time>
      </trkpt>
      <trkpt lat="45.73248" lon="4.59563">
        <ele>754.8</ele>
        <time>2020-06-14T08:40:28.000Z</time>
      </trkpt>
      <trkpt lat="45.73246" lon="4.59564">
        <ele>755</ele>
        <time>2020-06-14T08:40:29.000Z</time>
      </trkpt>
      <trkpt lat="45.73243" lon="4.59565">
        <ele>755</ele>
        <time>2020-06-14T08:40:30.000Z</time>
      </trkpt>
      <trkpt lat="45.73241" lon="4.59566">
        <ele>755</ele>
        <time>2020-06-14T08:40:31.000Z</time>
      </trkpt>
      <trkpt lat="45.73239" lon="4.59568">
        <ele>755.4</ele>
        <time>2020-06-14T08:40:32.000Z</time>
      </trkpt>
      <trkpt lat="45.73237" lon="4.59569">
        <ele>755.6</ele>
        <time>2020-06-14T08:40:33.000Z</time>
      </trkpt>
      <trkpt lat="45.73234" lon="4.59569">
        <ele>755.6</ele>
        <time>2020-06-14T08:40:34.000Z</time>
      </trkpt>
      <trkpt lat="45.73232" lon="4.59569">
        <ele>755.8</ele>
        <time>2020-06-14T08:40:35.000Z</time>
      </trkpt>
      <trkpt lat="45.73229" lon="4.59569">
        <ele>756</ele>
        <time>2020-06-14T08:40:36.000Z</time>
      </trkpt>
      <trkpt lat="45.73227" lon="4.59569">
        <ele>756.4</ele>
        <time>2020-06-14T08:40:37.000Z</time>
      </trkpt>
      <trkpt lat="45.73224" lon="4.59569">
        <ele>756.4</ele>
        <time>2020-06-14T08:40:38.000Z</time>
      </trkpt>
      <trkpt lat="45.73222" lon="4.59569">
        <ele>756.6</ele>
        <time>2020-06-14T08:40:39.000Z</time>
      </trkpt>
      <trkpt lat="45.7322" lon="4.59569">
        <ele>756.8</ele>
        <time>2020-06-14T08:40:40.000Z</time>
      </trkpt>
      <trkpt lat="45.73215" lon="4.59568">
        <ele>756.8</ele>
        <time>2020-06-14T08:40:42.000Z</time>
      </trkpt>
      <trkpt lat="45.73209" lon="4.59566">
        <ele>757</ele>
        <time>2020-06-14T08:40:44.000Z</time>
      </trkpt>
      <trkpt lat="45.73204" lon="4.59564">
        <ele>757.2</ele>
        <time>2020-06-14T08:40:46.000Z</time>
      </trkpt>
      <trkpt lat="45.73201" lon="4.59562">
        <ele>757.2</ele>
        <time>2020-06-14T08:40:47.000Z</time>
      </trkpt>
      <trkpt lat="45.73191" lon="4.59558">
        <ele>757.8</ele>
        <time>2020-06-14T08:40:51.000Z</time>
      </trkpt>
      <trkpt lat="45.73188" lon="4.59556">
        <ele>757.6</ele>
        <time>2020-06-14T08:40:52.000Z</time>
      </trkpt>
      <trkpt lat="45.73186" lon="4.59555">
        <ele>757.8</ele>
        <time>2020-06-14T08:40:53.000Z</time>
      </trkpt>
      <trkpt lat="45.73183" lon="4.59553">
        <ele>757.8</ele>
        <time>2020-06-14T08:40:54.000Z</time>
      </trkpt>
      <trkpt lat="45.73181" lon="4.59552">
        <ele>758</ele>
        <time>2020-06-14T08:40:55.000Z</time>
      </trkpt>
      <trkpt lat="45.73178" lon="4.59551">
        <ele>758</ele>
        <time>2020-06-14T08:40:56.000Z</time>
      </trkpt>
      <trkpt lat="45.73173" lon="4.59548">
        <ele>758</ele>
        <time>2020-06-14T08:40:58.000Z</time>
      </trkpt>
      <trkpt lat="45.73171" lon="4.59546">
        <ele>758.2</ele>
        <time>2020-06-14T08:40:59.000Z</time>
      </trkpt>
      <trkpt lat="45.73167" lon="4.59542">
        <ele>758.2</ele>
        <time>2020-06-14T08:41:01.000Z</time>
      </trkpt>
      <trkpt lat="45.73165" lon="4.59541">
        <ele>758.2</ele>
        <time>2020-06-14T08:41:02.000Z</time>
      </trkpt>
      <trkpt lat="45.73163" lon="4.59539">
        <ele>758.4</ele>
        <time>2020-06-14T08:41:03.000Z</time>
      </trkpt>
      <trkpt lat="45.73161" lon="4.59537">
        <ele>758.4</ele>
        <time>2020-06-14T08:41:04.000Z</time>
      </trkpt>
      <trkpt lat="45.73158" lon="4.59536">
        <ele>758.4</ele>
        <time>2020-06-14T08:41:05.000Z</time>
      </trkpt>
      <trkpt lat="45.73155" lon="4.59534">
        <ele>758.4</ele>
        <time>2020-06-14T08:41:06.000Z</time>
      </trkpt>
      <trkpt lat="45.73153" lon="4.59532">
        <ele>758.6</ele>
        <time>2020-06-14T08:41:07.000Z</time>
      </trkpt>
      <trkpt lat="45.7315" lon="4.5953">
        <ele>758.4</ele>
        <time>2020-06-14T08:41:08.000Z</time>
      </trkpt>
      <trkpt lat="45.73147" lon="4.59527">
        <ele>758.6</ele>
        <time>2020-06-14T08:41:09.000Z</time>
      </trkpt>
      <trkpt lat="45.73144" lon="4.59525">
        <ele>758.6</ele>
        <time>2020-06-14T08:41:10.000Z</time>
      </trkpt>
      <trkpt lat="45.73141" lon="4.59522">
        <ele>758.6</ele>
        <time>2020-06-14T08:41:11.000Z</time>
      </trkpt>
      <trkpt lat="45.73139" lon="4.5952">
        <ele>758.6</ele>
        <time>2020-06-14T08:41:12.000Z</time>
      </trkpt>
      <trkpt lat="45.73136" lon="4.59518">
        <ele>758.8</ele>
        <time>2020-06-14T08:41:13.000Z</time>
      </trkpt>
      <trkpt lat="45.73133" lon="4.59516">
        <ele>758.8</ele>
        <time>2020-06-14T08:41:14.000Z</time>
      </trkpt>
      <trkpt lat="45.73131" lon="4.59514">
        <ele>758.8</ele>
        <time>2020-06-14T08:41:15.000Z</time>
      </trkpt>
      <trkpt lat="45.73128" lon="4.59513">
        <ele>759</ele>
        <time>2020-06-14T08:41:16.000Z</time>
      </trkpt>
      <trkpt lat="45.73125" lon="4.59511">
        <ele>759</ele>
        <time>2020-06-14T08:41:17.000Z</time>
      </trkpt>
      <trkpt lat="45.73121" lon="4.59509">
        <ele>759.2</ele>
        <time>2020-06-14T08:41:18.000Z</time>
      </trkpt>
      <trkpt lat="45.73118" lon="4.59507">
        <ele>759.2</ele>
        <time>2020-06-14T08:41:19.000Z</time>
      </trkpt>
      <trkpt lat="45.73105" lon="4.59498">
        <ele>759.8</ele>
        <time>2020-06-14T08:41:23.000Z</time>
      </trkpt>
      <trkpt lat="45.73101" lon="4.59497">
        <ele>759.8</ele>
        <time>2020-06-14T08:41:24.000Z</time>
      </trkpt>
      <trkpt lat="45.73097" lon="4.59497">
        <ele>760</ele>
        <time>2020-06-14T08:41:25.000Z</time>
      </trkpt>
      <trkpt lat="45.73094" lon="4.59497">
        <ele>760.2</ele>
        <time>2020-06-14T08:41:26.000Z</time>
      </trkpt>
      <trkpt lat="45.73091" lon="4.59497">
        <ele>760.2</ele>
        <time>2020-06-14T08:41:27.000Z</time>
      </trkpt>
      <trkpt lat="45.73088" lon="4.59498">
        <ele>760.2</ele>
        <time>2020-06-14T08:41:28.000Z</time>
      </trkpt>
      <trkpt lat="45.73086" lon="4.59499">
        <ele>760.4</ele>
        <time>2020-06-14T08:41:29.000Z</time>
      </trkpt>
      <trkpt lat="45.73084" lon="4.59499">
        <ele>760.4</ele>
        <time>2020-06-14T08:41:30.000Z</time>
      </trkpt>
      <trkpt lat="45.73081" lon="4.59499">
        <ele>760.4</ele>
        <time>2020-06-14T08:41:31.000Z</time>
      </trkpt>
      <trkpt lat="45.73078" lon="4.595">
        <ele>760.2</ele>
        <time>2020-06-14T08:41:32.000Z</time>
      </trkpt>
      <trkpt lat="45.73076" lon="4.595">
        <ele>760.4</ele>
        <time>2020-06-14T08:41:33.000Z</time>
      </trkpt>
      <trkpt lat="45.73073" lon="4.595">
        <ele>760.8</ele>
        <time>2020-06-14T08:41:34.000Z</time>
      </trkpt>
      <trkpt lat="45.73071" lon="4.59501">
        <ele>761.4</ele>
        <time>2020-06-14T08:41:35.000Z</time>
      </trkpt>
      <trkpt lat="45.73069" lon="4.59501">
        <ele>761.8</ele>
        <time>2020-06-14T08:41:36.000Z</time>
      </trkpt>
      <trkpt lat="45.73067" lon="4.59501">
        <ele>762.2</ele>
        <time>2020-06-14T08:41:37.000Z</time>
      </trkpt>
      <trkpt lat="45.73065" lon="4.59501">
        <ele>762.4</ele>
        <time>2020-06-14T08:41:38.000Z</time>
      </trkpt>
      <trkpt lat="45.73063" lon="4.59502">
        <ele>762.8</ele>
        <time>2020-06-14T08:41:39.000Z</time>
      </trkpt>
      <trkpt lat="45.7306" lon="4.59502">
        <ele>763.6</ele>
        <time>2020-06-14T08:41:40.000Z</time>
      </trkpt>
      <trkpt lat="45.73058" lon="4.59502">
        <ele>764</ele>
        <time>2020-06-14T08:41:41.000Z</time>
      </trkpt>
      <trkpt lat="45.73056" lon="4.59502">
        <ele>764.6</ele>
        <time>2020-06-14T08:41:42.000Z</time>
      </trkpt>
      <trkpt lat="45.73053" lon="4.59502">
        <ele>764.6</ele>
        <time>2020-06-14T08:41:43.000Z</time>
      </trkpt>
      <trkpt lat="45.73052" lon="4.59502">
        <ele>764.8</ele>
        <time>2020-06-14T08:41:44.000Z</time>
      </trkpt>
      <trkpt lat="45.7305" lon="4.59502">
        <ele>765.4</ele>
        <time>2020-06-14T08:41:45.000Z</time>
      </trkpt>
      <trkpt lat="45.73048" lon="4.59501">
        <ele>765.8</ele>
        <time>2020-06-14T08:41:46.000Z</time>
      </trkpt>
      <trkpt lat="45.73047" lon="4.59501">
        <ele>766.4</ele>
        <time>2020-06-14T08:41:47.000Z</time>
      </trkpt>
      <trkpt lat="45.73046" lon="4.595">
        <ele>766.6</ele>
        <time>2020-06-14T08:41:48.000Z</time>
      </trkpt>
      <trkpt lat="45.73044" lon="4.59499">
        <ele>767</ele>
        <time>2020-06-14T08:41:49.000Z</time>
      </trkpt>
      <trkpt lat="45.73043" lon="4.59499">
        <ele>767.4</ele>
        <time>2020-06-14T08:41:50.000Z</time>
      </trkpt>
      <trkpt lat="45.73041" lon="4.59498">
        <ele>768</ele>
        <time>2020-06-14T08:41:51.000Z</time>
      </trkpt>
      <trkpt lat="45.7304" lon="4.59497">
        <ele>768.4</ele>
        <time>2020-06-14T08:41:52.000Z</time>
      </trkpt>
      <trkpt lat="45.73039" lon="4.59496">
        <ele>768.6</ele>
        <time>2020-06-14T08:41:53.000Z</time>
      </trkpt>
      <trkpt lat="45.73038" lon="4.59496">
        <ele>768.8</ele>
        <time>2020-06-14T08:41:54.000Z</time>
      </trkpt>
      <trkpt lat="45.73037" lon="4.59495">
        <ele>769.2</ele>
        <time>2020-06-14T08:41:55.000Z</time>
      </trkpt>
      <trkpt lat="45.73036" lon="4.59494">
        <ele>769.4</ele>
        <time>2020-06-14T08:41:56.000Z</time>
      </trkpt>
      <trkpt lat="45.73035" lon="4.59494">
        <ele>769.6</ele>
        <time>2020-06-14T08:41:57.000Z</time>
      </trkpt>
      <trkpt lat="45.73034" lon="4.59493">
        <ele>769.8</ele>
        <time>2020-06-14T08:41:58.000Z</time>
      </trkpt>
      <trkpt lat="45.73033" lon="4.59493">
        <ele>769.8</ele>
        <time>2020-06-14T08:41:59.000Z</time>
      </trkpt>
      <trkpt lat="45.73032" lon="4.59492">
        <ele>770.2</ele>
        <time>2020-06-14T08:42:00.000Z</time>
      </trkpt>
      <trkpt lat="45.73031" lon="4.59492">
        <ele>770.4</ele>
        <time>2020-06-14T08:42:01.000Z</time>
      </trkpt>
      <trkpt lat="45.7303" lon="4.59492">
        <ele>770.6</ele>
        <time>2020-06-14T08:42:02.000Z</time>
      </trkpt>
      <trkpt lat="45.73029" lon="4.59491">
        <ele>770.6</ele>
        <time>2020-06-14T08:42:03.000Z</time>
      </trkpt>
      <trkpt lat="45.73028" lon="4.59491">
        <ele>770.8</ele>
        <time>2020-06-14T08:42:04.000Z</time>
      </trkpt>
      <trkpt lat="45.73027" lon="4.5949">
        <ele>771</ele>
        <time>2020-06-14T08:42:05.000Z</time>
      </trkpt>
      <trkpt lat="45.73025" lon="4.5949">
        <ele>770.8</ele>
        <time>2020-06-14T08:42:06.000Z</time>
      </trkpt>
      <trkpt lat="45.73024" lon="4.5949">
        <ele>771</ele>
        <time>2020-06-14T08:42:07.000Z</time>
      </trkpt>
      <trkpt lat="45.73022" lon="4.59489">
        <ele>771</ele>
        <time>2020-06-14T08:42:08.000Z</time>
      </trkpt>
      <trkpt lat="45.73021" lon="4.59488">
        <ele>771</ele>
        <time>2020-06-14T08:42:09.000Z</time>
      </trkpt>
      <trkpt lat="45.73019" lon="4.59487">
        <ele>771.2</ele>
        <time>2020-06-14T08:42:10.000Z</time>
      </trkpt>
      <trkpt lat="45.73018" lon="4.59486">
        <ele>771.4</ele>
        <time>2020-06-14T08:42:11.000Z</time>
      </trkpt>
      <trkpt lat="45.73016" lon="4.59486">
        <ele>771.6</ele>
        <time>2020-06-14T08:42:12.000Z</time>
      </trkpt>
      <trkpt lat="45.73015" lon="4.59485">
        <ele>772</ele>
        <time>2020-06-14T08:42:13.000Z</time>
      </trkpt>
      <trkpt lat="45.73014" lon="4.59484">
        <ele>772.2</ele>
        <time>2020-06-14T08:42:14.000Z</time>
      </trkpt>
      <trkpt lat="45.73013" lon="4.59483">
        <ele>772.6</ele>
        <time>2020-06-14T08:42:15.000Z</time>
      </trkpt>
      <trkpt lat="45.73011" lon="4.59483">
        <ele>772.6</ele>
        <time>2020-06-14T08:42:16.000Z</time>
      </trkpt>
      <trkpt lat="45.7301" lon="4.59482">
        <ele>773</ele>
        <time>2020-06-14T08:42:17.000Z</time>
      </trkpt>
      <trkpt lat="45.73009" lon="4.59481">
        <ele>773.2</ele>
        <time>2020-06-14T08:42:18.000Z</time>
      </trkpt>
      <trkpt lat="45.73007" lon="4.59481">
        <ele>773.4</ele>
        <time>2020-06-14T08:42:19.000Z</time>
      </trkpt>
      <trkpt lat="45.73006" lon="4.5948">
        <ele>773.6</ele>
        <time>2020-06-14T08:42:20.000Z</time>
      </trkpt>
      <trkpt lat="45.73005" lon="4.5948">
        <ele>773.8</ele>
        <time>2020-06-14T08:42:21.000Z</time>
      </trkpt>
      <trkpt lat="45.73003" lon="4.59479">
        <ele>774</ele>
        <time>2020-06-14T08:42:22.000Z</time>
      </trkpt>
      <trkpt lat="45.73002" lon="4.59479">
        <ele>774.2</ele>
        <time>2020-06-14T08:42:23.000Z</time>
      </trkpt>
      <trkpt lat="45.73" lon="4.59479">
        <ele>774.2</ele>
        <time>2020-06-14T08:42:24.000Z</time>
      </trkpt>
      <trkpt lat="45.72998" lon="4.59478">
        <ele>774.4</ele>
        <time>2020-06-14T08:42:25.000Z</time>
      </trkpt>
      <trkpt lat="45.72997" lon="4.59477">
        <ele>774.8</ele>
        <time>2020-06-14T08:42:26.000Z</time>
      </trkpt>
      <trkpt lat="45.72995" lon="4.59477">
        <ele>775</ele>
        <time>2020-06-14T08:42:27.000Z</time>
      </trkpt>
      <trkpt lat="45.72993" lon="4.59477">
        <ele>775.2</ele>
        <time>2020-06-14T08:42:28.000Z</time>
      </trkpt>
      <trkpt lat="45.72992" lon="4.59476">
        <ele>775.4</ele>
        <time>2020-06-14T08:42:29.000Z</time>
      </trkpt>
      <trkpt lat="45.72991" lon="4.59476">
        <ele>775.6</ele>
        <time>2020-06-14T08:42:30.000Z</time>
      </trkpt>
      <trkpt lat="45.72988" lon="4.59475">
        <ele>775.8</ele>
        <time>2020-06-14T08:42:31.000Z</time>
      </trkpt>
      <trkpt lat="45.72986" lon="4.59474">
        <ele>776.2</ele>
        <time>2020-06-14T08:42:32.000Z</time>
      </trkpt>
      <trkpt lat="45.72984" lon="4.59473">
        <ele>776.6</ele>
        <time>2020-06-14T08:42:33.000Z</time>
      </trkpt>
      <trkpt lat="45.72982" lon="4.59472">
        <ele>777</ele>
        <time>2020-06-14T08:42:34.000Z</time>
      </trkpt>
      <trkpt lat="45.72981" lon="4.59471">
        <ele>777</ele>
        <time>2020-06-14T08:42:35.000Z</time>
      </trkpt>
      <trkpt lat="45.7298" lon="4.59469">
        <ele>777.4</ele>
        <time>2020-06-14T08:42:36.000Z</time>
      </trkpt>
      <trkpt lat="45.72979" lon="4.59468">
        <ele>777.8</ele>
        <time>2020-06-14T08:42:37.000Z</time>
      </trkpt>
      <trkpt lat="45.72978" lon="4.59467">
        <ele>778.2</ele>
        <time>2020-06-14T08:42:38.000Z</time>
      </trkpt>
      <trkpt lat="45.72976" lon="4.59466">
        <ele>778.4</ele>
        <time>2020-06-14T08:42:39.000Z</time>
      </trkpt>
      <trkpt lat="45.72975" lon="4.59466">
        <ele>778.4</ele>
        <time>2020-06-14T08:42:40.000Z</time>
      </trkpt>
      <trkpt lat="45.72973" lon="4.59465">
        <ele>778.8</ele>
        <time>2020-06-14T08:42:41.000Z</time>
      </trkpt>
      <trkpt lat="45.72972" lon="4.59464">
        <ele>778.8</ele>
        <time>2020-06-14T08:42:42.000Z</time>
      </trkpt>
      <trkpt lat="45.72971" lon="4.59464">
        <ele>779</ele>
        <time>2020-06-14T08:42:43.000Z</time>
      </trkpt>
      <trkpt lat="45.7297" lon="4.59463">
        <ele>779</ele>
        <time>2020-06-14T08:42:44.000Z</time>
      </trkpt>
      <trkpt lat="45.72969" lon="4.59463">
        <ele>779.2</ele>
        <time>2020-06-14T08:42:45.000Z</time>
      </trkpt>
      <trkpt lat="45.72967" lon="4.59462">
        <ele>779.4</ele>
        <time>2020-06-14T08:42:46.000Z</time>
      </trkpt>
      <trkpt lat="45.72966" lon="4.59462">
        <ele>779.4</ele>
        <time>2020-06-14T08:42:47.000Z</time>
      </trkpt>
      <trkpt lat="45.72964" lon="4.59461">
        <ele>779.6</ele>
        <time>2020-06-14T08:42:48.000Z</time>
      </trkpt>
      <trkpt lat="45.72963" lon="4.59461">
        <ele>779.4</ele>
        <time>2020-06-14T08:42:49.000Z</time>
      </trkpt>
      <trkpt lat="45.72962" lon="4.5946">
        <ele>779.6</ele>
        <time>2020-06-14T08:42:50.000Z</time>
      </trkpt>
      <trkpt lat="45.72961" lon="4.5946">
        <ele>779.8</ele>
        <time>2020-06-14T08:42:51.000Z</time>
      </trkpt>
      <trkpt lat="45.72959" lon="4.59459">
        <ele>780</ele>
        <time>2020-06-14T08:42:52.000Z</time>
      </trkpt>
      <trkpt lat="45.72958" lon="4.59459">
        <ele>780</ele>
        <time>2020-06-14T08:42:53.000Z</time>
      </trkpt>
      <trkpt lat="45.72957" lon="4.59459">
        <ele>780.4</ele>
        <time>2020-06-14T08:42:54.000Z</time>
      </trkpt>
      <trkpt lat="45.72956" lon="4.59458">
        <ele>780.6</ele>
        <time>2020-06-14T08:42:55.000Z</time>
      </trkpt>
      <trkpt lat="45.72955" lon="4.59458">
        <ele>780.8</ele>
        <time>2020-06-14T08:42:56.000Z</time>
      </trkpt>
      <trkpt lat="45.72954" lon="4.59457">
        <ele>780.8</ele>
        <time>2020-06-14T08:42:57.000Z</time>
      </trkpt>
      <trkpt lat="45.72952" lon="4.59456">
        <ele>781.2</ele>
        <time>2020-06-14T08:42:58.000Z</time>
      </trkpt>
      <trkpt lat="45.7295" lon="4.59456">
        <ele>781.2</ele>
        <time>2020-06-14T08:42:59.000Z</time>
      </trkpt>
      <trkpt lat="45.72948" lon="4.59455">
        <ele>781.6</ele>
        <time>2020-06-14T08:43:00.000Z</time>
      </trkpt>
      <trkpt lat="45.72946" lon="4.59454">
        <ele>782.2</ele>
        <time>2020-06-14T08:43:01.000Z</time>
      </trkpt>
      <trkpt lat="45.72944" lon="4.59453">
        <ele>782.2</ele>
        <time>2020-06-14T08:43:02.000Z</time>
      </trkpt>
      <trkpt lat="45.72943" lon="4.59452">
        <ele>782.4</ele>
        <time>2020-06-14T08:43:03.000Z</time>
      </trkpt>
      <trkpt lat="45.72941" lon="4.59451">
        <ele>782.4</ele>
        <time>2020-06-14T08:43:04.000Z</time>
      </trkpt>
      <trkpt lat="45.72939" lon="4.5945">
        <ele>782.6</ele>
        <time>2020-06-14T08:43:05.000Z</time>
      </trkpt>
      <trkpt lat="45.72937" lon="4.59449">
        <ele>782.6</ele>
        <time>2020-06-14T08:43:06.000Z</time>
      </trkpt>
      <trkpt lat="45.72935" lon="4.59449">
        <ele>782.8</ele>
        <time>2020-06-14T08:43:07.000Z</time>
      </trkpt>
      <trkpt lat="45.72933" lon="4.59448">
        <ele>782.8</ele>
        <time>2020-06-14T08:43:08.000Z</time>
      </trkpt>
      <trkpt lat="45.72931" lon="4.59448">
        <ele>783</ele>
        <time>2020-06-14T08:43:09.000Z</time>
      </trkpt>
      <trkpt lat="45.72929" lon="4.59447">
        <ele>783.2</ele>
        <time>2020-06-14T08:43:10.000Z</time>
      </trkpt>
      <trkpt lat="45.72928" lon="4.59446">
        <ele>783.4</ele>
        <time>2020-06-14T08:43:11.000Z</time>
      </trkpt>
      <trkpt lat="45.72926" lon="4.59445">
        <ele>783.4</ele>
        <time>2020-06-14T08:43:12.000Z</time>
      </trkpt>
      <trkpt lat="45.72925" lon="4.59444">
        <ele>783.6</ele>
        <time>2020-06-14T08:43:13.000Z</time>
      </trkpt>
      <trkpt lat="45.72923" lon="4.59443">
        <ele>783.8</ele>
        <time>2020-06-14T08:43:14.000Z</time>
      </trkpt>
      <trkpt lat="45.72922" lon="4.59442">
        <ele>783.8</ele>
        <time>2020-06-14T08:43:15.000Z</time>
      </trkpt>
      <trkpt lat="45.72921" lon="4.59441">
        <ele>783.8</ele>
        <time>2020-06-14T08:43:16.000Z</time>
      </trkpt>
      <trkpt lat="45.7292" lon="4.59439">
        <ele>784</ele>
        <time>2020-06-14T08:43:17.000Z</time>
      </trkpt>
      <trkpt lat="45.7292" lon="4.59437">
        <ele>784.2</ele>
        <time>2020-06-14T08:43:18.000Z</time>
      </trkpt>
      <trkpt lat="45.72919" lon="4.59436">
        <ele>784.2</ele>
        <time>2020-06-14T08:43:19.000Z</time>
      </trkpt>
      <trkpt lat="45.72907" lon="4.59428">
        <ele>786.4</ele>
        <time>2020-06-14T08:45:01.000Z</time>
      </trkpt>
      <trkpt lat="45.72905" lon="4.59426">
        <ele>786.4</ele>
        <time>2020-06-14T08:45:02.000Z</time>
      </trkpt>
      <trkpt lat="45.72904" lon="4.59425">
        <ele>786.4</ele>
        <time>2020-06-14T08:45:03.000Z</time>
      </trkpt>
      <trkpt lat="45.72904" lon="4.59424">
        <ele>786.6</ele>
        <time>2020-06-14T08:45:04.000Z</time>
      </trkpt>
      <trkpt lat="45.72902" lon="4.59422">
        <ele>786.4</ele>
        <time>2020-06-14T08:45:05.000Z</time>
      </trkpt>
      <trkpt lat="45.72901" lon="4.5942">
        <ele>786.6</ele>
        <time>2020-06-14T08:45:06.000Z</time>
      </trkpt>
      <trkpt lat="45.729" lon="4.59418">
        <ele>786.4</ele>
        <time>2020-06-14T08:45:07.000Z</time>
      </trkpt>
      <trkpt lat="45.72899" lon="4.59417">
        <ele>786.4</ele>
        <time>2020-06-14T08:45:08.000Z</time>
      </trkpt>
      <trkpt lat="45.72897" lon="4.59416">
        <ele>786.6</ele>
        <time>2020-06-14T08:45:09.000Z</time>
      </trkpt>
      <trkpt lat="45.72896" lon="4.59414">
        <ele>786.6</ele>
        <time>2020-06-14T08:45:10.000Z</time>
      </trkpt>
      <trkpt lat="45.72895" lon="4.59413">
        <ele>786.4</ele>
        <time>2020-06-14T08:45:11.000Z</time>
      </trkpt>
      <trkpt lat="45.72894" lon="4.59411">
        <ele>786.6</ele>
        <time>2020-06-14T08:45:12.000Z</time>
      </trkpt>
      <trkpt lat="45.72893" lon="4.59409">
        <ele>786.8</ele>
        <time>2020-06-14T08:45:13.000Z</time>
      </trkpt>
      <trkpt lat="45.72892" lon="4.59407">
        <ele>787</ele>
        <time>2020-06-14T08:45:14.000Z</time>
      </trkpt>
      <trkpt lat="45.72891" lon="4.59405">
        <ele>787.2</ele>
        <time>2020-06-14T08:45:15.000Z</time>
      </trkpt>
      <trkpt lat="45.72889" lon="4.59404">
        <ele>787.4</ele>
        <time>2020-06-14T08:45:16.000Z</time>
      </trkpt>
      <trkpt lat="45.72888" lon="4.59402">
        <ele>787.8</ele>
        <time>2020-06-14T08:45:17.000Z</time>
      </trkpt>
      <trkpt lat="45.72887" lon="4.594">
        <ele>788</ele>
        <time>2020-06-14T08:45:18.000Z</time>
      </trkpt>
      <trkpt lat="45.72885" lon="4.59397">
        <ele>788.2</ele>
        <time>2020-06-14T08:45:19.000Z</time>
      </trkpt>
      <trkpt lat="45.72884" lon="4.59396">
        <ele>788.4</ele>
        <time>2020-06-14T08:45:20.000Z</time>
      </trkpt>
      <trkpt lat="45.72883" lon="4.59393">
        <ele>788.6</ele>
        <time>2020-06-14T08:45:21.000Z</time>
      </trkpt>
      <trkpt lat="45.72882" lon="4.59391">
        <ele>788.6</ele>
        <time>2020-06-14T08:45:22.000Z</time>
      </trkpt>
      <trkpt lat="45.72881" lon="4.59389">
        <ele>789</ele>
        <time>2020-06-14T08:45:23.000Z</time>
      </trkpt>
      <trkpt lat="45.72879" lon="4.59387">
        <ele>789</ele>
        <time>2020-06-14T08:45:24.000Z</time>
      </trkpt>
      <trkpt lat="45.72879" lon="4.59385">
        <ele>789.2</ele>
        <time>2020-06-14T08:45:25.000Z</time>
      </trkpt>
      <trkpt lat="45.72877" lon="4.59383">
        <ele>789.6</ele>
        <time>2020-06-14T08:45:26.000Z</time>
      </trkpt>
      <trkpt lat="45.72876" lon="4.59381">
        <ele>789.6</ele>
        <time>2020-06-14T08:45:27.000Z</time>
      </trkpt>
      <trkpt lat="45.72874" lon="4.5938">
        <ele>789.6</ele>
        <time>2020-06-14T08:45:28.000Z</time>
      </trkpt>
      <trkpt lat="45.72874" lon="4.59378">
        <ele>789.6</ele>
        <time>2020-06-14T08:45:29.000Z</time>
      </trkpt>
      <trkpt lat="45.72872" lon="4.59376">
        <ele>789.8</ele>
        <time>2020-06-14T08:45:30.000Z</time>
      </trkpt>
      <trkpt lat="45.72871" lon="4.59375">
        <ele>789.8</ele>
        <time>2020-06-14T08:45:31.000Z</time>
      </trkpt>
      <trkpt lat="45.72869" lon="4.59374">
        <ele>790</ele>
        <time>2020-06-14T08:45:32.000Z</time>
      </trkpt>
      <trkpt lat="45.72867" lon="4.59373">
        <ele>790</ele>
        <time>2020-06-14T08:45:33.000Z</time>
      </trkpt>
      <trkpt lat="45.72865" lon="4.59372">
        <ele>790.2</ele>
        <time>2020-06-14T08:45:34.000Z</time>
      </trkpt>
      <trkpt lat="45.72864" lon="4.5937">
        <ele>790.4</ele>
        <time>2020-06-14T08:45:35.000Z</time>
      </trkpt>
      <trkpt lat="45.72862" lon="4.59369">
        <ele>790.6</ele>
        <time>2020-06-14T08:45:36.000Z</time>
      </trkpt>
      <trkpt lat="45.72861" lon="4.59368">
        <ele>790.8</ele>
        <time>2020-06-14T08:45:37.000Z</time>
      </trkpt>
      <trkpt lat="45.72859" lon="4.59366">
        <ele>790.8</ele>
        <time>2020-06-14T08:45:38.000Z</time>
      </trkpt>
      <trkpt lat="45.72857" lon="4.59365">
        <ele>790.8</ele>
        <time>2020-06-14T08:45:39.000Z</time>
      </trkpt>
      <trkpt lat="45.72856" lon="4.59364">
        <ele>790.8</ele>
        <time>2020-06-14T08:45:40.000Z</time>
      </trkpt>
      <trkpt lat="45.72854" lon="4.59362">
        <ele>791.2</ele>
        <time>2020-06-14T08:45:41.000Z</time>
      </trkpt>
      <trkpt lat="45.72853" lon="4.59361">
        <ele>791.2</ele>
        <time>2020-06-14T08:45:42.000Z</time>
      </trkpt>
      <trkpt lat="45.72851" lon="4.5936">
        <ele>791.2</ele>
        <time>2020-06-14T08:45:43.000Z</time>
      </trkpt>
      <trkpt lat="45.7285" lon="4.59359">
        <ele>791.6</ele>
        <time>2020-06-14T08:45:44.000Z</time>
      </trkpt>
      <trkpt lat="45.72848" lon="4.59359">
        <ele>791.6</ele>
        <time>2020-06-14T08:45:45.000Z</time>
      </trkpt>
      <trkpt lat="45.72846" lon="4.59358">
        <ele>792</ele>
        <time>2020-06-14T08:45:46.000Z</time>
      </trkpt>
      <trkpt lat="45.72844" lon="4.59356">
        <ele>792</ele>
        <time>2020-06-14T08:45:47.000Z</time>
      </trkpt>
      <trkpt lat="45.72843" lon="4.59355">
        <ele>792</ele>
        <time>2020-06-14T08:45:48.000Z</time>
      </trkpt>
      <trkpt lat="45.72841" lon="4.59353">
        <ele>792.2</ele>
        <time>2020-06-14T08:45:49.000Z</time>
      </trkpt>
      <trkpt lat="45.7284" lon="4.59352">
        <ele>792.4</ele>
        <time>2020-06-14T08:45:50.000Z</time>
      </trkpt>
      <trkpt lat="45.72838" lon="4.59351">
        <ele>792.4</ele>
        <time>2020-06-14T08:45:51.000Z</time>
      </trkpt>
      <trkpt lat="45.72837" lon="4.59349">
        <ele>792.8</ele>
        <time>2020-06-14T08:45:52.000Z</time>
      </trkpt>
      <trkpt lat="45.72836" lon="4.59348">
        <ele>792.8</ele>
        <time>2020-06-14T08:45:53.000Z</time>
      </trkpt>
      <trkpt lat="45.72835" lon="4.59347">
        <ele>793</ele>
        <time>2020-06-14T08:45:54.000Z</time>
      </trkpt>
      <trkpt lat="45.72833" lon="4.59345">
        <ele>793.2</ele>
        <time>2020-06-14T08:45:55.000Z</time>
      </trkpt>
      <trkpt lat="45.72832" lon="4.59345">
        <ele>793.4</ele>
        <time>2020-06-14T08:45:56.000Z</time>
      </trkpt>
      <trkpt lat="45.7283" lon="4.59344">
        <ele>793.6</ele>
        <time>2020-06-14T08:45:57.000Z</time>
      </trkpt>
      <trkpt lat="45.72828" lon="4.59343">
        <ele>793.6</ele>
        <time>2020-06-14T08:45:58.000Z</time>
      </trkpt>
      <trkpt lat="45.72826" lon="4.59342">
        <ele>794</ele>
        <time>2020-06-14T08:45:59.000Z</time>
      </trkpt>
      <trkpt lat="45.72825" lon="4.59342">
        <ele>794.2</ele>
        <time>2020-06-14T08:46:00.000Z</time>
      </trkpt>
      <trkpt lat="45.72823" lon="4.59341">
        <ele>794.6</ele>
        <time>2020-06-14T08:46:01.000Z</time>
      </trkpt>
      <trkpt lat="45.72822" lon="4.5934">
        <ele>794.8</ele>
        <time>2020-06-14T08:46:02.000Z</time>
      </trkpt>
      <trkpt lat="45.72821" lon="4.5934">
        <ele>794.8</ele>
        <time>2020-06-14T08:46:03.000Z</time>
      </trkpt>
      <trkpt lat="45.7282" lon="4.59338">
        <ele>795</ele>
        <time>2020-06-14T08:46:04.000Z</time>
      </trkpt>
      <trkpt lat="45.72818" lon="4.59338">
        <ele>795.2</ele>
        <time>2020-06-14T08:46:05.000Z</time>
      </trkpt>
      <trkpt lat="45.72817" lon="4.59336">
        <ele>795.4</ele>
        <time>2020-06-14T08:46:06.000Z</time>
      </trkpt>
      <trkpt lat="45.72815" lon="4.59335">
        <ele>795.6</ele>
        <time>2020-06-14T08:46:07.000Z</time>
      </trkpt>
      <trkpt lat="45.72813" lon="4.59333">
        <ele>795.8</ele>
        <time>2020-06-14T08:46:08.000Z</time>
      </trkpt>
      <trkpt lat="45.7281" lon="4.5933">
        <ele>796.2</ele>
        <time>2020-06-14T08:46:10.000Z</time>
      </trkpt>
      <trkpt lat="45.72806" lon="4.59326">
        <ele>796.4</ele>
        <time>2020-06-14T08:46:12.000Z</time>
      </trkpt>
      <trkpt lat="45.72804" lon="4.59324">
        <ele>796.4</ele>
        <time>2020-06-14T08:46:13.000Z</time>
      </trkpt>
      <trkpt lat="45.72802" lon="4.59321">
        <ele>796.4</ele>
        <time>2020-06-14T08:46:14.000Z</time>
      </trkpt>
      <trkpt lat="45.72801" lon="4.59319">
        <ele>796.4</ele>
        <time>2020-06-14T08:46:15.000Z</time>
      </trkpt>
      <trkpt lat="45.72799" lon="4.59317">
        <ele>796.4</ele>
        <time>2020-06-14T08:46:16.000Z</time>
      </trkpt>
      <trkpt lat="45.72797" lon="4.59316">
        <ele>796.6</ele>
        <time>2020-06-14T08:46:17.000Z</time>
      </trkpt>
      <trkpt lat="45.72792" lon="4.59313">
        <ele>796.6</ele>
        <time>2020-06-14T08:46:19.000Z</time>
      </trkpt>
      <trkpt lat="45.72787" lon="4.5931">
        <ele>796.6</ele>
        <time>2020-06-14T08:46:21.000Z</time>
      </trkpt>
      <trkpt lat="45.72783" lon="4.59309">
        <ele>796.6</ele>
        <time>2020-06-14T08:46:22.000Z</time>
      </trkpt>
      <trkpt lat="45.7278" lon="4.59307">
        <ele>796.6</ele>
        <time>2020-06-14T08:46:23.000Z</time>
      </trkpt>
      <trkpt lat="45.72775" lon="4.59303">
        <ele>796.6</ele>
        <time>2020-06-14T08:46:25.000Z</time>
      </trkpt>
      <trkpt lat="45.72773" lon="4.59301">
        <ele>796.8</ele>
        <time>2020-06-14T08:46:26.000Z</time>
      </trkpt>
      <trkpt lat="45.7277" lon="4.59299">
        <ele>796.8</ele>
        <time>2020-06-14T08:46:27.000Z</time>
      </trkpt>
      <trkpt lat="45.72762" lon="4.59295">
        <ele>796.8</ele>
        <time>2020-06-14T08:46:30.000Z</time>
      </trkpt>
      <trkpt lat="45.72759" lon="4.59294">
        <ele>796.8</ele>
        <time>2020-06-14T08:46:31.000Z</time>
      </trkpt>
      <trkpt lat="45.72756" lon="4.59292">
        <ele>796.8</ele>
        <time>2020-06-14T08:46:32.000Z</time>
      </trkpt>
      <trkpt lat="45.72745" lon="4.59286">
        <ele>796.8</ele>
        <time>2020-06-14T08:46:36.000Z</time>
      </trkpt>
      <trkpt lat="45.72742" lon="4.59285">
        <ele>797</ele>
        <time>2020-06-14T08:46:37.000Z</time>
      </trkpt>
      <trkpt lat="45.72736" lon="4.59282">
        <ele>797</ele>
        <time>2020-06-14T08:46:39.000Z</time>
      </trkpt>
      <trkpt lat="45.72733" lon="4.59281">
        <ele>796.8</ele>
        <time>2020-06-14T08:46:40.000Z</time>
      </trkpt>
      <trkpt lat="45.72727" lon="4.59279">
        <ele>797</ele>
        <time>2020-06-14T08:46:42.000Z</time>
      </trkpt>
      <trkpt lat="45.72724" lon="4.59278">
        <ele>796.8</ele>
        <time>2020-06-14T08:46:43.000Z</time>
      </trkpt>
      <trkpt lat="45.72721" lon="4.59278">
        <ele>797</ele>
        <time>2020-06-14T08:46:44.000Z</time>
      </trkpt>
      <trkpt lat="45.72718" lon="4.59277">
        <ele>797</ele>
        <time>2020-06-14T08:46:45.000Z</time>
      </trkpt>
      <trkpt lat="45.72716" lon="4.59276">
        <ele>797</ele>
        <time>2020-06-14T08:46:46.000Z</time>
      </trkpt>
      <trkpt lat="45.72714" lon="4.59275">
        <ele>797.2</ele>
        <time>2020-06-14T08:46:47.000Z</time>
      </trkpt>
      <trkpt lat="45.72712" lon="4.59275">
        <ele>797.2</ele>
        <time>2020-06-14T08:46:48.000Z</time>
      </trkpt>
      <trkpt lat="45.72709" lon="4.59273">
        <ele>797.2</ele>
        <time>2020-06-14T08:46:49.000Z</time>
      </trkpt>
      <trkpt lat="45.72707" lon="4.59272">
        <ele>797.4</ele>
        <time>2020-06-14T08:46:50.000Z</time>
      </trkpt>
      <trkpt lat="45.72703" lon="4.5927">
        <ele>797.4</ele>
        <time>2020-06-14T08:46:52.000Z</time>
      </trkpt>
      <trkpt lat="45.727" lon="4.59269">
        <ele>797.6</ele>
        <time>2020-06-14T08:46:53.000Z</time>
      </trkpt>
      <trkpt lat="45.72698" lon="4.59267">
        <ele>798</ele>
        <time>2020-06-14T08:46:54.000Z</time>
      </trkpt>
      <trkpt lat="45.72695" lon="4.59266">
        <ele>798.2</ele>
        <time>2020-06-14T08:46:55.000Z</time>
      </trkpt>
      <trkpt lat="45.72691" lon="4.59263">
        <ele>798.4</ele>
        <time>2020-06-14T08:46:56.000Z</time>
      </trkpt>
      <trkpt lat="45.72671" lon="4.59251">
        <ele>799</ele>
        <time>2020-06-14T08:47:02.000Z</time>
      </trkpt>
      <trkpt lat="45.72667" lon="4.59248">
        <ele>799</ele>
        <time>2020-06-14T08:47:03.000Z</time>
      </trkpt>
      <trkpt lat="45.72664" lon="4.59247">
        <ele>799</ele>
        <time>2020-06-14T08:47:04.000Z</time>
      </trkpt>
      <trkpt lat="45.72661" lon="4.59245">
        <ele>799.2</ele>
        <time>2020-06-14T08:47:05.000Z</time>
      </trkpt>
      <trkpt lat="45.72659" lon="4.59243">
        <ele>799.2</ele>
        <time>2020-06-14T08:47:06.000Z</time>
      </trkpt>
      <trkpt lat="45.72655" lon="4.59242">
        <ele>799.2</ele>
        <time>2020-06-14T08:47:07.000Z</time>
      </trkpt>
      <trkpt lat="45.72652" lon="4.59242">
        <ele>799.4</ele>
        <time>2020-06-14T08:47:08.000Z</time>
      </trkpt>
      <trkpt lat="45.72648" lon="4.59241">
        <ele>799.4</ele>
        <time>2020-06-14T08:47:09.000Z</time>
      </trkpt>
      <trkpt lat="45.72645" lon="4.59241">
        <ele>799.4</ele>
        <time>2020-06-14T08:47:10.000Z</time>
      </trkpt>
      <trkpt lat="45.72642" lon="4.59239">
        <ele>799.6</ele>
        <time>2020-06-14T08:47:11.000Z</time>
      </trkpt>
      <trkpt lat="45.72639" lon="4.59239">
        <ele>799.6</ele>
        <time>2020-06-14T08:47:12.000Z</time>
      </trkpt>
      <trkpt lat="45.72635" lon="4.59238">
        <ele>799.4</ele>
        <time>2020-06-14T08:47:13.000Z</time>
      </trkpt>
      <trkpt lat="45.72632" lon="4.59237">
        <ele>799.6</ele>
        <time>2020-06-14T08:47:14.000Z</time>
      </trkpt>
      <trkpt lat="45.72627" lon="4.59236">
        <ele>799.6</ele>
        <time>2020-06-14T08:47:15.000Z</time>
      </trkpt>
      <trkpt lat="45.72623" lon="4.59235">
        <ele>799.8</ele>
        <time>2020-06-14T08:47:16.000Z</time>
      </trkpt>
      <trkpt lat="45.72619" lon="4.59234">
        <ele>799.8</ele>
        <time>2020-06-14T08:47:17.000Z</time>
      </trkpt>
      <trkpt lat="45.72614" lon="4.59234">
        <ele>799.8</ele>
        <time>2020-06-14T08:47:18.000Z</time>
      </trkpt>
      <trkpt lat="45.7261" lon="4.59233">
        <ele>800</ele>
        <time>2020-06-14T08:47:19.000Z</time>
      </trkpt>
      <trkpt lat="45.72607" lon="4.59232">
        <ele>800.2</ele>
        <time>2020-06-14T08:47:20.000Z</time>
      </trkpt>
      <trkpt lat="45.72602" lon="4.59231">
        <ele>800.4</ele>
        <time>2020-06-14T08:47:21.000Z</time>
      </trkpt>
      <trkpt lat="45.72599" lon="4.59232">
        <ele>800.4</ele>
        <time>2020-06-14T08:47:22.000Z</time>
      </trkpt>
      <trkpt lat="45.72596" lon="4.59233">
        <ele>800.8</ele>
        <time>2020-06-14T08:47:23.000Z</time>
      </trkpt>
      <trkpt lat="45.72593" lon="4.59234">
        <ele>800.8</ele>
        <time>2020-06-14T08:47:24.000Z</time>
      </trkpt>
      <trkpt lat="45.72591" lon="4.59235">
        <ele>801</ele>
        <time>2020-06-14T08:47:25.000Z</time>
      </trkpt>
      <trkpt lat="45.72587" lon="4.59235">
        <ele>801</ele>
        <time>2020-06-14T08:47:26.000Z</time>
      </trkpt>
      <trkpt lat="45.72577" lon="4.59236">
        <ele>801</ele>
        <time>2020-06-14T08:47:29.000Z</time>
      </trkpt>
      <trkpt lat="45.72569" lon="4.59235">
        <ele>801.2</ele>
        <time>2020-06-14T08:47:31.000Z</time>
      </trkpt>
      <trkpt lat="45.72559" lon="4.59235">
        <ele>801.4</ele>
        <time>2020-06-14T08:47:34.000Z</time>
      </trkpt>
      <trkpt lat="45.72556" lon="4.59235">
        <ele>801.6</ele>
        <time>2020-06-14T08:47:35.000Z</time>
      </trkpt>
      <trkpt lat="45.72553" lon="4.59236">
        <ele>801.6</ele>
        <time>2020-06-14T08:47:36.000Z</time>
      </trkpt>
      <trkpt lat="45.72549" lon="4.59236">
        <ele>801.8</ele>
        <time>2020-06-14T08:47:37.000Z</time>
      </trkpt>
      <trkpt lat="45.72536" lon="4.59238">
        <ele>802</ele>
        <time>2020-06-14T08:47:41.000Z</time>
      </trkpt>
      <trkpt lat="45.72533" lon="4.59239">
        <ele>802.2</ele>
        <time>2020-06-14T08:47:42.000Z</time>
      </trkpt>
      <trkpt lat="45.72529" lon="4.5924">
        <ele>802.4</ele>
        <time>2020-06-14T08:47:43.000Z</time>
      </trkpt>
      <trkpt lat="45.72522" lon="4.59242">
        <ele>802.6</ele>
        <time>2020-06-14T08:47:45.000Z</time>
      </trkpt>
      <trkpt lat="45.72519" lon="4.59242">
        <ele>802.6</ele>
        <time>2020-06-14T08:47:46.000Z</time>
      </trkpt>
      <trkpt lat="45.72516" lon="4.59243">
        <ele>802.6</ele>
        <time>2020-06-14T08:47:47.000Z</time>
      </trkpt>
      <trkpt lat="45.72513" lon="4.59243">
        <ele>802.6</ele>
        <time>2020-06-14T08:47:48.000Z</time>
      </trkpt>
      <trkpt lat="45.72511" lon="4.59244">
        <ele>802.6</ele>
        <time>2020-06-14T08:47:49.000Z</time>
      </trkpt>
      <trkpt lat="45.72508" lon="4.59244">
        <ele>802.6</ele>
        <time>2020-06-14T08:47:50.000Z</time>
      </trkpt>
      <trkpt lat="45.72505" lon="4.59245">
        <ele>802.8</ele>
        <time>2020-06-14T08:47:51.000Z</time>
      </trkpt>
      <trkpt lat="45.72502" lon="4.59246">
        <ele>802.8</ele>
        <time>2020-06-14T08:47:52.000Z</time>
      </trkpt>
      <trkpt lat="45.72499" lon="4.59246">
        <ele>802.8</ele>
        <time>2020-06-14T08:47:53.000Z</time>
      </trkpt>
      <trkpt lat="45.72496" lon="4.59247">
        <ele>802.8</ele>
        <time>2020-06-14T08:47:54.000Z</time>
      </trkpt>
      <trkpt lat="45.72493" lon="4.59247">
        <ele>802.8</ele>
        <time>2020-06-14T08:47:55.000Z</time>
      </trkpt>
      <trkpt lat="45.72491" lon="4.59248">
        <ele>803</ele>
        <time>2020-06-14T08:47:56.000Z</time>
      </trkpt>
      <trkpt lat="45.72488" lon="4.59249">
        <ele>803.2</ele>
        <time>2020-06-14T08:47:57.000Z</time>
      </trkpt>
      <trkpt lat="45.72485" lon="4.59249">
        <ele>803.4</ele>
        <time>2020-06-14T08:47:58.000Z</time>
      </trkpt>
      <trkpt lat="45.72482" lon="4.5925">
        <ele>803.8</ele>
        <time>2020-06-14T08:47:59.000Z</time>
      </trkpt>
      <trkpt lat="45.7248" lon="4.59251">
        <ele>804</ele>
        <time>2020-06-14T08:48:00.000Z</time>
      </trkpt>
      <trkpt lat="45.72477" lon="4.59252">
        <ele>804.2</ele>
        <time>2020-06-14T08:48:01.000Z</time>
      </trkpt>
      <trkpt lat="45.72474" lon="4.59252">
        <ele>804.4</ele>
        <time>2020-06-14T08:48:02.000Z</time>
      </trkpt>
      <trkpt lat="45.72472" lon="4.59253">
        <ele>804.4</ele>
        <time>2020-06-14T08:48:03.000Z</time>
      </trkpt>
      <trkpt lat="45.72469" lon="4.59254">
        <ele>804.4</ele>
        <time>2020-06-14T08:48:04.000Z</time>
      </trkpt>
      <trkpt lat="45.72466" lon="4.59254">
        <ele>804.6</ele>
        <time>2020-06-14T08:48:05.000Z</time>
      </trkpt>
      <trkpt lat="45.72464" lon="4.59255">
        <ele>804.8</ele>
        <time>2020-06-14T08:48:06.000Z</time>
      </trkpt>
      <trkpt lat="45.72462" lon="4.59256">
        <ele>804.8</ele>
        <time>2020-06-14T08:48:07.000Z</time>
      </trkpt>
      <trkpt lat="45.72459" lon="4.59257">
        <ele>804.8</ele>
        <time>2020-06-14T08:48:08.000Z</time>
      </trkpt>
      <trkpt lat="45.72457" lon="4.59257">
        <ele>805</ele>
        <time>2020-06-14T08:48:09.000Z</time>
      </trkpt>
      <trkpt lat="45.72455" lon="4.59258">
        <ele>805.2</ele>
        <time>2020-06-14T08:48:10.000Z</time>
      </trkpt>
      <trkpt lat="45.72452" lon="4.59258">
        <ele>805.8</ele>
        <time>2020-06-14T08:48:11.000Z</time>
      </trkpt>
      <trkpt lat="45.7245" lon="4.59259">
        <ele>805.8</ele>
        <time>2020-06-14T08:48:12.000Z</time>
      </trkpt>
      <trkpt lat="45.72448" lon="4.5926">
        <ele>806</ele>
        <time>2020-06-14T08:48:13.000Z</time>
      </trkpt>
      <trkpt lat="45.72445" lon="4.5926">
        <ele>806.4</ele>
        <time>2020-06-14T08:48:14.000Z</time>
      </trkpt>
      <trkpt lat="45.72443" lon="4.59261">
        <ele>806.6</ele>
        <time>2020-06-14T08:48:15.000Z</time>
      </trkpt>
      <trkpt lat="45.72441" lon="4.59261">
        <ele>806.8</ele>
        <time>2020-06-14T08:48:16.000Z</time>
      </trkpt>
      <trkpt lat="45.72438" lon="4.59261">
        <ele>806.8</ele>
        <time>2020-06-14T08:48:17.000Z</time>
      </trkpt>
      <trkpt lat="45.72435" lon="4.59261">
        <ele>807</ele>
        <time>2020-06-14T08:48:18.000Z</time>
      </trkpt>
      <trkpt lat="45.72433" lon="4.59261">
        <ele>807</ele>
        <time>2020-06-14T08:48:19.000Z</time>
      </trkpt>
      <trkpt lat="45.7243" lon="4.59261">
        <ele>807.2</ele>
        <time>2020-06-14T08:48:20.000Z</time>
      </trkpt>
      <trkpt lat="45.72428" lon="4.59262">
        <ele>807.8</ele>
        <time>2020-06-14T08:48:21.000Z</time>
      </trkpt>
      <trkpt lat="45.72426" lon="4.59262">
        <ele>808</ele>
        <time>2020-06-14T08:48:22.000Z</time>
      </trkpt>
      <trkpt lat="45.72424" lon="4.59262">
        <ele>808.2</ele>
        <time>2020-06-14T08:48:23.000Z</time>
      </trkpt>
      <trkpt lat="45.72421" lon="4.59263">
        <ele>808.6</ele>
        <time>2020-06-14T08:48:24.000Z</time>
      </trkpt>
      <trkpt lat="45.72419" lon="4.59263">
        <ele>808.6</ele>
        <time>2020-06-14T08:48:25.000Z</time>
      </trkpt>
      <trkpt lat="45.72416" lon="4.59263">
        <ele>808.8</ele>
        <time>2020-06-14T08:48:26.000Z</time>
      </trkpt>
      <trkpt lat="45.72414" lon="4.59263">
        <ele>808.8</ele>
        <time>2020-06-14T08:48:27.000Z</time>
      </trkpt>
      <trkpt lat="45.72411" lon="4.59263">
        <ele>809</ele>
        <time>2020-06-14T08:48:28.000Z</time>
      </trkpt>
      <trkpt lat="45.72409" lon="4.59264">
        <ele>809.2</ele>
        <time>2020-06-14T08:48:29.000Z</time>
      </trkpt>
      <trkpt lat="45.72407" lon="4.59264">
        <ele>809.6</ele>
        <time>2020-06-14T08:48:30.000Z</time>
      </trkpt>
      <trkpt lat="45.72405" lon="4.59265">
        <ele>809.6</ele>
        <time>2020-06-14T08:48:31.000Z</time>
      </trkpt>
      <trkpt lat="45.72403" lon="4.59265">
        <ele>810</ele>
        <time>2020-06-14T08:48:32.000Z</time>
      </trkpt>
      <trkpt lat="45.72401" lon="4.59265">
        <ele>810.2</ele>
        <time>2020-06-14T08:48:33.000Z</time>
      </trkpt>
      <trkpt lat="45.72398" lon="4.59265">
        <ele>810.4</ele>
        <time>2020-06-14T08:48:34.000Z</time>
      </trkpt>
      <trkpt lat="45.72396" lon="4.59266">
        <ele>810.6</ele>
        <time>2020-06-14T08:48:35.000Z</time>
      </trkpt>
      <trkpt lat="45.72393" lon="4.59266">
        <ele>810.8</ele>
        <time>2020-06-14T08:48:36.000Z</time>
      </trkpt>
      <trkpt lat="45.72391" lon="4.59266">
        <ele>811</ele>
        <time>2020-06-14T08:48:37.000Z</time>
      </trkpt>
      <trkpt lat="45.72388" lon="4.59267">
        <ele>811</ele>
        <time>2020-06-14T08:48:38.000Z</time>
      </trkpt>
      <trkpt lat="45.72385" lon="4.59267">
        <ele>811.2</ele>
        <time>2020-06-14T08:48:39.000Z</time>
      </trkpt>
      <trkpt lat="45.72383" lon="4.59267">
        <ele>811.6</ele>
        <time>2020-06-14T08:48:40.000Z</time>
      </trkpt>
      <trkpt lat="45.72381" lon="4.59267">
        <ele>811.8</ele>
        <time>2020-06-14T08:48:41.000Z</time>
      </trkpt>
      <trkpt lat="45.72379" lon="4.59268">
        <ele>812</ele>
        <time>2020-06-14T08:48:42.000Z</time>
      </trkpt>
      <trkpt lat="45.72377" lon="4.59268">
        <ele>812.2</ele>
        <time>2020-06-14T08:48:43.000Z</time>
      </trkpt>
      <trkpt lat="45.72375" lon="4.59269">
        <ele>812.2</ele>
        <time>2020-06-14T08:48:44.000Z</time>
      </trkpt>
      <trkpt lat="45.72372" lon="4.59269">
        <ele>812.6</ele>
        <time>2020-06-14T08:48:45.000Z</time>
      </trkpt>
      <trkpt lat="45.7237" lon="4.59269">
        <ele>812.8</ele>
        <time>2020-06-14T08:48:46.000Z</time>
      </trkpt>
      <trkpt lat="45.72368" lon="4.5927">
        <ele>812.8</ele>
        <time>2020-06-14T08:48:47.000Z</time>
      </trkpt>
      <trkpt lat="45.72366" lon="4.5927">
        <ele>813</ele>
        <time>2020-06-14T08:48:48.000Z</time>
      </trkpt>
      <trkpt lat="45.72364" lon="4.59271">
        <ele>813.4</ele>
        <time>2020-06-14T08:48:49.000Z</time>
      </trkpt>
      <trkpt lat="45.72362" lon="4.59271">
        <ele>813.6</ele>
        <time>2020-06-14T08:48:50.000Z</time>
      </trkpt>
      <trkpt lat="45.72359" lon="4.59272">
        <ele>813.6</ele>
        <time>2020-06-14T08:48:51.000Z</time>
      </trkpt>
      <trkpt lat="45.72356" lon="4.59272">
        <ele>813.8</ele>
        <time>2020-06-14T08:48:52.000Z</time>
      </trkpt>
      <trkpt lat="45.72354" lon="4.59272">
        <ele>814</ele>
        <time>2020-06-14T08:48:53.000Z</time>
      </trkpt>
      <trkpt lat="45.72351" lon="4.59273">
        <ele>814.2</ele>
        <time>2020-06-14T08:48:54.000Z</time>
      </trkpt>
      <trkpt lat="45.72349" lon="4.59273">
        <ele>814.4</ele>
        <time>2020-06-14T08:48:55.000Z</time>
      </trkpt>
      <trkpt lat="45.72347" lon="4.59273">
        <ele>814.6</ele>
        <time>2020-06-14T08:48:56.000Z</time>
      </trkpt>
      <trkpt lat="45.72345" lon="4.59273">
        <ele>814.8</ele>
        <time>2020-06-14T08:48:57.000Z</time>
      </trkpt>
      <trkpt lat="45.72343" lon="4.59274">
        <ele>815</ele>
        <time>2020-06-14T08:48:58.000Z</time>
      </trkpt>
      <trkpt lat="45.7234" lon="4.59274">
        <ele>815.4</ele>
        <time>2020-06-14T08:48:59.000Z</time>
      </trkpt>
      <trkpt lat="45.72338" lon="4.59275">
        <ele>815.6</ele>
        <time>2020-06-14T08:49:00.000Z</time>
      </trkpt>
      <trkpt lat="45.72336" lon="4.59275">
        <ele>815.6</ele>
        <time>2020-06-14T08:49:01.000Z</time>
      </trkpt>
      <trkpt lat="45.72334" lon="4.59275">
        <ele>815.8</ele>
        <time>2020-06-14T08:49:02.000Z</time>
      </trkpt>
      <trkpt lat="45.72332" lon="4.59275">
        <ele>815.8</ele>
        <time>2020-06-14T08:49:03.000Z</time>
      </trkpt>
      <trkpt lat="45.72331" lon="4.59276">
        <ele>816.2</ele>
        <time>2020-06-14T08:49:04.000Z</time>
      </trkpt>
      <trkpt lat="45.72329" lon="4.59276">
        <ele>816.4</ele>
        <time>2020-06-14T08:49:05.000Z</time>
      </trkpt>
      <trkpt lat="45.72327" lon="4.59276">
        <ele>816.4</ele>
        <time>2020-06-14T08:49:06.000Z</time>
      </trkpt>
      <trkpt lat="45.72325" lon="4.59276">
        <ele>816.6</ele>
        <time>2020-06-14T08:49:07.000Z</time>
      </trkpt>
      <trkpt lat="45.72323" lon="4.59276">
        <ele>816.6</ele>
        <time>2020-06-14T08:49:08.000Z</time>
      </trkpt>
      <trkpt lat="45.72321" lon="4.59276">
        <ele>816.8</ele>
        <time>2020-06-14T08:49:09.000Z</time>
      </trkpt>
      <trkpt lat="45.72319" lon="4.59277">
        <ele>817</ele>
        <time>2020-06-14T08:49:10.000Z</time>
      </trkpt>
      <trkpt lat="45.72317" lon="4.59277">
        <ele>817.4</ele>
        <time>2020-06-14T08:49:11.000Z</time>
      </trkpt>
      <trkpt lat="45.72315" lon="4.59277">
        <ele>817.4</ele>
        <time>2020-06-14T08:49:12.000Z</time>
      </trkpt>
      <trkpt lat="45.72312" lon="4.59278">
        <ele>817.8</ele>
        <time>2020-06-14T08:49:13.000Z</time>
      </trkpt>
      <trkpt lat="45.7231" lon="4.59278">
        <ele>818</ele>
        <time>2020-06-14T08:49:14.000Z</time>
      </trkpt>
      <trkpt lat="45.72308" lon="4.59278">
        <ele>818.2</ele>
        <time>2020-06-14T08:49:15.000Z</time>
      </trkpt>
      <trkpt lat="45.72306" lon="4.59279">
        <ele>818.2</ele>
        <time>2020-06-14T08:49:16.000Z</time>
      </trkpt>
      <trkpt lat="45.72304" lon="4.59279">
        <ele>818.2</ele>
        <time>2020-06-14T08:49:17.000Z</time>
      </trkpt>
      <trkpt lat="45.72303" lon="4.59279">
        <ele>818.4</ele>
        <time>2020-06-14T08:49:18.000Z</time>
      </trkpt>
      <trkpt lat="45.72301" lon="4.59279">
        <ele>818.6</ele>
        <time>2020-06-14T08:49:19.000Z</time>
      </trkpt>
      <trkpt lat="45.72299" lon="4.5928">
        <ele>819</ele>
        <time>2020-06-14T08:49:20.000Z</time>
      </trkpt>
      <trkpt lat="45.72298" lon="4.5928">
        <ele>819.2</ele>
        <time>2020-06-14T08:49:21.000Z</time>
      </trkpt>
      <trkpt lat="45.72296" lon="4.59281">
        <ele>819.2</ele>
        <time>2020-06-14T08:49:22.000Z</time>
      </trkpt>
      <trkpt lat="45.72293" lon="4.59283">
        <ele>819.8</ele>
        <time>2020-06-14T08:49:24.000Z</time>
      </trkpt>
      <trkpt lat="45.72292" lon="4.59285">
        <ele>820</ele>
        <time>2020-06-14T08:49:25.000Z</time>
      </trkpt>
      <trkpt lat="45.72291" lon="4.59286">
        <ele>820.2</ele>
        <time>2020-06-14T08:49:26.000Z</time>
      </trkpt>
      <trkpt lat="45.7229" lon="4.59287">
        <ele>820.2</ele>
        <time>2020-06-14T08:49:27.000Z</time>
      </trkpt>
      <trkpt lat="45.7229" lon="4.59288">
        <ele>820.2</ele>
        <time>2020-06-14T08:49:28.000Z</time>
      </trkpt>
      <trkpt lat="45.72288" lon="4.59291">
        <ele>820.8</ele>
        <time>2020-06-14T08:50:57.000Z</time>
      </trkpt>
      <trkpt lat="45.72287" lon="4.59292">
        <ele>821</ele>
        <time>2020-06-14T08:50:58.000Z</time>
      </trkpt>
      <trkpt lat="45.72286" lon="4.59293">
        <ele>820.8</ele>
        <time>2020-06-14T08:50:59.000Z</time>
      </trkpt>
      <trkpt lat="45.72285" lon="4.59294">
        <ele>821</ele>
        <time>2020-06-14T08:51:00.000Z</time>
      </trkpt>
      <trkpt lat="45.72282" lon="4.59295">
        <ele>821</ele>
        <time>2020-06-14T08:51:02.000Z</time>
      </trkpt>
      <trkpt lat="45.7228" lon="4.59295">
        <ele>821</ele>
        <time>2020-06-14T08:51:03.000Z</time>
      </trkpt>
      <trkpt lat="45.72275" lon="4.59292">
        <ele>821.2</ele>
        <time>2020-06-14T08:51:05.000Z</time>
      </trkpt>
      <trkpt lat="45.72273" lon="4.5929">
        <ele>821.2</ele>
        <time>2020-06-14T08:51:06.000Z</time>
      </trkpt>
      <trkpt lat="45.72268" lon="4.59283">
        <ele>821.2</ele>
        <time>2020-06-14T08:51:08.000Z</time>
      </trkpt>
      <trkpt lat="45.72263" lon="4.59275">
        <ele>821.4</ele>
        <time>2020-06-14T08:51:10.000Z</time>
      </trkpt>
      <trkpt lat="45.72238" lon="4.59232">
        <ele>821</ele>
        <time>2020-06-14T08:51:19.000Z</time>
      </trkpt>
      <trkpt lat="45.72235" lon="4.59228">
        <ele>820.8</ele>
        <time>2020-06-14T08:51:20.000Z</time>
      </trkpt>
      <trkpt lat="45.72232" lon="4.59225">
        <ele>821</ele>
        <time>2020-06-14T08:51:21.000Z</time>
      </trkpt>
      <trkpt lat="45.72229" lon="4.59222">
        <ele>821</ele>
        <time>2020-06-14T08:51:22.000Z</time>
      </trkpt>
      <trkpt lat="45.72226" lon="4.59219">
        <ele>820.8</ele>
        <time>2020-06-14T08:51:23.000Z</time>
      </trkpt>
      <trkpt lat="45.72222" lon="4.59218">
        <ele>820.8</ele>
        <time>2020-06-14T08:51:24.000Z</time>
      </trkpt>
      <trkpt lat="45.72219" lon="4.59217">
        <ele>820.8</ele>
        <time>2020-06-14T08:51:25.000Z</time>
      </trkpt>
      <trkpt lat="45.72215" lon="4.59217">
        <ele>821</ele>
        <time>2020-06-14T08:51:26.000Z</time>
      </trkpt>
      <trkpt lat="45.72212" lon="4.59218">
        <ele>820.8</ele>
        <time>2020-06-14T08:51:27.000Z</time>
      </trkpt>
      <trkpt lat="45.72208" lon="4.59218">
        <ele>820.8</ele>
        <time>2020-06-14T08:51:28.000Z</time>
      </trkpt>
      <trkpt lat="45.72205" lon="4.59219">
        <ele>820.8</ele>
        <time>2020-06-14T08:51:29.000Z</time>
      </trkpt>
      <trkpt lat="45.72202" lon="4.59218">
        <ele>821</ele>
        <time>2020-06-14T08:51:30.000Z</time>
      </trkpt>
      <trkpt lat="45.72198" lon="4.59218">
        <ele>821</ele>
        <time>2020-06-14T08:51:31.000Z</time>
      </trkpt>
      <trkpt lat="45.72185" lon="4.59219">
        <ele>821</ele>
        <time>2020-06-14T08:51:34.000Z</time>
      </trkpt>
      <trkpt lat="45.7218" lon="4.59219">
        <ele>821.2</ele>
        <time>2020-06-14T08:51:35.000Z</time>
      </trkpt>
      <trkpt lat="45.72174" lon="4.59219">
        <ele>821</ele>
        <time>2020-06-14T08:51:36.000Z</time>
      </trkpt>
      <trkpt lat="45.72167" lon="4.59219">
        <ele>821</ele>
        <time>2020-06-14T08:51:37.000Z</time>
      </trkpt>
      <trkpt lat="45.72153" lon="4.59219">
        <ele>821.2</ele>
        <time>2020-06-14T08:51:39.000Z</time>
      </trkpt>
      <trkpt lat="45.72145" lon="4.59219">
        <ele>821</ele>
        <time>2020-06-14T08:51:40.000Z</time>
      </trkpt>
      <trkpt lat="45.72137" lon="4.59219">
        <ele>821</ele>
        <time>2020-06-14T08:51:41.000Z</time>
      </trkpt>
      <trkpt lat="45.72128" lon="4.59218">
        <ele>821</ele>
        <time>2020-06-14T08:51:42.000Z</time>
      </trkpt>
      <trkpt lat="45.7212" lon="4.59216">
        <ele>820.6</ele>
        <time>2020-06-14T08:51:43.000Z</time>
      </trkpt>
      <trkpt lat="45.72113" lon="4.59213">
        <ele>820</ele>
        <time>2020-06-14T08:51:44.000Z</time>
      </trkpt>
      <trkpt lat="45.72105" lon="4.59209">
        <ele>819.6</ele>
        <time>2020-06-14T08:51:45.000Z</time>
      </trkpt>
      <trkpt lat="45.72098" lon="4.59203">
        <ele>818.6</ele>
        <time>2020-06-14T08:51:46.000Z</time>
      </trkpt>
      <trkpt lat="45.72091" lon="4.59195">
        <ele>817.8</ele>
        <time>2020-06-14T08:51:47.000Z</time>
      </trkpt>
      <trkpt lat="45.72083" lon="4.59187">
        <ele>816.4</ele>
        <time>2020-06-14T08:51:48.000Z</time>
      </trkpt>
      <trkpt lat="45.72065" lon="4.59168">
        <ele>813.6</ele>
        <time>2020-06-14T08:51:50.000Z</time>
      </trkpt>
      <trkpt lat="45.72057" lon="4.59159">
        <ele>812.2</ele>
        <time>2020-06-14T08:51:51.000Z</time>
      </trkpt>
      <trkpt lat="45.72048" lon="4.59149">
        <ele>810.6</ele>
        <time>2020-06-14T08:51:52.000Z</time>
      </trkpt>
      <trkpt lat="45.72039" lon="4.5914">
        <ele>809.4</ele>
        <time>2020-06-14T08:51:53.000Z</time>
      </trkpt>
      <trkpt lat="45.72031" lon="4.59131">
        <ele>809.4</ele>
        <time>2020-06-14T08:51:54.000Z</time>
      </trkpt>
      <trkpt lat="45.72022" lon="4.59123">
        <ele>808</ele>
        <time>2020-06-14T08:51:55.000Z</time>
      </trkpt>
      <trkpt lat="45.72014" lon="4.59116">
        <ele>806.2</ele>
        <time>2020-06-14T08:51:56.000Z</time>
      </trkpt>
      <trkpt lat="45.72006" lon="4.5911">
        <ele>805</ele>
        <time>2020-06-14T08:51:57.000Z</time>
      </trkpt>
      <trkpt lat="45.71997" lon="4.59104">
        <ele>803.8</ele>
        <time>2020-06-14T08:51:58.000Z</time>
      </trkpt>
      <trkpt lat="45.71989" lon="4.59098">
        <ele>803</ele>
        <time>2020-06-14T08:51:59.000Z</time>
      </trkpt>
      <trkpt lat="45.71982" lon="4.59092">
        <ele>802.4</ele>
        <time>2020-06-14T08:52:00.000Z</time>
      </trkpt>
      <trkpt lat="45.71974" lon="4.59087">
        <ele>802.2</ele>
        <time>2020-06-14T08:52:01.000Z</time>
      </trkpt>
      <trkpt lat="45.71967" lon="4.59083">
        <ele>801.6</ele>
        <time>2020-06-14T08:52:02.000Z</time>
      </trkpt>
      <trkpt lat="45.7196" lon="4.59078">
        <ele>801.4</ele>
        <time>2020-06-14T08:52:03.000Z</time>
      </trkpt>
      <trkpt lat="45.71953" lon="4.59074">
        <ele>801</ele>
        <time>2020-06-14T08:52:04.000Z</time>
      </trkpt>
      <trkpt lat="45.71946" lon="4.5907">
        <ele>801</ele>
        <time>2020-06-14T08:52:05.000Z</time>
      </trkpt>
      <trkpt lat="45.7194" lon="4.59067">
        <ele>800.6</ele>
        <time>2020-06-14T08:52:06.000Z</time>
      </trkpt>
      <trkpt lat="45.71935" lon="4.59065">
        <ele>800.4</ele>
        <time>2020-06-14T08:52:07.000Z</time>
      </trkpt>
      <trkpt lat="45.71929" lon="4.59065">
        <ele>800.2</ele>
        <time>2020-06-14T08:52:08.000Z</time>
      </trkpt>
      <trkpt lat="45.71924" lon="4.59066">
        <ele>799.8</ele>
        <time>2020-06-14T08:52:09.000Z</time>
      </trkpt>
      <trkpt lat="45.7192" lon="4.59069">
        <ele>799.8</ele>
        <time>2020-06-14T08:52:10.000Z</time>
      </trkpt>
      <trkpt lat="45.71917" lon="4.59074">
        <ele>799.8</ele>
        <time>2020-06-14T08:52:11.000Z</time>
      </trkpt>
      <trkpt lat="45.71915" lon="4.59079">
        <ele>799.4</ele>
        <time>2020-06-14T08:52:12.000Z</time>
      </trkpt>
      <trkpt lat="45.71913" lon="4.59084">
        <ele>799.2</ele>
        <time>2020-06-14T08:52:13.000Z</time>
      </trkpt>
      <trkpt lat="45.7191" lon="4.59087">
        <ele>799.2</ele>
        <time>2020-06-14T08:52:14.000Z</time>
      </trkpt>
      <trkpt lat="45.71907" lon="4.59088">
        <ele>799</ele>
        <time>2020-06-14T08:52:15.000Z</time>
      </trkpt>
      <trkpt lat="45.71902" lon="4.59088">
        <ele>798.8</ele>
        <time>2020-06-14T08:52:16.000Z</time>
      </trkpt>
      <trkpt lat="45.71897" lon="4.59086">
        <ele>798.6</ele>
        <time>2020-06-14T08:52:17.000Z</time>
      </trkpt>
      <trkpt lat="45.71892" lon="4.59084">
        <ele>798.4</ele>
        <time>2020-06-14T08:52:18.000Z</time>
      </trkpt>
      <trkpt lat="45.71879" lon="4.59079">
        <ele>797.6</ele>
        <time>2020-06-14T08:52:20.000Z</time>
      </trkpt>
      <trkpt lat="45.71873" lon="4.59077">
        <ele>797.4</ele>
        <time>2020-06-14T08:52:21.000Z</time>
      </trkpt>
      <trkpt lat="45.71866" lon="4.59076">
        <ele>797</ele>
        <time>2020-06-14T08:52:22.000Z</time>
      </trkpt>
      <trkpt lat="45.71858" lon="4.59076">
        <ele>796.8</ele>
        <time>2020-06-14T08:52:23.000Z</time>
      </trkpt>
      <trkpt lat="45.7185" lon="4.59077">
        <ele>796.2</ele>
        <time>2020-06-14T08:52:24.000Z</time>
      </trkpt>
      <trkpt lat="45.71842" lon="4.59081">
        <ele>795.6</ele>
        <time>2020-06-14T08:52:25.000Z</time>
      </trkpt>
      <trkpt lat="45.71834" lon="4.59085">
        <ele>795</ele>
        <time>2020-06-14T08:52:26.000Z</time>
      </trkpt>
      <trkpt lat="45.71827" lon="4.59089">
        <ele>794.8</ele>
        <time>2020-06-14T08:52:27.000Z</time>
      </trkpt>
      <trkpt lat="45.7182" lon="4.59094">
        <ele>794.4</ele>
        <time>2020-06-14T08:52:28.000Z</time>
      </trkpt>
      <trkpt lat="45.71814" lon="4.591">
        <ele>793.8</ele>
        <time>2020-06-14T08:52:29.000Z</time>
      </trkpt>
      <trkpt lat="45.71808" lon="4.59106">
        <ele>793.6</ele>
        <time>2020-06-14T08:52:30.000Z</time>
      </trkpt>
      <trkpt lat="45.71803" lon="4.59114">
        <ele>792.6</ele>
        <time>2020-06-14T08:52:31.000Z</time>
      </trkpt>
      <trkpt lat="45.71798" lon="4.59122">
        <ele>791.4</ele>
        <time>2020-06-14T08:52:32.000Z</time>
      </trkpt>
      <trkpt lat="45.71792" lon="4.59131">
        <ele>790.6</ele>
        <time>2020-06-14T08:52:33.000Z</time>
      </trkpt>
      <trkpt lat="45.71786" lon="4.59139">
        <ele>790.6</ele>
        <time>2020-06-14T08:52:34.000Z</time>
      </trkpt>
      <trkpt lat="45.7178" lon="4.59147">
        <ele>790</ele>
        <time>2020-06-14T08:52:35.000Z</time>
      </trkpt>
      <trkpt lat="45.71775" lon="4.59153">
        <ele>789</ele>
        <time>2020-06-14T08:52:36.000Z</time>
      </trkpt>
      <trkpt lat="45.7177" lon="4.59157">
        <ele>788</ele>
        <time>2020-06-14T08:52:37.000Z</time>
      </trkpt>
      <trkpt lat="45.71766" lon="4.5916">
        <ele>787.2</ele>
        <time>2020-06-14T08:52:38.000Z</time>
      </trkpt>
      <trkpt lat="45.71763" lon="4.59164">
        <ele>786.2</ele>
        <time>2020-06-14T08:52:39.000Z</time>
      </trkpt>
      <trkpt lat="45.71761" lon="4.59167">
        <ele>785.2</ele>
        <time>2020-06-14T08:52:40.000Z</time>
      </trkpt>
      <trkpt lat="45.71758" lon="4.59169">
        <ele>784</ele>
        <time>2020-06-14T08:52:41.000Z</time>
      </trkpt>
      <trkpt lat="45.71755" lon="4.59171">
        <ele>782.8</ele>
        <time>2020-06-14T08:52:42.000Z</time>
      </trkpt>
      <trkpt lat="45.71753" lon="4.59173">
        <ele>782.4</ele>
        <time>2020-06-14T08:52:43.000Z</time>
      </trkpt>
      <trkpt lat="45.71747" lon="4.59177">
        <ele>781.8</ele>
        <time>2020-06-14T08:52:45.000Z</time>
      </trkpt>
      <trkpt lat="45.71745" lon="4.5918">
        <ele>781.6</ele>
        <time>2020-06-14T08:52:46.000Z</time>
      </trkpt>
      <trkpt lat="45.71743" lon="4.59182">
        <ele>781.4</ele>
        <time>2020-06-14T08:52:47.000Z</time>
      </trkpt>
      <trkpt lat="45.71741" lon="4.59185">
        <ele>781.4</ele>
        <time>2020-06-14T08:52:48.000Z</time>
      </trkpt>
      <trkpt lat="45.71739" lon="4.59187">
        <ele>781.2</ele>
        <time>2020-06-14T08:52:49.000Z</time>
      </trkpt>
      <trkpt lat="45.71737" lon="4.59189">
        <ele>781</ele>
        <time>2020-06-14T08:52:50.000Z</time>
      </trkpt>
      <trkpt lat="45.71735" lon="4.59191">
        <ele>781</ele>
        <time>2020-06-14T08:52:51.000Z</time>
      </trkpt>
      <trkpt lat="45.71733" lon="4.59192">
        <ele>779.6</ele>
        <time>2020-06-14T08:52:52.000Z</time>
      </trkpt>
      <trkpt lat="45.71732" lon="4.59193">
        <ele>779</ele>
        <time>2020-06-14T08:52:53.000Z</time>
      </trkpt>
      <trkpt lat="45.71731" lon="4.59193">
        <ele>779</ele>
        <time>2020-06-14T08:52:54.000Z</time>
      </trkpt>
      <trkpt lat="45.71727" lon="4.59193">
        <ele>777.8</ele>
        <time>2020-06-14T08:52:59.000Z</time>
      </trkpt>
      <trkpt lat="45.71726" lon="4.59193">
        <ele>777.6</ele>
        <time>2020-06-14T08:53:00.000Z</time>
      </trkpt>
      <trkpt lat="45.71724" lon="4.59192">
        <ele>777.2</ele>
        <time>2020-06-14T08:53:01.000Z</time>
      </trkpt>
      <trkpt lat="45.71722" lon="4.59191">
        <ele>777.2</ele>
        <time>2020-06-14T08:53:02.000Z</time>
      </trkpt>
      <trkpt lat="45.71721" lon="4.59188">
        <ele>777</ele>
        <time>2020-06-14T08:53:03.000Z</time>
      </trkpt>
      <trkpt lat="45.71719" lon="4.59185">
        <ele>776.8</ele>
        <time>2020-06-14T08:53:04.000Z</time>
      </trkpt>
      <trkpt lat="45.71718" lon="4.5918">
        <ele>777</ele>
        <time>2020-06-14T08:53:05.000Z</time>
      </trkpt>
      <trkpt lat="45.71717" lon="4.59176">
        <ele>776.8</ele>
        <time>2020-06-14T08:53:06.000Z</time>
      </trkpt>
      <trkpt lat="45.71715" lon="4.59172">
        <ele>776.8</ele>
        <time>2020-06-14T08:53:07.000Z</time>
      </trkpt>
      <trkpt lat="45.71714" lon="4.59169">
        <ele>776.4</ele>
        <time>2020-06-14T08:53:08.000Z</time>
      </trkpt>
      <trkpt lat="45.71713" lon="4.59168">
        <ele>776</ele>
        <time>2020-06-14T08:53:09.000Z</time>
      </trkpt>
      <trkpt lat="45.71712" lon="4.59168">
        <ele>775.8</ele>
        <time>2020-06-14T08:53:10.000Z</time>
      </trkpt>
      <trkpt lat="45.71712" lon="4.59169">
        <ele>775.6</ele>
        <time>2020-06-14T08:53:11.000Z</time>
      </trkpt>
      <trkpt lat="45.71712" lon="4.59171">
        <ele>775.2</ele>
        <time>2020-06-14T08:53:12.000Z</time>
      </trkpt>
      <trkpt lat="45.71712" lon="4.59173">
        <ele>775</ele>
        <time>2020-06-14T08:53:13.000Z</time>
      </trkpt>
      <trkpt lat="45.71713" lon="4.59177">
        <ele>775</ele>
        <time>2020-06-14T08:53:15.000Z</time>
      </trkpt>
      <trkpt lat="45.71713" lon="4.5918">
        <ele>774.8</ele>
        <time>2020-06-14T08:53:16.000Z</time>
      </trkpt>
      <trkpt lat="45.71712" lon="4.59183">
        <ele>774.8</ele>
        <time>2020-06-14T08:53:17.000Z</time>
      </trkpt>
      <trkpt lat="45.71709" lon="4.59187">
        <ele>774.6</ele>
        <time>2020-06-14T08:53:18.000Z</time>
      </trkpt>
      <trkpt lat="45.71707" lon="4.59191">
        <ele>774.8</ele>
        <time>2020-06-14T08:53:19.000Z</time>
      </trkpt>
      <trkpt lat="45.71705" lon="4.59194">
        <ele>774.6</ele>
        <time>2020-06-14T08:53:20.000Z</time>
      </trkpt>
      <trkpt lat="45.71704" lon="4.59198">
        <ele>774.4</ele>
        <time>2020-06-14T08:53:21.000Z</time>
      </trkpt>
      <trkpt lat="45.71703" lon="4.59202">
        <ele>774.6</ele>
        <time>2020-06-14T08:53:22.000Z</time>
      </trkpt>
      <trkpt lat="45.71702" lon="4.59205">
        <ele>774.4</ele>
        <time>2020-06-14T08:53:23.000Z</time>
      </trkpt>
      <trkpt lat="45.717" lon="4.59209">
        <ele>774.2</ele>
        <time>2020-06-14T08:53:24.000Z</time>
      </trkpt>
      <trkpt lat="45.71699" lon="4.59214">
        <ele>774.2</ele>
        <time>2020-06-14T08:53:25.000Z</time>
      </trkpt>
      <trkpt lat="45.71697" lon="4.59219">
        <ele>774.2</ele>
        <time>2020-06-14T08:53:26.000Z</time>
      </trkpt>
      <trkpt lat="45.71695" lon="4.59223">
        <ele>773.6</ele>
        <time>2020-06-14T08:53:27.000Z</time>
      </trkpt>
      <trkpt lat="45.71691" lon="4.59231">
        <ele>772.2</ele>
        <time>2020-06-14T08:53:29.000Z</time>
      </trkpt>
      <trkpt lat="45.71689" lon="4.59233">
        <ele>771.8</ele>
        <time>2020-06-14T08:53:30.000Z</time>
      </trkpt>
      <trkpt lat="45.71687" lon="4.59236">
        <ele>771.4</ele>
        <time>2020-06-14T08:53:31.000Z</time>
      </trkpt>
      <trkpt lat="45.71684" lon="4.59238">
        <ele>770.8</ele>
        <time>2020-06-14T08:53:32.000Z</time>
      </trkpt>
      <trkpt lat="45.71682" lon="4.5924">
        <ele>770.4</ele>
        <time>2020-06-14T08:53:33.000Z</time>
      </trkpt>
      <trkpt lat="45.71679" lon="4.5924">
        <ele>770.2</ele>
        <time>2020-06-14T08:53:34.000Z</time>
      </trkpt>
      <trkpt lat="45.71676" lon="4.5924">
        <ele>770.2</ele>
        <time>2020-06-14T08:53:35.000Z</time>
      </trkpt>
      <trkpt lat="45.71673" lon="4.59239">
        <ele>769.6</ele>
        <time>2020-06-14T08:53:36.000Z</time>
      </trkpt>
      <trkpt lat="45.7167" lon="4.59239">
        <ele>769.6</ele>
        <time>2020-06-14T08:53:37.000Z</time>
      </trkpt>
      <trkpt lat="45.71667" lon="4.5924">
        <ele>769.2</ele>
        <time>2020-06-14T08:53:38.000Z</time>
      </trkpt>
      <trkpt lat="45.71664" lon="4.5924">
        <ele>769</ele>
        <time>2020-06-14T08:53:39.000Z</time>
      </trkpt>
      <trkpt lat="45.71662" lon="4.59239">
        <ele>769</ele>
        <time>2020-06-14T08:53:40.000Z</time>
      </trkpt>
      <trkpt lat="45.7166" lon="4.59238">
        <ele>768.8</ele>
        <time>2020-06-14T08:53:41.000Z</time>
      </trkpt>
      <trkpt lat="45.71658" lon="4.59238">
        <ele>767.8</ele>
        <time>2020-06-14T08:53:42.000Z</time>
      </trkpt>
      <trkpt lat="45.71656" lon="4.59237">
        <ele>767.4</ele>
        <time>2020-06-14T08:53:43.000Z</time>
      </trkpt>
      <trkpt lat="45.71653" lon="4.59237">
        <ele>766.6</ele>
        <time>2020-06-14T08:53:44.000Z</time>
      </trkpt>
      <trkpt lat="45.71651" lon="4.59238">
        <ele>766.2</ele>
        <time>2020-06-14T08:53:45.000Z</time>
      </trkpt>
      <trkpt lat="45.7165" lon="4.59238">
        <ele>765.8</ele>
        <time>2020-06-14T08:53:46.000Z</time>
      </trkpt>
      <trkpt lat="45.71648" lon="4.59238">
        <ele>765.2</ele>
        <time>2020-06-14T08:53:47.000Z</time>
      </trkpt>
      <trkpt lat="45.71646" lon="4.59237">
        <ele>764.6</ele>
        <time>2020-06-14T08:53:48.000Z</time>
      </trkpt>
      <trkpt lat="45.71645" lon="4.59236">
        <ele>763.8</ele>
        <time>2020-06-14T08:53:49.000Z</time>
      </trkpt>
      <trkpt lat="45.71644" lon="4.59236">
        <ele>763.2</ele>
        <time>2020-06-14T08:53:50.000Z</time>
      </trkpt>
      <trkpt lat="45.71642" lon="4.59236">
        <ele>762.6</ele>
        <time>2020-06-14T08:53:51.000Z</time>
      </trkpt>
      <trkpt lat="45.7164" lon="4.59238">
        <ele>761.8</ele>
        <time>2020-06-14T08:53:52.000Z</time>
      </trkpt>
      <trkpt lat="45.71638" lon="4.59239">
        <ele>761.4</ele>
        <time>2020-06-14T08:53:53.000Z</time>
      </trkpt>
      <trkpt lat="45.71636" lon="4.59241">
        <ele>760.4</ele>
        <time>2020-06-14T08:53:54.000Z</time>
      </trkpt>
      <trkpt lat="45.71631" lon="4.59244">
        <ele>759.6</ele>
        <time>2020-06-14T08:53:56.000Z</time>
      </trkpt>
      <trkpt lat="45.71628" lon="4.59245">
        <ele>759</ele>
        <time>2020-06-14T08:53:57.000Z</time>
      </trkpt>
      <trkpt lat="45.71625" lon="4.59245">
        <ele>758.4</ele>
        <time>2020-06-14T08:53:58.000Z</time>
      </trkpt>
      <trkpt lat="45.71622" lon="4.59245">
        <ele>757.8</ele>
        <time>2020-06-14T08:53:59.000Z</time>
      </trkpt>
      <trkpt lat="45.7162" lon="4.59246">
        <ele>757.2</ele>
        <time>2020-06-14T08:54:00.000Z</time>
      </trkpt>
      <trkpt lat="45.71617" lon="4.59248">
        <ele>756.2</ele>
        <time>2020-06-14T08:54:01.000Z</time>
      </trkpt>
      <trkpt lat="45.71611" lon="4.59253">
        <ele>754.6</ele>
        <time>2020-06-14T08:54:03.000Z</time>
      </trkpt>
      <trkpt lat="45.71607" lon="4.59255">
        <ele>753.2</ele>
        <time>2020-06-14T08:54:04.000Z</time>
      </trkpt>
      <trkpt lat="45.71604" lon="4.59258">
        <ele>752.2</ele>
        <time>2020-06-14T08:54:05.000Z</time>
      </trkpt>
      <trkpt lat="45.71601" lon="4.59261">
        <ele>751.2</ele>
        <time>2020-06-14T08:54:06.000Z</time>
      </trkpt>
      <trkpt lat="45.71599" lon="4.59264">
        <ele>750</ele>
        <time>2020-06-14T08:54:07.000Z</time>
      </trkpt>
      <trkpt lat="45.71597" lon="4.59268">
        <ele>749</ele>
        <time>2020-06-14T08:54:08.000Z</time>
      </trkpt>
      <trkpt lat="45.71596" lon="4.59272">
        <ele>748.4</ele>
        <time>2020-06-14T08:54:09.000Z</time>
      </trkpt>
      <trkpt lat="45.71594" lon="4.59275">
        <ele>747.4</ele>
        <time>2020-06-14T08:54:10.000Z</time>
      </trkpt>
      <trkpt lat="45.7159" lon="4.59278">
        <ele>746.6</ele>
        <time>2020-06-14T08:54:11.000Z</time>
      </trkpt>
      <trkpt lat="45.71587" lon="4.59281">
        <ele>745.6</ele>
        <time>2020-06-14T08:54:12.000Z</time>
      </trkpt>
      <trkpt lat="45.71584" lon="4.59284">
        <ele>744.4</ele>
        <time>2020-06-14T08:54:13.000Z</time>
      </trkpt>
      <trkpt lat="45.71582" lon="4.59288">
        <ele>743.2</ele>
        <time>2020-06-14T08:54:14.000Z</time>
      </trkpt>
      <trkpt lat="45.71573" lon="4.59301">
        <ele>741.6</ele>
        <time>2020-06-14T08:54:17.000Z</time>
      </trkpt>
      <trkpt lat="45.7157" lon="4.59305">
        <ele>740.6</ele>
        <time>2020-06-14T08:54:18.000Z</time>
      </trkpt>
      <trkpt lat="45.71563" lon="4.59312">
        <ele>738.6</ele>
        <time>2020-06-14T08:54:20.000Z</time>
      </trkpt>
      <trkpt lat="45.71559" lon="4.59318">
        <ele>737.4</ele>
        <time>2020-06-14T08:54:21.000Z</time>
      </trkpt>
      <trkpt lat="45.71555" lon="4.59324">
        <ele>736.2</ele>
        <time>2020-06-14T08:54:22.000Z</time>
      </trkpt>
      <trkpt lat="45.71552" lon="4.59329">
        <ele>735</ele>
        <time>2020-06-14T08:54:23.000Z</time>
      </trkpt>
      <trkpt lat="45.71549" lon="4.59334">
        <ele>734.2</ele>
        <time>2020-06-14T08:54:24.000Z</time>
      </trkpt>
      <trkpt lat="45.71547" lon="4.59339">
        <ele>733.6</ele>
        <time>2020-06-14T08:54:25.000Z</time>
      </trkpt>
      <trkpt lat="45.71544" lon="4.59342">
        <ele>732.8</ele>
        <time>2020-06-14T08:54:26.000Z</time>
      </trkpt>
      <trkpt lat="45.71543" lon="4.59342">
        <ele>731.8</ele>
        <time>2020-06-14T08:54:27.000Z</time>
      </trkpt>
      <trkpt lat="45.71542" lon="4.59342">
        <ele>731</ele>
        <time>2020-06-14T08:54:28.000Z</time>
      </trkpt>
      <trkpt lat="45.71541" lon="4.59339">
        <ele>730.8</ele>
        <time>2020-06-14T08:54:29.000Z</time>
      </trkpt>
      <trkpt lat="45.71539" lon="4.59336">
        <ele>729.4</ele>
        <time>2020-06-14T08:54:30.000Z</time>
      </trkpt>
      <trkpt lat="45.71537" lon="4.59333">
        <ele>728</ele>
        <time>2020-06-14T08:54:31.000Z</time>
      </trkpt>
      <trkpt lat="45.71535" lon="4.5933">
        <ele>727</ele>
        <time>2020-06-14T08:54:32.000Z</time>
      </trkpt>
      <trkpt lat="45.71532" lon="4.59326">
        <ele>726.2</ele>
        <time>2020-06-14T08:54:33.000Z</time>
      </trkpt>
      <trkpt lat="45.71531" lon="4.59322">
        <ele>725.8</ele>
        <time>2020-06-14T08:54:34.000Z</time>
      </trkpt>
      <trkpt lat="45.71528" lon="4.59318">
        <ele>725.2</ele>
        <time>2020-06-14T08:54:35.000Z</time>
      </trkpt>
      <trkpt lat="45.71523" lon="4.5931">
        <ele>724.4</ele>
        <time>2020-06-14T08:54:37.000Z</time>
      </trkpt>
      <trkpt lat="45.71521" lon="4.59305">
        <ele>723.6</ele>
        <time>2020-06-14T08:54:38.000Z</time>
      </trkpt>
      <trkpt lat="45.71519" lon="4.59298">
        <ele>722.8</ele>
        <time>2020-06-14T08:54:39.000Z</time>
      </trkpt>
      <trkpt lat="45.71517" lon="4.59291">
        <ele>721.6</ele>
        <time>2020-06-14T08:54:40.000Z</time>
      </trkpt>
      <trkpt lat="45.71514" lon="4.59286">
        <ele>720.8</ele>
        <time>2020-06-14T08:54:41.000Z</time>
      </trkpt>
      <trkpt lat="45.71513" lon="4.59279">
        <ele>720.4</ele>
        <time>2020-06-14T08:54:42.000Z</time>
      </trkpt>
      <trkpt lat="45.71513" lon="4.59272">
        <ele>719.8</ele>
        <time>2020-06-14T08:54:43.000Z</time>
      </trkpt>
      <trkpt lat="45.71513" lon="4.59264">
        <ele>718.6</ele>
        <time>2020-06-14T08:54:44.000Z</time>
      </trkpt>
      <trkpt lat="45.71514" lon="4.59256">
        <ele>717.8</ele>
        <time>2020-06-14T08:54:45.000Z</time>
      </trkpt>
      <trkpt lat="45.71515" lon="4.59248">
        <ele>717.4</ele>
        <time>2020-06-14T08:54:46.000Z</time>
      </trkpt>
      <trkpt lat="45.71515" lon="4.5924">
        <ele>716.6</ele>
        <time>2020-06-14T08:54:47.000Z</time>
      </trkpt>
      <trkpt lat="45.71516" lon="4.59232">
        <ele>715.4</ele>
        <time>2020-06-14T08:54:48.000Z</time>
      </trkpt>
      <trkpt lat="45.71517" lon="4.59225">
        <ele>714.8</ele>
        <time>2020-06-14T08:54:49.000Z</time>
      </trkpt>
      <trkpt lat="45.71519" lon="4.59219">
        <ele>714.2</ele>
        <time>2020-06-14T08:54:50.000Z</time>
      </trkpt>
      <trkpt lat="45.71521" lon="4.59212">
        <ele>713.6</ele>
        <time>2020-06-14T08:54:51.000Z</time>
      </trkpt>
      <trkpt lat="45.71521" lon="4.59205">
        <ele>713</ele>
        <time>2020-06-14T08:54:52.000Z</time>
      </trkpt>
      <trkpt lat="45.7152" lon="4.592">
        <ele>712.4</ele>
        <time>2020-06-14T08:54:53.000Z</time>
      </trkpt>
      <trkpt lat="45.71517" lon="4.59196">
        <ele>711.6</ele>
        <time>2020-06-14T08:54:54.000Z</time>
      </trkpt>
      <trkpt lat="45.71514" lon="4.59194">
        <ele>710.6</ele>
        <time>2020-06-14T08:54:55.000Z</time>
      </trkpt>
      <trkpt lat="45.71511" lon="4.59191">
        <ele>710.6</ele>
        <time>2020-06-14T08:54:56.000Z</time>
      </trkpt>
      <trkpt lat="45.71509" lon="4.59188">
        <ele>710</ele>
        <time>2020-06-14T08:54:57.000Z</time>
      </trkpt>
      <trkpt lat="45.71507" lon="4.59182">
        <ele>709.6</ele>
        <time>2020-06-14T08:54:58.000Z</time>
      </trkpt>
      <trkpt lat="45.71506" lon="4.59175">
        <ele>709.2</ele>
        <time>2020-06-14T08:54:59.000Z</time>
      </trkpt>
      <trkpt lat="45.71505" lon="4.59168">
        <ele>708.6</ele>
        <time>2020-06-14T08:55:00.000Z</time>
      </trkpt>
      <trkpt lat="45.71505" lon="4.59161">
        <ele>708.2</ele>
        <time>2020-06-14T08:55:01.000Z</time>
      </trkpt>
      <trkpt lat="45.71504" lon="4.59147">
        <ele>706.6</ele>
        <time>2020-06-14T08:55:03.000Z</time>
      </trkpt>
      <trkpt lat="45.71503" lon="4.59141">
        <ele>706</ele>
        <time>2020-06-14T08:55:04.000Z</time>
      </trkpt>
      <trkpt lat="45.71502" lon="4.59135">
        <ele>705.4</ele>
        <time>2020-06-14T08:55:05.000Z</time>
      </trkpt>
      <trkpt lat="45.71501" lon="4.5913">
        <ele>704.2</ele>
        <time>2020-06-14T08:55:06.000Z</time>
      </trkpt>
      <trkpt lat="45.715" lon="4.59126">
        <ele>703.4</ele>
        <time>2020-06-14T08:55:07.000Z</time>
      </trkpt>
      <trkpt lat="45.71497" lon="4.59122">
        <ele>703</ele>
        <time>2020-06-14T08:55:08.000Z</time>
      </trkpt>
      <trkpt lat="45.71496" lon="4.59119">
        <ele>702.6</ele>
        <time>2020-06-14T08:55:09.000Z</time>
      </trkpt>
      <trkpt lat="45.71494" lon="4.59116">
        <ele>701.6</ele>
        <time>2020-06-14T08:55:10.000Z</time>
      </trkpt>
      <trkpt lat="45.71492" lon="4.59113">
        <ele>701</ele>
        <time>2020-06-14T08:55:11.000Z</time>
      </trkpt>
      <trkpt lat="45.71489" lon="4.59111">
        <ele>700.6</ele>
        <time>2020-06-14T08:55:12.000Z</time>
      </trkpt>
      <trkpt lat="45.71487" lon="4.59108">
        <ele>700.4</ele>
        <time>2020-06-14T08:55:13.000Z</time>
      </trkpt>
      <trkpt lat="45.71485" lon="4.59106">
        <ele>700.4</ele>
        <time>2020-06-14T08:55:14.000Z</time>
      </trkpt>
      <trkpt lat="45.71482" lon="4.59104">
        <ele>700.4</ele>
        <time>2020-06-14T08:55:15.000Z</time>
      </trkpt>
      <trkpt lat="45.7148" lon="4.59103">
        <ele>700.4</ele>
        <time>2020-06-14T08:55:16.000Z</time>
      </trkpt>
      <trkpt lat="45.71478" lon="4.59101">
        <ele>700.4</ele>
        <time>2020-06-14T08:55:17.000Z</time>
      </trkpt>
      <trkpt lat="45.71476" lon="4.591">
        <ele>700.2</ele>
        <time>2020-06-14T08:55:18.000Z</time>
      </trkpt>
      <trkpt lat="45.71473" lon="4.59098">
        <ele>700.4</ele>
        <time>2020-06-14T08:55:19.000Z</time>
      </trkpt>
      <trkpt lat="45.7147" lon="4.59096">
        <ele>700.4</ele>
        <time>2020-06-14T08:55:20.000Z</time>
      </trkpt>
      <trkpt lat="45.71468" lon="4.59094">
        <ele>700.4</ele>
        <time>2020-06-14T08:55:21.000Z</time>
      </trkpt>
      <trkpt lat="45.71464" lon="4.59092">
        <ele>700.4</ele>
        <time>2020-06-14T08:55:22.000Z</time>
      </trkpt>
      <trkpt lat="45.71461" lon="4.5909">
        <ele>700.6</ele>
        <time>2020-06-14T08:55:23.000Z</time>
      </trkpt>
      <trkpt lat="45.71459" lon="4.59088">
        <ele>700.4</ele>
        <time>2020-06-14T08:55:24.000Z</time>
      </trkpt>
      <trkpt lat="45.71456" lon="4.59087">
        <ele>700.6</ele>
        <time>2020-06-14T08:55:25.000Z</time>
      </trkpt>
      <trkpt lat="45.71453" lon="4.59085">
        <ele>700.8</ele>
        <time>2020-06-14T08:55:26.000Z</time>
      </trkpt>
      <trkpt lat="45.71447" lon="4.59082">
        <ele>701.2</ele>
        <time>2020-06-14T08:55:28.000Z</time>
      </trkpt>
      <trkpt lat="45.71444" lon="4.59081">
        <ele>701.2</ele>
        <time>2020-06-14T08:55:29.000Z</time>
      </trkpt>
      <trkpt lat="45.71441" lon="4.5908">
        <ele>701.4</ele>
        <time>2020-06-14T08:55:30.000Z</time>
      </trkpt>
      <trkpt lat="45.71438" lon="4.59079">
        <ele>701.4</ele>
        <time>2020-06-14T08:55:31.000Z</time>
      </trkpt>
      <trkpt lat="45.71436" lon="4.59078">
        <ele>701.4</ele>
        <time>2020-06-14T08:55:32.000Z</time>
      </trkpt>
      <trkpt lat="45.71434" lon="4.59078">
        <ele>701.4</ele>
        <time>2020-06-14T08:55:33.000Z</time>
      </trkpt>
      <trkpt lat="45.71432" lon="4.59078">
        <ele>701.6</ele>
        <time>2020-06-14T08:55:34.000Z</time>
      </trkpt>
      <trkpt lat="45.71415" lon="4.59071">
        <ele>700</ele>
        <time>2020-06-14T08:56:10.000Z</time>
      </trkpt>
      <trkpt lat="45.71414" lon="4.59071">
        <ele>700</ele>
        <time>2020-06-14T08:56:11.000Z</time>
      </trkpt>
      <trkpt lat="45.71413" lon="4.59071">
        <ele>700.2</ele>
        <time>2020-06-14T08:56:12.000Z</time>
      </trkpt>
      <trkpt lat="45.71409" lon="4.59071">
        <ele>700</ele>
        <time>2020-06-14T08:56:14.000Z</time>
      </trkpt>
      <trkpt lat="45.71404" lon="4.5907">
        <ele>699.8</ele>
        <time>2020-06-14T08:56:16.000Z</time>
      </trkpt>
      <trkpt lat="45.71401" lon="4.5907">
        <ele>699.8</ele>
        <time>2020-06-14T08:56:17.000Z</time>
      </trkpt>
      <trkpt lat="45.71393" lon="4.5907">
        <ele>699.4</ele>
        <time>2020-06-14T08:56:19.000Z</time>
      </trkpt>
      <trkpt lat="45.71389" lon="4.5907">
        <ele>699.2</ele>
        <time>2020-06-14T08:56:20.000Z</time>
      </trkpt>
      <trkpt lat="45.71386" lon="4.59072">
        <ele>699</ele>
        <time>2020-06-14T08:56:21.000Z</time>
      </trkpt>
      <trkpt lat="45.71382" lon="4.59074">
        <ele>698.8</ele>
        <time>2020-06-14T08:56:22.000Z</time>
      </trkpt>
      <trkpt lat="45.71378" lon="4.59077">
        <ele>698.6</ele>
        <time>2020-06-14T08:56:23.000Z</time>
      </trkpt>
      <trkpt lat="45.71374" lon="4.5908">
        <ele>698.2</ele>
        <time>2020-06-14T08:56:24.000Z</time>
      </trkpt>
      <trkpt lat="45.7137" lon="4.59083">
        <ele>697.8</ele>
        <time>2020-06-14T08:56:25.000Z</time>
      </trkpt>
      <trkpt lat="45.71365" lon="4.59086">
        <ele>697.8</ele>
        <time>2020-06-14T08:56:26.000Z</time>
      </trkpt>
      <trkpt lat="45.7136" lon="4.5909">
        <ele>697.6</ele>
        <time>2020-06-14T08:56:27.000Z</time>
      </trkpt>
      <trkpt lat="45.71355" lon="4.59094">
        <ele>697</ele>
        <time>2020-06-14T08:56:28.000Z</time>
      </trkpt>
      <trkpt lat="45.71344" lon="4.59101">
        <ele>695.8</ele>
        <time>2020-06-14T08:56:30.000Z</time>
      </trkpt>
      <trkpt lat="45.71339" lon="4.59105">
        <ele>695</ele>
        <time>2020-06-14T08:56:31.000Z</time>
      </trkpt>
      <trkpt lat="45.71334" lon="4.59107">
        <ele>694</ele>
        <time>2020-06-14T08:56:32.000Z</time>
      </trkpt>
      <trkpt lat="45.71329" lon="4.5911">
        <ele>693.2</ele>
        <time>2020-06-14T08:56:33.000Z</time>
      </trkpt>
      <trkpt lat="45.71326" lon="4.59112">
        <ele>692.2</ele>
        <time>2020-06-14T08:56:34.000Z</time>
      </trkpt>
      <trkpt lat="45.71323" lon="4.59113">
        <ele>691.2</ele>
        <time>2020-06-14T08:56:35.000Z</time>
      </trkpt>
      <trkpt lat="45.71321" lon="4.59114">
        <ele>690.2</ele>
        <time>2020-06-14T08:56:36.000Z</time>
      </trkpt>
      <trkpt lat="45.71319" lon="4.59114">
        <ele>690.2</ele>
        <time>2020-06-14T08:56:37.000Z</time>
      </trkpt>
      <trkpt lat="45.71317" lon="4.59115">
        <ele>687.6</ele>
        <time>2020-06-14T08:56:39.000Z</time>
      </trkpt>
      <trkpt lat="45.71317" lon="4.59115">
        <ele>686.6</ele>
        <time>2020-06-14T08:56:40.000Z</time>
      </trkpt>
      <trkpt lat="45.71321" lon="4.59115">
        <ele>685</ele>
        <time>2020-06-14T08:57:50.000Z</time>
      </trkpt>
      <trkpt lat="45.71324" lon="4.59115">
        <ele>685.2</ele>
        <time>2020-06-14T08:57:51.000Z</time>
      </trkpt>
      <trkpt lat="45.71326" lon="4.59115">
        <ele>685</ele>
        <time>2020-06-14T08:57:52.000Z</time>
      </trkpt>
      <trkpt lat="45.7133" lon="4.59115">
        <ele>685</ele>
        <time>2020-06-14T08:57:53.000Z</time>
      </trkpt>
      <trkpt lat="45.71334" lon="4.59115">
        <ele>685</ele>
        <time>2020-06-14T08:57:54.000Z</time>
      </trkpt>
      <trkpt lat="45.71339" lon="4.59115">
        <ele>685</ele>
        <time>2020-06-14T08:57:55.000Z</time>
      </trkpt>
      <trkpt lat="45.71344" lon="4.59115">
        <ele>685</ele>
        <time>2020-06-14T08:57:56.000Z</time>
      </trkpt>
      <trkpt lat="45.71349" lon="4.59116">
        <ele>685</ele>
        <time>2020-06-14T08:57:57.000Z</time>
      </trkpt>
      <trkpt lat="45.71354" lon="4.59117">
        <ele>684.8</ele>
        <time>2020-06-14T08:57:58.000Z</time>
      </trkpt>
      <trkpt lat="45.71359" lon="4.5912">
        <ele>684.6</ele>
        <time>2020-06-14T08:57:59.000Z</time>
      </trkpt>
      <trkpt lat="45.71364" lon="4.59123">
        <ele>684.6</ele>
        <time>2020-06-14T08:58:00.000Z</time>
      </trkpt>
      <trkpt lat="45.71369" lon="4.59129">
        <ele>684.4</ele>
        <time>2020-06-14T08:58:01.000Z</time>
      </trkpt>
      <trkpt lat="45.71374" lon="4.59135">
        <ele>683.8</ele>
        <time>2020-06-14T08:58:02.000Z</time>
      </trkpt>
      <trkpt lat="45.71378" lon="4.59142">
        <ele>682.8</ele>
        <time>2020-06-14T08:58:03.000Z</time>
      </trkpt>
      <trkpt lat="45.71383" lon="4.59149">
        <ele>681.8</ele>
        <time>2020-06-14T08:58:04.000Z</time>
      </trkpt>
      <trkpt lat="45.7139" lon="4.59155">
        <ele>680.8</ele>
        <time>2020-06-14T08:58:05.000Z</time>
      </trkpt>
      <trkpt lat="45.71396" lon="4.5916">
        <ele>680.4</ele>
        <time>2020-06-14T08:58:06.000Z</time>
      </trkpt>
      <trkpt lat="45.71403" lon="4.59165">
        <ele>679.8</ele>
        <time>2020-06-14T08:58:07.000Z</time>
      </trkpt>
      <trkpt lat="45.71409" lon="4.59169">
        <ele>679.4</ele>
        <time>2020-06-14T08:58:08.000Z</time>
      </trkpt>
      <trkpt lat="45.71415" lon="4.59175">
        <ele>679.2</ele>
        <time>2020-06-14T08:58:09.000Z</time>
      </trkpt>
      <trkpt lat="45.7142" lon="4.59183">
        <ele>679</ele>
        <time>2020-06-14T08:58:10.000Z</time>
      </trkpt>
      <trkpt lat="45.71423" lon="4.59191">
        <ele>678.4</ele>
        <time>2020-06-14T08:58:11.000Z</time>
      </trkpt>
      <trkpt lat="45.71424" lon="4.592">
        <ele>677.4</ele>
        <time>2020-06-14T08:58:12.000Z</time>
      </trkpt>
      <trkpt lat="45.71425" lon="4.59207">
        <ele>677</ele>
        <time>2020-06-14T08:58:13.000Z</time>
      </trkpt>
      <trkpt lat="45.71425" lon="4.59215">
        <ele>676.8</ele>
        <time>2020-06-14T08:58:14.000Z</time>
      </trkpt>
      <trkpt lat="45.71425" lon="4.59222">
        <ele>676.4</ele>
        <time>2020-06-14T08:58:15.000Z</time>
      </trkpt>
      <trkpt lat="45.71424" lon="4.5923">
        <ele>676.4</ele>
        <time>2020-06-14T08:58:16.000Z</time>
      </trkpt>
      <trkpt lat="45.71424" lon="4.59238">
        <ele>676.4</ele>
        <time>2020-06-14T08:58:17.000Z</time>
      </trkpt>
      <trkpt lat="45.71423" lon="4.59246">
        <ele>676.4</ele>
        <time>2020-06-14T08:58:18.000Z</time>
      </trkpt>
      <trkpt lat="45.71422" lon="4.59254">
        <ele>676.2</ele>
        <time>2020-06-14T08:58:19.000Z</time>
      </trkpt>
      <trkpt lat="45.71421" lon="4.59263">
        <ele>676.2</ele>
        <time>2020-06-14T08:58:20.000Z</time>
      </trkpt>
      <trkpt lat="45.71419" lon="4.59272">
        <ele>676</ele>
        <time>2020-06-14T08:58:21.000Z</time>
      </trkpt>
      <trkpt lat="45.71418" lon="4.5928">
        <ele>676</ele>
        <time>2020-06-14T08:58:22.000Z</time>
      </trkpt>
      <trkpt lat="45.71417" lon="4.59287">
        <ele>675.8</ele>
        <time>2020-06-14T08:58:23.000Z</time>
      </trkpt>
      <trkpt lat="45.71416" lon="4.59294">
        <ele>675.8</ele>
        <time>2020-06-14T08:58:24.000Z</time>
      </trkpt>
      <trkpt lat="45.71416" lon="4.59309">
        <ele>675.6</ele>
        <time>2020-06-14T08:58:26.000Z</time>
      </trkpt>
      <trkpt lat="45.71415" lon="4.59326">
        <ele>675.6</ele>
        <time>2020-06-14T08:58:28.000Z</time>
      </trkpt>
      <trkpt lat="45.71414" lon="4.59336">
        <ele>675.6</ele>
        <time>2020-06-14T08:58:29.000Z</time>
      </trkpt>
      <trkpt lat="45.71415" lon="4.59369">
        <ele>675.2</ele>
        <time>2020-06-14T08:58:32.000Z</time>
      </trkpt>
      <trkpt lat="45.71415" lon="4.5938">
        <ele>675</ele>
        <time>2020-06-14T08:58:33.000Z</time>
      </trkpt>
      <trkpt lat="45.71416" lon="4.5939">
        <ele>675</ele>
        <time>2020-06-14T08:58:34.000Z</time>
      </trkpt>
      <trkpt lat="45.71417" lon="4.594">
        <ele>674.8</ele>
        <time>2020-06-14T08:58:35.000Z</time>
      </trkpt>
      <trkpt lat="45.71419" lon="4.59408">
        <ele>674.8</ele>
        <time>2020-06-14T08:58:36.000Z</time>
      </trkpt>
      <trkpt lat="45.7142" lon="4.59416">
        <ele>673.8</ele>
        <time>2020-06-14T08:58:37.000Z</time>
      </trkpt>
      <trkpt lat="45.7142" lon="4.59424">
        <ele>673.4</ele>
        <time>2020-06-14T08:58:38.000Z</time>
      </trkpt>
      <trkpt lat="45.71421" lon="4.59431">
        <ele>673.4</ele>
        <time>2020-06-14T08:58:39.000Z</time>
      </trkpt>
      <trkpt lat="45.71421" lon="4.59438">
        <ele>673.2</ele>
        <time>2020-06-14T08:58:40.000Z</time>
      </trkpt>
      <trkpt lat="45.71422" lon="4.59445">
        <ele>673.2</ele>
        <time>2020-06-14T08:58:41.000Z</time>
      </trkpt>
      <trkpt lat="45.71422" lon="4.59452">
        <ele>673</ele>
        <time>2020-06-14T08:58:42.000Z</time>
      </trkpt>
      <trkpt lat="45.71423" lon="4.59459">
        <ele>673.2</ele>
        <time>2020-06-14T08:58:43.000Z</time>
      </trkpt>
      <trkpt lat="45.71423" lon="4.59467">
        <ele>673.2</ele>
        <time>2020-06-14T08:58:44.000Z</time>
      </trkpt>
      <trkpt lat="45.71424" lon="4.59474">
        <ele>673.2</ele>
        <time>2020-06-14T08:58:45.000Z</time>
      </trkpt>
      <trkpt lat="45.71423" lon="4.59482">
        <ele>673</ele>
        <time>2020-06-14T08:58:46.000Z</time>
      </trkpt>
      <trkpt lat="45.71421" lon="4.59507">
        <ele>673</ele>
        <time>2020-06-14T08:58:49.000Z</time>
      </trkpt>
      <trkpt lat="45.7142" lon="4.59515">
        <ele>673</ele>
        <time>2020-06-14T08:58:50.000Z</time>
      </trkpt>
      <trkpt lat="45.71419" lon="4.59531">
        <ele>673</ele>
        <time>2020-06-14T08:58:52.000Z</time>
      </trkpt>
      <trkpt lat="45.71418" lon="4.59538">
        <ele>673</ele>
        <time>2020-06-14T08:58:53.000Z</time>
      </trkpt>
      <trkpt lat="45.71416" lon="4.59561">
        <ele>673</ele>
        <time>2020-06-14T08:58:56.000Z</time>
      </trkpt>
      <trkpt lat="45.71416" lon="4.5957">
        <ele>673</ele>
        <time>2020-06-14T08:58:57.000Z</time>
      </trkpt>
      <trkpt lat="45.71416" lon="4.59578">
        <ele>673</ele>
        <time>2020-06-14T08:58:58.000Z</time>
      </trkpt>
      <trkpt lat="45.71416" lon="4.59586">
        <ele>673</ele>
        <time>2020-06-14T08:58:59.000Z</time>
      </trkpt>
      <trkpt lat="45.71416" lon="4.59594">
        <ele>672.8</ele>
        <time>2020-06-14T08:59:00.000Z</time>
      </trkpt>
      <trkpt lat="45.71417" lon="4.59602">
        <ele>672.8</ele>
        <time>2020-06-14T08:59:01.000Z</time>
      </trkpt>
      <trkpt lat="45.71418" lon="4.5961">
        <ele>672.8</ele>
        <time>2020-06-14T08:59:02.000Z</time>
      </trkpt>
      <trkpt lat="45.71419" lon="4.59617">
        <ele>672.8</ele>
        <time>2020-06-14T08:59:03.000Z</time>
      </trkpt>
      <trkpt lat="45.71421" lon="4.59633">
        <ele>672.8</ele>
        <time>2020-06-14T08:59:05.000Z</time>
      </trkpt>
      <trkpt lat="45.71422" lon="4.59641">
        <ele>672.8</ele>
        <time>2020-06-14T08:59:06.000Z</time>
      </trkpt>
      <trkpt lat="45.71424" lon="4.59649">
        <ele>672.8</ele>
        <time>2020-06-14T08:59:07.000Z</time>
      </trkpt>
      <trkpt lat="45.71427" lon="4.59656">
        <ele>672.8</ele>
        <time>2020-06-14T08:59:08.000Z</time>
      </trkpt>
      <trkpt lat="45.71434" lon="4.59679">
        <ele>672.8</ele>
        <time>2020-06-14T08:59:11.000Z</time>
      </trkpt>
      <trkpt lat="45.71441" lon="4.59693">
        <ele>672.6</ele>
        <time>2020-06-14T08:59:13.000Z</time>
      </trkpt>
      <trkpt lat="45.71444" lon="4.59699">
        <ele>672.4</ele>
        <time>2020-06-14T08:59:14.000Z</time>
      </trkpt>
      <trkpt lat="45.71448" lon="4.59704">
        <ele>672.4</ele>
        <time>2020-06-14T08:59:15.000Z</time>
      </trkpt>
      <trkpt lat="45.71451" lon="4.5971">
        <ele>672.4</ele>
        <time>2020-06-14T08:59:16.000Z</time>
      </trkpt>
      <trkpt lat="45.71455" lon="4.59715">
        <ele>672.4</ele>
        <time>2020-06-14T08:59:17.000Z</time>
      </trkpt>
      <trkpt lat="45.71459" lon="4.5972">
        <ele>672.4</ele>
        <time>2020-06-14T08:59:18.000Z</time>
      </trkpt>
      <trkpt lat="45.71463" lon="4.59725">
        <ele>672.4</ele>
        <time>2020-06-14T08:59:19.000Z</time>
      </trkpt>
      <trkpt lat="45.71466" lon="4.59729">
        <ele>672.4</ele>
        <time>2020-06-14T08:59:20.000Z</time>
      </trkpt>
      <trkpt lat="45.7147" lon="4.59735">
        <ele>672.4</ele>
        <time>2020-06-14T08:59:21.000Z</time>
      </trkpt>
      <trkpt lat="45.71474" lon="4.5974">
        <ele>672.4</ele>
        <time>2020-06-14T08:59:22.000Z</time>
      </trkpt>
      <trkpt lat="45.71482" lon="4.59751">
        <ele>672.4</ele>
        <time>2020-06-14T08:59:24.000Z</time>
      </trkpt>
      <trkpt lat="45.71486" lon="4.59756">
        <ele>672.4</ele>
        <time>2020-06-14T08:59:25.000Z</time>
      </trkpt>
      <trkpt lat="45.7149" lon="4.59762">
        <ele>672.4</ele>
        <time>2020-06-14T08:59:26.000Z</time>
      </trkpt>
      <trkpt lat="45.71494" lon="4.59767">
        <ele>672.4</ele>
        <time>2020-06-14T08:59:27.000Z</time>
      </trkpt>
      <trkpt lat="45.71506" lon="4.59783">
        <ele>672.4</ele>
        <time>2020-06-14T08:59:30.000Z</time>
      </trkpt>
      <trkpt lat="45.71511" lon="4.59788">
        <ele>672.4</ele>
        <time>2020-06-14T08:59:31.000Z</time>
      </trkpt>
      <trkpt lat="45.71517" lon="4.59792">
        <ele>672.4</ele>
        <time>2020-06-14T08:59:32.000Z</time>
      </trkpt>
      <trkpt lat="45.71522" lon="4.59795">
        <ele>672.2</ele>
        <time>2020-06-14T08:59:33.000Z</time>
      </trkpt>
      <trkpt lat="45.71527" lon="4.59797">
        <ele>672.2</ele>
        <time>2020-06-14T08:59:34.000Z</time>
      </trkpt>
      <trkpt lat="45.71531" lon="4.59799">
        <ele>672.4</ele>
        <time>2020-06-14T08:59:35.000Z</time>
      </trkpt>
      <trkpt lat="45.71536" lon="4.59799">
        <ele>672.2</ele>
        <time>2020-06-14T08:59:36.000Z</time>
      </trkpt>
      <trkpt lat="45.71549" lon="4.59796">
        <ele>672.4</ele>
        <time>2020-06-14T08:59:39.000Z</time>
      </trkpt>
      <trkpt lat="45.71553" lon="4.59794">
        <ele>672.4</ele>
        <time>2020-06-14T08:59:40.000Z</time>
      </trkpt>
      <trkpt lat="45.71557" lon="4.59792">
        <ele>672.4</ele>
        <time>2020-06-14T08:59:41.000Z</time>
      </trkpt>
      <trkpt lat="45.7156" lon="4.5979">
        <ele>672.4</ele>
        <time>2020-06-14T08:59:42.000Z</time>
      </trkpt>
      <trkpt lat="45.71564" lon="4.59788">
        <ele>672.2</ele>
        <time>2020-06-14T08:59:43.000Z</time>
      </trkpt>
      <trkpt lat="45.71568" lon="4.59786">
        <ele>672.4</ele>
        <time>2020-06-14T08:59:44.000Z</time>
      </trkpt>
      <trkpt lat="45.71571" lon="4.59783">
        <ele>672.4</ele>
        <time>2020-06-14T08:59:45.000Z</time>
      </trkpt>
      <trkpt lat="45.71575" lon="4.59781">
        <ele>672.6</ele>
        <time>2020-06-14T08:59:46.000Z</time>
      </trkpt>
      <trkpt lat="45.71579" lon="4.59779">
        <ele>672.6</ele>
        <time>2020-06-14T08:59:47.000Z</time>
      </trkpt>
      <trkpt lat="45.71583" lon="4.59776">
        <ele>672.6</ele>
        <time>2020-06-14T08:59:48.000Z</time>
      </trkpt>
      <trkpt lat="45.71586" lon="4.59773">
        <ele>673.2</ele>
        <time>2020-06-14T08:59:49.000Z</time>
      </trkpt>
      <trkpt lat="45.71591" lon="4.5977">
        <ele>673.6</ele>
        <time>2020-06-14T08:59:50.000Z</time>
      </trkpt>
      <trkpt lat="45.71594" lon="4.59767">
        <ele>673.8</ele>
        <time>2020-06-14T08:59:51.000Z</time>
      </trkpt>
      <trkpt lat="45.71597" lon="4.59764">
        <ele>674</ele>
        <time>2020-06-14T08:59:52.000Z</time>
      </trkpt>
      <trkpt lat="45.716" lon="4.59761">
        <ele>674</ele>
        <time>2020-06-14T08:59:53.000Z</time>
      </trkpt>
      <trkpt lat="45.71603" lon="4.59759">
        <ele>674.2</ele>
        <time>2020-06-14T08:59:54.000Z</time>
      </trkpt>
      <trkpt lat="45.71607" lon="4.59757">
        <ele>674.2</ele>
        <time>2020-06-14T08:59:55.000Z</time>
      </trkpt>
      <trkpt lat="45.7161" lon="4.59755">
        <ele>674.4</ele>
        <time>2020-06-14T08:59:56.000Z</time>
      </trkpt>
      <trkpt lat="45.71615" lon="4.59754">
        <ele>674.4</ele>
        <time>2020-06-14T08:59:57.000Z</time>
      </trkpt>
      <trkpt lat="45.71619" lon="4.59751">
        <ele>674.6</ele>
        <time>2020-06-14T08:59:58.000Z</time>
      </trkpt>
      <trkpt lat="45.71623" lon="4.59748">
        <ele>674.4</ele>
        <time>2020-06-14T08:59:59.000Z</time>
      </trkpt>
      <trkpt lat="45.71637" lon="4.59735">
        <ele>674.4</ele>
        <time>2020-06-14T09:00:02.000Z</time>
      </trkpt>
      <trkpt lat="45.7164" lon="4.59732">
        <ele>674.6</ele>
        <time>2020-06-14T09:00:03.000Z</time>
      </trkpt>
      <trkpt lat="45.71643" lon="4.59729">
        <ele>674.6</ele>
        <time>2020-06-14T09:00:04.000Z</time>
      </trkpt>
      <trkpt lat="45.71646" lon="4.59727">
        <ele>674.6</ele>
        <time>2020-06-14T09:00:05.000Z</time>
      </trkpt>
      <trkpt lat="45.7165" lon="4.59724">
        <ele>674.4</ele>
        <time>2020-06-14T09:00:06.000Z</time>
      </trkpt>
      <trkpt lat="45.71658" lon="4.59719">
        <ele>674.2</ele>
        <time>2020-06-14T09:00:08.000Z</time>
      </trkpt>
      <trkpt lat="45.71663" lon="4.59716">
        <ele>673.8</ele>
        <time>2020-06-14T09:00:09.000Z</time>
      </trkpt>
      <trkpt lat="45.71667" lon="4.59714">
        <ele>673</ele>
        <time>2020-06-14T09:00:10.000Z</time>
      </trkpt>
      <trkpt lat="45.71672" lon="4.59711">
        <ele>672.8</ele>
        <time>2020-06-14T09:00:11.000Z</time>
      </trkpt>
      <trkpt lat="45.71676" lon="4.59709">
        <ele>672.6</ele>
        <time>2020-06-14T09:00:12.000Z</time>
      </trkpt>
      <trkpt lat="45.7168" lon="4.59709">
        <ele>672.8</ele>
        <time>2020-06-14T09:00:13.000Z</time>
      </trkpt>
      <trkpt lat="45.71684" lon="4.59709">
        <ele>672.6</ele>
        <time>2020-06-14T09:00:14.000Z</time>
      </trkpt>
      <trkpt lat="45.71688" lon="4.59708">
        <ele>672.6</ele>
        <time>2020-06-14T09:00:15.000Z</time>
      </trkpt>
      <trkpt lat="45.71692" lon="4.59707">
        <ele>672.6</ele>
        <time>2020-06-14T09:00:16.000Z</time>
      </trkpt>
      <trkpt lat="45.71696" lon="4.59706">
        <ele>672.6</ele>
        <time>2020-06-14T09:00:17.000Z</time>
      </trkpt>
      <trkpt lat="45.717" lon="4.59705">
        <ele>672.6</ele>
        <time>2020-06-14T09:00:18.000Z</time>
      </trkpt>
      <trkpt lat="45.71704" lon="4.59705">
        <ele>672.4</ele>
        <time>2020-06-14T09:00:19.000Z</time>
      </trkpt>
      <trkpt lat="45.71712" lon="4.59703">
        <ele>672.6</ele>
        <time>2020-06-14T09:00:21.000Z</time>
      </trkpt>
      <trkpt lat="45.71726" lon="4.59698">
        <ele>672.4</ele>
        <time>2020-06-14T09:00:24.000Z</time>
      </trkpt>
      <trkpt lat="45.7173" lon="4.59696">
        <ele>672.2</ele>
        <time>2020-06-14T09:00:25.000Z</time>
      </trkpt>
      <trkpt lat="45.71734" lon="4.59693">
        <ele>672.4</ele>
        <time>2020-06-14T09:00:26.000Z</time>
      </trkpt>
      <trkpt lat="45.71737" lon="4.59691">
        <ele>672.6</ele>
        <time>2020-06-14T09:00:27.000Z</time>
      </trkpt>
      <trkpt lat="45.71742" lon="4.59689">
        <ele>672.6</ele>
        <time>2020-06-14T09:00:28.000Z</time>
      </trkpt>
      <trkpt lat="45.71746" lon="4.59687">
        <ele>672.8</ele>
        <time>2020-06-14T09:00:29.000Z</time>
      </trkpt>
      <trkpt lat="45.7175" lon="4.59685">
        <ele>673</ele>
        <time>2020-06-14T09:00:30.000Z</time>
      </trkpt>
      <trkpt lat="45.71754" lon="4.59682">
        <ele>673</ele>
        <time>2020-06-14T09:00:31.000Z</time>
      </trkpt>
      <trkpt lat="45.71757" lon="4.59681">
        <ele>672.8</ele>
        <time>2020-06-14T09:00:32.000Z</time>
      </trkpt>
      <trkpt lat="45.71761" lon="4.59679">
        <ele>673</ele>
        <time>2020-06-14T09:00:33.000Z</time>
      </trkpt>
      <trkpt lat="45.71764" lon="4.59676">
        <ele>673</ele>
        <time>2020-06-14T09:00:34.000Z</time>
      </trkpt>
      <trkpt lat="45.71767" lon="4.59674">
        <ele>673.2</ele>
        <time>2020-06-14T09:00:35.000Z</time>
      </trkpt>
      <trkpt lat="45.7177" lon="4.59671">
        <ele>673</ele>
        <time>2020-06-14T09:00:36.000Z</time>
      </trkpt>
      <trkpt lat="45.71773" lon="4.59669">
        <ele>673</ele>
        <time>2020-06-14T09:00:37.000Z</time>
      </trkpt>
      <trkpt lat="45.71776" lon="4.59667">
        <ele>673</ele>
        <time>2020-06-14T09:00:38.000Z</time>
      </trkpt>
      <trkpt lat="45.71779" lon="4.59665">
        <ele>673</ele>
        <time>2020-06-14T09:00:39.000Z</time>
      </trkpt>
      <trkpt lat="45.71781" lon="4.59664">
        <ele>673</ele>
        <time>2020-06-14T09:00:40.000Z</time>
      </trkpt>
      <trkpt lat="45.71783" lon="4.59662">
        <ele>673</ele>
        <time>2020-06-14T09:00:41.000Z</time>
      </trkpt>
      <trkpt lat="45.71786" lon="4.59661">
        <ele>673</ele>
        <time>2020-06-14T09:00:42.000Z</time>
      </trkpt>
      <trkpt lat="45.71792" lon="4.59658">
        <ele>673</ele>
        <time>2020-06-14T09:00:44.000Z</time>
      </trkpt>
      <trkpt lat="45.71795" lon="4.59657">
        <ele>673</ele>
        <time>2020-06-14T09:00:45.000Z</time>
      </trkpt>
      <trkpt lat="45.718" lon="4.59657">
        <ele>673.2</ele>
        <time>2020-06-14T09:00:46.000Z</time>
      </trkpt>
      <trkpt lat="45.71805" lon="4.59659">
        <ele>673</ele>
        <time>2020-06-14T09:00:47.000Z</time>
      </trkpt>
      <trkpt lat="45.7181" lon="4.59659">
        <ele>673</ele>
        <time>2020-06-14T09:00:48.000Z</time>
      </trkpt>
      <trkpt lat="45.71814" lon="4.59658">
        <ele>673</ele>
        <time>2020-06-14T09:00:49.000Z</time>
      </trkpt>
      <trkpt lat="45.71823" lon="4.59655">
        <ele>673</ele>
        <time>2020-06-14T09:00:51.000Z</time>
      </trkpt>
      <trkpt lat="45.71828" lon="4.59653">
        <ele>673</ele>
        <time>2020-06-14T09:00:52.000Z</time>
      </trkpt>
      <trkpt lat="45.71833" lon="4.59653">
        <ele>673</ele>
        <time>2020-06-14T09:00:53.000Z</time>
      </trkpt>
      <trkpt lat="45.71838" lon="4.59653">
        <ele>672.8</ele>
        <time>2020-06-14T09:00:54.000Z</time>
      </trkpt>
      <trkpt lat="45.71844" lon="4.59652">
        <ele>672.6</ele>
        <time>2020-06-14T09:00:55.000Z</time>
      </trkpt>
      <trkpt lat="45.71849" lon="4.59651">
        <ele>672.4</ele>
        <time>2020-06-14T09:00:56.000Z</time>
      </trkpt>
      <trkpt lat="45.71854" lon="4.59651">
        <ele>672.4</ele>
        <time>2020-06-14T09:00:57.000Z</time>
      </trkpt>
      <trkpt lat="45.71859" lon="4.59652">
        <ele>671.8</ele>
        <time>2020-06-14T09:00:58.000Z</time>
      </trkpt>
      <trkpt lat="45.71865" lon="4.59654">
        <ele>671.4</ele>
        <time>2020-06-14T09:00:59.000Z</time>
      </trkpt>
      <trkpt lat="45.71869" lon="4.59656">
        <ele>671.2</ele>
        <time>2020-06-14T09:01:00.000Z</time>
      </trkpt>
      <trkpt lat="45.71874" lon="4.59659">
        <ele>671.2</ele>
        <time>2020-06-14T09:01:01.000Z</time>
      </trkpt>
      <trkpt lat="45.71879" lon="4.59663">
        <ele>670.6</ele>
        <time>2020-06-14T09:01:02.000Z</time>
      </trkpt>
      <trkpt lat="45.71882" lon="4.59666">
        <ele>670.6</ele>
        <time>2020-06-14T09:01:03.000Z</time>
      </trkpt>
      <trkpt lat="45.71884" lon="4.5967">
        <ele>670.4</ele>
        <time>2020-06-14T09:01:04.000Z</time>
      </trkpt>
      <trkpt lat="45.71886" lon="4.59674">
        <ele>670.2</ele>
        <time>2020-06-14T09:01:05.000Z</time>
      </trkpt>
      <trkpt lat="45.71888" lon="4.59677">
        <ele>670.2</ele>
        <time>2020-06-14T09:01:06.000Z</time>
      </trkpt>
      <trkpt lat="45.7189" lon="4.59681">
        <ele>670</ele>
        <time>2020-06-14T09:01:07.000Z</time>
      </trkpt>
      <trkpt lat="45.71892" lon="4.59687">
        <ele>669.8</ele>
        <time>2020-06-14T09:01:08.000Z</time>
      </trkpt>
      <trkpt lat="45.71897" lon="4.59699">
        <ele>669.8</ele>
        <time>2020-06-14T09:01:10.000Z</time>
      </trkpt>
      <trkpt lat="45.71899" lon="4.59706">
        <ele>669.6</ele>
        <time>2020-06-14T09:01:11.000Z</time>
      </trkpt>
      <trkpt lat="45.71901" lon="4.59713">
        <ele>669.6</ele>
        <time>2020-06-14T09:01:12.000Z</time>
      </trkpt>
      <trkpt lat="45.71903" lon="4.5972">
        <ele>669.4</ele>
        <time>2020-06-14T09:01:13.000Z</time>
      </trkpt>
      <trkpt lat="45.71905" lon="4.59726">
        <ele>669.4</ele>
        <time>2020-06-14T09:01:14.000Z</time>
      </trkpt>
      <trkpt lat="45.71907" lon="4.59733">
        <ele>669.4</ele>
        <time>2020-06-14T09:01:15.000Z</time>
      </trkpt>
      <trkpt lat="45.71908" lon="4.5974">
        <ele>669.4</ele>
        <time>2020-06-14T09:01:16.000Z</time>
      </trkpt>
      <trkpt lat="45.71908" lon="4.59746">
        <ele>669.2</ele>
        <time>2020-06-14T09:01:17.000Z</time>
      </trkpt>
      <trkpt lat="45.71909" lon="4.59752">
        <ele>669.4</ele>
        <time>2020-06-14T09:01:18.000Z</time>
      </trkpt>
      <trkpt lat="45.71909" lon="4.59758">
        <ele>669.2</ele>
        <time>2020-06-14T09:01:19.000Z</time>
      </trkpt>
      <trkpt lat="45.7191" lon="4.59764">
        <ele>669.4</ele>
        <time>2020-06-14T09:01:20.000Z</time>
      </trkpt>
      <trkpt lat="45.7191" lon="4.59769">
        <ele>669.4</ele>
        <time>2020-06-14T09:01:21.000Z</time>
      </trkpt>
      <trkpt lat="45.7191" lon="4.59775">
        <ele>669.4</ele>
        <time>2020-06-14T09:01:22.000Z</time>
      </trkpt>
      <trkpt lat="45.7191" lon="4.59782">
        <ele>669.4</ele>
        <time>2020-06-14T09:01:23.000Z</time>
      </trkpt>
      <trkpt lat="45.7191" lon="4.59788">
        <ele>669.4</ele>
        <time>2020-06-14T09:01:24.000Z</time>
      </trkpt>
      <trkpt lat="45.71908" lon="4.59794">
        <ele>669.8</ele>
        <time>2020-06-14T09:01:25.000Z</time>
      </trkpt>
      <trkpt lat="45.71908" lon="4.59801">
        <ele>669.8</ele>
        <time>2020-06-14T09:01:26.000Z</time>
      </trkpt>
      <trkpt lat="45.71906" lon="4.59814">
        <ele>670.2</ele>
        <time>2020-06-14T09:01:28.000Z</time>
      </trkpt>
      <trkpt lat="45.71901" lon="4.59837">
        <ele>670.4</ele>
        <time>2020-06-14T09:01:31.000Z</time>
      </trkpt>
      <trkpt lat="45.71898" lon="4.59846">
        <ele>670.4</ele>
        <time>2020-06-14T09:01:32.000Z</time>
      </trkpt>
      <trkpt lat="45.71896" lon="4.59853">
        <ele>670.4</ele>
        <time>2020-06-14T09:01:33.000Z</time>
      </trkpt>
      <trkpt lat="45.7189" lon="4.59879">
        <ele>670.4</ele>
        <time>2020-06-14T09:01:36.000Z</time>
      </trkpt>
      <trkpt lat="45.71888" lon="4.59895">
        <ele>670.2</ele>
        <time>2020-06-14T09:01:38.000Z</time>
      </trkpt>
      <trkpt lat="45.71888" lon="4.59904">
        <ele>670.4</ele>
        <time>2020-06-14T09:01:39.000Z</time>
      </trkpt>
      <trkpt lat="45.71888" lon="4.59912">
        <ele>670</ele>
        <time>2020-06-14T09:01:40.000Z</time>
      </trkpt>
      <trkpt lat="45.71888" lon="4.5992">
        <ele>669.8</ele>
        <time>2020-06-14T09:01:41.000Z</time>
      </trkpt>
      <trkpt lat="45.71889" lon="4.59928">
        <ele>669.8</ele>
        <time>2020-06-14T09:01:42.000Z</time>
      </trkpt>
      <trkpt lat="45.71889" lon="4.59936">
        <ele>669.6</ele>
        <time>2020-06-14T09:01:43.000Z</time>
      </trkpt>
      <trkpt lat="45.71888" lon="4.59944">
        <ele>669.4</ele>
        <time>2020-06-14T09:01:44.000Z</time>
      </trkpt>
      <trkpt lat="45.71888" lon="4.59961">
        <ele>669.2</ele>
        <time>2020-06-14T09:01:46.000Z</time>
      </trkpt>
      <trkpt lat="45.71887" lon="4.59969">
        <ele>669.4</ele>
        <time>2020-06-14T09:01:47.000Z</time>
      </trkpt>
      <trkpt lat="45.71887" lon="4.59997">
        <ele>669.2</ele>
        <time>2020-06-14T09:01:50.000Z</time>
      </trkpt>
      <trkpt lat="45.71889" lon="4.60015">
        <ele>669</ele>
        <time>2020-06-14T09:01:52.000Z</time>
      </trkpt>
      <trkpt lat="45.7189" lon="4.60024">
        <ele>668.8</ele>
        <time>2020-06-14T09:01:53.000Z</time>
      </trkpt>
      <trkpt lat="45.71892" lon="4.60033">
        <ele>668.6</ele>
        <time>2020-06-14T09:01:54.000Z</time>
      </trkpt>
      <trkpt lat="45.71893" lon="4.60041">
        <ele>668.8</ele>
        <time>2020-06-14T09:01:55.000Z</time>
      </trkpt>
      <trkpt lat="45.71895" lon="4.60048">
        <ele>668.8</ele>
        <time>2020-06-14T09:01:56.000Z</time>
      </trkpt>
      <trkpt lat="45.71899" lon="4.60055">
        <ele>668.8</ele>
        <time>2020-06-14T09:01:57.000Z</time>
      </trkpt>
      <trkpt lat="45.71902" lon="4.60061">
        <ele>668.8</ele>
        <time>2020-06-14T09:01:58.000Z</time>
      </trkpt>
      <trkpt lat="45.71905" lon="4.60067">
        <ele>669</ele>
        <time>2020-06-14T09:01:59.000Z</time>
      </trkpt>
      <trkpt lat="45.71908" lon="4.60073">
        <ele>668.8</ele>
        <time>2020-06-14T09:02:00.000Z</time>
      </trkpt>
      <trkpt lat="45.71912" lon="4.60079">
        <ele>668.8</ele>
        <time>2020-06-14T09:02:01.000Z</time>
      </trkpt>
      <trkpt lat="45.71915" lon="4.60085">
        <ele>668.8</ele>
        <time>2020-06-14T09:02:02.000Z</time>
      </trkpt>
      <trkpt lat="45.71919" lon="4.60091">
        <ele>668.8</ele>
        <time>2020-06-14T09:02:03.000Z</time>
      </trkpt>
      <trkpt lat="45.71923" lon="4.60095">
        <ele>668.8</ele>
        <time>2020-06-14T09:02:04.000Z</time>
      </trkpt>
      <trkpt lat="45.71927" lon="4.60099">
        <ele>668.6</ele>
        <time>2020-06-14T09:02:05.000Z</time>
      </trkpt>
      <trkpt lat="45.7193" lon="4.60102">
        <ele>668.8</ele>
        <time>2020-06-14T09:02:06.000Z</time>
      </trkpt>
      <trkpt lat="45.71933" lon="4.60105">
        <ele>668.8</ele>
        <time>2020-06-14T09:02:07.000Z</time>
      </trkpt>
      <trkpt lat="45.71936" lon="4.60107">
        <ele>668.8</ele>
        <time>2020-06-14T09:02:08.000Z</time>
      </trkpt>
      <trkpt lat="45.71939" lon="4.60109">
        <ele>669</ele>
        <time>2020-06-14T09:02:09.000Z</time>
      </trkpt>
      <trkpt lat="45.71941" lon="4.60109">
        <ele>669</ele>
        <time>2020-06-14T09:02:10.000Z</time>
      </trkpt>
      <trkpt lat="45.71943" lon="4.60109">
        <ele>669.2</ele>
        <time>2020-06-14T09:02:11.000Z</time>
      </trkpt>
      <trkpt lat="45.71948" lon="4.6011">
        <ele>669.2</ele>
        <time>2020-06-14T09:02:13.000Z</time>
      </trkpt>
      <trkpt lat="45.7195" lon="4.6011">
        <ele>669.2</ele>
        <time>2020-06-14T09:02:14.000Z</time>
      </trkpt>
      <trkpt lat="45.71951" lon="4.60111">
        <ele>669.4</ele>
        <time>2020-06-14T09:02:15.000Z</time>
      </trkpt>
      <trkpt lat="45.71953" lon="4.60113">
        <ele>669.4</ele>
        <time>2020-06-14T09:02:16.000Z</time>
      </trkpt>
      <trkpt lat="45.71955" lon="4.60113">
        <ele>669.4</ele>
        <time>2020-06-14T09:02:17.000Z</time>
      </trkpt>
      <trkpt lat="45.71957" lon="4.60114">
        <ele>669.4</ele>
        <time>2020-06-14T09:02:18.000Z</time>
      </trkpt>
      <trkpt lat="45.7196" lon="4.60113">
        <ele>669.4</ele>
        <time>2020-06-14T09:02:19.000Z</time>
      </trkpt>
      <trkpt lat="45.71962" lon="4.60113">
        <ele>669.4</ele>
        <time>2020-06-14T09:02:20.000Z</time>
      </trkpt>
      <trkpt lat="45.71965" lon="4.60112">
        <ele>669.4</ele>
        <time>2020-06-14T09:02:21.000Z</time>
      </trkpt>
      <trkpt lat="45.71967" lon="4.60112">
        <ele>669.4</ele>
        <time>2020-06-14T09:02:22.000Z</time>
      </trkpt>
      <trkpt lat="45.71968" lon="4.60111">
        <ele>669.4</ele>
        <time>2020-06-14T09:02:23.000Z</time>
      </trkpt>
      <trkpt lat="45.71971" lon="4.60111">
        <ele>669.6</ele>
        <time>2020-06-14T09:02:24.000Z</time>
      </trkpt>
      <trkpt lat="45.71973" lon="4.60111">
        <ele>670</ele>
        <time>2020-06-14T09:02:25.000Z</time>
      </trkpt>
      <trkpt lat="45.71977" lon="4.60112">
        <ele>670</ele>
        <time>2020-06-14T09:02:26.000Z</time>
      </trkpt>
      <trkpt lat="45.7198" lon="4.60113">
        <ele>670</ele>
        <time>2020-06-14T09:02:27.000Z</time>
      </trkpt>
      <trkpt lat="45.71986" lon="4.60114">
        <ele>670</ele>
        <time>2020-06-14T09:02:28.000Z</time>
      </trkpt>
      <trkpt lat="45.71991" lon="4.60113">
        <ele>670</ele>
        <time>2020-06-14T09:02:29.000Z</time>
      </trkpt>
      <trkpt lat="45.71996" lon="4.60113">
        <ele>670</ele>
        <time>2020-06-14T09:02:30.000Z</time>
      </trkpt>
      <trkpt lat="45.72002" lon="4.60112">
        <ele>670</ele>
        <time>2020-06-14T09:02:31.000Z</time>
      </trkpt>
      <trkpt lat="45.72007" lon="4.60111">
        <ele>670</ele>
        <time>2020-06-14T09:02:32.000Z</time>
      </trkpt>
      <trkpt lat="45.72013" lon="4.60111">
        <ele>670</ele>
        <time>2020-06-14T09:02:33.000Z</time>
      </trkpt>
      <trkpt lat="45.72019" lon="4.60111">
        <ele>670</ele>
        <time>2020-06-14T09:02:34.000Z</time>
      </trkpt>
      <trkpt lat="45.72024" lon="4.60111">
        <ele>670</ele>
        <time>2020-06-14T09:02:35.000Z</time>
      </trkpt>
      <trkpt lat="45.7203" lon="4.6011">
        <ele>669.4</ele>
        <time>2020-06-14T09:02:36.000Z</time>
      </trkpt>
      <trkpt lat="45.72035" lon="4.6011">
        <ele>668.4</ele>
        <time>2020-06-14T09:02:37.000Z</time>
      </trkpt>
      <trkpt lat="45.72039" lon="4.60109">
        <ele>668</ele>
        <time>2020-06-14T09:02:38.000Z</time>
      </trkpt>
      <trkpt lat="45.72044" lon="4.60109">
        <ele>667.8</ele>
        <time>2020-06-14T09:02:39.000Z</time>
      </trkpt>
      <trkpt lat="45.72049" lon="4.60109">
        <ele>667.8</ele>
        <time>2020-06-14T09:02:40.000Z</time>
      </trkpt>
      <trkpt lat="45.72055" lon="4.60109">
        <ele>667.4</ele>
        <time>2020-06-14T09:02:41.000Z</time>
      </trkpt>
      <trkpt lat="45.72059" lon="4.60112">
        <ele>667.4</ele>
        <time>2020-06-14T09:02:42.000Z</time>
      </trkpt>
      <trkpt lat="45.72063" lon="4.60115">
        <ele>667.4</ele>
        <time>2020-06-14T09:02:43.000Z</time>
      </trkpt>
      <trkpt lat="45.72066" lon="4.60121">
        <ele>667.4</ele>
        <time>2020-06-14T09:02:44.000Z</time>
      </trkpt>
      <trkpt lat="45.72069" lon="4.60127">
        <ele>667.2</ele>
        <time>2020-06-14T09:02:45.000Z</time>
      </trkpt>
      <trkpt lat="45.72072" lon="4.60134">
        <ele>667.2</ele>
        <time>2020-06-14T09:02:46.000Z</time>
      </trkpt>
      <trkpt lat="45.72077" lon="4.60151">
        <ele>667</ele>
        <time>2020-06-14T09:02:48.000Z</time>
      </trkpt>
      <trkpt lat="45.7209" lon="4.6018">
        <ele>666.8</ele>
        <time>2020-06-14T09:02:51.000Z</time>
      </trkpt>
      <trkpt lat="45.72094" lon="4.60188">
        <ele>666.8</ele>
        <time>2020-06-14T09:02:52.000Z</time>
      </trkpt>
      <trkpt lat="45.72098" lon="4.60195">
        <ele>666.8</ele>
        <time>2020-06-14T09:02:53.000Z</time>
      </trkpt>
      <trkpt lat="45.72101" lon="4.60202">
        <ele>666.8</ele>
        <time>2020-06-14T09:02:54.000Z</time>
      </trkpt>
      <trkpt lat="45.72104" lon="4.60208">
        <ele>666.8</ele>
        <time>2020-06-14T09:02:55.000Z</time>
      </trkpt>
      <trkpt lat="45.72107" lon="4.60216">
        <ele>666.8</ele>
        <time>2020-06-14T09:02:56.000Z</time>
      </trkpt>
      <trkpt lat="45.7211" lon="4.60223">
        <ele>666.8</ele>
        <time>2020-06-14T09:02:57.000Z</time>
      </trkpt>
      <trkpt lat="45.72117" lon="4.60237">
        <ele>666.8</ele>
        <time>2020-06-14T09:02:59.000Z</time>
      </trkpt>
      <trkpt lat="45.72119" lon="4.60244">
        <ele>666.6</ele>
        <time>2020-06-14T09:03:00.000Z</time>
      </trkpt>
      <trkpt lat="45.72121" lon="4.60253">
        <ele>666.8</ele>
        <time>2020-06-14T09:03:01.000Z</time>
      </trkpt>
      <trkpt lat="45.72124" lon="4.60261">
        <ele>666.8</ele>
        <time>2020-06-14T09:03:02.000Z</time>
      </trkpt>
      <trkpt lat="45.72124" lon="4.6027">
        <ele>666.8</ele>
        <time>2020-06-14T09:03:03.000Z</time>
      </trkpt>
      <trkpt lat="45.72124" lon="4.60279">
        <ele>666.8</ele>
        <time>2020-06-14T09:03:04.000Z</time>
      </trkpt>
      <trkpt lat="45.72123" lon="4.60288">
        <ele>666.8</ele>
        <time>2020-06-14T09:03:05.000Z</time>
      </trkpt>
      <trkpt lat="45.72121" lon="4.60298">
        <ele>666.8</ele>
        <time>2020-06-14T09:03:06.000Z</time>
      </trkpt>
      <trkpt lat="45.7212" lon="4.60306">
        <ele>667</ele>
        <time>2020-06-14T09:03:07.000Z</time>
      </trkpt>
      <trkpt lat="45.72119" lon="4.60314">
        <ele>667.2</ele>
        <time>2020-06-14T09:03:08.000Z</time>
      </trkpt>
      <trkpt lat="45.72119" lon="4.60321">
        <ele>667.2</ele>
        <time>2020-06-14T09:03:09.000Z</time>
      </trkpt>
      <trkpt lat="45.72118" lon="4.60329">
        <ele>667.4</ele>
        <time>2020-06-14T09:03:10.000Z</time>
      </trkpt>
      <trkpt lat="45.72117" lon="4.60335">
        <ele>667.4</ele>
        <time>2020-06-14T09:03:11.000Z</time>
      </trkpt>
      <trkpt lat="45.72115" lon="4.60341">
        <ele>667.4</ele>
        <time>2020-06-14T09:03:12.000Z</time>
      </trkpt>
      <trkpt lat="45.72114" lon="4.60346">
        <ele>667.6</ele>
        <time>2020-06-14T09:03:13.000Z</time>
      </trkpt>
      <trkpt lat="45.72113" lon="4.6035">
        <ele>667.6</ele>
        <time>2020-06-14T09:03:14.000Z</time>
      </trkpt>
      <trkpt lat="45.72112" lon="4.60356">
        <ele>667.6</ele>
        <time>2020-06-14T09:03:15.000Z</time>
      </trkpt>
      <trkpt lat="45.7211" lon="4.60363">
        <ele>667.8</ele>
        <time>2020-06-14T09:03:16.000Z</time>
      </trkpt>
      <trkpt lat="45.72107" lon="4.60376">
        <ele>668</ele>
        <time>2020-06-14T09:03:18.000Z</time>
      </trkpt>
      <trkpt lat="45.72107" lon="4.60383">
        <ele>668.2</ele>
        <time>2020-06-14T09:03:19.000Z</time>
      </trkpt>
      <trkpt lat="45.72107" lon="4.60389">
        <ele>668.4</ele>
        <time>2020-06-14T09:03:20.000Z</time>
      </trkpt>
      <trkpt lat="45.72109" lon="4.60395">
        <ele>668.4</ele>
        <time>2020-06-14T09:03:21.000Z</time>
      </trkpt>
      <trkpt lat="45.72112" lon="4.604">
        <ele>668.4</ele>
        <time>2020-06-14T09:03:22.000Z</time>
      </trkpt>
      <trkpt lat="45.72114" lon="4.60404">
        <ele>668.6</ele>
        <time>2020-06-14T09:03:23.000Z</time>
      </trkpt>
      <trkpt lat="45.72117" lon="4.60409">
        <ele>668.6</ele>
        <time>2020-06-14T09:03:24.000Z</time>
      </trkpt>
      <trkpt lat="45.72119" lon="4.60414">
        <ele>668.8</ele>
        <time>2020-06-14T09:03:25.000Z</time>
      </trkpt>
      <trkpt lat="45.72121" lon="4.60418">
        <ele>669</ele>
        <time>2020-06-14T09:03:26.000Z</time>
      </trkpt>
      <trkpt lat="45.72123" lon="4.60423">
        <ele>668.8</ele>
        <time>2020-06-14T09:03:27.000Z</time>
      </trkpt>
      <trkpt lat="45.72126" lon="4.60427">
        <ele>669</ele>
        <time>2020-06-14T09:03:28.000Z</time>
      </trkpt>
      <trkpt lat="45.72128" lon="4.60433">
        <ele>669.2</ele>
        <time>2020-06-14T09:03:29.000Z</time>
      </trkpt>
      <trkpt lat="45.72129" lon="4.60437">
        <ele>669.2</ele>
        <time>2020-06-14T09:03:30.000Z</time>
      </trkpt>
      <trkpt lat="45.72131" lon="4.60441">
        <ele>669.2</ele>
        <time>2020-06-14T09:03:31.000Z</time>
      </trkpt>
      <trkpt lat="45.72132" lon="4.60445">
        <ele>669.2</ele>
        <time>2020-06-14T09:03:32.000Z</time>
      </trkpt>
      <trkpt lat="45.72134" lon="4.6045">
        <ele>669.6</ele>
        <time>2020-06-14T09:03:33.000Z</time>
      </trkpt>
      <trkpt lat="45.72136" lon="4.60455">
        <ele>669.6</ele>
        <time>2020-06-14T09:03:34.000Z</time>
      </trkpt>
      <trkpt lat="45.72138" lon="4.60461">
        <ele>669.6</ele>
        <time>2020-06-14T09:03:35.000Z</time>
      </trkpt>
      <trkpt lat="45.72142" lon="4.60476">
        <ele>669.6</ele>
        <time>2020-06-14T09:03:37.000Z</time>
      </trkpt>
      <trkpt lat="45.72144" lon="4.60483">
        <ele>669.6</ele>
        <time>2020-06-14T09:03:38.000Z</time>
      </trkpt>
      <trkpt lat="45.72147" lon="4.60491">
        <ele>669.6</ele>
        <time>2020-06-14T09:03:39.000Z</time>
      </trkpt>
      <trkpt lat="45.72149" lon="4.60498">
        <ele>669.6</ele>
        <time>2020-06-14T09:03:40.000Z</time>
      </trkpt>
      <trkpt lat="45.72151" lon="4.60505">
        <ele>669.6</ele>
        <time>2020-06-14T09:03:41.000Z</time>
      </trkpt>
      <trkpt lat="45.72152" lon="4.60513">
        <ele>669.6</ele>
        <time>2020-06-14T09:03:42.000Z</time>
      </trkpt>
      <trkpt lat="45.72154" lon="4.6052">
        <ele>669.8</ele>
        <time>2020-06-14T09:03:43.000Z</time>
      </trkpt>
      <trkpt lat="45.72156" lon="4.60527">
        <ele>669.2</ele>
        <time>2020-06-14T09:03:44.000Z</time>
      </trkpt>
      <trkpt lat="45.72158" lon="4.60535">
        <ele>668.8</ele>
        <time>2020-06-14T09:03:45.000Z</time>
      </trkpt>
      <trkpt lat="45.72162" lon="4.60549">
        <ele>668</ele>
        <time>2020-06-14T09:03:47.000Z</time>
      </trkpt>
      <trkpt lat="45.72165" lon="4.60555">
        <ele>667.8</ele>
        <time>2020-06-14T09:03:48.000Z</time>
      </trkpt>
      <trkpt lat="45.72168" lon="4.60562">
        <ele>667.6</ele>
        <time>2020-06-14T09:03:49.000Z</time>
      </trkpt>
      <trkpt lat="45.72171" lon="4.60568">
        <ele>667.8</ele>
        <time>2020-06-14T09:03:50.000Z</time>
      </trkpt>
      <trkpt lat="45.72175" lon="4.60574">
        <ele>667.6</ele>
        <time>2020-06-14T09:03:51.000Z</time>
      </trkpt>
      <trkpt lat="45.72177" lon="4.60579">
        <ele>667.8</ele>
        <time>2020-06-14T09:03:52.000Z</time>
      </trkpt>
      <trkpt lat="45.72179" lon="4.60584">
        <ele>667.6</ele>
        <time>2020-06-14T09:03:53.000Z</time>
      </trkpt>
      <trkpt lat="45.7218" lon="4.60589">
        <ele>667.4</ele>
        <time>2020-06-14T09:03:54.000Z</time>
      </trkpt>
      <trkpt lat="45.72182" lon="4.60593">
        <ele>667.2</ele>
        <time>2020-06-14T09:03:55.000Z</time>
      </trkpt>
      <trkpt lat="45.72184" lon="4.60596">
        <ele>667</ele>
        <time>2020-06-14T09:03:56.000Z</time>
      </trkpt>
      <trkpt lat="45.72186" lon="4.60599">
        <ele>667</ele>
        <time>2020-06-14T09:03:57.000Z</time>
      </trkpt>
      <trkpt lat="45.72188" lon="4.60602">
        <ele>667</ele>
        <time>2020-06-14T09:03:58.000Z</time>
      </trkpt>
      <trkpt lat="45.72193" lon="4.60609">
        <ele>666.8</ele>
        <time>2020-06-14T09:04:00.000Z</time>
      </trkpt>
      <trkpt lat="45.72197" lon="4.60613">
        <ele>666.8</ele>
        <time>2020-06-14T09:04:01.000Z</time>
      </trkpt>
      <trkpt lat="45.722" lon="4.60617">
        <ele>666.8</ele>
        <time>2020-06-14T09:04:02.000Z</time>
      </trkpt>
      <trkpt lat="45.72208" lon="4.60626">
        <ele>666.6</ele>
        <time>2020-06-14T09:04:04.000Z</time>
      </trkpt>
      <trkpt lat="45.72212" lon="4.6063">
        <ele>666.6</ele>
        <time>2020-06-14T09:04:05.000Z</time>
      </trkpt>
      <trkpt lat="45.72227" lon="4.60642">
        <ele>666</ele>
        <time>2020-06-14T09:04:08.000Z</time>
      </trkpt>
      <trkpt lat="45.72233" lon="4.60646">
        <ele>665.6</ele>
        <time>2020-06-14T09:04:09.000Z</time>
      </trkpt>
      <trkpt lat="45.72238" lon="4.60649">
        <ele>665.4</ele>
        <time>2020-06-14T09:04:10.000Z</time>
      </trkpt>
      <trkpt lat="45.72243" lon="4.60652">
        <ele>665.2</ele>
        <time>2020-06-14T09:04:11.000Z</time>
      </trkpt>
      <trkpt lat="45.72247" lon="4.60656">
        <ele>665</ele>
        <time>2020-06-14T09:04:12.000Z</time>
      </trkpt>
      <trkpt lat="45.72251" lon="4.60659">
        <ele>664.8</ele>
        <time>2020-06-14T09:04:13.000Z</time>
      </trkpt>
      <trkpt lat="45.72255" lon="4.60661">
        <ele>664.6</ele>
        <time>2020-06-14T09:04:14.000Z</time>
      </trkpt>
      <trkpt lat="45.72259" lon="4.60664">
        <ele>664.6</ele>
        <time>2020-06-14T09:04:15.000Z</time>
      </trkpt>
      <trkpt lat="45.72262" lon="4.60667">
        <ele>664.6</ele>
        <time>2020-06-14T09:04:16.000Z</time>
      </trkpt>
      <trkpt lat="45.72266" lon="4.60671">
        <ele>664.6</ele>
        <time>2020-06-14T09:04:17.000Z</time>
      </trkpt>
      <trkpt lat="45.72279" lon="4.60681">
        <ele>664</ele>
        <time>2020-06-14T09:04:20.000Z</time>
      </trkpt>
      <trkpt lat="45.72294" lon="4.60693">
        <ele>663.8</ele>
        <time>2020-06-14T09:04:23.000Z</time>
      </trkpt>
      <trkpt lat="45.72311" lon="4.60704">
        <ele>663.6</ele>
        <time>2020-06-14T09:04:26.000Z</time>
      </trkpt>
      <trkpt lat="45.72317" lon="4.60707">
        <ele>663.6</ele>
        <time>2020-06-14T09:04:27.000Z</time>
      </trkpt>
      <trkpt lat="45.72323" lon="4.60709">
        <ele>663.6</ele>
        <time>2020-06-14T09:04:28.000Z</time>
      </trkpt>
      <trkpt lat="45.72329" lon="4.6071">
        <ele>663.4</ele>
        <time>2020-06-14T09:04:29.000Z</time>
      </trkpt>
      <trkpt lat="45.72335" lon="4.60711">
        <ele>663.6</ele>
        <time>2020-06-14T09:04:30.000Z</time>
      </trkpt>
      <trkpt lat="45.72341" lon="4.60711">
        <ele>663.4</ele>
        <time>2020-06-14T09:04:31.000Z</time>
      </trkpt>
      <trkpt lat="45.72347" lon="4.60712">
        <ele>663.2</ele>
        <time>2020-06-14T09:04:32.000Z</time>
      </trkpt>
      <trkpt lat="45.72352" lon="4.60712">
        <ele>663.2</ele>
        <time>2020-06-14T09:04:33.000Z</time>
      </trkpt>
      <trkpt lat="45.72374" lon="4.6071">
        <ele>663</ele>
        <time>2020-06-14T09:04:37.000Z</time>
      </trkpt>
      <trkpt lat="45.72379" lon="4.60709">
        <ele>663.2</ele>
        <time>2020-06-14T09:04:38.000Z</time>
      </trkpt>
      <trkpt lat="45.72385" lon="4.60709">
        <ele>663</ele>
        <time>2020-06-14T09:04:39.000Z</time>
      </trkpt>
      <trkpt lat="45.72389" lon="4.60708">
        <ele>663</ele>
        <time>2020-06-14T09:04:40.000Z</time>
      </trkpt>
      <trkpt lat="45.72394" lon="4.60707">
        <ele>663</ele>
        <time>2020-06-14T09:04:41.000Z</time>
      </trkpt>
      <trkpt lat="45.72399" lon="4.60706">
        <ele>663.2</ele>
        <time>2020-06-14T09:04:42.000Z</time>
      </trkpt>
      <trkpt lat="45.72403" lon="4.60706">
        <ele>663.2</ele>
        <time>2020-06-14T09:04:43.000Z</time>
      </trkpt>
      <trkpt lat="45.72408" lon="4.60705">
        <ele>663.2</ele>
        <time>2020-06-14T09:04:44.000Z</time>
      </trkpt>
      <trkpt lat="45.72413" lon="4.60705">
        <ele>663.2</ele>
        <time>2020-06-14T09:04:45.000Z</time>
      </trkpt>
      <trkpt lat="45.72417" lon="4.60704">
        <ele>663.4</ele>
        <time>2020-06-14T09:04:46.000Z</time>
      </trkpt>
      <trkpt lat="45.72422" lon="4.60703">
        <ele>663.6</ele>
        <time>2020-06-14T09:04:47.000Z</time>
      </trkpt>
      <trkpt lat="45.72427" lon="4.60701">
        <ele>664.2</ele>
        <time>2020-06-14T09:04:48.000Z</time>
      </trkpt>
      <trkpt lat="45.72432" lon="4.607">
        <ele>664.6</ele>
        <time>2020-06-14T09:04:49.000Z</time>
      </trkpt>
      <trkpt lat="45.72436" lon="4.60699">
        <ele>665</ele>
        <time>2020-06-14T09:04:50.000Z</time>
      </trkpt>
      <trkpt lat="45.7244" lon="4.60699">
        <ele>665.4</ele>
        <time>2020-06-14T09:04:51.000Z</time>
      </trkpt>
      <trkpt lat="45.72445" lon="4.60698">
        <ele>665.8</ele>
        <time>2020-06-14T09:04:52.000Z</time>
      </trkpt>
      <trkpt lat="45.72455" lon="4.60698">
        <ele>666</ele>
        <time>2020-06-14T09:04:54.000Z</time>
      </trkpt>
      <trkpt lat="45.72459" lon="4.60698">
        <ele>666</ele>
        <time>2020-06-14T09:04:55.000Z</time>
      </trkpt>
      <trkpt lat="45.72464" lon="4.607">
        <ele>666.2</ele>
        <time>2020-06-14T09:04:56.000Z</time>
      </trkpt>
      <trkpt lat="45.72468" lon="4.60704">
        <ele>666</ele>
        <time>2020-06-14T09:04:57.000Z</time>
      </trkpt>
      <trkpt lat="45.7247" lon="4.60708">
        <ele>666</ele>
        <time>2020-06-14T09:04:58.000Z</time>
      </trkpt>
      <trkpt lat="45.72472" lon="4.60713">
        <ele>665.8</ele>
        <time>2020-06-14T09:04:59.000Z</time>
      </trkpt>
      <trkpt lat="45.72474" lon="4.60725">
        <ele>666</ele>
        <time>2020-06-14T09:05:01.000Z</time>
      </trkpt>
      <trkpt lat="45.72474" lon="4.60732">
        <ele>666</ele>
        <time>2020-06-14T09:05:02.000Z</time>
      </trkpt>
      <trkpt lat="45.72475" lon="4.6074">
        <ele>665.8</ele>
        <time>2020-06-14T09:05:03.000Z</time>
      </trkpt>
      <trkpt lat="45.72476" lon="4.60747">
        <ele>666</ele>
        <time>2020-06-14T09:05:04.000Z</time>
      </trkpt>
      <trkpt lat="45.72477" lon="4.60755">
        <ele>666</ele>
        <time>2020-06-14T09:05:05.000Z</time>
      </trkpt>
      <trkpt lat="45.72477" lon="4.60763">
        <ele>666</ele>
        <time>2020-06-14T09:05:06.000Z</time>
      </trkpt>
      <trkpt lat="45.72476" lon="4.60769">
        <ele>666</ele>
        <time>2020-06-14T09:05:07.000Z</time>
      </trkpt>
      <trkpt lat="45.72474" lon="4.60777">
        <ele>666</ele>
        <time>2020-06-14T09:05:08.000Z</time>
      </trkpt>
      <trkpt lat="45.72473" lon="4.60784">
        <ele>666</ele>
        <time>2020-06-14T09:05:09.000Z</time>
      </trkpt>
      <trkpt lat="45.72471" lon="4.60792">
        <ele>666</ele>
        <time>2020-06-14T09:05:10.000Z</time>
      </trkpt>
      <trkpt lat="45.7247" lon="4.608">
        <ele>665.8</ele>
        <time>2020-06-14T09:05:11.000Z</time>
      </trkpt>
      <trkpt lat="45.72468" lon="4.6081">
        <ele>665.8</ele>
        <time>2020-06-14T09:05:12.000Z</time>
      </trkpt>
      <trkpt lat="45.72467" lon="4.60818">
        <ele>665.8</ele>
        <time>2020-06-14T09:05:13.000Z</time>
      </trkpt>
      <trkpt lat="45.72465" lon="4.60826">
        <ele>665.6</ele>
        <time>2020-06-14T09:05:14.000Z</time>
      </trkpt>
      <trkpt lat="45.7246" lon="4.60853">
        <ele>665.4</ele>
        <time>2020-06-14T09:05:17.000Z</time>
      </trkpt>
      <trkpt lat="45.72459" lon="4.60863">
        <ele>665.4</ele>
        <time>2020-06-14T09:05:18.000Z</time>
      </trkpt>
      <trkpt lat="45.72458" lon="4.60871">
        <ele>665.2</ele>
        <time>2020-06-14T09:05:19.000Z</time>
      </trkpt>
      <trkpt lat="45.72455" lon="4.60917">
        <ele>665</ele>
        <time>2020-06-14T09:05:24.000Z</time>
      </trkpt>
      <trkpt lat="45.72455" lon="4.60926">
        <ele>665</ele>
        <time>2020-06-14T09:05:25.000Z</time>
      </trkpt>
      <trkpt lat="45.72456" lon="4.60934">
        <ele>665</ele>
        <time>2020-06-14T09:05:26.000Z</time>
      </trkpt>
      <trkpt lat="45.72456" lon="4.60943">
        <ele>665</ele>
        <time>2020-06-14T09:05:27.000Z</time>
      </trkpt>
      <trkpt lat="45.72455" lon="4.60952">
        <ele>665</ele>
        <time>2020-06-14T09:05:28.000Z</time>
      </trkpt>
      <trkpt lat="45.72455" lon="4.60961">
        <ele>665.2</ele>
        <time>2020-06-14T09:05:29.000Z</time>
      </trkpt>
      <trkpt lat="45.72454" lon="4.60971">
        <ele>665</ele>
        <time>2020-06-14T09:05:30.000Z</time>
      </trkpt>
      <trkpt lat="45.72453" lon="4.60981">
        <ele>664.8</ele>
        <time>2020-06-14T09:05:31.000Z</time>
      </trkpt>
      <trkpt lat="45.72453" lon="4.6099">
        <ele>665</ele>
        <time>2020-06-14T09:05:32.000Z</time>
      </trkpt>
      <trkpt lat="45.72452" lon="4.60999">
        <ele>665</ele>
        <time>2020-06-14T09:05:33.000Z</time>
      </trkpt>
      <trkpt lat="45.72452" lon="4.61007">
        <ele>664.8</ele>
        <time>2020-06-14T09:05:34.000Z</time>
      </trkpt>
      <trkpt lat="45.72452" lon="4.61016">
        <ele>664.6</ele>
        <time>2020-06-14T09:05:35.000Z</time>
      </trkpt>
      <trkpt lat="45.72451" lon="4.61048">
        <ele>664.4</ele>
        <time>2020-06-14T09:05:38.000Z</time>
      </trkpt>
      <trkpt lat="45.7245" lon="4.61069">
        <ele>664.2</ele>
        <time>2020-06-14T09:05:40.000Z</time>
      </trkpt>
      <trkpt lat="45.72451" lon="4.6108">
        <ele>664.2</ele>
        <time>2020-06-14T09:05:41.000Z</time>
      </trkpt>
      <trkpt lat="45.7245" lon="4.61091">
        <ele>664.2</ele>
        <time>2020-06-14T09:05:42.000Z</time>
      </trkpt>
      <trkpt lat="45.7245" lon="4.61101">
        <ele>664</ele>
        <time>2020-06-14T09:05:43.000Z</time>
      </trkpt>
      <trkpt lat="45.72448" lon="4.61121">
        <ele>663.8</ele>
        <time>2020-06-14T09:05:45.000Z</time>
      </trkpt>
      <trkpt lat="45.72446" lon="4.61131">
        <ele>663.8</ele>
        <time>2020-06-14T09:05:46.000Z</time>
      </trkpt>
      <trkpt lat="45.72444" lon="4.6115">
        <ele>663.8</ele>
        <time>2020-06-14T09:05:48.000Z</time>
      </trkpt>
      <trkpt lat="45.72442" lon="4.6116">
        <ele>663.6</ele>
        <time>2020-06-14T09:05:49.000Z</time>
      </trkpt>
      <trkpt lat="45.7244" lon="4.61169">
        <ele>663.4</ele>
        <time>2020-06-14T09:05:50.000Z</time>
      </trkpt>
      <trkpt lat="45.72438" lon="4.61178">
        <ele>663.4</ele>
        <time>2020-06-14T09:05:51.000Z</time>
      </trkpt>
      <trkpt lat="45.72437" lon="4.61187">
        <ele>663.4</ele>
        <time>2020-06-14T09:05:52.000Z</time>
      </trkpt>
      <trkpt lat="45.72436" lon="4.61195">
        <ele>663.4</ele>
        <time>2020-06-14T09:05:53.000Z</time>
      </trkpt>
      <trkpt lat="45.72434" lon="4.61203">
        <ele>663.4</ele>
        <time>2020-06-14T09:05:54.000Z</time>
      </trkpt>
      <trkpt lat="45.72434" lon="4.6121">
        <ele>663.4</ele>
        <time>2020-06-14T09:05:55.000Z</time>
      </trkpt>
      <trkpt lat="45.72433" lon="4.61217">
        <ele>663.4</ele>
        <time>2020-06-14T09:05:56.000Z</time>
      </trkpt>
      <trkpt lat="45.72434" lon="4.61224">
        <ele>663.6</ele>
        <time>2020-06-14T09:05:57.000Z</time>
      </trkpt>
      <trkpt lat="45.72436" lon="4.6123">
        <ele>663.6</ele>
        <time>2020-06-14T09:05:58.000Z</time>
      </trkpt>
      <trkpt lat="45.72437" lon="4.61236">
        <ele>663.6</ele>
        <time>2020-06-14T09:05:59.000Z</time>
      </trkpt>
      <trkpt lat="45.72438" lon="4.61242">
        <ele>664</ele>
        <time>2020-06-14T09:06:00.000Z</time>
      </trkpt>
      <trkpt lat="45.72439" lon="4.61248">
        <ele>664.4</ele>
        <time>2020-06-14T09:06:01.000Z</time>
      </trkpt>
      <trkpt lat="45.72441" lon="4.61253">
        <ele>664.6</ele>
        <time>2020-06-14T09:06:02.000Z</time>
      </trkpt>
      <trkpt lat="45.72442" lon="4.61257">
        <ele>665</ele>
        <time>2020-06-14T09:06:03.000Z</time>
      </trkpt>
      <trkpt lat="45.72443" lon="4.6126">
        <ele>665.2</ele>
        <time>2020-06-14T09:06:04.000Z</time>
      </trkpt>
      <trkpt lat="45.72443" lon="4.61263">
        <ele>665.6</ele>
        <time>2020-06-14T09:06:05.000Z</time>
      </trkpt>
      <trkpt lat="45.72444" lon="4.61266">
        <ele>665.6</ele>
        <time>2020-06-14T09:06:06.000Z</time>
      </trkpt>
      <trkpt lat="45.72444" lon="4.61268">
        <ele>666.8</ele>
        <time>2020-06-14T09:07:46.000Z</time>
      </trkpt>
      <trkpt lat="45.72443" lon="4.61271">
        <ele>666.8</ele>
        <time>2020-06-14T09:07:47.000Z</time>
      </trkpt>
      <trkpt lat="45.72442" lon="4.61274">
        <ele>666.8</ele>
        <time>2020-06-14T09:07:48.000Z</time>
      </trkpt>
      <trkpt lat="45.72441" lon="4.61278">
        <ele>666.8</ele>
        <time>2020-06-14T09:07:49.000Z</time>
      </trkpt>
      <trkpt lat="45.7244" lon="4.61283">
        <ele>666.8</ele>
        <time>2020-06-14T09:07:50.000Z</time>
      </trkpt>
      <trkpt lat="45.72439" lon="4.61288">
        <ele>666.8</ele>
        <time>2020-06-14T09:07:51.000Z</time>
      </trkpt>
      <trkpt lat="45.72439" lon="4.61294">
        <ele>666.6</ele>
        <time>2020-06-14T09:07:52.000Z</time>
      </trkpt>
      <trkpt lat="45.72438" lon="4.61298">
        <ele>666.8</ele>
        <time>2020-06-14T09:07:53.000Z</time>
      </trkpt>
      <trkpt lat="45.72438" lon="4.61301">
        <ele>666.6</ele>
        <time>2020-06-14T09:07:54.000Z</time>
      </trkpt>
      <trkpt lat="45.72439" lon="4.61303">
        <ele>666.4</ele>
        <time>2020-06-14T09:07:55.000Z</time>
      </trkpt>
      <trkpt lat="45.72441" lon="4.61305">
        <ele>666</ele>
        <time>2020-06-14T09:07:56.000Z</time>
      </trkpt>
      <trkpt lat="45.72444" lon="4.61305">
        <ele>665.8</ele>
        <time>2020-06-14T09:07:57.000Z</time>
      </trkpt>
      <trkpt lat="45.72447" lon="4.61305">
        <ele>664.8</ele>
        <time>2020-06-14T09:07:58.000Z</time>
      </trkpt>
      <trkpt lat="45.72451" lon="4.61305">
        <ele>664.4</ele>
        <time>2020-06-14T09:07:59.000Z</time>
      </trkpt>
      <trkpt lat="45.72456" lon="4.61304">
        <ele>663.6</ele>
        <time>2020-06-14T09:08:00.000Z</time>
      </trkpt>
      <trkpt lat="45.72474" lon="4.61299">
        <ele>662.6</ele>
        <time>2020-06-14T09:08:04.000Z</time>
      </trkpt>
      <trkpt lat="45.72478" lon="4.61298">
        <ele>662.6</ele>
        <time>2020-06-14T09:08:05.000Z</time>
      </trkpt>
      <trkpt lat="45.72494" lon="4.61293">
        <ele>661.8</ele>
        <time>2020-06-14T09:08:08.000Z</time>
      </trkpt>
      <trkpt lat="45.72511" lon="4.61285">
        <ele>661.4</ele>
        <time>2020-06-14T09:08:11.000Z</time>
      </trkpt>
      <trkpt lat="45.72517" lon="4.61282">
        <ele>661.4</ele>
        <time>2020-06-14T09:08:12.000Z</time>
      </trkpt>
      <trkpt lat="45.72522" lon="4.61278">
        <ele>661.4</ele>
        <time>2020-06-14T09:08:13.000Z</time>
      </trkpt>
      <trkpt lat="45.72527" lon="4.61273">
        <ele>661.4</ele>
        <time>2020-06-14T09:08:14.000Z</time>
      </trkpt>
      <trkpt lat="45.72532" lon="4.61268">
        <ele>661</ele>
        <time>2020-06-14T09:08:15.000Z</time>
      </trkpt>
      <trkpt lat="45.72536" lon="4.61263">
        <ele>661</ele>
        <time>2020-06-14T09:08:16.000Z</time>
      </trkpt>
      <trkpt lat="45.7254" lon="4.61258">
        <ele>660.8</ele>
        <time>2020-06-14T09:08:17.000Z</time>
      </trkpt>
      <trkpt lat="45.72544" lon="4.61253">
        <ele>660.6</ele>
        <time>2020-06-14T09:08:18.000Z</time>
      </trkpt>
      <trkpt lat="45.72547" lon="4.61247">
        <ele>660.8</ele>
        <time>2020-06-14T09:08:19.000Z</time>
      </trkpt>
      <trkpt lat="45.7255" lon="4.61242">
        <ele>660.6</ele>
        <time>2020-06-14T09:08:20.000Z</time>
      </trkpt>
      <trkpt lat="45.72553" lon="4.61237">
        <ele>660.6</ele>
        <time>2020-06-14T09:08:21.000Z</time>
      </trkpt>
      <trkpt lat="45.72556" lon="4.61233">
        <ele>660.6</ele>
        <time>2020-06-14T09:08:22.000Z</time>
      </trkpt>
      <trkpt lat="45.72559" lon="4.61229">
        <ele>660.6</ele>
        <time>2020-06-14T09:08:23.000Z</time>
      </trkpt>
      <trkpt lat="45.72568" lon="4.61221">
        <ele>660.6</ele>
        <time>2020-06-14T09:08:25.000Z</time>
      </trkpt>
      <trkpt lat="45.72573" lon="4.61217">
        <ele>660.4</ele>
        <time>2020-06-14T09:08:26.000Z</time>
      </trkpt>
      <trkpt lat="45.72579" lon="4.61213">
        <ele>660.2</ele>
        <time>2020-06-14T09:08:27.000Z</time>
      </trkpt>
      <trkpt lat="45.72585" lon="4.6121">
        <ele>660.2</ele>
        <time>2020-06-14T09:08:28.000Z</time>
      </trkpt>
      <trkpt lat="45.72589" lon="4.61209">
        <ele>660.2</ele>
        <time>2020-06-14T09:08:29.000Z</time>
      </trkpt>
      <trkpt lat="45.72593" lon="4.61207">
        <ele>660.2</ele>
        <time>2020-06-14T09:08:30.000Z</time>
      </trkpt>
      <trkpt lat="45.72596" lon="4.61207">
        <ele>660</ele>
        <time>2020-06-14T09:08:31.000Z</time>
      </trkpt>
      <trkpt lat="45.72598" lon="4.61206">
        <ele>660.2</ele>
        <time>2020-06-14T09:08:32.000Z</time>
      </trkpt>
      <trkpt lat="45.72601" lon="4.61207">
        <ele>660</ele>
        <time>2020-06-14T09:08:33.000Z</time>
      </trkpt>
      <trkpt lat="45.72603" lon="4.61207">
        <ele>659.6</ele>
        <time>2020-06-14T09:08:34.000Z</time>
      </trkpt>
      <trkpt lat="45.72605" lon="4.61208">
        <ele>659.4</ele>
        <time>2020-06-14T09:08:35.000Z</time>
      </trkpt>
      <trkpt lat="45.72607" lon="4.61209">
        <ele>659.2</ele>
        <time>2020-06-14T09:08:36.000Z</time>
      </trkpt>
      <trkpt lat="45.72608" lon="4.61211">
        <ele>659.2</ele>
        <time>2020-06-14T09:08:37.000Z</time>
      </trkpt>
      <trkpt lat="45.72611" lon="4.61213">
        <ele>659.2</ele>
        <time>2020-06-14T09:08:38.000Z</time>
      </trkpt>
      <trkpt lat="45.72611" lon="4.61213">
        <ele>659.2</ele>
        <time>2020-06-14T09:08:39.000Z</time>
      </trkpt>
      <trkpt lat="45.72614" lon="4.61215">
        <ele>658.8</ele>
        <time>2020-06-14T09:08:40.000Z</time>
      </trkpt>
      <trkpt lat="45.72621" lon="4.61219">
        <ele>658.8</ele>
        <time>2020-06-14T09:08:43.000Z</time>
      </trkpt>
      <trkpt lat="45.72624" lon="4.6122">
        <ele>658.6</ele>
        <time>2020-06-14T09:08:44.000Z</time>
      </trkpt>
      <trkpt lat="45.7263" lon="4.61224">
        <ele>658.4</ele>
        <time>2020-06-14T09:08:46.000Z</time>
      </trkpt>
      <trkpt lat="45.72634" lon="4.61226">
        <ele>658.4</ele>
        <time>2020-06-14T09:08:47.000Z</time>
      </trkpt>
      <trkpt lat="45.72638" lon="4.61227">
        <ele>658</ele>
        <time>2020-06-14T09:08:48.000Z</time>
      </trkpt>
      <trkpt lat="45.72645" lon="4.61226">
        <ele>657.8</ele>
        <time>2020-06-14T09:08:49.000Z</time>
      </trkpt>
      <trkpt lat="45.72645" lon="4.61226">
        <ele>657.8</ele>
        <time>2020-06-14T09:08:50.000Z</time>
      </trkpt>
      <trkpt lat="45.72652" lon="4.61224">
        <ele>657.6</ele>
        <time>2020-06-14T09:08:51.000Z</time>
      </trkpt>
      <trkpt lat="45.72652" lon="4.61224">
        <ele>657.6</ele>
        <time>2020-06-14T09:08:52.000Z</time>
      </trkpt>
      <trkpt lat="45.72655" lon="4.61223">
        <ele>657.4</ele>
        <time>2020-06-14T09:08:53.000Z</time>
      </trkpt>
      <trkpt lat="45.72658" lon="4.61222">
        <ele>657.4</ele>
        <time>2020-06-14T09:08:54.000Z</time>
      </trkpt>
      <trkpt lat="45.72663" lon="4.6122">
        <ele>657.4</ele>
        <time>2020-06-14T09:08:55.000Z</time>
      </trkpt>
      <trkpt lat="45.72667" lon="4.61218">
        <ele>657.4</ele>
        <time>2020-06-14T09:08:56.000Z</time>
      </trkpt>
      <trkpt lat="45.72674" lon="4.61215">
        <ele>657.4</ele>
        <time>2020-06-14T09:08:57.000Z</time>
      </trkpt>
      <trkpt lat="45.72674" lon="4.61215">
        <ele>657.6</ele>
        <time>2020-06-14T09:08:58.000Z</time>
      </trkpt>
      <trkpt lat="45.72678" lon="4.61213">
        <ele>657.6</ele>
        <time>2020-06-14T09:08:59.000Z</time>
      </trkpt>
      <trkpt lat="45.72683" lon="4.61211">
        <ele>657.8</ele>
        <time>2020-06-14T09:09:00.000Z</time>
      </trkpt>
      <trkpt lat="45.72693" lon="4.61207">
        <ele>657.8</ele>
        <time>2020-06-14T09:09:02.000Z</time>
      </trkpt>
      <trkpt lat="45.72703" lon="4.61203">
        <ele>658.6</ele>
        <time>2020-06-14T09:09:04.000Z</time>
      </trkpt>
      <trkpt lat="45.72707" lon="4.61201">
        <ele>658.8</ele>
        <time>2020-06-14T09:09:05.000Z</time>
      </trkpt>
      <trkpt lat="45.72712" lon="4.61198">
        <ele>659</ele>
        <time>2020-06-14T09:09:06.000Z</time>
      </trkpt>
      <trkpt lat="45.72721" lon="4.61191">
        <ele>659</ele>
        <time>2020-06-14T09:09:08.000Z</time>
      </trkpt>
      <trkpt lat="45.72725" lon="4.61187">
        <ele>659</ele>
        <time>2020-06-14T09:09:09.000Z</time>
      </trkpt>
      <trkpt lat="45.72731" lon="4.6118">
        <ele>659.2</ele>
        <time>2020-06-14T09:09:10.000Z</time>
      </trkpt>
      <trkpt lat="45.72731" lon="4.6118">
        <ele>659</ele>
        <time>2020-06-14T09:09:11.000Z</time>
      </trkpt>
      <trkpt lat="45.72735" lon="4.61178">
        <ele>659.2</ele>
        <time>2020-06-14T09:09:12.000Z</time>
      </trkpt>
      <trkpt lat="45.72738" lon="4.61175">
        <ele>659.2</ele>
        <time>2020-06-14T09:09:13.000Z</time>
      </trkpt>
      <trkpt lat="45.72742" lon="4.61173">
        <ele>659.2</ele>
        <time>2020-06-14T09:09:14.000Z</time>
      </trkpt>
      <trkpt lat="45.72755" lon="4.61166">
        <ele>659</ele>
        <time>2020-06-14T09:09:17.000Z</time>
      </trkpt>
      <trkpt lat="45.7276" lon="4.61163">
        <ele>659</ele>
        <time>2020-06-14T09:09:18.000Z</time>
      </trkpt>
      <trkpt lat="45.7277" lon="4.61157">
        <ele>659</ele>
        <time>2020-06-14T09:09:19.000Z</time>
      </trkpt>
      <trkpt lat="45.72774" lon="4.61154">
        <ele>658.8</ele>
        <time>2020-06-14T09:09:21.000Z</time>
      </trkpt>
      <trkpt lat="45.72778" lon="4.61153">
        <ele>658.8</ele>
        <time>2020-06-14T09:09:22.000Z</time>
      </trkpt>
      <trkpt lat="45.72783" lon="4.61152">
        <ele>658.8</ele>
        <time>2020-06-14T09:09:23.000Z</time>
      </trkpt>
      <trkpt lat="45.72789" lon="4.61153">
        <ele>658.8</ele>
        <time>2020-06-14T09:09:24.000Z</time>
      </trkpt>
      <trkpt lat="45.72793" lon="4.61153">
        <ele>658.6</ele>
        <time>2020-06-14T09:09:25.000Z</time>
      </trkpt>
      <trkpt lat="45.72798" lon="4.61154">
        <ele>658.6</ele>
        <time>2020-06-14T09:09:26.000Z</time>
      </trkpt>
      <trkpt lat="45.72805" lon="4.61155">
        <ele>658.8</ele>
        <time>2020-06-14T09:09:27.000Z</time>
      </trkpt>
      <trkpt lat="45.7281" lon="4.61156">
        <ele>658.8</ele>
        <time>2020-06-14T09:09:28.000Z</time>
      </trkpt>
      <trkpt lat="45.72815" lon="4.61158">
        <ele>658.8</ele>
        <time>2020-06-14T09:09:29.000Z</time>
      </trkpt>
      <trkpt lat="45.7282" lon="4.6116">
        <ele>658.6</ele>
        <time>2020-06-14T09:09:30.000Z</time>
      </trkpt>
      <trkpt lat="45.72826" lon="4.61164">
        <ele>658.6</ele>
        <time>2020-06-14T09:09:31.000Z</time>
      </trkpt>
      <trkpt lat="45.72834" lon="4.61168">
        <ele>658.8</ele>
        <time>2020-06-14T09:09:32.000Z</time>
      </trkpt>
      <trkpt lat="45.72841" lon="4.61172">
        <ele>658.8</ele>
        <time>2020-06-14T09:09:33.000Z</time>
      </trkpt>
      <trkpt lat="45.72846" lon="4.61175">
        <ele>659.2</ele>
        <time>2020-06-14T09:09:34.000Z</time>
      </trkpt>
      <trkpt lat="45.72851" lon="4.61179">
        <ele>659.4</ele>
        <time>2020-06-14T09:09:35.000Z</time>
      </trkpt>
      <trkpt lat="45.72858" lon="4.61183">
        <ele>659.6</ele>
        <time>2020-06-14T09:09:36.000Z</time>
      </trkpt>
      <trkpt lat="45.72869" lon="4.61191">
        <ele>659.8</ele>
        <time>2020-06-14T09:09:38.000Z</time>
      </trkpt>
      <trkpt lat="45.7288" lon="4.612">
        <ele>659.8</ele>
        <time>2020-06-14T09:09:40.000Z</time>
      </trkpt>
      <trkpt lat="45.72911" lon="4.6122">
        <ele>659.8</ele>
        <time>2020-06-14T09:09:45.000Z</time>
      </trkpt>
      <trkpt lat="45.72917" lon="4.61224">
        <ele>659.8</ele>
        <time>2020-06-14T09:09:46.000Z</time>
      </trkpt>
      <trkpt lat="45.72923" lon="4.61227">
        <ele>659.8</ele>
        <time>2020-06-14T09:09:47.000Z</time>
      </trkpt>
      <trkpt lat="45.72929" lon="4.6123">
        <ele>659.6</ele>
        <time>2020-06-14T09:09:48.000Z</time>
      </trkpt>
      <trkpt lat="45.72947" lon="4.61235">
        <ele>659.6</ele>
        <time>2020-06-14T09:09:51.000Z</time>
      </trkpt>
      <trkpt lat="45.72971" lon="4.61237">
        <ele>658.4</ele>
        <time>2020-06-14T09:09:55.000Z</time>
      </trkpt>
      <trkpt lat="45.72983" lon="4.61239">
        <ele>658</ele>
        <time>2020-06-14T09:09:57.000Z</time>
      </trkpt>
      <trkpt lat="45.7299" lon="4.61239">
        <ele>658</ele>
        <time>2020-06-14T09:09:58.000Z</time>
      </trkpt>
      <trkpt lat="45.72996" lon="4.61239">
        <ele>658</ele>
        <time>2020-06-14T09:09:59.000Z</time>
      </trkpt>
      <trkpt lat="45.73002" lon="4.61237">
        <ele>657.2</ele>
        <time>2020-06-14T09:10:00.000Z</time>
      </trkpt>
      <trkpt lat="45.73008" lon="4.61234">
        <ele>656.8</ele>
        <time>2020-06-14T09:10:01.000Z</time>
      </trkpt>
      <trkpt lat="45.73012" lon="4.6123">
        <ele>656.8</ele>
        <time>2020-06-14T09:10:02.000Z</time>
      </trkpt>
      <trkpt lat="45.73016" lon="4.61226">
        <ele>656.8</ele>
        <time>2020-06-14T09:10:03.000Z</time>
      </trkpt>
      <trkpt lat="45.73019" lon="4.61222">
        <ele>656.2</ele>
        <time>2020-06-14T09:10:04.000Z</time>
      </trkpt>
      <trkpt lat="45.73022" lon="4.61217">
        <ele>655.2</ele>
        <time>2020-06-14T09:10:05.000Z</time>
      </trkpt>
      <trkpt lat="45.73025" lon="4.61214">
        <ele>654.6</ele>
        <time>2020-06-14T09:10:06.000Z</time>
      </trkpt>
      <trkpt lat="45.73027" lon="4.61211">
        <ele>654.2</ele>
        <time>2020-06-14T09:10:07.000Z</time>
      </trkpt>
      <trkpt lat="45.7303" lon="4.61208">
        <ele>654.2</ele>
        <time>2020-06-14T09:10:08.000Z</time>
      </trkpt>
      <trkpt lat="45.73033" lon="4.61205">
        <ele>654</ele>
        <time>2020-06-14T09:10:09.000Z</time>
      </trkpt>
      <trkpt lat="45.73036" lon="4.61201">
        <ele>653.8</ele>
        <time>2020-06-14T09:10:10.000Z</time>
      </trkpt>
      <trkpt lat="45.73039" lon="4.61198">
        <ele>654</ele>
        <time>2020-06-14T09:10:11.000Z</time>
      </trkpt>
      <trkpt lat="45.73041" lon="4.61195">
        <ele>653.8</ele>
        <time>2020-06-14T09:10:12.000Z</time>
      </trkpt>
      <trkpt lat="45.73044" lon="4.61192">
        <ele>654</ele>
        <time>2020-06-14T09:10:13.000Z</time>
      </trkpt>
      <trkpt lat="45.73046" lon="4.61189">
        <ele>653.8</ele>
        <time>2020-06-14T09:10:14.000Z</time>
      </trkpt>
      <trkpt lat="45.73047" lon="4.61185">
        <ele>653.8</ele>
        <time>2020-06-14T09:10:15.000Z</time>
      </trkpt>
      <trkpt lat="45.73049" lon="4.61182">
        <ele>654</ele>
        <time>2020-06-14T09:10:16.000Z</time>
      </trkpt>
      <trkpt lat="45.73051" lon="4.6118">
        <ele>654.2</ele>
        <time>2020-06-14T09:10:17.000Z</time>
      </trkpt>
      <trkpt lat="45.73053" lon="4.61177">
        <ele>654.4</ele>
        <time>2020-06-14T09:10:18.000Z</time>
      </trkpt>
      <trkpt lat="45.73056" lon="4.61175">
        <ele>654.6</ele>
        <time>2020-06-14T09:10:19.000Z</time>
      </trkpt>
      <trkpt lat="45.73059" lon="4.61172">
        <ele>654.8</ele>
        <time>2020-06-14T09:10:20.000Z</time>
      </trkpt>
      <trkpt lat="45.73061" lon="4.61169">
        <ele>655</ele>
        <time>2020-06-14T09:10:21.000Z</time>
      </trkpt>
      <trkpt lat="45.73064" lon="4.61167">
        <ele>655</ele>
        <time>2020-06-14T09:10:22.000Z</time>
      </trkpt>
      <trkpt lat="45.73067" lon="4.61165">
        <ele>655.2</ele>
        <time>2020-06-14T09:10:23.000Z</time>
      </trkpt>
      <trkpt lat="45.73072" lon="4.61161">
        <ele>655.6</ele>
        <time>2020-06-14T09:10:25.000Z</time>
      </trkpt>
      <trkpt lat="45.73075" lon="4.61159">
        <ele>655.6</ele>
        <time>2020-06-14T09:10:26.000Z</time>
      </trkpt>
      <trkpt lat="45.73077" lon="4.61157">
        <ele>655.6</ele>
        <time>2020-06-14T09:10:27.000Z</time>
      </trkpt>
      <trkpt lat="45.73079" lon="4.61154">
        <ele>655.8</ele>
        <time>2020-06-14T09:10:28.000Z</time>
      </trkpt>
      <trkpt lat="45.73081" lon="4.61152">
        <ele>656</ele>
        <time>2020-06-14T09:10:29.000Z</time>
      </trkpt>
      <trkpt lat="45.73084" lon="4.61151">
        <ele>656</ele>
        <time>2020-06-14T09:10:30.000Z</time>
      </trkpt>
      <trkpt lat="45.73086" lon="4.61148">
        <ele>656</ele>
        <time>2020-06-14T09:10:31.000Z</time>
      </trkpt>
      <trkpt lat="45.73088" lon="4.61146">
        <ele>656.2</ele>
        <time>2020-06-14T09:10:32.000Z</time>
      </trkpt>
      <trkpt lat="45.73091" lon="4.61145">
        <ele>656.4</ele>
        <time>2020-06-14T09:10:33.000Z</time>
      </trkpt>
      <trkpt lat="45.73101" lon="4.6114">
        <ele>656.6</ele>
        <time>2020-06-14T09:10:37.000Z</time>
      </trkpt>
      <trkpt lat="45.73104" lon="4.61138">
        <ele>656.4</ele>
        <time>2020-06-14T09:10:38.000Z</time>
      </trkpt>
      <trkpt lat="45.73106" lon="4.61136">
        <ele>656.6</ele>
        <time>2020-06-14T09:10:39.000Z</time>
      </trkpt>
      <trkpt lat="45.73109" lon="4.61134">
        <ele>656.4</ele>
        <time>2020-06-14T09:10:40.000Z</time>
      </trkpt>
      <trkpt lat="45.73112" lon="4.61132">
        <ele>656.4</ele>
        <time>2020-06-14T09:10:41.000Z</time>
      </trkpt>
      <trkpt lat="45.73114" lon="4.6113">
        <ele>656.4</ele>
        <time>2020-06-14T09:10:42.000Z</time>
      </trkpt>
      <trkpt lat="45.73117" lon="4.61127">
        <ele>656.4</ele>
        <time>2020-06-14T09:10:43.000Z</time>
      </trkpt>
      <trkpt lat="45.7312" lon="4.61125">
        <ele>656.4</ele>
        <time>2020-06-14T09:10:44.000Z</time>
      </trkpt>
      <trkpt lat="45.73126" lon="4.6112">
        <ele>656.4</ele>
        <time>2020-06-14T09:10:46.000Z</time>
      </trkpt>
      <trkpt lat="45.73128" lon="4.61117">
        <ele>656.6</ele>
        <time>2020-06-14T09:10:47.000Z</time>
      </trkpt>
      <trkpt lat="45.73131" lon="4.61114">
        <ele>656.4</ele>
        <time>2020-06-14T09:10:48.000Z</time>
      </trkpt>
      <trkpt lat="45.73139" lon="4.61108">
        <ele>656.4</ele>
        <time>2020-06-14T09:10:50.000Z</time>
      </trkpt>
      <trkpt lat="45.73142" lon="4.61105">
        <ele>656.4</ele>
        <time>2020-06-14T09:10:51.000Z</time>
      </trkpt>
      <trkpt lat="45.73148" lon="4.61098">
        <ele>656.2</ele>
        <time>2020-06-14T09:10:53.000Z</time>
      </trkpt>
      <trkpt lat="45.73152" lon="4.61095">
        <ele>656.2</ele>
        <time>2020-06-14T09:10:54.000Z</time>
      </trkpt>
      <trkpt lat="45.73154" lon="4.6109">
        <ele>656.2</ele>
        <time>2020-06-14T09:10:55.000Z</time>
      </trkpt>
      <trkpt lat="45.73157" lon="4.61085">
        <ele>656.2</ele>
        <time>2020-06-14T09:10:56.000Z</time>
      </trkpt>
      <trkpt lat="45.7316" lon="4.61082">
        <ele>656</ele>
        <time>2020-06-14T09:10:57.000Z</time>
      </trkpt>
      <trkpt lat="45.73164" lon="4.61078">
        <ele>656.2</ele>
        <time>2020-06-14T09:10:58.000Z</time>
      </trkpt>
      <trkpt lat="45.73168" lon="4.61075">
        <ele>656</ele>
        <time>2020-06-14T09:10:59.000Z</time>
      </trkpt>
      <trkpt lat="45.73171" lon="4.61075">
        <ele>656</ele>
        <time>2020-06-14T09:11:00.000Z</time>
      </trkpt>
      <trkpt lat="45.73174" lon="4.61075">
        <ele>656</ele>
        <time>2020-06-14T09:11:01.000Z</time>
      </trkpt>
      <trkpt lat="45.73178" lon="4.61076">
        <ele>656</ele>
        <time>2020-06-14T09:11:02.000Z</time>
      </trkpt>
      <trkpt lat="45.7318" lon="4.61077">
        <ele>656</ele>
        <time>2020-06-14T09:11:03.000Z</time>
      </trkpt>
      <trkpt lat="45.73183" lon="4.61079">
        <ele>656</ele>
        <time>2020-06-14T09:11:04.000Z</time>
      </trkpt>
      <trkpt lat="45.73185" lon="4.61081">
        <ele>656</ele>
        <time>2020-06-14T09:11:05.000Z</time>
      </trkpt>
      <trkpt lat="45.73189" lon="4.61086">
        <ele>656</ele>
        <time>2020-06-14T09:11:06.000Z</time>
      </trkpt>
      <trkpt lat="45.73192" lon="4.6109">
        <ele>656</ele>
        <time>2020-06-14T09:11:07.000Z</time>
      </trkpt>
      <trkpt lat="45.73193" lon="4.61095">
        <ele>656.2</ele>
        <time>2020-06-14T09:11:08.000Z</time>
      </trkpt>
      <trkpt lat="45.73196" lon="4.611">
        <ele>656.2</ele>
        <time>2020-06-14T09:11:09.000Z</time>
      </trkpt>
      <trkpt lat="45.732" lon="4.61107">
        <ele>656.6</ele>
        <time>2020-06-14T09:11:10.000Z</time>
      </trkpt>
      <trkpt lat="45.73203" lon="4.61113">
        <ele>657</ele>
        <time>2020-06-14T09:11:11.000Z</time>
      </trkpt>
      <trkpt lat="45.73205" lon="4.6112">
        <ele>657.4</ele>
        <time>2020-06-14T09:11:12.000Z</time>
      </trkpt>
      <trkpt lat="45.73207" lon="4.61127">
        <ele>657.8</ele>
        <time>2020-06-14T09:11:13.000Z</time>
      </trkpt>
      <trkpt lat="45.7321" lon="4.61134">
        <ele>657.8</ele>
        <time>2020-06-14T09:11:14.000Z</time>
      </trkpt>
      <trkpt lat="45.73216" lon="4.61156">
        <ele>658</ele>
        <time>2020-06-14T09:11:17.000Z</time>
      </trkpt>
      <trkpt lat="45.73218" lon="4.61163">
        <ele>657.8</ele>
        <time>2020-06-14T09:11:18.000Z</time>
      </trkpt>
      <trkpt lat="45.73219" lon="4.61169">
        <ele>658</ele>
        <time>2020-06-14T09:11:19.000Z</time>
      </trkpt>
      <trkpt lat="45.7322" lon="4.61175">
        <ele>658</ele>
        <time>2020-06-14T09:11:20.000Z</time>
      </trkpt>
      <trkpt lat="45.73221" lon="4.61183">
        <ele>657.8</ele>
        <time>2020-06-14T09:11:21.000Z</time>
      </trkpt>
      <trkpt lat="45.73222" lon="4.61189">
        <ele>657.8</ele>
        <time>2020-06-14T09:11:22.000Z</time>
      </trkpt>
      <trkpt lat="45.73222" lon="4.61196">
        <ele>657.8</ele>
        <time>2020-06-14T09:11:23.000Z</time>
      </trkpt>
      <trkpt lat="45.73223" lon="4.61202">
        <ele>657.6</ele>
        <time>2020-06-14T09:11:24.000Z</time>
      </trkpt>
      <trkpt lat="45.73224" lon="4.61208">
        <ele>657.4</ele>
        <time>2020-06-14T09:11:25.000Z</time>
      </trkpt>
      <trkpt lat="45.73224" lon="4.61215">
        <ele>657.4</ele>
        <time>2020-06-14T09:11:26.000Z</time>
      </trkpt>
      <trkpt lat="45.73225" lon="4.61222">
        <ele>657.2</ele>
        <time>2020-06-14T09:11:27.000Z</time>
      </trkpt>
      <trkpt lat="45.73225" lon="4.61242">
        <ele>657.2</ele>
        <time>2020-06-14T09:11:30.000Z</time>
      </trkpt>
      <trkpt lat="45.73224" lon="4.61249">
        <ele>657</ele>
        <time>2020-06-14T09:11:31.000Z</time>
      </trkpt>
      <trkpt lat="45.73225" lon="4.61257">
        <ele>656.8</ele>
        <time>2020-06-14T09:11:32.000Z</time>
      </trkpt>
      <trkpt lat="45.73225" lon="4.61266">
        <ele>656.8</ele>
        <time>2020-06-14T09:11:33.000Z</time>
      </trkpt>
      <trkpt lat="45.73228" lon="4.61283">
        <ele>656.8</ele>
        <time>2020-06-14T09:11:35.000Z</time>
      </trkpt>
      <trkpt lat="45.7323" lon="4.6129">
        <ele>657</ele>
        <time>2020-06-14T09:11:36.000Z</time>
      </trkpt>
      <trkpt lat="45.73232" lon="4.61296">
        <ele>657</ele>
        <time>2020-06-14T09:11:37.000Z</time>
      </trkpt>
      <trkpt lat="45.73234" lon="4.61302">
        <ele>657</ele>
        <time>2020-06-14T09:11:38.000Z</time>
      </trkpt>
      <trkpt lat="45.73236" lon="4.61307">
        <ele>656.8</ele>
        <time>2020-06-14T09:11:39.000Z</time>
      </trkpt>
      <trkpt lat="45.73237" lon="4.61311">
        <ele>656.6</ele>
        <time>2020-06-14T09:11:40.000Z</time>
      </trkpt>
      <trkpt lat="45.73238" lon="4.61314">
        <ele>656.8</ele>
        <time>2020-06-14T09:11:41.000Z</time>
      </trkpt>
      <trkpt lat="45.73239" lon="4.61316">
        <ele>656.6</ele>
        <time>2020-06-14T09:11:42.000Z</time>
      </trkpt>
      <trkpt lat="45.7324" lon="4.61318">
        <ele>656.6</ele>
        <time>2020-06-14T09:11:43.000Z</time>
      </trkpt>
      <trkpt lat="45.73244" lon="4.61323">
        <ele>656.6</ele>
        <time>2020-06-14T09:11:45.000Z</time>
      </trkpt>
      <trkpt lat="45.73249" lon="4.61331">
        <ele>656.4</ele>
        <time>2020-06-14T09:11:47.000Z</time>
      </trkpt>
      <trkpt lat="45.73252" lon="4.61334">
        <ele>656.4</ele>
        <time>2020-06-14T09:11:48.000Z</time>
      </trkpt>
      <trkpt lat="45.73256" lon="4.61342">
        <ele>656.4</ele>
        <time>2020-06-14T09:11:50.000Z</time>
      </trkpt>
      <trkpt lat="45.73259" lon="4.61346">
        <ele>656.4</ele>
        <time>2020-06-14T09:11:51.000Z</time>
      </trkpt>
      <trkpt lat="45.73263" lon="4.6135">
        <ele>656.6</ele>
        <time>2020-06-14T09:11:52.000Z</time>
      </trkpt>
      <trkpt lat="45.73267" lon="4.61354">
        <ele>656.6</ele>
        <time>2020-06-14T09:11:53.000Z</time>
      </trkpt>
      <trkpt lat="45.7327" lon="4.61358">
        <ele>656.6</ele>
        <time>2020-06-14T09:11:54.000Z</time>
      </trkpt>
      <trkpt lat="45.73275" lon="4.61363">
        <ele>656.6</ele>
        <time>2020-06-14T09:11:55.000Z</time>
      </trkpt>
      <trkpt lat="45.73283" lon="4.61372">
        <ele>656.8</ele>
        <time>2020-06-14T09:11:57.000Z</time>
      </trkpt>
      <trkpt lat="45.73288" lon="4.61376">
        <ele>656.6</ele>
        <time>2020-06-14T09:11:58.000Z</time>
      </trkpt>
      <trkpt lat="45.73294" lon="4.61379">
        <ele>656.6</ele>
        <time>2020-06-14T09:11:59.000Z</time>
      </trkpt>
      <trkpt lat="45.73299" lon="4.61382">
        <ele>656.6</ele>
        <time>2020-06-14T09:12:00.000Z</time>
      </trkpt>
      <trkpt lat="45.73305" lon="4.61384">
        <ele>656.6</ele>
        <time>2020-06-14T09:12:01.000Z</time>
      </trkpt>
      <trkpt lat="45.73312" lon="4.61385">
        <ele>656.4</ele>
        <time>2020-06-14T09:12:02.000Z</time>
      </trkpt>
      <trkpt lat="45.73333" lon="4.61387">
        <ele>656.6</ele>
        <time>2020-06-14T09:12:05.000Z</time>
      </trkpt>
      <trkpt lat="45.73339" lon="4.61387">
        <ele>656.6</ele>
        <time>2020-06-14T09:12:06.000Z</time>
      </trkpt>
      <trkpt lat="45.73345" lon="4.61389">
        <ele>656</ele>
        <time>2020-06-14T09:12:07.000Z</time>
      </trkpt>
      <trkpt lat="45.73351" lon="4.6139">
        <ele>654.6</ele>
        <time>2020-06-14T09:12:08.000Z</time>
      </trkpt>
      <trkpt lat="45.73357" lon="4.61391">
        <ele>653.8</ele>
        <time>2020-06-14T09:12:09.000Z</time>
      </trkpt>
      <trkpt lat="45.73363" lon="4.61392">
        <ele>652.6</ele>
        <time>2020-06-14T09:12:10.000Z</time>
      </trkpt>
      <trkpt lat="45.73368" lon="4.61393">
        <ele>652</ele>
        <time>2020-06-14T09:12:11.000Z</time>
      </trkpt>
      <trkpt lat="45.73373" lon="4.61393">
        <ele>651.6</ele>
        <time>2020-06-14T09:12:12.000Z</time>
      </trkpt>
      <trkpt lat="45.73377" lon="4.61393">
        <ele>651.4</ele>
        <time>2020-06-14T09:12:13.000Z</time>
      </trkpt>
      <trkpt lat="45.73381" lon="4.61394">
        <ele>651.4</ele>
        <time>2020-06-14T09:12:14.000Z</time>
      </trkpt>
      <trkpt lat="45.73384" lon="4.61394">
        <ele>651.2</ele>
        <time>2020-06-14T09:12:15.000Z</time>
      </trkpt>
      <trkpt lat="45.73386" lon="4.61395">
        <ele>651.2</ele>
        <time>2020-06-14T09:12:16.000Z</time>
      </trkpt>
      <trkpt lat="45.73388" lon="4.61395">
        <ele>651.4</ele>
        <time>2020-06-14T09:12:17.000Z</time>
      </trkpt>
      <trkpt lat="45.7339" lon="4.61396">
        <ele>651.2</ele>
        <time>2020-06-14T09:12:18.000Z</time>
      </trkpt>
      <trkpt lat="45.73394" lon="4.61398">
        <ele>651.2</ele>
        <time>2020-06-14T09:12:19.000Z</time>
      </trkpt>
      <trkpt lat="45.73395" lon="4.61401">
        <ele>651.2</ele>
        <time>2020-06-14T09:12:20.000Z</time>
      </trkpt>
      <trkpt lat="45.73395" lon="4.61403">
        <ele>651.2</ele>
        <time>2020-06-14T09:12:21.000Z</time>
      </trkpt>
      <trkpt lat="45.73396" lon="4.61407">
        <ele>651.6</ele>
        <time>2020-06-14T09:12:22.000Z</time>
      </trkpt>
      <trkpt lat="45.73395" lon="4.6141">
        <ele>651.6</ele>
        <time>2020-06-14T09:12:23.000Z</time>
      </trkpt>
      <trkpt lat="45.73392" lon="4.61424">
        <ele>652.6</ele>
        <time>2020-06-14T09:12:26.000Z</time>
      </trkpt>
      <trkpt lat="45.73391" lon="4.61431">
        <ele>652.6</ele>
        <time>2020-06-14T09:12:27.000Z</time>
      </trkpt>
      <trkpt lat="45.73388" lon="4.61437">
        <ele>652.6</ele>
        <time>2020-06-14T09:12:28.000Z</time>
      </trkpt>
      <trkpt lat="45.73386" lon="4.61443">
        <ele>652.8</ele>
        <time>2020-06-14T09:12:29.000Z</time>
      </trkpt>
      <trkpt lat="45.73383" lon="4.61451">
        <ele>652.8</ele>
        <time>2020-06-14T09:12:30.000Z</time>
      </trkpt>
      <trkpt lat="45.73381" lon="4.61459">
        <ele>653</ele>
        <time>2020-06-14T09:12:31.000Z</time>
      </trkpt>
      <trkpt lat="45.73375" lon="4.61482">
        <ele>653</ele>
        <time>2020-06-14T09:12:34.000Z</time>
      </trkpt>
      <trkpt lat="45.73374" lon="4.61489">
        <ele>653</ele>
        <time>2020-06-14T09:12:35.000Z</time>
      </trkpt>
      <trkpt lat="45.73373" lon="4.61496">
        <ele>653</ele>
        <time>2020-06-14T09:12:36.000Z</time>
      </trkpt>
      <trkpt lat="45.73372" lon="4.61502">
        <ele>653</ele>
        <time>2020-06-14T09:12:37.000Z</time>
      </trkpt>
      <trkpt lat="45.7337" lon="4.61508">
        <ele>653.2</ele>
        <time>2020-06-14T09:12:38.000Z</time>
      </trkpt>
      <trkpt lat="45.73369" lon="4.61513">
        <ele>653.2</ele>
        <time>2020-06-14T09:12:39.000Z</time>
      </trkpt>
      <trkpt lat="45.73369" lon="4.61518">
        <ele>653.2</ele>
        <time>2020-06-14T09:12:40.000Z</time>
      </trkpt>
      <trkpt lat="45.73368" lon="4.61523">
        <ele>653.2</ele>
        <time>2020-06-14T09:12:41.000Z</time>
      </trkpt>
      <trkpt lat="45.73368" lon="4.6153">
        <ele>653.2</ele>
        <time>2020-06-14T09:12:42.000Z</time>
      </trkpt>
      <trkpt lat="45.73367" lon="4.61535">
        <ele>653.2</ele>
        <time>2020-06-14T09:12:43.000Z</time>
      </trkpt>
      <trkpt lat="45.73365" lon="4.61546">
        <ele>653.4</ele>
        <time>2020-06-14T09:12:45.000Z</time>
      </trkpt>
      <trkpt lat="45.73364" lon="4.61553">
        <ele>653.2</ele>
        <time>2020-06-14T09:12:46.000Z</time>
      </trkpt>
      <trkpt lat="45.73362" lon="4.61567">
        <ele>653.4</ele>
        <time>2020-06-14T09:12:48.000Z</time>
      </trkpt>
      <trkpt lat="45.7336" lon="4.61573">
        <ele>653.4</ele>
        <time>2020-06-14T09:12:49.000Z</time>
      </trkpt>
      <trkpt lat="45.73358" lon="4.61577">
        <ele>653.6</ele>
        <time>2020-06-14T09:12:50.000Z</time>
      </trkpt>
      <trkpt lat="45.73355" lon="4.61581">
        <ele>653.6</ele>
        <time>2020-06-14T09:12:51.000Z</time>
      </trkpt>
      <trkpt lat="45.73353" lon="4.61586">
        <ele>653.6</ele>
        <time>2020-06-14T09:12:52.000Z</time>
      </trkpt>
      <trkpt lat="45.73349" lon="4.61591">
        <ele>653.6</ele>
        <time>2020-06-14T09:12:53.000Z</time>
      </trkpt>
      <trkpt lat="45.73345" lon="4.61597">
        <ele>653.6</ele>
        <time>2020-06-14T09:12:54.000Z</time>
      </trkpt>
      <trkpt lat="45.73342" lon="4.61603">
        <ele>653.6</ele>
        <time>2020-06-14T09:12:55.000Z</time>
      </trkpt>
      <trkpt lat="45.7334" lon="4.61609">
        <ele>653.6</ele>
        <time>2020-06-14T09:12:56.000Z</time>
      </trkpt>
      <trkpt lat="45.73333" lon="4.61622">
        <ele>653.4</ele>
        <time>2020-06-14T09:12:58.000Z</time>
      </trkpt>
      <trkpt lat="45.73329" lon="4.61629">
        <ele>653.4</ele>
        <time>2020-06-14T09:12:59.000Z</time>
      </trkpt>
      <trkpt lat="45.73325" lon="4.61636">
        <ele>653.4</ele>
        <time>2020-06-14T09:13:00.000Z</time>
      </trkpt>
      <trkpt lat="45.73321" lon="4.61643">
        <ele>653.2</ele>
        <time>2020-06-14T09:13:01.000Z</time>
      </trkpt>
      <trkpt lat="45.73318" lon="4.6165">
        <ele>653.2</ele>
        <time>2020-06-14T09:13:02.000Z</time>
      </trkpt>
      <trkpt lat="45.73315" lon="4.61656">
        <ele>652.8</ele>
        <time>2020-06-14T09:13:03.000Z</time>
      </trkpt>
      <trkpt lat="45.73309" lon="4.6167">
        <ele>652.8</ele>
        <time>2020-06-14T09:13:05.000Z</time>
      </trkpt>
      <trkpt lat="45.73307" lon="4.61676">
        <ele>652.6</ele>
        <time>2020-06-14T09:13:06.000Z</time>
      </trkpt>
      <trkpt lat="45.73306" lon="4.61681">
        <ele>652</ele>
        <time>2020-06-14T09:13:07.000Z</time>
      </trkpt>
      <trkpt lat="45.73303" lon="4.61713">
        <ele>651.2</ele>
        <time>2020-06-14T09:13:12.000Z</time>
      </trkpt>
      <trkpt lat="45.73303" lon="4.6172">
        <ele>650.8</ele>
        <time>2020-06-14T09:13:13.000Z</time>
      </trkpt>
      <trkpt lat="45.73304" lon="4.61727">
        <ele>650.8</ele>
        <time>2020-06-14T09:13:14.000Z</time>
      </trkpt>
      <trkpt lat="45.73304" lon="4.61734">
        <ele>651</ele>
        <time>2020-06-14T09:13:15.000Z</time>
      </trkpt>
      <trkpt lat="45.73304" lon="4.6174">
        <ele>650.8</ele>
        <time>2020-06-14T09:13:16.000Z</time>
      </trkpt>
      <trkpt lat="45.73305" lon="4.61746">
        <ele>650.8</ele>
        <time>2020-06-14T09:13:17.000Z</time>
      </trkpt>
      <trkpt lat="45.73306" lon="4.6175">
        <ele>650.8</ele>
        <time>2020-06-14T09:13:18.000Z</time>
      </trkpt>
      <trkpt lat="45.73307" lon="4.61754">
        <ele>650.8</ele>
        <time>2020-06-14T09:13:19.000Z</time>
      </trkpt>
      <trkpt lat="45.73308" lon="4.61758">
        <ele>650.8</ele>
        <time>2020-06-14T09:13:20.000Z</time>
      </trkpt>
      <trkpt lat="45.73309" lon="4.61763">
        <ele>651</ele>
        <time>2020-06-14T09:13:21.000Z</time>
      </trkpt>
      <trkpt lat="45.7331" lon="4.61768">
        <ele>651</ele>
        <time>2020-06-14T09:13:22.000Z</time>
      </trkpt>
      <trkpt lat="45.73311" lon="4.61773">
        <ele>651</ele>
        <time>2020-06-14T09:13:23.000Z</time>
      </trkpt>
      <trkpt lat="45.73312" lon="4.61779">
        <ele>651</ele>
        <time>2020-06-14T09:13:24.000Z</time>
      </trkpt>
      <trkpt lat="45.73314" lon="4.61785">
        <ele>651</ele>
        <time>2020-06-14T09:13:25.000Z</time>
      </trkpt>
      <trkpt lat="45.73316" lon="4.6179">
        <ele>651.2</ele>
        <time>2020-06-14T09:13:26.000Z</time>
      </trkpt>
      <trkpt lat="45.73319" lon="4.61802">
        <ele>651.8</ele>
        <time>2020-06-14T09:13:28.000Z</time>
      </trkpt>
      <trkpt lat="45.73321" lon="4.61809">
        <ele>652.2</ele>
        <time>2020-06-14T09:13:29.000Z</time>
      </trkpt>
      <trkpt lat="45.73326" lon="4.61822">
        <ele>652.4</ele>
        <time>2020-06-14T09:13:31.000Z</time>
      </trkpt>
      <trkpt lat="45.73329" lon="4.61829">
        <ele>652.6</ele>
        <time>2020-06-14T09:13:32.000Z</time>
      </trkpt>
      <trkpt lat="45.73332" lon="4.61835">
        <ele>652.4</ele>
        <time>2020-06-14T09:13:33.000Z</time>
      </trkpt>
      <trkpt lat="45.73334" lon="4.61841">
        <ele>652.4</ele>
        <time>2020-06-14T09:13:34.000Z</time>
      </trkpt>
      <trkpt lat="45.73337" lon="4.61847">
        <ele>652.4</ele>
        <time>2020-06-14T09:13:35.000Z</time>
      </trkpt>
      <trkpt lat="45.73339" lon="4.61853">
        <ele>652.6</ele>
        <time>2020-06-14T09:13:36.000Z</time>
      </trkpt>
      <trkpt lat="45.73342" lon="4.61859">
        <ele>652.6</ele>
        <time>2020-06-14T09:13:37.000Z</time>
      </trkpt>
      <trkpt lat="45.73345" lon="4.61865">
        <ele>652.4</ele>
        <time>2020-06-14T09:13:38.000Z</time>
      </trkpt>
      <trkpt lat="45.73348" lon="4.61871">
        <ele>652.6</ele>
        <time>2020-06-14T09:13:39.000Z</time>
      </trkpt>
      <trkpt lat="45.73351" lon="4.61876">
        <ele>652.4</ele>
        <time>2020-06-14T09:13:40.000Z</time>
      </trkpt>
      <trkpt lat="45.73353" lon="4.61882">
        <ele>652.6</ele>
        <time>2020-06-14T09:13:41.000Z</time>
      </trkpt>
      <trkpt lat="45.73356" lon="4.61887">
        <ele>652.6</ele>
        <time>2020-06-14T09:13:42.000Z</time>
      </trkpt>
      <trkpt lat="45.73359" lon="4.61892">
        <ele>652.6</ele>
        <time>2020-06-14T09:13:43.000Z</time>
      </trkpt>
      <trkpt lat="45.73362" lon="4.61897">
        <ele>652.8</ele>
        <time>2020-06-14T09:13:44.000Z</time>
      </trkpt>
      <trkpt lat="45.73365" lon="4.61901">
        <ele>652.8</ele>
        <time>2020-06-14T09:13:45.000Z</time>
      </trkpt>
      <trkpt lat="45.73369" lon="4.61904">
        <ele>652.8</ele>
        <time>2020-06-14T09:13:46.000Z</time>
      </trkpt>
      <trkpt lat="45.73373" lon="4.61907">
        <ele>653</ele>
        <time>2020-06-14T09:13:47.000Z</time>
      </trkpt>
      <trkpt lat="45.73376" lon="4.61911">
        <ele>653.2</ele>
        <time>2020-06-14T09:13:48.000Z</time>
      </trkpt>
      <trkpt lat="45.7338" lon="4.61914">
        <ele>653.4</ele>
        <time>2020-06-14T09:13:49.000Z</time>
      </trkpt>
      <trkpt lat="45.73383" lon="4.61918">
        <ele>653.4</ele>
        <time>2020-06-14T09:13:50.000Z</time>
      </trkpt>
      <trkpt lat="45.73386" lon="4.61923">
        <ele>653.6</ele>
        <time>2020-06-14T09:13:51.000Z</time>
      </trkpt>
      <trkpt lat="45.73388" lon="4.61928">
        <ele>653.8</ele>
        <time>2020-06-14T09:13:52.000Z</time>
      </trkpt>
      <trkpt lat="45.7339" lon="4.61933">
        <ele>654</ele>
        <time>2020-06-14T09:13:53.000Z</time>
      </trkpt>
      <trkpt lat="45.73392" lon="4.61937">
        <ele>654</ele>
        <time>2020-06-14T09:13:54.000Z</time>
      </trkpt>
      <trkpt lat="45.73394" lon="4.61939">
        <ele>654</ele>
        <time>2020-06-14T09:13:55.000Z</time>
      </trkpt>
      <trkpt lat="45.73396" lon="4.61942">
        <ele>654.4</ele>
        <time>2020-06-14T09:13:56.000Z</time>
      </trkpt>
      <trkpt lat="45.73397" lon="4.61944">
        <ele>654.4</ele>
        <time>2020-06-14T09:13:57.000Z</time>
      </trkpt>
      <trkpt lat="45.73398" lon="4.61947">
        <ele>654.6</ele>
        <time>2020-06-14T09:13:58.000Z</time>
      </trkpt>
      <trkpt lat="45.73398" lon="4.61951">
        <ele>654.6</ele>
        <time>2020-06-14T09:13:59.000Z</time>
      </trkpt>
      <trkpt lat="45.73399" lon="4.61955">
        <ele>655.2</ele>
        <time>2020-06-14T09:14:00.000Z</time>
      </trkpt>
      <trkpt lat="45.73399" lon="4.6196">
        <ele>655.6</ele>
        <time>2020-06-14T09:14:01.000Z</time>
      </trkpt>
      <trkpt lat="45.734" lon="4.6197">
        <ele>655.8</ele>
        <time>2020-06-14T09:14:03.000Z</time>
      </trkpt>
      <trkpt lat="45.73401" lon="4.61977">
        <ele>656</ele>
        <time>2020-06-14T09:14:04.000Z</time>
      </trkpt>
      <trkpt lat="45.73401" lon="4.6199">
        <ele>656.2</ele>
        <time>2020-06-14T09:14:06.000Z</time>
      </trkpt>
      <trkpt lat="45.73404" lon="4.62014">
        <ele>656</ele>
        <time>2020-06-14T09:14:09.000Z</time>
      </trkpt>
      <trkpt lat="45.73406" lon="4.62032">
        <ele>656</ele>
        <time>2020-06-14T09:14:11.000Z</time>
      </trkpt>
      <trkpt lat="45.73406" lon="4.62042">
        <ele>656</ele>
        <time>2020-06-14T09:14:12.000Z</time>
      </trkpt>
      <trkpt lat="45.73406" lon="4.62052">
        <ele>655.6</ele>
        <time>2020-06-14T09:14:13.000Z</time>
      </trkpt>
      <trkpt lat="45.73406" lon="4.62063">
        <ele>655.2</ele>
        <time>2020-06-14T09:14:14.000Z</time>
      </trkpt>
      <trkpt lat="45.73405" lon="4.62075">
        <ele>655</ele>
        <time>2020-06-14T09:14:15.000Z</time>
      </trkpt>
      <trkpt lat="45.73404" lon="4.62087">
        <ele>654.6</ele>
        <time>2020-06-14T09:14:16.000Z</time>
      </trkpt>
      <trkpt lat="45.73401" lon="4.621">
        <ele>654.4</ele>
        <time>2020-06-14T09:14:17.000Z</time>
      </trkpt>
      <trkpt lat="45.73399" lon="4.62112">
        <ele>653.8</ele>
        <time>2020-06-14T09:14:18.000Z</time>
      </trkpt>
      <trkpt lat="45.73396" lon="4.62125">
        <ele>653.2</ele>
        <time>2020-06-14T09:14:19.000Z</time>
      </trkpt>
      <trkpt lat="45.73394" lon="4.62137">
        <ele>652.8</ele>
        <time>2020-06-14T09:14:20.000Z</time>
      </trkpt>
      <trkpt lat="45.73386" lon="4.62164">
        <ele>651.4</ele>
        <time>2020-06-14T09:14:22.000Z</time>
      </trkpt>
      <trkpt lat="45.73382" lon="4.62177">
        <ele>651</ele>
        <time>2020-06-14T09:14:23.000Z</time>
      </trkpt>
      <trkpt lat="45.73378" lon="4.6219">
        <ele>650.4</ele>
        <time>2020-06-14T09:14:24.000Z</time>
      </trkpt>
      <trkpt lat="45.73375" lon="4.62202">
        <ele>650.4</ele>
        <time>2020-06-14T09:14:25.000Z</time>
      </trkpt>
      <trkpt lat="45.73373" lon="4.62213">
        <ele>649.4</ele>
        <time>2020-06-14T09:14:26.000Z</time>
      </trkpt>
      <trkpt lat="45.7337" lon="4.62224">
        <ele>648.6</ele>
        <time>2020-06-14T09:14:27.000Z</time>
      </trkpt>
      <trkpt lat="45.73368" lon="4.62233">
        <ele>647.6</ele>
        <time>2020-06-14T09:14:28.000Z</time>
      </trkpt>
      <trkpt lat="45.73367" lon="4.62242">
        <ele>646.6</ele>
        <time>2020-06-14T09:14:29.000Z</time>
      </trkpt>
      <trkpt lat="45.73365" lon="4.62249">
        <ele>646</ele>
        <time>2020-06-14T09:14:30.000Z</time>
      </trkpt>
      <trkpt lat="45.73363" lon="4.62257">
        <ele>645.2</ele>
        <time>2020-06-14T09:14:31.000Z</time>
      </trkpt>
      <trkpt lat="45.73362" lon="4.62265">
        <ele>644.8</ele>
        <time>2020-06-14T09:14:32.000Z</time>
      </trkpt>
      <trkpt lat="45.73362" lon="4.62273">
        <ele>644.6</ele>
        <time>2020-06-14T09:14:33.000Z</time>
      </trkpt>
      <trkpt lat="45.73363" lon="4.62281">
        <ele>644.4</ele>
        <time>2020-06-14T09:14:34.000Z</time>
      </trkpt>
      <trkpt lat="45.73363" lon="4.6229">
        <ele>644.2</ele>
        <time>2020-06-14T09:14:35.000Z</time>
      </trkpt>
      <trkpt lat="45.73362" lon="4.623">
        <ele>644.2</ele>
        <time>2020-06-14T09:14:36.000Z</time>
      </trkpt>
      <trkpt lat="45.7336" lon="4.6231">
        <ele>644</ele>
        <time>2020-06-14T09:14:37.000Z</time>
      </trkpt>
      <trkpt lat="45.73357" lon="4.6232">
        <ele>643.8</ele>
        <time>2020-06-14T09:14:38.000Z</time>
      </trkpt>
      <trkpt lat="45.73354" lon="4.62329">
        <ele>643.4</ele>
        <time>2020-06-14T09:14:39.000Z</time>
      </trkpt>
      <trkpt lat="45.7335" lon="4.62339">
        <ele>643</ele>
        <time>2020-06-14T09:14:40.000Z</time>
      </trkpt>
      <trkpt lat="45.73346" lon="4.62349">
        <ele>642.8</ele>
        <time>2020-06-14T09:14:41.000Z</time>
      </trkpt>
      <trkpt lat="45.73342" lon="4.62359">
        <ele>642</ele>
        <time>2020-06-14T09:14:42.000Z</time>
      </trkpt>
      <trkpt lat="45.7334" lon="4.6237">
        <ele>640.6</ele>
        <time>2020-06-14T09:14:43.000Z</time>
      </trkpt>
      <trkpt lat="45.73338" lon="4.62382">
        <ele>639.2</ele>
        <time>2020-06-14T09:14:44.000Z</time>
      </trkpt>
      <trkpt lat="45.73336" lon="4.62393">
        <ele>639.2</ele>
        <time>2020-06-14T09:14:45.000Z</time>
      </trkpt>
      <trkpt lat="45.73335" lon="4.62404">
        <ele>637.8</ele>
        <time>2020-06-14T09:14:46.000Z</time>
      </trkpt>
      <trkpt lat="45.73335" lon="4.62414">
        <ele>635.8</ele>
        <time>2020-06-14T09:14:47.000Z</time>
      </trkpt>
      <trkpt lat="45.73336" lon="4.62423">
        <ele>633.8</ele>
        <time>2020-06-14T09:14:48.000Z</time>
      </trkpt>
      <trkpt lat="45.73338" lon="4.62432">
        <ele>631.8</ele>
        <time>2020-06-14T09:14:49.000Z</time>
      </trkpt>
      <trkpt lat="45.73341" lon="4.62442">
        <ele>629.8</ele>
        <time>2020-06-14T09:14:50.000Z</time>
      </trkpt>
      <trkpt lat="45.73344" lon="4.62452">
        <ele>628</ele>
        <time>2020-06-14T09:14:51.000Z</time>
      </trkpt>
      <trkpt lat="45.73346" lon="4.62462">
        <ele>625.8</ele>
        <time>2020-06-14T09:14:52.000Z</time>
      </trkpt>
      <trkpt lat="45.73347" lon="4.62473">
        <ele>623.8</ele>
        <time>2020-06-14T09:14:53.000Z</time>
      </trkpt>
      <trkpt lat="45.73347" lon="4.62482">
        <ele>622.8</ele>
        <time>2020-06-14T09:14:54.000Z</time>
      </trkpt>
      <trkpt lat="45.73346" lon="4.62491">
        <ele>621.6</ele>
        <time>2020-06-14T09:14:55.000Z</time>
      </trkpt>
      <trkpt lat="45.73344" lon="4.62499">
        <ele>620.6</ele>
        <time>2020-06-14T09:14:56.000Z</time>
      </trkpt>
      <trkpt lat="45.73341" lon="4.62507">
        <ele>618.8</ele>
        <time>2020-06-14T09:14:57.000Z</time>
      </trkpt>
      <trkpt lat="45.73336" lon="4.62513">
        <ele>617.4</ele>
        <time>2020-06-14T09:14:58.000Z</time>
      </trkpt>
      <trkpt lat="45.7333" lon="4.62518">
        <ele>615.8</ele>
        <time>2020-06-14T09:14:59.000Z</time>
      </trkpt>
      <trkpt lat="45.73323" lon="4.62522">
        <ele>614</ele>
        <time>2020-06-14T09:15:00.000Z</time>
      </trkpt>
      <trkpt lat="45.73315" lon="4.62525">
        <ele>612.4</ele>
        <time>2020-06-14T09:15:01.000Z</time>
      </trkpt>
      <trkpt lat="45.733" lon="4.62535">
        <ele>610.2</ele>
        <time>2020-06-14T09:15:03.000Z</time>
      </trkpt>
      <trkpt lat="45.73294" lon="4.6254">
        <ele>608.6</ele>
        <time>2020-06-14T09:15:04.000Z</time>
      </trkpt>
      <trkpt lat="45.73288" lon="4.62545">
        <ele>608.6</ele>
        <time>2020-06-14T09:15:05.000Z</time>
      </trkpt>
      <trkpt lat="45.73284" lon="4.62551">
        <ele>607</ele>
        <time>2020-06-14T09:15:06.000Z</time>
      </trkpt>
      <trkpt lat="45.7328" lon="4.62556">
        <ele>605.6</ele>
        <time>2020-06-14T09:15:07.000Z</time>
      </trkpt>
      <trkpt lat="45.73273" lon="4.62568">
        <ele>603.4</ele>
        <time>2020-06-14T09:15:09.000Z</time>
      </trkpt>
      <trkpt lat="45.73269" lon="4.62574">
        <ele>602.4</ele>
        <time>2020-06-14T09:15:10.000Z</time>
      </trkpt>
      <trkpt lat="45.73266" lon="4.6258">
        <ele>602.4</ele>
        <time>2020-06-14T09:15:11.000Z</time>
      </trkpt>
      <trkpt lat="45.73264" lon="4.62586">
        <ele>602</ele>
        <time>2020-06-14T09:15:12.000Z</time>
      </trkpt>
      <trkpt lat="45.73261" lon="4.62591">
        <ele>602</ele>
        <time>2020-06-14T09:15:13.000Z</time>
      </trkpt>
      <trkpt lat="45.73259" lon="4.62597">
        <ele>602</ele>
        <time>2020-06-14T09:15:14.000Z</time>
      </trkpt>
      <trkpt lat="45.73256" lon="4.62602">
        <ele>602</ele>
        <time>2020-06-14T09:15:15.000Z</time>
      </trkpt>
      <trkpt lat="45.73239" lon="4.62636">
        <ele>602</ele>
        <time>2020-06-14T09:15:21.000Z</time>
      </trkpt>
      <trkpt lat="45.73236" lon="4.62641">
        <ele>601.8</ele>
        <time>2020-06-14T09:15:22.000Z</time>
      </trkpt>
      <trkpt lat="45.73233" lon="4.62647">
        <ele>601.8</ele>
        <time>2020-06-14T09:15:23.000Z</time>
      </trkpt>
      <trkpt lat="45.7323" lon="4.62653">
        <ele>602</ele>
        <time>2020-06-14T09:15:24.000Z</time>
      </trkpt>
      <trkpt lat="45.73228" lon="4.62659">
        <ele>602</ele>
        <time>2020-06-14T09:15:25.000Z</time>
      </trkpt>
      <trkpt lat="45.73225" lon="4.62665">
        <ele>602.2</ele>
        <time>2020-06-14T09:15:26.000Z</time>
      </trkpt>
      <trkpt lat="45.73222" lon="4.62671">
        <ele>602.2</ele>
        <time>2020-06-14T09:15:27.000Z</time>
      </trkpt>
      <trkpt lat="45.73219" lon="4.62677">
        <ele>602.2</ele>
        <time>2020-06-14T09:15:28.000Z</time>
      </trkpt>
      <trkpt lat="45.73217" lon="4.62683">
        <ele>602.2</ele>
        <time>2020-06-14T09:15:29.000Z</time>
      </trkpt>
      <trkpt lat="45.73214" lon="4.62688">
        <ele>602.2</ele>
        <time>2020-06-14T09:15:30.000Z</time>
      </trkpt>
      <trkpt lat="45.73211" lon="4.62694">
        <ele>602.4</ele>
        <time>2020-06-14T09:15:31.000Z</time>
      </trkpt>
      <trkpt lat="45.73209" lon="4.62699">
        <ele>602.6</ele>
        <time>2020-06-14T09:15:32.000Z</time>
      </trkpt>
      <trkpt lat="45.73206" lon="4.62705">
        <ele>602.8</ele>
        <time>2020-06-14T09:15:33.000Z</time>
      </trkpt>
      <trkpt lat="45.73203" lon="4.62711">
        <ele>603</ele>
        <time>2020-06-14T09:15:34.000Z</time>
      </trkpt>
      <trkpt lat="45.732" lon="4.62716">
        <ele>603.2</ele>
        <time>2020-06-14T09:15:35.000Z</time>
      </trkpt>
      <trkpt lat="45.73199" lon="4.62722">
        <ele>603.4</ele>
        <time>2020-06-14T09:15:36.000Z</time>
      </trkpt>
      <trkpt lat="45.73198" lon="4.62727">
        <ele>603.4</ele>
        <time>2020-06-14T09:15:37.000Z</time>
      </trkpt>
      <trkpt lat="45.73197" lon="4.62733">
        <ele>603.8</ele>
        <time>2020-06-14T09:15:38.000Z</time>
      </trkpt>
      <trkpt lat="45.73196" lon="4.62738">
        <ele>604.2</ele>
        <time>2020-06-14T09:15:39.000Z</time>
      </trkpt>
      <trkpt lat="45.73193" lon="4.62751">
        <ele>604.4</ele>
        <time>2020-06-14T09:15:41.000Z</time>
      </trkpt>
      <trkpt lat="45.73192" lon="4.62758">
        <ele>604.6</ele>
        <time>2020-06-14T09:15:42.000Z</time>
      </trkpt>
      <trkpt lat="45.7319" lon="4.62765">
        <ele>604.6</ele>
        <time>2020-06-14T09:15:43.000Z</time>
      </trkpt>
      <trkpt lat="45.73184" lon="4.62787">
        <ele>604.6</ele>
        <time>2020-06-14T09:15:46.000Z</time>
      </trkpt>
      <trkpt lat="45.7318" lon="4.62796">
        <ele>604.6</ele>
        <time>2020-06-14T09:15:47.000Z</time>
      </trkpt>
      <trkpt lat="45.73177" lon="4.62804">
        <ele>604.6</ele>
        <time>2020-06-14T09:15:48.000Z</time>
      </trkpt>
      <trkpt lat="45.73167" lon="4.62833">
        <ele>604.4</ele>
        <time>2020-06-14T09:15:51.000Z</time>
      </trkpt>
      <trkpt lat="45.73165" lon="4.62843">
        <ele>604</ele>
        <time>2020-06-14T09:15:52.000Z</time>
      </trkpt>
      <trkpt lat="45.73162" lon="4.62854">
        <ele>603.4</ele>
        <time>2020-06-14T09:15:53.000Z</time>
      </trkpt>
      <trkpt lat="45.73161" lon="4.62865">
        <ele>603.2</ele>
        <time>2020-06-14T09:15:54.000Z</time>
      </trkpt>
      <trkpt lat="45.7316" lon="4.62876">
        <ele>602.6</ele>
        <time>2020-06-14T09:15:55.000Z</time>
      </trkpt>
      <trkpt lat="45.73159" lon="4.62887">
        <ele>602</ele>
        <time>2020-06-14T09:15:56.000Z</time>
      </trkpt>
      <trkpt lat="45.73158" lon="4.62898">
        <ele>601.6</ele>
        <time>2020-06-14T09:15:57.000Z</time>
      </trkpt>
      <trkpt lat="45.73158" lon="4.62909">
        <ele>601.4</ele>
        <time>2020-06-14T09:15:58.000Z</time>
      </trkpt>
      <trkpt lat="45.73157" lon="4.62921">
        <ele>601</ele>
        <time>2020-06-14T09:15:59.000Z</time>
      </trkpt>
      <trkpt lat="45.73156" lon="4.62932">
        <ele>600.2</ele>
        <time>2020-06-14T09:16:00.000Z</time>
      </trkpt>
      <trkpt lat="45.73155" lon="4.62943">
        <ele>599.2</ele>
        <time>2020-06-14T09:16:01.000Z</time>
      </trkpt>
      <trkpt lat="45.73155" lon="4.62955">
        <ele>598.6</ele>
        <time>2020-06-14T09:16:02.000Z</time>
      </trkpt>
      <trkpt lat="45.73154" lon="4.62966">
        <ele>597.8</ele>
        <time>2020-06-14T09:16:03.000Z</time>
      </trkpt>
      <trkpt lat="45.73154" lon="4.62977">
        <ele>597.2</ele>
        <time>2020-06-14T09:16:04.000Z</time>
      </trkpt>
      <trkpt lat="45.73154" lon="4.62987">
        <ele>597.2</ele>
        <time>2020-06-14T09:16:05.000Z</time>
      </trkpt>
      <trkpt lat="45.73155" lon="4.62998">
        <ele>597</ele>
        <time>2020-06-14T09:16:06.000Z</time>
      </trkpt>
      <trkpt lat="45.73155" lon="4.63008">
        <ele>596.6</ele>
        <time>2020-06-14T09:16:07.000Z</time>
      </trkpt>
      <trkpt lat="45.73155" lon="4.63017">
        <ele>596.2</ele>
        <time>2020-06-14T09:16:08.000Z</time>
      </trkpt>
      <trkpt lat="45.73155" lon="4.63027">
        <ele>595.6</ele>
        <time>2020-06-14T09:16:09.000Z</time>
      </trkpt>
      <trkpt lat="45.73154" lon="4.63036">
        <ele>595</ele>
        <time>2020-06-14T09:16:10.000Z</time>
      </trkpt>
      <trkpt lat="45.73153" lon="4.63054">
        <ele>594.4</ele>
        <time>2020-06-14T09:16:12.000Z</time>
      </trkpt>
      <trkpt lat="45.73153" lon="4.63063">
        <ele>594.2</ele>
        <time>2020-06-14T09:16:13.000Z</time>
      </trkpt>
      <trkpt lat="45.73153" lon="4.63072">
        <ele>594</ele>
        <time>2020-06-14T09:16:14.000Z</time>
      </trkpt>
      <trkpt lat="45.73153" lon="4.63082">
        <ele>594</ele>
        <time>2020-06-14T09:16:15.000Z</time>
      </trkpt>
      <trkpt lat="45.73153" lon="4.63091">
        <ele>593.8</ele>
        <time>2020-06-14T09:16:16.000Z</time>
      </trkpt>
      <trkpt lat="45.73154" lon="4.631">
        <ele>593.6</ele>
        <time>2020-06-14T09:16:17.000Z</time>
      </trkpt>
      <trkpt lat="45.73154" lon="4.63108">
        <ele>593.2</ele>
        <time>2020-06-14T09:16:18.000Z</time>
      </trkpt>
      <trkpt lat="45.73155" lon="4.63117">
        <ele>593</ele>
        <time>2020-06-14T09:16:19.000Z</time>
      </trkpt>
      <trkpt lat="45.73155" lon="4.63125">
        <ele>592.8</ele>
        <time>2020-06-14T09:16:20.000Z</time>
      </trkpt>
      <trkpt lat="45.73156" lon="4.63134">
        <ele>592.6</ele>
        <time>2020-06-14T09:16:21.000Z</time>
      </trkpt>
      <trkpt lat="45.73157" lon="4.63142">
        <ele>592.4</ele>
        <time>2020-06-14T09:16:22.000Z</time>
      </trkpt>
      <trkpt lat="45.73157" lon="4.6315">
        <ele>592.4</ele>
        <time>2020-06-14T09:16:23.000Z</time>
      </trkpt>
      <trkpt lat="45.73157" lon="4.63158">
        <ele>592.2</ele>
        <time>2020-06-14T09:16:24.000Z</time>
      </trkpt>
      <trkpt lat="45.73154" lon="4.63194">
        <ele>591.8</ele>
        <time>2020-06-14T09:16:28.000Z</time>
      </trkpt>
      <trkpt lat="45.73153" lon="4.63203">
        <ele>591.8</ele>
        <time>2020-06-14T09:16:29.000Z</time>
      </trkpt>
      <trkpt lat="45.73151" lon="4.63212">
        <ele>591.2</ele>
        <time>2020-06-14T09:16:30.000Z</time>
      </trkpt>
      <trkpt lat="45.7315" lon="4.6322">
        <ele>590.8</ele>
        <time>2020-06-14T09:16:31.000Z</time>
      </trkpt>
      <trkpt lat="45.73146" lon="4.63256">
        <ele>590</ele>
        <time>2020-06-14T09:16:35.000Z</time>
      </trkpt>
      <trkpt lat="45.73146" lon="4.63265">
        <ele>589.8</ele>
        <time>2020-06-14T09:16:36.000Z</time>
      </trkpt>
      <trkpt lat="45.73145" lon="4.63273">
        <ele>589.8</ele>
        <time>2020-06-14T09:16:37.000Z</time>
      </trkpt>
      <trkpt lat="45.73144" lon="4.63282">
        <ele>589.6</ele>
        <time>2020-06-14T09:16:38.000Z</time>
      </trkpt>
      <trkpt lat="45.73142" lon="4.633">
        <ele>589.6</ele>
        <time>2020-06-14T09:16:40.000Z</time>
      </trkpt>
      <trkpt lat="45.7314" lon="4.63308">
        <ele>589.6</ele>
        <time>2020-06-14T09:16:41.000Z</time>
      </trkpt>
      <trkpt lat="45.73139" lon="4.63317">
        <ele>589.6</ele>
        <time>2020-06-14T09:16:42.000Z</time>
      </trkpt>
      <trkpt lat="45.73138" lon="4.63324">
        <ele>589.6</ele>
        <time>2020-06-14T09:16:43.000Z</time>
      </trkpt>
      <trkpt lat="45.73138" lon="4.63333">
        <ele>589.6</ele>
        <time>2020-06-14T09:16:44.000Z</time>
      </trkpt>
      <trkpt lat="45.73137" lon="4.63341">
        <ele>589.6</ele>
        <time>2020-06-14T09:16:45.000Z</time>
      </trkpt>
      <trkpt lat="45.73136" lon="4.63349">
        <ele>589.6</ele>
        <time>2020-06-14T09:16:46.000Z</time>
      </trkpt>
      <trkpt lat="45.73136" lon="4.63357">
        <ele>589.6</ele>
        <time>2020-06-14T09:16:47.000Z</time>
      </trkpt>
      <trkpt lat="45.73133" lon="4.63391">
        <ele>589.8</ele>
        <time>2020-06-14T09:16:51.000Z</time>
      </trkpt>
      <trkpt lat="45.73132" lon="4.634">
        <ele>590</ele>
        <time>2020-06-14T09:16:52.000Z</time>
      </trkpt>
      <trkpt lat="45.7313" lon="4.63408">
        <ele>590</ele>
        <time>2020-06-14T09:16:53.000Z</time>
      </trkpt>
      <trkpt lat="45.73128" lon="4.63417">
        <ele>590</ele>
        <time>2020-06-14T09:16:54.000Z</time>
      </trkpt>
      <trkpt lat="45.73122" lon="4.63441">
        <ele>590</ele>
        <time>2020-06-14T09:16:57.000Z</time>
      </trkpt>
      <trkpt lat="45.7312" lon="4.6345">
        <ele>590</ele>
        <time>2020-06-14T09:16:58.000Z</time>
      </trkpt>
      <trkpt lat="45.73114" lon="4.63478">
        <ele>590</ele>
        <time>2020-06-14T09:17:01.000Z</time>
      </trkpt>
      <trkpt lat="45.73113" lon="4.63489">
        <ele>590.2</ele>
        <time>2020-06-14T09:17:02.000Z</time>
      </trkpt>
      <trkpt lat="45.73112" lon="4.63499">
        <ele>590</ele>
        <time>2020-06-14T09:17:03.000Z</time>
      </trkpt>
      <trkpt lat="45.73109" lon="4.63521">
        <ele>589.8</ele>
        <time>2020-06-14T09:17:05.000Z</time>
      </trkpt>
      <trkpt lat="45.73105" lon="4.63544">
        <ele>589.6</ele>
        <time>2020-06-14T09:17:07.000Z</time>
      </trkpt>
      <trkpt lat="45.73103" lon="4.63557">
        <ele>589.2</ele>
        <time>2020-06-14T09:17:08.000Z</time>
      </trkpt>
      <trkpt lat="45.73101" lon="4.6357">
        <ele>588.4</ele>
        <time>2020-06-14T09:17:09.000Z</time>
      </trkpt>
      <trkpt lat="45.73099" lon="4.63583">
        <ele>588</ele>
        <time>2020-06-14T09:17:10.000Z</time>
      </trkpt>
      <trkpt lat="45.73097" lon="4.63596">
        <ele>587.4</ele>
        <time>2020-06-14T09:17:11.000Z</time>
      </trkpt>
      <trkpt lat="45.73095" lon="4.63609">
        <ele>586.4</ele>
        <time>2020-06-14T09:17:12.000Z</time>
      </trkpt>
      <trkpt lat="45.73093" lon="4.63622">
        <ele>585</ele>
        <time>2020-06-14T09:17:13.000Z</time>
      </trkpt>
      <trkpt lat="45.73091" lon="4.63635">
        <ele>584.2</ele>
        <time>2020-06-14T09:17:14.000Z</time>
      </trkpt>
      <trkpt lat="45.73089" lon="4.63647">
        <ele>583.4</ele>
        <time>2020-06-14T09:17:15.000Z</time>
      </trkpt>
      <trkpt lat="45.73089" lon="4.63659">
        <ele>582</ele>
        <time>2020-06-14T09:17:16.000Z</time>
      </trkpt>
      <trkpt lat="45.73089" lon="4.6367">
        <ele>581.2</ele>
        <time>2020-06-14T09:17:17.000Z</time>
      </trkpt>
      <trkpt lat="45.73091" lon="4.63682">
        <ele>580.2</ele>
        <time>2020-06-14T09:17:18.000Z</time>
      </trkpt>
      <trkpt lat="45.73092" lon="4.63694">
        <ele>579.2</ele>
        <time>2020-06-14T09:17:19.000Z</time>
      </trkpt>
      <trkpt lat="45.73092" lon="4.63706">
        <ele>578.6</ele>
        <time>2020-06-14T09:17:20.000Z</time>
      </trkpt>
      <trkpt lat="45.73093" lon="4.63717">
        <ele>578.2</ele>
        <time>2020-06-14T09:17:21.000Z</time>
      </trkpt>
      <trkpt lat="45.73094" lon="4.63729">
        <ele>577.4</ele>
        <time>2020-06-14T09:17:22.000Z</time>
      </trkpt>
      <trkpt lat="45.73097" lon="4.63751">
        <ele>576.8</ele>
        <time>2020-06-14T09:17:24.000Z</time>
      </trkpt>
      <trkpt lat="45.73098" lon="4.63776">
        <ele>576.4</ele>
        <time>2020-06-14T09:17:26.000Z</time>
      </trkpt>
      <trkpt lat="45.73099" lon="4.63801">
        <ele>576</ele>
        <time>2020-06-14T09:17:28.000Z</time>
      </trkpt>
      <trkpt lat="45.731" lon="4.63814">
        <ele>576</ele>
        <time>2020-06-14T09:17:29.000Z</time>
      </trkpt>
      <trkpt lat="45.73101" lon="4.63827">
        <ele>575.6</ele>
        <time>2020-06-14T09:17:30.000Z</time>
      </trkpt>
      <trkpt lat="45.73101" lon="4.6384">
        <ele>574.8</ele>
        <time>2020-06-14T09:17:31.000Z</time>
      </trkpt>
      <trkpt lat="45.731" lon="4.63852">
        <ele>574.4</ele>
        <time>2020-06-14T09:17:32.000Z</time>
      </trkpt>
      <trkpt lat="45.73098" lon="4.63864">
        <ele>574.2</ele>
        <time>2020-06-14T09:17:33.000Z</time>
      </trkpt>
      <trkpt lat="45.73095" lon="4.63875">
        <ele>572.8</ele>
        <time>2020-06-14T09:17:34.000Z</time>
      </trkpt>
      <trkpt lat="45.73092" lon="4.63887">
        <ele>571.8</ele>
        <time>2020-06-14T09:17:35.000Z</time>
      </trkpt>
      <trkpt lat="45.73084" lon="4.63911">
        <ele>569.6</ele>
        <time>2020-06-14T09:17:37.000Z</time>
      </trkpt>
      <trkpt lat="45.73075" lon="4.63935">
        <ele>568.4</ele>
        <time>2020-06-14T09:17:39.000Z</time>
      </trkpt>
      <trkpt lat="45.73071" lon="4.63947">
        <ele>567.6</ele>
        <time>2020-06-14T09:17:40.000Z</time>
      </trkpt>
      <trkpt lat="45.73066" lon="4.6396">
        <ele>567.2</ele>
        <time>2020-06-14T09:17:41.000Z</time>
      </trkpt>
      <trkpt lat="45.73063" lon="4.63973">
        <ele>566.6</ele>
        <time>2020-06-14T09:17:42.000Z</time>
      </trkpt>
      <trkpt lat="45.7306" lon="4.63985">
        <ele>566</ele>
        <time>2020-06-14T09:17:43.000Z</time>
      </trkpt>
      <trkpt lat="45.73057" lon="4.63996">
        <ele>565.6</ele>
        <time>2020-06-14T09:17:44.000Z</time>
      </trkpt>
      <trkpt lat="45.73055" lon="4.64007">
        <ele>564.6</ele>
        <time>2020-06-14T09:17:45.000Z</time>
      </trkpt>
      <trkpt lat="45.73052" lon="4.64016">
        <ele>563.2</ele>
        <time>2020-06-14T09:17:46.000Z</time>
      </trkpt>
      <trkpt lat="45.7305" lon="4.64026">
        <ele>563.2</ele>
        <time>2020-06-14T09:17:47.000Z</time>
      </trkpt>
      <trkpt lat="45.73047" lon="4.64035">
        <ele>562.4</ele>
        <time>2020-06-14T09:17:48.000Z</time>
      </trkpt>
      <trkpt lat="45.73045" lon="4.64044">
        <ele>561.4</ele>
        <time>2020-06-14T09:17:49.000Z</time>
      </trkpt>
      <trkpt lat="45.73042" lon="4.64052">
        <ele>560.4</ele>
        <time>2020-06-14T09:17:50.000Z</time>
      </trkpt>
      <trkpt lat="45.7304" lon="4.64058">
        <ele>559.6</ele>
        <time>2020-06-14T09:17:51.000Z</time>
      </trkpt>
      <trkpt lat="45.73039" lon="4.64064">
        <ele>559.2</ele>
        <time>2020-06-14T09:17:52.000Z</time>
      </trkpt>
      <trkpt lat="45.73038" lon="4.64069">
        <ele>558.6</ele>
        <time>2020-06-14T09:17:53.000Z</time>
      </trkpt>
      <trkpt lat="45.73037" lon="4.64072">
        <ele>557.8</ele>
        <time>2020-06-14T09:17:54.000Z</time>
      </trkpt>
      <trkpt lat="45.73034" lon="4.6408">
        <ele>553.8</ele>
        <time>2020-06-14T09:27:22.000Z</time>
      </trkpt>
      <trkpt lat="45.73034" lon="4.64082">
        <ele>554</ele>
        <time>2020-06-14T09:27:23.000Z</time>
      </trkpt>
      <trkpt lat="45.73033" lon="4.64084">
        <ele>553.8</ele>
        <time>2020-06-14T09:27:24.000Z</time>
      </trkpt>
      <trkpt lat="45.73033" lon="4.64086">
        <ele>553.8</ele>
        <time>2020-06-14T09:27:25.000Z</time>
      </trkpt>
      <trkpt lat="45.73032" lon="4.64088">
        <ele>553.6</ele>
        <time>2020-06-14T09:27:26.000Z</time>
      </trkpt>
      <trkpt lat="45.73031" lon="4.64092">
        <ele>553.6</ele>
        <time>2020-06-14T09:27:27.000Z</time>
      </trkpt>
      <trkpt lat="45.73029" lon="4.64096">
        <ele>553.6</ele>
        <time>2020-06-14T09:27:28.000Z</time>
      </trkpt>
      <trkpt lat="45.73027" lon="4.64101">
        <ele>553.4</ele>
        <time>2020-06-14T09:27:29.000Z</time>
      </trkpt>
      <trkpt lat="45.73024" lon="4.64107">
        <ele>553.6</ele>
        <time>2020-06-14T09:27:30.000Z</time>
      </trkpt>
      <trkpt lat="45.73018" lon="4.64121">
        <ele>553</ele>
        <time>2020-06-14T09:27:32.000Z</time>
      </trkpt>
      <trkpt lat="45.73016" lon="4.64128">
        <ele>552.8</ele>
        <time>2020-06-14T09:27:33.000Z</time>
      </trkpt>
      <trkpt lat="45.73014" lon="4.64135">
        <ele>552.4</ele>
        <time>2020-06-14T09:27:34.000Z</time>
      </trkpt>
      <trkpt lat="45.73013" lon="4.64141">
        <ele>552.2</ele>
        <time>2020-06-14T09:27:35.000Z</time>
      </trkpt>
      <trkpt lat="45.73012" lon="4.64146">
        <ele>551.2</ele>
        <time>2020-06-14T09:27:36.000Z</time>
      </trkpt>
      <trkpt lat="45.73011" lon="4.6415">
        <ele>550.4</ele>
        <time>2020-06-14T09:27:37.000Z</time>
      </trkpt>
      <trkpt lat="45.7301" lon="4.64154">
        <ele>550</ele>
        <time>2020-06-14T09:27:38.000Z</time>
      </trkpt>
      <trkpt lat="45.73009" lon="4.64158">
        <ele>550</ele>
        <time>2020-06-14T09:27:39.000Z</time>
      </trkpt>
      <trkpt lat="45.73008" lon="4.64163">
        <ele>548</ele>
        <time>2020-06-14T09:27:40.000Z</time>
      </trkpt>
      <trkpt lat="45.73007" lon="4.64168">
        <ele>546.8</ele>
        <time>2020-06-14T09:27:41.000Z</time>
      </trkpt>
      <trkpt lat="45.73005" lon="4.64179">
        <ele>545</ele>
        <time>2020-06-14T09:27:43.000Z</time>
      </trkpt>
      <trkpt lat="45.73004" lon="4.64185">
        <ele>544.6</ele>
        <time>2020-06-14T09:27:44.000Z</time>
      </trkpt>
      <trkpt lat="45.73003" lon="4.64192">
        <ele>544</ele>
        <time>2020-06-14T09:27:45.000Z</time>
      </trkpt>
      <trkpt lat="45.73" lon="4.64206">
        <ele>543.2</ele>
        <time>2020-06-14T09:27:47.000Z</time>
      </trkpt>
      <trkpt lat="45.72999" lon="4.64213">
        <ele>542.8</ele>
        <time>2020-06-14T09:27:48.000Z</time>
      </trkpt>
      <trkpt lat="45.72999" lon="4.64221">
        <ele>542.6</ele>
        <time>2020-06-14T09:27:49.000Z</time>
      </trkpt>
      <trkpt lat="45.72999" lon="4.64228">
        <ele>541.6</ele>
        <time>2020-06-14T09:27:50.000Z</time>
      </trkpt>
      <trkpt lat="45.72999" lon="4.64235">
        <ele>540.6</ele>
        <time>2020-06-14T09:27:51.000Z</time>
      </trkpt>
      <trkpt lat="45.72999" lon="4.64244">
        <ele>540</ele>
        <time>2020-06-14T09:27:52.000Z</time>
      </trkpt>
      <trkpt lat="45.73001" lon="4.64252">
        <ele>539.2</ele>
        <time>2020-06-14T09:27:53.000Z</time>
      </trkpt>
      <trkpt lat="45.73004" lon="4.6426">
        <ele>538.4</ele>
        <time>2020-06-14T09:27:54.000Z</time>
      </trkpt>
      <trkpt lat="45.73008" lon="4.64275">
        <ele>537</ele>
        <time>2020-06-14T09:27:56.000Z</time>
      </trkpt>
      <trkpt lat="45.7301" lon="4.64283">
        <ele>536</ele>
        <time>2020-06-14T09:27:57.000Z</time>
      </trkpt>
      <trkpt lat="45.73013" lon="4.64292">
        <ele>535</ele>
        <time>2020-06-14T09:27:58.000Z</time>
      </trkpt>
      <trkpt lat="45.73017" lon="4.64301">
        <ele>535</ele>
        <time>2020-06-14T09:27:59.000Z</time>
      </trkpt>
      <trkpt lat="45.73021" lon="4.64309">
        <ele>534.6</ele>
        <time>2020-06-14T09:28:00.000Z</time>
      </trkpt>
      <trkpt lat="45.73026" lon="4.64315">
        <ele>534.4</ele>
        <time>2020-06-14T09:28:01.000Z</time>
      </trkpt>
      <trkpt lat="45.7303" lon="4.64322">
        <ele>533.4</ele>
        <time>2020-06-14T09:28:02.000Z</time>
      </trkpt>
      <trkpt lat="45.73033" lon="4.64331">
        <ele>531.8</ele>
        <time>2020-06-14T09:28:03.000Z</time>
      </trkpt>
      <trkpt lat="45.73036" lon="4.6434">
        <ele>531.2</ele>
        <time>2020-06-14T09:28:04.000Z</time>
      </trkpt>
      <trkpt lat="45.73039" lon="4.6435">
        <ele>530.6</ele>
        <time>2020-06-14T09:28:05.000Z</time>
      </trkpt>
      <trkpt lat="45.73043" lon="4.64359">
        <ele>529.6</ele>
        <time>2020-06-14T09:28:06.000Z</time>
      </trkpt>
      <trkpt lat="45.73047" lon="4.64367">
        <ele>528.2</ele>
        <time>2020-06-14T09:28:07.000Z</time>
      </trkpt>
      <trkpt lat="45.7305" lon="4.64374">
        <ele>527.4</ele>
        <time>2020-06-14T09:28:08.000Z</time>
      </trkpt>
      <trkpt lat="45.73052" lon="4.64382">
        <ele>526.6</ele>
        <time>2020-06-14T09:28:09.000Z</time>
      </trkpt>
      <trkpt lat="45.73053" lon="4.6439">
        <ele>525.4</ele>
        <time>2020-06-14T09:28:10.000Z</time>
      </trkpt>
      <trkpt lat="45.73056" lon="4.64398">
        <ele>525</ele>
        <time>2020-06-14T09:28:11.000Z</time>
      </trkpt>
      <trkpt lat="45.73058" lon="4.64406">
        <ele>524</ele>
        <time>2020-06-14T09:28:12.000Z</time>
      </trkpt>
      <trkpt lat="45.7306" lon="4.64415">
        <ele>523</ele>
        <time>2020-06-14T09:28:13.000Z</time>
      </trkpt>
      <trkpt lat="45.73063" lon="4.64423">
        <ele>522.4</ele>
        <time>2020-06-14T09:28:14.000Z</time>
      </trkpt>
      <trkpt lat="45.73067" lon="4.64429">
        <ele>522</ele>
        <time>2020-06-14T09:28:15.000Z</time>
      </trkpt>
      <trkpt lat="45.73069" lon="4.64435">
        <ele>521.6</ele>
        <time>2020-06-14T09:28:16.000Z</time>
      </trkpt>
      <trkpt lat="45.7307" lon="4.64441">
        <ele>520.6</ele>
        <time>2020-06-14T09:28:17.000Z</time>
      </trkpt>
      <trkpt lat="45.7307" lon="4.64449">
        <ele>519.8</ele>
        <time>2020-06-14T09:28:18.000Z</time>
      </trkpt>
      <trkpt lat="45.7307" lon="4.64457">
        <ele>519.8</ele>
        <time>2020-06-14T09:28:19.000Z</time>
      </trkpt>
      <trkpt lat="45.7307" lon="4.64465">
        <ele>518.4</ele>
        <time>2020-06-14T09:28:20.000Z</time>
      </trkpt>
      <trkpt lat="45.73069" lon="4.64472">
        <ele>516.6</ele>
        <time>2020-06-14T09:28:21.000Z</time>
      </trkpt>
      <trkpt lat="45.73067" lon="4.64488">
        <ele>514</ele>
        <time>2020-06-14T09:28:23.000Z</time>
      </trkpt>
      <trkpt lat="45.73067" lon="4.64496">
        <ele>513.2</ele>
        <time>2020-06-14T09:28:24.000Z</time>
      </trkpt>
      <trkpt lat="45.73069" lon="4.64503">
        <ele>512.8</ele>
        <time>2020-06-14T09:28:25.000Z</time>
      </trkpt>
      <trkpt lat="45.7307" lon="4.6451">
        <ele>511.4</ele>
        <time>2020-06-14T09:28:26.000Z</time>
      </trkpt>
      <trkpt lat="45.7307" lon="4.64517">
        <ele>510.6</ele>
        <time>2020-06-14T09:28:27.000Z</time>
      </trkpt>
      <trkpt lat="45.7307" lon="4.64524">
        <ele>509.4</ele>
        <time>2020-06-14T09:28:28.000Z</time>
      </trkpt>
      <trkpt lat="45.7307" lon="4.64531">
        <ele>508.4</ele>
        <time>2020-06-14T09:28:29.000Z</time>
      </trkpt>
      <trkpt lat="45.73071" lon="4.64537">
        <ele>507</ele>
        <time>2020-06-14T09:28:30.000Z</time>
      </trkpt>
      <trkpt lat="45.73077" lon="4.64548">
        <ele>506.4</ele>
        <time>2020-06-14T09:28:31.000Z</time>
      </trkpt>
      <trkpt lat="45.73077" lon="4.64548">
        <ele>505.4</ele>
        <time>2020-06-14T09:28:32.000Z</time>
      </trkpt>
      <trkpt lat="45.7308" lon="4.64553">
        <ele>504.8</ele>
        <time>2020-06-14T09:28:33.000Z</time>
      </trkpt>
      <trkpt lat="45.73084" lon="4.64557">
        <ele>504</ele>
        <time>2020-06-14T09:28:34.000Z</time>
      </trkpt>
      <trkpt lat="45.73088" lon="4.64561">
        <ele>502.4</ele>
        <time>2020-06-14T09:28:35.000Z</time>
      </trkpt>
      <trkpt lat="45.73091" lon="4.64564">
        <ele>500.4</ele>
        <time>2020-06-14T09:28:36.000Z</time>
      </trkpt>
      <trkpt lat="45.73091" lon="4.64567">
        <ele>499.4</ele>
        <time>2020-06-14T09:28:37.000Z</time>
      </trkpt>
      <trkpt lat="45.73091" lon="4.6457">
        <ele>497.6</ele>
        <time>2020-06-14T09:28:38.000Z</time>
      </trkpt>
      <trkpt lat="45.7309" lon="4.64571">
        <ele>497.6</ele>
        <time>2020-06-14T09:28:39.000Z</time>
      </trkpt>
      <trkpt lat="45.73088" lon="4.64573">
        <ele>496.6</ele>
        <time>2020-06-14T09:28:40.000Z</time>
      </trkpt>
      <trkpt lat="45.73086" lon="4.64574">
        <ele>495.8</ele>
        <time>2020-06-14T09:28:41.000Z</time>
      </trkpt>
      <trkpt lat="45.73084" lon="4.64575">
        <ele>494.4</ele>
        <time>2020-06-14T09:28:42.000Z</time>
      </trkpt>
      <trkpt lat="45.73082" lon="4.64577">
        <ele>493.6</ele>
        <time>2020-06-14T09:28:43.000Z</time>
      </trkpt>
      <trkpt lat="45.73081" lon="4.6458">
        <ele>492.6</ele>
        <time>2020-06-14T09:28:44.000Z</time>
      </trkpt>
      <trkpt lat="45.73079" lon="4.64585">
        <ele>490.8</ele>
        <time>2020-06-14T09:28:46.000Z</time>
      </trkpt>
      <trkpt lat="45.73079" lon="4.64588">
        <ele>490.4</ele>
        <time>2020-06-14T09:28:47.000Z</time>
      </trkpt>
      <trkpt lat="45.73079" lon="4.64591">
        <ele>488</ele>
        <time>2020-06-14T09:28:51.000Z</time>
      </trkpt>
      <trkpt lat="45.73079" lon="4.64593">
        <ele>487.4</ele>
        <time>2020-06-14T09:28:52.000Z</time>
      </trkpt>
      <trkpt lat="45.73081" lon="4.64598">
        <ele>486.2</ele>
        <time>2020-06-14T09:28:53.000Z</time>
      </trkpt>
      <trkpt lat="45.73084" lon="4.64603">
        <ele>485.6</ele>
        <time>2020-06-14T09:28:54.000Z</time>
      </trkpt>
      <trkpt lat="45.73088" lon="4.64609">
        <ele>485.2</ele>
        <time>2020-06-14T09:28:55.000Z</time>
      </trkpt>
      <trkpt lat="45.73092" lon="4.64614">
        <ele>485</ele>
        <time>2020-06-14T09:28:56.000Z</time>
      </trkpt>
      <trkpt lat="45.73094" lon="4.6462">
        <ele>484.8</ele>
        <time>2020-06-14T09:28:57.000Z</time>
      </trkpt>
      <trkpt lat="45.73095" lon="4.64625">
        <ele>484.8</ele>
        <time>2020-06-14T09:28:58.000Z</time>
      </trkpt>
      <trkpt lat="45.73094" lon="4.64631">
        <ele>484.8</ele>
        <time>2020-06-14T09:28:59.000Z</time>
      </trkpt>
      <trkpt lat="45.73092" lon="4.64636">
        <ele>484.2</ele>
        <time>2020-06-14T09:29:00.000Z</time>
      </trkpt>
      <trkpt lat="45.73087" lon="4.64641">
        <ele>483</ele>
        <time>2020-06-14T09:29:01.000Z</time>
      </trkpt>
      <trkpt lat="45.73081" lon="4.64645">
        <ele>482.4</ele>
        <time>2020-06-14T09:29:02.000Z</time>
      </trkpt>
      <trkpt lat="45.73072" lon="4.64649">
        <ele>480.4</ele>
        <time>2020-06-14T09:29:03.000Z</time>
      </trkpt>
      <trkpt lat="45.73063" lon="4.64653">
        <ele>478.6</ele>
        <time>2020-06-14T09:29:04.000Z</time>
      </trkpt>
      <trkpt lat="45.73046" lon="4.64659">
        <ele>476.6</ele>
        <time>2020-06-14T09:29:06.000Z</time>
      </trkpt>
      <trkpt lat="45.73039" lon="4.64662">
        <ele>476</ele>
        <time>2020-06-14T09:29:07.000Z</time>
      </trkpt>
      <trkpt lat="45.73032" lon="4.64665">
        <ele>475.2</ele>
        <time>2020-06-14T09:29:08.000Z</time>
      </trkpt>
      <trkpt lat="45.73026" lon="4.64669">
        <ele>474.6</ele>
        <time>2020-06-14T09:29:09.000Z</time>
      </trkpt>
      <trkpt lat="45.73016" lon="4.64679">
        <ele>474.2</ele>
        <time>2020-06-14T09:29:10.000Z</time>
      </trkpt>
      <trkpt lat="45.73016" lon="4.64679">
        <ele>473</ele>
        <time>2020-06-14T09:29:11.000Z</time>
      </trkpt>
      <trkpt lat="45.73011" lon="4.64685">
        <ele>471.6</ele>
        <time>2020-06-14T09:29:12.000Z</time>
      </trkpt>
      <trkpt lat="45.73006" lon="4.64691">
        <ele>470</ele>
        <time>2020-06-14T09:29:13.000Z</time>
      </trkpt>
      <trkpt lat="45.73001" lon="4.64696">
        <ele>469.2</ele>
        <time>2020-06-14T09:29:14.000Z</time>
      </trkpt>
      <trkpt lat="45.72996" lon="4.64702">
        <ele>468.6</ele>
        <time>2020-06-14T09:29:15.000Z</time>
      </trkpt>
      <trkpt lat="45.72991" lon="4.64705">
        <ele>468.2</ele>
        <time>2020-06-14T09:29:16.000Z</time>
      </trkpt>
      <trkpt lat="45.72987" lon="4.64708">
        <ele>468</ele>
        <time>2020-06-14T09:29:17.000Z</time>
      </trkpt>
      <trkpt lat="45.72984" lon="4.6471">
        <ele>467</ele>
        <time>2020-06-14T09:29:18.000Z</time>
      </trkpt>
      <trkpt lat="45.72982" lon="4.64712">
        <ele>466.4</ele>
        <time>2020-06-14T09:29:19.000Z</time>
      </trkpt>
      <trkpt lat="45.72982" lon="4.64715">
        <ele>466.4</ele>
        <time>2020-06-14T09:29:20.000Z</time>
      </trkpt>
      <trkpt lat="45.72981" lon="4.64718">
        <ele>465.6</ele>
        <time>2020-06-14T09:29:21.000Z</time>
      </trkpt>
      <trkpt lat="45.72981" lon="4.64721">
        <ele>465</ele>
        <time>2020-06-14T09:29:22.000Z</time>
      </trkpt>
      <trkpt lat="45.72981" lon="4.64726">
        <ele>464.2</ele>
        <time>2020-06-14T09:29:23.000Z</time>
      </trkpt>
      <trkpt lat="45.72982" lon="4.64732">
        <ele>463.4</ele>
        <time>2020-06-14T09:29:24.000Z</time>
      </trkpt>
      <trkpt lat="45.72982" lon="4.64739">
        <ele>462.8</ele>
        <time>2020-06-14T09:29:25.000Z</time>
      </trkpt>
      <trkpt lat="45.72983" lon="4.64746">
        <ele>462.4</ele>
        <time>2020-06-14T09:29:26.000Z</time>
      </trkpt>
      <trkpt lat="45.72982" lon="4.64753">
        <ele>461.8</ele>
        <time>2020-06-14T09:29:27.000Z</time>
      </trkpt>
      <trkpt lat="45.7298" lon="4.64759">
        <ele>461.4</ele>
        <time>2020-06-14T09:29:28.000Z</time>
      </trkpt>
      <trkpt lat="45.72976" lon="4.64764">
        <ele>461</ele>
        <time>2020-06-14T09:29:29.000Z</time>
      </trkpt>
      <trkpt lat="45.7297" lon="4.64768">
        <ele>460.4</ele>
        <time>2020-06-14T09:29:30.000Z</time>
      </trkpt>
      <trkpt lat="45.72963" lon="4.64772">
        <ele>460</ele>
        <time>2020-06-14T09:29:31.000Z</time>
      </trkpt>
      <trkpt lat="45.7295" lon="4.6478">
        <ele>457.6</ele>
        <time>2020-06-14T09:29:33.000Z</time>
      </trkpt>
      <trkpt lat="45.72944" lon="4.64784">
        <ele>456.6</ele>
        <time>2020-06-14T09:29:34.000Z</time>
      </trkpt>
      <trkpt lat="45.72937" lon="4.64788">
        <ele>455.4</ele>
        <time>2020-06-14T09:29:35.000Z</time>
      </trkpt>
      <trkpt lat="45.72931" lon="4.64791">
        <ele>454.4</ele>
        <time>2020-06-14T09:29:36.000Z</time>
      </trkpt>
      <trkpt lat="45.72924" lon="4.64794">
        <ele>453</ele>
        <time>2020-06-14T09:29:37.000Z</time>
      </trkpt>
      <trkpt lat="45.72919" lon="4.64797">
        <ele>451.4</ele>
        <time>2020-06-14T09:29:38.000Z</time>
      </trkpt>
      <trkpt lat="45.72916" lon="4.64801">
        <ele>449.8</ele>
        <time>2020-06-14T09:29:39.000Z</time>
      </trkpt>
      <trkpt lat="45.72913" lon="4.64804">
        <ele>449.8</ele>
        <time>2020-06-14T09:29:40.000Z</time>
      </trkpt>
      <trkpt lat="45.72912" lon="4.64808">
        <ele>448.4</ele>
        <time>2020-06-14T09:29:41.000Z</time>
      </trkpt>
      <trkpt lat="45.72912" lon="4.64814">
        <ele>447.2</ele>
        <time>2020-06-14T09:29:42.000Z</time>
      </trkpt>
      <trkpt lat="45.72912" lon="4.6482">
        <ele>446.6</ele>
        <time>2020-06-14T09:29:43.000Z</time>
      </trkpt>
      <trkpt lat="45.72913" lon="4.64826">
        <ele>445.6</ele>
        <time>2020-06-14T09:29:44.000Z</time>
      </trkpt>
      <trkpt lat="45.72915" lon="4.64832">
        <ele>445.2</ele>
        <time>2020-06-14T09:29:45.000Z</time>
      </trkpt>
      <trkpt lat="45.72917" lon="4.64838">
        <ele>444.6</ele>
        <time>2020-06-14T09:29:46.000Z</time>
      </trkpt>
      <trkpt lat="45.72922" lon="4.6485">
        <ele>444</ele>
        <time>2020-06-14T09:29:48.000Z</time>
      </trkpt>
      <trkpt lat="45.72925" lon="4.64857">
        <ele>443.8</ele>
        <time>2020-06-14T09:29:49.000Z</time>
      </trkpt>
      <trkpt lat="45.72929" lon="4.64864">
        <ele>443.2</ele>
        <time>2020-06-14T09:29:50.000Z</time>
      </trkpt>
      <trkpt lat="45.72935" lon="4.6487">
        <ele>442.8</ele>
        <time>2020-06-14T09:29:51.000Z</time>
      </trkpt>
      <trkpt lat="45.72941" lon="4.64874">
        <ele>442.2</ele>
        <time>2020-06-14T09:29:52.000Z</time>
      </trkpt>
      <trkpt lat="45.72948" lon="4.64877">
        <ele>441.4</ele>
        <time>2020-06-14T09:29:53.000Z</time>
      </trkpt>
      <trkpt lat="45.72956" lon="4.64879">
        <ele>441.2</ele>
        <time>2020-06-14T09:29:54.000Z</time>
      </trkpt>
      <trkpt lat="45.72965" lon="4.6488">
        <ele>441</ele>
        <time>2020-06-14T09:29:55.000Z</time>
      </trkpt>
      <trkpt lat="45.72974" lon="4.64883">
        <ele>440.8</ele>
        <time>2020-06-14T09:29:56.000Z</time>
      </trkpt>
      <trkpt lat="45.72995" lon="4.64891">
        <ele>439.6</ele>
        <time>2020-06-14T09:29:58.000Z</time>
      </trkpt>
      <trkpt lat="45.73006" lon="4.64895">
        <ele>438.4</ele>
        <time>2020-06-14T09:29:59.000Z</time>
      </trkpt>
      <trkpt lat="45.73016" lon="4.64899">
        <ele>438.4</ele>
        <time>2020-06-14T09:30:00.000Z</time>
      </trkpt>
      <trkpt lat="45.73027" lon="4.64901">
        <ele>437.4</ele>
        <time>2020-06-14T09:30:01.000Z</time>
      </trkpt>
      <trkpt lat="45.73038" lon="4.64902">
        <ele>436</ele>
        <time>2020-06-14T09:30:02.000Z</time>
      </trkpt>
      <trkpt lat="45.73049" lon="4.64902">
        <ele>435.2</ele>
        <time>2020-06-14T09:30:03.000Z</time>
      </trkpt>
      <trkpt lat="45.73059" lon="4.64903">
        <ele>433</ele>
        <time>2020-06-14T09:30:04.000Z</time>
      </trkpt>
      <trkpt lat="45.73069" lon="4.64908">
        <ele>430.4</ele>
        <time>2020-06-14T09:30:05.000Z</time>
      </trkpt>
      <trkpt lat="45.73077" lon="4.64914">
        <ele>428.4</ele>
        <time>2020-06-14T09:30:06.000Z</time>
      </trkpt>
      <trkpt lat="45.73085" lon="4.64922">
        <ele>427</ele>
        <time>2020-06-14T09:30:07.000Z</time>
      </trkpt>
      <trkpt lat="45.73092" lon="4.6493">
        <ele>425.2</ele>
        <time>2020-06-14T09:30:08.000Z</time>
      </trkpt>
      <trkpt lat="45.73106" lon="4.64947">
        <ele>424.2</ele>
        <time>2020-06-14T09:30:09.000Z</time>
      </trkpt>
      <trkpt lat="45.73106" lon="4.64947">
        <ele>424</ele>
        <time>2020-06-14T09:30:10.000Z</time>
      </trkpt>
      <trkpt lat="45.73113" lon="4.64955">
        <ele>423.4</ele>
        <time>2020-06-14T09:30:11.000Z</time>
      </trkpt>
      <trkpt lat="45.73121" lon="4.64963">
        <ele>422.6</ele>
        <time>2020-06-14T09:30:12.000Z</time>
      </trkpt>
      <trkpt lat="45.73129" lon="4.64972">
        <ele>421.2</ele>
        <time>2020-06-14T09:30:13.000Z</time>
      </trkpt>
      <trkpt lat="45.73138" lon="4.64981">
        <ele>420.2</ele>
        <time>2020-06-14T09:30:14.000Z</time>
      </trkpt>
      <trkpt lat="45.73147" lon="4.64989">
        <ele>419.6</ele>
        <time>2020-06-14T09:30:15.000Z</time>
      </trkpt>
      <trkpt lat="45.73157" lon="4.64996">
        <ele>419</ele>
        <time>2020-06-14T09:30:16.000Z</time>
      </trkpt>
      <trkpt lat="45.73167" lon="4.65003">
        <ele>418.6</ele>
        <time>2020-06-14T09:30:17.000Z</time>
      </trkpt>
      <trkpt lat="45.73188" lon="4.65017">
        <ele>417.8</ele>
        <time>2020-06-14T09:30:19.000Z</time>
      </trkpt>
      <trkpt lat="45.73199" lon="4.65024">
        <ele>416.8</ele>
        <time>2020-06-14T09:30:20.000Z</time>
      </trkpt>
      <trkpt lat="45.73232" lon="4.65046">
        <ele>412.8</ele>
        <time>2020-06-14T09:30:23.000Z</time>
      </trkpt>
      <trkpt lat="45.73243" lon="4.65053">
        <ele>411.2</ele>
        <time>2020-06-14T09:30:24.000Z</time>
      </trkpt>
      <trkpt lat="45.73254" lon="4.6506">
        <ele>410</ele>
        <time>2020-06-14T09:30:25.000Z</time>
      </trkpt>
      <trkpt lat="45.73263" lon="4.65065">
        <ele>408.6</ele>
        <time>2020-06-14T09:30:26.000Z</time>
      </trkpt>
      <trkpt lat="45.73271" lon="4.6507">
        <ele>407.2</ele>
        <time>2020-06-14T09:30:27.000Z</time>
      </trkpt>
      <trkpt lat="45.73277" lon="4.65075">
        <ele>406</ele>
        <time>2020-06-14T09:30:28.000Z</time>
      </trkpt>
      <trkpt lat="45.73282" lon="4.65078">
        <ele>404.4</ele>
        <time>2020-06-14T09:30:29.000Z</time>
      </trkpt>
      <trkpt lat="45.73286" lon="4.65082">
        <ele>403</ele>
        <time>2020-06-14T09:30:30.000Z</time>
      </trkpt>
      <trkpt lat="45.73288" lon="4.65084">
        <ele>402</ele>
        <time>2020-06-14T09:30:31.000Z</time>
      </trkpt>
      <trkpt lat="45.7329" lon="4.65086">
        <ele>400.8</ele>
        <time>2020-06-14T09:30:32.000Z</time>
      </trkpt>
      <trkpt lat="45.7329" lon="4.65087">
        <ele>399.4</ele>
        <time>2020-06-14T09:30:34.000Z</time>
      </trkpt>
      <trkpt lat="45.73291" lon="4.65088">
        <ele>399</ele>
        <time>2020-06-14T09:30:35.000Z</time>
      </trkpt>
      <trkpt lat="45.73292" lon="4.65089">
        <ele>398.8</ele>
        <time>2020-06-14T09:30:36.000Z</time>
      </trkpt>
      <trkpt lat="45.73294" lon="4.65091">
        <ele>398.8</ele>
        <time>2020-06-14T09:30:37.000Z</time>
      </trkpt>
      <trkpt lat="45.73297" lon="4.65094">
        <ele>398.8</ele>
        <time>2020-06-14T09:30:38.000Z</time>
      </trkpt>
      <trkpt lat="45.733" lon="4.65098">
        <ele>398.6</ele>
        <time>2020-06-14T09:30:39.000Z</time>
      </trkpt>
      <trkpt lat="45.73304" lon="4.65103">
        <ele>398.4</ele>
        <time>2020-06-14T09:30:40.000Z</time>
      </trkpt>
      <trkpt lat="45.73309" lon="4.6511">
        <ele>398.4</ele>
        <time>2020-06-14T09:30:41.000Z</time>
      </trkpt>
      <trkpt lat="45.73325" lon="4.65137">
        <ele>398.6</ele>
        <time>2020-06-14T09:30:44.000Z</time>
      </trkpt>
      <trkpt lat="45.73331" lon="4.65147">
        <ele>398.4</ele>
        <time>2020-06-14T09:30:45.000Z</time>
      </trkpt>
      <trkpt lat="45.7335" lon="4.65181">
        <ele>398.2</ele>
        <time>2020-06-14T09:30:47.000Z</time>
      </trkpt>
      <trkpt lat="45.7335" lon="4.65181">
        <ele>397.6</ele>
        <time>2020-06-14T09:30:48.000Z</time>
      </trkpt>
      <trkpt lat="45.73356" lon="4.65193">
        <ele>396.8</ele>
        <time>2020-06-14T09:30:49.000Z</time>
      </trkpt>
      <trkpt lat="45.73363" lon="4.65205">
        <ele>396</ele>
        <time>2020-06-14T09:30:50.000Z</time>
      </trkpt>
      <trkpt lat="45.7337" lon="4.65216">
        <ele>394</ele>
        <time>2020-06-14T09:30:51.000Z</time>
      </trkpt>
      <trkpt lat="45.73376" lon="4.65227">
        <ele>392.6</ele>
        <time>2020-06-14T09:30:52.000Z</time>
      </trkpt>
      <trkpt lat="45.73382" lon="4.65237">
        <ele>391</ele>
        <time>2020-06-14T09:30:53.000Z</time>
      </trkpt>
      <trkpt lat="45.73389" lon="4.65247">
        <ele>388.8</ele>
        <time>2020-06-14T09:30:54.000Z</time>
      </trkpt>
      <trkpt lat="45.73396" lon="4.65258">
        <ele>387.4</ele>
        <time>2020-06-14T09:30:55.000Z</time>
      </trkpt>
      <trkpt lat="45.73411" lon="4.65275">
        <ele>386.4</ele>
        <time>2020-06-14T09:30:56.000Z</time>
      </trkpt>
      <trkpt lat="45.73411" lon="4.65275">
        <ele>385.2</ele>
        <time>2020-06-14T09:30:57.000Z</time>
      </trkpt>
      <trkpt lat="45.73432" lon="4.65304">
        <ele>381.8</ele>
        <time>2020-06-14T09:31:00.000Z</time>
      </trkpt>
      <trkpt lat="45.73439" lon="4.65313">
        <ele>381.4</ele>
        <time>2020-06-14T09:31:01.000Z</time>
      </trkpt>
      <trkpt lat="45.73445" lon="4.65323">
        <ele>381.2</ele>
        <time>2020-06-14T09:31:02.000Z</time>
      </trkpt>
      <trkpt lat="45.73451" lon="4.65331">
        <ele>381.2</ele>
        <time>2020-06-14T09:31:03.000Z</time>
      </trkpt>
      <trkpt lat="45.73456" lon="4.6534">
        <ele>380.8</ele>
        <time>2020-06-14T09:31:04.000Z</time>
      </trkpt>
      <trkpt lat="45.7346" lon="4.65348">
        <ele>379.6</ele>
        <time>2020-06-14T09:31:05.000Z</time>
      </trkpt>
      <trkpt lat="45.7347" lon="4.65363">
        <ele>377</ele>
        <time>2020-06-14T09:31:07.000Z</time>
      </trkpt>
      <trkpt lat="45.73476" lon="4.65371">
        <ele>376.2</ele>
        <time>2020-06-14T09:31:08.000Z</time>
      </trkpt>
      <trkpt lat="45.73483" lon="4.65376">
        <ele>375.6</ele>
        <time>2020-06-14T09:31:09.000Z</time>
      </trkpt>
      <trkpt lat="45.73491" lon="4.65378">
        <ele>374.4</ele>
        <time>2020-06-14T09:31:10.000Z</time>
      </trkpt>
      <trkpt lat="45.73498" lon="4.65376">
        <ele>373.6</ele>
        <time>2020-06-14T09:31:11.000Z</time>
      </trkpt>
      <trkpt lat="45.73506" lon="4.65372">
        <ele>372.8</ele>
        <time>2020-06-14T09:31:12.000Z</time>
      </trkpt>
      <trkpt lat="45.73513" lon="4.65367">
        <ele>371.6</ele>
        <time>2020-06-14T09:31:13.000Z</time>
      </trkpt>
      <trkpt lat="45.73521" lon="4.65363">
        <ele>371</ele>
        <time>2020-06-14T09:31:14.000Z</time>
      </trkpt>
      <trkpt lat="45.73527" lon="4.65361">
        <ele>370.2</ele>
        <time>2020-06-14T09:31:15.000Z</time>
      </trkpt>
      <trkpt lat="45.73532" lon="4.65361">
        <ele>369.2</ele>
        <time>2020-06-14T09:31:16.000Z</time>
      </trkpt>
      <trkpt lat="45.73535" lon="4.65361">
        <ele>367.8</ele>
        <time>2020-06-14T09:31:17.000Z</time>
      </trkpt>
      <trkpt lat="45.73538" lon="4.65359">
        <ele>366.8</ele>
        <time>2020-06-14T09:31:18.000Z</time>
      </trkpt>
      <trkpt lat="45.7354" lon="4.65358">
        <ele>366.2</ele>
        <time>2020-06-14T09:31:19.000Z</time>
      </trkpt>
      <trkpt lat="45.73542" lon="4.65357">
        <ele>366</ele>
        <time>2020-06-14T09:31:20.000Z</time>
      </trkpt>
      <trkpt lat="45.73543" lon="4.65355">
        <ele>365.8</ele>
        <time>2020-06-14T09:31:21.000Z</time>
      </trkpt>
      <trkpt lat="45.73544" lon="4.65355">
        <ele>365.4</ele>
        <time>2020-06-14T09:31:22.000Z</time>
      </trkpt>
      <trkpt lat="45.73545" lon="4.65355">
        <ele>365.4</ele>
        <time>2020-06-14T09:31:23.000Z</time>
      </trkpt>
      <trkpt lat="45.73546" lon="4.65355">
        <ele>365.4</ele>
        <time>2020-06-14T09:31:24.000Z</time>
      </trkpt>
      <trkpt lat="45.73551" lon="4.65355">
        <ele>365.4</ele>
        <time>2020-06-14T09:31:26.000Z</time>
      </trkpt>
      <trkpt lat="45.73553" lon="4.65357">
        <ele>365.4</ele>
        <time>2020-06-14T09:31:27.000Z</time>
      </trkpt>
      <trkpt lat="45.73554" lon="4.65359">
        <ele>365.2</ele>
        <time>2020-06-14T09:31:28.000Z</time>
      </trkpt>
      <trkpt lat="45.73555" lon="4.65362">
        <ele>365.4</ele>
        <time>2020-06-14T09:31:29.000Z</time>
      </trkpt>
      <trkpt lat="45.73557" lon="4.65365">
        <ele>365.4</ele>
        <time>2020-06-14T09:31:30.000Z</time>
      </trkpt>
      <trkpt lat="45.73558" lon="4.65367">
        <ele>365.6</ele>
        <time>2020-06-14T09:31:31.000Z</time>
      </trkpt>
      <trkpt lat="45.73559" lon="4.6537">
        <ele>365.4</ele>
        <time>2020-06-14T09:31:32.000Z</time>
      </trkpt>
      <trkpt lat="45.73561" lon="4.65373">
        <ele>365.6</ele>
        <time>2020-06-14T09:31:33.000Z</time>
      </trkpt>
      <trkpt lat="45.73562" lon="4.65375">
        <ele>365.6</ele>
        <time>2020-06-14T09:31:34.000Z</time>
      </trkpt>
      <trkpt lat="45.73563" lon="4.65378">
        <ele>365.6</ele>
        <time>2020-06-14T09:31:35.000Z</time>
      </trkpt>
      <trkpt lat="45.73564" lon="4.65381">
        <ele>365.6</ele>
        <time>2020-06-14T09:31:36.000Z</time>
      </trkpt>
      <trkpt lat="45.73566" lon="4.65385">
        <ele>365.8</ele>
        <time>2020-06-14T09:31:37.000Z</time>
      </trkpt>
      <trkpt lat="45.73567" lon="4.65388">
        <ele>365.8</ele>
        <time>2020-06-14T09:31:38.000Z</time>
      </trkpt>
      <trkpt lat="45.73569" lon="4.65391">
        <ele>366.2</ele>
        <time>2020-06-14T09:31:39.000Z</time>
      </trkpt>
      <trkpt lat="45.7357" lon="4.65394">
        <ele>366.4</ele>
        <time>2020-06-14T09:31:40.000Z</time>
      </trkpt>
      <trkpt lat="45.73571" lon="4.65397">
        <ele>366.8</ele>
        <time>2020-06-14T09:31:41.000Z</time>
      </trkpt>
      <trkpt lat="45.73573" lon="4.654">
        <ele>366.8</ele>
        <time>2020-06-14T09:31:42.000Z</time>
      </trkpt>
      <trkpt lat="45.73574" lon="4.65403">
        <ele>367</ele>
        <time>2020-06-14T09:31:43.000Z</time>
      </trkpt>
      <trkpt lat="45.73576" lon="4.65405">
        <ele>367</ele>
        <time>2020-06-14T09:31:44.000Z</time>
      </trkpt>
      <trkpt lat="45.73577" lon="4.65408">
        <ele>367.2</ele>
        <time>2020-06-14T09:31:45.000Z</time>
      </trkpt>
      <trkpt lat="45.73579" lon="4.6541">
        <ele>367.6</ele>
        <time>2020-06-14T09:31:46.000Z</time>
      </trkpt>
      <trkpt lat="45.73582" lon="4.65415">
        <ele>368</ele>
        <time>2020-06-14T09:31:47.000Z</time>
      </trkpt>
      <trkpt lat="45.73583" lon="4.65418">
        <ele>368.2</ele>
        <time>2020-06-14T09:31:48.000Z</time>
      </trkpt>
      <trkpt lat="45.73584" lon="4.6542">
        <ele>368.4</ele>
        <time>2020-06-14T09:31:49.000Z</time>
      </trkpt>
      <trkpt lat="45.73584" lon="4.6542">
        <ele>368.6</ele>
        <time>2020-06-14T09:31:50.000Z</time>
      </trkpt>
      <trkpt lat="45.73585" lon="4.65422">
        <ele>368.8</ele>
        <time>2020-06-14T09:31:51.000Z</time>
      </trkpt>
      <trkpt lat="45.73588" lon="4.65425">
        <ele>369</ele>
        <time>2020-06-14T09:31:52.000Z</time>
      </trkpt>
      <trkpt lat="45.73588" lon="4.65425">
        <ele>369.4</ele>
        <time>2020-06-14T09:31:53.000Z</time>
      </trkpt>
      <trkpt lat="45.73589" lon="4.65427">
        <ele>369.6</ele>
        <time>2020-06-14T09:31:54.000Z</time>
      </trkpt>
      <trkpt lat="45.73591" lon="4.65429">
        <ele>370</ele>
        <time>2020-06-14T09:31:55.000Z</time>
      </trkpt>
      <trkpt lat="45.73592" lon="4.6543">
        <ele>370.4</ele>
        <time>2020-06-14T09:31:56.000Z</time>
      </trkpt>
      <trkpt lat="45.73593" lon="4.65432">
        <ele>370.6</ele>
        <time>2020-06-14T09:31:57.000Z</time>
      </trkpt>
      <trkpt lat="45.73594" lon="4.65433">
        <ele>370.6</ele>
        <time>2020-06-14T09:31:58.000Z</time>
      </trkpt>
      <trkpt lat="45.73596" lon="4.65436">
        <ele>370.8</ele>
        <time>2020-06-14T09:31:59.000Z</time>
      </trkpt>
      <trkpt lat="45.73596" lon="4.65436">
        <ele>371.2</ele>
        <time>2020-06-14T09:32:00.000Z</time>
      </trkpt>
      <trkpt lat="45.73598" lon="4.65439">
        <ele>371.4</ele>
        <time>2020-06-14T09:32:01.000Z</time>
      </trkpt>
      <trkpt lat="45.73598" lon="4.65439">
        <ele>371.6</ele>
        <time>2020-06-14T09:32:02.000Z</time>
      </trkpt>
      <trkpt lat="45.73599" lon="4.6544">
        <ele>372</ele>
        <time>2020-06-14T09:32:03.000Z</time>
      </trkpt>
      <trkpt lat="45.736" lon="4.65442">
        <ele>372</ele>
        <time>2020-06-14T09:32:04.000Z</time>
      </trkpt>
      <trkpt lat="45.73601" lon="4.65444">
        <ele>372.2</ele>
        <time>2020-06-14T09:32:05.000Z</time>
      </trkpt>
      <trkpt lat="45.73602" lon="4.65446">
        <ele>372.6</ele>
        <time>2020-06-14T09:32:06.000Z</time>
      </trkpt>
      <trkpt lat="45.73603" lon="4.65448">
        <ele>372.8</ele>
        <time>2020-06-14T09:32:07.000Z</time>
      </trkpt>
      <trkpt lat="45.73604" lon="4.65449">
        <ele>373</ele>
        <time>2020-06-14T09:32:08.000Z</time>
      </trkpt>
      <trkpt lat="45.73605" lon="4.65451">
        <ele>373.4</ele>
        <time>2020-06-14T09:32:09.000Z</time>
      </trkpt>
      <trkpt lat="45.73607" lon="4.65455">
        <ele>373.6</ele>
        <time>2020-06-14T09:32:10.000Z</time>
      </trkpt>
      <trkpt lat="45.73607" lon="4.65455">
        <ele>374</ele>
        <time>2020-06-14T09:32:11.000Z</time>
      </trkpt>
      <trkpt lat="45.73608" lon="4.65456">
        <ele>374.4</ele>
        <time>2020-06-14T09:32:12.000Z</time>
      </trkpt>
      <trkpt lat="45.73608" lon="4.65458">
        <ele>374.6</ele>
        <time>2020-06-14T09:32:13.000Z</time>
      </trkpt>
      <trkpt lat="45.7361" lon="4.65461">
        <ele>374.8</ele>
        <time>2020-06-14T09:32:14.000Z</time>
      </trkpt>
      <trkpt lat="45.7361" lon="4.65461">
        <ele>375.2</ele>
        <time>2020-06-14T09:32:15.000Z</time>
      </trkpt>
      <trkpt lat="45.73612" lon="4.65464">
        <ele>375.6</ele>
        <time>2020-06-14T09:32:16.000Z</time>
      </trkpt>
      <trkpt lat="45.73612" lon="4.65466">
        <ele>375.6</ele>
        <time>2020-06-14T09:32:17.000Z</time>
      </trkpt>
      <trkpt lat="45.73612" lon="4.65466">
        <ele>376</ele>
        <time>2020-06-14T09:32:18.000Z</time>
      </trkpt>
      <trkpt lat="45.73613" lon="4.65468">
        <ele>376.4</ele>
        <time>2020-06-14T09:32:19.000Z</time>
      </trkpt>
      <trkpt lat="45.73614" lon="4.65469">
        <ele>376.4</ele>
        <time>2020-06-14T09:32:20.000Z</time>
      </trkpt>
      <trkpt lat="45.73615" lon="4.65471">
        <ele>377</ele>
        <time>2020-06-14T09:32:21.000Z</time>
      </trkpt>
      <trkpt lat="45.73616" lon="4.65473">
        <ele>377</ele>
        <time>2020-06-14T09:32:22.000Z</time>
      </trkpt>
      <trkpt lat="45.73617" lon="4.65475">
        <ele>377.2</ele>
        <time>2020-06-14T09:32:23.000Z</time>
      </trkpt>
      <trkpt lat="45.73618" lon="4.65477">
        <ele>377.2</ele>
        <time>2020-06-14T09:32:24.000Z</time>
      </trkpt>
      <trkpt lat="45.73619" lon="4.65478">
        <ele>377.2</ele>
        <time>2020-06-14T09:32:25.000Z</time>
      </trkpt>
      <trkpt lat="45.7362" lon="4.6548">
        <ele>377.6</ele>
        <time>2020-06-14T09:32:26.000Z</time>
      </trkpt>
      <trkpt lat="45.73621" lon="4.65481">
        <ele>377.8</ele>
        <time>2020-06-14T09:32:27.000Z</time>
      </trkpt>
      <trkpt lat="45.73622" lon="4.65482">
        <ele>378</ele>
        <time>2020-06-14T09:32:28.000Z</time>
      </trkpt>
      <trkpt lat="45.73623" lon="4.65483">
        <ele>378.2</ele>
        <time>2020-06-14T09:32:29.000Z</time>
      </trkpt>
      <trkpt lat="45.73624" lon="4.65485">
        <ele>378.2</ele>
        <time>2020-06-14T09:32:30.000Z</time>
      </trkpt>
      <trkpt lat="45.73625" lon="4.65488">
        <ele>378.6</ele>
        <time>2020-06-14T09:32:31.000Z</time>
      </trkpt>
      <trkpt lat="45.73625" lon="4.65488">
        <ele>379</ele>
        <time>2020-06-14T09:32:32.000Z</time>
      </trkpt>
      <trkpt lat="45.73627" lon="4.65491">
        <ele>379.4</ele>
        <time>2020-06-14T09:32:33.000Z</time>
      </trkpt>
      <trkpt lat="45.73627" lon="4.65491">
        <ele>379.6</ele>
        <time>2020-06-14T09:32:34.000Z</time>
      </trkpt>
      <trkpt lat="45.73628" lon="4.65493">
        <ele>379.6</ele>
        <time>2020-06-14T09:32:35.000Z</time>
      </trkpt>
      <trkpt lat="45.73629" lon="4.65496">
        <ele>380</ele>
        <time>2020-06-14T09:32:36.000Z</time>
      </trkpt>
      <trkpt lat="45.7363" lon="4.65497">
        <ele>380.2</ele>
        <time>2020-06-14T09:32:37.000Z</time>
      </trkpt>
      <trkpt lat="45.7363" lon="4.65497">
        <ele>380.4</ele>
        <time>2020-06-14T09:32:38.000Z</time>
      </trkpt>
      <trkpt lat="45.73631" lon="4.65498">
        <ele>380.8</ele>
        <time>2020-06-14T09:32:39.000Z</time>
      </trkpt>
      <trkpt lat="45.73632" lon="4.65499">
        <ele>381.2</ele>
        <time>2020-06-14T09:32:40.000Z</time>
      </trkpt>
      <trkpt lat="45.73633" lon="4.655">
        <ele>381.4</ele>
        <time>2020-06-14T09:32:41.000Z</time>
      </trkpt>
      <trkpt lat="45.73634" lon="4.65502">
        <ele>381.6</ele>
        <time>2020-06-14T09:32:42.000Z</time>
      </trkpt>
      <trkpt lat="45.73634" lon="4.65503">
        <ele>382</ele>
        <time>2020-06-14T09:32:43.000Z</time>
      </trkpt>
      <trkpt lat="45.73635" lon="4.65504">
        <ele>382</ele>
        <time>2020-06-14T09:32:44.000Z</time>
      </trkpt>
      <trkpt lat="45.73637" lon="4.65505">
        <ele>382.2</ele>
        <time>2020-06-14T09:32:45.000Z</time>
      </trkpt>
      <trkpt lat="45.73638" lon="4.65506">
        <ele>382.6</ele>
        <time>2020-06-14T09:32:46.000Z</time>
      </trkpt>
      <trkpt lat="45.73639" lon="4.65508">
        <ele>383</ele>
        <time>2020-06-14T09:32:47.000Z</time>
      </trkpt>
      <trkpt lat="45.7364" lon="4.65509">
        <ele>383.2</ele>
        <time>2020-06-14T09:32:48.000Z</time>
      </trkpt>
      <trkpt lat="45.73641" lon="4.65511">
        <ele>383.6</ele>
        <time>2020-06-14T09:32:49.000Z</time>
      </trkpt>
      <trkpt lat="45.73642" lon="4.65512">
        <ele>384</ele>
        <time>2020-06-14T09:32:50.000Z</time>
      </trkpt>
      <trkpt lat="45.73643" lon="4.65513">
        <ele>384.2</ele>
        <time>2020-06-14T09:32:51.000Z</time>
      </trkpt>
      <trkpt lat="45.73644" lon="4.65515">
        <ele>384.6</ele>
        <time>2020-06-14T09:32:52.000Z</time>
      </trkpt>
      <trkpt lat="45.73645" lon="4.65516">
        <ele>384.8</ele>
        <time>2020-06-14T09:32:53.000Z</time>
      </trkpt>
      <trkpt lat="45.73647" lon="4.65517">
        <ele>385.2</ele>
        <time>2020-06-14T09:32:54.000Z</time>
      </trkpt>
      <trkpt lat="45.73648" lon="4.65519">
        <ele>385.6</ele>
        <time>2020-06-14T09:32:55.000Z</time>
      </trkpt>
      <trkpt lat="45.73649" lon="4.6552">
        <ele>385.8</ele>
        <time>2020-06-14T09:32:56.000Z</time>
      </trkpt>
      <trkpt lat="45.7365" lon="4.65521">
        <ele>386</ele>
        <time>2020-06-14T09:32:57.000Z</time>
      </trkpt>
      <trkpt lat="45.73651" lon="4.65523">
        <ele>386.4</ele>
        <time>2020-06-14T09:32:58.000Z</time>
      </trkpt>
      <trkpt lat="45.73652" lon="4.65525">
        <ele>386.8</ele>
        <time>2020-06-14T09:32:59.000Z</time>
      </trkpt>
      <trkpt lat="45.73653" lon="4.65527">
        <ele>386.8</ele>
        <time>2020-06-14T09:33:00.000Z</time>
      </trkpt>
      <trkpt lat="45.73655" lon="4.65529">
        <ele>387.4</ele>
        <time>2020-06-14T09:33:01.000Z</time>
      </trkpt>
      <trkpt lat="45.73657" lon="4.65533">
        <ele>387.4</ele>
        <time>2020-06-14T09:33:02.000Z</time>
      </trkpt>
      <trkpt lat="45.73657" lon="4.65533">
        <ele>387.6</ele>
        <time>2020-06-14T09:33:03.000Z</time>
      </trkpt>
      <trkpt lat="45.7366" lon="4.65537">
        <ele>388</ele>
        <time>2020-06-14T09:33:04.000Z</time>
      </trkpt>
      <trkpt lat="45.7366" lon="4.65537">
        <ele>388</ele>
        <time>2020-06-14T09:33:05.000Z</time>
      </trkpt>
      <trkpt lat="45.73661" lon="4.65538">
        <ele>388.2</ele>
        <time>2020-06-14T09:33:06.000Z</time>
      </trkpt>
      <trkpt lat="45.73663" lon="4.65542">
        <ele>388.4</ele>
        <time>2020-06-14T09:33:07.000Z</time>
      </trkpt>
      <trkpt lat="45.73663" lon="4.65542">
        <ele>388.6</ele>
        <time>2020-06-14T09:33:08.000Z</time>
      </trkpt>
      <trkpt lat="45.73664" lon="4.65543">
        <ele>388.6</ele>
        <time>2020-06-14T09:33:09.000Z</time>
      </trkpt>
      <trkpt lat="45.73665" lon="4.65545">
        <ele>388.8</ele>
        <time>2020-06-14T09:33:10.000Z</time>
      </trkpt>
      <trkpt lat="45.73666" lon="4.65547">
        <ele>389</ele>
        <time>2020-06-14T09:33:11.000Z</time>
      </trkpt>
      <trkpt lat="45.73667" lon="4.65549">
        <ele>389.2</ele>
        <time>2020-06-14T09:33:12.000Z</time>
      </trkpt>
      <trkpt lat="45.73668" lon="4.65551">
        <ele>389.4</ele>
        <time>2020-06-14T09:33:13.000Z</time>
      </trkpt>
      <trkpt lat="45.73669" lon="4.65552">
        <ele>389.6</ele>
        <time>2020-06-14T09:33:14.000Z</time>
      </trkpt>
      <trkpt lat="45.7367" lon="4.65554">
        <ele>390</ele>
        <time>2020-06-14T09:33:15.000Z</time>
      </trkpt>
      <trkpt lat="45.73672" lon="4.65556">
        <ele>390</ele>
        <time>2020-06-14T09:33:16.000Z</time>
      </trkpt>
      <trkpt lat="45.73673" lon="4.65558">
        <ele>390.2</ele>
        <time>2020-06-14T09:33:17.000Z</time>
      </trkpt>
      <trkpt lat="45.73674" lon="4.65559">
        <ele>390.4</ele>
        <time>2020-06-14T09:33:18.000Z</time>
      </trkpt>
      <trkpt lat="45.73675" lon="4.65561">
        <ele>390.6</ele>
        <time>2020-06-14T09:33:19.000Z</time>
      </trkpt>
      <trkpt lat="45.73676" lon="4.65563">
        <ele>390.8</ele>
        <time>2020-06-14T09:33:20.000Z</time>
      </trkpt>
      <trkpt lat="45.73677" lon="4.65565">
        <ele>390.8</ele>
        <time>2020-06-14T09:33:21.000Z</time>
      </trkpt>
      <trkpt lat="45.73678" lon="4.65566">
        <ele>391</ele>
        <time>2020-06-14T09:33:22.000Z</time>
      </trkpt>
      <trkpt lat="45.73679" lon="4.65568">
        <ele>391.2</ele>
        <time>2020-06-14T09:33:23.000Z</time>
      </trkpt>
      <trkpt lat="45.7368" lon="4.6557">
        <ele>391.2</ele>
        <time>2020-06-14T09:33:24.000Z</time>
      </trkpt>
      <trkpt lat="45.73681" lon="4.65572">
        <ele>391.2</ele>
        <time>2020-06-14T09:33:25.000Z</time>
      </trkpt>
      <trkpt lat="45.73682" lon="4.65573">
        <ele>391.6</ele>
        <time>2020-06-14T09:33:26.000Z</time>
      </trkpt>
      <trkpt lat="45.73685" lon="4.65577">
        <ele>392</ele>
        <time>2020-06-14T09:33:27.000Z</time>
      </trkpt>
      <trkpt lat="45.73686" lon="4.65578">
        <ele>392.2</ele>
        <time>2020-06-14T09:33:28.000Z</time>
      </trkpt>
      <trkpt lat="45.73686" lon="4.65578">
        <ele>392.4</ele>
        <time>2020-06-14T09:33:29.000Z</time>
      </trkpt>
      <trkpt lat="45.73687" lon="4.65579">
        <ele>392.8</ele>
        <time>2020-06-14T09:33:30.000Z</time>
      </trkpt>
      <trkpt lat="45.73688" lon="4.6558">
        <ele>393</ele>
        <time>2020-06-14T09:33:31.000Z</time>
      </trkpt>
      <trkpt lat="45.73689" lon="4.65582">
        <ele>393</ele>
        <time>2020-06-14T09:33:32.000Z</time>
      </trkpt>
      <trkpt lat="45.73691" lon="4.65583">
        <ele>393.4</ele>
        <time>2020-06-14T09:33:33.000Z</time>
      </trkpt>
      <trkpt lat="45.73692" lon="4.65585">
        <ele>393.6</ele>
        <time>2020-06-14T09:33:34.000Z</time>
      </trkpt>
      <trkpt lat="45.73692" lon="4.65586">
        <ele>393.8</ele>
        <time>2020-06-14T09:33:35.000Z</time>
      </trkpt>
      <trkpt lat="45.73692" lon="4.65587">
        <ele>393.8</ele>
        <time>2020-06-14T09:33:36.000Z</time>
      </trkpt>
      <trkpt lat="45.73693" lon="4.65589">
        <ele>394.2</ele>
        <time>2020-06-14T09:33:37.000Z</time>
      </trkpt>
      <trkpt lat="45.73694" lon="4.65591">
        <ele>394.4</ele>
        <time>2020-06-14T09:33:38.000Z</time>
      </trkpt>
      <trkpt lat="45.73695" lon="4.65593">
        <ele>394.8</ele>
        <time>2020-06-14T09:33:39.000Z</time>
      </trkpt>
      <trkpt lat="45.73696" lon="4.65596">
        <ele>395</ele>
        <time>2020-06-14T09:33:40.000Z</time>
      </trkpt>
      <trkpt lat="45.73697" lon="4.65598">
        <ele>395.2</ele>
        <time>2020-06-14T09:33:41.000Z</time>
      </trkpt>
      <trkpt lat="45.73699" lon="4.65601">
        <ele>395.6</ele>
        <time>2020-06-14T09:33:42.000Z</time>
      </trkpt>
      <trkpt lat="45.737" lon="4.65604">
        <ele>395.6</ele>
        <time>2020-06-14T09:33:43.000Z</time>
      </trkpt>
      <trkpt lat="45.73702" lon="4.65606">
        <ele>395.6</ele>
        <time>2020-06-14T09:33:44.000Z</time>
      </trkpt>
      <trkpt lat="45.73703" lon="4.65608">
        <ele>395.6</ele>
        <time>2020-06-14T09:33:45.000Z</time>
      </trkpt>
      <trkpt lat="45.73705" lon="4.6561">
        <ele>396</ele>
        <time>2020-06-14T09:33:46.000Z</time>
      </trkpt>
      <trkpt lat="45.73706" lon="4.65612">
        <ele>396</ele>
        <time>2020-06-14T09:33:47.000Z</time>
      </trkpt>
      <trkpt lat="45.73707" lon="4.65614">
        <ele>396.2</ele>
        <time>2020-06-14T09:33:48.000Z</time>
      </trkpt>
      <trkpt lat="45.73709" lon="4.65619">
        <ele>396.6</ele>
        <time>2020-06-14T09:33:49.000Z</time>
      </trkpt>
      <trkpt lat="45.7371" lon="4.6562">
        <ele>397</ele>
        <time>2020-06-14T09:33:50.000Z</time>
      </trkpt>
      <trkpt lat="45.73712" lon="4.65622">
        <ele>397.2</ele>
        <time>2020-06-14T09:33:51.000Z</time>
      </trkpt>
      <trkpt lat="45.73713" lon="4.65623">
        <ele>397.6</ele>
        <time>2020-06-14T09:33:52.000Z</time>
      </trkpt>
      <trkpt lat="45.73714" lon="4.65624">
        <ele>398</ele>
        <time>2020-06-14T09:33:53.000Z</time>
      </trkpt>
      <trkpt lat="45.73715" lon="4.65626">
        <ele>398.2</ele>
        <time>2020-06-14T09:33:54.000Z</time>
      </trkpt>
      <trkpt lat="45.73715" lon="4.65628">
        <ele>398.6</ele>
        <time>2020-06-14T09:33:55.000Z</time>
      </trkpt>
      <trkpt lat="45.73716" lon="4.6563">
        <ele>399</ele>
        <time>2020-06-14T09:33:56.000Z</time>
      </trkpt>
      <trkpt lat="45.73717" lon="4.65632">
        <ele>399.2</ele>
        <time>2020-06-14T09:33:57.000Z</time>
      </trkpt>
      <trkpt lat="45.73718" lon="4.65632">
        <ele>399.6</ele>
        <time>2020-06-14T09:33:58.000Z</time>
      </trkpt>
      <trkpt lat="45.73719" lon="4.65633">
        <ele>399.8</ele>
        <time>2020-06-14T09:33:59.000Z</time>
      </trkpt>
      <trkpt lat="45.7372" lon="4.65634">
        <ele>400</ele>
        <time>2020-06-14T09:34:00.000Z</time>
      </trkpt>
      <trkpt lat="45.73721" lon="4.65635">
        <ele>400.2</ele>
        <time>2020-06-14T09:34:01.000Z</time>
      </trkpt>
      <trkpt lat="45.73723" lon="4.65636">
        <ele>400.6</ele>
        <time>2020-06-14T09:34:02.000Z</time>
      </trkpt>
      <trkpt lat="45.73724" lon="4.65638">
        <ele>400.8</ele>
        <time>2020-06-14T09:34:03.000Z</time>
      </trkpt>
      <trkpt lat="45.73724" lon="4.65638">
        <ele>401.2</ele>
        <time>2020-06-14T09:34:04.000Z</time>
      </trkpt>
      <trkpt lat="45.73728" lon="4.6564">
        <ele>401.2</ele>
        <time>2020-06-14T09:34:05.000Z</time>
      </trkpt>
      <trkpt lat="45.73729" lon="4.65641">
        <ele>401.4</ele>
        <time>2020-06-14T09:34:06.000Z</time>
      </trkpt>
      <trkpt lat="45.73731" lon="4.65642">
        <ele>401.6</ele>
        <time>2020-06-14T09:34:07.000Z</time>
      </trkpt>
      <trkpt lat="45.73732" lon="4.65642">
        <ele>401.8</ele>
        <time>2020-06-14T09:34:08.000Z</time>
      </trkpt>
      <trkpt lat="45.73734" lon="4.65643">
        <ele>402.2</ele>
        <time>2020-06-14T09:34:09.000Z</time>
      </trkpt>
      <trkpt lat="45.73735" lon="4.65643">
        <ele>402.6</ele>
        <time>2020-06-14T09:34:10.000Z</time>
      </trkpt>
      <trkpt lat="45.73737" lon="4.65643">
        <ele>403</ele>
        <time>2020-06-14T09:34:11.000Z</time>
      </trkpt>
      <trkpt lat="45.73737" lon="4.65643">
        <ele>403.4</ele>
        <time>2020-06-14T09:34:12.000Z</time>
      </trkpt>
      <trkpt lat="45.73739" lon="4.65644">
        <ele>403.6</ele>
        <time>2020-06-14T09:34:13.000Z</time>
      </trkpt>
      <trkpt lat="45.7374" lon="4.65644">
        <ele>403.6</ele>
        <time>2020-06-14T09:34:14.000Z</time>
      </trkpt>
      <trkpt lat="45.73741" lon="4.65645">
        <ele>403.8</ele>
        <time>2020-06-14T09:34:15.000Z</time>
      </trkpt>
      <trkpt lat="45.73744" lon="4.65647">
        <ele>404</ele>
        <time>2020-06-14T09:34:16.000Z</time>
      </trkpt>
      <trkpt lat="45.73744" lon="4.65647">
        <ele>404.2</ele>
        <time>2020-06-14T09:34:17.000Z</time>
      </trkpt>
      <trkpt lat="45.73745" lon="4.65647">
        <ele>404.4</ele>
        <time>2020-06-14T09:34:18.000Z</time>
      </trkpt>
      <trkpt lat="45.73745" lon="4.65648">
        <ele>404.8</ele>
        <time>2020-06-14T09:34:19.000Z</time>
      </trkpt>
      <trkpt lat="45.73746" lon="4.65649">
        <ele>404.8</ele>
        <time>2020-06-14T09:34:20.000Z</time>
      </trkpt>
      <trkpt lat="45.73748" lon="4.6565">
        <ele>405.4</ele>
        <time>2020-06-14T09:34:22.000Z</time>
      </trkpt>
      <trkpt lat="45.73749" lon="4.65651">
        <ele>405.6</ele>
        <time>2020-06-14T09:34:23.000Z</time>
      </trkpt>
      <trkpt lat="45.73751" lon="4.65651">
        <ele>406</ele>
        <time>2020-06-14T09:34:24.000Z</time>
      </trkpt>
      <trkpt lat="45.73752" lon="4.65651">
        <ele>406</ele>
        <time>2020-06-14T09:34:25.000Z</time>
      </trkpt>
      <trkpt lat="45.73756" lon="4.65652">
        <ele>406.2</ele>
        <time>2020-06-14T09:34:26.000Z</time>
      </trkpt>
      <trkpt lat="45.73756" lon="4.65652">
        <ele>406.2</ele>
        <time>2020-06-14T09:34:27.000Z</time>
      </trkpt>
      <trkpt lat="45.73757" lon="4.65652">
        <ele>406.4</ele>
        <time>2020-06-14T09:34:28.000Z</time>
      </trkpt>
      <trkpt lat="45.73759" lon="4.65652">
        <ele>406.6</ele>
        <time>2020-06-14T09:34:29.000Z</time>
      </trkpt>
      <trkpt lat="45.7376" lon="4.65653">
        <ele>406.8</ele>
        <time>2020-06-14T09:34:30.000Z</time>
      </trkpt>
      <trkpt lat="45.73762" lon="4.65653">
        <ele>407</ele>
        <time>2020-06-14T09:34:31.000Z</time>
      </trkpt>
      <trkpt lat="45.73766" lon="4.65654">
        <ele>407</ele>
        <time>2020-06-14T09:34:32.000Z</time>
      </trkpt>
      <trkpt lat="45.73766" lon="4.65654">
        <ele>407</ele>
        <time>2020-06-14T09:34:33.000Z</time>
      </trkpt>
      <trkpt lat="45.73768" lon="4.65655">
        <ele>407</ele>
        <time>2020-06-14T09:34:34.000Z</time>
      </trkpt>
      <trkpt lat="45.73771" lon="4.65656">
        <ele>407.2</ele>
        <time>2020-06-14T09:34:35.000Z</time>
      </trkpt>
      <trkpt lat="45.73773" lon="4.65657">
        <ele>407.4</ele>
        <time>2020-06-14T09:34:36.000Z</time>
      </trkpt>
      <trkpt lat="45.73774" lon="4.65658">
        <ele>407.8</ele>
        <time>2020-06-14T09:34:37.000Z</time>
      </trkpt>
      <trkpt lat="45.73777" lon="4.65659">
        <ele>408</ele>
        <time>2020-06-14T09:34:38.000Z</time>
      </trkpt>
      <trkpt lat="45.73779" lon="4.65659">
        <ele>408</ele>
        <time>2020-06-14T09:34:39.000Z</time>
      </trkpt>
      <trkpt lat="45.73781" lon="4.6566">
        <ele>408</ele>
        <time>2020-06-14T09:34:40.000Z</time>
      </trkpt>
      <trkpt lat="45.73783" lon="4.6566">
        <ele>408.2</ele>
        <time>2020-06-14T09:34:41.000Z</time>
      </trkpt>
      <trkpt lat="45.73785" lon="4.6566">
        <ele>408.4</ele>
        <time>2020-06-14T09:34:42.000Z</time>
      </trkpt>
      <trkpt lat="45.73787" lon="4.65661">
        <ele>408.4</ele>
        <time>2020-06-14T09:34:43.000Z</time>
      </trkpt>
      <trkpt lat="45.73789" lon="4.65662">
        <ele>408.8</ele>
        <time>2020-06-14T09:34:44.000Z</time>
      </trkpt>
      <trkpt lat="45.7379" lon="4.65663">
        <ele>409</ele>
        <time>2020-06-14T09:34:45.000Z</time>
      </trkpt>
      <trkpt lat="45.73791" lon="4.65663">
        <ele>409.2</ele>
        <time>2020-06-14T09:34:46.000Z</time>
      </trkpt>
      <trkpt lat="45.73792" lon="4.65663">
        <ele>409.2</ele>
        <time>2020-06-14T09:34:47.000Z</time>
      </trkpt>
      <trkpt lat="45.73796" lon="4.65663">
        <ele>411</ele>
        <time>2020-06-14T09:34:55.000Z</time>
      </trkpt>
      <trkpt lat="45.73797" lon="4.65663">
        <ele>411.2</ele>
        <time>2020-06-14T09:34:56.000Z</time>
      </trkpt>
      <trkpt lat="45.73797" lon="4.65663">
        <ele>411.6</ele>
        <time>2020-06-14T09:34:57.000Z</time>
      </trkpt>
      <trkpt lat="45.73798" lon="4.65664">
        <ele>411.6</ele>
        <time>2020-06-14T09:34:58.000Z</time>
      </trkpt>
      <trkpt lat="45.73803" lon="4.65666">
        <ele>411.8</ele>
        <time>2020-06-14T09:34:59.000Z</time>
      </trkpt>
      <trkpt lat="45.73804" lon="4.65666">
        <ele>412</ele>
        <time>2020-06-14T09:35:00.000Z</time>
      </trkpt>
      <trkpt lat="45.73804" lon="4.65666">
        <ele>412</ele>
        <time>2020-06-14T09:35:01.000Z</time>
      </trkpt>
      <trkpt lat="45.73808" lon="4.65669">
        <ele>412</ele>
        <time>2020-06-14T09:35:02.000Z</time>
      </trkpt>
      <trkpt lat="45.7381" lon="4.6567">
        <ele>412</ele>
        <time>2020-06-14T09:35:03.000Z</time>
      </trkpt>
      <trkpt lat="45.73812" lon="4.65672">
        <ele>412.2</ele>
        <time>2020-06-14T09:35:04.000Z</time>
      </trkpt>
      <trkpt lat="45.73812" lon="4.65672">
        <ele>412.2</ele>
        <time>2020-06-14T09:35:05.000Z</time>
      </trkpt>
      <trkpt lat="45.73815" lon="4.65674">
        <ele>412.4</ele>
        <time>2020-06-14T09:35:06.000Z</time>
      </trkpt>
      <trkpt lat="45.7382" lon="4.65677">
        <ele>412.4</ele>
        <time>2020-06-14T09:35:07.000Z</time>
      </trkpt>
      <trkpt lat="45.73822" lon="4.65679">
        <ele>412.6</ele>
        <time>2020-06-14T09:35:08.000Z</time>
      </trkpt>
      <trkpt lat="45.73824" lon="4.6568">
        <ele>412.8</ele>
        <time>2020-06-14T09:35:09.000Z</time>
      </trkpt>
      <trkpt lat="45.73826" lon="4.65681">
        <ele>413</ele>
        <time>2020-06-14T09:35:10.000Z</time>
      </trkpt>
      <trkpt lat="45.73829" lon="4.65682">
        <ele>413.2</ele>
        <time>2020-06-14T09:35:11.000Z</time>
      </trkpt>
      <trkpt lat="45.73831" lon="4.65684">
        <ele>413.2</ele>
        <time>2020-06-14T09:35:12.000Z</time>
      </trkpt>
      <trkpt lat="45.73833" lon="4.65684">
        <ele>413.2</ele>
        <time>2020-06-14T09:35:13.000Z</time>
      </trkpt>
      <trkpt lat="45.73833" lon="4.65684">
        <ele>413.4</ele>
        <time>2020-06-14T09:35:14.000Z</time>
      </trkpt>
      <trkpt lat="45.73837" lon="4.65685">
        <ele>413.4</ele>
        <time>2020-06-14T09:35:15.000Z</time>
      </trkpt>
      <trkpt lat="45.73837" lon="4.65685">
        <ele>413.8</ele>
        <time>2020-06-14T09:35:16.000Z</time>
      </trkpt>
      <trkpt lat="45.7384" lon="4.65687">
        <ele>414</ele>
        <time>2020-06-14T09:35:17.000Z</time>
      </trkpt>
      <trkpt lat="45.7384" lon="4.65687">
        <ele>414</ele>
        <time>2020-06-14T09:35:18.000Z</time>
      </trkpt>
      <trkpt lat="45.73842" lon="4.65688">
        <ele>414.4</ele>
        <time>2020-06-14T09:35:19.000Z</time>
      </trkpt>
      <trkpt lat="45.73844" lon="4.65689">
        <ele>414.6</ele>
        <time>2020-06-14T09:35:20.000Z</time>
      </trkpt>
      <trkpt lat="45.73845" lon="4.65693">
        <ele>414.8</ele>
        <time>2020-06-14T09:35:21.000Z</time>
      </trkpt>
      <trkpt lat="45.73848" lon="4.65699">
        <ele>415</ele>
        <time>2020-06-14T09:35:22.000Z</time>
      </trkpt>
      <trkpt lat="45.73848" lon="4.65699">
        <ele>415.2</ele>
        <time>2020-06-14T09:35:23.000Z</time>
      </trkpt>
      <trkpt lat="45.73851" lon="4.65703">
        <ele>415.6</ele>
        <time>2020-06-14T09:35:24.000Z</time>
      </trkpt>
      <trkpt lat="45.73853" lon="4.65704">
        <ele>416</ele>
        <time>2020-06-14T09:35:25.000Z</time>
      </trkpt>
      <trkpt lat="45.73855" lon="4.65705">
        <ele>416.2</ele>
        <time>2020-06-14T09:35:26.000Z</time>
      </trkpt>
      <trkpt lat="45.73857" lon="4.65705">
        <ele>416.4</ele>
        <time>2020-06-14T09:35:27.000Z</time>
      </trkpt>
      <trkpt lat="45.73859" lon="4.65705">
        <ele>416.8</ele>
        <time>2020-06-14T09:35:28.000Z</time>
      </trkpt>
      <trkpt lat="45.73861" lon="4.65705">
        <ele>417</ele>
        <time>2020-06-14T09:35:29.000Z</time>
      </trkpt>
      <trkpt lat="45.73863" lon="4.65705">
        <ele>417.2</ele>
        <time>2020-06-14T09:35:30.000Z</time>
      </trkpt>
      <trkpt lat="45.73865" lon="4.65706">
        <ele>417.2</ele>
        <time>2020-06-14T09:35:31.000Z</time>
      </trkpt>
      <trkpt lat="45.73867" lon="4.65705">
        <ele>417.6</ele>
        <time>2020-06-14T09:35:32.000Z</time>
      </trkpt>
      <trkpt lat="45.73869" lon="4.65706">
        <ele>417.8</ele>
        <time>2020-06-14T09:35:33.000Z</time>
      </trkpt>
      <trkpt lat="45.7387" lon="4.65706">
        <ele>417.6</ele>
        <time>2020-06-14T09:35:34.000Z</time>
      </trkpt>
      <trkpt lat="45.73872" lon="4.65706">
        <ele>417.8</ele>
        <time>2020-06-14T09:35:35.000Z</time>
      </trkpt>
      <trkpt lat="45.73874" lon="4.65707">
        <ele>418.2</ele>
        <time>2020-06-14T09:35:36.000Z</time>
      </trkpt>
      <trkpt lat="45.73876" lon="4.65707">
        <ele>418.2</ele>
        <time>2020-06-14T09:35:37.000Z</time>
      </trkpt>
      <trkpt lat="45.73878" lon="4.65708">
        <ele>418.4</ele>
        <time>2020-06-14T09:35:38.000Z</time>
      </trkpt>
      <trkpt lat="45.7388" lon="4.65708">
        <ele>418.4</ele>
        <time>2020-06-14T09:35:39.000Z</time>
      </trkpt>
      <trkpt lat="45.73881" lon="4.65709">
        <ele>418.6</ele>
        <time>2020-06-14T09:35:40.000Z</time>
      </trkpt>
      <trkpt lat="45.73883" lon="4.65709">
        <ele>418.6</ele>
        <time>2020-06-14T09:35:41.000Z</time>
      </trkpt>
      <trkpt lat="45.73885" lon="4.65709">
        <ele>418.6</ele>
        <time>2020-06-14T09:35:42.000Z</time>
      </trkpt>
      <trkpt lat="45.73887" lon="4.6571">
        <ele>419.2</ele>
        <time>2020-06-14T09:35:43.000Z</time>
      </trkpt>
      <trkpt lat="45.73889" lon="4.65711">
        <ele>419.6</ele>
        <time>2020-06-14T09:35:44.000Z</time>
      </trkpt>
      <trkpt lat="45.73891" lon="4.65712">
        <ele>420</ele>
        <time>2020-06-14T09:35:45.000Z</time>
      </trkpt>
      <trkpt lat="45.73893" lon="4.65712">
        <ele>420.4</ele>
        <time>2020-06-14T09:35:46.000Z</time>
      </trkpt>
      <trkpt lat="45.73896" lon="4.65713">
        <ele>420.6</ele>
        <time>2020-06-14T09:35:47.000Z</time>
      </trkpt>
      <trkpt lat="45.73897" lon="4.65713">
        <ele>421</ele>
        <time>2020-06-14T09:35:48.000Z</time>
      </trkpt>
      <trkpt lat="45.73899" lon="4.65714">
        <ele>421.2</ele>
        <time>2020-06-14T09:35:49.000Z</time>
      </trkpt>
      <trkpt lat="45.73901" lon="4.65715">
        <ele>421.6</ele>
        <time>2020-06-14T09:35:50.000Z</time>
      </trkpt>
      <trkpt lat="45.73904" lon="4.65716">
        <ele>421.8</ele>
        <time>2020-06-14T09:35:51.000Z</time>
      </trkpt>
      <trkpt lat="45.73906" lon="4.65716">
        <ele>421.8</ele>
        <time>2020-06-14T09:35:52.000Z</time>
      </trkpt>
      <trkpt lat="45.73908" lon="4.65717">
        <ele>422</ele>
        <time>2020-06-14T09:35:53.000Z</time>
      </trkpt>
      <trkpt lat="45.7391" lon="4.65716">
        <ele>422</ele>
        <time>2020-06-14T09:35:54.000Z</time>
      </trkpt>
      <trkpt lat="45.73912" lon="4.65716">
        <ele>422.2</ele>
        <time>2020-06-14T09:35:55.000Z</time>
      </trkpt>
      <trkpt lat="45.73914" lon="4.65716">
        <ele>422.4</ele>
        <time>2020-06-14T09:35:56.000Z</time>
      </trkpt>
      <trkpt lat="45.73917" lon="4.65717">
        <ele>422.6</ele>
        <time>2020-06-14T09:35:57.000Z</time>
      </trkpt>
      <trkpt lat="45.73919" lon="4.65717">
        <ele>423</ele>
        <time>2020-06-14T09:35:58.000Z</time>
      </trkpt>
      <trkpt lat="45.73921" lon="4.65717">
        <ele>423.4</ele>
        <time>2020-06-14T09:35:59.000Z</time>
      </trkpt>
      <trkpt lat="45.73923" lon="4.65717">
        <ele>424</ele>
        <time>2020-06-14T09:36:00.000Z</time>
      </trkpt>
      <trkpt lat="45.73925" lon="4.65716">
        <ele>424.2</ele>
        <time>2020-06-14T09:36:01.000Z</time>
      </trkpt>
      <trkpt lat="45.73927" lon="4.65716">
        <ele>424.8</ele>
        <time>2020-06-14T09:36:02.000Z</time>
      </trkpt>
      <trkpt lat="45.73929" lon="4.65714">
        <ele>425.2</ele>
        <time>2020-06-14T09:36:03.000Z</time>
      </trkpt>
      <trkpt lat="45.7393" lon="4.65713">
        <ele>425.2</ele>
        <time>2020-06-14T09:36:04.000Z</time>
      </trkpt>
      <trkpt lat="45.73932" lon="4.65711">
        <ele>425.2</ele>
        <time>2020-06-14T09:36:05.000Z</time>
      </trkpt>
      <trkpt lat="45.73934" lon="4.65709">
        <ele>425.6</ele>
        <time>2020-06-14T09:36:06.000Z</time>
      </trkpt>
      <trkpt lat="45.73936" lon="4.65708">
        <ele>426</ele>
        <time>2020-06-14T09:36:07.000Z</time>
      </trkpt>
      <trkpt lat="45.73938" lon="4.65706">
        <ele>426.4</ele>
        <time>2020-06-14T09:36:08.000Z</time>
      </trkpt>
      <trkpt lat="45.7394" lon="4.65705">
        <ele>426.6</ele>
        <time>2020-06-14T09:36:09.000Z</time>
      </trkpt>
      <trkpt lat="45.73942" lon="4.65703">
        <ele>427</ele>
        <time>2020-06-14T09:36:10.000Z</time>
      </trkpt>
      <trkpt lat="45.73945" lon="4.65701">
        <ele>427.2</ele>
        <time>2020-06-14T09:36:11.000Z</time>
      </trkpt>
      <trkpt lat="45.73947" lon="4.657">
        <ele>427.2</ele>
        <time>2020-06-14T09:36:12.000Z</time>
      </trkpt>
      <trkpt lat="45.73949" lon="4.65699">
        <ele>427.4</ele>
        <time>2020-06-14T09:36:13.000Z</time>
      </trkpt>
      <trkpt lat="45.73951" lon="4.65697">
        <ele>427.4</ele>
        <time>2020-06-14T09:36:14.000Z</time>
      </trkpt>
      <trkpt lat="45.73953" lon="4.65695">
        <ele>427.6</ele>
        <time>2020-06-14T09:36:15.000Z</time>
      </trkpt>
      <trkpt lat="45.73956" lon="4.65694">
        <ele>427.8</ele>
        <time>2020-06-14T09:36:16.000Z</time>
      </trkpt>
      <trkpt lat="45.73958" lon="4.65692">
        <ele>428</ele>
        <time>2020-06-14T09:36:17.000Z</time>
      </trkpt>
      <trkpt lat="45.73958" lon="4.65692">
        <ele>428.2</ele>
        <time>2020-06-14T09:36:18.000Z</time>
      </trkpt>
      <trkpt lat="45.73962" lon="4.65688">
        <ele>428.4</ele>
        <time>2020-06-14T09:36:19.000Z</time>
      </trkpt>
      <trkpt lat="45.73964" lon="4.65686">
        <ele>428.4</ele>
        <time>2020-06-14T09:36:20.000Z</time>
      </trkpt>
      <trkpt lat="45.73965" lon="4.65684">
        <ele>428.6</ele>
        <time>2020-06-14T09:36:21.000Z</time>
      </trkpt>
      <trkpt lat="45.73965" lon="4.65684">
        <ele>428.6</ele>
        <time>2020-06-14T09:36:22.000Z</time>
      </trkpt>
      <trkpt lat="45.73969" lon="4.65681">
        <ele>428.6</ele>
        <time>2020-06-14T09:36:23.000Z</time>
      </trkpt>
      <trkpt lat="45.73971" lon="4.6568">
        <ele>428.6</ele>
        <time>2020-06-14T09:36:24.000Z</time>
      </trkpt>
      <trkpt lat="45.73973" lon="4.65679">
        <ele>428.8</ele>
        <time>2020-06-14T09:36:25.000Z</time>
      </trkpt>
      <trkpt lat="45.73975" lon="4.65678">
        <ele>429</ele>
        <time>2020-06-14T09:36:26.000Z</time>
      </trkpt>
      <trkpt lat="45.73977" lon="4.65676">
        <ele>429.4</ele>
        <time>2020-06-14T09:36:27.000Z</time>
      </trkpt>
      <trkpt lat="45.73979" lon="4.65675">
        <ele>429.8</ele>
        <time>2020-06-14T09:36:28.000Z</time>
      </trkpt>
      <trkpt lat="45.73981" lon="4.65674">
        <ele>429.8</ele>
        <time>2020-06-14T09:36:29.000Z</time>
      </trkpt>
      <trkpt lat="45.73981" lon="4.65674">
        <ele>430.2</ele>
        <time>2020-06-14T09:36:30.000Z</time>
      </trkpt>
      <trkpt lat="45.73985" lon="4.65672">
        <ele>430.6</ele>
        <time>2020-06-14T09:36:31.000Z</time>
      </trkpt>
      <trkpt lat="45.73988" lon="4.65671">
        <ele>430.6</ele>
        <time>2020-06-14T09:36:32.000Z</time>
      </trkpt>
      <trkpt lat="45.7399" lon="4.65671">
        <ele>431</ele>
        <time>2020-06-14T09:36:33.000Z</time>
      </trkpt>
      <trkpt lat="45.73992" lon="4.6567">
        <ele>431.2</ele>
        <time>2020-06-14T09:36:34.000Z</time>
      </trkpt>
      <trkpt lat="45.73994" lon="4.65668">
        <ele>431.4</ele>
        <time>2020-06-14T09:36:35.000Z</time>
      </trkpt>
      <trkpt lat="45.73996" lon="4.65667">
        <ele>431.6</ele>
        <time>2020-06-14T09:36:36.000Z</time>
      </trkpt>
      <trkpt lat="45.73996" lon="4.65667">
        <ele>432</ele>
        <time>2020-06-14T09:36:37.000Z</time>
      </trkpt>
      <trkpt lat="45.74001" lon="4.65664">
        <ele>432.2</ele>
        <time>2020-06-14T09:36:38.000Z</time>
      </trkpt>
      <trkpt lat="45.74003" lon="4.65663">
        <ele>432.4</ele>
        <time>2020-06-14T09:36:39.000Z</time>
      </trkpt>
      <trkpt lat="45.74005" lon="4.65662">
        <ele>432.6</ele>
        <time>2020-06-14T09:36:40.000Z</time>
      </trkpt>
      <trkpt lat="45.74007" lon="4.65661">
        <ele>432.6</ele>
        <time>2020-06-14T09:36:41.000Z</time>
      </trkpt>
      <trkpt lat="45.74007" lon="4.65661">
        <ele>433</ele>
        <time>2020-06-14T09:36:42.000Z</time>
      </trkpt>
      <trkpt lat="45.7401" lon="4.65659">
        <ele>433.2</ele>
        <time>2020-06-14T09:36:43.000Z</time>
      </trkpt>
      <trkpt lat="45.74014" lon="4.65655">
        <ele>433.4</ele>
        <time>2020-06-14T09:36:44.000Z</time>
      </trkpt>
      <trkpt lat="45.74016" lon="4.65653">
        <ele>433.6</ele>
        <time>2020-06-14T09:36:45.000Z</time>
      </trkpt>
      <trkpt lat="45.74017" lon="4.6565">
        <ele>434</ele>
        <time>2020-06-14T09:36:46.000Z</time>
      </trkpt>
      <trkpt lat="45.74019" lon="4.65648">
        <ele>434.4</ele>
        <time>2020-06-14T09:36:47.000Z</time>
      </trkpt>
      <trkpt lat="45.7402" lon="4.65645">
        <ele>434.8</ele>
        <time>2020-06-14T09:36:48.000Z</time>
      </trkpt>
      <trkpt lat="45.74022" lon="4.65643">
        <ele>435.2</ele>
        <time>2020-06-14T09:36:49.000Z</time>
      </trkpt>
      <trkpt lat="45.74024" lon="4.65641">
        <ele>435.6</ele>
        <time>2020-06-14T09:36:50.000Z</time>
      </trkpt>
      <trkpt lat="45.74025" lon="4.65639">
        <ele>436.2</ele>
        <time>2020-06-14T09:36:51.000Z</time>
      </trkpt>
      <trkpt lat="45.74027" lon="4.65636">
        <ele>436.2</ele>
        <time>2020-06-14T09:36:52.000Z</time>
      </trkpt>
      <trkpt lat="45.74027" lon="4.65636">
        <ele>436.4</ele>
        <time>2020-06-14T09:36:53.000Z</time>
      </trkpt>
      <trkpt lat="45.74031" lon="4.65632">
        <ele>436.8</ele>
        <time>2020-06-14T09:36:54.000Z</time>
      </trkpt>
      <trkpt lat="45.74033" lon="4.6563">
        <ele>436.8</ele>
        <time>2020-06-14T09:36:55.000Z</time>
      </trkpt>
      <trkpt lat="45.74035" lon="4.65628">
        <ele>437.2</ele>
        <time>2020-06-14T09:36:56.000Z</time>
      </trkpt>
      <trkpt lat="45.74035" lon="4.65628">
        <ele>437.2</ele>
        <time>2020-06-14T09:36:57.000Z</time>
      </trkpt>
      <trkpt lat="45.74036" lon="4.65626">
        <ele>437.2</ele>
        <time>2020-06-14T09:36:58.000Z</time>
      </trkpt>
      <trkpt lat="45.7404" lon="4.65622">
        <ele>437.4</ele>
        <time>2020-06-14T09:36:59.000Z</time>
      </trkpt>
      <trkpt lat="45.74041" lon="4.65619">
        <ele>437.6</ele>
        <time>2020-06-14T09:37:00.000Z</time>
      </trkpt>
      <trkpt lat="45.74041" lon="4.65619">
        <ele>437.8</ele>
        <time>2020-06-14T09:37:01.000Z</time>
      </trkpt>
      <trkpt lat="45.74044" lon="4.65614">
        <ele>437.8</ele>
        <time>2020-06-14T09:37:02.000Z</time>
      </trkpt>
      <trkpt lat="45.74045" lon="4.65612">
        <ele>438.2</ele>
        <time>2020-06-14T09:37:03.000Z</time>
      </trkpt>
      <trkpt lat="45.74047" lon="4.65609">
        <ele>438.4</ele>
        <time>2020-06-14T09:37:04.000Z</time>
      </trkpt>
      <trkpt lat="45.74048" lon="4.65607">
        <ele>438.6</ele>
        <time>2020-06-14T09:37:05.000Z</time>
      </trkpt>
      <trkpt lat="45.74049" lon="4.65604">
        <ele>438.6</ele>
        <time>2020-06-14T09:37:06.000Z</time>
      </trkpt>
      <trkpt lat="45.74049" lon="4.65602">
        <ele>439</ele>
        <time>2020-06-14T09:37:07.000Z</time>
      </trkpt>
      <trkpt lat="45.7405" lon="4.656">
        <ele>439.6</ele>
        <time>2020-06-14T09:37:08.000Z</time>
      </trkpt>
      <trkpt lat="45.7405" lon="4.65599">
        <ele>440</ele>
        <time>2020-06-14T09:37:09.000Z</time>
      </trkpt>
      <trkpt lat="45.74051" lon="4.65598">
        <ele>440.2</ele>
        <time>2020-06-14T09:37:10.000Z</time>
      </trkpt>
      <trkpt lat="45.74052" lon="4.65598">
        <ele>440.4</ele>
        <time>2020-06-14T09:37:11.000Z</time>
      </trkpt>
      <trkpt lat="45.74053" lon="4.65597">
        <ele>440.8</ele>
        <time>2020-06-14T09:37:12.000Z</time>
      </trkpt>
      <trkpt lat="45.74054" lon="4.65597">
        <ele>440.8</ele>
        <time>2020-06-14T09:37:13.000Z</time>
      </trkpt>
      <trkpt lat="45.74055" lon="4.65597">
        <ele>441</ele>
        <time>2020-06-14T09:37:14.000Z</time>
      </trkpt>
      <trkpt lat="45.74056" lon="4.65597">
        <ele>441.2</ele>
        <time>2020-06-14T09:37:15.000Z</time>
      </trkpt>
      <trkpt lat="45.74056" lon="4.65597">
        <ele>441.6</ele>
        <time>2020-06-14T09:37:16.000Z</time>
      </trkpt>
      <trkpt lat="45.74056" lon="4.65599">
        <ele>441.8</ele>
        <time>2020-06-14T09:37:17.000Z</time>
      </trkpt>
      <trkpt lat="45.74056" lon="4.65599">
        <ele>442</ele>
        <time>2020-06-14T09:37:18.000Z</time>
      </trkpt>
      <trkpt lat="45.74054" lon="4.65596">
        <ele>442.6</ele>
        <time>2020-06-14T09:37:21.000Z</time>
      </trkpt>
      <trkpt lat="45.74053" lon="4.65594">
        <ele>442.6</ele>
        <time>2020-06-14T09:37:22.000Z</time>
      </trkpt>
      <trkpt lat="45.74053" lon="4.65594">
        <ele>442.8</ele>
        <time>2020-06-14T09:37:23.000Z</time>
      </trkpt>
      <trkpt lat="45.74051" lon="4.65593">
        <ele>442.8</ele>
        <time>2020-06-14T09:37:24.000Z</time>
      </trkpt>
      <trkpt lat="45.74051" lon="4.65593">
        <ele>442.8</ele>
        <time>2020-06-14T09:37:25.000Z</time>
      </trkpt>
      <trkpt lat="45.74051" lon="4.65594">
        <ele>443</ele>
        <time>2020-06-14T09:37:26.000Z</time>
      </trkpt>
      <trkpt lat="45.74051" lon="4.65594">
        <ele>442.8</ele>
        <time>2020-06-14T09:37:27.000Z</time>
      </trkpt>
      <trkpt lat="45.74051" lon="4.65594">
        <ele>442.8</ele>
        <time>2020-06-14T09:37:28.000Z</time>
      </trkpt>
      <trkpt lat="45.74051" lon="4.65595">
        <ele>442.8</ele>
        <time>2020-06-14T09:37:29.000Z</time>
      </trkpt>
      <trkpt lat="45.74054" lon="4.65595">
        <ele>443</ele>
        <time>2020-06-14T09:38:26.000Z</time>
      </trkpt>
      <trkpt lat="45.74055" lon="4.65596">
        <ele>443</ele>
        <time>2020-06-14T09:38:27.000Z</time>
      </trkpt>
      <trkpt lat="45.74057" lon="4.65596">
        <ele>442.8</ele>
        <time>2020-06-14T09:38:28.000Z</time>
      </trkpt>
      <trkpt lat="45.74059" lon="4.65595">
        <ele>442.8</ele>
        <time>2020-06-14T09:38:29.000Z</time>
      </trkpt>
      <trkpt lat="45.74061" lon="4.65594">
        <ele>443</ele>
        <time>2020-06-14T09:38:30.000Z</time>
      </trkpt>
      <trkpt lat="45.74062" lon="4.65593">
        <ele>443</ele>
        <time>2020-06-14T09:38:31.000Z</time>
      </trkpt>
      <trkpt lat="45.74063" lon="4.65591">
        <ele>443</ele>
        <time>2020-06-14T09:38:32.000Z</time>
      </trkpt>
      <trkpt lat="45.74065" lon="4.6559">
        <ele>443</ele>
        <time>2020-06-14T09:38:33.000Z</time>
      </trkpt>
      <trkpt lat="45.74066" lon="4.65589">
        <ele>443.2</ele>
        <time>2020-06-14T09:38:34.000Z</time>
      </trkpt>
      <trkpt lat="45.74068" lon="4.65587">
        <ele>443</ele>
        <time>2020-06-14T09:38:35.000Z</time>
      </trkpt>
      <trkpt lat="45.74069" lon="4.65586">
        <ele>443.2</ele>
        <time>2020-06-14T09:38:36.000Z</time>
      </trkpt>
      <trkpt lat="45.74071" lon="4.65584">
        <ele>443.6</ele>
        <time>2020-06-14T09:38:37.000Z</time>
      </trkpt>
      <trkpt lat="45.74073" lon="4.65583">
        <ele>444</ele>
        <time>2020-06-14T09:38:38.000Z</time>
      </trkpt>
      <trkpt lat="45.74074" lon="4.65581">
        <ele>444.2</ele>
        <time>2020-06-14T09:38:39.000Z</time>
      </trkpt>
      <trkpt lat="45.74076" lon="4.6558">
        <ele>444.4</ele>
        <time>2020-06-14T09:38:40.000Z</time>
      </trkpt>
      <trkpt lat="45.74077" lon="4.65578">
        <ele>444.8</ele>
        <time>2020-06-14T09:38:41.000Z</time>
      </trkpt>
      <trkpt lat="45.74079" lon="4.65577">
        <ele>445</ele>
        <time>2020-06-14T09:38:42.000Z</time>
      </trkpt>
      <trkpt lat="45.74079" lon="4.65577">
        <ele>445</ele>
        <time>2020-06-14T09:38:43.000Z</time>
      </trkpt>
      <trkpt lat="45.74082" lon="4.65575">
        <ele>445.6</ele>
        <time>2020-06-14T09:38:44.000Z</time>
      </trkpt>
      <trkpt lat="45.74084" lon="4.65574">
        <ele>445.8</ele>
        <time>2020-06-14T09:38:45.000Z</time>
      </trkpt>
      <trkpt lat="45.74086" lon="4.65574">
        <ele>446.2</ele>
        <time>2020-06-14T09:38:46.000Z</time>
      </trkpt>
      <trkpt lat="45.74088" lon="4.65573">
        <ele>446.6</ele>
        <time>2020-06-14T09:38:47.000Z</time>
      </trkpt>
      <trkpt lat="45.74091" lon="4.65573">
        <ele>447</ele>
        <time>2020-06-14T09:38:48.000Z</time>
      </trkpt>
      <trkpt lat="45.74093" lon="4.65574">
        <ele>447.2</ele>
        <time>2020-06-14T09:38:49.000Z</time>
      </trkpt>
      <trkpt lat="45.74095" lon="4.65575">
        <ele>447.4</ele>
        <time>2020-06-14T09:38:50.000Z</time>
      </trkpt>
      <trkpt lat="45.74097" lon="4.65577">
        <ele>447.4</ele>
        <time>2020-06-14T09:38:51.000Z</time>
      </trkpt>
      <trkpt lat="45.74098" lon="4.65579">
        <ele>447.8</ele>
        <time>2020-06-14T09:38:52.000Z</time>
      </trkpt>
      <trkpt lat="45.741" lon="4.65581">
        <ele>448</ele>
        <time>2020-06-14T09:38:53.000Z</time>
      </trkpt>
      <trkpt lat="45.74102" lon="4.65582">
        <ele>448.4</ele>
        <time>2020-06-14T09:38:54.000Z</time>
      </trkpt>
      <trkpt lat="45.74104" lon="4.65584">
        <ele>448.8</ele>
        <time>2020-06-14T09:38:55.000Z</time>
      </trkpt>
      <trkpt lat="45.74105" lon="4.65585">
        <ele>449.2</ele>
        <time>2020-06-14T09:38:56.000Z</time>
      </trkpt>
      <trkpt lat="45.74107" lon="4.65587">
        <ele>449.6</ele>
        <time>2020-06-14T09:38:57.000Z</time>
      </trkpt>
      <trkpt lat="45.74108" lon="4.65588">
        <ele>450</ele>
        <time>2020-06-14T09:38:58.000Z</time>
      </trkpt>
      <trkpt lat="45.7411" lon="4.6559">
        <ele>450</ele>
        <time>2020-06-14T09:38:59.000Z</time>
      </trkpt>
      <trkpt lat="45.74111" lon="4.65591">
        <ele>450.2</ele>
        <time>2020-06-14T09:39:00.000Z</time>
      </trkpt>
      <trkpt lat="45.74113" lon="4.65592">
        <ele>450.4</ele>
        <time>2020-06-14T09:39:01.000Z</time>
      </trkpt>
      <trkpt lat="45.74114" lon="4.65594">
        <ele>450.8</ele>
        <time>2020-06-14T09:39:02.000Z</time>
      </trkpt>
      <trkpt lat="45.74115" lon="4.65595">
        <ele>450.8</ele>
        <time>2020-06-14T09:39:03.000Z</time>
      </trkpt>
      <trkpt lat="45.74116" lon="4.65596">
        <ele>451</ele>
        <time>2020-06-14T09:39:04.000Z</time>
      </trkpt>
      <trkpt lat="45.74117" lon="4.65596">
        <ele>451.4</ele>
        <time>2020-06-14T09:39:05.000Z</time>
      </trkpt>
      <trkpt lat="45.74118" lon="4.65597">
        <ele>451.4</ele>
        <time>2020-06-14T09:39:06.000Z</time>
      </trkpt>
      <trkpt lat="45.74118" lon="4.65597">
        <ele>451.8</ele>
        <time>2020-06-14T09:39:07.000Z</time>
      </trkpt>
      <trkpt lat="45.74119" lon="4.65597">
        <ele>452</ele>
        <time>2020-06-14T09:39:08.000Z</time>
      </trkpt>
      <trkpt lat="45.7412" lon="4.65597">
        <ele>452.2</ele>
        <time>2020-06-14T09:39:09.000Z</time>
      </trkpt>
      <trkpt lat="45.74121" lon="4.65598">
        <ele>452.4</ele>
        <time>2020-06-14T09:39:10.000Z</time>
      </trkpt>
      <trkpt lat="45.74123" lon="4.65598">
        <ele>452.8</ele>
        <time>2020-06-14T09:39:11.000Z</time>
      </trkpt>
      <trkpt lat="45.74124" lon="4.65599">
        <ele>452.8</ele>
        <time>2020-06-14T09:39:12.000Z</time>
      </trkpt>
      <trkpt lat="45.74125" lon="4.65601">
        <ele>453</ele>
        <time>2020-06-14T09:39:13.000Z</time>
      </trkpt>
      <trkpt lat="45.74126" lon="4.65602">
        <ele>453.4</ele>
        <time>2020-06-14T09:39:14.000Z</time>
      </trkpt>
      <trkpt lat="45.74127" lon="4.65602">
        <ele>453.6</ele>
        <time>2020-06-14T09:39:15.000Z</time>
      </trkpt>
      <trkpt lat="45.74128" lon="4.65603">
        <ele>453.8</ele>
        <time>2020-06-14T09:39:16.000Z</time>
      </trkpt>
      <trkpt lat="45.74128" lon="4.65604">
        <ele>454</ele>
        <time>2020-06-14T09:39:17.000Z</time>
      </trkpt>
      <trkpt lat="45.74128" lon="4.65604">
        <ele>453.8</ele>
        <time>2020-06-14T09:39:18.000Z</time>
      </trkpt>
      <trkpt lat="45.74131" lon="4.65605">
        <ele>454.2</ele>
        <time>2020-06-14T09:39:19.000Z</time>
      </trkpt>
      <trkpt lat="45.74133" lon="4.65607">
        <ele>454.2</ele>
        <time>2020-06-14T09:39:20.000Z</time>
      </trkpt>
      <trkpt lat="45.74134" lon="4.65609">
        <ele>454.4</ele>
        <time>2020-06-14T09:39:21.000Z</time>
      </trkpt>
      <trkpt lat="45.74136" lon="4.6561">
        <ele>454.8</ele>
        <time>2020-06-14T09:39:22.000Z</time>
      </trkpt>
      <trkpt lat="45.74138" lon="4.65612">
        <ele>454.8</ele>
        <time>2020-06-14T09:39:23.000Z</time>
      </trkpt>
      <trkpt lat="45.7414" lon="4.65613">
        <ele>455</ele>
        <time>2020-06-14T09:39:24.000Z</time>
      </trkpt>
      <trkpt lat="45.74142" lon="4.65614">
        <ele>455</ele>
        <time>2020-06-14T09:39:25.000Z</time>
      </trkpt>
      <trkpt lat="45.74143" lon="4.65615">
        <ele>455.4</ele>
        <time>2020-06-14T09:39:26.000Z</time>
      </trkpt>
      <trkpt lat="45.74145" lon="4.65617">
        <ele>455.4</ele>
        <time>2020-06-14T09:39:27.000Z</time>
      </trkpt>
      <trkpt lat="45.74146" lon="4.65618">
        <ele>455.6</ele>
        <time>2020-06-14T09:39:28.000Z</time>
      </trkpt>
      <trkpt lat="45.74148" lon="4.65619">
        <ele>455.8</ele>
        <time>2020-06-14T09:39:29.000Z</time>
      </trkpt>
      <trkpt lat="45.7415" lon="4.6562">
        <ele>456</ele>
        <time>2020-06-14T09:39:30.000Z</time>
      </trkpt>
      <trkpt lat="45.74151" lon="4.65621">
        <ele>456.2</ele>
        <time>2020-06-14T09:39:31.000Z</time>
      </trkpt>
      <trkpt lat="45.74153" lon="4.65623">
        <ele>456.6</ele>
        <time>2020-06-14T09:39:32.000Z</time>
      </trkpt>
      <trkpt lat="45.74154" lon="4.65624">
        <ele>456.8</ele>
        <time>2020-06-14T09:39:33.000Z</time>
      </trkpt>
      <trkpt lat="45.74156" lon="4.65625">
        <ele>457.4</ele>
        <time>2020-06-14T09:39:34.000Z</time>
      </trkpt>
      <trkpt lat="45.74158" lon="4.65626">
        <ele>457.8</ele>
        <time>2020-06-14T09:39:35.000Z</time>
      </trkpt>
      <trkpt lat="45.7416" lon="4.65627">
        <ele>457.8</ele>
        <time>2020-06-14T09:39:36.000Z</time>
      </trkpt>
      <trkpt lat="45.74161" lon="4.65629">
        <ele>458.2</ele>
        <time>2020-06-14T09:39:37.000Z</time>
      </trkpt>
      <trkpt lat="45.74163" lon="4.6563">
        <ele>458.6</ele>
        <time>2020-06-14T09:39:38.000Z</time>
      </trkpt>
      <trkpt lat="45.74165" lon="4.65632">
        <ele>458.8</ele>
        <time>2020-06-14T09:39:39.000Z</time>
      </trkpt>
      <trkpt lat="45.74166" lon="4.65633">
        <ele>459.2</ele>
        <time>2020-06-14T09:39:40.000Z</time>
      </trkpt>
      <trkpt lat="45.74168" lon="4.65634">
        <ele>459.4</ele>
        <time>2020-06-14T09:39:41.000Z</time>
      </trkpt>
      <trkpt lat="45.7417" lon="4.65635">
        <ele>459.6</ele>
        <time>2020-06-14T09:39:42.000Z</time>
      </trkpt>
      <trkpt lat="45.74172" lon="4.65637">
        <ele>459.6</ele>
        <time>2020-06-14T09:39:43.000Z</time>
      </trkpt>
      <trkpt lat="45.74174" lon="4.65638">
        <ele>459.8</ele>
        <time>2020-06-14T09:39:44.000Z</time>
      </trkpt>
      <trkpt lat="45.74175" lon="4.6564">
        <ele>460</ele>
        <time>2020-06-14T09:39:45.000Z</time>
      </trkpt>
      <trkpt lat="45.74177" lon="4.6564">
        <ele>460.4</ele>
        <time>2020-06-14T09:39:46.000Z</time>
      </trkpt>
      <trkpt lat="45.74179" lon="4.65641">
        <ele>460.6</ele>
        <time>2020-06-14T09:39:47.000Z</time>
      </trkpt>
      <trkpt lat="45.7418" lon="4.65642">
        <ele>460.6</ele>
        <time>2020-06-14T09:39:48.000Z</time>
      </trkpt>
      <trkpt lat="45.74182" lon="4.65643">
        <ele>461</ele>
        <time>2020-06-14T09:39:49.000Z</time>
      </trkpt>
      <trkpt lat="45.74184" lon="4.65644">
        <ele>461</ele>
        <time>2020-06-14T09:39:50.000Z</time>
      </trkpt>
      <trkpt lat="45.74185" lon="4.65645">
        <ele>461.2</ele>
        <time>2020-06-14T09:39:51.000Z</time>
      </trkpt>
      <trkpt lat="45.74187" lon="4.65647">
        <ele>461.4</ele>
        <time>2020-06-14T09:39:52.000Z</time>
      </trkpt>
      <trkpt lat="45.74189" lon="4.65648">
        <ele>461.6</ele>
        <time>2020-06-14T09:39:53.000Z</time>
      </trkpt>
      <trkpt lat="45.7419" lon="4.65649">
        <ele>462</ele>
        <time>2020-06-14T09:39:54.000Z</time>
      </trkpt>
      <trkpt lat="45.74192" lon="4.6565">
        <ele>462.4</ele>
        <time>2020-06-14T09:39:55.000Z</time>
      </trkpt>
      <trkpt lat="45.74194" lon="4.65652">
        <ele>462.4</ele>
        <time>2020-06-14T09:39:56.000Z</time>
      </trkpt>
      <trkpt lat="45.74195" lon="4.65653">
        <ele>462.8</ele>
        <time>2020-06-14T09:39:57.000Z</time>
      </trkpt>
      <trkpt lat="45.74196" lon="4.65654">
        <ele>462.8</ele>
        <time>2020-06-14T09:39:58.000Z</time>
      </trkpt>
      <trkpt lat="45.74198" lon="4.65655">
        <ele>463.2</ele>
        <time>2020-06-14T09:39:59.000Z</time>
      </trkpt>
      <trkpt lat="45.74199" lon="4.65656">
        <ele>463.6</ele>
        <time>2020-06-14T09:40:00.000Z</time>
      </trkpt>
      <trkpt lat="45.74201" lon="4.65657">
        <ele>463.8</ele>
        <time>2020-06-14T09:40:01.000Z</time>
      </trkpt>
      <trkpt lat="45.74202" lon="4.65659">
        <ele>463.8</ele>
        <time>2020-06-14T09:40:02.000Z</time>
      </trkpt>
      <trkpt lat="45.74203" lon="4.6566">
        <ele>463.8</ele>
        <time>2020-06-14T09:40:03.000Z</time>
      </trkpt>
      <trkpt lat="45.74205" lon="4.65661">
        <ele>464.2</ele>
        <time>2020-06-14T09:40:04.000Z</time>
      </trkpt>
      <trkpt lat="45.74206" lon="4.65662">
        <ele>464.2</ele>
        <time>2020-06-14T09:40:05.000Z</time>
      </trkpt>
      <trkpt lat="45.74208" lon="4.65664">
        <ele>464.2</ele>
        <time>2020-06-14T09:40:06.000Z</time>
      </trkpt>
      <trkpt lat="45.7421" lon="4.65665">
        <ele>464.4</ele>
        <time>2020-06-14T09:40:07.000Z</time>
      </trkpt>
      <trkpt lat="45.74211" lon="4.65666">
        <ele>464.8</ele>
        <time>2020-06-14T09:40:08.000Z</time>
      </trkpt>
      <trkpt lat="45.74213" lon="4.65668">
        <ele>465</ele>
        <time>2020-06-14T09:40:09.000Z</time>
      </trkpt>
      <trkpt lat="45.74214" lon="4.6567">
        <ele>465.2</ele>
        <time>2020-06-14T09:40:10.000Z</time>
      </trkpt>
      <trkpt lat="45.74216" lon="4.65671">
        <ele>465.8</ele>
        <time>2020-06-14T09:40:11.000Z</time>
      </trkpt>
      <trkpt lat="45.74217" lon="4.65673">
        <ele>466.2</ele>
        <time>2020-06-14T09:40:12.000Z</time>
      </trkpt>
      <trkpt lat="45.74219" lon="4.65674">
        <ele>466.2</ele>
        <time>2020-06-14T09:40:13.000Z</time>
      </trkpt>
      <trkpt lat="45.74221" lon="4.65675">
        <ele>466.6</ele>
        <time>2020-06-14T09:40:14.000Z</time>
      </trkpt>
      <trkpt lat="45.74222" lon="4.65677">
        <ele>466.8</ele>
        <time>2020-06-14T09:40:15.000Z</time>
      </trkpt>
      <trkpt lat="45.74224" lon="4.65678">
        <ele>467.2</ele>
        <time>2020-06-14T09:40:16.000Z</time>
      </trkpt>
      <trkpt lat="45.74226" lon="4.65679">
        <ele>467.4</ele>
        <time>2020-06-14T09:40:17.000Z</time>
      </trkpt>
      <trkpt lat="45.74228" lon="4.65679">
        <ele>467.6</ele>
        <time>2020-06-14T09:40:18.000Z</time>
      </trkpt>
      <trkpt lat="45.7423" lon="4.65679">
        <ele>468</ele>
        <time>2020-06-14T09:40:19.000Z</time>
      </trkpt>
      <trkpt lat="45.74231" lon="4.65679">
        <ele>468</ele>
        <time>2020-06-14T09:40:20.000Z</time>
      </trkpt>
      <trkpt lat="45.74233" lon="4.65679">
        <ele>468.2</ele>
        <time>2020-06-14T09:40:21.000Z</time>
      </trkpt>
      <trkpt lat="45.74235" lon="4.65679">
        <ele>468.4</ele>
        <time>2020-06-14T09:40:22.000Z</time>
      </trkpt>
      <trkpt lat="45.74237" lon="4.65678">
        <ele>468.4</ele>
        <time>2020-06-14T09:40:23.000Z</time>
      </trkpt>
      <trkpt lat="45.74239" lon="4.65678">
        <ele>468.8</ele>
        <time>2020-06-14T09:40:24.000Z</time>
      </trkpt>
      <trkpt lat="45.74241" lon="4.65678">
        <ele>469.2</ele>
        <time>2020-06-14T09:40:25.000Z</time>
      </trkpt>
      <trkpt lat="45.74242" lon="4.65678">
        <ele>469.6</ele>
        <time>2020-06-14T09:40:26.000Z</time>
      </trkpt>
      <trkpt lat="45.74244" lon="4.65679">
        <ele>469.8</ele>
        <time>2020-06-14T09:40:27.000Z</time>
      </trkpt>
      <trkpt lat="45.74246" lon="4.6568">
        <ele>470</ele>
        <time>2020-06-14T09:40:28.000Z</time>
      </trkpt>
      <trkpt lat="45.74248" lon="4.65679">
        <ele>470.2</ele>
        <time>2020-06-14T09:40:29.000Z</time>
      </trkpt>
      <trkpt lat="45.7425" lon="4.65678">
        <ele>470.2</ele>
        <time>2020-06-14T09:40:30.000Z</time>
      </trkpt>
      <trkpt lat="45.74252" lon="4.65678">
        <ele>470.4</ele>
        <time>2020-06-14T09:40:31.000Z</time>
      </trkpt>
      <trkpt lat="45.74254" lon="4.65678">
        <ele>470.4</ele>
        <time>2020-06-14T09:40:32.000Z</time>
      </trkpt>
      <trkpt lat="45.74256" lon="4.65678">
        <ele>470.6</ele>
        <time>2020-06-14T09:40:33.000Z</time>
      </trkpt>
      <trkpt lat="45.74258" lon="4.65679">
        <ele>471</ele>
        <time>2020-06-14T09:40:34.000Z</time>
      </trkpt>
      <trkpt lat="45.7426" lon="4.65679">
        <ele>471.2</ele>
        <time>2020-06-14T09:40:35.000Z</time>
      </trkpt>
      <trkpt lat="45.74262" lon="4.6568">
        <ele>471.6</ele>
        <time>2020-06-14T09:40:36.000Z</time>
      </trkpt>
      <trkpt lat="45.74263" lon="4.6568">
        <ele>472.4</ele>
        <time>2020-06-14T09:40:37.000Z</time>
      </trkpt>
      <trkpt lat="45.74265" lon="4.6568">
        <ele>472.8</ele>
        <time>2020-06-14T09:40:38.000Z</time>
      </trkpt>
      <trkpt lat="45.74267" lon="4.65681">
        <ele>473</ele>
        <time>2020-06-14T09:40:39.000Z</time>
      </trkpt>
      <trkpt lat="45.74269" lon="4.65681">
        <ele>473</ele>
        <time>2020-06-14T09:40:40.000Z</time>
      </trkpt>
      <trkpt lat="45.74271" lon="4.65682">
        <ele>473.2</ele>
        <time>2020-06-14T09:40:41.000Z</time>
      </trkpt>
      <trkpt lat="45.74273" lon="4.65683">
        <ele>473.4</ele>
        <time>2020-06-14T09:40:42.000Z</time>
      </trkpt>
      <trkpt lat="45.74275" lon="4.65684">
        <ele>473.8</ele>
        <time>2020-06-14T09:40:43.000Z</time>
      </trkpt>
      <trkpt lat="45.74276" lon="4.65684">
        <ele>473.8</ele>
        <time>2020-06-14T09:40:44.000Z</time>
      </trkpt>
      <trkpt lat="45.74278" lon="4.65685">
        <ele>474</ele>
        <time>2020-06-14T09:40:45.000Z</time>
      </trkpt>
      <trkpt lat="45.7428" lon="4.65685">
        <ele>474.2</ele>
        <time>2020-06-14T09:40:46.000Z</time>
      </trkpt>
      <trkpt lat="45.74282" lon="4.65686">
        <ele>474.4</ele>
        <time>2020-06-14T09:40:47.000Z</time>
      </trkpt>
      <trkpt lat="45.74284" lon="4.65686">
        <ele>474.6</ele>
        <time>2020-06-14T09:40:48.000Z</time>
      </trkpt>
      <trkpt lat="45.74286" lon="4.65687">
        <ele>475</ele>
        <time>2020-06-14T09:40:49.000Z</time>
      </trkpt>
      <trkpt lat="45.74288" lon="4.65687">
        <ele>475.2</ele>
        <time>2020-06-14T09:40:50.000Z</time>
      </trkpt>
      <trkpt lat="45.7429" lon="4.65687">
        <ele>475.4</ele>
        <time>2020-06-14T09:40:51.000Z</time>
      </trkpt>
      <trkpt lat="45.74292" lon="4.65688">
        <ele>475.6</ele>
        <time>2020-06-14T09:40:52.000Z</time>
      </trkpt>
      <trkpt lat="45.74294" lon="4.65688">
        <ele>476</ele>
        <time>2020-06-14T09:40:53.000Z</time>
      </trkpt>
      <trkpt lat="45.74296" lon="4.65688">
        <ele>476.2</ele>
        <time>2020-06-14T09:40:54.000Z</time>
      </trkpt>
      <trkpt lat="45.74298" lon="4.65688">
        <ele>476.4</ele>
        <time>2020-06-14T09:40:55.000Z</time>
      </trkpt>
      <trkpt lat="45.743" lon="4.65689">
        <ele>476.6</ele>
        <time>2020-06-14T09:40:56.000Z</time>
      </trkpt>
      <trkpt lat="45.74302" lon="4.6569">
        <ele>476.6</ele>
        <time>2020-06-14T09:40:57.000Z</time>
      </trkpt>
      <trkpt lat="45.74304" lon="4.6569">
        <ele>476.8</ele>
        <time>2020-06-14T09:40:58.000Z</time>
      </trkpt>
      <trkpt lat="45.74306" lon="4.65691">
        <ele>477</ele>
        <time>2020-06-14T09:40:59.000Z</time>
      </trkpt>
      <trkpt lat="45.74308" lon="4.65692">
        <ele>477.2</ele>
        <time>2020-06-14T09:41:00.000Z</time>
      </trkpt>
      <trkpt lat="45.7431" lon="4.65693">
        <ele>477.4</ele>
        <time>2020-06-14T09:41:01.000Z</time>
      </trkpt>
      <trkpt lat="45.74312" lon="4.65694">
        <ele>477.6</ele>
        <time>2020-06-14T09:41:02.000Z</time>
      </trkpt>
      <trkpt lat="45.74314" lon="4.65695">
        <ele>477.8</ele>
        <time>2020-06-14T09:41:03.000Z</time>
      </trkpt>
      <trkpt lat="45.74316" lon="4.65695">
        <ele>477.8</ele>
        <time>2020-06-14T09:41:04.000Z</time>
      </trkpt>
      <trkpt lat="45.74317" lon="4.65696">
        <ele>478</ele>
        <time>2020-06-14T09:41:05.000Z</time>
      </trkpt>
      <trkpt lat="45.74319" lon="4.65697">
        <ele>478.4</ele>
        <time>2020-06-14T09:41:06.000Z</time>
      </trkpt>
      <trkpt lat="45.7432" lon="4.65697">
        <ele>478.6</ele>
        <time>2020-06-14T09:41:07.000Z</time>
      </trkpt>
      <trkpt lat="45.74321" lon="4.65697">
        <ele>478.8</ele>
        <time>2020-06-14T09:41:08.000Z</time>
      </trkpt>
      <trkpt lat="45.74327" lon="4.65698">
        <ele>479</ele>
        <time>2020-06-14T09:41:13.000Z</time>
      </trkpt>
      <trkpt lat="45.7433" lon="4.65698">
        <ele>479.2</ele>
        <time>2020-06-14T09:41:14.000Z</time>
      </trkpt>
      <trkpt lat="45.74332" lon="4.65699">
        <ele>479.2</ele>
        <time>2020-06-14T09:41:15.000Z</time>
      </trkpt>
      <trkpt lat="45.74341" lon="4.65702">
        <ele>479.4</ele>
        <time>2020-06-14T09:41:18.000Z</time>
      </trkpt>
      <trkpt lat="45.74345" lon="4.65702">
        <ele>479.4</ele>
        <time>2020-06-14T09:41:19.000Z</time>
      </trkpt>
      <trkpt lat="45.74355" lon="4.65704">
        <ele>479.4</ele>
        <time>2020-06-14T09:41:22.000Z</time>
      </trkpt>
      <trkpt lat="45.74359" lon="4.65705">
        <ele>479.2</ele>
        <time>2020-06-14T09:41:23.000Z</time>
      </trkpt>
      <trkpt lat="45.74361" lon="4.65706">
        <ele>479.2</ele>
        <time>2020-06-14T09:41:24.000Z</time>
      </trkpt>
      <trkpt lat="45.74364" lon="4.65706">
        <ele>479</ele>
        <time>2020-06-14T09:41:25.000Z</time>
      </trkpt>
      <trkpt lat="45.74366" lon="4.65706">
        <ele>479</ele>
        <time>2020-06-14T09:41:26.000Z</time>
      </trkpt>
      <trkpt lat="45.74369" lon="4.65707">
        <ele>478.8</ele>
        <time>2020-06-14T09:41:27.000Z</time>
      </trkpt>
      <trkpt lat="45.74371" lon="4.65706">
        <ele>478.4</ele>
        <time>2020-06-14T09:41:28.000Z</time>
      </trkpt>
      <trkpt lat="45.74374" lon="4.65705">
        <ele>478.2</ele>
        <time>2020-06-14T09:41:29.000Z</time>
      </trkpt>
      <trkpt lat="45.74375" lon="4.65705">
        <ele>477.8</ele>
        <time>2020-06-14T09:41:30.000Z</time>
      </trkpt>
      <trkpt lat="45.74377" lon="4.65704">
        <ele>477.4</ele>
        <time>2020-06-14T09:41:31.000Z</time>
      </trkpt>
      <trkpt lat="45.74377" lon="4.65704">
        <ele>477.4</ele>
        <time>2020-06-14T09:41:32.000Z</time>
      </trkpt>
      <trkpt lat="45.74377" lon="4.65704">
        <ele>477.2</ele>
        <time>2020-06-14T09:41:33.000Z</time>
      </trkpt>
      <trkpt lat="45.74382" lon="4.65702">
        <ele>476.8</ele>
        <time>2020-06-14T09:41:48.000Z</time>
      </trkpt>
      <trkpt lat="45.74382" lon="4.65702">
        <ele>477</ele>
        <time>2020-06-14T09:41:49.000Z</time>
      </trkpt>
      <trkpt lat="45.74389" lon="4.657">
        <ele>477</ele>
        <time>2020-06-14T09:41:50.000Z</time>
      </trkpt>
      <trkpt lat="45.74398" lon="4.65697">
        <ele>476.8</ele>
        <time>2020-06-14T09:41:52.000Z</time>
      </trkpt>
      <trkpt lat="45.74416" lon="4.65694">
        <ele>476.8</ele>
        <time>2020-06-14T09:41:55.000Z</time>
      </trkpt>
      <trkpt lat="45.74422" lon="4.65694">
        <ele>476.8</ele>
        <time>2020-06-14T09:41:56.000Z</time>
      </trkpt>
      <trkpt lat="45.74428" lon="4.65693">
        <ele>476.6</ele>
        <time>2020-06-14T09:41:57.000Z</time>
      </trkpt>
      <trkpt lat="45.74435" lon="4.65693">
        <ele>476.4</ele>
        <time>2020-06-14T09:41:58.000Z</time>
      </trkpt>
      <trkpt lat="45.74441" lon="4.65693">
        <ele>476.4</ele>
        <time>2020-06-14T09:41:59.000Z</time>
      </trkpt>
      <trkpt lat="45.74454" lon="4.65692">
        <ele>475.4</ele>
        <time>2020-06-14T09:42:01.000Z</time>
      </trkpt>
      <trkpt lat="45.74461" lon="4.65691">
        <ele>474.8</ele>
        <time>2020-06-14T09:42:02.000Z</time>
      </trkpt>
      <trkpt lat="45.74467" lon="4.6569">
        <ele>474</ele>
        <time>2020-06-14T09:42:03.000Z</time>
      </trkpt>
      <trkpt lat="45.74473" lon="4.65689">
        <ele>473.4</ele>
        <time>2020-06-14T09:42:04.000Z</time>
      </trkpt>
      <trkpt lat="45.74479" lon="4.65687">
        <ele>472.8</ele>
        <time>2020-06-14T09:42:05.000Z</time>
      </trkpt>
      <trkpt lat="45.74486" lon="4.65686">
        <ele>472.4</ele>
        <time>2020-06-14T09:42:06.000Z</time>
      </trkpt>
      <trkpt lat="45.74492" lon="4.65685">
        <ele>472.2</ele>
        <time>2020-06-14T09:42:07.000Z</time>
      </trkpt>
      <trkpt lat="45.74506" lon="4.65682">
        <ele>471.2</ele>
        <time>2020-06-14T09:42:09.000Z</time>
      </trkpt>
      <trkpt lat="45.74536" lon="4.65683">
        <ele>469.4</ele>
        <time>2020-06-14T09:42:13.000Z</time>
      </trkpt>
      <trkpt lat="45.74543" lon="4.65684">
        <ele>469.4</ele>
        <time>2020-06-14T09:42:14.000Z</time>
      </trkpt>
      <trkpt lat="45.74551" lon="4.65687">
        <ele>469.2</ele>
        <time>2020-06-14T09:42:15.000Z</time>
      </trkpt>
      <trkpt lat="45.74551" lon="4.65687">
        <ele>468.6</ele>
        <time>2020-06-14T09:42:16.000Z</time>
      </trkpt>
      <trkpt lat="45.74565" lon="4.65692">
        <ele>468</ele>
        <time>2020-06-14T09:42:17.000Z</time>
      </trkpt>
      <trkpt lat="45.74572" lon="4.65695">
        <ele>467.2</ele>
        <time>2020-06-14T09:42:18.000Z</time>
      </trkpt>
      <trkpt lat="45.74579" lon="4.65698">
        <ele>466.6</ele>
        <time>2020-06-14T09:42:19.000Z</time>
      </trkpt>
      <trkpt lat="45.74585" lon="4.657">
        <ele>466.4</ele>
        <time>2020-06-14T09:42:20.000Z</time>
      </trkpt>
      <trkpt lat="45.74592" lon="4.65703">
        <ele>466.2</ele>
        <time>2020-06-14T09:42:21.000Z</time>
      </trkpt>
      <trkpt lat="45.74599" lon="4.65705">
        <ele>465.8</ele>
        <time>2020-06-14T09:42:22.000Z</time>
      </trkpt>
      <trkpt lat="45.74605" lon="4.65708">
        <ele>465.4</ele>
        <time>2020-06-14T09:42:23.000Z</time>
      </trkpt>
      <trkpt lat="45.74612" lon="4.65711">
        <ele>465</ele>
        <time>2020-06-14T09:42:24.000Z</time>
      </trkpt>
      <trkpt lat="45.74618" lon="4.65714">
        <ele>464.6</ele>
        <time>2020-06-14T09:42:25.000Z</time>
      </trkpt>
      <trkpt lat="45.74638" lon="4.65723">
        <ele>463.6</ele>
        <time>2020-06-14T09:42:28.000Z</time>
      </trkpt>
      <trkpt lat="45.74645" lon="4.65725">
        <ele>463.4</ele>
        <time>2020-06-14T09:42:29.000Z</time>
      </trkpt>
      <trkpt lat="45.74651" lon="4.65728">
        <ele>463.4</ele>
        <time>2020-06-14T09:42:30.000Z</time>
      </trkpt>
      <trkpt lat="45.74657" lon="4.65731">
        <ele>463.2</ele>
        <time>2020-06-14T09:42:31.000Z</time>
      </trkpt>
      <trkpt lat="45.74662" lon="4.65733">
        <ele>463.2</ele>
        <time>2020-06-14T09:42:32.000Z</time>
      </trkpt>
      <trkpt lat="45.74668" lon="4.65735">
        <ele>463.2</ele>
        <time>2020-06-14T09:42:33.000Z</time>
      </trkpt>
      <trkpt lat="45.74672" lon="4.65737">
        <ele>463.2</ele>
        <time>2020-06-14T09:42:34.000Z</time>
      </trkpt>
      <trkpt lat="45.74677" lon="4.65739">
        <ele>463.2</ele>
        <time>2020-06-14T09:42:35.000Z</time>
      </trkpt>
      <trkpt lat="45.74682" lon="4.65741">
        <ele>463.2</ele>
        <time>2020-06-14T09:42:36.000Z</time>
      </trkpt>
      <trkpt lat="45.74692" lon="4.65744">
        <ele>463.2</ele>
        <time>2020-06-14T09:42:38.000Z</time>
      </trkpt>
      <trkpt lat="45.74703" lon="4.65748">
        <ele>463.2</ele>
        <time>2020-06-14T09:42:40.000Z</time>
      </trkpt>
      <trkpt lat="45.74708" lon="4.6575">
        <ele>463.2</ele>
        <time>2020-06-14T09:42:41.000Z</time>
      </trkpt>
      <trkpt lat="45.74713" lon="4.65751">
        <ele>463.4</ele>
        <time>2020-06-14T09:42:42.000Z</time>
      </trkpt>
      <trkpt lat="45.74718" lon="4.65752">
        <ele>463.2</ele>
        <time>2020-06-14T09:42:43.000Z</time>
      </trkpt>
      <trkpt lat="45.74729" lon="4.65752">
        <ele>463.2</ele>
        <time>2020-06-14T09:42:45.000Z</time>
      </trkpt>
      <trkpt lat="45.74735" lon="4.65752">
        <ele>463.2</ele>
        <time>2020-06-14T09:42:46.000Z</time>
      </trkpt>
      <trkpt lat="45.74747" lon="4.65753">
        <ele>461.8</ele>
        <time>2020-06-14T09:42:48.000Z</time>
      </trkpt>
      <trkpt lat="45.74757" lon="4.65755">
        <ele>461.6</ele>
        <time>2020-06-14T09:42:50.000Z</time>
      </trkpt>
      <trkpt lat="45.74762" lon="4.65757">
        <ele>461.4</ele>
        <time>2020-06-14T09:42:51.000Z</time>
      </trkpt>
      <trkpt lat="45.74767" lon="4.65759">
        <ele>461.4</ele>
        <time>2020-06-14T09:42:52.000Z</time>
      </trkpt>
      <trkpt lat="45.74771" lon="4.65761">
        <ele>461.2</ele>
        <time>2020-06-14T09:42:53.000Z</time>
      </trkpt>
      <trkpt lat="45.74775" lon="4.65764">
        <ele>461.2</ele>
        <time>2020-06-14T09:42:54.000Z</time>
      </trkpt>
      <trkpt lat="45.7478" lon="4.65766">
        <ele>460.8</ele>
        <time>2020-06-14T09:42:55.000Z</time>
      </trkpt>
      <trkpt lat="45.74785" lon="4.65769">
        <ele>460.6</ele>
        <time>2020-06-14T09:42:56.000Z</time>
      </trkpt>
      <trkpt lat="45.74795" lon="4.65775">
        <ele>459.8</ele>
        <time>2020-06-14T09:42:58.000Z</time>
      </trkpt>
      <trkpt lat="45.748" lon="4.65778">
        <ele>459.6</ele>
        <time>2020-06-14T09:42:59.000Z</time>
      </trkpt>
      <trkpt lat="45.74804" lon="4.65781">
        <ele>459.2</ele>
        <time>2020-06-14T09:43:00.000Z</time>
      </trkpt>
      <trkpt lat="45.74809" lon="4.65784">
        <ele>458.8</ele>
        <time>2020-06-14T09:43:01.000Z</time>
      </trkpt>
      <trkpt lat="45.74815" lon="4.65785">
        <ele>458.4</ele>
        <time>2020-06-14T09:43:02.000Z</time>
      </trkpt>
      <trkpt lat="45.7482" lon="4.65786">
        <ele>458.2</ele>
        <time>2020-06-14T09:43:03.000Z</time>
      </trkpt>
      <trkpt lat="45.74826" lon="4.65785">
        <ele>457.6</ele>
        <time>2020-06-14T09:43:04.000Z</time>
      </trkpt>
      <trkpt lat="45.74844" lon="4.65784">
        <ele>455.8</ele>
        <time>2020-06-14T09:43:07.000Z</time>
      </trkpt>
      <trkpt lat="45.74849" lon="4.65783">
        <ele>455</ele>
        <time>2020-06-14T09:43:08.000Z</time>
      </trkpt>
      <trkpt lat="45.74854" lon="4.65783">
        <ele>454.6</ele>
        <time>2020-06-14T09:43:09.000Z</time>
      </trkpt>
      <trkpt lat="45.74858" lon="4.65782">
        <ele>453.8</ele>
        <time>2020-06-14T09:43:10.000Z</time>
      </trkpt>
      <trkpt lat="45.74861" lon="4.65782">
        <ele>453.4</ele>
        <time>2020-06-14T09:43:11.000Z</time>
      </trkpt>
      <trkpt lat="45.74862" lon="4.65781">
        <ele>453.2</ele>
        <time>2020-06-14T09:43:12.000Z</time>
      </trkpt>
      <trkpt lat="45.74864" lon="4.65781">
        <ele>452.2</ele>
        <time>2020-06-14T09:43:13.000Z</time>
      </trkpt>
      <trkpt lat="45.74866" lon="4.6578">
        <ele>452.2</ele>
        <time>2020-06-14T09:43:14.000Z</time>
      </trkpt>
      <trkpt lat="45.74868" lon="4.65779">
        <ele>452</ele>
        <time>2020-06-14T09:43:15.000Z</time>
      </trkpt>
      <trkpt lat="45.7487" lon="4.65779">
        <ele>451.2</ele>
        <time>2020-06-14T09:43:16.000Z</time>
      </trkpt>
      <trkpt lat="45.74872" lon="4.65779">
        <ele>451</ele>
        <time>2020-06-14T09:43:17.000Z</time>
      </trkpt>
      <trkpt lat="45.74875" lon="4.65779">
        <ele>450.8</ele>
        <time>2020-06-14T09:43:18.000Z</time>
      </trkpt>
      <trkpt lat="45.74879" lon="4.65779">
        <ele>450.8</ele>
        <time>2020-06-14T09:43:19.000Z</time>
      </trkpt>
      <trkpt lat="45.74884" lon="4.65779">
        <ele>450.6</ele>
        <time>2020-06-14T09:43:20.000Z</time>
      </trkpt>
      <trkpt lat="45.74892" lon="4.6578">
        <ele>450.6</ele>
        <time>2020-06-14T09:43:22.000Z</time>
      </trkpt>
      <trkpt lat="45.74895" lon="4.6578">
        <ele>450.4</ele>
        <time>2020-06-14T09:43:23.000Z</time>
      </trkpt>
      <trkpt lat="45.74899" lon="4.6578">
        <ele>450.2</ele>
        <time>2020-06-14T09:43:24.000Z</time>
      </trkpt>
      <trkpt lat="45.74903" lon="4.6578">
        <ele>450.2</ele>
        <time>2020-06-14T09:43:25.000Z</time>
      </trkpt>
      <trkpt lat="45.74907" lon="4.6578">
        <ele>450.2</ele>
        <time>2020-06-14T09:43:26.000Z</time>
      </trkpt>
      <trkpt lat="45.74911" lon="4.65779">
        <ele>450.2</ele>
        <time>2020-06-14T09:43:27.000Z</time>
      </trkpt>
      <trkpt lat="45.74919" lon="4.65778">
        <ele>449.2</ele>
        <time>2020-06-14T09:43:29.000Z</time>
      </trkpt>
      <trkpt lat="45.74923" lon="4.65778">
        <ele>448.6</ele>
        <time>2020-06-14T09:43:30.000Z</time>
      </trkpt>
      <trkpt lat="45.74927" lon="4.65778">
        <ele>448</ele>
        <time>2020-06-14T09:43:31.000Z</time>
      </trkpt>
      <trkpt lat="45.74931" lon="4.65778">
        <ele>447.6</ele>
        <time>2020-06-14T09:43:32.000Z</time>
      </trkpt>
      <trkpt lat="45.74934" lon="4.65778">
        <ele>447.2</ele>
        <time>2020-06-14T09:43:33.000Z</time>
      </trkpt>
      <trkpt lat="45.74938" lon="4.65777">
        <ele>446.6</ele>
        <time>2020-06-14T09:43:34.000Z</time>
      </trkpt>
      <trkpt lat="45.7495" lon="4.65777">
        <ele>446.6</ele>
        <time>2020-06-14T09:43:36.000Z</time>
      </trkpt>
      <trkpt lat="45.74958" lon="4.65777">
        <ele>445.8</ele>
        <time>2020-06-14T09:43:37.000Z</time>
      </trkpt>
      <trkpt lat="45.74975" lon="4.65778">
        <ele>444.2</ele>
        <time>2020-06-14T09:43:39.000Z</time>
      </trkpt>
      <trkpt lat="45.74984" lon="4.65779">
        <ele>443</ele>
        <time>2020-06-14T09:43:40.000Z</time>
      </trkpt>
      <trkpt lat="45.74993" lon="4.65779">
        <ele>442.4</ele>
        <time>2020-06-14T09:43:41.000Z</time>
      </trkpt>
      <trkpt lat="45.75002" lon="4.6578">
        <ele>441.8</ele>
        <time>2020-06-14T09:43:42.000Z</time>
      </trkpt>
      <trkpt lat="45.7501" lon="4.6578">
        <ele>441.4</ele>
        <time>2020-06-14T09:43:43.000Z</time>
      </trkpt>
      <trkpt lat="45.75018" lon="4.65781">
        <ele>440.2</ele>
        <time>2020-06-14T09:43:44.000Z</time>
      </trkpt>
      <trkpt lat="45.75026" lon="4.65782">
        <ele>438.4</ele>
        <time>2020-06-14T09:43:45.000Z</time>
      </trkpt>
      <trkpt lat="45.75034" lon="4.65784">
        <ele>436.6</ele>
        <time>2020-06-14T09:43:46.000Z</time>
      </trkpt>
      <trkpt lat="45.75043" lon="4.65787">
        <ele>435</ele>
        <time>2020-06-14T09:43:47.000Z</time>
      </trkpt>
      <trkpt lat="45.75051" lon="4.6579">
        <ele>433</ele>
        <time>2020-06-14T09:43:48.000Z</time>
      </trkpt>
      <trkpt lat="45.7506" lon="4.65794">
        <ele>430</ele>
        <time>2020-06-14T09:43:49.000Z</time>
      </trkpt>
      <trkpt lat="45.75069" lon="4.65796">
        <ele>428.4</ele>
        <time>2020-06-14T09:43:50.000Z</time>
      </trkpt>
      <trkpt lat="45.75078" lon="4.65798">
        <ele>427.4</ele>
        <time>2020-06-14T09:43:51.000Z</time>
      </trkpt>
      <trkpt lat="45.75087" lon="4.658">
        <ele>426</ele>
        <time>2020-06-14T09:43:52.000Z</time>
      </trkpt>
      <trkpt lat="45.75095" lon="4.65802">
        <ele>425</ele>
        <time>2020-06-14T09:43:53.000Z</time>
      </trkpt>
      <trkpt lat="45.75114" lon="4.65806">
        <ele>423.8</ele>
        <time>2020-06-14T09:43:55.000Z</time>
      </trkpt>
      <trkpt lat="45.75124" lon="4.65808">
        <ele>422.6</ele>
        <time>2020-06-14T09:43:56.000Z</time>
      </trkpt>
      <trkpt lat="45.75133" lon="4.6581">
        <ele>421.8</ele>
        <time>2020-06-14T09:43:57.000Z</time>
      </trkpt>
      <trkpt lat="45.75142" lon="4.65812">
        <ele>420.4</ele>
        <time>2020-06-14T09:43:58.000Z</time>
      </trkpt>
      <trkpt lat="45.75151" lon="4.65813">
        <ele>418.4</ele>
        <time>2020-06-14T09:43:59.000Z</time>
      </trkpt>
      <trkpt lat="45.75158" lon="4.65814">
        <ele>417.6</ele>
        <time>2020-06-14T09:44:00.000Z</time>
      </trkpt>
      <trkpt lat="45.75166" lon="4.65815">
        <ele>415.6</ele>
        <time>2020-06-14T09:44:01.000Z</time>
      </trkpt>
      <trkpt lat="45.75173" lon="4.65816">
        <ele>414.6</ele>
        <time>2020-06-14T09:44:02.000Z</time>
      </trkpt>
      <trkpt lat="45.75179" lon="4.65817">
        <ele>413.2</ele>
        <time>2020-06-14T09:44:03.000Z</time>
      </trkpt>
      <trkpt lat="45.75185" lon="4.65818">
        <ele>412.4</ele>
        <time>2020-06-14T09:44:04.000Z</time>
      </trkpt>
      <trkpt lat="45.7519" lon="4.65819">
        <ele>411</ele>
        <time>2020-06-14T09:44:05.000Z</time>
      </trkpt>
      <trkpt lat="45.75194" lon="4.65819">
        <ele>409.4</ele>
        <time>2020-06-14T09:44:06.000Z</time>
      </trkpt>
      <trkpt lat="45.75197" lon="4.65819">
        <ele>408.2</ele>
        <time>2020-06-14T09:44:07.000Z</time>
      </trkpt>
      <trkpt lat="45.75201" lon="4.65818">
        <ele>407</ele>
        <time>2020-06-14T09:44:08.000Z</time>
      </trkpt>
      <trkpt lat="45.75204" lon="4.65817">
        <ele>405.2</ele>
        <time>2020-06-14T09:44:09.000Z</time>
      </trkpt>
      <trkpt lat="45.75208" lon="4.65817">
        <ele>404.2</ele>
        <time>2020-06-14T09:44:10.000Z</time>
      </trkpt>
      <trkpt lat="45.75211" lon="4.65816">
        <ele>403.2</ele>
        <time>2020-06-14T09:44:11.000Z</time>
      </trkpt>
      <trkpt lat="45.75214" lon="4.65816">
        <ele>402.6</ele>
        <time>2020-06-14T09:44:12.000Z</time>
      </trkpt>
      <trkpt lat="45.75222" lon="4.65816">
        <ele>401</ele>
        <time>2020-06-14T09:44:14.000Z</time>
      </trkpt>
      <trkpt lat="45.75226" lon="4.65816">
        <ele>401</ele>
        <time>2020-06-14T09:44:15.000Z</time>
      </trkpt>
      <trkpt lat="45.75229" lon="4.65816">
        <ele>400.4</ele>
        <time>2020-06-14T09:44:16.000Z</time>
      </trkpt>
      <trkpt lat="45.75233" lon="4.65817">
        <ele>400.2</ele>
        <time>2020-06-14T09:44:17.000Z</time>
      </trkpt>
      <trkpt lat="45.75237" lon="4.65816">
        <ele>399.6</ele>
        <time>2020-06-14T09:44:18.000Z</time>
      </trkpt>
      <trkpt lat="45.75242" lon="4.65816">
        <ele>399.2</ele>
        <time>2020-06-14T09:44:19.000Z</time>
      </trkpt>
      <trkpt lat="45.75247" lon="4.65815">
        <ele>398.8</ele>
        <time>2020-06-14T09:44:20.000Z</time>
      </trkpt>
      <trkpt lat="45.75251" lon="4.65813">
        <ele>398.2</ele>
        <time>2020-06-14T09:44:21.000Z</time>
      </trkpt>
      <trkpt lat="45.75255" lon="4.6581">
        <ele>397.8</ele>
        <time>2020-06-14T09:44:22.000Z</time>
      </trkpt>
      <trkpt lat="45.75258" lon="4.65806">
        <ele>397.2</ele>
        <time>2020-06-14T09:44:23.000Z</time>
      </trkpt>
      <trkpt lat="45.7526" lon="4.65804">
        <ele>396.4</ele>
        <time>2020-06-14T09:44:24.000Z</time>
      </trkpt>
      <trkpt lat="45.75262" lon="4.65801">
        <ele>395.6</ele>
        <time>2020-06-14T09:44:25.000Z</time>
      </trkpt>
      <trkpt lat="45.75264" lon="4.65799">
        <ele>395</ele>
        <time>2020-06-14T09:44:26.000Z</time>
      </trkpt>
      <trkpt lat="45.75266" lon="4.65797">
        <ele>394.2</ele>
        <time>2020-06-14T09:44:27.000Z</time>
      </trkpt>
      <trkpt lat="45.75268" lon="4.65795">
        <ele>393.8</ele>
        <time>2020-06-14T09:44:28.000Z</time>
      </trkpt>
      <trkpt lat="45.7527" lon="4.65793">
        <ele>393.4</ele>
        <time>2020-06-14T09:44:29.000Z</time>
      </trkpt>
      <trkpt lat="45.75272" lon="4.65791">
        <ele>393</ele>
        <time>2020-06-14T09:44:30.000Z</time>
      </trkpt>
      <trkpt lat="45.75274" lon="4.65789">
        <ele>392.2</ele>
        <time>2020-06-14T09:44:31.000Z</time>
      </trkpt>
      <trkpt lat="45.75276" lon="4.65787">
        <ele>391.4</ele>
        <time>2020-06-14T09:44:32.000Z</time>
      </trkpt>
      <trkpt lat="45.75278" lon="4.65786">
        <ele>390.6</ele>
        <time>2020-06-14T09:44:33.000Z</time>
      </trkpt>
      <trkpt lat="45.75284" lon="4.65783">
        <ele>390.2</ele>
        <time>2020-06-14T09:44:35.000Z</time>
      </trkpt>
      <trkpt lat="45.75287" lon="4.65782">
        <ele>390.2</ele>
        <time>2020-06-14T09:44:36.000Z</time>
      </trkpt>
      <trkpt lat="45.75296" lon="4.65783">
        <ele>389.4</ele>
        <time>2020-06-14T09:44:38.000Z</time>
      </trkpt>
      <trkpt lat="45.75306" lon="4.65786">
        <ele>388.8</ele>
        <time>2020-06-14T09:44:40.000Z</time>
      </trkpt>
      <trkpt lat="45.7531" lon="4.65789">
        <ele>388.4</ele>
        <time>2020-06-14T09:44:41.000Z</time>
      </trkpt>
      <trkpt lat="45.75315" lon="4.65792">
        <ele>388.2</ele>
        <time>2020-06-14T09:44:42.000Z</time>
      </trkpt>
      <trkpt lat="45.75324" lon="4.65799">
        <ele>387.6</ele>
        <time>2020-06-14T09:44:44.000Z</time>
      </trkpt>
      <trkpt lat="45.75329" lon="4.65803">
        <ele>387</ele>
        <time>2020-06-14T09:44:45.000Z</time>
      </trkpt>
      <trkpt lat="45.75333" lon="4.65808">
        <ele>386</ele>
        <time>2020-06-14T09:44:46.000Z</time>
      </trkpt>
      <trkpt lat="45.75343" lon="4.65819">
        <ele>385.4</ele>
        <time>2020-06-14T09:44:48.000Z</time>
      </trkpt>
      <trkpt lat="45.75347" lon="4.65825">
        <ele>385</ele>
        <time>2020-06-14T09:44:49.000Z</time>
      </trkpt>
      <trkpt lat="45.75357" lon="4.65834">
        <ele>384.4</ele>
        <time>2020-06-14T09:44:51.000Z</time>
      </trkpt>
      <trkpt lat="45.75361" lon="4.65838">
        <ele>384</ele>
        <time>2020-06-14T09:44:52.000Z</time>
      </trkpt>
      <trkpt lat="45.75365" lon="4.65842">
        <ele>383.4</ele>
        <time>2020-06-14T09:44:53.000Z</time>
      </trkpt>
      <trkpt lat="45.75369" lon="4.65846">
        <ele>382.6</ele>
        <time>2020-06-14T09:44:54.000Z</time>
      </trkpt>
      <trkpt lat="45.75373" lon="4.65851">
        <ele>382.2</ele>
        <time>2020-06-14T09:44:55.000Z</time>
      </trkpt>
      <trkpt lat="45.75377" lon="4.65855">
        <ele>382.2</ele>
        <time>2020-06-14T09:44:56.000Z</time>
      </trkpt>
      <trkpt lat="45.75382" lon="4.65859">
        <ele>381.6</ele>
        <time>2020-06-14T09:44:57.000Z</time>
      </trkpt>
      <trkpt lat="45.75385" lon="4.65864">
        <ele>381</ele>
        <time>2020-06-14T09:44:58.000Z</time>
      </trkpt>
      <trkpt lat="45.75389" lon="4.65868">
        <ele>380.4</ele>
        <time>2020-06-14T09:44:59.000Z</time>
      </trkpt>
      <trkpt lat="45.75393" lon="4.65873">
        <ele>380</ele>
        <time>2020-06-14T09:45:00.000Z</time>
      </trkpt>
      <trkpt lat="45.75406" lon="4.65886">
        <ele>379.2</ele>
        <time>2020-06-14T09:45:03.000Z</time>
      </trkpt>
      <trkpt lat="45.7541" lon="4.65891">
        <ele>379.2</ele>
        <time>2020-06-14T09:45:04.000Z</time>
      </trkpt>
      <trkpt lat="45.75414" lon="4.65895">
        <ele>378.8</ele>
        <time>2020-06-14T09:45:05.000Z</time>
      </trkpt>
      <trkpt lat="45.75418" lon="4.65899">
        <ele>378.6</ele>
        <time>2020-06-14T09:45:06.000Z</time>
      </trkpt>
      <trkpt lat="45.75422" lon="4.65903">
        <ele>378.6</ele>
        <time>2020-06-14T09:45:07.000Z</time>
      </trkpt>
      <trkpt lat="45.75426" lon="4.65907">
        <ele>378.4</ele>
        <time>2020-06-14T09:45:08.000Z</time>
      </trkpt>
      <trkpt lat="45.75429" lon="4.6591">
        <ele>378</ele>
        <time>2020-06-14T09:45:09.000Z</time>
      </trkpt>
      <trkpt lat="45.75433" lon="4.65914">
        <ele>377.8</ele>
        <time>2020-06-14T09:45:10.000Z</time>
      </trkpt>
      <trkpt lat="45.75436" lon="4.65917">
        <ele>377.6</ele>
        <time>2020-06-14T09:45:11.000Z</time>
      </trkpt>
      <trkpt lat="45.7544" lon="4.65921">
        <ele>377.4</ele>
        <time>2020-06-14T09:45:12.000Z</time>
      </trkpt>
      <trkpt lat="45.75443" lon="4.65924">
        <ele>377.6</ele>
        <time>2020-06-14T09:45:13.000Z</time>
      </trkpt>
      <trkpt lat="45.7545" lon="4.65931">
        <ele>377.4</ele>
        <time>2020-06-14T09:45:15.000Z</time>
      </trkpt>
      <trkpt lat="45.75453" lon="4.65934">
        <ele>377.4</ele>
        <time>2020-06-14T09:45:16.000Z</time>
      </trkpt>
      <trkpt lat="45.75456" lon="4.65937">
        <ele>377.4</ele>
        <time>2020-06-14T09:45:17.000Z</time>
      </trkpt>
      <trkpt lat="45.75459" lon="4.65941">
        <ele>377.4</ele>
        <time>2020-06-14T09:45:18.000Z</time>
      </trkpt>
      <trkpt lat="45.75462" lon="4.65943">
        <ele>377.4</ele>
        <time>2020-06-14T09:45:19.000Z</time>
      </trkpt>
      <trkpt lat="45.75466" lon="4.65946">
        <ele>377.4</ele>
        <time>2020-06-14T09:45:20.000Z</time>
      </trkpt>
      <trkpt lat="45.75469" lon="4.65949">
        <ele>377.4</ele>
        <time>2020-06-14T09:45:21.000Z</time>
      </trkpt>
      <trkpt lat="45.75472" lon="4.65951">
        <ele>377.4</ele>
        <time>2020-06-14T09:45:22.000Z</time>
      </trkpt>
      <trkpt lat="45.75475" lon="4.65954">
        <ele>377.4</ele>
        <time>2020-06-14T09:45:23.000Z</time>
      </trkpt>
      <trkpt lat="45.75478" lon="4.65956">
        <ele>377.8</ele>
        <time>2020-06-14T09:45:24.000Z</time>
      </trkpt>
      <trkpt lat="45.75481" lon="4.65958">
        <ele>377.8</ele>
        <time>2020-06-14T09:45:25.000Z</time>
      </trkpt>
      <trkpt lat="45.75483" lon="4.6596">
        <ele>378</ele>
        <time>2020-06-14T09:45:26.000Z</time>
      </trkpt>
      <trkpt lat="45.75485" lon="4.65962">
        <ele>378</ele>
        <time>2020-06-14T09:45:27.000Z</time>
      </trkpt>
      <trkpt lat="45.75488" lon="4.65963">
        <ele>378</ele>
        <time>2020-06-14T09:45:28.000Z</time>
      </trkpt>
      <trkpt lat="45.7549" lon="4.65964">
        <ele>378.2</ele>
        <time>2020-06-14T09:45:29.000Z</time>
      </trkpt>
      <trkpt lat="45.75493" lon="4.65963">
        <ele>378.2</ele>
        <time>2020-06-14T09:45:30.000Z</time>
      </trkpt>
      <trkpt lat="45.75496" lon="4.65962">
        <ele>378.4</ele>
        <time>2020-06-14T09:45:31.000Z</time>
      </trkpt>
      <trkpt lat="45.755" lon="4.65962">
        <ele>378.4</ele>
        <time>2020-06-14T09:45:33.000Z</time>
      </trkpt>
      <trkpt lat="45.75502" lon="4.65961">
        <ele>378.6</ele>
        <time>2020-06-14T09:45:34.000Z</time>
      </trkpt>
      <trkpt lat="45.75504" lon="4.6596">
        <ele>378.6</ele>
        <time>2020-06-14T09:45:35.000Z</time>
      </trkpt>
      <trkpt lat="45.75506" lon="4.65959">
        <ele>378.6</ele>
        <time>2020-06-14T09:45:36.000Z</time>
      </trkpt>
      <trkpt lat="45.75508" lon="4.65958">
        <ele>378.6</ele>
        <time>2020-06-14T09:45:37.000Z</time>
      </trkpt>
      <trkpt lat="45.7551" lon="4.65957">
        <ele>378.6</ele>
        <time>2020-06-14T09:45:38.000Z</time>
      </trkpt>
      <trkpt lat="45.75513" lon="4.65956">
        <ele>378.6</ele>
        <time>2020-06-14T09:45:39.000Z</time>
      </trkpt>
      <trkpt lat="45.75515" lon="4.65955">
        <ele>379</ele>
        <time>2020-06-14T09:45:40.000Z</time>
      </trkpt>
      <trkpt lat="45.75517" lon="4.65954">
        <ele>379</ele>
        <time>2020-06-14T09:45:41.000Z</time>
      </trkpt>
      <trkpt lat="45.75519" lon="4.65952">
        <ele>379.4</ele>
        <time>2020-06-14T09:45:42.000Z</time>
      </trkpt>
      <trkpt lat="45.75521" lon="4.65951">
        <ele>379.6</ele>
        <time>2020-06-14T09:45:43.000Z</time>
      </trkpt>
      <trkpt lat="45.75522" lon="4.65949">
        <ele>379.8</ele>
        <time>2020-06-14T09:45:44.000Z</time>
      </trkpt>
      <trkpt lat="45.75524" lon="4.65948">
        <ele>380</ele>
        <time>2020-06-14T09:45:45.000Z</time>
      </trkpt>
      <trkpt lat="45.75526" lon="4.65946">
        <ele>380</ele>
        <time>2020-06-14T09:45:46.000Z</time>
      </trkpt>
      <trkpt lat="45.75528" lon="4.65944">
        <ele>380.2</ele>
        <time>2020-06-14T09:45:47.000Z</time>
      </trkpt>
      <trkpt lat="45.7553" lon="4.65942">
        <ele>380.6</ele>
        <time>2020-06-14T09:45:48.000Z</time>
      </trkpt>
      <trkpt lat="45.75531" lon="4.6594">
        <ele>380.6</ele>
        <time>2020-06-14T09:45:49.000Z</time>
      </trkpt>
      <trkpt lat="45.75533" lon="4.65938">
        <ele>380.8</ele>
        <time>2020-06-14T09:45:50.000Z</time>
      </trkpt>
      <trkpt lat="45.75535" lon="4.65936">
        <ele>381</ele>
        <time>2020-06-14T09:45:51.000Z</time>
      </trkpt>
      <trkpt lat="45.75536" lon="4.65934">
        <ele>381.2</ele>
        <time>2020-06-14T09:45:52.000Z</time>
      </trkpt>
      <trkpt lat="45.75538" lon="4.65932">
        <ele>381.2</ele>
        <time>2020-06-14T09:45:53.000Z</time>
      </trkpt>
      <trkpt lat="45.75539" lon="4.6593">
        <ele>381.4</ele>
        <time>2020-06-14T09:45:54.000Z</time>
      </trkpt>
      <trkpt lat="45.75541" lon="4.65928">
        <ele>381.2</ele>
        <time>2020-06-14T09:45:55.000Z</time>
      </trkpt>
      <trkpt lat="45.75542" lon="4.65926">
        <ele>381.6</ele>
        <time>2020-06-14T09:45:56.000Z</time>
      </trkpt>
      <trkpt lat="45.75544" lon="4.65923">
        <ele>381.6</ele>
        <time>2020-06-14T09:45:57.000Z</time>
      </trkpt>
      <trkpt lat="45.75546" lon="4.65921">
        <ele>382</ele>
        <time>2020-06-14T09:45:58.000Z</time>
      </trkpt>
      <trkpt lat="45.75548" lon="4.65919">
        <ele>382.2</ele>
        <time>2020-06-14T09:45:59.000Z</time>
      </trkpt>
      <trkpt lat="45.75549" lon="4.65917">
        <ele>382.4</ele>
        <time>2020-06-14T09:46:00.000Z</time>
      </trkpt>
      <trkpt lat="45.7555" lon="4.65915">
        <ele>382.4</ele>
        <time>2020-06-14T09:46:01.000Z</time>
      </trkpt>
      <trkpt lat="45.75552" lon="4.65912">
        <ele>382.6</ele>
        <time>2020-06-14T09:46:02.000Z</time>
      </trkpt>
      <trkpt lat="45.75553" lon="4.6591">
        <ele>383</ele>
        <time>2020-06-14T09:46:03.000Z</time>
      </trkpt>
      <trkpt lat="45.75555" lon="4.65908">
        <ele>383.2</ele>
        <time>2020-06-14T09:46:04.000Z</time>
      </trkpt>
      <trkpt lat="45.75557" lon="4.65906">
        <ele>383.4</ele>
        <time>2020-06-14T09:46:05.000Z</time>
      </trkpt>
      <trkpt lat="45.75558" lon="4.65903">
        <ele>383.6</ele>
        <time>2020-06-14T09:46:06.000Z</time>
      </trkpt>
      <trkpt lat="45.7556" lon="4.65901">
        <ele>383.8</ele>
        <time>2020-06-14T09:46:07.000Z</time>
      </trkpt>
      <trkpt lat="45.75561" lon="4.65899">
        <ele>383.8</ele>
        <time>2020-06-14T09:46:08.000Z</time>
      </trkpt>
      <trkpt lat="45.75563" lon="4.65897">
        <ele>384.2</ele>
        <time>2020-06-14T09:46:09.000Z</time>
      </trkpt>
      <trkpt lat="45.75565" lon="4.65895">
        <ele>384.6</ele>
        <time>2020-06-14T09:46:10.000Z</time>
      </trkpt>
      <trkpt lat="45.75567" lon="4.65893">
        <ele>385</ele>
        <time>2020-06-14T09:46:11.000Z</time>
      </trkpt>
      <trkpt lat="45.75569" lon="4.6589">
        <ele>385.2</ele>
        <time>2020-06-14T09:46:12.000Z</time>
      </trkpt>
      <trkpt lat="45.75571" lon="4.65888">
        <ele>385.6</ele>
        <time>2020-06-14T09:46:13.000Z</time>
      </trkpt>
      <trkpt lat="45.75573" lon="4.65886">
        <ele>385.8</ele>
        <time>2020-06-14T09:46:14.000Z</time>
      </trkpt>
      <trkpt lat="45.75575" lon="4.65884">
        <ele>386</ele>
        <time>2020-06-14T09:46:15.000Z</time>
      </trkpt>
      <trkpt lat="45.75577" lon="4.65881">
        <ele>386.6</ele>
        <time>2020-06-14T09:46:16.000Z</time>
      </trkpt>
      <trkpt lat="45.75579" lon="4.65878">
        <ele>386.6</ele>
        <time>2020-06-14T09:46:17.000Z</time>
      </trkpt>
      <trkpt lat="45.75581" lon="4.65875">
        <ele>387</ele>
        <time>2020-06-14T09:46:18.000Z</time>
      </trkpt>
      <trkpt lat="45.75583" lon="4.65871">
        <ele>387.6</ele>
        <time>2020-06-14T09:46:19.000Z</time>
      </trkpt>
      <trkpt lat="45.75584" lon="4.65868">
        <ele>387.8</ele>
        <time>2020-06-14T09:46:20.000Z</time>
      </trkpt>
      <trkpt lat="45.75586" lon="4.65866">
        <ele>388</ele>
        <time>2020-06-14T09:46:21.000Z</time>
      </trkpt>
      <trkpt lat="45.75588" lon="4.65863">
        <ele>388.4</ele>
        <time>2020-06-14T09:46:22.000Z</time>
      </trkpt>
      <trkpt lat="45.75589" lon="4.6586">
        <ele>388.6</ele>
        <time>2020-06-14T09:46:23.000Z</time>
      </trkpt>
      <trkpt lat="45.75591" lon="4.65858">
        <ele>389</ele>
        <time>2020-06-14T09:46:24.000Z</time>
      </trkpt>
      <trkpt lat="45.75593" lon="4.65855">
        <ele>389.4</ele>
        <time>2020-06-14T09:46:25.000Z</time>
      </trkpt>
      <trkpt lat="45.75594" lon="4.65853">
        <ele>389.6</ele>
        <time>2020-06-14T09:46:26.000Z</time>
      </trkpt>
      <trkpt lat="45.75597" lon="4.65851">
        <ele>389.8</ele>
        <time>2020-06-14T09:46:27.000Z</time>
      </trkpt>
      <trkpt lat="45.75599" lon="4.65848">
        <ele>390</ele>
        <time>2020-06-14T09:46:28.000Z</time>
      </trkpt>
      <trkpt lat="45.75601" lon="4.65846">
        <ele>390.4</ele>
        <time>2020-06-14T09:46:29.000Z</time>
      </trkpt>
      <trkpt lat="45.75604" lon="4.65844">
        <ele>391</ele>
        <time>2020-06-14T09:46:30.000Z</time>
      </trkpt>
      <trkpt lat="45.75606" lon="4.65842">
        <ele>391.4</ele>
        <time>2020-06-14T09:46:31.000Z</time>
      </trkpt>
      <trkpt lat="45.75609" lon="4.6584">
        <ele>392</ele>
        <time>2020-06-14T09:46:32.000Z</time>
      </trkpt>
      <trkpt lat="45.75611" lon="4.65838">
        <ele>392.4</ele>
        <time>2020-06-14T09:46:33.000Z</time>
      </trkpt>
      <trkpt lat="45.75614" lon="4.65836">
        <ele>392.4</ele>
        <time>2020-06-14T09:46:34.000Z</time>
      </trkpt>
      <trkpt lat="45.75617" lon="4.65834">
        <ele>392.6</ele>
        <time>2020-06-14T09:46:35.000Z</time>
      </trkpt>
      <trkpt lat="45.7562" lon="4.65832">
        <ele>392.8</ele>
        <time>2020-06-14T09:46:36.000Z</time>
      </trkpt>
      <trkpt lat="45.75622" lon="4.65831">
        <ele>393</ele>
        <time>2020-06-14T09:46:37.000Z</time>
      </trkpt>
      <trkpt lat="45.75625" lon="4.65829">
        <ele>393.6</ele>
        <time>2020-06-14T09:46:38.000Z</time>
      </trkpt>
      <trkpt lat="45.75628" lon="4.65827">
        <ele>393.6</ele>
        <time>2020-06-14T09:46:39.000Z</time>
      </trkpt>
      <trkpt lat="45.7563" lon="4.65825">
        <ele>393.8</ele>
        <time>2020-06-14T09:46:40.000Z</time>
      </trkpt>
      <trkpt lat="45.75633" lon="4.65823">
        <ele>394</ele>
        <time>2020-06-14T09:46:41.000Z</time>
      </trkpt>
      <trkpt lat="45.75635" lon="4.65822">
        <ele>394.2</ele>
        <time>2020-06-14T09:46:42.000Z</time>
      </trkpt>
      <trkpt lat="45.75638" lon="4.6582">
        <ele>394.6</ele>
        <time>2020-06-14T09:46:43.000Z</time>
      </trkpt>
      <trkpt lat="45.7564" lon="4.65819">
        <ele>394.8</ele>
        <time>2020-06-14T09:46:44.000Z</time>
      </trkpt>
      <trkpt lat="45.75642" lon="4.65817">
        <ele>395</ele>
        <time>2020-06-14T09:46:45.000Z</time>
      </trkpt>
      <trkpt lat="45.75645" lon="4.65816">
        <ele>395</ele>
        <time>2020-06-14T09:46:46.000Z</time>
      </trkpt>
      <trkpt lat="45.75648" lon="4.65814">
        <ele>395.2</ele>
        <time>2020-06-14T09:46:47.000Z</time>
      </trkpt>
      <trkpt lat="45.7565" lon="4.65813">
        <ele>395.2</ele>
        <time>2020-06-14T09:46:48.000Z</time>
      </trkpt>
      <trkpt lat="45.75653" lon="4.65812">
        <ele>395.6</ele>
        <time>2020-06-14T09:46:49.000Z</time>
      </trkpt>
      <trkpt lat="45.75655" lon="4.65811">
        <ele>395.8</ele>
        <time>2020-06-14T09:46:50.000Z</time>
      </trkpt>
      <trkpt lat="45.75658" lon="4.6581">
        <ele>396</ele>
        <time>2020-06-14T09:46:51.000Z</time>
      </trkpt>
      <trkpt lat="45.7566" lon="4.65809">
        <ele>396.4</ele>
        <time>2020-06-14T09:46:52.000Z</time>
      </trkpt>
      <trkpt lat="45.75662" lon="4.65807">
        <ele>396.4</ele>
        <time>2020-06-14T09:46:53.000Z</time>
      </trkpt>
      <trkpt lat="45.75665" lon="4.65806">
        <ele>396.8</ele>
        <time>2020-06-14T09:46:54.000Z</time>
      </trkpt>
      <trkpt lat="45.75667" lon="4.65805">
        <ele>396.8</ele>
        <time>2020-06-14T09:46:55.000Z</time>
      </trkpt>
      <trkpt lat="45.7567" lon="4.65803">
        <ele>397.2</ele>
        <time>2020-06-14T09:46:56.000Z</time>
      </trkpt>
      <trkpt lat="45.75672" lon="4.65802">
        <ele>397.4</ele>
        <time>2020-06-14T09:46:57.000Z</time>
      </trkpt>
      <trkpt lat="45.75674" lon="4.65801">
        <ele>397.6</ele>
        <time>2020-06-14T09:46:58.000Z</time>
      </trkpt>
      <trkpt lat="45.75676" lon="4.658">
        <ele>397.6</ele>
        <time>2020-06-14T09:46:59.000Z</time>
      </trkpt>
      <trkpt lat="45.75679" lon="4.658">
        <ele>398</ele>
        <time>2020-06-14T09:47:00.000Z</time>
      </trkpt>
      <trkpt lat="45.75681" lon="4.65799">
        <ele>398.2</ele>
        <time>2020-06-14T09:47:01.000Z</time>
      </trkpt>
      <trkpt lat="45.75683" lon="4.65798">
        <ele>398.4</ele>
        <time>2020-06-14T09:47:02.000Z</time>
      </trkpt>
      <trkpt lat="45.75685" lon="4.65797">
        <ele>398.4</ele>
        <time>2020-06-14T09:47:03.000Z</time>
      </trkpt>
      <trkpt lat="45.75687" lon="4.65796">
        <ele>398.6</ele>
        <time>2020-06-14T09:47:04.000Z</time>
      </trkpt>
      <trkpt lat="45.75689" lon="4.65794">
        <ele>399</ele>
        <time>2020-06-14T09:47:05.000Z</time>
      </trkpt>
      <trkpt lat="45.75692" lon="4.65793">
        <ele>399</ele>
        <time>2020-06-14T09:47:06.000Z</time>
      </trkpt>
      <trkpt lat="45.75694" lon="4.65792">
        <ele>399.6</ele>
        <time>2020-06-14T09:47:07.000Z</time>
      </trkpt>
      <trkpt lat="45.75696" lon="4.65791">
        <ele>399.8</ele>
        <time>2020-06-14T09:47:08.000Z</time>
      </trkpt>
      <trkpt lat="45.75699" lon="4.6579">
        <ele>400</ele>
        <time>2020-06-14T09:47:09.000Z</time>
      </trkpt>
      <trkpt lat="45.75701" lon="4.65789">
        <ele>400.4</ele>
        <time>2020-06-14T09:47:10.000Z</time>
      </trkpt>
      <trkpt lat="45.75703" lon="4.65789">
        <ele>400.4</ele>
        <time>2020-06-14T09:47:11.000Z</time>
      </trkpt>
      <trkpt lat="45.75706" lon="4.65788">
        <ele>400.6</ele>
        <time>2020-06-14T09:47:12.000Z</time>
      </trkpt>
      <trkpt lat="45.75708" lon="4.65787">
        <ele>400.8</ele>
        <time>2020-06-14T09:47:13.000Z</time>
      </trkpt>
      <trkpt lat="45.75711" lon="4.65785">
        <ele>401</ele>
        <time>2020-06-14T09:47:14.000Z</time>
      </trkpt>
      <trkpt lat="45.75713" lon="4.65784">
        <ele>401.2</ele>
        <time>2020-06-14T09:47:15.000Z</time>
      </trkpt>
      <trkpt lat="45.75715" lon="4.65783">
        <ele>401.2</ele>
        <time>2020-06-14T09:47:16.000Z</time>
      </trkpt>
      <trkpt lat="45.75717" lon="4.65782">
        <ele>401.4</ele>
        <time>2020-06-14T09:47:17.000Z</time>
      </trkpt>
      <trkpt lat="45.75719" lon="4.65781">
        <ele>401.8</ele>
        <time>2020-06-14T09:47:18.000Z</time>
      </trkpt>
      <trkpt lat="45.7572" lon="4.65781">
        <ele>401.8</ele>
        <time>2020-06-14T09:47:19.000Z</time>
      </trkpt>
      <trkpt lat="45.75721" lon="4.65781">
        <ele>402</ele>
        <time>2020-06-14T09:47:20.000Z</time>
      </trkpt>
      <trkpt lat="45.75723" lon="4.65781">
        <ele>402.2</ele>
        <time>2020-06-14T09:47:21.000Z</time>
      </trkpt>
      <trkpt lat="45.75725" lon="4.65781">
        <ele>402.4</ele>
        <time>2020-06-14T09:47:22.000Z</time>
      </trkpt>
      <trkpt lat="45.75726" lon="4.6578">
        <ele>402.8</ele>
        <time>2020-06-14T09:47:23.000Z</time>
      </trkpt>
      <trkpt lat="45.75727" lon="4.6578">
        <ele>403</ele>
        <time>2020-06-14T09:47:24.000Z</time>
      </trkpt>
      <trkpt lat="45.75728" lon="4.6578">
        <ele>403.4</ele>
        <time>2020-06-14T09:47:25.000Z</time>
      </trkpt>
      <trkpt lat="45.75733" lon="4.65781">
        <ele>404.2</ele>
        <time>2020-06-14T09:47:57.000Z</time>
      </trkpt>
      <trkpt lat="45.75736" lon="4.6578">
        <ele>404.2</ele>
        <time>2020-06-14T09:47:58.000Z</time>
      </trkpt>
      <trkpt lat="45.75739" lon="4.65779">
        <ele>404</ele>
        <time>2020-06-14T09:47:59.000Z</time>
      </trkpt>
      <trkpt lat="45.75748" lon="4.65776">
        <ele>404</ele>
        <time>2020-06-14T09:48:02.000Z</time>
      </trkpt>
      <trkpt lat="45.75756" lon="4.65773">
        <ele>404</ele>
        <time>2020-06-14T09:48:05.000Z</time>
      </trkpt>
      <trkpt lat="45.75758" lon="4.65771">
        <ele>404</ele>
        <time>2020-06-14T09:48:06.000Z</time>
      </trkpt>
      <trkpt lat="45.75761" lon="4.6577">
        <ele>404</ele>
        <time>2020-06-14T09:48:07.000Z</time>
      </trkpt>
      <trkpt lat="45.75764" lon="4.65769">
        <ele>404</ele>
        <time>2020-06-14T09:48:08.000Z</time>
      </trkpt>
      <trkpt lat="45.75766" lon="4.65768">
        <ele>403.8</ele>
        <time>2020-06-14T09:48:09.000Z</time>
      </trkpt>
      <trkpt lat="45.75769" lon="4.65767">
        <ele>404</ele>
        <time>2020-06-14T09:48:10.000Z</time>
      </trkpt>
      <trkpt lat="45.75772" lon="4.65765">
        <ele>404</ele>
        <time>2020-06-14T09:48:11.000Z</time>
      </trkpt>
      <trkpt lat="45.75778" lon="4.65762">
        <ele>404</ele>
        <time>2020-06-14T09:48:13.000Z</time>
      </trkpt>
      <trkpt lat="45.75781" lon="4.65761">
        <ele>404</ele>
        <time>2020-06-14T09:48:14.000Z</time>
      </trkpt>
      <trkpt lat="45.75784" lon="4.6576">
        <ele>404</ele>
        <time>2020-06-14T09:48:15.000Z</time>
      </trkpt>
      <trkpt lat="45.7579" lon="4.65758">
        <ele>404.2</ele>
        <time>2020-06-14T09:48:17.000Z</time>
      </trkpt>
      <trkpt lat="45.758" lon="4.65754">
        <ele>404.4</ele>
        <time>2020-06-14T09:48:20.000Z</time>
      </trkpt>
      <trkpt lat="45.75804" lon="4.65752">
        <ele>404.4</ele>
        <time>2020-06-14T09:48:21.000Z</time>
      </trkpt>
      <trkpt lat="45.7581" lon="4.65749">
        <ele>404.4</ele>
        <time>2020-06-14T09:48:23.000Z</time>
      </trkpt>
      <trkpt lat="45.75814" lon="4.65747">
        <ele>404.2</ele>
        <time>2020-06-14T09:48:24.000Z</time>
      </trkpt>
      <trkpt lat="45.75817" lon="4.65746">
        <ele>404.4</ele>
        <time>2020-06-14T09:48:25.000Z</time>
      </trkpt>
      <trkpt lat="45.7582" lon="4.65745">
        <ele>404.4</ele>
        <time>2020-06-14T09:48:26.000Z</time>
      </trkpt>
      <trkpt lat="45.75824" lon="4.65744">
        <ele>404.2</ele>
        <time>2020-06-14T09:48:27.000Z</time>
      </trkpt>
      <trkpt lat="45.75831" lon="4.65742">
        <ele>404.4</ele>
        <time>2020-06-14T09:48:29.000Z</time>
      </trkpt>
      <trkpt lat="45.75834" lon="4.65741">
        <ele>404.2</ele>
        <time>2020-06-14T09:48:30.000Z</time>
      </trkpt>
      <trkpt lat="45.75837" lon="4.65741">
        <ele>404.2</ele>
        <time>2020-06-14T09:48:31.000Z</time>
      </trkpt>
      <trkpt lat="45.75841" lon="4.65742">
        <ele>404.2</ele>
        <time>2020-06-14T09:48:32.000Z</time>
      </trkpt>
      <trkpt lat="45.75844" lon="4.65742">
        <ele>404</ele>
        <time>2020-06-14T09:48:33.000Z</time>
      </trkpt>
      <trkpt lat="45.75848" lon="4.65743">
        <ele>404</ele>
        <time>2020-06-14T09:48:34.000Z</time>
      </trkpt>
      <trkpt lat="45.75856" lon="4.65744">
        <ele>403.8</ele>
        <time>2020-06-14T09:48:36.000Z</time>
      </trkpt>
      <trkpt lat="45.7586" lon="4.65744">
        <ele>404</ele>
        <time>2020-06-14T09:48:37.000Z</time>
      </trkpt>
      <trkpt lat="45.75863" lon="4.65744">
        <ele>404</ele>
        <time>2020-06-14T09:48:38.000Z</time>
      </trkpt>
      <trkpt lat="45.75866" lon="4.65744">
        <ele>404</ele>
        <time>2020-06-14T09:48:39.000Z</time>
      </trkpt>
      <trkpt lat="45.75869" lon="4.65745">
        <ele>404</ele>
        <time>2020-06-14T09:48:40.000Z</time>
      </trkpt>
      <trkpt lat="45.75872" lon="4.65745">
        <ele>403.8</ele>
        <time>2020-06-14T09:48:41.000Z</time>
      </trkpt>
      <trkpt lat="45.75875" lon="4.65745">
        <ele>403.8</ele>
        <time>2020-06-14T09:48:42.000Z</time>
      </trkpt>
      <trkpt lat="45.75878" lon="4.65746">
        <ele>404</ele>
        <time>2020-06-14T09:48:43.000Z</time>
      </trkpt>
      <trkpt lat="45.75882" lon="4.65746">
        <ele>404</ele>
        <time>2020-06-14T09:48:44.000Z</time>
      </trkpt>
      <trkpt lat="45.75885" lon="4.65746">
        <ele>404.2</ele>
        <time>2020-06-14T09:48:45.000Z</time>
      </trkpt>
      <trkpt lat="45.75888" lon="4.65746">
        <ele>404.4</ele>
        <time>2020-06-14T09:48:46.000Z</time>
      </trkpt>
      <trkpt lat="45.75891" lon="4.65746">
        <ele>404.4</ele>
        <time>2020-06-14T09:48:47.000Z</time>
      </trkpt>
      <trkpt lat="45.75893" lon="4.65745">
        <ele>404.6</ele>
        <time>2020-06-14T09:48:48.000Z</time>
      </trkpt>
      <trkpt lat="45.75896" lon="4.65745">
        <ele>404.6</ele>
        <time>2020-06-14T09:48:49.000Z</time>
      </trkpt>
      <trkpt lat="45.75899" lon="4.65745">
        <ele>405</ele>
        <time>2020-06-14T09:48:50.000Z</time>
      </trkpt>
      <trkpt lat="45.75902" lon="4.65744">
        <ele>405.2</ele>
        <time>2020-06-14T09:48:51.000Z</time>
      </trkpt>
      <trkpt lat="45.75905" lon="4.65744">
        <ele>405.2</ele>
        <time>2020-06-14T09:48:52.000Z</time>
      </trkpt>
      <trkpt lat="45.75908" lon="4.65743">
        <ele>405.4</ele>
        <time>2020-06-14T09:48:53.000Z</time>
      </trkpt>
      <trkpt lat="45.75911" lon="4.65742">
        <ele>405.4</ele>
        <time>2020-06-14T09:48:54.000Z</time>
      </trkpt>
      <trkpt lat="45.75917" lon="4.65741">
        <ele>405.8</ele>
        <time>2020-06-14T09:48:56.000Z</time>
      </trkpt>
      <trkpt lat="45.75929" lon="4.65736">
        <ele>406</ele>
        <time>2020-06-14T09:48:59.000Z</time>
      </trkpt>
      <trkpt lat="45.75933" lon="4.65734">
        <ele>406</ele>
        <time>2020-06-14T09:49:00.000Z</time>
      </trkpt>
      <trkpt lat="45.75937" lon="4.65733">
        <ele>406</ele>
        <time>2020-06-14T09:49:01.000Z</time>
      </trkpt>
      <trkpt lat="45.7594" lon="4.65731">
        <ele>406</ele>
        <time>2020-06-14T09:49:02.000Z</time>
      </trkpt>
      <trkpt lat="45.75943" lon="4.65729">
        <ele>406.2</ele>
        <time>2020-06-14T09:49:03.000Z</time>
      </trkpt>
      <trkpt lat="45.75946" lon="4.65726">
        <ele>406.2</ele>
        <time>2020-06-14T09:49:04.000Z</time>
      </trkpt>
      <trkpt lat="45.75949" lon="4.65724">
        <ele>406.4</ele>
        <time>2020-06-14T09:49:05.000Z</time>
      </trkpt>
      <trkpt lat="45.75952" lon="4.65722">
        <ele>406.6</ele>
        <time>2020-06-14T09:49:06.000Z</time>
      </trkpt>
      <trkpt lat="45.75955" lon="4.6572">
        <ele>406.4</ele>
        <time>2020-06-14T09:49:07.000Z</time>
      </trkpt>
      <trkpt lat="45.75958" lon="4.65718">
        <ele>406.8</ele>
        <time>2020-06-14T09:49:08.000Z</time>
      </trkpt>
      <trkpt lat="45.7596" lon="4.65715">
        <ele>406.6</ele>
        <time>2020-06-14T09:49:09.000Z</time>
      </trkpt>
      <trkpt lat="45.75962" lon="4.65713">
        <ele>407</ele>
        <time>2020-06-14T09:49:10.000Z</time>
      </trkpt>
      <trkpt lat="45.75965" lon="4.65711">
        <ele>407.2</ele>
        <time>2020-06-14T09:49:11.000Z</time>
      </trkpt>
      <trkpt lat="45.75968" lon="4.65709">
        <ele>407.2</ele>
        <time>2020-06-14T09:49:12.000Z</time>
      </trkpt>
      <trkpt lat="45.75972" lon="4.65704">
        <ele>407.4</ele>
        <time>2020-06-14T09:49:14.000Z</time>
      </trkpt>
      <trkpt lat="45.75974" lon="4.65701">
        <ele>407.6</ele>
        <time>2020-06-14T09:49:15.000Z</time>
      </trkpt>
      <trkpt lat="45.75977" lon="4.65698">
        <ele>407.8</ele>
        <time>2020-06-14T09:49:16.000Z</time>
      </trkpt>
      <trkpt lat="45.75985" lon="4.65684">
        <ele>408</ele>
        <time>2020-06-14T09:49:20.000Z</time>
      </trkpt>
      <trkpt lat="45.75991" lon="4.65673">
        <ele>408</ele>
        <time>2020-06-14T09:49:23.000Z</time>
      </trkpt>
      <trkpt lat="45.76002" lon="4.65652">
        <ele>408</ele>
        <time>2020-06-14T09:49:28.000Z</time>
      </trkpt>
      <trkpt lat="45.76003" lon="4.65648">
        <ele>408</ele>
        <time>2020-06-14T09:49:29.000Z</time>
      </trkpt>
      <trkpt lat="45.76005" lon="4.65643">
        <ele>407.8</ele>
        <time>2020-06-14T09:49:30.000Z</time>
      </trkpt>
      <trkpt lat="45.76006" lon="4.65638">
        <ele>408.2</ele>
        <time>2020-06-14T09:49:31.000Z</time>
      </trkpt>
      <trkpt lat="45.76008" lon="4.65633">
        <ele>408</ele>
        <time>2020-06-14T09:49:32.000Z</time>
      </trkpt>
      <trkpt lat="45.76009" lon="4.65628">
        <ele>408</ele>
        <time>2020-06-14T09:49:33.000Z</time>
      </trkpt>
      <trkpt lat="45.76011" lon="4.65623">
        <ele>408</ele>
        <time>2020-06-14T09:49:34.000Z</time>
      </trkpt>
      <trkpt lat="45.76014" lon="4.65613">
        <ele>408</ele>
        <time>2020-06-14T09:49:36.000Z</time>
      </trkpt>
      <trkpt lat="45.76016" lon="4.65609">
        <ele>407.8</ele>
        <time>2020-06-14T09:49:37.000Z</time>
      </trkpt>
      <trkpt lat="45.76017" lon="4.65604">
        <ele>407.8</ele>
        <time>2020-06-14T09:49:38.000Z</time>
      </trkpt>
      <trkpt lat="45.76019" lon="4.65599">
        <ele>408</ele>
        <time>2020-06-14T09:49:39.000Z</time>
      </trkpt>
      <trkpt lat="45.76022" lon="4.65583">
        <ele>408</ele>
        <time>2020-06-14T09:49:42.000Z</time>
      </trkpt>
      <trkpt lat="45.76024" lon="4.65578">
        <ele>407.8</ele>
        <time>2020-06-14T09:49:43.000Z</time>
      </trkpt>
      <trkpt lat="45.76026" lon="4.65568">
        <ele>407.8</ele>
        <time>2020-06-14T09:49:45.000Z</time>
      </trkpt>
      <trkpt lat="45.76027" lon="4.65563">
        <ele>407.8</ele>
        <time>2020-06-14T09:49:46.000Z</time>
      </trkpt>
      <trkpt lat="45.76031" lon="4.65541">
        <ele>407.8</ele>
        <time>2020-06-14T09:49:50.000Z</time>
      </trkpt>
      <trkpt lat="45.76033" lon="4.65524">
        <ele>407.6</ele>
        <time>2020-06-14T09:49:53.000Z</time>
      </trkpt>
      <trkpt lat="45.76037" lon="4.65494">
        <ele>407.6</ele>
        <time>2020-06-14T09:49:58.000Z</time>
      </trkpt>
      <trkpt lat="45.76037" lon="4.65489">
        <ele>407.6</ele>
        <time>2020-06-14T09:49:59.000Z</time>
      </trkpt>
      <trkpt lat="45.76038" lon="4.65483">
        <ele>407.4</ele>
        <time>2020-06-14T09:50:00.000Z</time>
      </trkpt>
      <trkpt lat="45.76038" lon="4.65477">
        <ele>407.4</ele>
        <time>2020-06-14T09:50:01.000Z</time>
      </trkpt>
      <trkpt lat="45.76039" lon="4.65471">
        <ele>407.4</ele>
        <time>2020-06-14T09:50:02.000Z</time>
      </trkpt>
      <trkpt lat="45.7604" lon="4.65466">
        <ele>407.4</ele>
        <time>2020-06-14T09:50:03.000Z</time>
      </trkpt>
      <trkpt lat="45.7604" lon="4.65462">
        <ele>407.4</ele>
        <time>2020-06-14T09:50:04.000Z</time>
      </trkpt>
      <trkpt lat="45.76041" lon="4.65458">
        <ele>407.4</ele>
        <time>2020-06-14T09:50:05.000Z</time>
      </trkpt>
      <trkpt lat="45.76042" lon="4.65453">
        <ele>407.4</ele>
        <time>2020-06-14T09:50:06.000Z</time>
      </trkpt>
      <trkpt lat="45.76043" lon="4.65448">
        <ele>407.4</ele>
        <time>2020-06-14T09:50:07.000Z</time>
      </trkpt>
      <trkpt lat="45.76045" lon="4.65443">
        <ele>407.2</ele>
        <time>2020-06-14T09:50:08.000Z</time>
      </trkpt>
      <trkpt lat="45.76047" lon="4.65437">
        <ele>407.2</ele>
        <time>2020-06-14T09:50:09.000Z</time>
      </trkpt>
      <trkpt lat="45.76049" lon="4.65434">
        <ele>406.6</ele>
        <time>2020-06-14T09:50:10.000Z</time>
      </trkpt>
      <trkpt lat="45.76051" lon="4.65431">
        <ele>406.2</ele>
        <time>2020-06-14T09:50:11.000Z</time>
      </trkpt>
      <trkpt lat="45.76054" lon="4.65428">
        <ele>406</ele>
        <time>2020-06-14T09:50:12.000Z</time>
      </trkpt>
      <trkpt lat="45.76058" lon="4.65426">
        <ele>405.8</ele>
        <time>2020-06-14T09:50:13.000Z</time>
      </trkpt>
      <trkpt lat="45.76061" lon="4.65425">
        <ele>405.6</ele>
        <time>2020-06-14T09:50:14.000Z</time>
      </trkpt>
      <trkpt lat="45.76065" lon="4.65427">
        <ele>405.4</ele>
        <time>2020-06-14T09:50:15.000Z</time>
      </trkpt>
      <trkpt lat="45.76068" lon="4.65429">
        <ele>405</ele>
        <time>2020-06-14T09:50:16.000Z</time>
      </trkpt>
      <trkpt lat="45.76071" lon="4.65433">
        <ele>404.8</ele>
        <time>2020-06-14T09:50:17.000Z</time>
      </trkpt>
      <trkpt lat="45.76078" lon="4.6544">
        <ele>404.8</ele>
        <time>2020-06-14T09:50:19.000Z</time>
      </trkpt>
      <trkpt lat="45.76081" lon="4.65443">
        <ele>404.6</ele>
        <time>2020-06-14T09:50:20.000Z</time>
      </trkpt>
      <trkpt lat="45.76085" lon="4.65446">
        <ele>404.6</ele>
        <time>2020-06-14T09:50:21.000Z</time>
      </trkpt>
      <trkpt lat="45.76088" lon="4.65449">
        <ele>404.4</ele>
        <time>2020-06-14T09:50:22.000Z</time>
      </trkpt>
      <trkpt lat="45.76091" lon="4.65451">
        <ele>404.8</ele>
        <time>2020-06-14T09:50:23.000Z</time>
      </trkpt>
      <trkpt lat="45.76095" lon="4.65454">
        <ele>404.8</ele>
        <time>2020-06-14T09:50:24.000Z</time>
      </trkpt>
      <trkpt lat="45.76099" lon="4.65458">
        <ele>404.6</ele>
        <time>2020-06-14T09:50:25.000Z</time>
      </trkpt>
      <trkpt lat="45.76101" lon="4.6546">
        <ele>404.6</ele>
        <time>2020-06-14T09:50:26.000Z</time>
      </trkpt>
      <trkpt lat="45.76104" lon="4.65463">
        <ele>404.6</ele>
        <time>2020-06-14T09:50:27.000Z</time>
      </trkpt>
      <trkpt lat="45.76107" lon="4.65465">
        <ele>404.8</ele>
        <time>2020-06-14T09:50:28.000Z</time>
      </trkpt>
      <trkpt lat="45.76109" lon="4.65468">
        <ele>404.8</ele>
        <time>2020-06-14T09:50:29.000Z</time>
      </trkpt>
      <trkpt lat="45.76112" lon="4.6547">
        <ele>405.4</ele>
        <time>2020-06-14T09:50:30.000Z</time>
      </trkpt>
      <trkpt lat="45.76114" lon="4.65473">
        <ele>406</ele>
        <time>2020-06-14T09:50:31.000Z</time>
      </trkpt>
      <trkpt lat="45.76116" lon="4.65476">
        <ele>406.8</ele>
        <time>2020-06-14T09:50:32.000Z</time>
      </trkpt>
      <trkpt lat="45.76118" lon="4.65479">
        <ele>407.2</ele>
        <time>2020-06-14T09:50:33.000Z</time>
      </trkpt>
      <trkpt lat="45.76121" lon="4.65481">
        <ele>408</ele>
        <time>2020-06-14T09:50:34.000Z</time>
      </trkpt>
      <trkpt lat="45.76124" lon="4.65484">
        <ele>409</ele>
        <time>2020-06-14T09:50:35.000Z</time>
      </trkpt>
      <trkpt lat="45.76126" lon="4.65486">
        <ele>409.6</ele>
        <time>2020-06-14T09:50:36.000Z</time>
      </trkpt>
      <trkpt lat="45.76129" lon="4.65489">
        <ele>410.2</ele>
        <time>2020-06-14T09:50:37.000Z</time>
      </trkpt>
      <trkpt lat="45.76132" lon="4.65491">
        <ele>410.6</ele>
        <time>2020-06-14T09:50:38.000Z</time>
      </trkpt>
      <trkpt lat="45.76134" lon="4.65493">
        <ele>411</ele>
        <time>2020-06-14T09:50:39.000Z</time>
      </trkpt>
      <trkpt lat="45.76136" lon="4.65496">
        <ele>411.2</ele>
        <time>2020-06-14T09:50:40.000Z</time>
      </trkpt>
      <trkpt lat="45.76139" lon="4.65498">
        <ele>411.8</ele>
        <time>2020-06-14T09:50:41.000Z</time>
      </trkpt>
      <trkpt lat="45.76141" lon="4.655">
        <ele>411.8</ele>
        <time>2020-06-14T09:50:42.000Z</time>
      </trkpt>
      <trkpt lat="45.76143" lon="4.65502">
        <ele>412.2</ele>
        <time>2020-06-14T09:50:43.000Z</time>
      </trkpt>
      <trkpt lat="45.76145" lon="4.65504">
        <ele>412.8</ele>
        <time>2020-06-14T09:50:44.000Z</time>
      </trkpt>
      <trkpt lat="45.76147" lon="4.65506">
        <ele>413.2</ele>
        <time>2020-06-14T09:50:45.000Z</time>
      </trkpt>
      <trkpt lat="45.76148" lon="4.65508">
        <ele>413.8</ele>
        <time>2020-06-14T09:50:46.000Z</time>
      </trkpt>
      <trkpt lat="45.76148" lon="4.6551">
        <ele>414.2</ele>
        <time>2020-06-14T09:50:47.000Z</time>
      </trkpt>
      <trkpt lat="45.76149" lon="4.65512">
        <ele>414.2</ele>
        <time>2020-06-14T09:50:48.000Z</time>
      </trkpt>
      <trkpt lat="45.7615" lon="4.65514">
        <ele>414.6</ele>
        <time>2020-06-14T09:50:49.000Z</time>
      </trkpt>
      <trkpt lat="45.76151" lon="4.65517">
        <ele>415.4</ele>
        <time>2020-06-14T09:50:50.000Z</time>
      </trkpt>
      <trkpt lat="45.76151" lon="4.6552">
        <ele>415.6</ele>
        <time>2020-06-14T09:50:51.000Z</time>
      </trkpt>
      <trkpt lat="45.76151" lon="4.65523">
        <ele>416</ele>
        <time>2020-06-14T09:50:52.000Z</time>
      </trkpt>
      <trkpt lat="45.76151" lon="4.65527">
        <ele>416.2</ele>
        <time>2020-06-14T09:50:53.000Z</time>
      </trkpt>
      <trkpt lat="45.76151" lon="4.6553">
        <ele>416.8</ele>
        <time>2020-06-14T09:50:54.000Z</time>
      </trkpt>
      <trkpt lat="45.76151" lon="4.65534">
        <ele>417.2</ele>
        <time>2020-06-14T09:50:55.000Z</time>
      </trkpt>
      <trkpt lat="45.7615" lon="4.65542">
        <ele>417.8</ele>
        <time>2020-06-14T09:50:57.000Z</time>
      </trkpt>
      <trkpt lat="45.76151" lon="4.6555">
        <ele>418</ele>
        <time>2020-06-14T09:50:59.000Z</time>
      </trkpt>
      <trkpt lat="45.76151" lon="4.65554">
        <ele>418.2</ele>
        <time>2020-06-14T09:51:00.000Z</time>
      </trkpt>
      <trkpt lat="45.76151" lon="4.65558">
        <ele>418.2</ele>
        <time>2020-06-14T09:51:01.000Z</time>
      </trkpt>
      <trkpt lat="45.76152" lon="4.65561">
        <ele>418.2</ele>
        <time>2020-06-14T09:51:02.000Z</time>
      </trkpt>
      <trkpt lat="45.76152" lon="4.65565">
        <ele>418.2</ele>
        <time>2020-06-14T09:51:03.000Z</time>
      </trkpt>
      <trkpt lat="45.76152" lon="4.65569">
        <ele>418.4</ele>
        <time>2020-06-14T09:51:04.000Z</time>
      </trkpt>
      <trkpt lat="45.76152" lon="4.65573">
        <ele>418.2</ele>
        <time>2020-06-14T09:51:05.000Z</time>
      </trkpt>
      <trkpt lat="45.76152" lon="4.65576">
        <ele>418.4</ele>
        <time>2020-06-14T09:51:06.000Z</time>
      </trkpt>
      <trkpt lat="45.76152" lon="4.6558">
        <ele>418.4</ele>
        <time>2020-06-14T09:51:07.000Z</time>
      </trkpt>
      <trkpt lat="45.76154" lon="4.65592">
        <ele>418.4</ele>
        <time>2020-06-14T09:51:10.000Z</time>
      </trkpt>
      <trkpt lat="45.76155" lon="4.65596">
        <ele>418.4</ele>
        <time>2020-06-14T09:51:11.000Z</time>
      </trkpt>
      <trkpt lat="45.76155" lon="4.656">
        <ele>418.4</ele>
        <time>2020-06-14T09:51:12.000Z</time>
      </trkpt>
      <trkpt lat="45.76156" lon="4.65605">
        <ele>418.2</ele>
        <time>2020-06-14T09:51:13.000Z</time>
      </trkpt>
      <trkpt lat="45.76157" lon="4.65614">
        <ele>418.2</ele>
        <time>2020-06-14T09:51:15.000Z</time>
      </trkpt>
      <trkpt lat="45.76158" lon="4.65618">
        <ele>418.2</ele>
        <time>2020-06-14T09:51:16.000Z</time>
      </trkpt>
      <trkpt lat="45.76159" lon="4.65623">
        <ele>418</ele>
        <time>2020-06-14T09:51:17.000Z</time>
      </trkpt>
      <trkpt lat="45.7616" lon="4.65628">
        <ele>418</ele>
        <time>2020-06-14T09:51:18.000Z</time>
      </trkpt>
      <trkpt lat="45.76163" lon="4.65643">
        <ele>418</ele>
        <time>2020-06-14T09:51:21.000Z</time>
      </trkpt>
      <trkpt lat="45.76168" lon="4.65665">
        <ele>418</ele>
        <time>2020-06-14T09:51:25.000Z</time>
      </trkpt>
      <trkpt lat="45.76169" lon="4.6567">
        <ele>417.8</ele>
        <time>2020-06-14T09:51:26.000Z</time>
      </trkpt>
      <trkpt lat="45.76171" lon="4.65675">
        <ele>417.8</ele>
        <time>2020-06-14T09:51:27.000Z</time>
      </trkpt>
      <trkpt lat="45.76172" lon="4.6568">
        <ele>417.8</ele>
        <time>2020-06-14T09:51:28.000Z</time>
      </trkpt>
      <trkpt lat="45.76173" lon="4.65684">
        <ele>417.8</ele>
        <time>2020-06-14T09:51:29.000Z</time>
      </trkpt>
      <trkpt lat="45.76174" lon="4.65688">
        <ele>417.6</ele>
        <time>2020-06-14T09:51:30.000Z</time>
      </trkpt>
      <trkpt lat="45.76174" lon="4.65693">
        <ele>417.6</ele>
        <time>2020-06-14T09:51:31.000Z</time>
      </trkpt>
      <trkpt lat="45.76175" lon="4.65698">
        <ele>417.6</ele>
        <time>2020-06-14T09:51:32.000Z</time>
      </trkpt>
      <trkpt lat="45.76175" lon="4.65703">
        <ele>417.6</ele>
        <time>2020-06-14T09:51:33.000Z</time>
      </trkpt>
      <trkpt lat="45.76176" lon="4.65708">
        <ele>417.4</ele>
        <time>2020-06-14T09:51:34.000Z</time>
      </trkpt>
      <trkpt lat="45.76179" lon="4.65718">
        <ele>417.4</ele>
        <time>2020-06-14T09:51:36.000Z</time>
      </trkpt>
      <trkpt lat="45.76181" lon="4.65723">
        <ele>417</ele>
        <time>2020-06-14T09:51:37.000Z</time>
      </trkpt>
      <trkpt lat="45.76188" lon="4.65738">
        <ele>416.8</ele>
        <time>2020-06-14T09:51:40.000Z</time>
      </trkpt>
      <trkpt lat="45.7619" lon="4.65743">
        <ele>416.8</ele>
        <time>2020-06-14T09:51:41.000Z</time>
      </trkpt>
      <trkpt lat="45.76193" lon="4.65747">
        <ele>416.8</ele>
        <time>2020-06-14T09:51:42.000Z</time>
      </trkpt>
      <trkpt lat="45.76195" lon="4.65752">
        <ele>416.8</ele>
        <time>2020-06-14T09:51:43.000Z</time>
      </trkpt>
      <trkpt lat="45.76197" lon="4.65756">
        <ele>416.8</ele>
        <time>2020-06-14T09:51:44.000Z</time>
      </trkpt>
      <trkpt lat="45.762" lon="4.6576">
        <ele>416.8</ele>
        <time>2020-06-14T09:51:45.000Z</time>
      </trkpt>
      <trkpt lat="45.76202" lon="4.65764">
        <ele>416.6</ele>
        <time>2020-06-14T09:51:46.000Z</time>
      </trkpt>
      <trkpt lat="45.76207" lon="4.65772">
        <ele>417</ele>
        <time>2020-06-14T09:51:48.000Z</time>
      </trkpt>
      <trkpt lat="45.7621" lon="4.65776">
        <ele>416.8</ele>
        <time>2020-06-14T09:51:49.000Z</time>
      </trkpt>
      <trkpt lat="45.76211" lon="4.6578">
        <ele>416.8</ele>
        <time>2020-06-14T09:51:50.000Z</time>
      </trkpt>
      <trkpt lat="45.76213" lon="4.65785">
        <ele>416.8</ele>
        <time>2020-06-14T09:51:51.000Z</time>
      </trkpt>
      <trkpt lat="45.76213" lon="4.6579">
        <ele>416.8</ele>
        <time>2020-06-14T09:51:52.000Z</time>
      </trkpt>
      <trkpt lat="45.76212" lon="4.65796">
        <ele>416.6</ele>
        <time>2020-06-14T09:51:53.000Z</time>
      </trkpt>
      <trkpt lat="45.76212" lon="4.65802">
        <ele>416.8</ele>
        <time>2020-06-14T09:51:54.000Z</time>
      </trkpt>
      <trkpt lat="45.76213" lon="4.65807">
        <ele>416.8</ele>
        <time>2020-06-14T09:51:55.000Z</time>
      </trkpt>
      <trkpt lat="45.76214" lon="4.65813">
        <ele>416.8</ele>
        <time>2020-06-14T09:51:56.000Z</time>
      </trkpt>
      <trkpt lat="45.76215" lon="4.65819">
        <ele>416.6</ele>
        <time>2020-06-14T09:51:57.000Z</time>
      </trkpt>
      <trkpt lat="45.76217" lon="4.65824">
        <ele>416.8</ele>
        <time>2020-06-14T09:51:58.000Z</time>
      </trkpt>
      <trkpt lat="45.76218" lon="4.65829">
        <ele>416.4</ele>
        <time>2020-06-14T09:51:59.000Z</time>
      </trkpt>
      <trkpt lat="45.76221" lon="4.65834">
        <ele>416.4</ele>
        <time>2020-06-14T09:52:00.000Z</time>
      </trkpt>
      <trkpt lat="45.76223" lon="4.65839">
        <ele>416.4</ele>
        <time>2020-06-14T09:52:01.000Z</time>
      </trkpt>
      <trkpt lat="45.76225" lon="4.65844">
        <ele>416.4</ele>
        <time>2020-06-14T09:52:02.000Z</time>
      </trkpt>
      <trkpt lat="45.76227" lon="4.65849">
        <ele>416.4</ele>
        <time>2020-06-14T09:52:03.000Z</time>
      </trkpt>
      <trkpt lat="45.76229" lon="4.65853">
        <ele>416.4</ele>
        <time>2020-06-14T09:52:04.000Z</time>
      </trkpt>
      <trkpt lat="45.76231" lon="4.65858">
        <ele>416.2</ele>
        <time>2020-06-14T09:52:05.000Z</time>
      </trkpt>
      <trkpt lat="45.76232" lon="4.65863">
        <ele>416.2</ele>
        <time>2020-06-14T09:52:06.000Z</time>
      </trkpt>
      <trkpt lat="45.76234" lon="4.65867">
        <ele>416.4</ele>
        <time>2020-06-14T09:52:07.000Z</time>
      </trkpt>
      <trkpt lat="45.76236" lon="4.65872">
        <ele>416.4</ele>
        <time>2020-06-14T09:52:08.000Z</time>
      </trkpt>
      <trkpt lat="45.7624" lon="4.65881">
        <ele>416.4</ele>
        <time>2020-06-14T09:52:10.000Z</time>
      </trkpt>
      <trkpt lat="45.76242" lon="4.65886">
        <ele>416.4</ele>
        <time>2020-06-14T09:52:11.000Z</time>
      </trkpt>
      <trkpt lat="45.76244" lon="4.6589">
        <ele>416.4</ele>
        <time>2020-06-14T09:52:12.000Z</time>
      </trkpt>
      <trkpt lat="45.76245" lon="4.65895">
        <ele>416.6</ele>
        <time>2020-06-14T09:52:13.000Z</time>
      </trkpt>
      <trkpt lat="45.76247" lon="4.65899">
        <ele>416.8</ele>
        <time>2020-06-14T09:52:14.000Z</time>
      </trkpt>
      <trkpt lat="45.76249" lon="4.65903">
        <ele>416.8</ele>
        <time>2020-06-14T09:52:15.000Z</time>
      </trkpt>
      <trkpt lat="45.76251" lon="4.65907">
        <ele>416.8</ele>
        <time>2020-06-14T09:52:16.000Z</time>
      </trkpt>
      <trkpt lat="45.76253" lon="4.65911">
        <ele>416.8</ele>
        <time>2020-06-14T09:52:17.000Z</time>
      </trkpt>
      <trkpt lat="45.76255" lon="4.65914">
        <ele>417</ele>
        <time>2020-06-14T09:52:18.000Z</time>
      </trkpt>
      <trkpt lat="45.76257" lon="4.65917">
        <ele>417</ele>
        <time>2020-06-14T09:52:19.000Z</time>
      </trkpt>
      <trkpt lat="45.76259" lon="4.65919">
        <ele>417</ele>
        <time>2020-06-14T09:52:20.000Z</time>
      </trkpt>
      <trkpt lat="45.76262" lon="4.6592">
        <ele>417.2</ele>
        <time>2020-06-14T09:52:21.000Z</time>
      </trkpt>
      <trkpt lat="45.76264" lon="4.65921">
        <ele>417.4</ele>
        <time>2020-06-14T09:52:22.000Z</time>
      </trkpt>
      <trkpt lat="45.76266" lon="4.65921">
        <ele>417.4</ele>
        <time>2020-06-14T09:52:23.000Z</time>
      </trkpt>
      <trkpt lat="45.76269" lon="4.65922">
        <ele>417.6</ele>
        <time>2020-06-14T09:52:24.000Z</time>
      </trkpt>
      <trkpt lat="45.76271" lon="4.65925">
        <ele>417.8</ele>
        <time>2020-06-14T09:52:25.000Z</time>
      </trkpt>
      <trkpt lat="45.76273" lon="4.65927">
        <ele>418.2</ele>
        <time>2020-06-14T09:52:26.000Z</time>
      </trkpt>
      <trkpt lat="45.76276" lon="4.6593">
        <ele>418.6</ele>
        <time>2020-06-14T09:52:27.000Z</time>
      </trkpt>
      <trkpt lat="45.76278" lon="4.65934">
        <ele>418.8</ele>
        <time>2020-06-14T09:52:28.000Z</time>
      </trkpt>
      <trkpt lat="45.7628" lon="4.65937">
        <ele>419</ele>
        <time>2020-06-14T09:52:29.000Z</time>
      </trkpt>
      <trkpt lat="45.76282" lon="4.6594">
        <ele>419</ele>
        <time>2020-06-14T09:52:30.000Z</time>
      </trkpt>
      <trkpt lat="45.76285" lon="4.65944">
        <ele>419.2</ele>
        <time>2020-06-14T09:52:31.000Z</time>
      </trkpt>
      <trkpt lat="45.76287" lon="4.65947">
        <ele>419.4</ele>
        <time>2020-06-14T09:52:32.000Z</time>
      </trkpt>
      <trkpt lat="45.76289" lon="4.65951">
        <ele>419.8</ele>
        <time>2020-06-14T09:52:33.000Z</time>
      </trkpt>
      <trkpt lat="45.76292" lon="4.65955">
        <ele>420</ele>
        <time>2020-06-14T09:52:34.000Z</time>
      </trkpt>
      <trkpt lat="45.76294" lon="4.65958">
        <ele>420.4</ele>
        <time>2020-06-14T09:52:35.000Z</time>
      </trkpt>
      <trkpt lat="45.76297" lon="4.65961">
        <ele>420.6</ele>
        <time>2020-06-14T09:52:36.000Z</time>
      </trkpt>
      <trkpt lat="45.76299" lon="4.65964">
        <ele>420.8</ele>
        <time>2020-06-14T09:52:37.000Z</time>
      </trkpt>
      <trkpt lat="45.76302" lon="4.65968">
        <ele>421</ele>
        <time>2020-06-14T09:52:38.000Z</time>
      </trkpt>
      <trkpt lat="45.76304" lon="4.65971">
        <ele>421.4</ele>
        <time>2020-06-14T09:52:39.000Z</time>
      </trkpt>
      <trkpt lat="45.76307" lon="4.65973">
        <ele>421.6</ele>
        <time>2020-06-14T09:52:40.000Z</time>
      </trkpt>
      <trkpt lat="45.76309" lon="4.65976">
        <ele>421.6</ele>
        <time>2020-06-14T09:52:41.000Z</time>
      </trkpt>
      <trkpt lat="45.76311" lon="4.65978">
        <ele>421.8</ele>
        <time>2020-06-14T09:52:42.000Z</time>
      </trkpt>
      <trkpt lat="45.76313" lon="4.65979">
        <ele>421.8</ele>
        <time>2020-06-14T09:52:43.000Z</time>
      </trkpt>
      <trkpt lat="45.76315" lon="4.65981">
        <ele>421.8</ele>
        <time>2020-06-14T09:52:44.000Z</time>
      </trkpt>
      <trkpt lat="45.76317" lon="4.65983">
        <ele>422</ele>
        <time>2020-06-14T09:52:45.000Z</time>
      </trkpt>
      <trkpt lat="45.76319" lon="4.65984">
        <ele>422.2</ele>
        <time>2020-06-14T09:52:46.000Z</time>
      </trkpt>
      <trkpt lat="45.76322" lon="4.65985">
        <ele>422.4</ele>
        <time>2020-06-14T09:52:47.000Z</time>
      </trkpt>
      <trkpt lat="45.7633" lon="4.65988">
        <ele>423</ele>
        <time>2020-06-14T09:52:50.000Z</time>
      </trkpt>
      <trkpt lat="45.76333" lon="4.65989">
        <ele>423.2</ele>
        <time>2020-06-14T09:52:51.000Z</time>
      </trkpt>
      <trkpt lat="45.76337" lon="4.6599">
        <ele>423.2</ele>
        <time>2020-06-14T09:52:52.000Z</time>
      </trkpt>
      <trkpt lat="45.76347" lon="4.65995">
        <ele>423.4</ele>
        <time>2020-06-14T09:52:55.000Z</time>
      </trkpt>
      <trkpt lat="45.7635" lon="4.65996">
        <ele>423.4</ele>
        <time>2020-06-14T09:52:56.000Z</time>
      </trkpt>
      <trkpt lat="45.76353" lon="4.65998">
        <ele>423.4</ele>
        <time>2020-06-14T09:52:57.000Z</time>
      </trkpt>
      <trkpt lat="45.76356" lon="4.65999">
        <ele>423.4</ele>
        <time>2020-06-14T09:52:58.000Z</time>
      </trkpt>
      <trkpt lat="45.76359" lon="4.66001">
        <ele>423.4</ele>
        <time>2020-06-14T09:52:59.000Z</time>
      </trkpt>
      <trkpt lat="45.76369" lon="4.66006">
        <ele>423.4</ele>
        <time>2020-06-14T09:53:02.000Z</time>
      </trkpt>
      <trkpt lat="45.76379" lon="4.66013">
        <ele>423.4</ele>
        <time>2020-06-14T09:53:05.000Z</time>
      </trkpt>
      <trkpt lat="45.76383" lon="4.66016">
        <ele>423.4</ele>
        <time>2020-06-14T09:53:06.000Z</time>
      </trkpt>
      <trkpt lat="45.7639" lon="4.66021">
        <ele>423.2</ele>
        <time>2020-06-14T09:53:08.000Z</time>
      </trkpt>
      <trkpt lat="45.76392" lon="4.66023">
        <ele>423.2</ele>
        <time>2020-06-14T09:53:09.000Z</time>
      </trkpt>
      <trkpt lat="45.76394" lon="4.66025">
        <ele>423.2</ele>
        <time>2020-06-14T09:53:10.000Z</time>
      </trkpt>
      <trkpt lat="45.76395" lon="4.66027">
        <ele>423</ele>
        <time>2020-06-14T09:53:11.000Z</time>
      </trkpt>
      <trkpt lat="45.76396" lon="4.66029">
        <ele>422.8</ele>
        <time>2020-06-14T09:53:12.000Z</time>
      </trkpt>
      <trkpt lat="45.76398" lon="4.66032">
        <ele>422.8</ele>
        <time>2020-06-14T09:53:13.000Z</time>
      </trkpt>
      <trkpt lat="45.764" lon="4.66035">
        <ele>422.4</ele>
        <time>2020-06-14T09:53:14.000Z</time>
      </trkpt>
      <trkpt lat="45.76403" lon="4.66037">
        <ele>421.8</ele>
        <time>2020-06-14T09:53:15.000Z</time>
      </trkpt>
      <trkpt lat="45.76407" lon="4.66036">
        <ele>421.4</ele>
        <time>2020-06-14T09:53:16.000Z</time>
      </trkpt>
      <trkpt lat="45.7641" lon="4.66036">
        <ele>421.2</ele>
        <time>2020-06-14T09:53:17.000Z</time>
      </trkpt>
      <trkpt lat="45.76413" lon="4.66036">
        <ele>421</ele>
        <time>2020-06-14T09:53:18.000Z</time>
      </trkpt>
      <trkpt lat="45.76416" lon="4.66036">
        <ele>420.8</ele>
        <time>2020-06-14T09:53:19.000Z</time>
      </trkpt>
      <trkpt lat="45.76419" lon="4.66036">
        <ele>420.8</ele>
        <time>2020-06-14T09:53:20.000Z</time>
      </trkpt>
      <trkpt lat="45.76423" lon="4.66036">
        <ele>420.8</ele>
        <time>2020-06-14T09:53:21.000Z</time>
      </trkpt>
      <trkpt lat="45.76426" lon="4.66037">
        <ele>420.8</ele>
        <time>2020-06-14T09:53:22.000Z</time>
      </trkpt>
      <trkpt lat="45.7643" lon="4.66038">
        <ele>420.8</ele>
        <time>2020-06-14T09:53:23.000Z</time>
      </trkpt>
      <trkpt lat="45.76433" lon="4.66039">
        <ele>420.8</ele>
        <time>2020-06-14T09:53:24.000Z</time>
      </trkpt>
      <trkpt lat="45.7644" lon="4.66043">
        <ele>420.8</ele>
        <time>2020-06-14T09:53:26.000Z</time>
      </trkpt>
      <trkpt lat="45.76451" lon="4.66049">
        <ele>420.8</ele>
        <time>2020-06-14T09:53:29.000Z</time>
      </trkpt>
      <trkpt lat="45.76454" lon="4.66051">
        <ele>420.8</ele>
        <time>2020-06-14T09:53:30.000Z</time>
      </trkpt>
      <trkpt lat="45.76458" lon="4.66053">
        <ele>420.8</ele>
        <time>2020-06-14T09:53:31.000Z</time>
      </trkpt>
      <trkpt lat="45.76461" lon="4.66055">
        <ele>421</ele>
        <time>2020-06-14T09:53:32.000Z</time>
      </trkpt>
      <trkpt lat="45.76465" lon="4.66057">
        <ele>421</ele>
        <time>2020-06-14T09:53:33.000Z</time>
      </trkpt>
      <trkpt lat="45.76468" lon="4.66059">
        <ele>421.2</ele>
        <time>2020-06-14T09:53:34.000Z</time>
      </trkpt>
      <trkpt lat="45.76471" lon="4.66061">
        <ele>421.2</ele>
        <time>2020-06-14T09:53:35.000Z</time>
      </trkpt>
      <trkpt lat="45.76474" lon="4.66063">
        <ele>421.2</ele>
        <time>2020-06-14T09:53:36.000Z</time>
      </trkpt>
      <trkpt lat="45.76477" lon="4.66064">
        <ele>421.4</ele>
        <time>2020-06-14T09:53:37.000Z</time>
      </trkpt>
      <trkpt lat="45.7648" lon="4.66066">
        <ele>421.6</ele>
        <time>2020-06-14T09:53:38.000Z</time>
      </trkpt>
      <trkpt lat="45.76482" lon="4.66068">
        <ele>421.6</ele>
        <time>2020-06-14T09:53:39.000Z</time>
      </trkpt>
      <trkpt lat="45.76485" lon="4.66069">
        <ele>422</ele>
        <time>2020-06-14T09:53:40.000Z</time>
      </trkpt>
      <trkpt lat="45.76487" lon="4.66071">
        <ele>422.2</ele>
        <time>2020-06-14T09:53:41.000Z</time>
      </trkpt>
      <trkpt lat="45.76489" lon="4.66073">
        <ele>422.4</ele>
        <time>2020-06-14T09:53:42.000Z</time>
      </trkpt>
      <trkpt lat="45.76491" lon="4.66074">
        <ele>422.8</ele>
        <time>2020-06-14T09:53:43.000Z</time>
      </trkpt>
      <trkpt lat="45.76493" lon="4.66072">
        <ele>422.8</ele>
        <time>2020-06-14T09:53:44.000Z</time>
      </trkpt>
      <trkpt lat="45.76495" lon="4.6607">
        <ele>422.8</ele>
        <time>2020-06-14T09:53:45.000Z</time>
      </trkpt>
      <trkpt lat="45.76497" lon="4.66068">
        <ele>423</ele>
        <time>2020-06-14T09:53:46.000Z</time>
      </trkpt>
      <trkpt lat="45.76498" lon="4.66064">
        <ele>423</ele>
        <time>2020-06-14T09:53:47.000Z</time>
      </trkpt>
      <trkpt lat="45.76499" lon="4.66061">
        <ele>423</ele>
        <time>2020-06-14T09:53:48.000Z</time>
      </trkpt>
      <trkpt lat="45.765" lon="4.66057">
        <ele>423</ele>
        <time>2020-06-14T09:53:49.000Z</time>
      </trkpt>
      <trkpt lat="45.765" lon="4.66054">
        <ele>423</ele>
        <time>2020-06-14T09:53:50.000Z</time>
      </trkpt>
      <trkpt lat="45.765" lon="4.66051">
        <ele>423</ele>
        <time>2020-06-14T09:53:51.000Z</time>
      </trkpt>
      <trkpt lat="45.76501" lon="4.66048">
        <ele>423</ele>
        <time>2020-06-14T09:53:52.000Z</time>
      </trkpt>
      <trkpt lat="45.76501" lon="4.66044">
        <ele>423.2</ele>
        <time>2020-06-14T09:53:53.000Z</time>
      </trkpt>
      <trkpt lat="45.76502" lon="4.66041">
        <ele>423.2</ele>
        <time>2020-06-14T09:53:54.000Z</time>
      </trkpt>
      <trkpt lat="45.76502" lon="4.66038">
        <ele>423.4</ele>
        <time>2020-06-14T09:53:55.000Z</time>
      </trkpt>
      <trkpt lat="45.76504" lon="4.66035">
        <ele>423.6</ele>
        <time>2020-06-14T09:53:56.000Z</time>
      </trkpt>
      <trkpt lat="45.76505" lon="4.66032">
        <ele>423.6</ele>
        <time>2020-06-14T09:53:57.000Z</time>
      </trkpt>
      <trkpt lat="45.76507" lon="4.6603">
        <ele>424</ele>
        <time>2020-06-14T09:53:58.000Z</time>
      </trkpt>
      <trkpt lat="45.76509" lon="4.66028">
        <ele>424</ele>
        <time>2020-06-14T09:53:59.000Z</time>
      </trkpt>
      <trkpt lat="45.76512" lon="4.66027">
        <ele>424.2</ele>
        <time>2020-06-14T09:54:00.000Z</time>
      </trkpt>
      <trkpt lat="45.76514" lon="4.66025">
        <ele>424.4</ele>
        <time>2020-06-14T09:54:01.000Z</time>
      </trkpt>
      <trkpt lat="45.76516" lon="4.66022">
        <ele>424.6</ele>
        <time>2020-06-14T09:54:02.000Z</time>
      </trkpt>
      <trkpt lat="45.76517" lon="4.66019">
        <ele>424.8</ele>
        <time>2020-06-14T09:54:03.000Z</time>
      </trkpt>
      <trkpt lat="45.76519" lon="4.66016">
        <ele>424.8</ele>
        <time>2020-06-14T09:54:04.000Z</time>
      </trkpt>
      <trkpt lat="45.7652" lon="4.66013">
        <ele>425</ele>
        <time>2020-06-14T09:54:05.000Z</time>
      </trkpt>
      <trkpt lat="45.76521" lon="4.6601">
        <ele>425</ele>
        <time>2020-06-14T09:54:06.000Z</time>
      </trkpt>
      <trkpt lat="45.76522" lon="4.66007">
        <ele>425.4</ele>
        <time>2020-06-14T09:54:07.000Z</time>
      </trkpt>
      <trkpt lat="45.76523" lon="4.66004">
        <ele>425.6</ele>
        <time>2020-06-14T09:54:08.000Z</time>
      </trkpt>
      <trkpt lat="45.76525" lon="4.66002">
        <ele>425.8</ele>
        <time>2020-06-14T09:54:09.000Z</time>
      </trkpt>
      <trkpt lat="45.76527" lon="4.66002">
        <ele>426</ele>
        <time>2020-06-14T09:54:10.000Z</time>
      </trkpt>
      <trkpt lat="45.76529" lon="4.66002">
        <ele>426.4</ele>
        <time>2020-06-14T09:54:11.000Z</time>
      </trkpt>
      <trkpt lat="45.76532" lon="4.66002">
        <ele>426.6</ele>
        <time>2020-06-14T09:54:12.000Z</time>
      </trkpt>
      <trkpt lat="45.76534" lon="4.66003">
        <ele>427</ele>
        <time>2020-06-14T09:54:13.000Z</time>
      </trkpt>
      <trkpt lat="45.76537" lon="4.66003">
        <ele>427.2</ele>
        <time>2020-06-14T09:54:14.000Z</time>
      </trkpt>
      <trkpt lat="45.7654" lon="4.66004">
        <ele>427.4</ele>
        <time>2020-06-14T09:54:15.000Z</time>
      </trkpt>
      <trkpt lat="45.76542" lon="4.66004">
        <ele>427.8</ele>
        <time>2020-06-14T09:54:16.000Z</time>
      </trkpt>
      <trkpt lat="45.76545" lon="4.66005">
        <ele>428</ele>
        <time>2020-06-14T09:54:17.000Z</time>
      </trkpt>
      <trkpt lat="45.76548" lon="4.66006">
        <ele>428.2</ele>
        <time>2020-06-14T09:54:18.000Z</time>
      </trkpt>
      <trkpt lat="45.76551" lon="4.66007">
        <ele>428.4</ele>
        <time>2020-06-14T09:54:19.000Z</time>
      </trkpt>
      <trkpt lat="45.76553" lon="4.66008">
        <ele>428.6</ele>
        <time>2020-06-14T09:54:20.000Z</time>
      </trkpt>
      <trkpt lat="45.76556" lon="4.66008">
        <ele>428.6</ele>
        <time>2020-06-14T09:54:21.000Z</time>
      </trkpt>
      <trkpt lat="45.76558" lon="4.66009">
        <ele>428.8</ele>
        <time>2020-06-14T09:54:22.000Z</time>
      </trkpt>
      <trkpt lat="45.76561" lon="4.6601">
        <ele>429</ele>
        <time>2020-06-14T09:54:23.000Z</time>
      </trkpt>
      <trkpt lat="45.76563" lon="4.66011">
        <ele>429</ele>
        <time>2020-06-14T09:54:24.000Z</time>
      </trkpt>
      <trkpt lat="45.76565" lon="4.66011">
        <ele>429</ele>
        <time>2020-06-14T09:54:25.000Z</time>
      </trkpt>
      <trkpt lat="45.76567" lon="4.66012">
        <ele>429</ele>
        <time>2020-06-14T09:54:26.000Z</time>
      </trkpt>
      <trkpt lat="45.76569" lon="4.66014">
        <ele>429.2</ele>
        <time>2020-06-14T09:54:27.000Z</time>
      </trkpt>
      <trkpt lat="45.76571" lon="4.66015">
        <ele>429.2</ele>
        <time>2020-06-14T09:54:28.000Z</time>
      </trkpt>
      <trkpt lat="45.76572" lon="4.66016">
        <ele>429.2</ele>
        <time>2020-06-14T09:54:29.000Z</time>
      </trkpt>
      <trkpt lat="45.76573" lon="4.66017">
        <ele>429.2</ele>
        <time>2020-06-14T09:54:30.000Z</time>
      </trkpt>
      <trkpt lat="45.76574" lon="4.66018">
        <ele>429.2</ele>
        <time>2020-06-14T09:54:31.000Z</time>
      </trkpt>
      <trkpt lat="45.76574" lon="4.66018">
        <ele>429.2</ele>
        <time>2020-06-14T09:54:32.000Z</time>
      </trkpt>
    </trkseg>
  </trk>
</gpx>